<?xml version='1.0' encoding='UTF-8'?><gpx version="1.1" creator="JPX - https://github.com/jenetics/jpx" xmlns="http://www.topografix.com/GPX/1/1"><trk><trkseg><trkpt lat="45.0504997" lon="7.6402452"><ele>264.0</ele><time>2026-04-10T06:18:20.838Z</time></trkpt><trkpt lat="45.0504831" lon="7.6401476"><ele>264.0</ele><time>2026-04-10T06:18:34.838Z</time></trkpt><trkpt lat="45.0504982" lon="7.6400523"><ele>264.0</ele><time>2026-04-10T06:18:37.838Z</time></trkpt><trkpt lat="45.0505562" lon="7.639986"><ele>264.0</ele><time>2026-04-10T06:18:41.839Z</time></trkpt><trkpt lat="45.0506145" lon="7.639928"><ele>264.0</ele><time>2026-04-10T06:18:44.839Z</time></trkpt><trkpt lat="45.0506908" lon="7.6399422"><ele>264.0</ele><time>2026-04-10T06:18:46.838Z</time></trkpt><trkpt lat="45.0507536" lon="7.6399649"><ele>264.0</ele><time>2026-04-10T06:18:48.839Z</time></trkpt><trkpt lat="45.0508213" lon="7.6399887"><ele>264.0</ele><time>2026-04-10T06:18:50.838Z</time></trkpt><trkpt lat="45.0508723" lon="7.6400477"><ele>264.0</ele><time>2026-04-10T06:18:52.839Z</time></trkpt><trkpt lat="45.0508631" lon="7.6401615"><ele>264.0</ele><time>2026-04-10T06:18:55.84Z</time></trkpt><trkpt lat="45.0508081" lon="7.6402335"><ele>264.0</ele><time>2026-04-10T06:18:57.838Z</time></trkpt><trkpt lat="45.0507335" lon="7.6403173"><ele>264.0</ele><time>2026-04-10T06:19:00.838Z</time></trkpt><trkpt lat="45.0506928" lon="7.6404037"><ele>264.0</ele><time>2026-04-10T06:19:03.839Z</time></trkpt><trkpt lat="45.0506565" lon="7.6404853"><ele>264.0</ele><time>2026-04-10T06:19:05.839Z</time></trkpt><trkpt lat="45.0506112" lon="7.6406443"><ele>264.0</ele><time>2026-04-10T06:19:07.838Z</time></trkpt><trkpt lat="45.0505697" lon="7.6407639"><ele>264.0</ele><time>2026-04-10T06:19:09.838Z</time></trkpt><trkpt lat="45.0505641" lon="7.6408616"><ele>264.0</ele><time>2026-04-10T06:19:11.84Z</time></trkpt><trkpt lat="45.0505616" lon="7.6409572"><ele>264.0</ele><time>2026-04-10T06:19:14.838Z</time></trkpt><trkpt lat="45.0504859" lon="7.6410022"><ele>264.0</ele><time>2026-04-10T06:19:16.839Z</time></trkpt><trkpt lat="45.0504707" lon="7.6410894"><ele>263.8333333333333</ele><time>2026-04-10T06:19:29.839Z</time></trkpt><trkpt lat="45.0505013" lon="7.6411939"><ele>263.6666666666667</ele><time>2026-04-10T06:21:59.838Z</time></trkpt><trkpt lat="45.0504723" lon="7.6412956"><ele>263.5</ele><time>2026-04-10T06:22:03.839Z</time></trkpt><trkpt lat="45.0504147" lon="7.6414515"><ele>263.33333333333337</ele><time>2026-04-10T06:22:07.839Z</time></trkpt><trkpt lat="45.0503974" lon="7.6415446"><ele>263.1666666666667</ele><time>2026-04-10T06:22:09.839Z</time></trkpt><trkpt lat="45.0503605" lon="7.6416569"><ele>263.0</ele><time>2026-04-10T06:22:11.838Z</time></trkpt><trkpt lat="45.0503209" lon="7.6417304"><ele>263.0</ele><time>2026-04-10T06:22:13.839Z</time></trkpt><trkpt lat="45.0503014" lon="7.641822"><ele>263.0</ele><time>2026-04-10T06:22:15.838Z</time></trkpt><trkpt lat="45.0503379" lon="7.6418973"><ele>263.0</ele><time>2026-04-10T06:22:16.839Z</time></trkpt><trkpt lat="45.0503129" lon="7.6420585"><ele>263.0</ele><time>2026-04-10T06:22:18.838Z</time></trkpt><trkpt lat="45.0503032" lon="7.6421828"><ele>263.0</ele><time>2026-04-10T06:22:20.839Z</time></trkpt><trkpt lat="45.0502567" lon="7.6423224"><ele>263.0</ele><time>2026-04-10T06:22:22.837Z</time></trkpt><trkpt lat="45.050219" lon="7.6424705"><ele>263.0</ele><time>2026-04-10T06:22:24.837Z</time></trkpt><trkpt lat="45.0501895" lon="7.6425788"><ele>263.0</ele><time>2026-04-10T06:22:26.837Z</time></trkpt><trkpt lat="45.0501667" lon="7.6426674"><ele>263.0</ele><time>2026-04-10T06:22:27.838Z</time></trkpt><trkpt lat="45.0500916" lon="7.6428177"><ele>263.0</ele><time>2026-04-10T06:22:29.838Z</time></trkpt><trkpt lat="45.0500295" lon="7.642956"><ele>263.0</ele><time>2026-04-10T06:22:31.839Z</time></trkpt><trkpt lat="45.050013" lon="7.6430488"><ele>262.2</ele><time>2026-04-10T06:22:32.838Z</time></trkpt><trkpt lat="45.0499702" lon="7.6432133"><ele>261.4</ele><time>2026-04-10T06:22:34.838Z</time></trkpt><trkpt lat="45.0499179" lon="7.6433376"><ele>260.59999999999997</ele><time>2026-04-10T06:22:36.839Z</time></trkpt><trkpt lat="45.0498895" lon="7.6434231"><ele>259.8</ele><time>2026-04-10T06:22:37.838Z</time></trkpt><trkpt lat="45.0498347" lon="7.6435549"><ele>259.0</ele><time>2026-04-10T06:22:39.838Z</time></trkpt><trkpt lat="45.0497902" lon="7.6436894"><ele>258.25</ele><time>2026-04-10T06:22:41.838Z</time></trkpt><trkpt lat="45.0497512" lon="7.643852"><ele>257.5</ele><time>2026-04-10T06:22:43.839Z</time></trkpt><trkpt lat="45.0497047" lon="7.6439871"><ele>256.75</ele><time>2026-04-10T06:22:45.838Z</time></trkpt><trkpt lat="45.0496495" lon="7.6441402"><ele>256.0</ele><time>2026-04-10T06:22:48.837Z</time></trkpt><trkpt lat="45.0496086" lon="7.6442958"><ele>256.0</ele><time>2026-04-10T06:22:50.839Z</time></trkpt><trkpt lat="45.0495741" lon="7.6443717"><ele>256.0</ele><time>2026-04-10T06:22:51.838Z</time></trkpt><trkpt lat="45.0495267" lon="7.6445165"><ele>256.0</ele><time>2026-04-10T06:22:53.838Z</time></trkpt><trkpt lat="45.0494724" lon="7.6446631"><ele>256.0</ele><time>2026-04-10T06:22:55.839Z</time></trkpt><trkpt lat="45.0494114" lon="7.6448079"><ele>256.0</ele><time>2026-04-10T06:22:57.839Z</time></trkpt><trkpt lat="45.0493863" lon="7.6449463"><ele>255.8</ele><time>2026-04-10T06:22:59.838Z</time></trkpt><trkpt lat="45.0493254" lon="7.6450707"><ele>255.60000000000002</ele><time>2026-04-10T06:23:01.838Z</time></trkpt><trkpt lat="45.0492738" lon="7.6451817"><ele>255.4</ele><time>2026-04-10T06:23:02.839Z</time></trkpt><trkpt lat="45.0492341" lon="7.6452907"><ele>255.2</ele><time>2026-04-10T06:23:03.839Z</time></trkpt><trkpt lat="45.0491892" lon="7.6454456"><ele>255.0</ele><time>2026-04-10T06:23:06.839Z</time></trkpt><trkpt lat="45.0491483" lon="7.6455853"><ele>256.0</ele><time>2026-04-10T06:23:08.838Z</time></trkpt><trkpt lat="45.0491178" lon="7.6457329"><ele>257.0</ele><time>2026-04-10T06:23:10.837Z</time></trkpt><trkpt lat="45.0490844" lon="7.6458966"><ele>258.0</ele><time>2026-04-10T06:23:12.839Z</time></trkpt><trkpt lat="45.0490537" lon="7.6460492"><ele>259.0</ele><time>2026-04-10T06:23:14.84Z</time></trkpt><trkpt lat="45.0490244" lon="7.646189"><ele>260.0</ele><time>2026-04-10T06:23:16.838Z</time></trkpt><trkpt lat="45.0489821" lon="7.6463195"><ele>260.0</ele><time>2026-04-10T06:23:18.838Z</time></trkpt><trkpt lat="45.0489481" lon="7.6464428"><ele>260.0</ele><time>2026-04-10T06:23:20.84Z</time></trkpt><trkpt lat="45.0489078" lon="7.646568"><ele>260.0</ele><time>2026-04-10T06:23:21.839Z</time></trkpt><trkpt lat="45.048878" lon="7.6466959"><ele>260.0</ele><time>2026-04-10T06:23:22.839Z</time></trkpt><trkpt lat="45.04886" lon="7.6467866"><ele>260.0</ele><time>2026-04-10T06:23:24.837Z</time></trkpt><trkpt lat="45.0488289" lon="7.6468762"><ele>260.0</ele><time>2026-04-10T06:23:25.838Z</time></trkpt><trkpt lat="45.0488118" lon="7.6469889"><ele>259.6666666666667</ele><time>2026-04-10T06:23:26.838Z</time></trkpt><trkpt lat="45.0487848" lon="7.6471163"><ele>259.33333333333337</ele><time>2026-04-10T06:23:28.838Z</time></trkpt><trkpt lat="45.0487378" lon="7.647231"><ele>259.0</ele><time>2026-04-10T06:23:30.838Z</time></trkpt><trkpt lat="45.0486903" lon="7.6473616"><ele>258.6666666666667</ele><time>2026-04-10T06:23:32.838Z</time></trkpt><trkpt lat="45.048652" lon="7.6474653"><ele>258.3333333333333</ele><time>2026-04-10T06:23:34.838Z</time></trkpt><trkpt lat="45.048615" lon="7.6475396"><ele>258.0</ele><time>2026-04-10T06:23:35.838Z</time></trkpt><trkpt lat="45.0485812" lon="7.6476513"><ele>258.0</ele><time>2026-04-10T06:23:38.838Z</time></trkpt><trkpt lat="45.0485554" lon="7.6477391"><ele>258.0</ele><time>2026-04-10T06:24:09.838Z</time></trkpt><trkpt lat="45.0485552" lon="7.6478579"><ele>258.0</ele><time>2026-04-10T06:24:12.837Z</time></trkpt><trkpt lat="45.0486171" lon="7.6479294"><ele>258.0</ele><time>2026-04-10T06:24:15.839Z</time></trkpt><trkpt lat="45.0487026" lon="7.6479497"><ele>258.0</ele><time>2026-04-10T06:24:17.837Z</time></trkpt><trkpt lat="45.048781" lon="7.6480274"><ele>258.0</ele><time>2026-04-10T06:24:19.839Z</time></trkpt><trkpt lat="45.0489824" lon="7.6481258"><ele>258.0</ele><time>2026-04-10T06:24:23.838Z</time></trkpt><trkpt lat="45.0491294" lon="7.6481691"><ele>258.0</ele><time>2026-04-10T06:24:26.837Z</time></trkpt><trkpt lat="45.0491742" lon="7.6482322"><ele>258.0</ele><time>2026-04-10T06:24:27.837Z</time></trkpt><trkpt lat="45.0492409" lon="7.6482885"><ele>258.0</ele><time>2026-04-10T06:24:28.837Z</time></trkpt><trkpt lat="45.0493067" lon="7.6483149"><ele>258.0</ele><time>2026-04-10T06:24:29.838Z</time></trkpt><trkpt lat="45.0493594" lon="7.6483702"><ele>258.0</ele><time>2026-04-10T06:24:31.838Z</time></trkpt><trkpt lat="45.0494456" lon="7.6483748"><ele>258.0</ele><time>2026-04-10T06:24:33.839Z</time></trkpt><trkpt lat="45.049511" lon="7.648396"><ele>258.0</ele><time>2026-04-10T06:24:34.837Z</time></trkpt><trkpt lat="45.049628" lon="7.6485155"><ele>258.0</ele><time>2026-04-10T06:24:36.837Z</time></trkpt><trkpt lat="45.0496855" lon="7.6485778"><ele>258.0</ele><time>2026-04-10T06:24:37.838Z</time></trkpt><trkpt lat="45.0497026" lon="7.6486796"><ele>258.0</ele><time>2026-04-10T06:24:38.838Z</time></trkpt><trkpt lat="45.0496816" lon="7.6487887"><ele>258.0</ele><time>2026-04-10T06:24:40.839Z</time></trkpt><trkpt lat="45.0496844" lon="7.6488939"><ele>257.6</ele><time>2026-04-10T06:24:43.837Z</time></trkpt><trkpt lat="45.0496237" lon="7.649055"><ele>257.20000000000005</ele><time>2026-04-10T06:24:45.837Z</time></trkpt><trkpt lat="45.0496011" lon="7.6491784"><ele>256.8</ele><time>2026-04-10T06:24:46.838Z</time></trkpt><trkpt lat="45.0495582" lon="7.6493129"><ele>256.40000000000003</ele><time>2026-04-10T06:24:48.838Z</time></trkpt><trkpt lat="45.0495306" lon="7.6493982"><ele>256.0</ele><time>2026-04-10T06:24:49.837Z</time></trkpt><trkpt lat="45.0494948" lon="7.6494751"><ele>255.8</ele><time>2026-04-10T06:24:51.837Z</time></trkpt><trkpt lat="45.049457" lon="7.6495468"><ele>255.60000000000002</ele><time>2026-04-10T06:24:52.839Z</time></trkpt><trkpt lat="45.0493985" lon="7.6497529"><ele>255.4</ele><time>2026-04-10T06:24:54.838Z</time></trkpt><trkpt lat="45.0493606" lon="7.6498748"><ele>255.2</ele><time>2026-04-10T06:24:56.838Z</time></trkpt><trkpt lat="45.0492999" lon="7.6499956"><ele>255.0</ele><time>2026-04-10T06:24:58.839Z</time></trkpt><trkpt lat="45.0492574" lon="7.6500809"><ele>255.0</ele><time>2026-04-10T06:25:00.838Z</time></trkpt><trkpt lat="45.0492529" lon="7.6502053"><ele>255.0</ele><time>2026-04-10T06:25:11.839Z</time></trkpt><trkpt lat="45.0492071" lon="7.6503062"><ele>255.0</ele><time>2026-04-10T06:25:14.837Z</time></trkpt><trkpt lat="45.0491667" lon="7.6504302"><ele>255.0</ele><time>2026-04-10T06:25:16.838Z</time></trkpt><trkpt lat="45.0491328" lon="7.6505634"><ele>255.0</ele><time>2026-04-10T06:25:18.84Z</time></trkpt><trkpt lat="45.0490915" lon="7.6507176"><ele>254.8</ele><time>2026-04-10T06:25:20.839Z</time></trkpt><trkpt lat="45.0490514" lon="7.6508705"><ele>254.6</ele><time>2026-04-10T06:25:22.838Z</time></trkpt><trkpt lat="45.0489966" lon="7.6510176"><ele>254.39999999999998</ele><time>2026-04-10T06:25:24.84Z</time></trkpt><trkpt lat="45.0489498" lon="7.6511519"><ele>254.2</ele><time>2026-04-10T06:25:26.839Z</time></trkpt><trkpt lat="45.0489024" lon="7.6512833"><ele>254.0</ele><time>2026-04-10T06:25:28.839Z</time></trkpt><trkpt lat="45.0488574" lon="7.6514189"><ele>254.0</ele><time>2026-04-10T06:25:30.838Z</time></trkpt><trkpt lat="45.0488258" lon="7.6515686"><ele>253.99999999999997</ele><time>2026-04-10T06:25:32.837Z</time></trkpt><trkpt lat="45.048786" lon="7.6517061"><ele>253.99999999999997</ele><time>2026-04-10T06:25:34.838Z</time></trkpt><trkpt lat="45.0487448" lon="7.6518528"><ele>254.0</ele><time>2026-04-10T06:25:36.839Z</time></trkpt><trkpt lat="45.0487195" lon="7.6519345"><ele>254.0</ele><time>2026-04-10T06:25:37.838Z</time></trkpt><trkpt lat="45.0486655" lon="7.6520613"><ele>253.79999999999998</ele><time>2026-04-10T06:25:39.838Z</time></trkpt><trkpt lat="45.0486061" lon="7.652207"><ele>253.59999999999997</ele><time>2026-04-10T06:25:41.839Z</time></trkpt><trkpt lat="45.0485527" lon="7.6523293"><ele>253.4</ele><time>2026-04-10T06:25:43.838Z</time></trkpt><trkpt lat="45.048519" lon="7.6524196"><ele>253.2</ele><time>2026-04-10T06:26:36.837Z</time></trkpt><trkpt lat="45.0484715" lon="7.6525037"><ele>253.0</ele><time>2026-04-10T06:26:40.838Z</time></trkpt><trkpt lat="45.0484259" lon="7.6526126"><ele>252.99999999999997</ele><time>2026-04-10T06:26:43.837Z</time></trkpt><trkpt lat="45.0483878" lon="7.652708"><ele>253.0</ele><time>2026-04-10T06:26:45.838Z</time></trkpt><trkpt lat="45.0483501" lon="7.6528026"><ele>253.0</ele><time>2026-04-10T06:26:47.838Z</time></trkpt><trkpt lat="45.0483211" lon="7.6529038"><ele>253.0</ele><time>2026-04-10T06:26:49.838Z</time></trkpt><trkpt lat="45.0483503" lon="7.6530045"><ele>252.99999999999997</ele><time>2026-04-10T06:26:51.84Z</time></trkpt><trkpt lat="45.0484102" lon="7.6530568"><ele>253.0</ele><time>2026-04-10T06:26:53.838Z</time></trkpt><trkpt lat="45.0484872" lon="7.6531123"><ele>252.8</ele><time>2026-04-10T06:26:55.838Z</time></trkpt><trkpt lat="45.0485828" lon="7.6531763"><ele>252.60000000000002</ele><time>2026-04-10T06:26:57.838Z</time></trkpt><trkpt lat="45.0486818" lon="7.6532447"><ele>252.39999999999998</ele><time>2026-04-10T06:26:59.838Z</time></trkpt><trkpt lat="45.0487527" lon="7.6532908"><ele>252.2</ele><time>2026-04-10T06:27:01.838Z</time></trkpt><trkpt lat="45.0488403" lon="7.6533641"><ele>252.0</ele><time>2026-04-10T06:27:03.839Z</time></trkpt><trkpt lat="45.0489357" lon="7.6534316"><ele>252.0</ele><time>2026-04-10T06:27:05.839Z</time></trkpt><trkpt lat="45.0490276" lon="7.6534927"><ele>252.0</ele><time>2026-04-10T06:27:07.837Z</time></trkpt><trkpt lat="45.049122" lon="7.6535595"><ele>252.0</ele><time>2026-04-10T06:27:09.839Z</time></trkpt><trkpt lat="45.0491771" lon="7.653633"><ele>252.0</ele><time>2026-04-10T06:27:10.838Z</time></trkpt><trkpt lat="45.0492405" lon="7.6536644"><ele>252.0</ele><time>2026-04-10T06:27:11.839Z</time></trkpt><trkpt lat="45.0493336" lon="7.6537197"><ele>251.6</ele><time>2026-04-10T06:27:13.837Z</time></trkpt><trkpt lat="45.0494305" lon="7.6537833"><ele>251.2</ele><time>2026-04-10T06:27:15.839Z</time></trkpt><trkpt lat="45.0495228" lon="7.6538511"><ele>250.8</ele><time>2026-04-10T06:27:17.839Z</time></trkpt><trkpt lat="45.0496425" lon="7.6539393"><ele>250.4</ele><time>2026-04-10T06:27:20.837Z</time></trkpt><trkpt lat="45.0496944" lon="7.6540079"><ele>250.0</ele><time>2026-04-10T06:27:22.839Z</time></trkpt><trkpt lat="45.0496612" lon="7.6541158"><ele>250.0</ele><time>2026-04-10T06:27:24.839Z</time></trkpt><trkpt lat="45.0496255" lon="7.6542485"><ele>250.0</ele><time>2026-04-10T06:27:26.839Z</time></trkpt><trkpt lat="45.0495765" lon="7.6543858"><ele>250.0</ele><time>2026-04-10T06:27:28.837Z</time></trkpt><trkpt lat="45.0495393" lon="7.6545173"><ele>250.0</ele><time>2026-04-10T06:27:30.838Z</time></trkpt><trkpt lat="45.0494956" lon="7.654671"><ele>250.0</ele><time>2026-04-10T06:27:32.838Z</time></trkpt><trkpt lat="45.0494238" lon="7.6548311"><ele>250.0</ele><time>2026-04-10T06:27:34.838Z</time></trkpt><trkpt lat="45.0493774" lon="7.6549563"><ele>250.0</ele><time>2026-04-10T06:27:36.837Z</time></trkpt><trkpt lat="45.0493347" lon="7.6551163"><ele>250.0</ele><time>2026-04-10T06:27:38.839Z</time></trkpt><trkpt lat="45.049291" lon="7.6551912"><ele>250.0</ele><time>2026-04-10T06:27:39.839Z</time></trkpt><trkpt lat="45.0492373" lon="7.6553489"><ele>250.0</ele><time>2026-04-10T06:27:41.838Z</time></trkpt><trkpt lat="45.0491658" lon="7.6555046"><ele>250.0</ele><time>2026-04-10T06:27:43.838Z</time></trkpt><trkpt lat="45.0491453" lon="7.6556078"><ele>250.0</ele><time>2026-04-10T06:27:44.838Z</time></trkpt><trkpt lat="45.0491214" lon="7.6556905"><ele>250.0</ele><time>2026-04-10T06:27:45.839Z</time></trkpt><trkpt lat="45.0490606" lon="7.6558602"><ele>250.0</ele><time>2026-04-10T06:27:47.838Z</time></trkpt><trkpt lat="45.0490312" lon="7.6560355"><ele>250.0</ele><time>2026-04-10T06:27:49.838Z</time></trkpt><trkpt lat="45.0489996" lon="7.6561372"><ele>249.49999999999997</ele><time>2026-04-10T06:27:50.839Z</time></trkpt><trkpt lat="45.0489747" lon="7.6562295"><ele>249.0</ele><time>2026-04-10T06:27:51.837Z</time></trkpt><trkpt lat="45.048947" lon="7.6563303"><ele>248.5</ele><time>2026-04-10T06:27:52.838Z</time></trkpt><trkpt lat="45.0488824" lon="7.6564747"><ele>248.0</ele><time>2026-04-10T06:27:54.839Z</time></trkpt><trkpt lat="45.0488517" lon="7.6565526"><ele>247.49999999999997</ele><time>2026-04-10T06:27:55.838Z</time></trkpt><trkpt lat="45.048825" lon="7.6566386"><ele>247.0</ele><time>2026-04-10T06:27:56.838Z</time></trkpt><trkpt lat="45.0487949" lon="7.6567229"><ele>247.0</ele><time>2026-04-10T06:27:57.839Z</time></trkpt><trkpt lat="45.0487366" lon="7.6568803"><ele>247.0</ele><time>2026-04-10T06:27:59.839Z</time></trkpt><trkpt lat="45.0487061" lon="7.6569738"><ele>247.0</ele><time>2026-04-10T06:28:00.839Z</time></trkpt><trkpt lat="45.048665" lon="7.6570679"><ele>247.0</ele><time>2026-04-10T06:28:01.838Z</time></trkpt><trkpt lat="45.0486335" lon="7.6571515"><ele>247.0</ele><time>2026-04-10T06:28:02.838Z</time></trkpt><trkpt lat="45.0485784" lon="7.6572869"><ele>246.8</ele><time>2026-04-10T06:28:04.838Z</time></trkpt><trkpt lat="45.0485528" lon="7.6573691"><ele>246.6</ele><time>2026-04-10T06:28:05.838Z</time></trkpt><trkpt lat="45.0485027" lon="7.6575186"><ele>246.40000000000003</ele><time>2026-04-10T06:28:07.84Z</time></trkpt><trkpt lat="45.0484542" lon="7.6576657"><ele>246.20000000000002</ele><time>2026-04-10T06:28:09.838Z</time></trkpt><trkpt lat="45.0484258" lon="7.6577456"><ele>246.0</ele><time>2026-04-10T06:28:10.838Z</time></trkpt><trkpt lat="45.0483719" lon="7.6578867"><ele>246.0</ele><time>2026-04-10T06:28:12.839Z</time></trkpt><trkpt lat="45.0483091" lon="7.6580227"><ele>246.00000000000003</ele><time>2026-04-10T06:28:14.839Z</time></trkpt><trkpt lat="45.048259" lon="7.6581836"><ele>246.00000000000003</ele><time>2026-04-10T06:28:16.839Z</time></trkpt><trkpt lat="45.0481984" lon="7.6583326"><ele>246.0</ele><time>2026-04-10T06:28:18.838Z</time></trkpt><trkpt lat="45.0481659" lon="7.6584154"><ele>246.0</ele><time>2026-04-10T06:28:19.838Z</time></trkpt><trkpt lat="45.0481366" lon="7.6584996"><ele>246.4</ele><time>2026-04-10T06:28:20.839Z</time></trkpt><trkpt lat="45.0481218" lon="7.6585947"><ele>246.8</ele><time>2026-04-10T06:28:21.839Z</time></trkpt><trkpt lat="45.0480936" lon="7.6586781"><ele>247.20000000000002</ele><time>2026-04-10T06:28:22.84Z</time></trkpt><trkpt lat="45.0480573" lon="7.6588597"><ele>247.60000000000002</ele><time>2026-04-10T06:28:24.839Z</time></trkpt><trkpt lat="45.0480253" lon="7.6590211"><ele>248.0</ele><time>2026-04-10T06:28:26.839Z</time></trkpt><trkpt lat="45.0480115" lon="7.65911"><ele>248.00000000000003</ele><time>2026-04-10T06:28:27.838Z</time></trkpt><trkpt lat="45.0479942" lon="7.659203"><ele>248.0</ele><time>2026-04-10T06:28:28.838Z</time></trkpt><trkpt lat="45.0479626" lon="7.6593789"><ele>248.0</ele><time>2026-04-10T06:28:30.838Z</time></trkpt><trkpt lat="45.0479469" lon="7.6594718"><ele>248.0</ele><time>2026-04-10T06:28:31.837Z</time></trkpt><trkpt lat="45.0479287" lon="7.6595614"><ele>248.00000000000003</ele><time>2026-04-10T06:28:32.838Z</time></trkpt><trkpt lat="45.0479068" lon="7.6596457"><ele>248.0</ele><time>2026-04-10T06:28:33.84Z</time></trkpt><trkpt lat="45.0478819" lon="7.6597326"><ele>247.8</ele><time>2026-04-10T06:28:34.838Z</time></trkpt><trkpt lat="45.0478103" lon="7.6598848"><ele>247.60000000000002</ele><time>2026-04-10T06:28:36.838Z</time></trkpt><trkpt lat="45.0477664" lon="7.6599527"><ele>247.39999999999998</ele><time>2026-04-10T06:28:37.838Z</time></trkpt><trkpt lat="45.0476894" lon="7.6600864"><ele>247.2</ele><time>2026-04-10T06:28:39.838Z</time></trkpt><trkpt lat="45.0476207" lon="7.6602289"><ele>247.0</ele><time>2026-04-10T06:28:41.838Z</time></trkpt><trkpt lat="45.0475554" lon="7.6603603"><ele>247.0</ele><time>2026-04-10T06:28:43.839Z</time></trkpt><trkpt lat="45.0474862" lon="7.6604787"><ele>247.0</ele><time>2026-04-10T06:28:45.839Z</time></trkpt><trkpt lat="45.0474189" lon="7.6606015"><ele>247.0</ele><time>2026-04-10T06:28:47.839Z</time></trkpt><trkpt lat="45.0473805" lon="7.6606825"><ele>247.0</ele><time>2026-04-10T06:28:48.839Z</time></trkpt><trkpt lat="45.0472839" lon="7.6608035"><ele>247.0</ele><time>2026-04-10T06:28:50.839Z</time></trkpt><trkpt lat="45.0472319" lon="7.660875"><ele>246.8</ele><time>2026-04-10T06:28:51.837Z</time></trkpt><trkpt lat="45.0471816" lon="7.660936"><ele>246.6</ele><time>2026-04-10T06:28:52.839Z</time></trkpt><trkpt lat="45.04714" lon="7.6610071"><ele>246.40000000000003</ele><time>2026-04-10T06:28:53.838Z</time></trkpt><trkpt lat="45.0470514" lon="7.661139"><ele>246.20000000000002</ele><time>2026-04-10T06:28:55.837Z</time></trkpt><trkpt lat="45.0469728" lon="7.6612769"><ele>246.0</ele><time>2026-04-10T06:28:57.838Z</time></trkpt><trkpt lat="45.0468984" lon="7.6614016"><ele>246.0</ele><time>2026-04-10T06:28:59.838Z</time></trkpt><trkpt lat="45.0468365" lon="7.6614979"><ele>246.0</ele><time>2026-04-10T06:29:01.839Z</time></trkpt><trkpt lat="45.0467821" lon="7.6615835"><ele>246.0</ele><time>2026-04-10T06:29:03.838Z</time></trkpt><trkpt lat="45.0467329" lon="7.6616404"><ele>246.0</ele><time>2026-04-10T06:29:06.838Z</time></trkpt><trkpt lat="45.046699" lon="7.6617363"><ele>246.0</ele><time>2026-04-10T06:30:11.839Z</time></trkpt><trkpt lat="45.0466384" lon="7.6618441"><ele>246.0</ele><time>2026-04-10T06:30:14.838Z</time></trkpt><trkpt lat="45.046588" lon="7.6619279"><ele>247.0</ele><time>2026-04-10T06:30:16.837Z</time></trkpt><trkpt lat="45.0465361" lon="7.6620206"><ele>248.00000000000003</ele><time>2026-04-10T06:30:18.839Z</time></trkpt><trkpt lat="45.0464817" lon="7.6621316"><ele>249.00000000000003</ele><time>2026-04-10T06:30:20.839Z</time></trkpt><trkpt lat="45.046418" lon="7.6622127"><ele>250.0</ele><time>2026-04-10T06:30:21.838Z</time></trkpt><trkpt lat="45.0463413" lon="7.6623365"><ele>251.0</ele><time>2026-04-10T06:30:23.839Z</time></trkpt><trkpt lat="45.0462976" lon="7.6624174"><ele>251.0</ele><time>2026-04-10T06:30:25.838Z</time></trkpt><trkpt lat="45.0462425" lon="7.6625087"><ele>251.00000000000003</ele><time>2026-04-10T06:30:27.838Z</time></trkpt><trkpt lat="45.0461679" lon="7.662639"><ele>251.00000000000003</ele><time>2026-04-10T06:30:29.84Z</time></trkpt><trkpt lat="45.0460969" lon="7.6627686"><ele>251.0</ele><time>2026-04-10T06:30:31.838Z</time></trkpt><trkpt lat="45.0460485" lon="7.6628258"><ele>251.0</ele><time>2026-04-10T06:30:32.839Z</time></trkpt><trkpt lat="45.0459515" lon="7.6629564"><ele>250.20000000000002</ele><time>2026-04-10T06:30:34.838Z</time></trkpt><trkpt lat="45.0458739" lon="7.6630719"><ele>249.40000000000003</ele><time>2026-04-10T06:30:36.838Z</time></trkpt><trkpt lat="45.0457786" lon="7.6631935"><ele>248.6</ele><time>2026-04-10T06:30:38.838Z</time></trkpt><trkpt lat="45.0457163" lon="7.6633508"><ele>247.8</ele><time>2026-04-10T06:30:40.838Z</time></trkpt><trkpt lat="45.0456747" lon="7.6634261"><ele>247.0</ele><time>2026-04-10T06:30:41.837Z</time></trkpt><trkpt lat="45.0455993" lon="7.663555"><ele>247.16666666666666</ele><time>2026-04-10T06:30:43.84Z</time></trkpt><trkpt lat="45.0455637" lon="7.6636371"><ele>247.33333333333331</ele><time>2026-04-10T06:30:44.838Z</time></trkpt><trkpt lat="45.0454977" lon="7.6637195"><ele>247.5</ele><time>2026-04-10T06:30:45.838Z</time></trkpt><trkpt lat="45.0454123" lon="7.6638417"><ele>247.66666666666669</ele><time>2026-04-10T06:30:47.839Z</time></trkpt><trkpt lat="45.0453565" lon="7.6638981"><ele>247.83333333333334</ele><time>2026-04-10T06:30:48.838Z</time></trkpt><trkpt lat="45.0453185" lon="7.6639711"><ele>248.0</ele><time>2026-04-10T06:30:49.839Z</time></trkpt><trkpt lat="45.0452729" lon="7.6640576"><ele>248.00000000000003</ele><time>2026-04-10T06:30:50.839Z</time></trkpt><trkpt lat="45.0452043" lon="7.6641923"><ele>248.0</ele><time>2026-04-10T06:30:52.838Z</time></trkpt><trkpt lat="45.0451586" lon="7.6642611"><ele>248.0</ele><time>2026-04-10T06:30:53.839Z</time></trkpt><trkpt lat="45.0451099" lon="7.6643448"><ele>248.0</ele><time>2026-04-10T06:30:55.839Z</time></trkpt><trkpt lat="45.0450688" lon="7.664432"><ele>248.00000000000003</ele><time>2026-04-10T06:32:07.838Z</time></trkpt><trkpt lat="45.0450509" lon="7.6645702"><ele>248.0</ele><time>2026-04-10T06:32:10.84Z</time></trkpt><trkpt lat="45.0450398" lon="7.6646746"><ele>248.2</ele><time>2026-04-10T06:32:12.837Z</time></trkpt><trkpt lat="45.0450045" lon="7.6647893"><ele>248.4</ele><time>2026-04-10T06:32:14.839Z</time></trkpt><trkpt lat="45.0449505" lon="7.6649074"><ele>248.59999999999997</ele><time>2026-04-10T06:32:16.838Z</time></trkpt><trkpt lat="45.0448948" lon="7.6650311"><ele>248.79999999999998</ele><time>2026-04-10T06:32:18.838Z</time></trkpt><trkpt lat="45.0448563" lon="7.66511"><ele>249.0</ele><time>2026-04-10T06:32:19.837Z</time></trkpt><trkpt lat="45.0447736" lon="7.6652295"><ele>248.0</ele><time>2026-04-10T06:32:21.838Z</time></trkpt><trkpt lat="45.0446951" lon="7.6653446"><ele>246.99999999999997</ele><time>2026-04-10T06:32:23.84Z</time></trkpt><trkpt lat="45.0446156" lon="7.6654738"><ele>245.99999999999997</ele><time>2026-04-10T06:32:25.837Z</time></trkpt><trkpt lat="45.0445517" lon="7.6655784"><ele>245.0</ele><time>2026-04-10T06:32:27.838Z</time></trkpt><trkpt lat="45.0444789" lon="7.6657018"><ele>244.0</ele><time>2026-04-10T06:32:29.839Z</time></trkpt><trkpt lat="45.0444047" lon="7.6658054"><ele>244.0</ele><time>2026-04-10T06:32:31.838Z</time></trkpt><trkpt lat="45.0443373" lon="7.6659073"><ele>243.99999999999997</ele><time>2026-04-10T06:32:33.839Z</time></trkpt><trkpt lat="45.0442892" lon="7.6659684"><ele>243.99999999999997</ele><time>2026-04-10T06:32:34.838Z</time></trkpt><trkpt lat="45.0442227" lon="7.6660891"><ele>244.0</ele><time>2026-04-10T06:32:36.839Z</time></trkpt><trkpt lat="45.0441466" lon="7.666211"><ele>244.0</ele><time>2026-04-10T06:32:38.838Z</time></trkpt><trkpt lat="45.0440854" lon="7.6663275"><ele>243.0</ele><time>2026-04-10T06:32:40.839Z</time></trkpt><trkpt lat="45.0440519" lon="7.6664066"><ele>241.99999999999997</ele><time>2026-04-10T06:32:41.838Z</time></trkpt><trkpt lat="45.044011" lon="7.6664769"><ele>240.99999999999997</ele><time>2026-04-10T06:32:42.837Z</time></trkpt><trkpt lat="45.0439519" lon="7.6666133"><ele>240.0</ele><time>2026-04-10T06:32:44.839Z</time></trkpt><trkpt lat="45.0438893" lon="7.6667375"><ele>239.0</ele><time>2026-04-10T06:32:46.839Z</time></trkpt><trkpt lat="45.0438335" lon="7.6668794"><ele>239.39999999999998</ele><time>2026-04-10T06:32:48.838Z</time></trkpt><trkpt lat="45.0437836" lon="7.667029"><ele>239.79999999999998</ele><time>2026-04-10T06:32:50.838Z</time></trkpt><trkpt lat="45.0437267" lon="7.6671728"><ele>240.20000000000002</ele><time>2026-04-10T06:32:52.839Z</time></trkpt><trkpt lat="45.0436967" lon="7.6672535"><ele>240.60000000000002</ele><time>2026-04-10T06:32:53.838Z</time></trkpt><trkpt lat="45.0436515" lon="7.6673835"><ele>241.0</ele><time>2026-04-10T06:32:55.837Z</time></trkpt><trkpt lat="45.0436055" lon="7.6675403"><ele>240.99999999999997</ele><time>2026-04-10T06:32:57.839Z</time></trkpt><trkpt lat="45.0435556" lon="7.6676976"><ele>241.0</ele><time>2026-04-10T06:32:59.837Z</time></trkpt><trkpt lat="45.04353" lon="7.6677928"><ele>241.0</ele><time>2026-04-10T06:33:00.838Z</time></trkpt><trkpt lat="45.0435028" lon="7.6678857"><ele>241.0</ele><time>2026-04-10T06:33:01.839Z</time></trkpt><trkpt lat="45.04348" lon="7.6679767"><ele>240.99999999999997</ele><time>2026-04-10T06:33:02.837Z</time></trkpt><trkpt lat="45.0434519" lon="7.6680832"><ele>241.0</ele><time>2026-04-10T06:33:03.838Z</time></trkpt><trkpt lat="45.0434272" lon="7.668182"><ele>241.16666666666666</ele><time>2026-04-10T06:33:04.839Z</time></trkpt><trkpt lat="45.0433941" lon="7.6682777"><ele>241.33333333333331</ele><time>2026-04-10T06:33:05.839Z</time></trkpt><trkpt lat="45.0433663" lon="7.6683802"><ele>241.5</ele><time>2026-04-10T06:33:06.838Z</time></trkpt><trkpt lat="45.0433431" lon="7.668481"><ele>241.66666666666669</ele><time>2026-04-10T06:33:07.838Z</time></trkpt><trkpt lat="45.0433115" lon="7.6685878"><ele>241.83333333333334</ele><time>2026-04-10T06:33:08.838Z</time></trkpt><trkpt lat="45.0432908" lon="7.6686905"><ele>242.0</ele><time>2026-04-10T06:33:09.838Z</time></trkpt><trkpt lat="45.0432674" lon="7.6687984"><ele>242.00000000000003</ele><time>2026-04-10T06:33:10.839Z</time></trkpt><trkpt lat="45.0432357" lon="7.6689057"><ele>242.0</ele><time>2026-04-10T06:33:11.84Z</time></trkpt><trkpt lat="45.0432019" lon="7.6690127"><ele>242.0</ele><time>2026-04-10T06:33:12.838Z</time></trkpt><trkpt lat="45.0431774" lon="7.6691157"><ele>242.0</ele><time>2026-04-10T06:33:13.838Z</time></trkpt><trkpt lat="45.0431411" lon="7.6692248"><ele>242.00000000000003</ele><time>2026-04-10T06:33:14.838Z</time></trkpt><trkpt lat="45.0431098" lon="7.6693428"><ele>242.0</ele><time>2026-04-10T06:33:15.838Z</time></trkpt><trkpt lat="45.0430852" lon="7.6694532"><ele>242.16666666666669</ele><time>2026-04-10T06:33:16.837Z</time></trkpt><trkpt lat="45.0430444" lon="7.6695696"><ele>242.33333333333334</ele><time>2026-04-10T06:33:17.839Z</time></trkpt><trkpt lat="45.0430105" lon="7.6696832"><ele>242.5</ele><time>2026-04-10T06:33:18.839Z</time></trkpt><trkpt lat="45.0429844" lon="7.6697875"><ele>242.66666666666669</ele><time>2026-04-10T06:33:19.838Z</time></trkpt><trkpt lat="45.0429601" lon="7.6698885"><ele>242.83333333333334</ele><time>2026-04-10T06:33:20.838Z</time></trkpt><trkpt lat="45.0429401" lon="7.6699777"><ele>243.0</ele><time>2026-04-10T06:33:21.84Z</time></trkpt><trkpt lat="45.0428927" lon="7.6701504"><ele>242.60000000000002</ele><time>2026-04-10T06:33:23.839Z</time></trkpt><trkpt lat="45.0428509" lon="7.670302"><ele>242.20000000000002</ele><time>2026-04-10T06:33:25.839Z</time></trkpt><trkpt lat="45.0428094" lon="7.6704515"><ele>241.8</ele><time>2026-04-10T06:33:27.838Z</time></trkpt><trkpt lat="45.042775" lon="7.6705903"><ele>241.4</ele><time>2026-04-10T06:33:29.839Z</time></trkpt><trkpt lat="45.0427361" lon="7.6706974"><ele>241.0</ele><time>2026-04-10T06:33:31.839Z</time></trkpt><trkpt lat="45.0426847" lon="7.6707751"><ele>240.99999999999997</ele><time>2026-04-10T06:33:36.838Z</time></trkpt><trkpt lat="45.0426395" lon="7.6708811"><ele>241.0</ele><time>2026-04-10T06:33:59.839Z</time></trkpt><trkpt lat="45.0425862" lon="7.6709725"><ele>241.0</ele><time>2026-04-10T06:34:05.839Z</time></trkpt><trkpt lat="45.0425455" lon="7.6710431"><ele>241.0</ele><time>2026-04-10T06:34:07.84Z</time></trkpt><trkpt lat="45.0425012" lon="7.6711291"><ele>240.99999999999997</ele><time>2026-04-10T06:34:09.839Z</time></trkpt><trkpt lat="45.042469" lon="7.6712293"><ele>241.0</ele><time>2026-04-10T06:34:11.839Z</time></trkpt><trkpt lat="45.0424422" lon="7.6713236"><ele>241.2857142857143</ele><time>2026-04-10T06:34:13.839Z</time></trkpt><trkpt lat="45.0423996" lon="7.6714035"><ele>241.5714285714286</ele><time>2026-04-10T06:34:15.84Z</time></trkpt><trkpt lat="45.0423379" lon="7.6714584"><ele>241.85714285714286</ele><time>2026-04-10T06:34:17.839Z</time></trkpt><trkpt lat="45.0422785" lon="7.6714908"><ele>242.14285714285717</ele><time>2026-04-10T06:34:19.838Z</time></trkpt><trkpt lat="45.0422699" lon="7.6715812"><ele>242.42857142857144</ele><time>2026-04-10T06:35:02.837Z</time></trkpt><trkpt lat="45.0423013" lon="7.6716708"><ele>242.71428571428572</ele><time>2026-04-10T06:35:06.839Z</time></trkpt><trkpt lat="45.0423716" lon="7.6717338"><ele>243.0</ele><time>2026-04-10T06:35:09.838Z</time></trkpt><trkpt lat="45.0424513" lon="7.6716978"><ele>243.0</ele><time>2026-04-10T06:35:12.839Z</time></trkpt><trkpt lat="45.0424632" lon="7.67179"><ele>243.0</ele><time>2026-04-10T06:35:19.84Z</time></trkpt><trkpt lat="45.0424347" lon="7.6718961"><ele>243.0</ele><time>2026-04-10T06:35:21.839Z</time></trkpt><trkpt lat="45.0423952" lon="7.6720123"><ele>243.0</ele><time>2026-04-10T06:35:23.839Z</time></trkpt><trkpt lat="45.0423701" lon="7.6721418"><ele>243.0</ele><time>2026-04-10T06:35:25.839Z</time></trkpt><trkpt lat="45.0423408" lon="7.6722764"><ele>243.0</ele><time>2026-04-10T06:35:27.839Z</time></trkpt><trkpt lat="45.0422905" lon="7.6723448"><ele>243.0</ele><time>2026-04-10T06:35:28.838Z</time></trkpt><trkpt lat="45.042284" lon="7.6724722"><ele>243.0</ele><time>2026-04-10T06:35:30.839Z</time></trkpt><trkpt lat="45.0422469" lon="7.6725499"><ele>243.0</ele><time>2026-04-10T06:35:31.839Z</time></trkpt><trkpt lat="45.0422149" lon="7.6726762"><ele>243.0</ele><time>2026-04-10T06:35:33.839Z</time></trkpt><trkpt lat="45.0421652" lon="7.6728282"><ele>243.0</ele><time>2026-04-10T06:35:35.838Z</time></trkpt><trkpt lat="45.042149" lon="7.6729799"><ele>242.2</ele><time>2026-04-10T06:35:37.837Z</time></trkpt><trkpt lat="45.0421316" lon="7.6731597"><ele>241.4</ele><time>2026-04-10T06:35:39.838Z</time></trkpt><trkpt lat="45.0421025" lon="7.6733031"><ele>240.59999999999997</ele><time>2026-04-10T06:35:41.84Z</time></trkpt><trkpt lat="45.0420789" lon="7.6733951"><ele>239.79999999999998</ele><time>2026-04-10T06:35:42.838Z</time></trkpt><trkpt lat="45.0420544" lon="7.6735523"><ele>239.0</ele><time>2026-04-10T06:35:44.839Z</time></trkpt><trkpt lat="45.0420231" lon="7.6737098"><ele>238.5</ele><time>2026-04-10T06:35:46.839Z</time></trkpt><trkpt lat="45.0420019" lon="7.673875"><ele>238.0</ele><time>2026-04-10T06:35:48.84Z</time></trkpt><trkpt lat="45.0419713" lon="7.6740227"><ele>237.5</ele><time>2026-04-10T06:35:50.837Z</time></trkpt><trkpt lat="45.0419591" lon="7.6741862"><ele>237.0</ele><time>2026-04-10T06:35:52.839Z</time></trkpt><trkpt lat="45.0419439" lon="7.6743381"><ele>237.2</ele><time>2026-04-10T06:35:54.838Z</time></trkpt><trkpt lat="45.0419208" lon="7.6744515"><ele>237.39999999999998</ele><time>2026-04-10T06:35:56.838Z</time></trkpt><trkpt lat="45.041899" lon="7.6745834"><ele>237.60000000000002</ele><time>2026-04-10T06:35:58.838Z</time></trkpt><trkpt lat="45.0418691" lon="7.6747057"><ele>237.8</ele><time>2026-04-10T06:36:00.838Z</time></trkpt><trkpt lat="45.041846" lon="7.6748504"><ele>238.0</ele><time>2026-04-10T06:36:02.837Z</time></trkpt><trkpt lat="45.0418091" lon="7.6750061"><ele>237.99999999999997</ele><time>2026-04-10T06:36:04.838Z</time></trkpt><trkpt lat="45.041799" lon="7.6751153"><ele>238.0</ele><time>2026-04-10T06:36:05.84Z</time></trkpt><trkpt lat="45.041788" lon="7.6752048"><ele>238.0</ele><time>2026-04-10T06:36:06.838Z</time></trkpt><trkpt lat="45.0417765" lon="7.6752985"><ele>238.0</ele><time>2026-04-10T06:36:07.839Z</time></trkpt><trkpt lat="45.0417677" lon="7.6754628"><ele>237.99999999999997</ele><time>2026-04-10T06:36:09.838Z</time></trkpt><trkpt lat="45.0417338" lon="7.6755382"><ele>238.0</ele><time>2026-04-10T06:36:10.838Z</time></trkpt><trkpt lat="45.0417197" lon="7.6756294"><ele>237.5</ele><time>2026-04-10T06:36:11.837Z</time></trkpt><trkpt lat="45.0416896" lon="7.6757867"><ele>237.0</ele><time>2026-04-10T06:36:13.838Z</time></trkpt><trkpt lat="45.0416778" lon="7.6759497"><ele>236.5</ele><time>2026-04-10T06:36:15.838Z</time></trkpt><trkpt lat="45.0416361" lon="7.6761158"><ele>236.0</ele><time>2026-04-10T06:36:17.839Z</time></trkpt><trkpt lat="45.0415881" lon="7.6762636"><ele>235.16666666666669</ele><time>2026-04-10T06:36:19.839Z</time></trkpt><trkpt lat="45.0415535" lon="7.67638"><ele>234.33333333333334</ele><time>2026-04-10T06:36:21.837Z</time></trkpt><trkpt lat="45.041541" lon="7.6765054"><ele>233.5</ele><time>2026-04-10T06:36:23.838Z</time></trkpt><trkpt lat="45.0415268" lon="7.6765955"><ele>232.66666666666669</ele><time>2026-04-10T06:36:24.837Z</time></trkpt><trkpt lat="45.0415269" lon="7.6767329"><ele>231.83333333333334</ele><time>2026-04-10T06:36:26.838Z</time></trkpt><trkpt lat="45.0415231" lon="7.6768622"><ele>231.0</ele><time>2026-04-10T06:36:28.84Z</time></trkpt><trkpt lat="45.0415186" lon="7.6769967"><ele>230.16666666666666</ele><time>2026-04-10T06:36:30.839Z</time></trkpt><trkpt lat="45.0415112" lon="7.6771246"><ele>229.33333333333331</ele><time>2026-04-10T06:36:32.838Z</time></trkpt><trkpt lat="45.0414946" lon="7.6772881"><ele>228.5</ele><time>2026-04-10T06:36:35.838Z</time></trkpt><trkpt lat="45.0414812" lon="7.6773912"><ele>227.66666666666666</ele><time>2026-04-10T06:36:37.838Z</time></trkpt><trkpt lat="45.0415133" lon="7.677471"><ele>226.83333333333331</ele><time>2026-04-10T06:37:26.839Z</time></trkpt><trkpt lat="45.0415838" lon="7.6775017"><ele>226.0</ele><time>2026-04-10T06:37:29.839Z</time></trkpt><trkpt lat="45.0416503" lon="7.6774438"><ele>225.83333333333331</ele><time>2026-04-10T06:37:32.84Z</time></trkpt><trkpt lat="45.0417104" lon="7.6774006"><ele>225.66666666666666</ele><time>2026-04-10T06:37:34.839Z</time></trkpt><trkpt lat="45.041799" lon="7.6773702"><ele>225.5</ele><time>2026-04-10T06:37:37.839Z</time></trkpt><trkpt lat="45.0418646" lon="7.6773915"><ele>225.33333333333331</ele><time>2026-04-10T06:37:39.838Z</time></trkpt><trkpt lat="45.0419405" lon="7.6774146"><ele>225.16666666666666</ele><time>2026-04-10T06:37:41.838Z</time></trkpt><trkpt lat="45.0420158" lon="7.6774549"><ele>225.0</ele><time>2026-04-10T06:37:43.839Z</time></trkpt><trkpt lat="45.0420877" lon="7.6775251"><ele>225.0</ele><time>2026-04-10T06:37:45.838Z</time></trkpt><trkpt lat="45.0421569" lon="7.677605"><ele>225.0</ele><time>2026-04-10T06:37:47.838Z</time></trkpt><trkpt lat="45.0422242" lon="7.6776867"><ele>225.0</ele><time>2026-04-10T06:37:49.838Z</time></trkpt><trkpt lat="45.0422864" lon="7.6777696"><ele>225.0</ele><time>2026-04-10T06:37:51.839Z</time></trkpt><trkpt lat="45.0423483" lon="7.6778552"><ele>225.0</ele><time>2026-04-10T06:37:53.84Z</time></trkpt><trkpt lat="45.0424093" lon="7.6779356"><ele>225.0</ele><time>2026-04-10T06:37:55.839Z</time></trkpt><trkpt lat="45.0424595" lon="7.6780154"><ele>225.5</ele><time>2026-04-10T06:37:57.839Z</time></trkpt><trkpt lat="45.0425027" lon="7.6780992"><ele>226.0</ele><time>2026-04-10T06:37:59.838Z</time></trkpt><trkpt lat="45.0425591" lon="7.6781774"><ele>226.5</ele><time>2026-04-10T06:38:01.838Z</time></trkpt><trkpt lat="45.0426195" lon="7.6782614"><ele>227.0</ele><time>2026-04-10T06:38:03.838Z</time></trkpt><trkpt lat="45.0426764" lon="7.6783863"><ele>227.5</ele><time>2026-04-10T06:38:05.839Z</time></trkpt><trkpt lat="45.0427342" lon="7.6785081"><ele>228.0</ele><time>2026-04-10T06:38:07.838Z</time></trkpt><trkpt lat="45.0427841" lon="7.6786439"><ele>228.0</ele><time>2026-04-10T06:38:09.839Z</time></trkpt><trkpt lat="45.0428481" lon="7.6787849"><ele>228.0</ele><time>2026-04-10T06:38:11.839Z</time></trkpt><trkpt lat="45.0429045" lon="7.6789452"><ele>228.0</ele><time>2026-04-10T06:38:13.839Z</time></trkpt><trkpt lat="45.0429525" lon="7.6790945"><ele>228.0</ele><time>2026-04-10T06:38:15.839Z</time></trkpt><trkpt lat="45.0429786" lon="7.6791777"><ele>228.0</ele><time>2026-04-10T06:38:16.838Z</time></trkpt><trkpt lat="45.0430357" lon="7.6793387"><ele>228.0</ele><time>2026-04-10T06:38:18.838Z</time></trkpt><trkpt lat="45.0430644" lon="7.6794189"><ele>228.0</ele><time>2026-04-10T06:38:19.838Z</time></trkpt><trkpt lat="45.0430911" lon="7.6795081"><ele>228.0</ele><time>2026-04-10T06:38:20.838Z</time></trkpt><trkpt lat="45.0431056" lon="7.6795949"><ele>228.0</ele><time>2026-04-10T06:38:21.839Z</time></trkpt><trkpt lat="45.0431469" lon="7.6797033"><ele>228.0</ele><time>2026-04-10T06:38:23.839Z</time></trkpt><trkpt lat="45.0432015" lon="7.6798547"><ele>228.0</ele><time>2026-04-10T06:38:25.839Z</time></trkpt><trkpt lat="45.0432238" lon="7.6799429"><ele>227.60000000000002</ele><time>2026-04-10T06:38:26.839Z</time></trkpt><trkpt lat="45.0432522" lon="7.6800589"><ele>227.20000000000002</ele><time>2026-04-10T06:38:28.839Z</time></trkpt><trkpt lat="45.0432776" lon="7.6801738"><ele>226.8</ele><time>2026-04-10T06:38:30.839Z</time></trkpt><trkpt lat="45.043312" lon="7.6803119"><ele>226.4</ele><time>2026-04-10T06:38:32.837Z</time></trkpt><trkpt lat="45.0433511" lon="7.6804845"><ele>226.0</ele><time>2026-04-10T06:38:34.838Z</time></trkpt><trkpt lat="45.0433771" lon="7.6805744"><ele>225.8</ele><time>2026-04-10T06:38:35.839Z</time></trkpt><trkpt lat="45.0434047" lon="7.6806674"><ele>225.60000000000002</ele><time>2026-04-10T06:38:36.839Z</time></trkpt><trkpt lat="45.0434371" lon="7.6807583"><ele>225.4</ele><time>2026-04-10T06:38:37.839Z</time></trkpt><trkpt lat="45.0435139" lon="7.6809134"><ele>225.2</ele><time>2026-04-10T06:38:39.837Z</time></trkpt><trkpt lat="45.0435831" lon="7.6810475"><ele>225.0</ele><time>2026-04-10T06:38:41.838Z</time></trkpt><trkpt lat="45.0436389" lon="7.681191"><ele>225.0</ele><time>2026-04-10T06:38:43.838Z</time></trkpt><trkpt lat="45.0436974" lon="7.6813418"><ele>225.0</ele><time>2026-04-10T06:38:45.839Z</time></trkpt><trkpt lat="45.0437156" lon="7.6814304"><ele>225.0</ele><time>2026-04-10T06:38:46.838Z</time></trkpt><trkpt lat="45.0437454" lon="7.6815176"><ele>225.0</ele><time>2026-04-10T06:38:47.839Z</time></trkpt><trkpt lat="45.0437798" lon="7.6816052"><ele>225.0</ele><time>2026-04-10T06:38:48.838Z</time></trkpt><trkpt lat="45.0438073" lon="7.6816921"><ele>225.0</ele><time>2026-04-10T06:38:49.838Z</time></trkpt><trkpt lat="45.0438312" lon="7.6817763"><ele>225.0</ele><time>2026-04-10T06:38:50.838Z</time></trkpt><trkpt lat="45.0438583" lon="7.6818624"><ele>225.0</ele><time>2026-04-10T06:38:51.838Z</time></trkpt><trkpt lat="45.0438866" lon="7.6819515"><ele>225.0</ele><time>2026-04-10T06:38:52.839Z</time></trkpt><trkpt lat="45.043936" lon="7.6820994"><ele>225.0</ele><time>2026-04-10T06:38:54.839Z</time></trkpt><trkpt lat="45.0439953" lon="7.6822504"><ele>225.0</ele><time>2026-04-10T06:38:56.838Z</time></trkpt><trkpt lat="45.0440234" lon="7.6823401"><ele>225.0</ele><time>2026-04-10T06:38:57.838Z</time></trkpt><trkpt lat="45.0440531" lon="7.6824214"><ele>225.4</ele><time>2026-04-10T06:38:58.839Z</time></trkpt><trkpt lat="45.044084" lon="7.6824995"><ele>225.8</ele><time>2026-04-10T06:38:59.838Z</time></trkpt><trkpt lat="45.0441347" lon="7.6826456"><ele>226.2</ele><time>2026-04-10T06:39:01.838Z</time></trkpt><trkpt lat="45.0441958" lon="7.6827635"><ele>226.6</ele><time>2026-04-10T06:39:03.837Z</time></trkpt><trkpt lat="45.0442483" lon="7.6829087"><ele>227.0</ele><time>2026-04-10T06:39:05.839Z</time></trkpt><trkpt lat="45.0443047" lon="7.6830607"><ele>227.0</ele><time>2026-04-10T06:39:07.837Z</time></trkpt><trkpt lat="45.0443339" lon="7.683144"><ele>227.0</ele><time>2026-04-10T06:39:08.839Z</time></trkpt><trkpt lat="45.0444024" lon="7.6832845"><ele>227.0</ele><time>2026-04-10T06:39:10.838Z</time></trkpt><trkpt lat="45.0444643" lon="7.6834154"><ele>227.0</ele><time>2026-04-10T06:39:12.839Z</time></trkpt><trkpt lat="45.0445399" lon="7.6835162"><ele>227.0</ele><time>2026-04-10T06:39:14.84Z</time></trkpt><trkpt lat="45.0446208" lon="7.6835978"><ele>226.8</ele><time>2026-04-10T06:39:16.839Z</time></trkpt><trkpt lat="45.0447173" lon="7.6836888"><ele>226.6</ele><time>2026-04-10T06:39:18.838Z</time></trkpt><trkpt lat="45.0447928" lon="7.6837862"><ele>226.40000000000003</ele><time>2026-04-10T06:39:20.838Z</time></trkpt><trkpt lat="45.044875" lon="7.6838821"><ele>226.20000000000002</ele><time>2026-04-10T06:39:22.839Z</time></trkpt><trkpt lat="45.044956" lon="7.6839725"><ele>226.0</ele><time>2026-04-10T06:39:24.839Z</time></trkpt><trkpt lat="45.0450442" lon="7.6840498"><ele>226.0</ele><time>2026-04-10T06:39:26.839Z</time></trkpt><trkpt lat="45.0451387" lon="7.6841116"><ele>226.00000000000003</ele><time>2026-04-10T06:39:28.837Z</time></trkpt><trkpt lat="45.0452284" lon="7.6841605"><ele>226.00000000000003</ele><time>2026-04-10T06:39:30.839Z</time></trkpt><trkpt lat="45.0453195" lon="7.684194"><ele>226.0</ele><time>2026-04-10T06:39:32.839Z</time></trkpt><trkpt lat="45.0454562" lon="7.6842314"><ele>226.0</ele><time>2026-04-10T06:39:35.839Z</time></trkpt><trkpt lat="45.0455643" lon="7.6842609"><ele>226.0</ele><time>2026-04-10T06:39:38.838Z</time></trkpt><trkpt lat="45.0456157" lon="7.684317"><ele>226.00000000000003</ele><time>2026-04-10T06:39:39.839Z</time></trkpt><trkpt lat="45.0457251" lon="7.6844412"><ele>226.00000000000003</ele><time>2026-04-10T06:39:41.84Z</time></trkpt><trkpt lat="45.0458176" lon="7.6845038"><ele>226.0</ele><time>2026-04-10T06:39:43.838Z</time></trkpt><trkpt lat="45.0459174" lon="7.684554"><ele>226.0</ele><time>2026-04-10T06:39:45.838Z</time></trkpt><trkpt lat="45.0459815" lon="7.6845935"><ele>225.75</ele><time>2026-04-10T06:39:46.84Z</time></trkpt><trkpt lat="45.046114" lon="7.6846286"><ele>225.5</ele><time>2026-04-10T06:39:48.838Z</time></trkpt><trkpt lat="45.0462409" lon="7.6847008"><ele>225.25</ele><time>2026-04-10T06:39:50.838Z</time></trkpt><trkpt lat="45.0463262" lon="7.6847442"><ele>225.0</ele><time>2026-04-10T06:39:52.839Z</time></trkpt><trkpt lat="45.046425" lon="7.6848263"><ele>225.0</ele><time>2026-04-10T06:39:55.839Z</time></trkpt><trkpt lat="45.0465142" lon="7.6848609"><ele>225.0</ele><time>2026-04-10T06:39:57.839Z</time></trkpt><trkpt lat="45.046616" lon="7.6848968"><ele>225.0</ele><time>2026-04-10T06:39:59.839Z</time></trkpt><trkpt lat="45.046689" lon="7.6849135"><ele>225.0</ele><time>2026-04-10T06:40:01.839Z</time></trkpt><trkpt lat="45.0467949" lon="7.6849193"><ele>225.0</ele><time>2026-04-10T06:40:03.838Z</time></trkpt><trkpt lat="45.0469036" lon="7.6849069"><ele>225.0</ele><time>2026-04-10T06:40:05.839Z</time></trkpt><trkpt lat="45.0470084" lon="7.6848974"><ele>225.0</ele><time>2026-04-10T06:40:07.838Z</time></trkpt><trkpt lat="45.0470746" lon="7.6849268"><ele>225.0</ele><time>2026-04-10T06:40:09.839Z</time></trkpt><trkpt lat="45.0471805" lon="7.6849179"><ele>225.0</ele><time>2026-04-10T06:40:11.838Z</time></trkpt><trkpt lat="45.0472823" lon="7.684915"><ele>225.0</ele><time>2026-04-10T06:40:13.838Z</time></trkpt><trkpt lat="45.0473732" lon="7.6848893"><ele>225.0</ele><time>2026-04-10T06:40:15.838Z</time></trkpt><trkpt lat="45.0474604" lon="7.6848521"><ele>225.0</ele><time>2026-04-10T06:40:17.838Z</time></trkpt><trkpt lat="45.047549" lon="7.6848134"><ele>225.0</ele><time>2026-04-10T06:40:19.839Z</time></trkpt><trkpt lat="45.0476168" lon="7.6847635"><ele>225.0</ele><time>2026-04-10T06:40:21.839Z</time></trkpt><trkpt lat="45.0477001" lon="7.6847012"><ele>225.0</ele><time>2026-04-10T06:40:23.839Z</time></trkpt><trkpt lat="45.0477766" lon="7.6846492"><ele>225.0</ele><time>2026-04-10T06:40:25.838Z</time></trkpt><trkpt lat="45.0478533" lon="7.6845847"><ele>225.33333333333334</ele><time>2026-04-10T06:40:27.839Z</time></trkpt><trkpt lat="45.0479084" lon="7.6845051"><ele>225.66666666666669</ele><time>2026-04-10T06:40:29.838Z</time></trkpt><trkpt lat="45.0479731" lon="7.684436"><ele>226.0</ele><time>2026-04-10T06:40:31.839Z</time></trkpt><trkpt lat="45.048047" lon="7.6843836"><ele>226.33333333333334</ele><time>2026-04-10T06:40:33.84Z</time></trkpt><trkpt lat="45.0481335" lon="7.6843457"><ele>226.66666666666669</ele><time>2026-04-10T06:40:35.839Z</time></trkpt><trkpt lat="45.0482161" lon="7.6843042"><ele>227.0</ele><time>2026-04-10T06:40:37.838Z</time></trkpt><trkpt lat="45.0482996" lon="7.6842644"><ele>227.8</ele><time>2026-04-10T06:40:39.839Z</time></trkpt><trkpt lat="45.0483707" lon="7.6842259"><ele>228.6</ele><time>2026-04-10T06:40:41.838Z</time></trkpt><trkpt lat="45.04845" lon="7.6841966"><ele>229.40000000000003</ele><time>2026-04-10T06:40:43.838Z</time></trkpt><trkpt lat="45.0485387" lon="7.6841721"><ele>230.20000000000002</ele><time>2026-04-10T06:40:45.839Z</time></trkpt><trkpt lat="45.0486254" lon="7.68415"><ele>231.0</ele><time>2026-04-10T06:40:47.84Z</time></trkpt><trkpt lat="45.0487465" lon="7.6841391"><ele>231.0</ele><time>2026-04-10T06:40:49.838Z</time></trkpt><trkpt lat="45.0488172" lon="7.6841558"><ele>231.0</ele><time>2026-04-10T06:40:51.839Z</time></trkpt><trkpt lat="45.0488899" lon="7.6841859"><ele>231.0</ele><time>2026-04-10T06:40:53.838Z</time></trkpt><trkpt lat="45.0489744" lon="7.6842167"><ele>231.0</ele><time>2026-04-10T06:40:55.838Z</time></trkpt><trkpt lat="45.0490429" lon="7.6842765"><ele>231.0</ele><time>2026-04-10T06:40:57.838Z</time></trkpt><trkpt lat="45.0491105" lon="7.6843428"><ele>231.0</ele><time>2026-04-10T06:40:59.84Z</time></trkpt><trkpt lat="45.0491892" lon="7.6844186"><ele>230.8</ele><time>2026-04-10T06:41:01.838Z</time></trkpt><trkpt lat="45.0492632" lon="7.6845217"><ele>230.60000000000002</ele><time>2026-04-10T06:41:03.838Z</time></trkpt><trkpt lat="45.0493383" lon="7.6846391"><ele>230.4</ele><time>2026-04-10T06:41:05.838Z</time></trkpt><trkpt lat="45.0494211" lon="7.6847586"><ele>230.2</ele><time>2026-04-10T06:41:07.838Z</time></trkpt><trkpt lat="45.0494714" lon="7.6848214"><ele>230.0</ele><time>2026-04-10T06:41:08.838Z</time></trkpt><trkpt lat="45.04951" lon="7.6848935"><ele>230.00000000000003</ele><time>2026-04-10T06:41:09.839Z</time></trkpt><trkpt lat="45.0496072" lon="7.6850136"><ele>230.0</ele><time>2026-04-10T06:41:11.838Z</time></trkpt><trkpt lat="45.0496646" lon="7.6850661"><ele>230.0</ele><time>2026-04-10T06:41:12.838Z</time></trkpt><trkpt lat="45.0497173" lon="7.6851238"><ele>230.0</ele><time>2026-04-10T06:41:13.84Z</time></trkpt><trkpt lat="45.0497771" lon="7.6851802"><ele>230.00000000000003</ele><time>2026-04-10T06:41:14.837Z</time></trkpt><trkpt lat="45.0498448" lon="7.6852256"><ele>230.0</ele><time>2026-04-10T06:41:15.838Z</time></trkpt><trkpt lat="45.0499071" lon="7.6852776"><ele>228.85714285714283</ele><time>2026-04-10T06:41:16.84Z</time></trkpt><trkpt lat="45.0499655" lon="7.6853326"><ele>227.71428571428572</ele><time>2026-04-10T06:41:17.839Z</time></trkpt><trkpt lat="45.0500246" lon="7.6853901"><ele>226.57142857142856</ele><time>2026-04-10T06:41:18.837Z</time></trkpt><trkpt lat="45.0500882" lon="7.685446"><ele>225.42857142857142</ele><time>2026-04-10T06:41:19.838Z</time></trkpt><trkpt lat="45.0501516" lon="7.6855028"><ele>224.28571428571428</ele><time>2026-04-10T06:41:20.838Z</time></trkpt><trkpt lat="45.0502193" lon="7.6855501"><ele>223.14285714285714</ele><time>2026-04-10T06:41:21.838Z</time></trkpt><trkpt lat="45.05029" lon="7.6855917"><ele>222.0</ele><time>2026-04-10T06:41:22.839Z</time></trkpt><trkpt lat="45.050353" lon="7.6856267"><ele>222.0</ele><time>2026-04-10T06:41:23.838Z</time></trkpt><trkpt lat="45.0504221" lon="7.6856549"><ele>222.0</ele><time>2026-04-10T06:41:24.839Z</time></trkpt><trkpt lat="45.05049" lon="7.6856814"><ele>222.0</ele><time>2026-04-10T06:41:25.838Z</time></trkpt><trkpt lat="45.0505542" lon="7.6857033"><ele>222.0</ele><time>2026-04-10T06:41:26.839Z</time></trkpt><trkpt lat="45.0506185" lon="7.6857239"><ele>222.0</ele><time>2026-04-10T06:41:27.838Z</time></trkpt><trkpt lat="45.0507437" lon="7.6857668"><ele>222.0</ele><time>2026-04-10T06:41:29.838Z</time></trkpt><trkpt lat="45.0508372" lon="7.6858123"><ele>222.5</ele><time>2026-04-10T06:41:31.839Z</time></trkpt><trkpt lat="45.0508458" lon="7.6856944"><ele>223.0</ele><time>2026-04-10T06:41:37.838Z</time></trkpt><trkpt lat="45.0509258" lon="7.6856187"><ele>223.5</ele><time>2026-04-10T06:41:40.838Z</time></trkpt><trkpt lat="45.0509957" lon="7.6856031"><ele>224.0</ele><time>2026-04-10T06:41:42.839Z</time></trkpt><trkpt lat="45.0510664" lon="7.6855966"><ele>224.5</ele><time>2026-04-10T06:41:44.838Z</time></trkpt><trkpt lat="45.0511317" lon="7.6856054"><ele>225.0</ele><time>2026-04-10T06:41:46.838Z</time></trkpt><trkpt lat="45.0512236" lon="7.6856467"><ele>225.0</ele><time>2026-04-10T06:41:49.838Z</time></trkpt><trkpt lat="45.051304" lon="7.6856709"><ele>225.0</ele><time>2026-04-10T06:41:51.839Z</time></trkpt><trkpt lat="45.0513803" lon="7.685696"><ele>225.0</ele><time>2026-04-10T06:41:53.838Z</time></trkpt><trkpt lat="45.0514493" lon="7.6857363"><ele>225.0</ele><time>2026-04-10T06:41:55.839Z</time></trkpt><trkpt lat="45.0515249" lon="7.6857713"><ele>225.0</ele><time>2026-04-10T06:41:57.838Z</time></trkpt><trkpt lat="45.0516023" lon="7.6857892"><ele>225.0</ele><time>2026-04-10T06:41:59.839Z</time></trkpt><trkpt lat="45.0516826" lon="7.6857979"><ele>225.83333333333334</ele><time>2026-04-10T06:42:01.84Z</time></trkpt><trkpt lat="45.0517607" lon="7.6858039"><ele>226.66666666666669</ele><time>2026-04-10T06:42:03.839Z</time></trkpt><trkpt lat="45.0518346" lon="7.6858006"><ele>227.5</ele><time>2026-04-10T06:42:05.839Z</time></trkpt><trkpt lat="45.0519121" lon="7.6858074"><ele>228.33333333333334</ele><time>2026-04-10T06:42:07.838Z</time></trkpt><trkpt lat="45.0519837" lon="7.6858249"><ele>229.16666666666669</ele><time>2026-04-10T06:42:09.838Z</time></trkpt><trkpt lat="45.0520715" lon="7.6858324"><ele>230.0</ele><time>2026-04-10T06:42:12.841Z</time></trkpt><trkpt lat="45.0521407" lon="7.685835"><ele>230.00000000000003</ele><time>2026-04-10T06:42:14.838Z</time></trkpt><trkpt lat="45.0522196" lon="7.6858427"><ele>230.0</ele><time>2026-04-10T06:42:16.839Z</time></trkpt><trkpt lat="45.0522965" lon="7.685859"><ele>230.0</ele><time>2026-04-10T06:42:18.839Z</time></trkpt><trkpt lat="45.0523739" lon="7.6858691"><ele>230.0</ele><time>2026-04-10T06:42:20.838Z</time></trkpt><trkpt lat="45.0524493" lon="7.6858648"><ele>230.00000000000003</ele><time>2026-04-10T06:42:22.838Z</time></trkpt><trkpt lat="45.0525248" lon="7.6858419"><ele>230.0</ele><time>2026-04-10T06:42:24.839Z</time></trkpt><trkpt lat="45.0525903" lon="7.6857934"><ele>230.1428571428571</ele><time>2026-04-10T06:42:26.839Z</time></trkpt><trkpt lat="45.0526501" lon="7.6857284"><ele>230.28571428571428</ele><time>2026-04-10T06:42:28.839Z</time></trkpt><trkpt lat="45.0527029" lon="7.6856672"><ele>230.42857142857142</ele><time>2026-04-10T06:42:30.84Z</time></trkpt><trkpt lat="45.0527584" lon="7.685597"><ele>230.57142857142856</ele><time>2026-04-10T06:42:32.838Z</time></trkpt><trkpt lat="45.0528098" lon="7.6855225"><ele>230.71428571428572</ele><time>2026-04-10T06:42:34.84Z</time></trkpt><trkpt lat="45.0528552" lon="7.6854427"><ele>230.85714285714286</ele><time>2026-04-10T06:42:36.838Z</time></trkpt><trkpt lat="45.0529034" lon="7.6853546"><ele>231.0</ele><time>2026-04-10T06:42:38.839Z</time></trkpt><trkpt lat="45.0529481" lon="7.6852623"><ele>231.33333333333334</ele><time>2026-04-10T06:42:40.838Z</time></trkpt><trkpt lat="45.0529948" lon="7.6851736"><ele>231.66666666666669</ele><time>2026-04-10T06:42:42.839Z</time></trkpt><trkpt lat="45.0530375" lon="7.6850838"><ele>232.0</ele><time>2026-04-10T06:42:44.838Z</time></trkpt><trkpt lat="45.0530721" lon="7.6849928"><ele>232.33333333333334</ele><time>2026-04-10T06:42:46.839Z</time></trkpt><trkpt lat="45.0531176" lon="7.6848717"><ele>232.66666666666669</ele><time>2026-04-10T06:42:49.838Z</time></trkpt><trkpt lat="45.0531434" lon="7.6847796"><ele>233.0</ele><time>2026-04-10T06:42:51.838Z</time></trkpt><trkpt lat="45.0531937" lon="7.6847016"><ele>233.00000000000003</ele><time>2026-04-10T06:42:53.839Z</time></trkpt><trkpt lat="45.0532701" lon="7.6846594"><ele>233.0</ele><time>2026-04-10T06:42:55.84Z</time></trkpt><trkpt lat="45.0533476" lon="7.6846513"><ele>233.0</ele><time>2026-04-10T06:42:57.839Z</time></trkpt><trkpt lat="45.0534234" lon="7.6846596"><ele>233.0</ele><time>2026-04-10T06:42:59.839Z</time></trkpt><trkpt lat="45.0535017" lon="7.6846851"><ele>233.00000000000003</ele><time>2026-04-10T06:43:01.838Z</time></trkpt><trkpt lat="45.0535777" lon="7.6847268"><ele>233.0</ele><time>2026-04-10T06:43:03.839Z</time></trkpt><trkpt lat="45.0536559" lon="7.6847708"><ele>233.16666666666669</ele><time>2026-04-10T06:43:05.839Z</time></trkpt><trkpt lat="45.0537361" lon="7.6848215"><ele>233.33333333333334</ele><time>2026-04-10T06:43:07.838Z</time></trkpt><trkpt lat="45.0538154" lon="7.6848682"><ele>233.5</ele><time>2026-04-10T06:43:09.839Z</time></trkpt><trkpt lat="45.0538979" lon="7.6849082"><ele>233.66666666666669</ele><time>2026-04-10T06:43:11.838Z</time></trkpt><trkpt lat="45.0539864" lon="7.6849471"><ele>233.83333333333334</ele><time>2026-04-10T06:43:13.838Z</time></trkpt><trkpt lat="45.0540791" lon="7.6849789"><ele>234.0</ele><time>2026-04-10T06:43:15.839Z</time></trkpt><trkpt lat="45.0541738" lon="7.6850154"><ele>234.0</ele><time>2026-04-10T06:43:17.838Z</time></trkpt><trkpt lat="45.0542679" lon="7.6850573"><ele>233.99999999999997</ele><time>2026-04-10T06:43:19.84Z</time></trkpt><trkpt lat="45.0543561" lon="7.6850659"><ele>233.99999999999997</ele><time>2026-04-10T06:43:21.839Z</time></trkpt><trkpt lat="45.0544397" lon="7.6850685"><ele>234.0</ele><time>2026-04-10T06:43:23.84Z</time></trkpt><trkpt lat="45.054537" lon="7.6850687"><ele>234.0</ele><time>2026-04-10T06:43:25.84Z</time></trkpt><trkpt lat="45.054628" lon="7.6851061"><ele>234.0</ele><time>2026-04-10T06:43:27.839Z</time></trkpt><trkpt lat="45.0547411" lon="7.6852264"><ele>233.99999999999997</ele><time>2026-04-10T06:43:30.839Z</time></trkpt><trkpt lat="45.05481" lon="7.6853176"><ele>233.99999999999997</ele><time>2026-04-10T06:43:32.839Z</time></trkpt><trkpt lat="45.0548779" lon="7.6854149"><ele>234.0</ele><time>2026-04-10T06:43:34.839Z</time></trkpt><trkpt lat="45.0549531" lon="7.6855001"><ele>234.0</ele><time>2026-04-10T06:43:36.839Z</time></trkpt><trkpt lat="45.0550309" lon="7.6855847"><ele>233.79999999999998</ele><time>2026-04-10T06:43:38.839Z</time></trkpt><trkpt lat="45.0551149" lon="7.6856818"><ele>233.59999999999997</ele><time>2026-04-10T06:43:40.838Z</time></trkpt><trkpt lat="45.0552061" lon="7.6857699"><ele>233.4</ele><time>2026-04-10T06:43:42.839Z</time></trkpt><trkpt lat="45.0553071" lon="7.6858474"><ele>233.2</ele><time>2026-04-10T06:43:44.839Z</time></trkpt><trkpt lat="45.0554076" lon="7.6859206"><ele>233.0</ele><time>2026-04-10T06:43:46.838Z</time></trkpt><trkpt lat="45.0555052" lon="7.686014"><ele>233.75</ele><time>2026-04-10T06:43:48.838Z</time></trkpt><trkpt lat="45.0556083" lon="7.6861015"><ele>234.5</ele><time>2026-04-10T06:43:50.838Z</time></trkpt><trkpt lat="45.0557055" lon="7.6862"><ele>235.25</ele><time>2026-04-10T06:43:52.838Z</time></trkpt><trkpt lat="45.0558066" lon="7.6862735"><ele>236.0</ele><time>2026-04-10T06:43:54.839Z</time></trkpt><trkpt lat="45.0559124" lon="7.6863593"><ele>236.0</ele><time>2026-04-10T06:43:56.839Z</time></trkpt><trkpt lat="45.0559683" lon="7.6864037"><ele>236.00000000000003</ele><time>2026-04-10T06:43:57.839Z</time></trkpt><trkpt lat="45.0560861" lon="7.6864846"><ele>236.00000000000003</ele><time>2026-04-10T06:43:59.839Z</time></trkpt><trkpt lat="45.0561409" lon="7.6865361"><ele>236.0</ele><time>2026-04-10T06:44:00.84Z</time></trkpt><trkpt lat="45.0562506" lon="7.6866183"><ele>236.0</ele><time>2026-04-10T06:44:02.839Z</time></trkpt><trkpt lat="45.0563942" lon="7.6867384"><ele>236.0</ele><time>2026-04-10T06:44:05.838Z</time></trkpt><trkpt lat="45.0564762" lon="7.6868124"><ele>236.00000000000003</ele><time>2026-04-10T06:44:07.839Z</time></trkpt><trkpt lat="45.0565709" lon="7.6869051"><ele>236.00000000000003</ele><time>2026-04-10T06:44:09.838Z</time></trkpt><trkpt lat="45.0566336" lon="7.6870218"><ele>236.0</ele><time>2026-04-10T06:44:11.838Z</time></trkpt><trkpt lat="45.0566728" lon="7.6871664"><ele>236.0</ele><time>2026-04-10T06:44:13.839Z</time></trkpt><trkpt lat="45.0566882" lon="7.6873348"><ele>236.00000000000003</ele><time>2026-04-10T06:44:15.839Z</time></trkpt><trkpt lat="45.0566876" lon="7.6874947"><ele>236.0</ele><time>2026-04-10T06:44:17.838Z</time></trkpt><trkpt lat="45.0566823" lon="7.6875837"><ele>236.0</ele><time>2026-04-10T06:44:18.838Z</time></trkpt><trkpt lat="45.0566666" lon="7.6877386"><ele>236.0</ele><time>2026-04-10T06:44:20.838Z</time></trkpt><trkpt lat="45.0566415" lon="7.6878226"><ele>236.00000000000003</ele><time>2026-04-10T06:44:21.839Z</time></trkpt><trkpt lat="45.0566273" lon="7.6879095"><ele>236.0</ele><time>2026-04-10T06:44:22.838Z</time></trkpt><trkpt lat="45.0566066" lon="7.6880012"><ele>235.60000000000002</ele><time>2026-04-10T06:44:23.84Z</time></trkpt><trkpt lat="45.0565984" lon="7.6880925"><ele>235.20000000000002</ele><time>2026-04-10T06:44:24.839Z</time></trkpt><trkpt lat="45.0566198" lon="7.6882509"><ele>234.79999999999998</ele><time>2026-04-10T06:44:26.838Z</time></trkpt><trkpt lat="45.056668" lon="7.6884001"><ele>234.39999999999998</ele><time>2026-04-10T06:44:28.838Z</time></trkpt><trkpt lat="45.0567116" lon="7.6885523"><ele>234.0</ele><time>2026-04-10T06:44:30.838Z</time></trkpt><trkpt lat="45.0567688" lon="7.688701"><ele>233.33333333333334</ele><time>2026-04-10T06:44:32.838Z</time></trkpt><trkpt lat="45.0568013" lon="7.6887791"><ele>232.66666666666669</ele><time>2026-04-10T06:44:33.839Z</time></trkpt><trkpt lat="45.0568353" lon="7.6888549"><ele>232.0</ele><time>2026-04-10T06:44:34.838Z</time></trkpt><trkpt lat="45.056911" lon="7.6889933"><ele>231.33333333333334</ele><time>2026-04-10T06:44:36.838Z</time></trkpt><trkpt lat="45.0569573" lon="7.6890553"><ele>230.66666666666669</ele><time>2026-04-10T06:44:37.839Z</time></trkpt><trkpt lat="45.057005" lon="7.689114"><ele>230.0</ele><time>2026-04-10T06:44:38.839Z</time></trkpt><trkpt lat="45.0570989" lon="7.6892207"><ele>230.0</ele><time>2026-04-10T06:44:40.839Z</time></trkpt><trkpt lat="45.0571918" lon="7.6893141"><ele>230.0</ele><time>2026-04-10T06:44:42.839Z</time></trkpt><trkpt lat="45.0573078" lon="7.6893867"><ele>230.0</ele><time>2026-04-10T06:44:44.839Z</time></trkpt><trkpt lat="45.0573683" lon="7.6894165"><ele>230.0</ele><time>2026-04-10T06:44:45.838Z</time></trkpt><trkpt lat="45.0574828" lon="7.6894549"><ele>230.0</ele><time>2026-04-10T06:44:47.838Z</time></trkpt><trkpt lat="45.0575452" lon="7.6894706"><ele>229.4</ele><time>2026-04-10T06:44:48.839Z</time></trkpt><trkpt lat="45.0576073" lon="7.6894912"><ele>228.8</ele><time>2026-04-10T06:44:49.839Z</time></trkpt><trkpt lat="45.0576718" lon="7.6895185"><ele>228.2</ele><time>2026-04-10T06:44:50.84Z</time></trkpt><trkpt lat="45.0577821" lon="7.6895959"><ele>227.6</ele><time>2026-04-10T06:44:52.839Z</time></trkpt><trkpt lat="45.0578919" lon="7.6896861"><ele>227.0</ele><time>2026-04-10T06:44:54.839Z</time></trkpt><trkpt lat="45.0579873" lon="7.6897953"><ele>227.0</ele><time>2026-04-10T06:44:56.839Z</time></trkpt><trkpt lat="45.0580389" lon="7.6898492"><ele>227.0</ele><time>2026-04-10T06:44:57.838Z</time></trkpt><trkpt lat="45.0581109" lon="7.689949"><ele>227.0</ele><time>2026-04-10T06:44:59.839Z</time></trkpt><trkpt lat="45.0581546" lon="7.6900824"><ele>227.0</ele><time>2026-04-10T06:45:01.839Z</time></trkpt><trkpt lat="45.058188" lon="7.6902142"><ele>227.0</ele><time>2026-04-10T06:45:03.839Z</time></trkpt><trkpt lat="45.058206" lon="7.6903549"><ele>226.66666666666669</ele><time>2026-04-10T06:45:05.839Z</time></trkpt><trkpt lat="45.0582076" lon="7.6904915"><ele>226.33333333333334</ele><time>2026-04-10T06:45:07.839Z</time></trkpt><trkpt lat="45.0582164" lon="7.690634"><ele>226.0</ele><time>2026-04-10T06:45:09.837Z</time></trkpt><trkpt lat="45.0582507" lon="7.6907463"><ele>225.66666666666669</ele><time>2026-04-10T06:45:11.839Z</time></trkpt><trkpt lat="45.0582909" lon="7.6908327"><ele>225.33333333333334</ele><time>2026-04-10T06:45:13.839Z</time></trkpt><trkpt lat="45.0583457" lon="7.6908943"><ele>225.0</ele><time>2026-04-10T06:45:15.84Z</time></trkpt><trkpt lat="45.058404" lon="7.6909741"><ele>225.0</ele><time>2026-04-10T06:45:18.84Z</time></trkpt><trkpt lat="45.0584611" lon="7.6910578"><ele>225.0</ele><time>2026-04-10T06:45:21.839Z</time></trkpt><trkpt lat="45.0584751" lon="7.691183"><ele>225.0</ele><time>2026-04-10T06:45:24.839Z</time></trkpt><trkpt lat="45.0585543" lon="7.6912345"><ele>225.0</ele><time>2026-04-10T06:45:27.838Z</time></trkpt><trkpt lat="45.0586355" lon="7.6912201"><ele>225.0</ele><time>2026-04-10T06:45:30.839Z</time></trkpt><trkpt lat="45.0586983" lon="7.6912522"><ele>225.0</ele><time>2026-04-10T06:45:33.838Z</time></trkpt><trkpt lat="45.0587629" lon="7.6913548"><ele>224.75</ele><time>2026-04-10T06:45:36.839Z</time></trkpt><trkpt lat="45.0588257" lon="7.6914468"><ele>224.5</ele><time>2026-04-10T06:45:38.839Z</time></trkpt><trkpt lat="45.0589467" lon="7.6915927"><ele>224.25</ele><time>2026-04-10T06:45:41.839Z</time></trkpt><trkpt lat="45.0590427" lon="7.6916688"><ele>224.0</ele><time>2026-04-10T06:45:43.839Z</time></trkpt><trkpt lat="45.0591414" lon="7.6917414"><ele>224.0</ele><time>2026-04-10T06:45:45.838Z</time></trkpt><trkpt lat="45.0592242" lon="7.6918038"><ele>223.99999999999997</ele><time>2026-04-10T06:45:47.838Z</time></trkpt><trkpt lat="45.0593153" lon="7.6918746"><ele>223.99999999999997</ele><time>2026-04-10T06:45:49.838Z</time></trkpt><trkpt lat="45.0594108" lon="7.6919433"><ele>224.0</ele><time>2026-04-10T06:45:51.839Z</time></trkpt><trkpt lat="45.0595029" lon="7.6920246"><ele>224.0</ele><time>2026-04-10T06:45:53.84Z</time></trkpt><trkpt lat="45.0595706" lon="7.6920882"><ele>223.33333333333334</ele><time>2026-04-10T06:45:55.839Z</time></trkpt><trkpt lat="45.0596334" lon="7.6921466"><ele>222.66666666666669</ele><time>2026-04-10T06:45:57.839Z</time></trkpt><trkpt lat="45.0597124" lon="7.6922136"><ele>222.0</ele><time>2026-04-10T06:45:59.839Z</time></trkpt><trkpt lat="45.0597906" lon="7.6922994"><ele>221.33333333333331</ele><time>2026-04-10T06:46:01.839Z</time></trkpt><trkpt lat="45.0598457" lon="7.6923774"><ele>220.66666666666666</ele><time>2026-04-10T06:46:03.839Z</time></trkpt><trkpt lat="45.0598711" lon="7.692462"><ele>220.0</ele><time>2026-04-10T06:46:06.838Z</time></trkpt><trkpt lat="45.0599448" lon="7.6925116"><ele>220.2</ele><time>2026-04-10T06:46:09.839Z</time></trkpt><trkpt lat="45.0600103" lon="7.692546"><ele>220.4</ele><time>2026-04-10T06:46:11.838Z</time></trkpt><trkpt lat="45.0600829" lon="7.6926298"><ele>220.60000000000002</ele><time>2026-04-10T06:46:13.838Z</time></trkpt><trkpt lat="45.0601719" lon="7.6926854"><ele>220.8</ele><time>2026-04-10T06:46:15.838Z</time></trkpt><trkpt lat="45.0602542" lon="7.6927508"><ele>221.0</ele><time>2026-04-10T06:46:17.838Z</time></trkpt><trkpt lat="45.0603394" lon="7.6928209"><ele>220.60000000000002</ele><time>2026-04-10T06:46:19.839Z</time></trkpt><trkpt lat="45.0604298" lon="7.692889"><ele>220.20000000000002</ele><time>2026-04-10T06:46:21.838Z</time></trkpt><trkpt lat="45.0605127" lon="7.6929566"><ele>219.79999999999998</ele><time>2026-04-10T06:46:23.84Z</time></trkpt><trkpt lat="45.0606031" lon="7.6930193"><ele>219.39999999999998</ele><time>2026-04-10T06:46:25.838Z</time></trkpt><trkpt lat="45.060684" lon="7.6930819"><ele>219.0</ele><time>2026-04-10T06:46:27.838Z</time></trkpt><trkpt lat="45.0607616" lon="7.6931776"><ele>220.2</ele><time>2026-04-10T06:46:29.839Z</time></trkpt><trkpt lat="45.0608407" lon="7.6932749"><ele>221.39999999999998</ele><time>2026-04-10T06:46:31.839Z</time></trkpt><trkpt lat="45.060928" lon="7.6933556"><ele>222.6</ele><time>2026-04-10T06:46:33.839Z</time></trkpt><trkpt lat="45.0610113" lon="7.6934502"><ele>223.8</ele><time>2026-04-10T06:46:35.838Z</time></trkpt><trkpt lat="45.0611001" lon="7.6935278"><ele>225.0</ele><time>2026-04-10T06:46:37.839Z</time></trkpt><trkpt lat="45.061191" lon="7.693622"><ele>225.0</ele><time>2026-04-10T06:46:39.838Z</time></trkpt><trkpt lat="45.0612739" lon="7.6937041"><ele>225.0</ele><time>2026-04-10T06:46:41.838Z</time></trkpt><trkpt lat="45.0613489" lon="7.6937949"><ele>225.0</ele><time>2026-04-10T06:46:43.838Z</time></trkpt><trkpt lat="45.0614322" lon="7.6938806"><ele>225.0</ele><time>2026-04-10T06:46:45.838Z</time></trkpt><trkpt lat="45.0615171" lon="7.6939651"><ele>225.0</ele><time>2026-04-10T06:46:47.838Z</time></trkpt><trkpt lat="45.0616067" lon="7.6940532"><ele>225.0</ele><time>2026-04-10T06:46:49.839Z</time></trkpt><trkpt lat="45.0616976" lon="7.6941396"><ele>225.0</ele><time>2026-04-10T06:46:51.839Z</time></trkpt><trkpt lat="45.0617903" lon="7.6942043"><ele>225.0</ele><time>2026-04-10T06:46:53.839Z</time></trkpt><trkpt lat="45.0618838" lon="7.6942962"><ele>225.0</ele><time>2026-04-10T06:46:55.838Z</time></trkpt><trkpt lat="45.0619689" lon="7.6943974"><ele>225.0</ele><time>2026-04-10T06:46:57.839Z</time></trkpt><trkpt lat="45.0620572" lon="7.6944934"><ele>224.4</ele><time>2026-04-10T06:46:59.838Z</time></trkpt><trkpt lat="45.0621302" lon="7.6945794"><ele>223.8</ele><time>2026-04-10T06:47:01.839Z</time></trkpt><trkpt lat="45.0622053" lon="7.6946734"><ele>223.2</ele><time>2026-04-10T06:47:03.839Z</time></trkpt><trkpt lat="45.0622925" lon="7.6947768"><ele>222.6</ele><time>2026-04-10T06:47:05.838Z</time></trkpt><trkpt lat="45.0623749" lon="7.6948727"><ele>222.0</ele><time>2026-04-10T06:47:07.839Z</time></trkpt><trkpt lat="45.0625008" lon="7.6950185"><ele>222.2</ele><time>2026-04-10T06:47:10.839Z</time></trkpt><trkpt lat="45.0625924" lon="7.6951147"><ele>222.39999999999998</ele><time>2026-04-10T06:47:12.838Z</time></trkpt><trkpt lat="45.0626384" lon="7.6951765"><ele>222.60000000000002</ele><time>2026-04-10T06:47:13.84Z</time></trkpt><trkpt lat="45.0627237" lon="7.6952659"><ele>222.8</ele><time>2026-04-10T06:47:15.839Z</time></trkpt><trkpt lat="45.0628016" lon="7.6953535"><ele>223.0</ele><time>2026-04-10T06:47:17.84Z</time></trkpt><trkpt lat="45.0628875" lon="7.695452"><ele>223.0</ele><time>2026-04-10T06:47:19.838Z</time></trkpt><trkpt lat="45.0629744" lon="7.6955639"><ele>223.0</ele><time>2026-04-10T06:47:21.839Z</time></trkpt><trkpt lat="45.063058" lon="7.6956639"><ele>223.0</ele><time>2026-04-10T06:47:23.84Z</time></trkpt><trkpt lat="45.0631232" lon="7.695743"><ele>223.0</ele><time>2026-04-10T06:47:25.838Z</time></trkpt><trkpt lat="45.0631851" lon="7.695808"><ele>223.0</ele><time>2026-04-10T06:47:27.84Z</time></trkpt><trkpt lat="45.0632362" lon="7.6958744"><ele>223.42857142857142</ele><time>2026-04-10T06:47:29.838Z</time></trkpt><trkpt lat="45.063304" lon="7.6959372"><ele>223.85714285714283</ele><time>2026-04-10T06:47:31.84Z</time></trkpt><trkpt lat="45.0633545" lon="7.6960128"><ele>224.28571428571428</ele><time>2026-04-10T06:47:33.838Z</time></trkpt><trkpt lat="45.0634065" lon="7.6960852"><ele>224.71428571428572</ele><time>2026-04-10T06:47:35.838Z</time></trkpt><trkpt lat="45.0634628" lon="7.6961504"><ele>225.14285714285714</ele><time>2026-04-10T06:47:37.84Z</time></trkpt><trkpt lat="45.0635199" lon="7.6962117"><ele>225.57142857142858</ele><time>2026-04-10T06:47:39.84Z</time></trkpt><trkpt lat="45.0635715" lon="7.6962774"><ele>226.0</ele><time>2026-04-10T06:47:41.838Z</time></trkpt><trkpt lat="45.063617" lon="7.696345"><ele>226.0</ele><time>2026-04-10T06:47:43.838Z</time></trkpt><trkpt lat="45.0636684" lon="7.6964057"><ele>226.0</ele><time>2026-04-10T06:47:45.838Z</time></trkpt><trkpt lat="45.0637215" lon="7.6964613"><ele>226.0</ele><time>2026-04-10T06:47:47.838Z</time></trkpt><trkpt lat="45.0637899" lon="7.6965408"><ele>226.0</ele><time>2026-04-10T06:47:50.839Z</time></trkpt><trkpt lat="45.0638385" lon="7.6966062"><ele>226.0</ele><time>2026-04-10T06:47:52.84Z</time></trkpt><trkpt lat="45.0638954" lon="7.6966601"><ele>226.0</ele><time>2026-04-10T06:47:54.838Z</time></trkpt><trkpt lat="45.0639551" lon="7.6967116"><ele>226.0</ele><time>2026-04-10T06:47:56.839Z</time></trkpt><trkpt lat="45.0640165" lon="7.6967651"><ele>225.99999999999997</ele><time>2026-04-10T06:47:58.839Z</time></trkpt><trkpt lat="45.0640827" lon="7.6968251"><ele>226.0</ele><time>2026-04-10T06:48:00.839Z</time></trkpt><trkpt lat="45.0641463" lon="7.6968929"><ele>226.0</ele><time>2026-04-10T06:48:02.841Z</time></trkpt><trkpt lat="45.0642077" lon="7.6969696"><ele>226.0</ele><time>2026-04-10T06:48:04.839Z</time></trkpt><trkpt lat="45.0642689" lon="7.6970446"><ele>225.99999999999997</ele><time>2026-04-10T06:48:06.839Z</time></trkpt><trkpt lat="45.0643286" lon="7.6971174"><ele>226.0</ele><time>2026-04-10T06:48:08.839Z</time></trkpt><trkpt lat="45.0643883" lon="7.6971986"><ele>225.99999999999997</ele><time>2026-04-10T06:48:10.838Z</time></trkpt><trkpt lat="45.0644492" lon="7.6972843"><ele>226.0</ele><time>2026-04-10T06:48:12.839Z</time></trkpt><trkpt lat="45.0645221" lon="7.697362"><ele>226.0</ele><time>2026-04-10T06:48:14.838Z</time></trkpt><trkpt lat="45.0645902" lon="7.697453"><ele>226.0</ele><time>2026-04-10T06:48:16.839Z</time></trkpt><trkpt lat="45.0646642" lon="7.697541"><ele>225.99999999999997</ele><time>2026-04-10T06:48:18.839Z</time></trkpt><trkpt lat="45.0647222" lon="7.6976212"><ele>226.0</ele><time>2026-04-10T06:48:20.839Z</time></trkpt><trkpt lat="45.0647896" lon="7.6977137"><ele>226.20000000000002</ele><time>2026-04-10T06:48:22.839Z</time></trkpt><trkpt lat="45.0648542" lon="7.6978126"><ele>226.40000000000003</ele><time>2026-04-10T06:48:24.839Z</time></trkpt><trkpt lat="45.0649384" lon="7.697912"><ele>226.6</ele><time>2026-04-10T06:48:26.838Z</time></trkpt><trkpt lat="45.0650108" lon="7.6980232"><ele>226.8</ele><time>2026-04-10T06:48:28.84Z</time></trkpt><trkpt lat="45.0650896" lon="7.6981336"><ele>227.0</ele><time>2026-04-10T06:48:30.839Z</time></trkpt><trkpt lat="45.0651625" lon="7.6982279"><ele>227.0</ele><time>2026-04-10T06:48:32.839Z</time></trkpt><trkpt lat="45.0652413" lon="7.6983427"><ele>227.0</ele><time>2026-04-10T06:48:34.839Z</time></trkpt><trkpt lat="45.0653156" lon="7.6984448"><ele>227.0</ele><time>2026-04-10T06:48:36.838Z</time></trkpt><trkpt lat="45.0654115" lon="7.6985097"><ele>227.0</ele><time>2026-04-10T06:48:38.839Z</time></trkpt><trkpt lat="45.0654959" lon="7.698617"><ele>227.0</ele><time>2026-04-10T06:48:40.838Z</time></trkpt><trkpt lat="45.0655794" lon="7.6987043"><ele>227.39999999999998</ele><time>2026-04-10T06:48:42.839Z</time></trkpt><trkpt lat="45.0656752" lon="7.6988016"><ele>227.79999999999998</ele><time>2026-04-10T06:48:44.839Z</time></trkpt><trkpt lat="45.0657734" lon="7.6988204"><ele>228.2</ele><time>2026-04-10T06:48:46.839Z</time></trkpt><trkpt lat="45.0658565" lon="7.6987547"><ele>228.6</ele><time>2026-04-10T06:48:48.839Z</time></trkpt><trkpt lat="45.0659455" lon="7.69869"><ele>229.0</ele><time>2026-04-10T06:48:51.838Z</time></trkpt><trkpt lat="45.0660259" lon="7.6986358"><ele>229.79999999999998</ele><time>2026-04-10T06:48:53.839Z</time></trkpt><trkpt lat="45.066094" lon="7.698572"><ele>230.59999999999997</ele><time>2026-04-10T06:48:55.839Z</time></trkpt><trkpt lat="45.0661747" lon="7.6985014"><ele>231.4</ele><time>2026-04-10T06:48:57.839Z</time></trkpt><trkpt lat="45.0662454" lon="7.6984371"><ele>232.2</ele><time>2026-04-10T06:48:59.839Z</time></trkpt><trkpt lat="45.0663621" lon="7.6983237"><ele>233.0</ele><time>2026-04-10T06:49:02.839Z</time></trkpt><trkpt lat="45.0664275" lon="7.6982387"><ele>233.0</ele><time>2026-04-10T06:49:04.838Z</time></trkpt><trkpt lat="45.0664954" lon="7.6981826"><ele>233.0</ele><time>2026-04-10T06:49:06.838Z</time></trkpt><trkpt lat="45.0665883" lon="7.6980829"><ele>233.0</ele><time>2026-04-10T06:49:08.838Z</time></trkpt><trkpt lat="45.0666669" lon="7.6980022"><ele>233.0</ele><time>2026-04-10T06:49:10.839Z</time></trkpt><trkpt lat="45.0667418" lon="7.6978878"><ele>233.0</ele><time>2026-04-10T06:49:12.838Z</time></trkpt><trkpt lat="45.0668204" lon="7.6978398"><ele>233.33333333333334</ele><time>2026-04-10T06:49:14.838Z</time></trkpt><trkpt lat="45.0669059" lon="7.697753"><ele>233.66666666666669</ele><time>2026-04-10T06:49:16.838Z</time></trkpt><trkpt lat="45.0669899" lon="7.6976512"><ele>234.0</ele><time>2026-04-10T06:49:18.839Z</time></trkpt><trkpt lat="45.0670395" lon="7.6975941"><ele>234.33333333333331</ele><time>2026-04-10T06:49:19.839Z</time></trkpt><trkpt lat="45.0670982" lon="7.697538"><ele>234.66666666666666</ele><time>2026-04-10T06:49:20.839Z</time></trkpt><trkpt lat="45.0671701" lon="7.6974669"><ele>235.0</ele><time>2026-04-10T06:49:22.841Z</time></trkpt><trkpt lat="45.0672424" lon="7.6973915"><ele>235.0</ele><time>2026-04-10T06:49:24.839Z</time></trkpt><trkpt lat="45.0673133" lon="7.6973192"><ele>235.0</ele><time>2026-04-10T06:49:26.838Z</time></trkpt><trkpt lat="45.067395" lon="7.6972582"><ele>235.0</ele><time>2026-04-10T06:49:28.839Z</time></trkpt><trkpt lat="45.0674833" lon="7.6971837"><ele>235.0</ele><time>2026-04-10T06:49:30.839Z</time></trkpt><trkpt lat="45.0675745" lon="7.6971013"><ele>235.0</ele><time>2026-04-10T06:49:32.84Z</time></trkpt><trkpt lat="45.0676389" lon="7.6970409"><ele>235.0</ele><time>2026-04-10T06:49:34.838Z</time></trkpt><trkpt lat="45.0677279" lon="7.6970398"><ele>235.0</ele><time>2026-04-10T06:49:37.839Z</time></trkpt><trkpt lat="45.0677613" lon="7.6971433"><ele>235.0</ele><time>2026-04-10T06:49:39.839Z</time></trkpt><trkpt lat="45.0678158" lon="7.6972054"><ele>235.0</ele><time>2026-04-10T06:49:40.839Z</time></trkpt><trkpt lat="45.0679015" lon="7.6973126"><ele>235.0</ele><time>2026-04-10T06:49:42.839Z</time></trkpt><trkpt lat="45.0679662" lon="7.697423"><ele>235.0</ele><time>2026-04-10T06:49:44.838Z</time></trkpt><trkpt lat="45.0680227" lon="7.6975396"><ele>235.0</ele><time>2026-04-10T06:49:46.839Z</time></trkpt><trkpt lat="45.0681035" lon="7.697627"><ele>235.0</ele><time>2026-04-10T06:49:48.838Z</time></trkpt><trkpt lat="45.0681913" lon="7.6977148"><ele>235.0</ele><time>2026-04-10T06:49:50.84Z</time></trkpt><trkpt lat="45.0682589" lon="7.6978093"><ele>235.0</ele><time>2026-04-10T06:49:52.84Z</time></trkpt><trkpt lat="45.0683302" lon="7.6979156"><ele>234.6</ele><time>2026-04-10T06:49:54.839Z</time></trkpt><trkpt lat="45.0683829" lon="7.6980314"><ele>234.2</ele><time>2026-04-10T06:49:56.838Z</time></trkpt><trkpt lat="45.0684666" lon="7.6981005"><ele>233.8</ele><time>2026-04-10T06:49:58.839Z</time></trkpt><trkpt lat="45.0685558" lon="7.6981146"><ele>233.4</ele><time>2026-04-10T06:50:00.839Z</time></trkpt><trkpt lat="45.0686415" lon="7.6981947"><ele>233.0</ele><time>2026-04-10T06:50:02.84Z</time></trkpt><trkpt lat="45.0687345" lon="7.6982711"><ele>233.0</ele><time>2026-04-10T06:50:04.839Z</time></trkpt><trkpt lat="45.0688287" lon="7.6983519"><ele>233.0</ele><time>2026-04-10T06:50:06.84Z</time></trkpt><trkpt lat="45.0689129" lon="7.6984223"><ele>233.0</ele><time>2026-04-10T06:50:08.839Z</time></trkpt><trkpt lat="45.0689986" lon="7.6985208"><ele>233.0</ele><time>2026-04-10T06:50:10.839Z</time></trkpt><trkpt lat="45.069087" lon="7.6986219"><ele>233.0</ele><time>2026-04-10T06:50:12.839Z</time></trkpt><trkpt lat="45.0691778" lon="7.6987142"><ele>232.50000000000003</ele><time>2026-04-10T06:50:14.838Z</time></trkpt><trkpt lat="45.0692413" lon="7.6987787"><ele>232.0</ele><time>2026-04-10T06:50:16.839Z</time></trkpt><trkpt lat="45.0693499" lon="7.6988952"><ele>231.5</ele><time>2026-04-10T06:50:19.839Z</time></trkpt><trkpt lat="45.0694" lon="7.6989527"><ele>231.0</ele><time>2026-04-10T06:50:20.839Z</time></trkpt><trkpt lat="45.0694628" lon="7.6990077"><ele>230.50000000000003</ele><time>2026-04-10T06:50:22.839Z</time></trkpt><trkpt lat="45.0695331" lon="7.6990189"><ele>230.0</ele><time>2026-04-10T06:50:25.839Z</time></trkpt><trkpt lat="45.0695937" lon="7.6989142"><ele>230.0</ele><time>2026-04-10T06:50:27.84Z</time></trkpt><trkpt lat="45.0696642" lon="7.6987934"><ele>230.0</ele><time>2026-04-10T06:50:29.838Z</time></trkpt><trkpt lat="45.0697245" lon="7.6986925"><ele>230.0</ele><time>2026-04-10T06:50:31.839Z</time></trkpt><trkpt lat="45.0697904" lon="7.6986068"><ele>230.0</ele><time>2026-04-10T06:50:33.838Z</time></trkpt><trkpt lat="45.0698491" lon="7.6985507"><ele>230.0</ele><time>2026-04-10T06:50:35.84Z</time></trkpt><trkpt lat="45.0699215" lon="7.6984435"><ele>230.33333333333334</ele><time>2026-04-10T06:50:37.84Z</time></trkpt><trkpt lat="45.0699913" lon="7.6983291"><ele>230.66666666666669</ele><time>2026-04-10T06:50:39.838Z</time></trkpt><trkpt lat="45.0700432" lon="7.6982712"><ele>231.0</ele><time>2026-04-10T06:50:40.838Z</time></trkpt><trkpt lat="45.0700979" lon="7.698175"><ele>231.33333333333331</ele><time>2026-04-10T06:50:42.839Z</time></trkpt><trkpt lat="45.0701542" lon="7.6980677"><ele>231.66666666666666</ele><time>2026-04-10T06:50:44.84Z</time></trkpt><trkpt lat="45.0702149" lon="7.6979994"><ele>232.0</ele><time>2026-04-10T06:50:45.84Z</time></trkpt><trkpt lat="45.070258" lon="7.697923"><ele>232.0</ele><time>2026-04-10T06:50:46.839Z</time></trkpt><trkpt lat="45.0703198" lon="7.6978177"><ele>232.0</ele><time>2026-04-10T06:50:48.84Z</time></trkpt><trkpt lat="45.0703675" lon="7.697704"><ele>232.0</ele><time>2026-04-10T06:50:50.839Z</time></trkpt><trkpt lat="45.0703946" lon="7.6975602"><ele>232.0</ele><time>2026-04-10T06:50:53.84Z</time></trkpt><trkpt lat="45.070427" lon="7.6974814"><ele>232.0</ele><time>2026-04-10T06:50:55.84Z</time></trkpt><trkpt lat="45.0703279" lon="7.6973806"><ele>232.0</ele><time>2026-04-10T06:50:59.84Z</time></trkpt><trkpt lat="45.0702738" lon="7.6973168"><ele>232.0</ele><time>2026-04-10T06:51:02.841Z</time></trkpt><trkpt lat="45.0702128" lon="7.697416"><ele>232.0</ele><time>2026-04-10T06:51:46.316Z</time></trkpt><trkpt lat="45.0700592" lon="7.6974311"><ele>232.0</ele><time>2026-04-10T06:52:19.839Z</time></trkpt><trkpt lat="45.070138" lon="7.6973709"><ele>232.0</ele><time>2026-04-10T06:52:21.84Z</time></trkpt><trkpt lat="45.0702038" lon="7.6974046"><ele>231.99999999999997</ele><time>2026-04-10T06:54:02.839Z</time></trkpt><trkpt lat="45.0702481" lon="7.6974684"><ele>232.0</ele><time>2026-04-10T06:54:08.839Z</time></trkpt><trkpt lat="45.0703262" lon="7.6975516"><ele>232.0</ele><time>2026-04-10T06:54:11.84Z</time></trkpt><trkpt lat="45.0703794" lon="7.6976359"><ele>232.0</ele><time>2026-04-10T06:54:14.838Z</time></trkpt><trkpt lat="45.0704366" lon="7.6976755"><ele>231.99999999999997</ele><time>2026-04-10T06:54:17.838Z</time></trkpt><trkpt lat="45.070496" lon="7.6976122"><ele>232.0</ele><time>2026-04-10T06:54:19.84Z</time></trkpt><trkpt lat="45.0705393" lon="7.6975076"><ele>232.0</ele><time>2026-04-10T06:54:21.839Z</time></trkpt><trkpt lat="45.0706213" lon="7.6973881"><ele>232.0</ele><time>2026-04-10T06:54:23.84Z</time></trkpt><trkpt lat="45.0706868" lon="7.6973487"><ele>232.0</ele><time>2026-04-10T06:54:24.84Z</time></trkpt><trkpt lat="45.0707615" lon="7.6972537"><ele>232.0</ele><time>2026-04-10T06:54:26.84Z</time></trkpt><trkpt lat="45.0708234" lon="7.6971441"><ele>232.0</ele><time>2026-04-10T06:54:28.841Z</time></trkpt><trkpt lat="45.0708516" lon="7.6970453"><ele>231.83333333333331</ele><time>2026-04-10T06:54:30.84Z</time></trkpt><trkpt lat="45.0708855" lon="7.6969172"><ele>231.66666666666666</ele><time>2026-04-10T06:54:32.839Z</time></trkpt><trkpt lat="45.0708008" lon="7.6968497"><ele>231.5</ele><time>2026-04-10T06:54:35.839Z</time></trkpt><trkpt lat="45.0707016" lon="7.6967533"><ele>231.33333333333331</ele><time>2026-04-10T06:54:37.838Z</time></trkpt><trkpt lat="45.0706438" lon="7.6967034"><ele>231.16666666666666</ele><time>2026-04-10T06:54:38.838Z</time></trkpt><trkpt lat="45.0705898" lon="7.6966524"><ele>231.0</ele><time>2026-04-10T06:54:39.839Z</time></trkpt><trkpt lat="45.0705115" lon="7.6965557"><ele>231.4</ele><time>2026-04-10T06:54:41.839Z</time></trkpt><trkpt lat="45.0704346" lon="7.6964884"><ele>231.8</ele><time>2026-04-10T06:54:43.838Z</time></trkpt><trkpt lat="45.0703551" lon="7.6964192"><ele>232.20000000000002</ele><time>2026-04-10T06:54:45.838Z</time></trkpt><trkpt lat="45.0702829" lon="7.6963108"><ele>232.60000000000002</ele><time>2026-04-10T06:54:47.839Z</time></trkpt><trkpt lat="45.0702203" lon="7.696196"><ele>233.0</ele><time>2026-04-10T06:54:49.838Z</time></trkpt><trkpt lat="45.0701421" lon="7.6961151"><ele>233.16666666666669</ele><time>2026-04-10T06:54:51.84Z</time></trkpt><trkpt lat="45.07008" lon="7.6960397"><ele>233.33333333333334</ele><time>2026-04-10T06:54:53.839Z</time></trkpt><trkpt lat="45.0700307" lon="7.6959357"><ele>233.5</ele><time>2026-04-10T06:54:55.84Z</time></trkpt><trkpt lat="45.0699673" lon="7.6958606"><ele>233.66666666666669</ele><time>2026-04-10T06:54:57.839Z</time></trkpt><trkpt lat="45.0698873" lon="7.695808"><ele>233.83333333333334</ele><time>2026-04-10T06:54:59.84Z</time></trkpt><trkpt lat="45.0698119" lon="7.6957128"><ele>234.0</ele><time>2026-04-10T06:55:01.839Z</time></trkpt><trkpt lat="45.069734" lon="7.6956565"><ele>234.0</ele><time>2026-04-10T06:55:03.838Z</time></trkpt><trkpt lat="45.0696912" lon="7.6955783"><ele>233.99999999999997</ele><time>2026-04-10T06:55:04.84Z</time></trkpt><trkpt lat="45.0695928" lon="7.6954102"><ele>233.99999999999997</ele><time>2026-04-10T06:55:06.839Z</time></trkpt><trkpt lat="45.0695417" lon="7.6952994"><ele>234.0</ele><time>2026-04-10T06:55:08.84Z</time></trkpt><trkpt lat="45.0694664" lon="7.6951972"><ele>234.0</ele><time>2026-04-10T06:55:10.84Z</time></trkpt><trkpt lat="45.0694017" lon="7.6951157"><ele>234.33333333333334</ele><time>2026-04-10T06:55:12.84Z</time></trkpt><trkpt lat="45.0693331" lon="7.6950236"><ele>234.66666666666669</ele><time>2026-04-10T06:55:14.839Z</time></trkpt><trkpt lat="45.0692593" lon="7.6949565"><ele>235.0</ele><time>2026-04-10T06:55:16.84Z</time></trkpt><trkpt lat="45.0691955" lon="7.6949057"><ele>235.33333333333334</ele><time>2026-04-10T06:55:18.839Z</time></trkpt><trkpt lat="45.0691077" lon="7.6949152"><ele>235.66666666666669</ele><time>2026-04-10T06:55:21.839Z</time></trkpt><trkpt lat="45.0690505" lon="7.6949892"><ele>236.0</ele><time>2026-04-10T06:55:23.84Z</time></trkpt><trkpt lat="45.0690074" lon="7.6950869"><ele>235.60000000000002</ele><time>2026-04-10T06:55:25.839Z</time></trkpt><trkpt lat="45.0689316" lon="7.6951622"><ele>235.20000000000002</ele><time>2026-04-10T06:55:27.838Z</time></trkpt><trkpt lat="45.068818" lon="7.6952395"><ele>234.79999999999998</ele><time>2026-04-10T06:55:29.84Z</time></trkpt><trkpt lat="45.0687376" lon="7.695309"><ele>234.39999999999998</ele><time>2026-04-10T06:55:31.839Z</time></trkpt><trkpt lat="45.0686441" lon="7.695411"><ele>234.0</ele><time>2026-04-10T06:55:33.838Z</time></trkpt><trkpt lat="45.0685651" lon="7.6954894"><ele>234.0</ele><time>2026-04-10T06:55:35.838Z</time></trkpt><trkpt lat="45.0684858" lon="7.6955557"><ele>234.0</ele><time>2026-04-10T06:55:37.839Z</time></trkpt><trkpt lat="45.0684259" lon="7.6956243"><ele>234.0</ele><time>2026-04-10T06:55:39.84Z</time></trkpt><trkpt lat="45.0683408" lon="7.6956397"><ele>234.0</ele><time>2026-04-10T06:55:41.84Z</time></trkpt><trkpt lat="45.0682606" lon="7.6956858"><ele>234.0</ele><time>2026-04-10T06:55:43.84Z</time></trkpt><trkpt lat="45.0681743" lon="7.6957171"><ele>234.0</ele><time>2026-04-10T06:55:45.838Z</time></trkpt><trkpt lat="45.0680817" lon="7.6958093"><ele>234.0</ele><time>2026-04-10T06:55:47.838Z</time></trkpt><trkpt lat="45.0680048" lon="7.6958352"><ele>233.99999999999997</ele><time>2026-04-10T06:55:48.839Z</time></trkpt><trkpt lat="45.0679419" lon="7.695943"><ele>233.99999999999997</ele><time>2026-04-10T06:55:50.84Z</time></trkpt><trkpt lat="45.0678461" lon="7.696036"><ele>234.0</ele><time>2026-04-10T06:55:52.84Z</time></trkpt><trkpt lat="45.0677592" lon="7.6961091"><ele>234.0</ele><time>2026-04-10T06:55:54.84Z</time></trkpt><trkpt lat="45.0677019" lon="7.6961466"><ele>234.0</ele><time>2026-04-10T06:55:55.838Z</time></trkpt><trkpt lat="45.067618" lon="7.6962203"><ele>233.99999999999997</ele><time>2026-04-10T06:55:57.841Z</time></trkpt><trkpt lat="45.0675524" lon="7.6963234"><ele>233.99999999999997</ele><time>2026-04-10T06:55:59.839Z</time></trkpt><trkpt lat="45.0674712" lon="7.6964082"><ele>234.0</ele><time>2026-04-10T06:56:01.839Z</time></trkpt><trkpt lat="45.0674026" lon="7.6964998"><ele>234.0</ele><time>2026-04-10T06:56:03.839Z</time></trkpt><trkpt lat="45.0673268" lon="7.6966007"><ele>234.2</ele><time>2026-04-10T06:56:05.839Z</time></trkpt><trkpt lat="45.0672491" lon="7.6966893"><ele>234.39999999999998</ele><time>2026-04-10T06:56:07.838Z</time></trkpt><trkpt lat="45.0671811" lon="7.6967953"><ele>234.6</ele><time>2026-04-10T06:56:09.84Z</time></trkpt><trkpt lat="45.0671151" lon="7.696887"><ele>234.8</ele><time>2026-04-10T06:56:11.839Z</time></trkpt><trkpt lat="45.0670409" lon="7.696941"><ele>235.0</ele><time>2026-04-10T06:56:12.84Z</time></trkpt><trkpt lat="45.0669697" lon="7.6969985"><ele>235.2</ele><time>2026-04-10T06:56:14.839Z</time></trkpt><trkpt lat="45.0668534" lon="7.6970713"><ele>235.4</ele><time>2026-04-10T06:56:16.839Z</time></trkpt><trkpt lat="45.0667932" lon="7.6971927"><ele>235.60000000000002</ele><time>2026-04-10T06:56:18.84Z</time></trkpt><trkpt lat="45.0667093" lon="7.6972802"><ele>235.8</ele><time>2026-04-10T06:56:20.839Z</time></trkpt><trkpt lat="45.0666224" lon="7.6973434"><ele>236.0</ele><time>2026-04-10T06:56:22.839Z</time></trkpt><trkpt lat="45.0665458" lon="7.697376"><ele>236.00000000000003</ele><time>2026-04-10T06:56:24.84Z</time></trkpt><trkpt lat="45.0664922" lon="7.697426"><ele>236.0</ele><time>2026-04-10T06:56:25.839Z</time></trkpt><trkpt lat="45.06643" lon="7.69752"><ele>236.0</ele><time>2026-04-10T06:56:27.838Z</time></trkpt><trkpt lat="45.0663613" lon="7.6976119"><ele>236.0</ele><time>2026-04-10T06:56:29.838Z</time></trkpt><trkpt lat="45.0662845" lon="7.6976652"><ele>236.00000000000003</ele><time>2026-04-10T06:56:30.838Z</time></trkpt><trkpt lat="45.0662299" lon="7.697714"><ele>236.0</ele><time>2026-04-10T06:56:31.84Z</time></trkpt><trkpt lat="45.0661643" lon="7.6977887"><ele>235.4</ele><time>2026-04-10T06:56:34.84Z</time></trkpt><trkpt lat="45.0661143" lon="7.6978746"><ele>234.8</ele><time>2026-04-10T06:56:40.838Z</time></trkpt><trkpt lat="45.0660532" lon="7.6979577"><ele>234.20000000000002</ele><time>2026-04-10T06:56:43.838Z</time></trkpt><trkpt lat="45.0659788" lon="7.6980495"><ele>233.60000000000002</ele><time>2026-04-10T06:56:45.839Z</time></trkpt><trkpt lat="45.0658952" lon="7.6981345"><ele>233.0</ele><time>2026-04-10T06:56:46.839Z</time></trkpt><trkpt lat="45.0658035" lon="7.6982293"><ele>231.8</ele><time>2026-04-10T06:56:48.838Z</time></trkpt><trkpt lat="45.0657042" lon="7.6983031"><ele>230.60000000000002</ele><time>2026-04-10T06:56:50.838Z</time></trkpt><trkpt lat="45.0656064" lon="7.6983738"><ele>229.39999999999998</ele><time>2026-04-10T06:56:52.839Z</time></trkpt><trkpt lat="45.0655306" lon="7.6984345"><ele>228.2</ele><time>2026-04-10T06:56:54.838Z</time></trkpt><trkpt lat="45.0654688" lon="7.6984685"><ele>227.0</ele><time>2026-04-10T06:56:56.839Z</time></trkpt><trkpt lat="45.0654033" lon="7.6983726"><ele>227.00000000000003</ele><time>2026-04-10T06:57:00.839Z</time></trkpt><trkpt lat="45.065339" lon="7.6982887"><ele>227.0</ele><time>2026-04-10T06:57:02.84Z</time></trkpt><trkpt lat="45.0652873" lon="7.6982238"><ele>227.0</ele><time>2026-04-10T06:57:04.838Z</time></trkpt><trkpt lat="45.0652475" lon="7.6981523"><ele>227.0</ele><time>2026-04-10T06:57:06.838Z</time></trkpt><trkpt lat="45.0651575" lon="7.6980417"><ele>227.00000000000003</ele><time>2026-04-10T06:57:08.84Z</time></trkpt><trkpt lat="45.0650909" lon="7.6979547"><ele>227.0</ele><time>2026-04-10T06:57:10.839Z</time></trkpt><trkpt lat="45.0650105" lon="7.6978632"><ele>226.8</ele><time>2026-04-10T06:57:12.839Z</time></trkpt><trkpt lat="45.0649377" lon="7.6977601"><ele>226.6</ele><time>2026-04-10T06:57:14.84Z</time></trkpt><trkpt lat="45.0648782" lon="7.6976588"><ele>226.40000000000003</ele><time>2026-04-10T06:57:16.839Z</time></trkpt><trkpt lat="45.0648024" lon="7.697552"><ele>226.20000000000002</ele><time>2026-04-10T06:57:18.84Z</time></trkpt><trkpt lat="45.0647376" lon="7.6974627"><ele>226.0</ele><time>2026-04-10T06:57:20.84Z</time></trkpt><trkpt lat="45.064665" lon="7.6973774"><ele>226.0</ele><time>2026-04-10T06:57:22.84Z</time></trkpt><trkpt lat="45.0645932" lon="7.6972809"><ele>226.00000000000003</ele><time>2026-04-10T06:57:24.839Z</time></trkpt><trkpt lat="45.064506" lon="7.6971762"><ele>226.00000000000003</ele><time>2026-04-10T06:57:26.84Z</time></trkpt><trkpt lat="45.0644288" lon="7.6970827"><ele>226.0</ele><time>2026-04-10T06:57:28.839Z</time></trkpt><trkpt lat="45.0643545" lon="7.6969772"><ele>226.0</ele><time>2026-04-10T06:57:30.839Z</time></trkpt><trkpt lat="45.0642864" lon="7.6968878"><ele>225.99999999999997</ele><time>2026-04-10T06:57:32.841Z</time></trkpt><trkpt lat="45.0642149" lon="7.696785"><ele>226.0</ele><time>2026-04-10T06:57:34.839Z</time></trkpt><trkpt lat="45.0641535" lon="7.6967197"><ele>226.0</ele><time>2026-04-10T06:57:36.839Z</time></trkpt><trkpt lat="45.0641075" lon="7.6966231"><ele>226.0</ele><time>2026-04-10T06:57:38.84Z</time></trkpt><trkpt lat="45.06405" lon="7.696571"><ele>225.99999999999997</ele><time>2026-04-10T06:57:41.841Z</time></trkpt><trkpt lat="45.0639815" lon="7.6966288"><ele>226.0</ele><time>2026-04-10T06:57:44.84Z</time></trkpt><trkpt lat="45.0639369" lon="7.696719"><ele>226.0</ele><time>2026-04-10T06:57:46.839Z</time></trkpt><trkpt lat="45.0638862" lon="7.6968142"><ele>226.00000000000003</ele><time>2026-04-10T06:57:48.84Z</time></trkpt><trkpt lat="45.0638232" lon="7.6969082"><ele>226.00000000000003</ele><time>2026-04-10T06:57:50.839Z</time></trkpt><trkpt lat="45.063753" lon="7.6970094"><ele>226.0</ele><time>2026-04-10T06:57:52.839Z</time></trkpt><trkpt lat="45.0636794" lon="7.6971097"><ele>226.0</ele><time>2026-04-10T06:57:54.84Z</time></trkpt><trkpt lat="45.0636142" lon="7.6972073"><ele>223.60000000000002</ele><time>2026-04-10T06:57:56.839Z</time></trkpt><trkpt lat="45.0635364" lon="7.6973007"><ele>221.20000000000002</ele><time>2026-04-10T06:57:58.839Z</time></trkpt><trkpt lat="45.0634762" lon="7.6974049"><ele>218.79999999999998</ele><time>2026-04-10T06:58:00.839Z</time></trkpt><trkpt lat="45.0634179" lon="7.6974994"><ele>216.39999999999998</ele><time>2026-04-10T06:58:02.839Z</time></trkpt><trkpt lat="45.0633564" lon="7.6975879"><ele>214.0</ele><time>2026-04-10T06:58:04.839Z</time></trkpt><trkpt lat="45.063293" lon="7.6976612"><ele>214.99999999999997</ele><time>2026-04-10T06:58:06.841Z</time></trkpt><trkpt lat="45.0632418" lon="7.6977375"><ele>216.0</ele><time>2026-04-10T06:58:08.839Z</time></trkpt><trkpt lat="45.0631837" lon="7.6978282"><ele>217.0</ele><time>2026-04-10T06:58:11.839Z</time></trkpt><trkpt lat="45.0631216" lon="7.6979165"><ele>218.0</ele><time>2026-04-10T06:58:14.838Z</time></trkpt><trkpt lat="45.0630725" lon="7.6979874"><ele>218.99999999999997</ele><time>2026-04-10T06:58:16.84Z</time></trkpt><trkpt lat="45.0630278" lon="7.6980541"><ele>220.0</ele><time>2026-04-10T06:58:18.84Z</time></trkpt><trkpt lat="45.0629708" lon="7.6981493"><ele>220.33333333333331</ele><time>2026-04-10T06:58:21.838Z</time></trkpt><trkpt lat="45.0629495" lon="7.6982436"><ele>220.66666666666666</ele><time>2026-04-10T06:59:10.839Z</time></trkpt><trkpt lat="45.0629818" lon="7.6983291"><ele>221.0</ele><time>2026-04-10T06:59:13.84Z</time></trkpt><trkpt lat="45.0630209" lon="7.698441"><ele>221.33333333333331</ele><time>2026-04-10T06:59:16.839Z</time></trkpt><trkpt lat="45.0630767" lon="7.6985338"><ele>221.66666666666666</ele><time>2026-04-10T06:59:18.839Z</time></trkpt><trkpt lat="45.0631304" lon="7.6985833"><ele>222.0</ele><time>2026-04-10T06:59:19.839Z</time></trkpt><trkpt lat="45.0631922" lon="7.6986598"><ele>222.2</ele><time>2026-04-10T06:59:21.838Z</time></trkpt><trkpt lat="45.0632668" lon="7.6987625"><ele>222.39999999999998</ele><time>2026-04-10T06:59:23.84Z</time></trkpt><trkpt lat="45.0633344" lon="7.6988687"><ele>222.60000000000002</ele><time>2026-04-10T06:59:25.839Z</time></trkpt><trkpt lat="45.0633976" lon="7.6989794"><ele>222.8</ele><time>2026-04-10T06:59:27.841Z</time></trkpt><trkpt lat="45.0634665" lon="7.6990981"><ele>223.0</ele><time>2026-04-10T06:59:29.838Z</time></trkpt><trkpt lat="45.0635417" lon="7.6992285"><ele>223.2</ele><time>2026-04-10T06:59:31.84Z</time></trkpt><trkpt lat="45.0636248" lon="7.6993369"><ele>223.4</ele><time>2026-04-10T06:59:33.838Z</time></trkpt><trkpt lat="45.0637116" lon="7.6994511"><ele>223.59999999999997</ele><time>2026-04-10T06:59:35.84Z</time></trkpt><trkpt lat="45.0637767" lon="7.699569"><ele>223.79999999999998</ele><time>2026-04-10T06:59:37.839Z</time></trkpt><trkpt lat="45.0638355" lon="7.6996779"><ele>224.0</ele><time>2026-04-10T06:59:39.84Z</time></trkpt><trkpt lat="45.0639103" lon="7.6997463"><ele>224.39999999999998</ele><time>2026-04-10T06:59:41.839Z</time></trkpt><trkpt lat="45.0639908" lon="7.6997999"><ele>224.79999999999998</ele><time>2026-04-10T06:59:43.838Z</time></trkpt><trkpt lat="45.064068" lon="7.6998648"><ele>225.20000000000002</ele><time>2026-04-10T06:59:45.839Z</time></trkpt><trkpt lat="45.0641536" lon="7.6999478"><ele>225.60000000000002</ele><time>2026-04-10T06:59:47.84Z</time></trkpt><trkpt lat="45.0642317" lon="7.7000255"><ele>226.0</ele><time>2026-04-10T06:59:49.839Z</time></trkpt><trkpt lat="45.0642671" lon="7.700133"><ele>226.4</ele><time>2026-04-10T06:59:51.839Z</time></trkpt><trkpt lat="45.0643285" lon="7.7002468"><ele>226.8</ele><time>2026-04-10T06:59:53.839Z</time></trkpt><trkpt lat="45.06437" lon="7.7003401"><ele>227.20000000000002</ele><time>2026-04-10T06:59:55.839Z</time></trkpt><trkpt lat="45.0644622" lon="7.7003826"><ele>227.60000000000002</ele><time>2026-04-10T06:59:57.838Z</time></trkpt><trkpt lat="45.0645557" lon="7.7004146"><ele>228.0</ele><time>2026-04-10T06:59:59.841Z</time></trkpt><trkpt lat="45.0646465" lon="7.7004571"><ele>228.0</ele><time>2026-04-10T07:00:01.839Z</time></trkpt><trkpt lat="45.064739" lon="7.7005007"><ele>228.0</ele><time>2026-04-10T07:00:03.839Z</time></trkpt><trkpt lat="45.0648433" lon="7.7005562"><ele>228.0</ele><time>2026-04-10T07:00:05.841Z</time></trkpt><trkpt lat="45.0649428" lon="7.7006403"><ele>228.0</ele><time>2026-04-10T07:00:07.839Z</time></trkpt><trkpt lat="45.0650279" lon="7.700754"><ele>228.0</ele><time>2026-04-10T07:00:09.839Z</time></trkpt><trkpt lat="45.0650923" lon="7.7008534"><ele>228.0</ele><time>2026-04-10T07:00:11.839Z</time></trkpt><trkpt lat="45.0651441" lon="7.7009253"><ele>228.0</ele><time>2026-04-10T07:00:14.838Z</time></trkpt><trkpt lat="45.0652143" lon="7.7008991"><ele>228.0</ele><time>2026-04-10T07:01:37.839Z</time></trkpt><trkpt lat="45.0652532" lon="7.7009974"><ele>228.0</ele><time>2026-04-10T07:01:41.84Z</time></trkpt><trkpt lat="45.0653053" lon="7.7010822"><ele>228.0</ele><time>2026-04-10T07:01:44.84Z</time></trkpt><trkpt lat="45.0653504" lon="7.7011518"><ele>228.0</ele><time>2026-04-10T07:01:46.84Z</time></trkpt><trkpt lat="45.0654098" lon="7.7012488"><ele>228.8</ele><time>2026-04-10T07:01:49.84Z</time></trkpt><trkpt lat="45.0654475" lon="7.7013269"><ele>229.60000000000002</ele><time>2026-04-10T07:01:50.84Z</time></trkpt><trkpt lat="45.0655203" lon="7.7014277"><ele>230.39999999999998</ele><time>2026-04-10T07:01:52.838Z</time></trkpt><trkpt lat="45.0655659" lon="7.7015593"><ele>231.2</ele><time>2026-04-10T07:01:54.841Z</time></trkpt><trkpt lat="45.065592" lon="7.7017073"><ele>232.0</ele><time>2026-04-10T07:01:56.839Z</time></trkpt><trkpt lat="45.0656511" lon="7.70182"><ele>231.6</ele><time>2026-04-10T07:01:58.84Z</time></trkpt><trkpt lat="45.0656998" lon="7.7019708"><ele>231.2</ele><time>2026-04-10T07:02:00.838Z</time></trkpt><trkpt lat="45.0657501" lon="7.7021195"><ele>230.8</ele><time>2026-04-10T07:02:02.84Z</time></trkpt><trkpt lat="45.065836" lon="7.7022749"><ele>230.4</ele><time>2026-04-10T07:02:04.84Z</time></trkpt><trkpt lat="45.0658701" lon="7.7023704"><ele>230.0</ele><time>2026-04-10T07:02:05.839Z</time></trkpt><trkpt lat="45.0659143" lon="7.7024468"><ele>229.6</ele><time>2026-04-10T07:02:06.838Z</time></trkpt><trkpt lat="45.0659754" lon="7.7025834"><ele>229.2</ele><time>2026-04-10T07:02:08.839Z</time></trkpt><trkpt lat="45.0660361" lon="7.7027209"><ele>228.8</ele><time>2026-04-10T07:02:10.841Z</time></trkpt><trkpt lat="45.0661006" lon="7.7028354"><ele>228.4</ele><time>2026-04-10T07:02:12.84Z</time></trkpt><trkpt lat="45.0661311" lon="7.7029182"><ele>228.0</ele><time>2026-04-10T07:02:13.84Z</time></trkpt><trkpt lat="45.0661943" lon="7.7030284"><ele>228.0</ele><time>2026-04-10T07:02:15.838Z</time></trkpt><trkpt lat="45.0662382" lon="7.7031634"><ele>228.0</ele><time>2026-04-10T07:02:17.84Z</time></trkpt><trkpt lat="45.0663" lon="7.7032945"><ele>228.0</ele><time>2026-04-10T07:02:19.84Z</time></trkpt><trkpt lat="45.0663675" lon="7.703417"><ele>228.0</ele><time>2026-04-10T07:02:21.839Z</time></trkpt><trkpt lat="45.0664311" lon="7.703546"><ele>228.0</ele><time>2026-04-10T07:02:23.839Z</time></trkpt><trkpt lat="45.0664913" lon="7.7036881"><ele>228.0</ele><time>2026-04-10T07:02:25.84Z</time></trkpt><trkpt lat="45.0665329" lon="7.7038453"><ele>228.0</ele><time>2026-04-10T07:02:27.84Z</time></trkpt><trkpt lat="45.0665953" lon="7.7039776"><ele>228.0</ele><time>2026-04-10T07:02:29.839Z</time></trkpt><trkpt lat="45.0666487" lon="7.7041102"><ele>228.0</ele><time>2026-04-10T07:02:31.841Z</time></trkpt><trkpt lat="45.0667124" lon="7.7042483"><ele>227.5</ele><time>2026-04-10T07:02:33.838Z</time></trkpt><trkpt lat="45.0667653" lon="7.7043941"><ele>227.0</ele><time>2026-04-10T07:02:35.841Z</time></trkpt><trkpt lat="45.0668218" lon="7.7045367"><ele>226.5</ele><time>2026-04-10T07:02:37.838Z</time></trkpt><trkpt lat="45.0668602" lon="7.7046836"><ele>226.0</ele><time>2026-04-10T07:02:39.839Z</time></trkpt><trkpt lat="45.0669096" lon="7.7048335"><ele>225.60000000000002</ele><time>2026-04-10T07:02:41.839Z</time></trkpt><trkpt lat="45.0669495" lon="7.7049859"><ele>225.20000000000002</ele><time>2026-04-10T07:02:43.839Z</time></trkpt><trkpt lat="45.0669933" lon="7.7051386"><ele>224.79999999999998</ele><time>2026-04-10T07:02:45.839Z</time></trkpt><trkpt lat="45.0670331" lon="7.7052984"><ele>224.39999999999998</ele><time>2026-04-10T07:02:47.839Z</time></trkpt><trkpt lat="45.0670485" lon="7.7053881"><ele>224.0</ele><time>2026-04-10T07:02:48.839Z</time></trkpt><trkpt lat="45.0670799" lon="7.7055274"><ele>224.0</ele><time>2026-04-10T07:02:50.839Z</time></trkpt><trkpt lat="45.0671245" lon="7.7056701"><ele>223.99999999999997</ele><time>2026-04-10T07:02:52.84Z</time></trkpt><trkpt lat="45.0671534" lon="7.7057524"><ele>223.99999999999997</ele><time>2026-04-10T07:02:53.838Z</time></trkpt><trkpt lat="45.0672046" lon="7.7058953"><ele>224.0</ele><time>2026-04-10T07:02:55.84Z</time></trkpt><trkpt lat="45.0672393" lon="7.706052"><ele>224.0</ele><time>2026-04-10T07:02:57.84Z</time></trkpt><trkpt lat="45.0672648" lon="7.7062035"><ele>224.6</ele><time>2026-04-10T07:02:59.839Z</time></trkpt><trkpt lat="45.0672955" lon="7.7063447"><ele>225.2</ele><time>2026-04-10T07:03:01.839Z</time></trkpt><trkpt lat="45.0673183" lon="7.7064843"><ele>225.79999999999998</ele><time>2026-04-10T07:03:03.839Z</time></trkpt><trkpt lat="45.0673448" lon="7.706613"><ele>226.39999999999998</ele><time>2026-04-10T07:03:05.838Z</time></trkpt><trkpt lat="45.0673533" lon="7.7067356"><ele>227.0</ele><time>2026-04-10T07:03:07.839Z</time></trkpt><trkpt lat="45.0673732" lon="7.7068678"><ele>226.66666666666669</ele><time>2026-04-10T07:03:09.839Z</time></trkpt><trkpt lat="45.0673759" lon="7.7069892"><ele>226.33333333333334</ele><time>2026-04-10T07:03:11.84Z</time></trkpt><trkpt lat="45.0674009" lon="7.707097"><ele>226.0</ele><time>2026-04-10T07:03:13.84Z</time></trkpt><trkpt lat="45.0674275" lon="7.7071894"><ele>225.66666666666669</ele><time>2026-04-10T07:03:15.839Z</time></trkpt><trkpt lat="45.0674552" lon="7.7072868"><ele>225.33333333333334</ele><time>2026-04-10T07:03:18.84Z</time></trkpt><trkpt lat="45.0675089" lon="7.7074013"><ele>225.0</ele><time>2026-04-10T07:03:21.84Z</time></trkpt><trkpt lat="45.0675399" lon="7.7075293"><ele>224.16666666666666</ele><time>2026-04-10T07:03:23.838Z</time></trkpt><trkpt lat="45.0675715" lon="7.7076567"><ele>223.33333333333331</ele><time>2026-04-10T07:03:25.839Z</time></trkpt><trkpt lat="45.0676305" lon="7.7078124"><ele>222.5</ele><time>2026-04-10T07:03:27.841Z</time></trkpt><trkpt lat="45.0676611" lon="7.7079048"><ele>221.66666666666666</ele><time>2026-04-10T07:03:28.839Z</time></trkpt><trkpt lat="45.0676926" lon="7.7080114"><ele>220.83333333333331</ele><time>2026-04-10T07:03:29.839Z</time></trkpt><trkpt lat="45.0677178" lon="7.7080988"><ele>220.0</ele><time>2026-04-10T07:03:30.839Z</time></trkpt><trkpt lat="45.067737" lon="7.7081926"><ele>219.83333333333331</ele><time>2026-04-10T07:03:31.839Z</time></trkpt><trkpt lat="45.0677622" lon="7.7082792"><ele>219.66666666666666</ele><time>2026-04-10T07:03:32.839Z</time></trkpt><trkpt lat="45.0677871" lon="7.7083646"><ele>219.5</ele><time>2026-04-10T07:03:33.839Z</time></trkpt><trkpt lat="45.0678206" lon="7.7084529"><ele>219.33333333333331</ele><time>2026-04-10T07:03:34.841Z</time></trkpt><trkpt lat="45.0678497" lon="7.7085347"><ele>219.16666666666666</ele><time>2026-04-10T07:03:35.841Z</time></trkpt><trkpt lat="45.0679002" lon="7.7086878"><ele>219.0</ele><time>2026-04-10T07:03:37.839Z</time></trkpt><trkpt lat="45.0679381" lon="7.7088301"><ele>219.33333333333334</ele><time>2026-04-10T07:03:39.841Z</time></trkpt><trkpt lat="45.0679571" lon="7.7089161"><ele>219.66666666666669</ele><time>2026-04-10T07:03:40.839Z</time></trkpt><trkpt lat="45.067942" lon="7.709039"><ele>220.0</ele><time>2026-04-10T07:03:42.841Z</time></trkpt><trkpt lat="45.067962" lon="7.7091463"><ele>220.33333333333334</ele><time>2026-04-10T07:03:44.841Z</time></trkpt><trkpt lat="45.0679729" lon="7.7092893"><ele>220.66666666666669</ele><time>2026-04-10T07:03:46.84Z</time></trkpt><trkpt lat="45.0679743" lon="7.7093968"><ele>221.0</ele><time>2026-04-10T07:03:48.841Z</time></trkpt><trkpt lat="45.0679825" lon="7.7094917"><ele>221.16666666666669</ele><time>2026-04-10T07:03:51.839Z</time></trkpt><trkpt lat="45.0680069" lon="7.7096017"><ele>221.33333333333334</ele><time>2026-04-10T07:03:53.838Z</time></trkpt><trkpt lat="45.0680181" lon="7.7096985"><ele>221.5</ele><time>2026-04-10T07:03:55.838Z</time></trkpt><trkpt lat="45.0680325" lon="7.7098146"><ele>221.66666666666669</ele><time>2026-04-10T07:03:57.839Z</time></trkpt><trkpt lat="45.0680503" lon="7.7099637"><ele>221.83333333333334</ele><time>2026-04-10T07:03:59.841Z</time></trkpt><trkpt lat="45.0680472" lon="7.7100822"><ele>222.0</ele><time>2026-04-10T07:04:01.84Z</time></trkpt><trkpt lat="45.0680599" lon="7.7101901"><ele>222.39999999999998</ele><time>2026-04-10T07:04:03.84Z</time></trkpt><trkpt lat="45.0680907" lon="7.7103424"><ele>222.79999999999998</ele><time>2026-04-10T07:04:05.841Z</time></trkpt><trkpt lat="45.0681154" lon="7.7104478"><ele>223.2</ele><time>2026-04-10T07:04:07.839Z</time></trkpt><trkpt lat="45.0681551" lon="7.7105851"><ele>223.6</ele><time>2026-04-10T07:04:09.841Z</time></trkpt><trkpt lat="45.0681772" lon="7.710715"><ele>224.0</ele><time>2026-04-10T07:04:11.84Z</time></trkpt><trkpt lat="45.0682173" lon="7.7108598"><ele>224.0</ele><time>2026-04-10T07:04:13.84Z</time></trkpt><trkpt lat="45.0682468" lon="7.7109533"><ele>223.99999999999997</ele><time>2026-04-10T07:04:15.839Z</time></trkpt><trkpt lat="45.0682962" lon="7.7110796"><ele>223.99999999999997</ele><time>2026-04-10T07:04:17.841Z</time></trkpt><trkpt lat="45.0683351" lon="7.7112234"><ele>224.0</ele><time>2026-04-10T07:04:19.84Z</time></trkpt><trkpt lat="45.0683701" lon="7.7113262"><ele>224.0</ele><time>2026-04-10T07:04:21.839Z</time></trkpt><trkpt lat="45.0684015" lon="7.7114955"><ele>223.79999999999998</ele><time>2026-04-10T07:04:23.839Z</time></trkpt><trkpt lat="45.0684474" lon="7.711646"><ele>223.59999999999997</ele><time>2026-04-10T07:04:25.84Z</time></trkpt><trkpt lat="45.0684595" lon="7.7117688"><ele>223.4</ele><time>2026-04-10T07:04:27.84Z</time></trkpt><trkpt lat="45.068476" lon="7.7118687"><ele>223.2</ele><time>2026-04-10T07:04:29.84Z</time></trkpt><trkpt lat="45.0685022" lon="7.7120165"><ele>223.0</ele><time>2026-04-10T07:04:31.84Z</time></trkpt><trkpt lat="45.0685326" lon="7.7121255"><ele>222.8</ele><time>2026-04-10T07:04:33.84Z</time></trkpt><trkpt lat="45.0685552" lon="7.7122444"><ele>222.60000000000002</ele><time>2026-04-10T07:04:35.839Z</time></trkpt><trkpt lat="45.0685869" lon="7.712396"><ele>222.39999999999998</ele><time>2026-04-10T07:04:37.84Z</time></trkpt><trkpt lat="45.0686085" lon="7.712541"><ele>222.2</ele><time>2026-04-10T07:04:39.839Z</time></trkpt><trkpt lat="45.0686159" lon="7.7126942"><ele>222.0</ele><time>2026-04-10T07:04:41.841Z</time></trkpt><trkpt lat="45.0686253" lon="7.7127832"><ele>222.0</ele><time>2026-04-10T07:04:42.839Z</time></trkpt><trkpt lat="45.0686445" lon="7.7129228"><ele>222.0</ele><time>2026-04-10T07:04:44.841Z</time></trkpt><trkpt lat="45.0686556" lon="7.7130559"><ele>222.0</ele><time>2026-04-10T07:04:46.839Z</time></trkpt><trkpt lat="45.0686631" lon="7.7131945"><ele>222.0</ele><time>2026-04-10T07:04:48.839Z</time></trkpt><trkpt lat="45.0686796" lon="7.7133419"><ele>222.0</ele><time>2026-04-10T07:04:50.838Z</time></trkpt><trkpt lat="45.0686988" lon="7.7134837"><ele>222.0</ele><time>2026-04-10T07:04:52.84Z</time></trkpt><trkpt lat="45.0687234" lon="7.713638"><ele>222.0</ele><time>2026-04-10T07:04:54.84Z</time></trkpt><trkpt lat="45.0687386" lon="7.7137858"><ele>222.0</ele><time>2026-04-10T07:04:56.841Z</time></trkpt><trkpt lat="45.0687292" lon="7.7139631"><ele>222.0</ele><time>2026-04-10T07:04:58.84Z</time></trkpt><trkpt lat="45.0687484" lon="7.7141219"><ele>222.0</ele><time>2026-04-10T07:05:00.838Z</time></trkpt><trkpt lat="45.0687703" lon="7.7142911"><ele>222.0</ele><time>2026-04-10T07:05:02.841Z</time></trkpt><trkpt lat="45.0687825" lon="7.7144615"><ele>222.0</ele><time>2026-04-10T07:05:04.839Z</time></trkpt><trkpt lat="45.0688093" lon="7.7146154"><ele>222.0</ele><time>2026-04-10T07:05:06.84Z</time></trkpt><trkpt lat="45.068836" lon="7.7147597"><ele>222.2</ele><time>2026-04-10T07:05:08.839Z</time></trkpt><trkpt lat="45.0688522" lon="7.7149088"><ele>222.39999999999998</ele><time>2026-04-10T07:05:10.84Z</time></trkpt><trkpt lat="45.0688637" lon="7.7150647"><ele>222.60000000000002</ele><time>2026-04-10T07:05:12.839Z</time></trkpt><trkpt lat="45.0688702" lon="7.7152274"><ele>222.8</ele><time>2026-04-10T07:05:14.838Z</time></trkpt><trkpt lat="45.0688949" lon="7.7153794"><ele>223.0</ele><time>2026-04-10T07:05:16.84Z</time></trkpt><trkpt lat="45.0689135" lon="7.7155291"><ele>223.25</ele><time>2026-04-10T07:05:18.839Z</time></trkpt><trkpt lat="45.0689198" lon="7.7156875"><ele>223.5</ele><time>2026-04-10T07:05:20.841Z</time></trkpt><trkpt lat="45.0689388" lon="7.7158508"><ele>223.75</ele><time>2026-04-10T07:05:22.839Z</time></trkpt><trkpt lat="45.0689596" lon="7.7160146"><ele>224.0</ele><time>2026-04-10T07:05:24.839Z</time></trkpt><trkpt lat="45.0689816" lon="7.7161681"><ele>223.5</ele><time>2026-04-10T07:05:26.841Z</time></trkpt><trkpt lat="45.0690099" lon="7.7163243"><ele>223.0</ele><time>2026-04-10T07:05:28.84Z</time></trkpt><trkpt lat="45.0690319" lon="7.7165001"><ele>222.5</ele><time>2026-04-10T07:05:30.84Z</time></trkpt><trkpt lat="45.069064" lon="7.7166572"><ele>222.0</ele><time>2026-04-10T07:05:32.84Z</time></trkpt><trkpt lat="45.0690766" lon="7.7168181"><ele>222.0</ele><time>2026-04-10T07:05:34.841Z</time></trkpt><trkpt lat="45.0690916" lon="7.716971"><ele>222.0</ele><time>2026-04-10T07:05:36.839Z</time></trkpt><trkpt lat="45.0691158" lon="7.7171257"><ele>222.0</ele><time>2026-04-10T07:05:38.839Z</time></trkpt><trkpt lat="45.0691414" lon="7.717277"><ele>222.0</ele><time>2026-04-10T07:05:40.839Z</time></trkpt><trkpt lat="45.0691663" lon="7.7174377"><ele>222.0</ele><time>2026-04-10T07:05:42.841Z</time></trkpt><trkpt lat="45.0691891" lon="7.7176237"><ele>222.39999999999998</ele><time>2026-04-10T07:05:44.839Z</time></trkpt><trkpt lat="45.0692115" lon="7.7177766"><ele>222.79999999999998</ele><time>2026-04-10T07:05:46.839Z</time></trkpt><trkpt lat="45.0692207" lon="7.7179188"><ele>223.2</ele><time>2026-04-10T07:05:48.84Z</time></trkpt><trkpt lat="45.0692507" lon="7.7180813"><ele>223.6</ele><time>2026-04-10T07:05:50.84Z</time></trkpt><trkpt lat="45.0692658" lon="7.7182308"><ele>224.0</ele><time>2026-04-10T07:05:52.839Z</time></trkpt><trkpt lat="45.0692831" lon="7.7183894"><ele>224.0</ele><time>2026-04-10T07:05:54.84Z</time></trkpt><trkpt lat="45.0693067" lon="7.7185428"><ele>223.99999999999997</ele><time>2026-04-10T07:05:56.84Z</time></trkpt><trkpt lat="45.0693315" lon="7.7186976"><ele>223.99999999999997</ele><time>2026-04-10T07:05:58.84Z</time></trkpt><trkpt lat="45.0693422" lon="7.7188499"><ele>224.0</ele><time>2026-04-10T07:06:00.839Z</time></trkpt><trkpt lat="45.0693624" lon="7.7189912"><ele>224.0</ele><time>2026-04-10T07:06:02.84Z</time></trkpt><trkpt lat="45.0693918" lon="7.7191324"><ele>223.66666666666669</ele><time>2026-04-10T07:06:04.84Z</time></trkpt><trkpt lat="45.0694076" lon="7.7192924"><ele>223.33333333333334</ele><time>2026-04-10T07:06:06.84Z</time></trkpt><trkpt lat="45.0694002" lon="7.719385"><ele>223.0</ele><time>2026-04-10T07:06:07.839Z</time></trkpt><trkpt lat="45.0694115" lon="7.7195208"><ele>222.66666666666669</ele><time>2026-04-10T07:06:09.84Z</time></trkpt><trkpt lat="45.0694191" lon="7.7196266"><ele>222.33333333333334</ele><time>2026-04-10T07:06:11.839Z</time></trkpt><trkpt lat="45.0694478" lon="7.7197295"><ele>222.0</ele><time>2026-04-10T07:06:14.84Z</time></trkpt><trkpt lat="45.0694244" lon="7.7198948"><ele>222.0</ele><time>2026-04-10T07:06:16.84Z</time></trkpt><trkpt lat="45.0694353" lon="7.7200234"><ele>222.0</ele><time>2026-04-10T07:06:18.838Z</time></trkpt><trkpt lat="45.0694555" lon="7.7201545"><ele>222.0</ele><time>2026-04-10T07:06:20.839Z</time></trkpt><trkpt lat="45.0695051" lon="7.720311"><ele>222.0</ele><time>2026-04-10T07:06:23.839Z</time></trkpt><trkpt lat="45.0695127" lon="7.7204172"><ele>222.0</ele><time>2026-04-10T07:06:25.839Z</time></trkpt><trkpt lat="45.069546" lon="7.7205353"><ele>221.75</ele><time>2026-04-10T07:06:27.839Z</time></trkpt><trkpt lat="45.0695757" lon="7.7207468"><ele>221.5</ele><time>2026-04-10T07:06:30.839Z</time></trkpt><trkpt lat="45.0695853" lon="7.7208946"><ele>221.25</ele><time>2026-04-10T07:06:32.839Z</time></trkpt><trkpt lat="45.0696133" lon="7.7210225"><ele>221.0</ele><time>2026-04-10T07:06:34.838Z</time></trkpt><trkpt lat="45.0696358" lon="7.7211788"><ele>220.8</ele><time>2026-04-10T07:06:36.84Z</time></trkpt><trkpt lat="45.0696444" lon="7.7213431"><ele>220.60000000000002</ele><time>2026-04-10T07:06:38.838Z</time></trkpt><trkpt lat="45.0696588" lon="7.7214855"><ele>220.4</ele><time>2026-04-10T07:06:40.84Z</time></trkpt><trkpt lat="45.0696908" lon="7.7216123"><ele>220.2</ele><time>2026-04-10T07:06:42.84Z</time></trkpt><trkpt lat="45.0697071" lon="7.7216984"><ele>220.0</ele><time>2026-04-10T07:06:43.839Z</time></trkpt><trkpt lat="45.0697457" lon="7.7218419"><ele>219.8</ele><time>2026-04-10T07:06:45.84Z</time></trkpt><trkpt lat="45.069779" lon="7.7219843"><ele>219.6</ele><time>2026-04-10T07:06:47.84Z</time></trkpt><trkpt lat="45.0697933" lon="7.7221329"><ele>219.39999999999998</ele><time>2026-04-10T07:06:49.841Z</time></trkpt><trkpt lat="45.0698357" lon="7.7222824"><ele>219.2</ele><time>2026-04-10T07:06:51.839Z</time></trkpt><trkpt lat="45.0698745" lon="7.7224254"><ele>219.0</ele><time>2026-04-10T07:06:53.84Z</time></trkpt><trkpt lat="45.0699125" lon="7.722569"><ele>219.2</ele><time>2026-04-10T07:06:55.841Z</time></trkpt><trkpt lat="45.0699589" lon="7.7227203"><ele>219.39999999999998</ele><time>2026-04-10T07:06:57.84Z</time></trkpt><trkpt lat="45.0699982" lon="7.7228669"><ele>219.6</ele><time>2026-04-10T07:06:59.839Z</time></trkpt><trkpt lat="45.0700308" lon="7.7230026"><ele>219.8</ele><time>2026-04-10T07:07:01.841Z</time></trkpt><trkpt lat="45.0700738" lon="7.7231293"><ele>220.0</ele><time>2026-04-10T07:07:03.841Z</time></trkpt><trkpt lat="45.0701144" lon="7.7232581"><ele>219.8</ele><time>2026-04-10T07:07:05.839Z</time></trkpt><trkpt lat="45.0701449" lon="7.7234079"><ele>219.6</ele><time>2026-04-10T07:07:07.839Z</time></trkpt><trkpt lat="45.0701977" lon="7.7235508"><ele>219.39999999999998</ele><time>2026-04-10T07:07:09.84Z</time></trkpt><trkpt lat="45.0702168" lon="7.723641"><ele>219.2</ele><time>2026-04-10T07:07:10.839Z</time></trkpt><trkpt lat="45.0702572" lon="7.7237861"><ele>219.0</ele><time>2026-04-10T07:07:12.839Z</time></trkpt><trkpt lat="45.0702989" lon="7.7239107"><ele>219.0</ele><time>2026-04-10T07:07:14.84Z</time></trkpt><trkpt lat="45.0703323" lon="7.7240654"><ele>219.0</ele><time>2026-04-10T07:07:16.84Z</time></trkpt><trkpt lat="45.0703885" lon="7.7242025"><ele>219.0</ele><time>2026-04-10T07:07:18.838Z</time></trkpt><trkpt lat="45.070453" lon="7.7243505"><ele>219.0</ele><time>2026-04-10T07:07:20.84Z</time></trkpt><trkpt lat="45.0705281" lon="7.7244862"><ele>219.0</ele><time>2026-04-10T07:07:22.839Z</time></trkpt><trkpt lat="45.0705745" lon="7.7245556"><ele>219.0</ele><time>2026-04-10T07:07:23.839Z</time></trkpt><trkpt lat="45.0706172" lon="7.7246269"><ele>219.0</ele><time>2026-04-10T07:07:24.84Z</time></trkpt><trkpt lat="45.0707105" lon="7.7247331"><ele>219.0</ele><time>2026-04-10T07:07:26.84Z</time></trkpt><trkpt lat="45.0707645" lon="7.7248018"><ele>219.0</ele><time>2026-04-10T07:07:27.839Z</time></trkpt><trkpt lat="45.0708161" lon="7.7248837"><ele>219.0</ele><time>2026-04-10T07:07:28.84Z</time></trkpt><trkpt lat="45.0708581" lon="7.7249546"><ele>218.71428571428572</ele><time>2026-04-10T07:07:29.84Z</time></trkpt><trkpt lat="45.0708897" lon="7.7250336"><ele>218.42857142857142</ele><time>2026-04-10T07:07:30.841Z</time></trkpt><trkpt lat="45.0709368" lon="7.7250937"><ele>218.14285714285714</ele><time>2026-04-10T07:07:31.84Z</time></trkpt><trkpt lat="45.0709842" lon="7.7251629"><ele>217.85714285714286</ele><time>2026-04-10T07:07:32.839Z</time></trkpt><trkpt lat="45.0710666" lon="7.7252585"><ele>217.57142857142856</ele><time>2026-04-10T07:07:34.84Z</time></trkpt><trkpt lat="45.0711103" lon="7.7253269"><ele>217.28571428571428</ele><time>2026-04-10T07:07:35.841Z</time></trkpt><trkpt lat="45.0711558" lon="7.7253908"><ele>217.0</ele><time>2026-04-10T07:07:36.839Z</time></trkpt><trkpt lat="45.0711976" lon="7.7254653"><ele>217.0</ele><time>2026-04-10T07:07:37.84Z</time></trkpt><trkpt lat="45.0712578" lon="7.7255821"><ele>217.0</ele><time>2026-04-10T07:07:39.839Z</time></trkpt><trkpt lat="45.0713457" lon="7.7257107"><ele>217.0</ele><time>2026-04-10T07:07:41.839Z</time></trkpt><trkpt lat="45.0714154" lon="7.7258205"><ele>217.0</ele><time>2026-04-10T07:07:43.839Z</time></trkpt><trkpt lat="45.0714694" lon="7.7259812"><ele>217.0</ele><time>2026-04-10T07:07:45.841Z</time></trkpt><trkpt lat="45.0715099" lon="7.7260591"><ele>217.0</ele><time>2026-04-10T07:07:46.84Z</time></trkpt><trkpt lat="45.0715475" lon="7.7261319"><ele>217.0</ele><time>2026-04-10T07:07:47.839Z</time></trkpt><trkpt lat="45.0716194" lon="7.7262787"><ele>217.0</ele><time>2026-04-10T07:07:49.84Z</time></trkpt><trkpt lat="45.0717127" lon="7.7264091"><ele>217.0</ele><time>2026-04-10T07:07:51.839Z</time></trkpt><trkpt lat="45.0717684" lon="7.7265164"><ele>217.8</ele><time>2026-04-10T07:07:53.839Z</time></trkpt><trkpt lat="45.0718305" lon="7.7266539"><ele>218.6</ele><time>2026-04-10T07:07:55.84Z</time></trkpt><trkpt lat="45.0718935" lon="7.7267693"><ele>219.40000000000003</ele><time>2026-04-10T07:07:57.84Z</time></trkpt><trkpt lat="45.0719686" lon="7.7269074"><ele>220.20000000000002</ele><time>2026-04-10T07:07:59.841Z</time></trkpt><trkpt lat="45.0720332" lon="7.726987"><ele>221.0</ele><time>2026-04-10T07:08:00.839Z</time></trkpt><trkpt lat="45.0721741" lon="7.7271349"><ele>221.0</ele><time>2026-04-10T07:08:03.84Z</time></trkpt><trkpt lat="45.0722209" lon="7.7272005"><ele>221.00000000000003</ele><time>2026-04-10T07:08:04.839Z</time></trkpt><trkpt lat="45.0723147" lon="7.727314"><ele>221.00000000000003</ele><time>2026-04-10T07:08:06.84Z</time></trkpt><trkpt lat="45.0723736" lon="7.7273764"><ele>221.0</ele><time>2026-04-10T07:08:07.839Z</time></trkpt><trkpt lat="45.0724615" lon="7.7274951"><ele>221.0</ele><time>2026-04-10T07:08:09.838Z</time></trkpt><trkpt lat="45.0725193" lon="7.7275594"><ele>221.0</ele><time>2026-04-10T07:08:10.84Z</time></trkpt><trkpt lat="45.07262" lon="7.7276815"><ele>221.0</ele><time>2026-04-10T07:08:12.841Z</time></trkpt><trkpt lat="45.0726819" lon="7.7277599"><ele>221.0</ele><time>2026-04-10T07:08:13.84Z</time></trkpt><trkpt lat="45.0727895" lon="7.7278323"><ele>221.0</ele><time>2026-04-10T07:08:15.84Z</time></trkpt><trkpt lat="45.0728917" lon="7.7279446"><ele>221.20000000000002</ele><time>2026-04-10T07:08:17.839Z</time></trkpt><trkpt lat="45.0729566" lon="7.7279554"><ele>221.40000000000003</ele><time>2026-04-10T07:08:18.841Z</time></trkpt><trkpt lat="45.0730495" lon="7.7280075"><ele>221.6</ele><time>2026-04-10T07:08:20.84Z</time></trkpt><trkpt lat="45.0731686" lon="7.7280686"><ele>221.8</ele><time>2026-04-10T07:08:22.841Z</time></trkpt><trkpt lat="45.0732629" lon="7.7281277"><ele>222.0</ele><time>2026-04-10T07:08:24.84Z</time></trkpt><trkpt lat="45.0733236" lon="7.7281624"><ele>220.83333333333334</ele><time>2026-04-10T07:08:25.84Z</time></trkpt><trkpt lat="45.0733812" lon="7.7281993"><ele>219.66666666666669</ele><time>2026-04-10T07:08:26.84Z</time></trkpt><trkpt lat="45.0734392" lon="7.7282527"><ele>218.5</ele><time>2026-04-10T07:08:27.839Z</time></trkpt><trkpt lat="45.0735116" lon="7.7283099"><ele>217.33333333333334</ele><time>2026-04-10T07:08:28.84Z</time></trkpt><trkpt lat="45.0736217" lon="7.7283815"><ele>216.16666666666669</ele><time>2026-04-10T07:08:30.841Z</time></trkpt><trkpt lat="45.0736994" lon="7.7284193"><ele>215.0</ele><time>2026-04-10T07:08:31.839Z</time></trkpt><trkpt lat="45.0737799" lon="7.7284538"><ele>215.00000000000003</ele><time>2026-04-10T07:08:32.84Z</time></trkpt><trkpt lat="45.0738799" lon="7.7285069"><ele>215.0</ele><time>2026-04-10T07:08:34.839Z</time></trkpt><trkpt lat="45.0739436" lon="7.7285524"><ele>215.0</ele><time>2026-04-10T07:08:35.839Z</time></trkpt><trkpt lat="45.0740465" lon="7.7286059"><ele>215.0</ele><time>2026-04-10T07:08:37.84Z</time></trkpt><trkpt lat="45.0741099" lon="7.72863"><ele>215.00000000000003</ele><time>2026-04-10T07:08:38.84Z</time></trkpt><trkpt lat="45.0741719" lon="7.7286673"><ele>215.0</ele><time>2026-04-10T07:08:39.839Z</time></trkpt><trkpt lat="45.074261" lon="7.7287368"><ele>216.2</ele><time>2026-04-10T07:08:41.839Z</time></trkpt><trkpt lat="45.0743539" lon="7.7287853"><ele>217.4</ele><time>2026-04-10T07:08:43.84Z</time></trkpt><trkpt lat="45.0744416" lon="7.7288138"><ele>218.60000000000002</ele><time>2026-04-10T07:08:45.839Z</time></trkpt><trkpt lat="45.0745113" lon="7.7288325"><ele>219.8</ele><time>2026-04-10T07:08:47.84Z</time></trkpt><trkpt lat="45.0746122" lon="7.7288473"><ele>221.0</ele><time>2026-04-10T07:08:49.84Z</time></trkpt><trkpt lat="45.074716" lon="7.7288569"><ele>221.0</ele><time>2026-04-10T07:08:51.84Z</time></trkpt><trkpt lat="45.0748167" lon="7.7288738"><ele>221.00000000000003</ele><time>2026-04-10T07:08:53.839Z</time></trkpt><trkpt lat="45.074915" lon="7.7288693"><ele>221.00000000000003</ele><time>2026-04-10T07:08:54.841Z</time></trkpt><trkpt lat="45.0750059" lon="7.7288595"><ele>221.0</ele><time>2026-04-10T07:08:56.84Z</time></trkpt><trkpt lat="45.0750965" lon="7.7288759"><ele>221.0</ele><time>2026-04-10T07:08:58.841Z</time></trkpt><trkpt lat="45.0752119" lon="7.7288753"><ele>220.50000000000003</ele><time>2026-04-10T07:09:00.839Z</time></trkpt><trkpt lat="45.0753062" lon="7.7288932"><ele>220.0</ele><time>2026-04-10T07:09:02.839Z</time></trkpt><trkpt lat="45.0753769" lon="7.7288918"><ele>219.5</ele><time>2026-04-10T07:09:08.84Z</time></trkpt><trkpt lat="45.075444" lon="7.7288917"><ele>219.0</ele><time>2026-04-10T07:09:09.84Z</time></trkpt><trkpt lat="45.0755142" lon="7.7288856"><ele>218.50000000000003</ele><time>2026-04-10T07:09:10.839Z</time></trkpt><trkpt lat="45.0756223" lon="7.7288547"><ele>218.0</ele><time>2026-04-10T07:09:11.839Z</time></trkpt><trkpt lat="45.0756939" lon="7.7288431"><ele>217.83333333333334</ele><time>2026-04-10T07:09:12.84Z</time></trkpt><trkpt lat="45.0757974" lon="7.7288416"><ele>217.66666666666669</ele><time>2026-04-10T07:09:14.839Z</time></trkpt><trkpt lat="45.0758679" lon="7.7288483"><ele>217.5</ele><time>2026-04-10T07:09:15.84Z</time></trkpt><trkpt lat="45.0759407" lon="7.7288362"><ele>217.33333333333331</ele><time>2026-04-10T07:09:16.841Z</time></trkpt><trkpt lat="45.0760508" lon="7.7288199"><ele>217.16666666666666</ele><time>2026-04-10T07:09:18.84Z</time></trkpt><trkpt lat="45.0761353" lon="7.7288282"><ele>217.0</ele><time>2026-04-10T07:09:20.84Z</time></trkpt><trkpt lat="45.0762554" lon="7.7287959"><ele>217.0</ele><time>2026-04-10T07:09:22.839Z</time></trkpt><trkpt lat="45.0763766" lon="7.728775"><ele>217.0</ele><time>2026-04-10T07:09:24.839Z</time></trkpt><trkpt lat="45.0764921" lon="7.7287932"><ele>217.0</ele><time>2026-04-10T07:09:26.839Z</time></trkpt><trkpt lat="45.076555" lon="7.7288007"><ele>217.0</ele><time>2026-04-10T07:09:27.84Z</time></trkpt><trkpt lat="45.076626" lon="7.7288006"><ele>217.0</ele><time>2026-04-10T07:09:28.84Z</time></trkpt><trkpt lat="45.0767352" lon="7.7287815"><ele>217.0</ele><time>2026-04-10T07:09:30.84Z</time></trkpt><trkpt lat="45.076785" lon="7.7287173"><ele>217.0</ele><time>2026-04-10T07:09:31.839Z</time></trkpt><trkpt lat="45.0768517" lon="7.7286114"><ele>217.0</ele><time>2026-04-10T07:09:33.839Z</time></trkpt><trkpt lat="45.0769579" lon="7.7285249"><ele>217.0</ele><time>2026-04-10T07:09:35.839Z</time></trkpt><trkpt lat="45.07702" lon="7.7284546"><ele>217.0</ele><time>2026-04-10T07:09:36.839Z</time></trkpt><trkpt lat="45.0771221" lon="7.7283567"><ele>216.6</ele><time>2026-04-10T07:09:38.839Z</time></trkpt><trkpt lat="45.077212" lon="7.7282643"><ele>216.2</ele><time>2026-04-10T07:09:40.84Z</time></trkpt><trkpt lat="45.0773022" lon="7.7281768"><ele>215.8</ele><time>2026-04-10T07:09:42.84Z</time></trkpt><trkpt lat="45.0773876" lon="7.7280978"><ele>215.4</ele><time>2026-04-10T07:09:44.84Z</time></trkpt><trkpt lat="45.0774466" lon="7.7280528"><ele>215.0</ele><time>2026-04-10T07:09:45.84Z</time></trkpt><trkpt lat="45.0775415" lon="7.7279289"><ele>215.0</ele><time>2026-04-10T07:09:47.84Z</time></trkpt><trkpt lat="45.0776255" lon="7.7278177"><ele>215.0</ele><time>2026-04-10T07:09:49.839Z</time></trkpt><trkpt lat="45.0777044" lon="7.7277223"><ele>215.0</ele><time>2026-04-10T07:09:51.84Z</time></trkpt><trkpt lat="45.0778161" lon="7.7276065"><ele>215.0</ele><time>2026-04-10T07:09:53.84Z</time></trkpt><trkpt lat="45.0779042" lon="7.7275182"><ele>214.83333333333334</ele><time>2026-04-10T07:09:55.84Z</time></trkpt><trkpt lat="45.0779543" lon="7.7274568"><ele>214.66666666666669</ele><time>2026-04-10T07:09:56.839Z</time></trkpt><trkpt lat="45.0780027" lon="7.7273965"><ele>214.5</ele><time>2026-04-10T07:09:57.84Z</time></trkpt><trkpt lat="45.078086" lon="7.7273032"><ele>214.33333333333331</ele><time>2026-04-10T07:09:59.84Z</time></trkpt><trkpt lat="45.0781358" lon="7.7272393"><ele>214.16666666666666</ele><time>2026-04-10T07:10:00.839Z</time></trkpt><trkpt lat="45.0782171" lon="7.7271429"><ele>214.0</ele><time>2026-04-10T07:10:02.84Z</time></trkpt><trkpt lat="45.0783087" lon="7.727053"><ele>214.0</ele><time>2026-04-10T07:10:04.84Z</time></trkpt><trkpt lat="45.0784152" lon="7.7269574"><ele>214.0</ele><time>2026-04-10T07:10:06.841Z</time></trkpt><trkpt lat="45.0785187" lon="7.7268616"><ele>214.0</ele><time>2026-04-10T07:10:08.839Z</time></trkpt><trkpt lat="45.0785947" lon="7.7267534"><ele>214.0</ele><time>2026-04-10T07:10:10.84Z</time></trkpt><trkpt lat="45.0786919" lon="7.7266693"><ele>213.6</ele><time>2026-04-10T07:10:12.839Z</time></trkpt><trkpt lat="45.0787846" lon="7.7265762"><ele>213.2</ele><time>2026-04-10T07:10:14.839Z</time></trkpt><trkpt lat="45.0788665" lon="7.7265001"><ele>212.79999999999998</ele><time>2026-04-10T07:10:16.839Z</time></trkpt><trkpt lat="45.0789206" lon="7.7264511"><ele>212.39999999999998</ele><time>2026-04-10T07:10:17.84Z</time></trkpt><trkpt lat="45.0790148" lon="7.726359"><ele>212.0</ele><time>2026-04-10T07:10:19.84Z</time></trkpt><trkpt lat="45.0790899" lon="7.7262624"><ele>212.6</ele><time>2026-04-10T07:10:21.84Z</time></trkpt><trkpt lat="45.0791878" lon="7.7261881"><ele>213.2</ele><time>2026-04-10T07:10:23.841Z</time></trkpt><trkpt lat="45.0792817" lon="7.7261195"><ele>213.8</ele><time>2026-04-10T07:10:25.84Z</time></trkpt><trkpt lat="45.0793842" lon="7.7260472"><ele>214.4</ele><time>2026-04-10T07:10:27.839Z</time></trkpt><trkpt lat="45.079475" lon="7.7259797"><ele>215.0</ele><time>2026-04-10T07:10:29.841Z</time></trkpt><trkpt lat="45.0795529" lon="7.7258977"><ele>215.4</ele><time>2026-04-10T07:10:31.839Z</time></trkpt><trkpt lat="45.0796311" lon="7.7258351"><ele>215.8</ele><time>2026-04-10T07:10:33.839Z</time></trkpt><trkpt lat="45.07971" lon="7.725758"><ele>216.2</ele><time>2026-04-10T07:10:35.84Z</time></trkpt><trkpt lat="45.0798076" lon="7.7256762"><ele>216.6</ele><time>2026-04-10T07:10:37.839Z</time></trkpt><trkpt lat="45.0798642" lon="7.7256359"><ele>217.0</ele><time>2026-04-10T07:10:38.84Z</time></trkpt><trkpt lat="45.0799684" lon="7.7256069"><ele>216.2</ele><time>2026-04-10T07:10:40.841Z</time></trkpt><trkpt lat="45.080065" lon="7.7255743"><ele>215.39999999999998</ele><time>2026-04-10T07:10:42.839Z</time></trkpt><trkpt lat="45.0801613" lon="7.725502"><ele>214.60000000000002</ele><time>2026-04-10T07:10:44.84Z</time></trkpt><trkpt lat="45.0802494" lon="7.7254043"><ele>213.8</ele><time>2026-04-10T07:10:46.839Z</time></trkpt><trkpt lat="45.0803535" lon="7.7253403"><ele>213.0</ele><time>2026-04-10T07:10:48.84Z</time></trkpt><trkpt lat="45.0804601" lon="7.7252808"><ele>213.0</ele><time>2026-04-10T07:10:50.839Z</time></trkpt><trkpt lat="45.0805628" lon="7.7252386"><ele>213.0</ele><time>2026-04-10T07:10:52.839Z</time></trkpt><trkpt lat="45.0806301" lon="7.7252102"><ele>213.0</ele><time>2026-04-10T07:10:53.839Z</time></trkpt><trkpt lat="45.0807424" lon="7.7251362"><ele>213.0</ele><time>2026-04-10T07:10:55.839Z</time></trkpt><trkpt lat="45.0808524" lon="7.7250643"><ele>213.0</ele><time>2026-04-10T07:10:57.84Z</time></trkpt><trkpt lat="45.0809504" lon="7.7249859"><ele>212.5</ele><time>2026-04-10T07:10:59.839Z</time></trkpt><trkpt lat="45.0810576" lon="7.7249194"><ele>212.0</ele><time>2026-04-10T07:11:01.84Z</time></trkpt><trkpt lat="45.081164" lon="7.724842"><ele>211.5</ele><time>2026-04-10T07:11:03.839Z</time></trkpt><trkpt lat="45.081267" lon="7.7247709"><ele>211.0</ele><time>2026-04-10T07:11:05.839Z</time></trkpt><trkpt lat="45.0813667" lon="7.7246947"><ele>211.0</ele><time>2026-04-10T07:11:07.841Z</time></trkpt><trkpt lat="45.0814536" lon="7.7246208"><ele>211.0</ele><time>2026-04-10T07:11:09.841Z</time></trkpt><trkpt lat="45.0815352" lon="7.7245538"><ele>211.0</ele><time>2026-04-10T07:11:11.84Z</time></trkpt><trkpt lat="45.0816094" lon="7.7244974"><ele>211.0</ele><time>2026-04-10T07:11:13.84Z</time></trkpt><trkpt lat="45.0816922" lon="7.7244976"><ele>211.0</ele><time>2026-04-10T07:11:15.839Z</time></trkpt><trkpt lat="45.0817986" lon="7.7245385"><ele>211.33333333333331</ele><time>2026-04-10T07:11:17.839Z</time></trkpt><trkpt lat="45.0819068" lon="7.7246002"><ele>211.66666666666666</ele><time>2026-04-10T07:11:19.84Z</time></trkpt><trkpt lat="45.0819749" lon="7.7246508"><ele>212.0</ele><time>2026-04-10T07:11:21.84Z</time></trkpt><trkpt lat="45.0820184" lon="7.7247189"><ele>212.33333333333331</ele><time>2026-04-10T07:11:23.84Z</time></trkpt><trkpt lat="45.0820366" lon="7.7248064"><ele>212.66666666666666</ele><time>2026-04-10T07:11:25.839Z</time></trkpt><trkpt lat="45.0820616" lon="7.7249238"><ele>213.0</ele><time>2026-04-10T07:11:28.84Z</time></trkpt><trkpt lat="45.0821328" lon="7.7249685"><ele>213.0</ele><time>2026-04-10T07:11:32.839Z</time></trkpt><trkpt lat="45.0821968" lon="7.7249341"><ele>213.0</ele><time>2026-04-10T07:11:34.84Z</time></trkpt><trkpt lat="45.0822842" lon="7.7248858"><ele>213.0</ele><time>2026-04-10T07:11:36.839Z</time></trkpt><trkpt lat="45.0823645" lon="7.7248546"><ele>213.0</ele><time>2026-04-10T07:11:38.84Z</time></trkpt><trkpt lat="45.0822956" lon="7.7248147"><ele>213.0</ele><time>2026-04-10T07:11:45.839Z</time></trkpt><trkpt lat="45.0822233" lon="7.7248425"><ele>213.0</ele><time>2026-04-10T07:11:47.839Z</time></trkpt><trkpt lat="45.0821444" lon="7.7248687"><ele>213.0</ele><time>2026-04-10T07:11:49.84Z</time></trkpt><trkpt lat="45.0820606" lon="7.7248952"><ele>213.0</ele><time>2026-04-10T07:11:51.839Z</time></trkpt><trkpt lat="45.081986" lon="7.7249288"><ele>213.0</ele><time>2026-04-10T07:11:53.84Z</time></trkpt><trkpt lat="45.0819097" lon="7.7249974"><ele>213.0</ele><time>2026-04-10T07:11:55.839Z</time></trkpt><trkpt lat="45.0818379" lon="7.7250813"><ele>213.0</ele><time>2026-04-10T07:11:57.839Z</time></trkpt><trkpt lat="45.0817832" lon="7.7252"><ele>213.0</ele><time>2026-04-10T07:11:59.839Z</time></trkpt><trkpt lat="45.0817494" lon="7.725322"><ele>213.33333333333334</ele><time>2026-04-10T07:12:01.841Z</time></trkpt><trkpt lat="45.0817285" lon="7.7254461"><ele>213.66666666666669</ele><time>2026-04-10T07:12:03.84Z</time></trkpt><trkpt lat="45.0817151" lon="7.7255677"><ele>214.0</ele><time>2026-04-10T07:12:05.839Z</time></trkpt><trkpt lat="45.0816931" lon="7.7256827"><ele>214.33333333333334</ele><time>2026-04-10T07:12:07.839Z</time></trkpt><trkpt lat="45.081674" lon="7.7258079"><ele>214.66666666666669</ele><time>2026-04-10T07:12:09.839Z</time></trkpt><trkpt lat="45.0816624" lon="7.7259087"><ele>215.0</ele><time>2026-04-10T07:12:11.841Z</time></trkpt><trkpt lat="45.0816332" lon="7.7260246"><ele>215.33333333333334</ele><time>2026-04-10T07:12:13.841Z</time></trkpt><trkpt lat="45.0816169" lon="7.7261183"><ele>215.66666666666669</ele><time>2026-04-10T07:12:15.841Z</time></trkpt><trkpt lat="45.081597" lon="7.7262233"><ele>216.0</ele><time>2026-04-10T07:12:17.84Z</time></trkpt><trkpt lat="45.0815723" lon="7.7263499"><ele>216.33333333333331</ele><time>2026-04-10T07:12:19.84Z</time></trkpt><trkpt lat="45.0815524" lon="7.7264897"><ele>216.66666666666666</ele><time>2026-04-10T07:12:21.84Z</time></trkpt><trkpt lat="45.081522" lon="7.7266131"><ele>217.0</ele><time>2026-04-10T07:12:23.84Z</time></trkpt><trkpt lat="45.0814969" lon="7.7267237"><ele>216.33333333333331</ele><time>2026-04-10T07:12:25.839Z</time></trkpt><trkpt lat="45.0814598" lon="7.7268296"><ele>215.66666666666666</ele><time>2026-04-10T07:12:27.841Z</time></trkpt><trkpt lat="45.0814187" lon="7.7269433"><ele>215.0</ele><time>2026-04-10T07:12:29.84Z</time></trkpt><trkpt lat="45.0814104" lon="7.7270524"><ele>214.33333333333331</ele><time>2026-04-10T07:12:31.839Z</time></trkpt><trkpt lat="45.0813982" lon="7.7271558"><ele>213.66666666666666</ele><time>2026-04-10T07:12:33.839Z</time></trkpt><trkpt lat="45.081388" lon="7.7272555"><ele>213.0</ele><time>2026-04-10T07:12:35.841Z</time></trkpt><trkpt lat="45.0813797" lon="7.7273909"><ele>212.99999999999997</ele><time>2026-04-10T07:12:38.841Z</time></trkpt><trkpt lat="45.0813677" lon="7.7274852"><ele>213.0</ele><time>2026-04-10T07:12:40.841Z</time></trkpt><trkpt lat="45.0813342" lon="7.7275644"><ele>213.0</ele><time>2026-04-10T07:12:42.84Z</time></trkpt><trkpt lat="45.0813094" lon="7.7276562"><ele>213.0</ele><time>2026-04-10T07:12:44.84Z</time></trkpt><trkpt lat="45.0812851" lon="7.7277666"><ele>213.0</ele><time>2026-04-10T07:12:46.841Z</time></trkpt><trkpt lat="45.0812846" lon="7.7278689"><ele>212.99999999999997</ele><time>2026-04-10T07:12:48.839Z</time></trkpt><trkpt lat="45.0812862" lon="7.7279897"><ele>213.0</ele><time>2026-04-10T07:12:50.84Z</time></trkpt><trkpt lat="45.0812729" lon="7.7281239"><ele>213.4</ele><time>2026-04-10T07:12:52.841Z</time></trkpt><trkpt lat="45.0812597" lon="7.7282682"><ele>213.8</ele><time>2026-04-10T07:12:54.841Z</time></trkpt><trkpt lat="45.0812455" lon="7.7284151"><ele>214.2</ele><time>2026-04-10T07:12:56.839Z</time></trkpt><trkpt lat="45.0812156" lon="7.7285616"><ele>214.6</ele><time>2026-04-10T07:12:58.84Z</time></trkpt><trkpt lat="45.0811888" lon="7.7287031"><ele>215.0</ele><time>2026-04-10T07:13:00.84Z</time></trkpt><trkpt lat="45.0811508" lon="7.7288335"><ele>215.66666666666669</ele><time>2026-04-10T07:13:02.84Z</time></trkpt><trkpt lat="45.0811098" lon="7.7289787"><ele>216.33333333333334</ele><time>2026-04-10T07:13:04.84Z</time></trkpt><trkpt lat="45.0810777" lon="7.7290777"><ele>217.0</ele><time>2026-04-10T07:13:07.84Z</time></trkpt><trkpt lat="45.0810501" lon="7.7291991"><ele>217.66666666666669</ele><time>2026-04-10T07:14:32.841Z</time></trkpt><trkpt lat="45.0809969" lon="7.729297"><ele>218.33333333333334</ele><time>2026-04-10T07:14:35.841Z</time></trkpt><trkpt lat="45.0809711" lon="7.7294072"><ele>219.0</ele><time>2026-04-10T07:14:37.84Z</time></trkpt><trkpt lat="45.0809631" lon="7.7295478"><ele>219.39999999999998</ele><time>2026-04-10T07:14:39.839Z</time></trkpt><trkpt lat="45.0809269" lon="7.729667"><ele>219.79999999999998</ele><time>2026-04-10T07:14:41.84Z</time></trkpt><trkpt lat="45.080857" lon="7.7298344"><ele>220.20000000000002</ele><time>2026-04-10T07:14:44.84Z</time></trkpt><trkpt lat="45.0808331" lon="7.7299505"><ele>220.60000000000002</ele><time>2026-04-10T07:14:46.839Z</time></trkpt><trkpt lat="45.0808076" lon="7.7300625"><ele>221.0</ele><time>2026-04-10T07:14:48.84Z</time></trkpt><trkpt lat="45.0807857" lon="7.7301803"><ele>221.16666666666669</ele><time>2026-04-10T07:14:50.84Z</time></trkpt><trkpt lat="45.0807557" lon="7.7302857"><ele>221.33333333333334</ele><time>2026-04-10T07:14:52.841Z</time></trkpt><trkpt lat="45.0807276" lon="7.7304059"><ele>221.5</ele><time>2026-04-10T07:14:54.841Z</time></trkpt><trkpt lat="45.0806953" lon="7.7305144"><ele>221.66666666666669</ele><time>2026-04-10T07:14:56.84Z</time></trkpt><trkpt lat="45.0806628" lon="7.7306138"><ele>221.83333333333334</ele><time>2026-04-10T07:14:58.84Z</time></trkpt><trkpt lat="45.0806381" lon="7.7307003"><ele>222.0</ele><time>2026-04-10T07:15:00.84Z</time></trkpt><trkpt lat="45.0806047" lon="7.7308049"><ele>222.0</ele><time>2026-04-10T07:15:03.841Z</time></trkpt><trkpt lat="45.0805641" lon="7.7308825"><ele>222.0</ele><time>2026-04-10T07:15:06.84Z</time></trkpt><trkpt lat="45.0805013" lon="7.7309381"><ele>222.0</ele><time>2026-04-10T07:15:10.841Z</time></trkpt><trkpt lat="45.0804288" lon="7.7309879"><ele>222.0</ele><time>2026-04-10T07:15:13.839Z</time></trkpt><trkpt lat="45.0803813" lon="7.7310524"><ele>222.0</ele><time>2026-04-10T07:15:17.84Z</time></trkpt><trkpt lat="45.0803138" lon="7.7311546"><ele>222.0</ele><time>2026-04-10T07:15:20.84Z</time></trkpt><trkpt lat="45.0802587" lon="7.7312491"><ele>222.66666666666666</ele><time>2026-04-10T07:15:22.84Z</time></trkpt><trkpt lat="45.0802121" lon="7.7313519"><ele>223.33333333333331</ele><time>2026-04-10T07:15:24.841Z</time></trkpt><trkpt lat="45.0801657" lon="7.731455"><ele>224.0</ele><time>2026-04-10T07:15:26.839Z</time></trkpt><trkpt lat="45.0801361" lon="7.7315716"><ele>224.66666666666666</ele><time>2026-04-10T07:15:28.841Z</time></trkpt><trkpt lat="45.0801225" lon="7.7316907"><ele>225.33333333333331</ele><time>2026-04-10T07:15:30.84Z</time></trkpt><trkpt lat="45.0801302" lon="7.731799"><ele>226.0</ele><time>2026-04-10T07:15:32.841Z</time></trkpt><trkpt lat="45.0801456" lon="7.7318996"><ele>226.0</ele><time>2026-04-10T07:15:34.84Z</time></trkpt><trkpt lat="45.0801648" lon="7.7319998"><ele>226.0</ele><time>2026-04-10T07:15:36.841Z</time></trkpt><trkpt lat="45.0801892" lon="7.7320969"><ele>226.0</ele><time>2026-04-10T07:15:38.839Z</time></trkpt><trkpt lat="45.0802159" lon="7.7321842"><ele>226.0</ele><time>2026-04-10T07:15:40.841Z</time></trkpt><trkpt lat="45.0802465" lon="7.7322743"><ele>226.0</ele><time>2026-04-10T07:15:42.84Z</time></trkpt><trkpt lat="45.0802759" lon="7.732371"><ele>226.0</ele><time>2026-04-10T07:15:44.841Z</time></trkpt><trkpt lat="45.0803089" lon="7.7324662"><ele>226.0</ele><time>2026-04-10T07:15:46.842Z</time></trkpt><trkpt lat="45.0803438" lon="7.7325678"><ele>225.99999999999997</ele><time>2026-04-10T07:15:48.84Z</time></trkpt><trkpt lat="45.0803794" lon="7.7326658"><ele>226.0</ele><time>2026-04-10T07:15:50.839Z</time></trkpt><trkpt lat="45.0804098" lon="7.732765"><ele>226.0</ele><time>2026-04-10T07:15:52.839Z</time></trkpt><trkpt lat="45.0804461" lon="7.7328628"><ele>226.0</ele><time>2026-04-10T07:15:54.841Z</time></trkpt><trkpt lat="45.0804747" lon="7.732963"><ele>225.99999999999997</ele><time>2026-04-10T07:15:56.839Z</time></trkpt><trkpt lat="45.0805024" lon="7.7330665"><ele>226.0</ele><time>2026-04-10T07:15:58.84Z</time></trkpt><trkpt lat="45.0805343" lon="7.7331657"><ele>226.42857142857144</ele><time>2026-04-10T07:16:00.84Z</time></trkpt><trkpt lat="45.0805701" lon="7.7332598"><ele>226.85714285714283</ele><time>2026-04-10T07:16:02.84Z</time></trkpt><trkpt lat="45.0806043" lon="7.7333571"><ele>227.28571428571428</ele><time>2026-04-10T07:16:04.84Z</time></trkpt><trkpt lat="45.0806415" lon="7.7334489"><ele>227.71428571428572</ele><time>2026-04-10T07:16:06.84Z</time></trkpt><trkpt lat="45.0806749" lon="7.7335281"><ele>228.14285714285717</ele><time>2026-04-10T07:16:08.841Z</time></trkpt><trkpt lat="45.080708" lon="7.7336089"><ele>228.57142857142856</ele><time>2026-04-10T07:16:11.841Z</time></trkpt><trkpt lat="45.0807137" lon="7.7334939"><ele>229.0</ele><time>2026-04-10T07:16:17.84Z</time></trkpt><trkpt lat="45.0806579" lon="7.7334101"><ele>228.99999999999997</ele><time>2026-04-10T07:16:19.84Z</time></trkpt><trkpt lat="45.0806038" lon="7.7333065"><ele>229.0</ele><time>2026-04-10T07:16:21.84Z</time></trkpt><trkpt lat="45.0805608" lon="7.7332086"><ele>229.0</ele><time>2026-04-10T07:16:23.84Z</time></trkpt><trkpt lat="45.0805037" lon="7.7331257"><ele>229.0</ele><time>2026-04-10T07:16:25.84Z</time></trkpt><trkpt lat="45.0804198" lon="7.733112"><ele>228.99999999999997</ele><time>2026-04-10T07:16:27.841Z</time></trkpt><trkpt lat="45.0803389" lon="7.7331601"><ele>229.0</ele><time>2026-04-10T07:16:29.841Z</time></trkpt><trkpt lat="45.0802589" lon="7.7332136"><ele>228.99999999999997</ele><time>2026-04-10T07:16:31.839Z</time></trkpt><trkpt lat="45.0801817" lon="7.7332641"><ele>229.0</ele><time>2026-04-10T07:16:33.839Z</time></trkpt><trkpt lat="45.0800946" lon="7.7333115"><ele>229.0</ele><time>2026-04-10T07:16:35.839Z</time></trkpt><trkpt lat="45.0800164" lon="7.7333603"><ele>229.0</ele><time>2026-04-10T07:16:37.841Z</time></trkpt><trkpt lat="45.0799584" lon="7.7334155"><ele>228.99999999999997</ele><time>2026-04-10T07:16:39.84Z</time></trkpt><trkpt lat="45.0799048" lon="7.7334857"><ele>229.0</ele><time>2026-04-10T07:16:41.841Z</time></trkpt><trkpt lat="45.0798541" lon="7.7335714"><ele>229.49999999999997</ele><time>2026-04-10T07:16:43.841Z</time></trkpt><trkpt lat="45.0798185" lon="7.7336863"><ele>230.0</ele><time>2026-04-10T07:16:45.841Z</time></trkpt><trkpt lat="45.0797977" lon="7.7337991"><ele>230.5</ele><time>2026-04-10T07:16:47.84Z</time></trkpt><trkpt lat="45.0797829" lon="7.733911"><ele>231.0</ele><time>2026-04-10T07:16:49.84Z</time></trkpt><trkpt lat="45.0797602" lon="7.734026"><ele>231.49999999999997</ele><time>2026-04-10T07:16:51.841Z</time></trkpt><trkpt lat="45.0797337" lon="7.7341298"><ele>232.0</ele><time>2026-04-10T07:16:53.84Z</time></trkpt><trkpt lat="45.0796994" lon="7.7342309"><ele>231.99999999999997</ele><time>2026-04-10T07:16:55.842Z</time></trkpt><trkpt lat="45.0796626" lon="7.7343272"><ele>232.0</ele><time>2026-04-10T07:16:57.841Z</time></trkpt><trkpt lat="45.0796312" lon="7.7344288"><ele>232.0</ele><time>2026-04-10T07:16:59.84Z</time></trkpt><trkpt lat="45.0796053" lon="7.7345366"><ele>232.0</ele><time>2026-04-10T07:17:01.839Z</time></trkpt><trkpt lat="45.0795736" lon="7.7346389"><ele>231.99999999999997</ele><time>2026-04-10T07:17:03.84Z</time></trkpt><trkpt lat="45.0795285" lon="7.7347266"><ele>232.0</ele><time>2026-04-10T07:17:05.841Z</time></trkpt><trkpt lat="45.0794869" lon="7.7348222"><ele>232.49999999999997</ele><time>2026-04-10T07:17:07.839Z</time></trkpt><trkpt lat="45.0794462" lon="7.7349194"><ele>233.0</ele><time>2026-04-10T07:17:09.839Z</time></trkpt><trkpt lat="45.0794034" lon="7.7350145"><ele>233.5</ele><time>2026-04-10T07:17:11.84Z</time></trkpt><trkpt lat="45.0793621" lon="7.7351072"><ele>234.0</ele><time>2026-04-10T07:17:13.84Z</time></trkpt><trkpt lat="45.0793167" lon="7.7352058"><ele>234.49999999999997</ele><time>2026-04-10T07:17:15.84Z</time></trkpt><trkpt lat="45.0792741" lon="7.7353079"><ele>235.0</ele><time>2026-04-10T07:17:17.84Z</time></trkpt><trkpt lat="45.0792318" lon="7.7354162"><ele>235.49999999999997</ele><time>2026-04-10T07:17:19.841Z</time></trkpt><trkpt lat="45.0791806" lon="7.7355182"><ele>236.0</ele><time>2026-04-10T07:17:21.84Z</time></trkpt><trkpt lat="45.0791296" lon="7.7356174"><ele>236.5</ele><time>2026-04-10T07:17:23.84Z</time></trkpt><trkpt lat="45.0790779" lon="7.7357143"><ele>237.0</ele><time>2026-04-10T07:17:25.842Z</time></trkpt><trkpt lat="45.0790276" lon="7.7358131"><ele>237.49999999999997</ele><time>2026-04-10T07:17:27.841Z</time></trkpt><trkpt lat="45.0789796" lon="7.7359102"><ele>238.0</ele><time>2026-04-10T07:17:29.839Z</time></trkpt><trkpt lat="45.0789366" lon="7.7360118"><ele>237.99999999999997</ele><time>2026-04-10T07:17:31.839Z</time></trkpt><trkpt lat="45.0788955" lon="7.7361081"><ele>238.0</ele><time>2026-04-10T07:17:33.839Z</time></trkpt><trkpt lat="45.0788543" lon="7.7362007"><ele>238.0</ele><time>2026-04-10T07:17:35.839Z</time></trkpt><trkpt lat="45.0788183" lon="7.7363013"><ele>238.0</ele><time>2026-04-10T07:17:37.84Z</time></trkpt><trkpt lat="45.0787735" lon="7.7363999"><ele>237.99999999999997</ele><time>2026-04-10T07:17:39.841Z</time></trkpt><trkpt lat="45.0787316" lon="7.7364977"><ele>238.0</ele><time>2026-04-10T07:17:41.841Z</time></trkpt><trkpt lat="45.0786982" lon="7.736596"><ele>237.99999999999997</ele><time>2026-04-10T07:17:43.839Z</time></trkpt><trkpt lat="45.078667" lon="7.7366992"><ele>238.0</ele><time>2026-04-10T07:17:45.841Z</time></trkpt><trkpt lat="45.0786381" lon="7.736812"><ele>238.0</ele><time>2026-04-10T07:17:47.841Z</time></trkpt><trkpt lat="45.0786047" lon="7.7369226"><ele>238.0</ele><time>2026-04-10T07:17:49.84Z</time></trkpt><trkpt lat="45.078566" lon="7.7370174"><ele>237.99999999999997</ele><time>2026-04-10T07:17:51.84Z</time></trkpt><trkpt lat="45.0785186" lon="7.7371125"><ele>238.0</ele><time>2026-04-10T07:17:53.84Z</time></trkpt><trkpt lat="45.0784736" lon="7.7372024"><ele>238.33333333333331</ele><time>2026-04-10T07:17:55.84Z</time></trkpt><trkpt lat="45.0784229" lon="7.7372859"><ele>238.66666666666666</ele><time>2026-04-10T07:17:57.841Z</time></trkpt><trkpt lat="45.0783653" lon="7.7373589"><ele>239.0</ele><time>2026-04-10T07:17:59.84Z</time></trkpt><trkpt lat="45.07831" lon="7.737425"><ele>239.33333333333331</ele><time>2026-04-10T07:18:01.84Z</time></trkpt><trkpt lat="45.0782508" lon="7.7375033"><ele>239.66666666666666</ele><time>2026-04-10T07:18:03.84Z</time></trkpt><trkpt lat="45.0781932" lon="7.7375753"><ele>240.0</ele><time>2026-04-10T07:18:05.841Z</time></trkpt><trkpt lat="45.0781328" lon="7.7376536"><ele>240.6</ele><time>2026-04-10T07:18:07.84Z</time></trkpt><trkpt lat="45.0780741" lon="7.7377488"><ele>241.2</ele><time>2026-04-10T07:18:09.841Z</time></trkpt><trkpt lat="45.0779939" lon="7.7378369"><ele>241.8</ele><time>2026-04-10T07:18:11.84Z</time></trkpt><trkpt lat="45.0779161" lon="7.7378999"><ele>242.4</ele><time>2026-04-10T07:18:13.839Z</time></trkpt><trkpt lat="45.0778331" lon="7.7379588"><ele>243.0</ele><time>2026-04-10T07:18:15.839Z</time></trkpt><trkpt lat="45.077765" lon="7.7380354"><ele>243.0</ele><time>2026-04-10T07:18:17.841Z</time></trkpt><trkpt lat="45.0776931" lon="7.7381028"><ele>243.0</ele><time>2026-04-10T07:18:19.841Z</time></trkpt><trkpt lat="45.0776173" lon="7.7381805"><ele>243.0</ele><time>2026-04-10T07:18:21.839Z</time></trkpt><trkpt lat="45.077523" lon="7.7382461"><ele>243.0</ele><time>2026-04-10T07:18:23.84Z</time></trkpt><trkpt lat="45.0774392" lon="7.7383183"><ele>243.0</ele><time>2026-04-10T07:18:25.841Z</time></trkpt><trkpt lat="45.077359" lon="7.7383951"><ele>243.5</ele><time>2026-04-10T07:18:27.84Z</time></trkpt><trkpt lat="45.0772994" lon="7.7384682"><ele>244.0</ele><time>2026-04-10T07:18:29.839Z</time></trkpt><trkpt lat="45.077225" lon="7.7385324"><ele>244.5</ele><time>2026-04-10T07:18:31.841Z</time></trkpt><trkpt lat="45.0771334" lon="7.738589"><ele>245.0</ele><time>2026-04-10T07:18:33.841Z</time></trkpt><trkpt lat="45.0770667" lon="7.7386478"><ele>245.5</ele><time>2026-04-10T07:18:35.841Z</time></trkpt><trkpt lat="45.0770007" lon="7.7386829"><ele>246.0</ele><time>2026-04-10T07:18:37.842Z</time></trkpt><trkpt lat="45.0769279" lon="7.7387269"><ele>246.33333333333334</ele><time>2026-04-10T07:18:39.84Z</time></trkpt><trkpt lat="45.0768565" lon="7.7387892"><ele>246.66666666666669</ele><time>2026-04-10T07:18:41.84Z</time></trkpt><trkpt lat="45.0767741" lon="7.7388175"><ele>247.0</ele><time>2026-04-10T07:18:43.841Z</time></trkpt><trkpt lat="45.0766738" lon="7.7388646"><ele>247.33333333333334</ele><time>2026-04-10T07:18:45.84Z</time></trkpt><trkpt lat="45.076599" lon="7.7388983"><ele>247.66666666666669</ele><time>2026-04-10T07:18:47.84Z</time></trkpt><trkpt lat="45.0765255" lon="7.738922"><ele>248.0</ele><time>2026-04-10T07:18:49.839Z</time></trkpt><trkpt lat="45.0764611" lon="7.7389149"><ele>248.71428571428572</ele><time>2026-04-10T07:18:51.842Z</time></trkpt><trkpt lat="45.0763852" lon="7.7389185"><ele>249.42857142857144</ele><time>2026-04-10T07:18:53.84Z</time></trkpt><trkpt lat="45.0763052" lon="7.7389544"><ele>250.14285714285717</ele><time>2026-04-10T07:18:55.842Z</time></trkpt><trkpt lat="45.0762269" lon="7.7389993"><ele>250.8571428571429</ele><time>2026-04-10T07:18:58.84Z</time></trkpt><trkpt lat="45.0761681" lon="7.7390345"><ele>251.57142857142858</ele><time>2026-04-10T07:19:00.84Z</time></trkpt><trkpt lat="45.0761185" lon="7.7390898"><ele>252.28571428571433</ele><time>2026-04-10T07:19:02.841Z</time></trkpt><trkpt lat="45.0760767" lon="7.7391579"><ele>253.00000000000003</ele><time>2026-04-10T07:19:04.839Z</time></trkpt><trkpt lat="45.0760593" lon="7.7392594"><ele>252.66666666666666</ele><time>2026-04-10T07:19:07.84Z</time></trkpt><trkpt lat="45.0761356" lon="7.7393878"><ele>252.33333333333331</ele><time>2026-04-10T07:21:20.84Z</time></trkpt><trkpt lat="45.0761764" lon="7.7394892"><ele>252.0</ele><time>2026-04-10T07:21:30.839Z</time></trkpt><trkpt lat="45.0762019" lon="7.7396132"><ele>251.66666666666669</ele><time>2026-04-10T07:21:33.84Z</time></trkpt><trkpt lat="45.0762293" lon="7.7397159"><ele>251.33333333333334</ele><time>2026-04-10T07:21:35.84Z</time></trkpt><trkpt lat="45.0762659" lon="7.7398118"><ele>251.0</ele><time>2026-04-10T07:21:37.841Z</time></trkpt><trkpt lat="45.0762997" lon="7.7399056"><ele>251.00000000000003</ele><time>2026-04-10T07:21:39.842Z</time></trkpt><trkpt lat="45.076315" lon="7.7400115"><ele>251.0</ele><time>2026-04-10T07:21:41.84Z</time></trkpt><trkpt lat="45.0763185" lon="7.7401361"><ele>251.0</ele><time>2026-04-10T07:21:43.841Z</time></trkpt><trkpt lat="45.0762859" lon="7.7402366"><ele>251.0</ele><time>2026-04-10T07:21:45.84Z</time></trkpt><trkpt lat="45.0762414" lon="7.7403581"><ele>251.00000000000003</ele><time>2026-04-10T07:21:47.84Z</time></trkpt><trkpt lat="45.0762245" lon="7.740458"><ele>251.0</ele><time>2026-04-10T07:21:49.841Z</time></trkpt><trkpt lat="45.0762251" lon="7.7405545"><ele>251.16666666666669</ele><time>2026-04-10T07:21:51.84Z</time></trkpt><trkpt lat="45.0762199" lon="7.7406524"><ele>251.33333333333334</ele><time>2026-04-10T07:21:53.84Z</time></trkpt><trkpt lat="45.0761928" lon="7.7407611"><ele>251.5</ele><time>2026-04-10T07:21:55.839Z</time></trkpt><trkpt lat="45.0761547" lon="7.7408711"><ele>251.66666666666669</ele><time>2026-04-10T07:21:57.84Z</time></trkpt><trkpt lat="45.0761126" lon="7.7409695"><ele>251.83333333333334</ele><time>2026-04-10T07:21:59.841Z</time></trkpt><trkpt lat="45.0760634" lon="7.7410599"><ele>252.0</ele><time>2026-04-10T07:22:01.84Z</time></trkpt><trkpt lat="45.0759948" lon="7.7411247"><ele>252.5</ele><time>2026-04-10T07:22:03.839Z</time></trkpt><trkpt lat="45.0759067" lon="7.7411413"><ele>253.0</ele><time>2026-04-10T07:22:05.839Z</time></trkpt><trkpt lat="45.0758137" lon="7.7411408"><ele>253.5</ele><time>2026-04-10T07:22:07.84Z</time></trkpt><trkpt lat="45.0757253" lon="7.7411379"><ele>254.0</ele><time>2026-04-10T07:22:09.84Z</time></trkpt><trkpt lat="45.0756349" lon="7.7411363"><ele>254.5</ele><time>2026-04-10T07:22:11.84Z</time></trkpt><trkpt lat="45.0755489" lon="7.7411339"><ele>255.0</ele><time>2026-04-10T07:22:13.841Z</time></trkpt><trkpt lat="45.075478" lon="7.7411399"><ele>255.0</ele><time>2026-04-10T07:22:15.841Z</time></trkpt><trkpt lat="45.0753936" lon="7.7411837"><ele>255.0</ele><time>2026-04-10T07:22:18.841Z</time></trkpt><trkpt lat="45.0753738" lon="7.7413042"><ele>255.0</ele><time>2026-04-10T07:22:21.84Z</time></trkpt><trkpt lat="45.0753612" lon="7.7414144"><ele>255.0</ele><time>2026-04-10T07:22:24.84Z</time></trkpt><trkpt lat="45.0753809" lon="7.7415111"><ele>255.0</ele><time>2026-04-10T07:23:02.84Z</time></trkpt><trkpt lat="45.0753867" lon="7.7416124"><ele>255.0</ele><time>2026-04-10T07:23:06.842Z</time></trkpt><trkpt lat="45.0753915" lon="7.741723"><ele>255.0</ele><time>2026-04-10T07:23:09.839Z</time></trkpt><trkpt lat="45.0753972" lon="7.7418256"><ele>255.0</ele><time>2026-04-10T07:23:11.841Z</time></trkpt><trkpt lat="45.07539" lon="7.7419364"><ele>255.0</ele><time>2026-04-10T07:23:13.84Z</time></trkpt><trkpt lat="45.0753637" lon="7.742047"><ele>255.0</ele><time>2026-04-10T07:23:15.84Z</time></trkpt><trkpt lat="45.075328" lon="7.7421523"><ele>255.0</ele><time>2026-04-10T07:23:17.841Z</time></trkpt><trkpt lat="45.0752936" lon="7.742252"><ele>255.0</ele><time>2026-04-10T07:23:19.841Z</time></trkpt><trkpt lat="45.0752594" lon="7.7423635"><ele>255.16666666666666</ele><time>2026-04-10T07:23:21.841Z</time></trkpt><trkpt lat="45.075231" lon="7.7424785"><ele>255.33333333333331</ele><time>2026-04-10T07:23:23.841Z</time></trkpt><trkpt lat="45.0751961" lon="7.7425882"><ele>255.5</ele><time>2026-04-10T07:23:25.84Z</time></trkpt><trkpt lat="45.075156" lon="7.7426921"><ele>255.66666666666666</ele><time>2026-04-10T07:23:27.839Z</time></trkpt><trkpt lat="45.0751164" lon="7.7427836"><ele>255.83333333333331</ele><time>2026-04-10T07:23:29.841Z</time></trkpt><trkpt lat="45.0750729" lon="7.7428711"><ele>256.0</ele><time>2026-04-10T07:23:31.84Z</time></trkpt><trkpt lat="45.0750293" lon="7.742968"><ele>255.99999999999997</ele><time>2026-04-10T07:23:33.84Z</time></trkpt><trkpt lat="45.0749795" lon="7.7430567"><ele>256.0</ele><time>2026-04-10T07:23:35.84Z</time></trkpt><trkpt lat="45.0749233" lon="7.7431443"><ele>256.0</ele><time>2026-04-10T07:23:37.84Z</time></trkpt><trkpt lat="45.0748556" lon="7.7432313"><ele>256.0</ele><time>2026-04-10T07:23:39.84Z</time></trkpt><trkpt lat="45.0748005" lon="7.7433104"><ele>255.99999999999997</ele><time>2026-04-10T07:23:41.841Z</time></trkpt><trkpt lat="45.0747336" lon="7.7433816"><ele>256.0</ele><time>2026-04-10T07:23:43.841Z</time></trkpt><trkpt lat="45.0746612" lon="7.7434608"><ele>257.6</ele><time>2026-04-10T07:23:45.841Z</time></trkpt><trkpt lat="45.074602" lon="7.7435462"><ele>259.20000000000005</ele><time>2026-04-10T07:23:47.84Z</time></trkpt><trkpt lat="45.0745271" lon="7.7436288"><ele>260.79999999999995</ele><time>2026-04-10T07:23:49.841Z</time></trkpt><trkpt lat="45.0744532" lon="7.7437149"><ele>262.4</ele><time>2026-04-10T07:23:51.84Z</time></trkpt><trkpt lat="45.0743771" lon="7.7437917"><ele>264.0</ele><time>2026-04-10T07:23:53.84Z</time></trkpt><trkpt lat="45.0742993" lon="7.7438533"><ele>264.0</ele><time>2026-04-10T07:23:55.839Z</time></trkpt><trkpt lat="45.0742272" lon="7.7439045"><ele>264.0</ele><time>2026-04-10T07:23:57.839Z</time></trkpt><trkpt lat="45.0741495" lon="7.7439532"><ele>264.0</ele><time>2026-04-10T07:23:59.839Z</time></trkpt><trkpt lat="45.074076" lon="7.7440052"><ele>264.0</ele><time>2026-04-10T07:24:01.842Z</time></trkpt><trkpt lat="45.0740042" lon="7.7440522"><ele>264.0</ele><time>2026-04-10T07:24:03.839Z</time></trkpt><trkpt lat="45.0739378" lon="7.7441172"><ele>264.0</ele><time>2026-04-10T07:24:05.84Z</time></trkpt><trkpt lat="45.073871" lon="7.7442006"><ele>268.5</ele><time>2026-04-10T07:24:07.841Z</time></trkpt><trkpt lat="45.0738173" lon="7.7442924"><ele>273.0</ele><time>2026-04-10T07:24:09.84Z</time></trkpt><trkpt lat="45.0737778" lon="7.7443891"><ele>277.5</ele><time>2026-04-10T07:24:11.84Z</time></trkpt><trkpt lat="45.0737412" lon="7.7444877"><ele>282.0</ele><time>2026-04-10T07:24:13.841Z</time></trkpt><trkpt lat="45.0737048" lon="7.7445969"><ele>286.5</ele><time>2026-04-10T07:24:15.839Z</time></trkpt><trkpt lat="45.0736731" lon="7.7447028"><ele>291.0</ele><time>2026-04-10T07:24:17.841Z</time></trkpt><trkpt lat="45.0736596" lon="7.7448094"><ele>291.0</ele><time>2026-04-10T07:24:19.84Z</time></trkpt><trkpt lat="45.0736681" lon="7.7449186"><ele>291.0</ele><time>2026-04-10T07:24:21.842Z</time></trkpt><trkpt lat="45.0737012" lon="7.7450409"><ele>291.0</ele><time>2026-04-10T07:24:23.841Z</time></trkpt><trkpt lat="45.0737394" lon="7.7451542"><ele>291.0</ele><time>2026-04-10T07:24:25.839Z</time></trkpt><trkpt lat="45.0737902" lon="7.7452537"><ele>291.0</ele><time>2026-04-10T07:24:27.839Z</time></trkpt><trkpt lat="45.0738305" lon="7.7453512"><ele>291.0</ele><time>2026-04-10T07:24:29.84Z</time></trkpt><trkpt lat="45.0738607" lon="7.7454619"><ele>290.0</ele><time>2026-04-10T07:24:31.839Z</time></trkpt><trkpt lat="45.0738691" lon="7.7455717"><ele>289.0</ele><time>2026-04-10T07:24:33.841Z</time></trkpt><trkpt lat="45.0738549" lon="7.7456849"><ele>288.0</ele><time>2026-04-10T07:24:35.84Z</time></trkpt><trkpt lat="45.0738284" lon="7.7457969"><ele>287.0</ele><time>2026-04-10T07:24:37.84Z</time></trkpt><trkpt lat="45.0738018" lon="7.7459053"><ele>286.0</ele><time>2026-04-10T07:24:39.839Z</time></trkpt><trkpt lat="45.0737871" lon="7.7460025"><ele>285.0</ele><time>2026-04-10T07:24:41.841Z</time></trkpt><trkpt lat="45.0737876" lon="7.7460951"><ele>284.1666666666667</ele><time>2026-04-10T07:24:43.84Z</time></trkpt><trkpt lat="45.0738116" lon="7.7461946"><ele>283.3333333333333</ele><time>2026-04-10T07:24:45.84Z</time></trkpt><trkpt lat="45.0738567" lon="7.7462859"><ele>282.5</ele><time>2026-04-10T07:24:47.842Z</time></trkpt><trkpt lat="45.0739052" lon="7.746368"><ele>281.66666666666663</ele><time>2026-04-10T07:24:49.841Z</time></trkpt><trkpt lat="45.0739381" lon="7.7464626"><ele>280.8333333333333</ele><time>2026-04-10T07:24:51.842Z</time></trkpt><trkpt lat="45.0739545" lon="7.7465687"><ele>280.0</ele><time>2026-04-10T07:24:53.841Z</time></trkpt><trkpt lat="45.0739594" lon="7.7466744"><ele>280.0</ele><time>2026-04-10T07:24:55.842Z</time></trkpt><trkpt lat="45.0739404" lon="7.746783"><ele>280.0</ele><time>2026-04-10T07:24:57.84Z</time></trkpt><trkpt lat="45.0738992" lon="7.7468732"><ele>280.0</ele><time>2026-04-10T07:24:59.84Z</time></trkpt><trkpt lat="45.0738365" lon="7.7469517"><ele>280.0</ele><time>2026-04-10T07:25:01.842Z</time></trkpt><trkpt lat="45.0737758" lon="7.7470148"><ele>280.0</ele><time>2026-04-10T07:25:03.841Z</time></trkpt><trkpt lat="45.0737159" lon="7.7470925"><ele>280.0</ele><time>2026-04-10T07:25:05.841Z</time></trkpt><trkpt lat="45.0736547" lon="7.7471754"><ele>279.0</ele><time>2026-04-10T07:25:07.841Z</time></trkpt><trkpt lat="45.0735935" lon="7.7472522"><ele>278.0</ele><time>2026-04-10T07:25:09.84Z</time></trkpt><trkpt lat="45.0735374" lon="7.7473216"><ele>277.0</ele><time>2026-04-10T07:25:11.84Z</time></trkpt><trkpt lat="45.0734807" lon="7.7473931"><ele>276.0</ele><time>2026-04-10T07:25:13.842Z</time></trkpt><trkpt lat="45.0734321" lon="7.747487"><ele>275.0</ele><time>2026-04-10T07:25:15.841Z</time></trkpt><trkpt lat="45.0733828" lon="7.7475658"><ele>274.0</ele><time>2026-04-10T07:25:17.841Z</time></trkpt><trkpt lat="45.0733231" lon="7.7476136"><ele>276.8571428571429</ele><time>2026-04-10T07:25:19.84Z</time></trkpt><trkpt lat="45.0732607" lon="7.7476711"><ele>279.7142857142857</ele><time>2026-04-10T07:25:21.84Z</time></trkpt><trkpt lat="45.0731949" lon="7.747718"><ele>282.57142857142856</ele><time>2026-04-10T07:25:23.84Z</time></trkpt><trkpt lat="45.0731393" lon="7.7477728"><ele>285.42857142857144</ele><time>2026-04-10T07:25:25.84Z</time></trkpt><trkpt lat="45.0730757" lon="7.7478164"><ele>288.2857142857143</ele><time>2026-04-10T07:25:27.84Z</time></trkpt><trkpt lat="45.0730158" lon="7.7478761"><ele>291.14285714285717</ele><time>2026-04-10T07:25:29.839Z</time></trkpt><trkpt lat="45.0729591" lon="7.7479454"><ele>294.0</ele><time>2026-04-10T07:25:31.841Z</time></trkpt><trkpt lat="45.072906" lon="7.7480251"><ele>294.0</ele><time>2026-04-10T07:25:33.84Z</time></trkpt><trkpt lat="45.0728632" lon="7.7481244"><ele>294.0</ele><time>2026-04-10T07:25:35.84Z</time></trkpt><trkpt lat="45.0728545" lon="7.7482299"><ele>294.0</ele><time>2026-04-10T07:25:37.841Z</time></trkpt><trkpt lat="45.0728468" lon="7.7483466"><ele>294.0</ele><time>2026-04-10T07:25:39.84Z</time></trkpt><trkpt lat="45.0728458" lon="7.7484588"><ele>294.0</ele><time>2026-04-10T07:25:41.84Z</time></trkpt><trkpt lat="45.0728508" lon="7.7485769"><ele>294.0</ele><time>2026-04-10T07:25:43.841Z</time></trkpt><trkpt lat="45.0728478" lon="7.7486894"><ele>292.3333333333333</ele><time>2026-04-10T07:25:45.84Z</time></trkpt><trkpt lat="45.072832" lon="7.74879"><ele>290.6666666666667</ele><time>2026-04-10T07:25:47.841Z</time></trkpt><trkpt lat="45.072826" lon="7.7488948"><ele>289.0</ele><time>2026-04-10T07:25:49.841Z</time></trkpt><trkpt lat="45.072816" lon="7.7490082"><ele>287.33333333333337</ele><time>2026-04-10T07:25:51.84Z</time></trkpt><trkpt lat="45.0728002" lon="7.7491034"><ele>285.6666666666667</ele><time>2026-04-10T07:25:53.84Z</time></trkpt><trkpt lat="45.072781" lon="7.7492132"><ele>284.0</ele><time>2026-04-10T07:25:55.841Z</time></trkpt><trkpt lat="45.0727562" lon="7.7493297"><ele>283.5</ele><time>2026-04-10T07:25:57.841Z</time></trkpt><trkpt lat="45.0727274" lon="7.7494442"><ele>283.0</ele><time>2026-04-10T07:25:59.84Z</time></trkpt><trkpt lat="45.0726925" lon="7.7495546"><ele>282.5</ele><time>2026-04-10T07:26:01.84Z</time></trkpt><trkpt lat="45.0726484" lon="7.7496573"><ele>282.0</ele><time>2026-04-10T07:26:03.841Z</time></trkpt><trkpt lat="45.0726109" lon="7.7497575"><ele>281.5</ele><time>2026-04-10T07:26:05.84Z</time></trkpt><trkpt lat="45.0725761" lon="7.7498479"><ele>281.0</ele><time>2026-04-10T07:26:07.84Z</time></trkpt><trkpt lat="45.0725368" lon="7.7499347"><ele>281.0</ele><time>2026-04-10T07:26:09.841Z</time></trkpt><trkpt lat="45.0724945" lon="7.7500732"><ele>281.0</ele><time>2026-04-10T07:26:11.84Z</time></trkpt><trkpt lat="45.0724655" lon="7.7501931"><ele>281.0</ele><time>2026-04-10T07:26:14.841Z</time></trkpt><trkpt lat="45.0724019" lon="7.7502703"><ele>281.0</ele><time>2026-04-10T07:26:16.839Z</time></trkpt><trkpt lat="45.0723314" lon="7.7503579"><ele>281.0</ele><time>2026-04-10T07:26:18.84Z</time></trkpt><trkpt lat="45.0722696" lon="7.7504528"><ele>282.33333333333337</ele><time>2026-04-10T07:26:20.84Z</time></trkpt><trkpt lat="45.0722242" lon="7.7505524"><ele>283.6666666666667</ele><time>2026-04-10T07:26:22.84Z</time></trkpt><trkpt lat="45.0721933" lon="7.7506571"><ele>285.0</ele><time>2026-04-10T07:26:24.841Z</time></trkpt><trkpt lat="45.0721676" lon="7.7507597"><ele>286.3333333333333</ele><time>2026-04-10T07:26:26.84Z</time></trkpt><trkpt lat="45.0721474" lon="7.7508527"><ele>287.66666666666663</ele><time>2026-04-10T07:26:28.842Z</time></trkpt><trkpt lat="45.0721292" lon="7.7509466"><ele>289.0</ele><time>2026-04-10T07:26:30.84Z</time></trkpt><trkpt lat="45.0721124" lon="7.7510486"><ele>289.0</ele><time>2026-04-10T07:26:32.84Z</time></trkpt><trkpt lat="45.072092" lon="7.7511462"><ele>289.0</ele><time>2026-04-10T07:26:34.842Z</time></trkpt><trkpt lat="45.0720679" lon="7.7512448"><ele>289.0</ele><time>2026-04-10T07:26:36.84Z</time></trkpt><trkpt lat="45.0720476" lon="7.7513508"><ele>289.0</ele><time>2026-04-10T07:26:38.84Z</time></trkpt><trkpt lat="45.0720271" lon="7.7514575"><ele>289.0</ele><time>2026-04-10T07:26:40.842Z</time></trkpt><trkpt lat="45.0720029" lon="7.7515469"><ele>289.0</ele><time>2026-04-10T07:26:42.839Z</time></trkpt><trkpt lat="45.0719647" lon="7.7516292"><ele>289.0</ele><time>2026-04-10T07:26:44.84Z</time></trkpt><trkpt lat="45.0719344" lon="7.7517185"><ele>289.0</ele><time>2026-04-10T07:26:46.841Z</time></trkpt><trkpt lat="45.0719078" lon="7.7518087"><ele>289.0</ele><time>2026-04-10T07:26:48.841Z</time></trkpt><trkpt lat="45.0718764" lon="7.7519205"><ele>289.0</ele><time>2026-04-10T07:26:51.84Z</time></trkpt><trkpt lat="45.071817" lon="7.7519778"><ele>289.0</ele><time>2026-04-10T07:26:53.84Z</time></trkpt><trkpt lat="45.0717358" lon="7.7520071"><ele>289.0</ele><time>2026-04-10T07:26:55.841Z</time></trkpt><trkpt lat="45.0716606" lon="7.7520277"><ele>289.0</ele><time>2026-04-10T07:26:57.84Z</time></trkpt><trkpt lat="45.0715879" lon="7.752048"><ele>290.3333333333333</ele><time>2026-04-10T07:26:59.841Z</time></trkpt><trkpt lat="45.0714979" lon="7.7520626"><ele>291.66666666666663</ele><time>2026-04-10T07:27:02.84Z</time></trkpt><trkpt lat="45.07141" lon="7.7520914"><ele>293.0</ele><time>2026-04-10T07:27:05.84Z</time></trkpt><trkpt lat="45.0713299" lon="7.7521094"><ele>294.3333333333333</ele><time>2026-04-10T07:27:07.842Z</time></trkpt><trkpt lat="45.0712436" lon="7.7521314"><ele>295.6666666666667</ele><time>2026-04-10T07:27:09.841Z</time></trkpt><trkpt lat="45.0711624" lon="7.7521487"><ele>297.0</ele><time>2026-04-10T07:27:11.841Z</time></trkpt><trkpt lat="45.0710921" lon="7.7521566"><ele>297.0</ele><time>2026-04-10T07:27:13.84Z</time></trkpt><trkpt lat="45.0710186" lon="7.752164"><ele>297.0</ele><time>2026-04-10T07:27:15.84Z</time></trkpt><trkpt lat="45.0709387" lon="7.7521713"><ele>297.0</ele><time>2026-04-10T07:27:17.842Z</time></trkpt><trkpt lat="45.0708615" lon="7.7521779"><ele>297.0</ele><time>2026-04-10T07:27:19.84Z</time></trkpt><trkpt lat="45.0707847" lon="7.7521793"><ele>297.0</ele><time>2026-04-10T07:27:21.84Z</time></trkpt><trkpt lat="45.0707099" lon="7.7521807"><ele>297.0</ele><time>2026-04-10T07:27:23.841Z</time></trkpt><trkpt lat="45.0706311" lon="7.7521867"><ele>297.8571428571429</ele><time>2026-04-10T07:27:25.841Z</time></trkpt><trkpt lat="45.0705557" lon="7.7522017"><ele>298.7142857142857</ele><time>2026-04-10T07:27:27.839Z</time></trkpt><trkpt lat="45.0704832" lon="7.7522339"><ele>299.57142857142856</ele><time>2026-04-10T07:27:29.84Z</time></trkpt><trkpt lat="45.0704172" lon="7.7522814"><ele>300.42857142857144</ele><time>2026-04-10T07:27:31.839Z</time></trkpt><trkpt lat="45.070361" lon="7.752343"><ele>301.2857142857143</ele><time>2026-04-10T07:27:33.839Z</time></trkpt><trkpt lat="45.0703037" lon="7.7524106"><ele>302.14285714285717</ele><time>2026-04-10T07:27:35.839Z</time></trkpt><trkpt lat="45.0702522" lon="7.7524883"><ele>303.0</ele><time>2026-04-10T07:27:37.839Z</time></trkpt><trkpt lat="45.0702047" lon="7.7525779"><ele>303.0</ele><time>2026-04-10T07:27:39.841Z</time></trkpt><trkpt lat="45.0701631" lon="7.7526732"><ele>303.0</ele><time>2026-04-10T07:27:41.839Z</time></trkpt><trkpt lat="45.0701197" lon="7.752775"><ele>303.0</ele><time>2026-04-10T07:27:43.84Z</time></trkpt><trkpt lat="45.0700704" lon="7.7528693"><ele>303.0</ele><time>2026-04-10T07:27:45.84Z</time></trkpt><trkpt lat="45.0700119" lon="7.7529517"><ele>303.0</ele><time>2026-04-10T07:27:47.839Z</time></trkpt><trkpt lat="45.0699359" lon="7.7530057"><ele>303.0</ele><time>2026-04-10T07:27:49.839Z</time></trkpt><trkpt lat="45.0698595" lon="7.7530424"><ele>303.0</ele><time>2026-04-10T07:27:51.84Z</time></trkpt><trkpt lat="45.0697895" lon="7.7530866"><ele>303.0</ele><time>2026-04-10T07:27:53.84Z</time></trkpt><trkpt lat="45.0697261" lon="7.7531365"><ele>303.0</ele><time>2026-04-10T07:27:55.841Z</time></trkpt><trkpt lat="45.0696504" lon="7.7531588"><ele>303.0</ele><time>2026-04-10T07:27:57.84Z</time></trkpt><trkpt lat="45.0695725" lon="7.7531809"><ele>303.0</ele><time>2026-04-10T07:27:59.839Z</time></trkpt><trkpt lat="45.0694878" lon="7.75321"><ele>303.0</ele><time>2026-04-10T07:28:01.84Z</time></trkpt><trkpt lat="45.0694091" lon="7.7532413"><ele>303.0</ele><time>2026-04-10T07:28:03.84Z</time></trkpt><trkpt lat="45.0693308" lon="7.7532784"><ele>303.0</ele><time>2026-04-10T07:28:05.84Z</time></trkpt><trkpt lat="45.0692558" lon="7.7533096"><ele>303.0</ele><time>2026-04-10T07:28:07.839Z</time></trkpt><trkpt lat="45.0691815" lon="7.7533403"><ele>303.0</ele><time>2026-04-10T07:28:09.841Z</time></trkpt><trkpt lat="45.0691115" lon="7.7533662"><ele>303.0</ele><time>2026-04-10T07:28:11.84Z</time></trkpt><trkpt lat="45.0690364" lon="7.7534026"><ele>303.0</ele><time>2026-04-10T07:28:13.841Z</time></trkpt><trkpt lat="45.0689647" lon="7.7534523"><ele>306.3333333333333</ele><time>2026-04-10T07:28:15.84Z</time></trkpt><trkpt lat="45.0688968" lon="7.7535135"><ele>309.6666666666667</ele><time>2026-04-10T07:28:17.84Z</time></trkpt><trkpt lat="45.0688338" lon="7.7535871"><ele>313.0</ele><time>2026-04-10T07:28:19.841Z</time></trkpt><trkpt lat="45.0687756" lon="7.7536643"><ele>316.33333333333337</ele><time>2026-04-10T07:28:21.839Z</time></trkpt><trkpt lat="45.0687217" lon="7.7537379"><ele>319.6666666666667</ele><time>2026-04-10T07:28:23.841Z</time></trkpt><trkpt lat="45.0686737" lon="7.7538178"><ele>323.0</ele><time>2026-04-10T07:28:25.841Z</time></trkpt><trkpt lat="45.0686298" lon="7.7539139"><ele>323.00000000000006</ele><time>2026-04-10T07:28:27.84Z</time></trkpt><trkpt lat="45.0685894" lon="7.7540024"><ele>323.0</ele><time>2026-04-10T07:28:29.84Z</time></trkpt><trkpt lat="45.068549" lon="7.7540863"><ele>323.0</ele><time>2026-04-10T07:28:31.84Z</time></trkpt><trkpt lat="45.0685241" lon="7.7541768"><ele>323.0</ele><time>2026-04-10T07:28:33.84Z</time></trkpt><trkpt lat="45.068569" lon="7.7542711"><ele>323.0</ele><time>2026-04-10T07:28:36.839Z</time></trkpt><trkpt lat="45.0686341" lon="7.754327"><ele>323.00000000000006</ele><time>2026-04-10T07:28:38.841Z</time></trkpt><trkpt lat="45.0686611" lon="7.7544233"><ele>323.0</ele><time>2026-04-10T07:28:40.84Z</time></trkpt><trkpt lat="45.0686573" lon="7.754529"><ele>321.0</ele><time>2026-04-10T07:28:42.841Z</time></trkpt><trkpt lat="45.0686401" lon="7.7546413"><ele>319.0</ele><time>2026-04-10T07:28:44.839Z</time></trkpt><trkpt lat="45.0686278" lon="7.754755"><ele>317.0</ele><time>2026-04-10T07:28:46.84Z</time></trkpt><trkpt lat="45.0686144" lon="7.754871"><ele>315.0</ele><time>2026-04-10T07:28:48.84Z</time></trkpt><trkpt lat="45.0686008" lon="7.754984"><ele>313.0</ele><time>2026-04-10T07:28:50.841Z</time></trkpt><trkpt lat="45.0685952" lon="7.7551036"><ele>311.0</ele><time>2026-04-10T07:28:52.84Z</time></trkpt><trkpt lat="45.0685913" lon="7.7552181"><ele>311.0</ele><time>2026-04-10T07:28:54.84Z</time></trkpt><trkpt lat="45.068609" lon="7.7553271"><ele>311.0</ele><time>2026-04-10T07:28:56.841Z</time></trkpt><trkpt lat="45.0686359" lon="7.7554099"><ele>311.0</ele><time>2026-04-10T07:28:58.841Z</time></trkpt><trkpt lat="45.0686795" lon="7.7555179"><ele>311.0</ele><time>2026-04-10T07:29:01.84Z</time></trkpt><trkpt lat="45.0687211" lon="7.7556246"><ele>311.0</ele><time>2026-04-10T07:29:04.842Z</time></trkpt><trkpt lat="45.0687622" lon="7.7557198"><ele>311.0</ele><time>2026-04-10T07:29:07.842Z</time></trkpt><trkpt lat="45.0688293" lon="7.7557773"><ele>311.0</ele><time>2026-04-10T07:29:11.842Z</time></trkpt><trkpt lat="45.068879" lon="7.7558791"><ele>311.0</ele><time>2026-04-10T07:29:14.841Z</time></trkpt><trkpt lat="45.0689136" lon="7.7559736"><ele>311.0</ele><time>2026-04-10T07:29:16.841Z</time></trkpt><trkpt lat="45.0689563" lon="7.7560571"><ele>311.0</ele><time>2026-04-10T07:29:19.84Z</time></trkpt><trkpt lat="45.0690046" lon="7.7561273"><ele>311.0</ele><time>2026-04-10T07:29:22.841Z</time></trkpt><trkpt lat="45.0690378" lon="7.7562398"><ele>311.0</ele><time>2026-04-10T07:29:25.841Z</time></trkpt><trkpt lat="45.0690399" lon="7.7563685"><ele>312.1666666666667</ele><time>2026-04-10T07:29:28.842Z</time></trkpt><trkpt lat="45.069057" lon="7.7564737"><ele>313.33333333333337</ele><time>2026-04-10T07:29:31.841Z</time></trkpt><trkpt lat="45.0690888" lon="7.7565746"><ele>314.5</ele><time>2026-04-10T07:29:34.841Z</time></trkpt><trkpt lat="45.0691465" lon="7.7566926"><ele>315.6666666666667</ele><time>2026-04-10T07:29:38.841Z</time></trkpt><trkpt lat="45.0691446" lon="7.7567877"><ele>316.8333333333333</ele><time>2026-04-10T07:29:40.841Z</time></trkpt><trkpt lat="45.0692005" lon="7.7568678"><ele>318.0</ele><time>2026-04-10T07:29:43.84Z</time></trkpt><trkpt lat="45.0692407" lon="7.7569559"><ele>321.0</ele><time>2026-04-10T07:29:46.841Z</time></trkpt><trkpt lat="45.0692447" lon="7.7570546"><ele>324.0</ele><time>2026-04-10T07:29:49.84Z</time></trkpt><trkpt lat="45.0693042" lon="7.7571257"><ele>327.0</ele><time>2026-04-10T07:29:52.84Z</time></trkpt><trkpt lat="45.0693678" lon="7.757207"><ele>330.0</ele><time>2026-04-10T07:29:55.841Z</time></trkpt><trkpt lat="45.0694293" lon="7.7572933"><ele>333.0</ele><time>2026-04-10T07:29:58.841Z</time></trkpt><trkpt lat="45.0694747" lon="7.7574005"><ele>336.0</ele><time>2026-04-10T07:30:01.84Z</time></trkpt><trkpt lat="45.0695139" lon="7.7575174"><ele>336.0</ele><time>2026-04-10T07:30:04.84Z</time></trkpt><trkpt lat="45.0695481" lon="7.7576351"><ele>336.0</ele><time>2026-04-10T07:30:07.841Z</time></trkpt><trkpt lat="45.0695703" lon="7.7577588"><ele>336.0</ele><time>2026-04-10T07:30:10.841Z</time></trkpt><trkpt lat="45.0695916" lon="7.7578857"><ele>336.0</ele><time>2026-04-10T07:30:13.842Z</time></trkpt><trkpt lat="45.0696194" lon="7.7580095"><ele>336.0</ele><time>2026-04-10T07:30:16.84Z</time></trkpt><trkpt lat="45.0696241" lon="7.7581193"><ele>336.0</ele><time>2026-04-10T07:30:19.841Z</time></trkpt><trkpt lat="45.069625" lon="7.7582434"><ele>338.1666666666667</ele><time>2026-04-10T07:30:22.841Z</time></trkpt><trkpt lat="45.0696541" lon="7.7583308"><ele>340.3333333333333</ele><time>2026-04-10T07:30:25.841Z</time></trkpt><trkpt lat="45.0696897" lon="7.7584444"><ele>342.5</ele><time>2026-04-10T07:30:28.841Z</time></trkpt><trkpt lat="45.0697189" lon="7.7585576"><ele>344.66666666666663</ele><time>2026-04-10T07:30:31.84Z</time></trkpt><trkpt lat="45.06976" lon="7.7586748"><ele>346.8333333333333</ele><time>2026-04-10T07:30:34.841Z</time></trkpt><trkpt lat="45.0697879" lon="7.7587577"><ele>349.0</ele><time>2026-04-10T07:30:36.841Z</time></trkpt><trkpt lat="45.0698077" lon="7.7588855"><ele>348.5</ele><time>2026-04-10T07:30:39.84Z</time></trkpt><trkpt lat="45.069823" lon="7.7589723"><ele>348.0</ele><time>2026-04-10T07:30:41.84Z</time></trkpt><trkpt lat="45.0698528" lon="7.759094"><ele>347.5</ele><time>2026-04-10T07:30:44.842Z</time></trkpt><trkpt lat="45.0698604" lon="7.7592109"><ele>347.0</ele><time>2026-04-10T07:30:47.84Z</time></trkpt><trkpt lat="45.0698686" lon="7.7593229"><ele>346.5</ele><time>2026-04-10T07:30:50.841Z</time></trkpt><trkpt lat="45.0698958" lon="7.7594402"><ele>346.0</ele><time>2026-04-10T07:30:53.84Z</time></trkpt><trkpt lat="45.0699529" lon="7.7595423"><ele>346.0</ele><time>2026-04-10T07:30:56.841Z</time></trkpt><trkpt lat="45.0700083" lon="7.7596366"><ele>346.0</ele><time>2026-04-10T07:30:59.841Z</time></trkpt><trkpt lat="45.0700766" lon="7.75972"><ele>346.0</ele><time>2026-04-10T07:31:02.84Z</time></trkpt><trkpt lat="45.0701338" lon="7.7598155"><ele>346.0</ele><time>2026-04-10T07:31:05.839Z</time></trkpt><trkpt lat="45.0701747" lon="7.7599085"><ele>346.0</ele><time>2026-04-10T07:31:08.841Z</time></trkpt><trkpt lat="45.0702071" lon="7.76003"><ele>346.0</ele><time>2026-04-10T07:31:11.841Z</time></trkpt><trkpt lat="45.070222" lon="7.7601427"><ele>347.57142857142856</ele><time>2026-04-10T07:31:15.841Z</time></trkpt><trkpt lat="45.070242" lon="7.760228"><ele>349.14285714285717</ele><time>2026-04-10T07:31:17.84Z</time></trkpt><trkpt lat="45.0702374" lon="7.760342"><ele>350.7142857142857</ele><time>2026-04-10T07:31:20.84Z</time></trkpt><trkpt lat="45.0702099" lon="7.7604431"><ele>352.2857142857143</ele><time>2026-04-10T07:31:23.84Z</time></trkpt><trkpt lat="45.0702341" lon="7.7605266"><ele>353.8571428571429</ele><time>2026-04-10T07:31:25.841Z</time></trkpt><trkpt lat="45.0702512" lon="7.7606178"><ele>355.42857142857144</ele><time>2026-04-10T07:31:27.841Z</time></trkpt><trkpt lat="45.0702963" lon="7.7606901"><ele>357.0</ele><time>2026-04-10T07:31:29.841Z</time></trkpt><trkpt lat="45.0703524" lon="7.7607585"><ele>357.0</ele><time>2026-04-10T07:31:31.841Z</time></trkpt><trkpt lat="45.0704066" lon="7.7608557"><ele>357.0</ele><time>2026-04-10T07:31:34.841Z</time></trkpt><trkpt lat="45.0704521" lon="7.7609756"><ele>357.0</ele><time>2026-04-10T07:31:37.841Z</time></trkpt><trkpt lat="45.070492" lon="7.7610491"><ele>357.0</ele><time>2026-04-10T07:31:39.842Z</time></trkpt><trkpt lat="45.0705364" lon="7.7611276"><ele>357.0</ele><time>2026-04-10T07:31:41.841Z</time></trkpt><trkpt lat="45.0705671" lon="7.7612111"><ele>357.0</ele><time>2026-04-10T07:31:43.84Z</time></trkpt><trkpt lat="45.0705868" lon="7.761298"><ele>359.14285714285717</ele><time>2026-04-10T07:31:45.841Z</time></trkpt><trkpt lat="45.0705935" lon="7.7613936"><ele>361.2857142857143</ele><time>2026-04-10T07:31:48.841Z</time></trkpt><trkpt lat="45.0706396" lon="7.7614668"><ele>363.42857142857144</ele><time>2026-04-10T07:31:53.841Z</time></trkpt><trkpt lat="45.0706897" lon="7.7614034"><ele>365.57142857142856</ele><time>2026-04-10T07:31:59.841Z</time></trkpt><trkpt lat="45.0706679" lon="7.7613098"><ele>367.7142857142857</ele><time>2026-04-10T07:32:03.84Z</time></trkpt><trkpt lat="45.0706388" lon="7.7612307"><ele>369.8571428571429</ele><time>2026-04-10T07:32:08.841Z</time></trkpt><trkpt lat="45.070658" lon="7.7611398"><ele>372.0</ele><time>2026-04-10T07:32:13.841Z</time></trkpt><trkpt lat="45.0707022" lon="7.7610576"><ele>369.8571428571429</ele><time>2026-04-10T07:32:16.84Z</time></trkpt><trkpt lat="45.0707454" lon="7.7609763"><ele>367.7142857142857</ele><time>2026-04-10T07:32:19.841Z</time></trkpt><trkpt lat="45.070771" lon="7.7608934"><ele>365.57142857142856</ele><time>2026-04-10T07:32:22.841Z</time></trkpt><trkpt lat="45.0707783" lon="7.7607999"><ele>363.42857142857144</ele><time>2026-04-10T07:32:25.841Z</time></trkpt><trkpt lat="45.0707693" lon="7.7607102"><ele>361.2857142857143</ele><time>2026-04-10T07:32:28.84Z</time></trkpt><trkpt lat="45.0707461" lon="7.760616"><ele>359.14285714285717</ele><time>2026-04-10T07:32:32.84Z</time></trkpt><trkpt lat="45.0706954" lon="7.7605492"><ele>357.0</ele><time>2026-04-10T07:32:36.841Z</time></trkpt><trkpt lat="45.0706728" lon="7.7604512"><ele>357.0</ele><time>2026-04-10T07:32:39.84Z</time></trkpt><trkpt lat="45.0706772" lon="7.7603373"><ele>357.0</ele><time>2026-04-10T07:32:42.841Z</time></trkpt><trkpt lat="45.0707431" lon="7.7603778"><ele>357.0</ele><time>2026-04-10T07:32:50.841Z</time></trkpt><trkpt lat="45.0708022" lon="7.7604311"><ele>357.0</ele><time>2026-04-10T07:32:57.841Z</time></trkpt><trkpt lat="45.0708545" lon="7.7605"><ele>357.0</ele><time>2026-04-10T07:33:01.841Z</time></trkpt><trkpt lat="45.0708708" lon="7.7605959"><ele>357.0</ele><time>2026-04-10T07:33:05.841Z</time></trkpt><trkpt lat="45.0708956" lon="7.7606956"><ele>357.0</ele><time>2026-04-10T07:33:08.841Z</time></trkpt><trkpt lat="45.0709025" lon="7.760786"><ele>356.8333333333333</ele><time>2026-04-10T07:33:11.84Z</time></trkpt><trkpt lat="45.0709172" lon="7.7608761"><ele>356.6666666666667</ele><time>2026-04-10T07:33:14.841Z</time></trkpt><trkpt lat="45.0709484" lon="7.7609873"><ele>356.5</ele><time>2026-04-10T07:33:17.841Z</time></trkpt><trkpt lat="45.070956" lon="7.7610966"><ele>356.33333333333337</ele><time>2026-04-10T07:33:21.841Z</time></trkpt><trkpt lat="45.0709622" lon="7.7612165"><ele>356.1666666666667</ele><time>2026-04-10T07:33:25.84Z</time></trkpt><trkpt lat="45.0709823" lon="7.7613189"><ele>356.0</ele><time>2026-04-10T07:33:28.84Z</time></trkpt><trkpt lat="45.0710227" lon="7.7614"><ele>356.33333333333337</ele><time>2026-04-10T07:33:31.841Z</time></trkpt><trkpt lat="45.0710734" lon="7.7615157"><ele>356.6666666666667</ele><time>2026-04-10T07:33:36.84Z</time></trkpt><trkpt lat="45.0711199" lon="7.7616084"><ele>357.0</ele><time>2026-04-10T07:33:39.842Z</time></trkpt><trkpt lat="45.0711533" lon="7.7616907"><ele>357.3333333333333</ele><time>2026-04-10T07:33:41.841Z</time></trkpt><trkpt lat="45.071182" lon="7.7617958"><ele>357.66666666666663</ele><time>2026-04-10T07:33:45.841Z</time></trkpt><trkpt lat="45.0712243" lon="7.7618876"><ele>358.0</ele><time>2026-04-10T07:33:48.842Z</time></trkpt><trkpt lat="45.0712597" lon="7.7619963"><ele>358.28571428571433</ele><time>2026-04-10T07:33:51.84Z</time></trkpt><trkpt lat="45.0712885" lon="7.7620833"><ele>358.57142857142856</ele><time>2026-04-10T07:33:53.842Z</time></trkpt><trkpt lat="45.0713204" lon="7.7621715"><ele>358.8571428571429</ele><time>2026-04-10T07:33:56.84Z</time></trkpt><trkpt lat="45.0713873" lon="7.7622369"><ele>359.14285714285717</ele><time>2026-04-10T07:34:02.841Z</time></trkpt><trkpt lat="45.0714459" lon="7.7622714"><ele>359.42857142857144</ele><time>2026-04-10T07:34:05.841Z</time></trkpt><trkpt lat="45.0715108" lon="7.7622384"><ele>359.7142857142857</ele><time>2026-04-10T07:34:09.842Z</time></trkpt><trkpt lat="45.0715368" lon="7.7621514"><ele>360.0</ele><time>2026-04-10T07:34:12.841Z</time></trkpt><trkpt lat="45.071566" lon="7.7620444"><ele>360.0</ele><time>2026-04-10T07:34:16.841Z</time></trkpt><trkpt lat="45.0715662" lon="7.7619427"><ele>360.0</ele><time>2026-04-10T07:34:20.841Z</time></trkpt><trkpt lat="45.0715549" lon="7.761848"><ele>360.0</ele><time>2026-04-10T07:34:24.84Z</time></trkpt><trkpt lat="45.0715241" lon="7.7617452"><ele>360.0</ele><time>2026-04-10T07:34:29.84Z</time></trkpt><trkpt lat="45.0715096" lon="7.7616492"><ele>360.0</ele><time>2026-04-10T07:34:33.84Z</time></trkpt><trkpt lat="45.0715448" lon="7.7615691"><ele>360.0</ele><time>2026-04-10T07:34:36.841Z</time></trkpt><trkpt lat="45.0715784" lon="7.7614705"><ele>360.0</ele><time>2026-04-10T07:34:38.84Z</time></trkpt><trkpt lat="45.0715515" lon="7.7613819"><ele>359.7142857142857</ele><time>2026-04-10T07:34:42.841Z</time></trkpt><trkpt lat="45.0715814" lon="7.7613019"><ele>359.42857142857144</ele><time>2026-04-10T07:34:45.842Z</time></trkpt><trkpt lat="45.0716108" lon="7.7612078"><ele>359.14285714285717</ele><time>2026-04-10T07:34:48.841Z</time></trkpt><trkpt lat="45.0716372" lon="7.7611262"><ele>358.8571428571429</ele><time>2026-04-10T07:34:51.84Z</time></trkpt><trkpt lat="45.0716281" lon="7.7610163"><ele>358.57142857142856</ele><time>2026-04-10T07:34:55.84Z</time></trkpt><trkpt lat="45.0716468" lon="7.7609305"><ele>358.28571428571433</ele><time>2026-04-10T07:34:58.84Z</time></trkpt><trkpt lat="45.0716622" lon="7.7608145"><ele>358.0</ele><time>2026-04-10T07:35:02.84Z</time></trkpt><trkpt lat="45.071673" lon="7.7607231"><ele>362.28571428571433</ele><time>2026-04-10T07:35:05.841Z</time></trkpt><trkpt lat="45.0716893" lon="7.7606341"><ele>366.57142857142856</ele><time>2026-04-10T07:35:08.841Z</time></trkpt><trkpt lat="45.0717297" lon="7.7605319"><ele>370.8571428571429</ele><time>2026-04-10T07:35:12.841Z</time></trkpt><trkpt lat="45.0717875" lon="7.7604672"><ele>375.14285714285717</ele><time>2026-04-10T07:36:08.84Z</time></trkpt><trkpt lat="45.0718482" lon="7.7604334"><ele>379.42857142857144</ele><time>2026-04-10T07:36:12.841Z</time></trkpt><trkpt lat="45.0718989" lon="7.760369"><ele>383.7142857142857</ele><time>2026-04-10T07:36:16.841Z</time></trkpt><trkpt lat="45.071947" lon="7.7602958"><ele>388.0</ele><time>2026-04-10T07:36:20.842Z</time></trkpt><trkpt lat="45.0720103" lon="7.760225"><ele>388.0</ele><time>2026-04-10T07:36:24.84Z</time></trkpt><trkpt lat="45.0720698" lon="7.7601795"><ele>388.0</ele><time>2026-04-10T07:36:27.84Z</time></trkpt><trkpt lat="45.0721355" lon="7.760149"><ele>388.0</ele><time>2026-04-10T07:36:30.841Z</time></trkpt><trkpt lat="45.0722033" lon="7.7601683"><ele>388.0</ele><time>2026-04-10T07:36:33.841Z</time></trkpt><trkpt lat="45.0722273" lon="7.7602783"><ele>388.0</ele><time>2026-04-10T07:36:37.841Z</time></trkpt><trkpt lat="45.072199" lon="7.7603715"><ele>388.0</ele><time>2026-04-10T07:36:40.841Z</time></trkpt><trkpt lat="45.0721657" lon="7.7604538"><ele>388.0</ele><time>2026-04-10T07:36:43.841Z</time></trkpt><trkpt lat="45.0721348" lon="7.7605441"><ele>388.00000000000006</ele><time>2026-04-10T07:36:46.84Z</time></trkpt><trkpt lat="45.0721023" lon="7.7606383"><ele>388.0</ele><time>2026-04-10T07:36:49.841Z</time></trkpt><trkpt lat="45.072069" lon="7.7607456"><ele>388.0</ele><time>2026-04-10T07:36:53.84Z</time></trkpt><trkpt lat="45.0720369" lon="7.7608431"><ele>388.0</ele><time>2026-04-10T07:36:57.842Z</time></trkpt><trkpt lat="45.0720197" lon="7.7609434"><ele>388.00000000000006</ele><time>2026-04-10T07:37:01.841Z</time></trkpt><trkpt lat="45.0719896" lon="7.7610431"><ele>388.0</ele><time>2026-04-10T07:37:05.841Z</time></trkpt><trkpt lat="45.0720425" lon="7.7611149"><ele>388.0</ele><time>2026-04-10T07:37:09.841Z</time></trkpt><trkpt lat="45.0720918" lon="7.7610241"><ele>388.0</ele><time>2026-04-10T07:37:12.842Z</time></trkpt><trkpt lat="45.0721204" lon="7.760929"><ele>388.0</ele><time>2026-04-10T07:37:15.841Z</time></trkpt><trkpt lat="45.0721601" lon="7.7608475"><ele>388.0</ele><time>2026-04-10T07:37:18.841Z</time></trkpt><trkpt lat="45.0722038" lon="7.7607651"><ele>388.0</ele><time>2026-04-10T07:37:21.84Z</time></trkpt><trkpt lat="45.0722367" lon="7.7606827"><ele>388.0</ele><time>2026-04-10T07:37:24.84Z</time></trkpt><trkpt lat="45.0722749" lon="7.7606067"><ele>388.0</ele><time>2026-04-10T07:37:27.841Z</time></trkpt><trkpt lat="45.0723241" lon="7.7605163"><ele>388.0</ele><time>2026-04-10T07:37:31.841Z</time></trkpt><trkpt lat="45.0723881" lon="7.7604659"><ele>388.0</ele><time>2026-04-10T07:37:35.84Z</time></trkpt><trkpt lat="45.0724276" lon="7.7605429"><ele>388.0</ele><time>2026-04-10T07:37:38.841Z</time></trkpt><trkpt lat="45.0724019" lon="7.7606394"><ele>388.0</ele><time>2026-04-10T07:37:41.841Z</time></trkpt><trkpt lat="45.0723548" lon="7.760719"><ele>388.0</ele><time>2026-04-10T07:37:44.84Z</time></trkpt><trkpt lat="45.0723251" lon="7.760832"><ele>388.0</ele><time>2026-04-10T07:37:48.84Z</time></trkpt><trkpt lat="45.0723027" lon="7.7609193"><ele>388.0</ele><time>2026-04-10T07:37:51.84Z</time></trkpt><trkpt lat="45.0722869" lon="7.7610182"><ele>388.0</ele><time>2026-04-10T07:37:54.842Z</time></trkpt><trkpt lat="45.07228" lon="7.7611116"><ele>388.0</ele><time>2026-04-10T07:37:57.841Z</time></trkpt><trkpt lat="45.0722864" lon="7.7612088"><ele>388.0</ele><time>2026-04-10T07:38:00.841Z</time></trkpt><trkpt lat="45.0723214" lon="7.7612947"><ele>388.0</ele><time>2026-04-10T07:38:03.84Z</time></trkpt><trkpt lat="45.0723962" lon="7.7613245"><ele>388.0</ele><time>2026-04-10T07:38:07.843Z</time></trkpt><trkpt lat="45.0724721" lon="7.7612874"><ele>388.0</ele><time>2026-04-10T07:38:10.84Z</time></trkpt><trkpt lat="45.0725163" lon="7.7612033"><ele>388.0</ele><time>2026-04-10T07:38:13.84Z</time></trkpt><trkpt lat="45.0725364" lon="7.7611046"><ele>392.1666666666667</ele><time>2026-04-10T07:38:16.841Z</time></trkpt><trkpt lat="45.07255" lon="7.7610039"><ele>396.33333333333337</ele><time>2026-04-10T07:38:19.841Z</time></trkpt><trkpt lat="45.0725738" lon="7.7609202"><ele>400.5</ele><time>2026-04-10T07:38:22.84Z</time></trkpt><trkpt lat="45.0726343" lon="7.760878"><ele>404.66666666666663</ele><time>2026-04-10T07:38:26.841Z</time></trkpt><trkpt lat="45.0726597" lon="7.7607778"><ele>408.8333333333333</ele><time>2026-04-10T07:38:29.841Z</time></trkpt><trkpt lat="45.0726721" lon="7.7606592"><ele>413.0</ele><time>2026-04-10T07:38:32.842Z</time></trkpt><trkpt lat="45.0726847" lon="7.7605359"><ele>412.99999999999994</ele><time>2026-04-10T07:38:35.842Z</time></trkpt><trkpt lat="45.0726937" lon="7.760416"><ele>413.0</ele><time>2026-04-10T07:38:38.841Z</time></trkpt><trkpt lat="45.0727065" lon="7.7602979"><ele>413.0</ele><time>2026-04-10T07:38:41.841Z</time></trkpt><trkpt lat="45.0727305" lon="7.7601961"><ele>413.0</ele><time>2026-04-10T07:38:44.84Z</time></trkpt><trkpt lat="45.0727407" lon="7.7600969"><ele>412.99999999999994</ele><time>2026-04-10T07:38:47.841Z</time></trkpt><trkpt lat="45.0727551" lon="7.7599624"><ele>413.0</ele><time>2026-04-10T07:38:50.841Z</time></trkpt><trkpt lat="45.0727636" lon="7.7598557"><ele>413.0</ele><time>2026-04-10T07:38:52.841Z</time></trkpt><trkpt lat="45.0727722" lon="7.7597556"><ele>413.0</ele><time>2026-04-10T07:38:54.841Z</time></trkpt><trkpt lat="45.0727802" lon="7.7596564"><ele>413.0</ele><time>2026-04-10T07:38:56.841Z</time></trkpt><trkpt lat="45.0727825" lon="7.759553"><ele>413.0</ele><time>2026-04-10T07:38:58.842Z</time></trkpt><trkpt lat="45.0727916" lon="7.7594558"><ele>413.0</ele><time>2026-04-10T07:39:00.842Z</time></trkpt><trkpt lat="45.0728472" lon="7.7593621"><ele>413.0</ele><time>2026-04-10T07:39:03.841Z</time></trkpt><trkpt lat="45.072912" lon="7.7593524"><ele>413.0</ele><time>2026-04-10T07:39:05.841Z</time></trkpt><trkpt lat="45.0729814" lon="7.7593491"><ele>412.99999999999994</ele><time>2026-04-10T07:39:07.841Z</time></trkpt><trkpt lat="45.0730632" lon="7.7593603"><ele>413.0</ele><time>2026-04-10T07:39:09.84Z</time></trkpt><trkpt lat="45.0731404" lon="7.7594138"><ele>413.0</ele><time>2026-04-10T07:39:11.842Z</time></trkpt><trkpt lat="45.0732007" lon="7.7594809"><ele>413.0</ele><time>2026-04-10T07:39:13.84Z</time></trkpt><trkpt lat="45.0732599" lon="7.7595369"><ele>412.99999999999994</ele><time>2026-04-10T07:39:15.842Z</time></trkpt><trkpt lat="45.073319" lon="7.7595879"><ele>413.0</ele><time>2026-04-10T07:39:17.84Z</time></trkpt><trkpt lat="45.0733769" lon="7.7596504"><ele>414.2857142857143</ele><time>2026-04-10T07:39:19.842Z</time></trkpt><trkpt lat="45.0734168" lon="7.7597245"><ele>415.57142857142856</ele><time>2026-04-10T07:39:21.841Z</time></trkpt><trkpt lat="45.0734529" lon="7.7598143"><ele>416.8571428571429</ele><time>2026-04-10T07:39:25.842Z</time></trkpt><trkpt lat="45.0734766" lon="7.7598975"><ele>418.1428571428571</ele><time>2026-04-10T07:39:38.841Z</time></trkpt><trkpt lat="45.0735174" lon="7.7599761"><ele>419.42857142857144</ele><time>2026-04-10T07:39:43.841Z</time></trkpt><trkpt lat="45.0735725" lon="7.7600493"><ele>420.7142857142857</ele><time>2026-04-10T07:39:47.841Z</time></trkpt><trkpt lat="45.0736315" lon="7.7601017"><ele>422.0</ele><time>2026-04-10T07:39:51.841Z</time></trkpt><trkpt lat="45.0736827" lon="7.7601774"><ele>423.0</ele><time>2026-04-10T07:39:56.841Z</time></trkpt><trkpt lat="45.0737292" lon="7.7602519"><ele>424.0</ele><time>2026-04-10T07:40:02.842Z</time></trkpt><trkpt lat="45.0737525" lon="7.7603405"><ele>425.0</ele><time>2026-04-10T07:40:09.841Z</time></trkpt><trkpt lat="45.0738043" lon="7.7604114"><ele>426.0</ele><time>2026-04-10T07:40:14.841Z</time></trkpt><trkpt lat="45.0738585" lon="7.7604747"><ele>427.0</ele><time>2026-04-10T07:40:21.841Z</time></trkpt><trkpt lat="45.0739157" lon="7.7605491"><ele>428.0</ele><time>2026-04-10T07:40:27.842Z</time></trkpt><trkpt lat="45.0739685" lon="7.7606212"><ele>429.0</ele><time>2026-04-10T07:40:31.841Z</time></trkpt><trkpt lat="45.0740237" lon="7.7607037"><ele>429.0</ele><time>2026-04-10T07:40:37.841Z</time></trkpt><trkpt lat="45.0740383" lon="7.7607968"><ele>429.0</ele><time>2026-04-10T07:40:41.842Z</time></trkpt><trkpt lat="45.0740181" lon="7.7608821"><ele>429.0</ele><time>2026-04-10T07:40:45.842Z</time></trkpt><trkpt lat="45.0739525" lon="7.7609193"><ele>429.0</ele><time>2026-04-10T07:40:50.843Z</time></trkpt><trkpt lat="45.0738977" lon="7.7610048"><ele>429.0</ele><time>2026-04-10T07:40:54.841Z</time></trkpt><trkpt lat="45.0738585" lon="7.7611105"><ele>429.0</ele><time>2026-04-10T07:40:57.841Z</time></trkpt><trkpt lat="45.0738512" lon="7.761222"><ele>429.0</ele><time>2026-04-10T07:41:01.84Z</time></trkpt><trkpt lat="45.0738823" lon="7.7613201"><ele>429.0</ele><time>2026-04-10T07:41:05.841Z</time></trkpt><trkpt lat="45.0739361" lon="7.761418"><ele>429.0</ele><time>2026-04-10T07:41:11.841Z</time></trkpt><trkpt lat="45.0739934" lon="7.7614971"><ele>429.0</ele><time>2026-04-10T07:41:20.842Z</time></trkpt><trkpt lat="45.074036" lon="7.7615848"><ele>429.0</ele><time>2026-04-10T07:41:26.84Z</time></trkpt><trkpt lat="45.0740944" lon="7.7616614"><ele>429.0</ele><time>2026-04-10T07:41:30.842Z</time></trkpt><trkpt lat="45.0741295" lon="7.7617519"><ele>429.0</ele><time>2026-04-10T07:41:35.84Z</time></trkpt><trkpt lat="45.0741915" lon="7.7617822"><ele>431.8571428571429</ele><time>2026-04-10T07:41:40.842Z</time></trkpt><trkpt lat="45.074245" lon="7.7618687"><ele>434.7142857142857</ele><time>2026-04-10T07:41:45.841Z</time></trkpt><trkpt lat="45.0742759" lon="7.7619514"><ele>437.57142857142856</ele><time>2026-04-10T07:41:48.841Z</time></trkpt><trkpt lat="45.0743025" lon="7.7620483"><ele>440.42857142857144</ele><time>2026-04-10T07:41:51.841Z</time></trkpt><trkpt lat="45.0743338" lon="7.7621549"><ele>443.2857142857142</ele><time>2026-04-10T07:41:55.841Z</time></trkpt><trkpt lat="45.0743562" lon="7.7622477"><ele>446.1428571428571</ele><time>2026-04-10T07:41:58.841Z</time></trkpt><trkpt lat="45.0743785" lon="7.7623325"><ele>449.0</ele><time>2026-04-10T07:42:01.841Z</time></trkpt><trkpt lat="45.0744115" lon="7.7624157"><ele>448.99999999999994</ele><time>2026-04-10T07:42:04.841Z</time></trkpt><trkpt lat="45.0744417" lon="7.7625034"><ele>449.0</ele><time>2026-04-10T07:42:07.841Z</time></trkpt><trkpt lat="45.0744613" lon="7.7626123"><ele>449.0</ele><time>2026-04-10T07:42:10.843Z</time></trkpt><trkpt lat="45.0744635" lon="7.7627464"><ele>449.0</ele><time>2026-04-10T07:42:13.841Z</time></trkpt><trkpt lat="45.0744647" lon="7.7628691"><ele>448.99999999999994</ele><time>2026-04-10T07:42:16.841Z</time></trkpt><trkpt lat="45.0744849" lon="7.762985"><ele>449.0</ele><time>2026-04-10T07:42:19.841Z</time></trkpt><trkpt lat="45.0745228" lon="7.7630699"><ele>448.0</ele><time>2026-04-10T07:42:22.84Z</time></trkpt><trkpt lat="45.0745563" lon="7.7631482"><ele>446.99999999999994</ele><time>2026-04-10T07:42:28.842Z</time></trkpt><trkpt lat="45.0746173" lon="7.7632167"><ele>446.0</ele><time>2026-04-10T07:42:32.841Z</time></trkpt><trkpt lat="45.0746767" lon="7.7632564"><ele>445.0</ele><time>2026-04-10T07:42:36.843Z</time></trkpt><trkpt lat="45.0747496" lon="7.7632734"><ele>444.0</ele><time>2026-04-10T07:42:41.841Z</time></trkpt><trkpt lat="45.0748075" lon="7.7632006"><ele>443.0</ele><time>2026-04-10T07:42:46.842Z</time></trkpt><trkpt lat="45.0748545" lon="7.7631105"><ele>442.0</ele><time>2026-04-10T07:42:50.842Z</time></trkpt><trkpt lat="45.0748934" lon="7.7630333"><ele>442.00000000000006</ele><time>2026-04-10T07:42:53.842Z</time></trkpt><trkpt lat="45.0749361" lon="7.762939"><ele>442.0</ele><time>2026-04-10T07:42:57.842Z</time></trkpt><trkpt lat="45.0749831" lon="7.7628615"><ele>442.0</ele><time>2026-04-10T07:43:01.842Z</time></trkpt><trkpt lat="45.0750167" lon="7.7627758"><ele>442.0</ele><time>2026-04-10T07:43:05.842Z</time></trkpt><trkpt lat="45.0750342" lon="7.7626756"><ele>442.0</ele><time>2026-04-10T07:43:09.842Z</time></trkpt><trkpt lat="45.075031" lon="7.7625681"><ele>442.00000000000006</ele><time>2026-04-10T07:43:14.842Z</time></trkpt><trkpt lat="45.0750318" lon="7.7624777"><ele>442.0</ele><time>2026-04-10T07:43:19.842Z</time></trkpt><trkpt lat="45.0750604" lon="7.7623641"><ele>447.0</ele><time>2026-04-10T07:43:24.842Z</time></trkpt><trkpt lat="45.0750965" lon="7.7622802"><ele>452.0</ele><time>2026-04-10T07:43:27.843Z</time></trkpt><trkpt lat="45.0751142" lon="7.7621821"><ele>457.0</ele><time>2026-04-10T07:43:31.842Z</time></trkpt><trkpt lat="45.0751421" lon="7.7620975"><ele>462.0</ele><time>2026-04-10T07:43:34.841Z</time></trkpt><trkpt lat="45.0751785" lon="7.7619965"><ele>466.99999999999994</ele><time>2026-04-10T07:43:38.842Z</time></trkpt><trkpt lat="45.0752025" lon="7.7619118"><ele>472.0</ele><time>2026-04-10T07:43:41.842Z</time></trkpt><trkpt lat="45.0752459" lon="7.7618253"><ele>477.0</ele><time>2026-04-10T07:43:46.842Z</time></trkpt><trkpt lat="45.0752894" lon="7.7617394"><ele>477.1428571428571</ele><time>2026-04-10T07:43:51.843Z</time></trkpt><trkpt lat="45.0752984" lon="7.7616279"><ele>477.2857142857142</ele><time>2026-04-10T07:43:56.842Z</time></trkpt><trkpt lat="45.0753063" lon="7.761523"><ele>477.42857142857144</ele><time>2026-04-10T07:44:00.842Z</time></trkpt><trkpt lat="45.0753305" lon="7.7614313"><ele>477.57142857142856</ele><time>2026-04-10T07:44:04.84Z</time></trkpt><trkpt lat="45.0753759" lon="7.7613505"><ele>477.7142857142857</ele><time>2026-04-10T07:44:09.842Z</time></trkpt><trkpt lat="45.0754308" lon="7.7612897"><ele>477.8571428571429</ele><time>2026-04-10T07:44:14.842Z</time></trkpt><trkpt lat="45.0755006" lon="7.7612451"><ele>478.00000000000006</ele><time>2026-04-10T07:44:18.84Z</time></trkpt><trkpt lat="45.0755714" lon="7.7612278"><ele>478.00000000000006</ele><time>2026-04-10T07:44:22.843Z</time></trkpt><trkpt lat="45.0756588" lon="7.7612469"><ele>478.0</ele><time>2026-04-10T07:44:27.841Z</time></trkpt><trkpt lat="45.0757239" lon="7.7612599"><ele>478.0</ele><time>2026-04-10T07:44:30.842Z</time></trkpt><trkpt lat="45.0757934" lon="7.7612451"><ele>478.0</ele><time>2026-04-10T07:44:34.843Z</time></trkpt><trkpt lat="45.0758643" lon="7.7612041"><ele>478.00000000000006</ele><time>2026-04-10T07:44:37.841Z</time></trkpt><trkpt lat="45.0759416" lon="7.7612033"><ele>478.0</ele><time>2026-04-10T07:44:40.843Z</time></trkpt><trkpt lat="45.0760255" lon="7.7612044"><ele>482.50000000000006</ele><time>2026-04-10T07:44:43.841Z</time></trkpt><trkpt lat="45.076107" lon="7.7611906"><ele>487.0</ele><time>2026-04-10T07:44:46.841Z</time></trkpt><trkpt lat="45.0761984" lon="7.7611764"><ele>491.5</ele><time>2026-04-10T07:44:49.842Z</time></trkpt><trkpt lat="45.0762762" lon="7.7611759"><ele>496.0</ele><time>2026-04-10T07:44:51.842Z</time></trkpt><trkpt lat="45.0763548" lon="7.7611714"><ele>500.50000000000006</ele><time>2026-04-10T07:44:53.841Z</time></trkpt><trkpt lat="45.0764298" lon="7.7611655"><ele>505.0</ele><time>2026-04-10T07:44:55.843Z</time></trkpt><trkpt lat="45.0764959" lon="7.7611409"><ele>505.00000000000006</ele><time>2026-04-10T07:44:57.841Z</time></trkpt><trkpt lat="45.0765637" lon="7.761107"><ele>505.0</ele><time>2026-04-10T07:44:59.842Z</time></trkpt><trkpt lat="45.0766234" lon="7.7610676"><ele>505.0</ele><time>2026-04-10T07:45:01.842Z</time></trkpt><trkpt lat="45.0767029" lon="7.7609775"><ele>505.0</ele><time>2026-04-10T07:45:04.84Z</time></trkpt><trkpt lat="45.076723" lon="7.7608786"><ele>505.00000000000006</ele><time>2026-04-10T07:45:06.841Z</time></trkpt><trkpt lat="45.0767069" lon="7.7607747"><ele>505.0</ele><time>2026-04-10T07:45:08.842Z</time></trkpt><trkpt lat="45.0766801" lon="7.760658"><ele>504.00000000000006</ele><time>2026-04-10T07:45:10.841Z</time></trkpt><trkpt lat="45.0766522" lon="7.7605387"><ele>503.0</ele><time>2026-04-10T07:45:12.841Z</time></trkpt><trkpt lat="45.076637" lon="7.7604282"><ele>502.0</ele><time>2026-04-10T07:45:14.842Z</time></trkpt><trkpt lat="45.0766383" lon="7.7602961"><ele>501.0</ele><time>2026-04-10T07:45:16.841Z</time></trkpt><trkpt lat="45.0766564" lon="7.7601757"><ele>500.00000000000006</ele><time>2026-04-10T07:45:18.841Z</time></trkpt><trkpt lat="45.0766902" lon="7.7600948"><ele>499.0</ele><time>2026-04-10T07:45:20.841Z</time></trkpt><trkpt lat="45.0767637" lon="7.7600482"><ele>497.00000000000006</ele><time>2026-04-10T07:45:22.842Z</time></trkpt><trkpt lat="45.0768376" lon="7.7600206"><ele>495.0</ele><time>2026-04-10T07:45:24.842Z</time></trkpt><trkpt lat="45.0769136" lon="7.7599893"><ele>493.0</ele><time>2026-04-10T07:45:26.842Z</time></trkpt><trkpt lat="45.0769975" lon="7.7599823"><ele>491.0</ele><time>2026-04-10T07:45:28.842Z</time></trkpt><trkpt lat="45.0770769" lon="7.7600072"><ele>489.00000000000006</ele><time>2026-04-10T07:45:30.842Z</time></trkpt><trkpt lat="45.0771521" lon="7.7600628"><ele>487.0</ele><time>2026-04-10T07:45:32.841Z</time></trkpt><trkpt lat="45.0772362" lon="7.7601063"><ele>487.0</ele><time>2026-04-10T07:45:34.842Z</time></trkpt><trkpt lat="45.0773177" lon="7.760108"><ele>487.00000000000006</ele><time>2026-04-10T07:45:36.841Z</time></trkpt><trkpt lat="45.0774148" lon="7.7600549"><ele>487.00000000000006</ele><time>2026-04-10T07:45:38.841Z</time></trkpt><trkpt lat="45.0774878" lon="7.7599822"><ele>487.0</ele><time>2026-04-10T07:45:40.842Z</time></trkpt><trkpt lat="45.0775749" lon="7.7599111"><ele>487.0</ele><time>2026-04-10T07:45:42.841Z</time></trkpt><trkpt lat="45.0776459" lon="7.759841"><ele>488.50000000000006</ele><time>2026-04-10T07:45:44.841Z</time></trkpt><trkpt lat="45.0777511" lon="7.7598694"><ele>490.0</ele><time>2026-04-10T07:45:46.84Z</time></trkpt><trkpt lat="45.0778437" lon="7.7598978"><ele>491.5</ele><time>2026-04-10T07:45:48.842Z</time></trkpt><trkpt lat="45.0779314" lon="7.7599094"><ele>493.0</ele><time>2026-04-10T07:45:50.842Z</time></trkpt><trkpt lat="45.0780148" lon="7.7598739"><ele>494.50000000000006</ele><time>2026-04-10T07:45:52.842Z</time></trkpt><trkpt lat="45.0780694" lon="7.7598212"><ele>496.0</ele><time>2026-04-10T07:45:53.843Z</time></trkpt><trkpt lat="45.0780975" lon="7.7597236"><ele>496.0</ele><time>2026-04-10T07:45:55.842Z</time></trkpt><trkpt lat="45.0781273" lon="7.7595701"><ele>496.0</ele><time>2026-04-10T07:45:58.842Z</time></trkpt><trkpt lat="45.078166" lon="7.7594695"><ele>496.0</ele><time>2026-04-10T07:46:00.841Z</time></trkpt><trkpt lat="45.0782133" lon="7.7593564"><ele>496.0</ele><time>2026-04-10T07:46:02.842Z</time></trkpt><trkpt lat="45.0782518" lon="7.7592454"><ele>496.0</ele><time>2026-04-10T07:46:04.841Z</time></trkpt><trkpt lat="45.0782765" lon="7.7591407"><ele>496.7142857142857</ele><time>2026-04-10T07:46:06.842Z</time></trkpt><trkpt lat="45.0783143" lon="7.7590678"><ele>497.42857142857144</ele><time>2026-04-10T07:46:08.841Z</time></trkpt><trkpt lat="45.0783474" lon="7.758967"><ele>498.14285714285717</ele><time>2026-04-10T07:46:12.841Z</time></trkpt><trkpt lat="45.0784126" lon="7.7589635"><ele>498.8571428571429</ele><time>2026-04-10T07:46:16.842Z</time></trkpt><trkpt lat="45.0784029" lon="7.7590788"><ele>499.57142857142856</ele><time>2026-04-10T07:46:20.841Z</time></trkpt><trkpt lat="45.0783912" lon="7.7591732"><ele>500.28571428571433</ele><time>2026-04-10T07:46:23.841Z</time></trkpt><trkpt lat="45.0783949" lon="7.759266"><ele>501.0</ele><time>2026-04-10T07:46:26.842Z</time></trkpt><trkpt lat="45.0783901" lon="7.7593782"><ele>503.0</ele><time>2026-04-10T07:46:30.841Z</time></trkpt><trkpt lat="45.0783883" lon="7.7594947"><ele>505.0</ele><time>2026-04-10T07:46:34.841Z</time></trkpt><trkpt lat="45.0784044" lon="7.7595919"><ele>507.0</ele><time>2026-04-10T07:46:56.841Z</time></trkpt><trkpt lat="45.0783886" lon="7.7596979"><ele>509.0</ele><time>2026-04-10T07:47:01.84Z</time></trkpt><trkpt lat="45.0783921" lon="7.7598094"><ele>511.0</ele><time>2026-04-10T07:47:05.842Z</time></trkpt><trkpt lat="45.0783925" lon="7.7599238"><ele>513.0</ele><time>2026-04-10T07:47:09.841Z</time></trkpt><trkpt lat="45.0783845" lon="7.7600355"><ele>513.0</ele><time>2026-04-10T07:47:13.842Z</time></trkpt><trkpt lat="45.0783794" lon="7.7601427"><ele>513.0</ele><time>2026-04-10T07:47:17.842Z</time></trkpt><trkpt lat="45.0783752" lon="7.7602457"><ele>513.0</ele><time>2026-04-10T07:47:21.842Z</time></trkpt><trkpt lat="45.0783657" lon="7.7603578"><ele>513.0</ele><time>2026-04-10T07:47:25.842Z</time></trkpt><trkpt lat="45.0783594" lon="7.7604681"><ele>513.0</ele><time>2026-04-10T07:47:29.842Z</time></trkpt><trkpt lat="45.078338" lon="7.7605749"><ele>513.0</ele><time>2026-04-10T07:47:33.841Z</time></trkpt><trkpt lat="45.078304" lon="7.7606643"><ele>513.1428571428572</ele><time>2026-04-10T07:47:37.842Z</time></trkpt><trkpt lat="45.0782692" lon="7.7607602"><ele>513.2857142857143</ele><time>2026-04-10T07:47:41.842Z</time></trkpt><trkpt lat="45.0782291" lon="7.7608498"><ele>513.4285714285714</ele><time>2026-04-10T07:47:45.841Z</time></trkpt><trkpt lat="45.0782031" lon="7.7609344"><ele>513.5714285714287</ele><time>2026-04-10T07:47:49.841Z</time></trkpt><trkpt lat="45.0781683" lon="7.7610329"><ele>513.7142857142858</ele><time>2026-04-10T07:47:53.842Z</time></trkpt><trkpt lat="45.0781236" lon="7.7610968"><ele>513.8571428571429</ele><time>2026-04-10T07:47:56.841Z</time></trkpt><trkpt lat="45.0780617" lon="7.7611785"><ele>514.0</ele><time>2026-04-10T07:48:00.841Z</time></trkpt><trkpt lat="45.0779963" lon="7.7612329"><ele>517.2857142857142</ele><time>2026-04-10T07:48:04.842Z</time></trkpt><trkpt lat="45.0779356" lon="7.7612627"><ele>520.5714285714286</ele><time>2026-04-10T07:48:07.842Z</time></trkpt><trkpt lat="45.0778728" lon="7.7612873"><ele>523.8571428571429</ele><time>2026-04-10T07:48:10.841Z</time></trkpt><trkpt lat="45.0777955" lon="7.7613187"><ele>527.1428571428571</ele><time>2026-04-10T07:48:14.842Z</time></trkpt><trkpt lat="45.0777231" lon="7.7613407"><ele>530.4285714285714</ele><time>2026-04-10T07:48:17.842Z</time></trkpt><trkpt lat="45.0776552" lon="7.7613607"><ele>533.7142857142857</ele><time>2026-04-10T07:48:20.842Z</time></trkpt><trkpt lat="45.0775879" lon="7.7613799"><ele>537.0</ele><time>2026-04-10T07:48:23.841Z</time></trkpt><trkpt lat="45.0775094" lon="7.761407"><ele>536.9999999999999</ele><time>2026-04-10T07:48:27.842Z</time></trkpt><trkpt lat="45.0774358" lon="7.7614454"><ele>537.0</ele><time>2026-04-10T07:48:31.842Z</time></trkpt><trkpt lat="45.0773781" lon="7.761509"><ele>537.0</ele><time>2026-04-10T07:48:35.842Z</time></trkpt><trkpt lat="45.077341" lon="7.7616113"><ele>537.0</ele><time>2026-04-10T07:48:39.842Z</time></trkpt><trkpt lat="45.0773079" lon="7.7617217"><ele>537.0</ele><time>2026-04-10T07:48:43.843Z</time></trkpt><trkpt lat="45.0772791" lon="7.7618014"><ele>536.9999999999999</ele><time>2026-04-10T07:48:46.841Z</time></trkpt><trkpt lat="45.0772432" lon="7.7618816"><ele>537.0</ele><time>2026-04-10T07:48:49.843Z</time></trkpt><trkpt lat="45.077188" lon="7.7619309"><ele>537.9999999999999</ele><time>2026-04-10T07:48:52.842Z</time></trkpt><trkpt lat="45.077113" lon="7.7619785"><ele>539.0</ele><time>2026-04-10T07:48:56.841Z</time></trkpt><trkpt lat="45.0770514" lon="7.7620088"><ele>540.0</ele><time>2026-04-10T07:48:59.842Z</time></trkpt><trkpt lat="45.0769883" lon="7.7620409"><ele>541.0</ele><time>2026-04-10T07:49:02.842Z</time></trkpt><trkpt lat="45.0769234" lon="7.7620743"><ele>542.0</ele><time>2026-04-10T07:49:06.841Z</time></trkpt><trkpt lat="45.0768589" lon="7.7621441"><ele>542.9999999999999</ele><time>2026-04-10T07:49:10.843Z</time></trkpt><trkpt lat="45.0768148" lon="7.762242"><ele>544.0</ele><time>2026-04-10T07:49:14.842Z</time></trkpt><trkpt lat="45.0767734" lon="7.7623275"><ele>543.9999999999999</ele><time>2026-04-10T07:49:18.841Z</time></trkpt><trkpt lat="45.0767421" lon="7.7624155"><ele>544.0</ele><time>2026-04-10T07:49:22.841Z</time></trkpt><trkpt lat="45.0767129" lon="7.7625123"><ele>544.0</ele><time>2026-04-10T07:49:26.842Z</time></trkpt><trkpt lat="45.0766839" lon="7.7626056"><ele>544.0</ele><time>2026-04-10T07:49:30.843Z</time></trkpt><trkpt lat="45.076653" lon="7.7627134"><ele>544.0</ele><time>2026-04-10T07:49:34.842Z</time></trkpt><trkpt lat="45.0766264" lon="7.7627966"><ele>543.9999999999999</ele><time>2026-04-10T07:49:37.843Z</time></trkpt><trkpt lat="45.0766235" lon="7.7628993"><ele>544.0</ele><time>2026-04-10T07:49:41.841Z</time></trkpt><trkpt lat="45.0766547" lon="7.7629822"><ele>544.7142857142857</ele><time>2026-04-10T07:49:45.841Z</time></trkpt><trkpt lat="45.0767014" lon="7.7630607"><ele>545.4285714285714</ele><time>2026-04-10T07:49:49.842Z</time></trkpt><trkpt lat="45.0767533" lon="7.7631445"><ele>546.1428571428571</ele><time>2026-04-10T07:49:53.842Z</time></trkpt><trkpt lat="45.0767864" lon="7.7632322"><ele>546.8571428571429</ele><time>2026-04-10T07:49:58.842Z</time></trkpt><trkpt lat="45.0768317" lon="7.7633047"><ele>547.5714285714286</ele><time>2026-04-10T07:50:02.842Z</time></trkpt><trkpt lat="45.0768772" lon="7.7633761"><ele>548.2857142857142</ele><time>2026-04-10T07:50:06.843Z</time></trkpt><trkpt lat="45.076925" lon="7.7634529"><ele>549.0</ele><time>2026-04-10T07:50:10.841Z</time></trkpt><trkpt lat="45.0769751" lon="7.7635239"><ele>548.2857142857142</ele><time>2026-04-10T07:50:14.843Z</time></trkpt><trkpt lat="45.0770239" lon="7.7635925"><ele>547.5714285714286</ele><time>2026-04-10T07:50:18.842Z</time></trkpt><trkpt lat="45.0770788" lon="7.7636566"><ele>546.8571428571429</ele><time>2026-04-10T07:50:22.843Z</time></trkpt><trkpt lat="45.0771337" lon="7.7637189"><ele>546.1428571428571</ele><time>2026-04-10T07:50:26.841Z</time></trkpt><trkpt lat="45.0771855" lon="7.7637881"><ele>545.4285714285714</ele><time>2026-04-10T07:50:30.841Z</time></trkpt><trkpt lat="45.0772459" lon="7.7638514"><ele>544.7142857142857</ele><time>2026-04-10T07:50:34.841Z</time></trkpt><trkpt lat="45.077266" lon="7.7639442"><ele>544.0</ele><time>2026-04-10T07:50:39.842Z</time></trkpt><trkpt lat="45.077311" lon="7.7640351"><ele>544.0</ele><time>2026-04-10T07:50:43.842Z</time></trkpt><trkpt lat="45.0773714" lon="7.7641122"><ele>544.0</ele><time>2026-04-10T07:50:47.842Z</time></trkpt><trkpt lat="45.0774221" lon="7.7641981"><ele>544.0</ele><time>2026-04-10T07:50:51.841Z</time></trkpt><trkpt lat="45.077477" lon="7.764284"><ele>544.0</ele><time>2026-04-10T07:50:55.842Z</time></trkpt><trkpt lat="45.0774984" lon="7.7643758"><ele>544.0</ele><time>2026-04-10T07:50:58.843Z</time></trkpt><trkpt lat="45.0775195" lon="7.7644679"><ele>544.0</ele><time>2026-04-10T07:51:01.841Z</time></trkpt><trkpt lat="45.0775676" lon="7.7645512"><ele>549.3333333333334</ele><time>2026-04-10T07:51:05.841Z</time></trkpt><trkpt lat="45.0775499" lon="7.7646726"><ele>554.6666666666667</ele><time>2026-04-10T07:51:09.841Z</time></trkpt><trkpt lat="45.0775504" lon="7.7647757"><ele>560.0</ele><time>2026-04-10T07:51:12.841Z</time></trkpt><trkpt lat="45.077537" lon="7.7648885"><ele>565.3333333333334</ele><time>2026-04-10T07:51:16.842Z</time></trkpt><trkpt lat="45.0775134" lon="7.7649957"><ele>570.6666666666666</ele><time>2026-04-10T07:51:20.841Z</time></trkpt><trkpt lat="45.0774727" lon="7.7650942"><ele>576.0</ele><time>2026-04-10T07:51:24.841Z</time></trkpt><trkpt lat="45.077441" lon="7.7651714"><ele>573.7142857142858</ele><time>2026-04-10T07:51:27.843Z</time></trkpt><trkpt lat="45.0774125" lon="7.7652557"><ele>571.4285714285714</ele><time>2026-04-10T07:51:30.842Z</time></trkpt><trkpt lat="45.0773872" lon="7.7653392"><ele>569.1428571428571</ele><time>2026-04-10T07:51:33.841Z</time></trkpt><trkpt lat="45.0773569" lon="7.7654335"><ele>566.8571428571429</ele><time>2026-04-10T07:51:36.842Z</time></trkpt><trkpt lat="45.0773353" lon="7.7655219"><ele>564.5714285714286</ele><time>2026-04-10T07:51:39.841Z</time></trkpt><trkpt lat="45.0773263" lon="7.7656391"><ele>562.2857142857143</ele><time>2026-04-10T07:51:43.842Z</time></trkpt><trkpt lat="45.0773092" lon="7.7657547"><ele>560.0</ele><time>2026-04-10T07:51:47.841Z</time></trkpt><trkpt lat="45.0772909" lon="7.7658412"><ele>560.0</ele><time>2026-04-10T07:51:50.842Z</time></trkpt><trkpt lat="45.077267" lon="7.7659304"><ele>560.0</ele><time>2026-04-10T07:51:53.842Z</time></trkpt><trkpt lat="45.0772336" lon="7.7660118"><ele>560.0</ele><time>2026-04-10T07:51:56.842Z</time></trkpt><trkpt lat="45.0772045" lon="7.7660947"><ele>560.0</ele><time>2026-04-10T07:51:59.843Z</time></trkpt><trkpt lat="45.0771759" lon="7.7662036"><ele>560.0</ele><time>2026-04-10T07:52:03.841Z</time></trkpt><trkpt lat="45.0771523" lon="7.7662867"><ele>560.0</ele><time>2026-04-10T07:52:06.842Z</time></trkpt><trkpt lat="45.0771202" lon="7.7663874"><ele>560.0</ele><time>2026-04-10T07:52:10.843Z</time></trkpt><trkpt lat="45.0770791" lon="7.7664921"><ele>562.1428571428571</ele><time>2026-04-10T07:52:14.841Z</time></trkpt><trkpt lat="45.0770407" lon="7.7665657"><ele>564.2857142857142</ele><time>2026-04-10T07:52:17.842Z</time></trkpt><trkpt lat="45.0770023" lon="7.7666666"><ele>566.4285714285714</ele><time>2026-04-10T07:52:21.841Z</time></trkpt><trkpt lat="45.0769723" lon="7.7667451"><ele>568.5714285714286</ele><time>2026-04-10T07:52:24.842Z</time></trkpt><trkpt lat="45.0769369" lon="7.766819"><ele>570.7142857142857</ele><time>2026-04-10T07:52:27.841Z</time></trkpt><trkpt lat="45.0769177" lon="7.7669216"><ele>572.8571428571429</ele><time>2026-04-10T07:52:32.843Z</time></trkpt><trkpt lat="45.0769127" lon="7.7670208"><ele>575.0</ele><time>2026-04-10T07:52:37.842Z</time></trkpt><trkpt lat="45.0769847" lon="7.7670005"><ele>575.0</ele><time>2026-04-10T07:52:47.842Z</time></trkpt><trkpt lat="45.0770211" lon="7.7669118"><ele>575.0</ele><time>2026-04-10T07:52:50.841Z</time></trkpt><trkpt lat="45.0770751" lon="7.7668492"><ele>575.0</ele><time>2026-04-10T07:52:54.841Z</time></trkpt><trkpt lat="45.0771362" lon="7.7668084"><ele>575.0</ele><time>2026-04-10T07:52:58.841Z</time></trkpt><trkpt lat="45.0772038" lon="7.7667981"><ele>575.0</ele><time>2026-04-10T07:53:03.842Z</time></trkpt><trkpt lat="45.0772657" lon="7.7667725"><ele>575.0</ele><time>2026-04-10T07:53:08.841Z</time></trkpt><trkpt lat="45.0773256" lon="7.7667408"><ele>575.0</ele><time>2026-04-10T07:53:13.842Z</time></trkpt><trkpt lat="45.0773883" lon="7.7667261"><ele>579.2857142857142</ele><time>2026-04-10T07:53:22.841Z</time></trkpt><trkpt lat="45.0774479" lon="7.7666872"><ele>583.5714285714286</ele><time>2026-04-10T07:53:27.841Z</time></trkpt><trkpt lat="45.0775178" lon="7.7666917"><ele>587.8571428571429</ele><time>2026-04-10T07:53:32.842Z</time></trkpt><trkpt lat="45.0775783" lon="7.7667256"><ele>592.1428571428571</ele><time>2026-04-10T07:53:43.842Z</time></trkpt><trkpt lat="45.0776384" lon="7.7667666"><ele>596.4285714285714</ele><time>2026-04-10T07:53:54.842Z</time></trkpt><trkpt lat="45.0777067" lon="7.7667824"><ele>600.7142857142857</ele><time>2026-04-10T07:54:01.842Z</time></trkpt><trkpt lat="45.0777688" lon="7.7668402"><ele>605.0</ele><time>2026-04-10T07:54:08.842Z</time></trkpt><trkpt lat="45.0777795" lon="7.766934"><ele>606.8571428571429</ele><time>2026-04-10T07:54:16.842Z</time></trkpt><trkpt lat="45.0777992" lon="7.7670264"><ele>608.7142857142858</ele><time>2026-04-10T07:54:39.841Z</time></trkpt><trkpt lat="45.0778136" lon="7.7671284"><ele>610.5714285714287</ele><time>2026-04-10T07:54:44.841Z</time></trkpt><trkpt lat="45.0777745" lon="7.7672188"><ele>612.4285714285714</ele><time>2026-04-10T07:54:47.841Z</time></trkpt><trkpt lat="45.0777434" lon="7.7672994"><ele>614.2857142857143</ele><time>2026-04-10T07:54:51.841Z</time></trkpt><trkpt lat="45.0777175" lon="7.7673965"><ele>616.1428571428572</ele><time>2026-04-10T07:54:56.841Z</time></trkpt><trkpt lat="45.0776845" lon="7.7674844"><ele>618.0</ele><time>2026-04-10T07:55:00.842Z</time></trkpt><trkpt lat="45.0776659" lon="7.7675778"><ele>618.0000000000001</ele><time>2026-04-10T07:55:04.841Z</time></trkpt><trkpt lat="45.0776425" lon="7.7676615"><ele>618.0</ele><time>2026-04-10T07:55:08.843Z</time></trkpt><trkpt lat="45.0776386" lon="7.7677582"><ele>618.0</ele><time>2026-04-10T07:55:13.843Z</time></trkpt><trkpt lat="45.0776218" lon="7.7678449"><ele>618.0</ele><time>2026-04-10T07:55:18.843Z</time></trkpt><trkpt lat="45.0776221" lon="7.7679507"><ele>618.0</ele><time>2026-04-10T07:55:22.842Z</time></trkpt><trkpt lat="45.0776788" lon="7.7680104"><ele>618.0000000000001</ele><time>2026-04-10T07:55:29.842Z</time></trkpt><trkpt lat="45.0777249" lon="7.7680857"><ele>618.0</ele><time>2026-04-10T07:55:35.841Z</time></trkpt><trkpt lat="45.0777628" lon="7.7681615"><ele>618.0</ele><time>2026-04-10T07:55:41.843Z</time></trkpt><trkpt lat="45.0777883" lon="7.7680682"><ele>618.0</ele><time>2026-04-10T07:55:46.841Z</time></trkpt><trkpt lat="45.0778204" lon="7.7679668"><ele>618.0</ele><time>2026-04-10T07:55:50.842Z</time></trkpt><trkpt lat="45.0778725" lon="7.7678642"><ele>618.0</ele><time>2026-04-10T07:55:52.841Z</time></trkpt><trkpt lat="45.0779411" lon="7.7677082"><ele>618.0</ele><time>2026-04-10T07:55:54.842Z</time></trkpt><trkpt lat="45.0779925" lon="7.7675946"><ele>618.0</ele><time>2026-04-10T07:55:56.842Z</time></trkpt><trkpt lat="45.0780465" lon="7.7674782"><ele>618.0</ele><time>2026-04-10T07:55:58.842Z</time></trkpt><trkpt lat="45.0780716" lon="7.7673411"><ele>618.0</ele><time>2026-04-10T07:56:00.841Z</time></trkpt><trkpt lat="45.0781496" lon="7.7672205"><ele>618.0</ele><time>2026-04-10T07:56:02.842Z</time></trkpt><trkpt lat="45.0782025" lon="7.7671105"><ele>618.0</ele><time>2026-04-10T07:56:04.841Z</time></trkpt><trkpt lat="45.0782616" lon="7.7669825"><ele>620.1999999999999</ele><time>2026-04-10T07:56:06.842Z</time></trkpt><trkpt lat="45.0783253" lon="7.766872"><ele>622.4</ele><time>2026-04-10T07:56:08.843Z</time></trkpt><trkpt lat="45.0783942" lon="7.7667522"><ele>624.5999999999999</ele><time>2026-04-10T07:56:10.843Z</time></trkpt><trkpt lat="45.0784695" lon="7.7666449"><ele>626.8</ele><time>2026-04-10T07:56:12.843Z</time></trkpt><trkpt lat="45.0785316" lon="7.7665105"><ele>629.0</ele><time>2026-04-10T07:56:14.842Z</time></trkpt><trkpt lat="45.0785538" lon="7.7663858"><ele>629.0</ele><time>2026-04-10T07:56:16.842Z</time></trkpt><trkpt lat="45.0785987" lon="7.7662441"><ele>629.0</ele><time>2026-04-10T07:56:18.841Z</time></trkpt><trkpt lat="45.0786421" lon="7.7660911"><ele>629.0</ele><time>2026-04-10T07:56:20.842Z</time></trkpt><trkpt lat="45.0786878" lon="7.7659204"><ele>629.0</ele><time>2026-04-10T07:56:22.842Z</time></trkpt><trkpt lat="45.0786877" lon="7.7657905"><ele>629.0</ele><time>2026-04-10T07:56:24.843Z</time></trkpt><trkpt lat="45.0787244" lon="7.7656222"><ele>631.2</ele><time>2026-04-10T07:56:26.842Z</time></trkpt><trkpt lat="45.0788128" lon="7.7655035"><ele>633.4</ele><time>2026-04-10T07:56:28.841Z</time></trkpt><trkpt lat="45.0788792" lon="7.7654765"><ele>635.6</ele><time>2026-04-10T07:56:29.843Z</time></trkpt><trkpt lat="45.0789749" lon="7.7654091"><ele>637.8</ele><time>2026-04-10T07:56:31.842Z</time></trkpt><trkpt lat="45.0790362" lon="7.7653858"><ele>640.0</ele><time>2026-04-10T07:56:32.842Z</time></trkpt><trkpt lat="45.0791332" lon="7.7653875"><ele>640.0</ele><time>2026-04-10T07:56:34.842Z</time></trkpt><trkpt lat="45.0792403" lon="7.7654029"><ele>640.0</ele><time>2026-04-10T07:56:36.841Z</time></trkpt><trkpt lat="45.0793341" lon="7.765416"><ele>640.0</ele><time>2026-04-10T07:56:38.842Z</time></trkpt><trkpt lat="45.079402" lon="7.7654306"><ele>640.0</ele><time>2026-04-10T07:56:39.841Z</time></trkpt><trkpt lat="45.0795155" lon="7.7654826"><ele>640.0</ele><time>2026-04-10T07:56:41.841Z</time></trkpt><trkpt lat="45.0795937" lon="7.7654811"><ele>640.0</ele><time>2026-04-10T07:56:43.842Z</time></trkpt><trkpt lat="45.0796995" lon="7.765499"><ele>640.0</ele><time>2026-04-10T07:56:45.841Z</time></trkpt><trkpt lat="45.0798195" lon="7.765514"><ele>640.0</ele><time>2026-04-10T07:56:47.842Z</time></trkpt><trkpt lat="45.0799074" lon="7.7655959"><ele>640.0</ele><time>2026-04-10T07:56:50.842Z</time></trkpt><trkpt lat="45.0799738" lon="7.7656275"><ele>640.0</ele><time>2026-04-10T07:56:51.842Z</time></trkpt><trkpt lat="45.0800488" lon="7.7656941"><ele>640.3333333333334</ele><time>2026-04-10T07:56:53.842Z</time></trkpt><trkpt lat="45.0801153" lon="7.7657669"><ele>640.6666666666667</ele><time>2026-04-10T07:56:55.842Z</time></trkpt><trkpt lat="45.080194" lon="7.765833"><ele>641.0</ele><time>2026-04-10T07:56:57.841Z</time></trkpt><trkpt lat="45.0802586" lon="7.7658681"><ele>641.3333333333334</ele><time>2026-04-10T07:56:59.841Z</time></trkpt><trkpt lat="45.0803323" lon="7.7659474"><ele>641.6666666666666</ele><time>2026-04-10T07:57:02.844Z</time></trkpt><trkpt lat="45.0804012" lon="7.7659909"><ele>642.0</ele><time>2026-04-10T07:57:04.841Z</time></trkpt><trkpt lat="45.0804658" lon="7.7660328"><ele>644.5714285714286</ele><time>2026-04-10T07:57:06.843Z</time></trkpt><trkpt lat="45.0805371" lon="7.7660688"><ele>647.1428571428571</ele><time>2026-04-10T07:57:08.842Z</time></trkpt><trkpt lat="45.0806055" lon="7.7660983"><ele>649.7142857142858</ele><time>2026-04-10T07:57:10.841Z</time></trkpt><trkpt lat="45.0806733" lon="7.7661263"><ele>652.2857142857142</ele><time>2026-04-10T07:57:12.843Z</time></trkpt><trkpt lat="45.0807321" lon="7.7661713"><ele>654.8571428571429</ele><time>2026-04-10T07:57:14.843Z</time></trkpt><trkpt lat="45.0807847" lon="7.7662211"><ele>657.4285714285714</ele><time>2026-04-10T07:57:16.842Z</time></trkpt><trkpt lat="45.0808644" lon="7.7662856"><ele>660.0</ele><time>2026-04-10T07:57:19.842Z</time></trkpt><trkpt lat="45.0809215" lon="7.766325"><ele>660.0</ele><time>2026-04-10T07:57:21.843Z</time></trkpt><trkpt lat="45.081009" lon="7.7663638"><ele>660.0</ele><time>2026-04-10T07:57:24.842Z</time></trkpt><trkpt lat="45.0810852" lon="7.7664114"><ele>660.0</ele><time>2026-04-10T07:57:27.844Z</time></trkpt><trkpt lat="45.0809119" lon="7.7662277"><ele>660.0</ele><time>2026-04-10T07:58:01.842Z</time></trkpt><trkpt lat="45.0808368" lon="7.7662081"><ele>660.0</ele><time>2026-04-10T07:58:02.842Z</time></trkpt><trkpt lat="45.0807678" lon="7.7661494"><ele>660.0</ele><time>2026-04-10T07:58:03.842Z</time></trkpt><trkpt lat="45.0807" lon="7.7661182"><ele>660.0</ele><time>2026-04-10T07:58:04.841Z</time></trkpt><trkpt lat="45.0805804" lon="7.7660436"><ele>660.0</ele><time>2026-04-10T07:58:06.842Z</time></trkpt><trkpt lat="45.080461" lon="7.7659746"><ele>660.0</ele><time>2026-04-10T07:58:08.842Z</time></trkpt><trkpt lat="45.0803513" lon="7.765883"><ele>657.0</ele><time>2026-04-10T07:58:10.841Z</time></trkpt><trkpt lat="45.0802915" lon="7.7658551"><ele>654.0</ele><time>2026-04-10T07:58:11.842Z</time></trkpt><trkpt lat="45.0802016" lon="7.7657878"><ele>651.0</ele><time>2026-04-10T07:58:13.843Z</time></trkpt><trkpt lat="45.0801651" lon="7.7657121"><ele>648.0</ele><time>2026-04-10T07:58:16.842Z</time></trkpt><trkpt lat="45.0802467" lon="7.7657252"><ele>645.0</ele><time>2026-04-10T07:58:23.842Z</time></trkpt><trkpt lat="45.0803144" lon="7.7657652"><ele>642.0</ele><time>2026-04-10T07:58:25.843Z</time></trkpt><trkpt lat="45.0803773" lon="7.7657946"><ele>642.0</ele><time>2026-04-10T07:58:27.841Z</time></trkpt><trkpt lat="45.0804683" lon="7.765805"><ele>642.0</ele><time>2026-04-10T07:58:30.844Z</time></trkpt><trkpt lat="45.0805361" lon="7.7657495"><ele>642.0</ele><time>2026-04-10T07:58:32.842Z</time></trkpt><trkpt lat="45.0806164" lon="7.7656989"><ele>642.0</ele><time>2026-04-10T07:58:47.842Z</time></trkpt><trkpt lat="45.080544" lon="7.7657391"><ele>642.0</ele><time>2026-04-10T07:58:53.844Z</time></trkpt><trkpt lat="45.0804958" lon="7.7658238"><ele>642.0</ele><time>2026-04-10T07:58:58.843Z</time></trkpt><trkpt lat="45.0804166" lon="7.7658462"><ele>641.9999999999999</ele><time>2026-04-10T07:59:02.841Z</time></trkpt><trkpt lat="45.0803564" lon="7.7658013"><ele>642.0</ele><time>2026-04-10T07:59:05.842Z</time></trkpt><trkpt lat="45.0802919" lon="7.7657534"><ele>642.0</ele><time>2026-04-10T07:59:08.843Z</time></trkpt><trkpt lat="45.0802156" lon="7.7657281"><ele>642.0</ele><time>2026-04-10T07:59:11.843Z</time></trkpt><trkpt lat="45.0801469" lon="7.7657319"><ele>642.0</ele><time>2026-04-10T07:59:15.844Z</time></trkpt><trkpt lat="45.080182" lon="7.7658144"><ele>641.9999999999999</ele><time>2026-04-10T07:59:19.841Z</time></trkpt><trkpt lat="45.0802512" lon="7.7658758"><ele>642.0</ele><time>2026-04-10T07:59:23.842Z</time></trkpt><trkpt lat="45.0803184" lon="7.7659208"><ele>641.9999999999999</ele><time>2026-04-10T07:59:26.842Z</time></trkpt><trkpt lat="45.0803882" lon="7.7659522"><ele>642.0</ele><time>2026-04-10T07:59:29.843Z</time></trkpt><trkpt lat="45.0804468" lon="7.7659914"><ele>642.0</ele><time>2026-04-10T07:59:32.842Z</time></trkpt><trkpt lat="45.0805252" lon="7.7660438"><ele>642.0</ele><time>2026-04-10T07:59:35.843Z</time></trkpt><trkpt lat="45.0805982" lon="7.7661006"><ele>642.0</ele><time>2026-04-10T07:59:38.843Z</time></trkpt><trkpt lat="45.0806609" lon="7.7661232"><ele>641.9999999999999</ele><time>2026-04-10T07:59:41.841Z</time></trkpt><trkpt lat="45.0807339" lon="7.7661559"><ele>642.0</ele><time>2026-04-10T07:59:44.843Z</time></trkpt><trkpt lat="45.0807967" lon="7.7662061"><ele>645.0</ele><time>2026-04-10T07:59:47.843Z</time></trkpt><trkpt lat="45.0808603" lon="7.7662659"><ele>648.0</ele><time>2026-04-10T07:59:50.842Z</time></trkpt><trkpt lat="45.08093" lon="7.7663047"><ele>651.0</ele><time>2026-04-10T07:59:53.843Z</time></trkpt><trkpt lat="45.0810164" lon="7.7663265"><ele>654.0</ele><time>2026-04-10T07:59:56.841Z</time></trkpt><trkpt lat="45.0810988" lon="7.7663462"><ele>657.0</ele><time>2026-04-10T07:59:59.841Z</time></trkpt><trkpt lat="45.0811659" lon="7.7663316"><ele>660.0</ele><time>2026-04-10T08:00:41.842Z</time></trkpt><trkpt lat="45.0812285" lon="7.7663419"><ele>660.0000000000001</ele><time>2026-04-10T08:00:51.842Z</time></trkpt><trkpt lat="45.0812965" lon="7.7663501"><ele>660.0</ele><time>2026-04-10T08:00:58.841Z</time></trkpt><trkpt lat="45.0813668" lon="7.7663704"><ele>660.0</ele><time>2026-04-10T08:01:01.843Z</time></trkpt><trkpt lat="45.081425" lon="7.7664219"><ele>660.0</ele><time>2026-04-10T08:01:14.843Z</time></trkpt><trkpt lat="45.0814144" lon="7.7665281"><ele>660.0</ele><time>2026-04-10T08:01:26.841Z</time></trkpt><trkpt lat="45.0814061" lon="7.7666308"><ele>660.0000000000001</ele><time>2026-04-10T08:01:31.842Z</time></trkpt><trkpt lat="45.0813906" lon="7.7667243"><ele>660.0</ele><time>2026-04-10T08:01:35.842Z</time></trkpt><trkpt lat="45.0813431" lon="7.7667946"><ele>660.0</ele><time>2026-04-10T08:01:39.842Z</time></trkpt><trkpt lat="45.0812671" lon="7.7668071"><ele>660.0</ele><time>2026-04-10T08:01:43.842Z</time></trkpt><trkpt lat="45.0812624" lon="7.7666968"><ele>660.0</ele><time>2026-04-10T08:01:47.842Z</time></trkpt><trkpt lat="45.0813014" lon="7.7666161"><ele>660.0</ele><time>2026-04-10T08:01:50.842Z</time></trkpt><trkpt lat="45.0813491" lon="7.7665342"><ele>660.0</ele><time>2026-04-10T08:01:54.842Z</time></trkpt><trkpt lat="45.081328" lon="7.7664356"><ele>660.0</ele><time>2026-04-10T08:01:58.842Z</time></trkpt><trkpt lat="45.081249" lon="7.7664465"><ele>660.0000000000001</ele><time>2026-04-10T08:02:02.842Z</time></trkpt><trkpt lat="45.0811784" lon="7.7665032"><ele>660.0</ele><time>2026-04-10T08:02:06.841Z</time></trkpt><trkpt lat="45.0811269" lon="7.7665589"><ele>660.0</ele><time>2026-04-10T08:02:09.842Z</time></trkpt><trkpt lat="45.0810719" lon="7.7666061"><ele>660.0</ele><time>2026-04-10T08:02:12.843Z</time></trkpt><trkpt lat="45.0810167" lon="7.7666552"><ele>660.0</ele><time>2026-04-10T08:02:15.841Z</time></trkpt><trkpt lat="45.0809531" lon="7.7666818"><ele>660.0000000000001</ele><time>2026-04-10T08:02:18.841Z</time></trkpt><trkpt lat="45.0808707" lon="7.7666776"><ele>660.0</ele><time>2026-04-10T08:02:21.842Z</time></trkpt><trkpt lat="45.080791" lon="7.7666601"><ele>660.6666666666666</ele><time>2026-04-10T08:02:25.844Z</time></trkpt><trkpt lat="45.0807159" lon="7.7666647"><ele>661.3333333333334</ele><time>2026-04-10T08:02:29.842Z</time></trkpt><trkpt lat="45.0806356" lon="7.7666782"><ele>662.0</ele><time>2026-04-10T08:02:33.842Z</time></trkpt><trkpt lat="45.0805529" lon="7.7667051"><ele>662.6666666666667</ele><time>2026-04-10T08:02:37.842Z</time></trkpt><trkpt lat="45.0804901" lon="7.7667221"><ele>663.3333333333334</ele><time>2026-04-10T08:02:40.842Z</time></trkpt><trkpt lat="45.0804084" lon="7.7667455"><ele>664.0</ele><time>2026-04-10T08:02:44.843Z</time></trkpt><trkpt lat="45.0803427" lon="7.7667605"><ele>664.0</ele><time>2026-04-10T08:02:47.842Z</time></trkpt><trkpt lat="45.0802621" lon="7.7667643"><ele>664.0</ele><time>2026-04-10T08:02:51.843Z</time></trkpt><trkpt lat="45.0802001" lon="7.7668361"><ele>664.0</ele><time>2026-04-10T08:02:56.842Z</time></trkpt><trkpt lat="45.0802392" lon="7.7669319"><ele>664.0</ele><time>2026-04-10T08:03:00.842Z</time></trkpt><trkpt lat="45.0803114" lon="7.7668847"><ele>664.0</ele><time>2026-04-10T08:03:04.843Z</time></trkpt><trkpt lat="45.0803802" lon="7.7668723"><ele>664.0</ele><time>2026-04-10T08:03:08.842Z</time></trkpt><trkpt lat="45.0804253" lon="7.7669624"><ele>666.0</ele><time>2026-04-10T08:03:12.843Z</time></trkpt><trkpt lat="45.0803873" lon="7.7670445"><ele>668.0</ele><time>2026-04-10T08:03:15.843Z</time></trkpt><trkpt lat="45.0803399" lon="7.7671299"><ele>670.0</ele><time>2026-04-10T08:03:18.842Z</time></trkpt><trkpt lat="45.0803007" lon="7.7672384"><ele>672.0</ele><time>2026-04-10T08:03:21.842Z</time></trkpt><trkpt lat="45.080275" lon="7.7673381"><ele>674.0</ele><time>2026-04-10T08:03:24.841Z</time></trkpt><trkpt lat="45.0802664" lon="7.7674334"><ele>676.0</ele><time>2026-04-10T08:03:27.841Z</time></trkpt><trkpt lat="45.0802833" lon="7.7675401"><ele>676.0</ele><time>2026-04-10T08:03:31.843Z</time></trkpt><trkpt lat="45.0803076" lon="7.7676233"><ele>676.0</ele><time>2026-04-10T08:03:37.841Z</time></trkpt><trkpt lat="45.0803679" lon="7.767555"><ele>676.0</ele><time>2026-04-10T08:03:41.843Z</time></trkpt><trkpt lat="45.0803955" lon="7.7674538"><ele>676.0</ele><time>2026-04-10T08:03:44.843Z</time></trkpt><trkpt lat="45.0804254" lon="7.767339"><ele>676.0</ele><time>2026-04-10T08:03:47.843Z</time></trkpt><trkpt lat="45.0804563" lon="7.7672597"><ele>676.0</ele><time>2026-04-10T08:03:49.841Z</time></trkpt><trkpt lat="45.0805009" lon="7.7671839"><ele>676.0</ele><time>2026-04-10T08:03:51.842Z</time></trkpt><trkpt lat="45.0805522" lon="7.7671206"><ele>676.0</ele><time>2026-04-10T08:03:53.842Z</time></trkpt><trkpt lat="45.0806296" lon="7.7670471"><ele>676.0</ele><time>2026-04-10T08:03:56.841Z</time></trkpt><trkpt lat="45.0806949" lon="7.767018"><ele>676.0</ele><time>2026-04-10T08:03:58.841Z</time></trkpt><trkpt lat="45.0807678" lon="7.7670419"><ele>676.0</ele><time>2026-04-10T08:04:00.842Z</time></trkpt><trkpt lat="45.0808495" lon="7.7670725"><ele>676.0</ele><time>2026-04-10T08:04:03.842Z</time></trkpt><trkpt lat="45.0809135" lon="7.7671498"><ele>676.0</ele><time>2026-04-10T08:04:06.841Z</time></trkpt><trkpt lat="45.080949" lon="7.7672323"><ele>677.1666666666667</ele><time>2026-04-10T08:04:08.843Z</time></trkpt><trkpt lat="45.0810149" lon="7.7672866"><ele>678.3333333333334</ele><time>2026-04-10T08:04:11.841Z</time></trkpt><trkpt lat="45.0810424" lon="7.767384"><ele>679.5</ele><time>2026-04-10T08:04:13.842Z</time></trkpt><trkpt lat="45.0810506" lon="7.7674875"><ele>680.6666666666666</ele><time>2026-04-10T08:04:15.841Z</time></trkpt><trkpt lat="45.0810805" lon="7.7675754"><ele>681.8333333333333</ele><time>2026-04-10T08:04:18.841Z</time></trkpt><trkpt lat="45.0811269" lon="7.7676639"><ele>683.0</ele><time>2026-04-10T08:04:21.843Z</time></trkpt><trkpt lat="45.0811616" lon="7.7677986"><ele>683.0</ele><time>2026-04-10T08:04:24.842Z</time></trkpt><trkpt lat="45.0811938" lon="7.7679061"><ele>683.0</ele><time>2026-04-10T08:04:26.841Z</time></trkpt><trkpt lat="45.0812132" lon="7.7680075"><ele>683.0</ele><time>2026-04-10T08:04:28.842Z</time></trkpt><trkpt lat="45.0812414" lon="7.7681153"><ele>683.0</ele><time>2026-04-10T08:04:30.842Z</time></trkpt><trkpt lat="45.0812717" lon="7.7682262"><ele>683.0</ele><time>2026-04-10T08:04:32.843Z</time></trkpt><trkpt lat="45.0812967" lon="7.7683402"><ele>683.0</ele><time>2026-04-10T08:04:34.843Z</time></trkpt><trkpt lat="45.0813256" lon="7.7684495"><ele>679.3333333333333</ele><time>2026-04-10T08:04:36.842Z</time></trkpt><trkpt lat="45.0813583" lon="7.7685443"><ele>675.6666666666666</ele><time>2026-04-10T08:04:38.843Z</time></trkpt><trkpt lat="45.0813889" lon="7.7686518"><ele>672.0</ele><time>2026-04-10T08:04:40.843Z</time></trkpt><trkpt lat="45.0814167" lon="7.7687573"><ele>668.3333333333334</ele><time>2026-04-10T08:04:42.842Z</time></trkpt><trkpt lat="45.0814557" lon="7.7688541"><ele>664.6666666666667</ele><time>2026-04-10T08:04:44.843Z</time></trkpt><trkpt lat="45.0814932" lon="7.7689385"><ele>661.0</ele><time>2026-04-10T08:04:46.843Z</time></trkpt><trkpt lat="45.0815304" lon="7.7690301"><ele>661.0</ele><time>2026-04-10T08:06:06.844Z</time></trkpt><trkpt lat="45.0814524" lon="7.7690549"><ele>661.0</ele><time>2026-04-10T08:06:10.843Z</time></trkpt><trkpt lat="45.0813797" lon="7.7690696"><ele>661.0</ele><time>2026-04-10T08:06:12.842Z</time></trkpt><trkpt lat="45.0812946" lon="7.7690737"><ele>661.0</ele><time>2026-04-10T08:06:14.843Z</time></trkpt><trkpt lat="45.0811977" lon="7.7690943"><ele>661.0</ele><time>2026-04-10T08:06:16.842Z</time></trkpt><trkpt lat="45.0811099" lon="7.7691063"><ele>661.0</ele><time>2026-04-10T08:06:18.842Z</time></trkpt><trkpt lat="45.0810422" lon="7.7691226"><ele>661.0</ele><time>2026-04-10T08:06:20.843Z</time></trkpt><trkpt lat="45.0809663" lon="7.7691655"><ele>661.0</ele><time>2026-04-10T08:06:23.843Z</time></trkpt><trkpt lat="45.0808895" lon="7.7691784"><ele>661.0</ele><time>2026-04-10T08:06:26.841Z</time></trkpt><trkpt lat="45.0807997" lon="7.7691271"><ele>661.0</ele><time>2026-04-10T08:06:29.842Z</time></trkpt><trkpt lat="45.080734" lon="7.7690649"><ele>661.0</ele><time>2026-04-10T08:06:31.842Z</time></trkpt><trkpt lat="45.0806716" lon="7.7690261"><ele>661.0</ele><time>2026-04-10T08:06:33.842Z</time></trkpt><trkpt lat="45.0806272" lon="7.7689297"><ele>661.3333333333334</ele><time>2026-04-10T08:06:36.842Z</time></trkpt><trkpt lat="45.0805968" lon="7.7688069"><ele>661.6666666666667</ele><time>2026-04-10T08:06:39.842Z</time></trkpt><trkpt lat="45.0805671" lon="7.7686775"><ele>662.0</ele><time>2026-04-10T08:06:42.843Z</time></trkpt><trkpt lat="45.0805489" lon="7.7685844"><ele>662.3333333333334</ele><time>2026-04-10T08:06:44.841Z</time></trkpt><trkpt lat="45.0805453" lon="7.768485"><ele>662.6666666666666</ele><time>2026-04-10T08:06:46.843Z</time></trkpt><trkpt lat="45.080543" lon="7.7683794"><ele>663.0</ele><time>2026-04-10T08:06:48.843Z</time></trkpt><trkpt lat="45.0805321" lon="7.7682717"><ele>663.0</ele><time>2026-04-10T08:06:50.842Z</time></trkpt><trkpt lat="45.0805221" lon="7.7681649"><ele>663.0</ele><time>2026-04-10T08:06:52.842Z</time></trkpt><trkpt lat="45.0805111" lon="7.7680611"><ele>663.0</ele><time>2026-04-10T08:06:54.844Z</time></trkpt><trkpt lat="45.080488" lon="7.7679386"><ele>663.0</ele><time>2026-04-10T08:06:57.843Z</time></trkpt><trkpt lat="45.0804649" lon="7.7678435"><ele>663.0</ele><time>2026-04-10T08:07:08.845Z</time></trkpt><trkpt lat="45.0804418" lon="7.7677603"><ele>663.0</ele><time>2026-04-10T08:07:18.843Z</time></trkpt><trkpt lat="45.0804067" lon="7.7676454"><ele>663.2857142857142</ele><time>2026-04-10T08:07:35.841Z</time></trkpt><trkpt lat="45.0803226" lon="7.7675853"><ele>663.5714285714286</ele><time>2026-04-10T08:07:38.844Z</time></trkpt><trkpt lat="45.0802609" lon="7.7675549"><ele>663.8571428571429</ele><time>2026-04-10T08:07:40.843Z</time></trkpt><trkpt lat="45.080205" lon="7.7675133"><ele>664.1428571428571</ele><time>2026-04-10T08:07:42.843Z</time></trkpt><trkpt lat="45.0801475" lon="7.7674698"><ele>664.4285714285714</ele><time>2026-04-10T08:07:44.844Z</time></trkpt><trkpt lat="45.0800707" lon="7.7674147"><ele>664.7142857142857</ele><time>2026-04-10T08:07:47.842Z</time></trkpt><trkpt lat="45.0800053" lon="7.767409"><ele>665.0</ele><time>2026-04-10T08:07:50.843Z</time></trkpt><trkpt lat="45.079916" lon="7.7674335"><ele>665.0</ele><time>2026-04-10T08:07:53.842Z</time></trkpt><trkpt lat="45.0798452" lon="7.7674558"><ele>665.0</ele><time>2026-04-10T08:07:55.842Z</time></trkpt><trkpt lat="45.0797319" lon="7.767495"><ele>665.0</ele><time>2026-04-10T08:07:57.841Z</time></trkpt><trkpt lat="45.0796397" lon="7.767535"><ele>665.0</ele><time>2026-04-10T08:07:59.842Z</time></trkpt><trkpt lat="45.0795497" lon="7.767619"><ele>665.0</ele><time>2026-04-10T08:08:01.843Z</time></trkpt><trkpt lat="45.0794345" lon="7.7676944"><ele>663.6</ele><time>2026-04-10T08:08:04.843Z</time></trkpt><trkpt lat="45.0793841" lon="7.7677641"><ele>662.2</ele><time>2026-04-10T08:08:05.844Z</time></trkpt><trkpt lat="45.0792934" lon="7.7678509"><ele>660.8</ele><time>2026-04-10T08:08:07.843Z</time></trkpt><trkpt lat="45.0792401" lon="7.7679024"><ele>659.4</ele><time>2026-04-10T08:08:08.842Z</time></trkpt><trkpt lat="45.0791392" lon="7.7680131"><ele>658.0</ele><time>2026-04-10T08:08:10.842Z</time></trkpt><trkpt lat="45.0790677" lon="7.7681157"><ele>658.0</ele><time>2026-04-10T08:08:12.842Z</time></trkpt><trkpt lat="45.0789825" lon="7.7682205"><ele>658.0</ele><time>2026-04-10T08:08:14.842Z</time></trkpt><trkpt lat="45.0789376" lon="7.7682836"><ele>658.0</ele><time>2026-04-10T08:08:15.843Z</time></trkpt><trkpt lat="45.0788774" lon="7.7684094"><ele>658.0</ele><time>2026-04-10T08:08:17.843Z</time></trkpt><trkpt lat="45.0788201" lon="7.7685284"><ele>658.0</ele><time>2026-04-10T08:08:19.843Z</time></trkpt><trkpt lat="45.0787512" lon="7.7686484"><ele>655.0</ele><time>2026-04-10T08:08:21.843Z</time></trkpt><trkpt lat="45.0787253" lon="7.7687408"><ele>652.0</ele><time>2026-04-10T08:08:22.842Z</time></trkpt><trkpt lat="45.0787036" lon="7.7688977"><ele>649.0</ele><time>2026-04-10T08:08:24.843Z</time></trkpt><trkpt lat="45.0786704" lon="7.7690464"><ele>646.0</ele><time>2026-04-10T08:08:26.843Z</time></trkpt><trkpt lat="45.0786039" lon="7.7691935"><ele>643.0</ele><time>2026-04-10T08:08:28.843Z</time></trkpt><trkpt lat="45.0785866" lon="7.7692882"><ele>641.0</ele><time>2026-04-10T08:08:30.843Z</time></trkpt><trkpt lat="45.0785687" lon="7.7693849"><ele>639.0</ele><time>2026-04-10T08:08:32.842Z</time></trkpt><trkpt lat="45.0785499" lon="7.7695102"><ele>637.0</ele><time>2026-04-10T08:08:35.842Z</time></trkpt><trkpt lat="45.0785027" lon="7.7695906"><ele>635.0</ele><time>2026-04-10T08:08:39.843Z</time></trkpt><trkpt lat="45.0784261" lon="7.7696176"><ele>633.0</ele><time>2026-04-10T08:08:41.843Z</time></trkpt><trkpt lat="45.0783479" lon="7.7697134"><ele>631.0</ele><time>2026-04-10T08:08:43.841Z</time></trkpt><trkpt lat="45.0782574" lon="7.769927"><ele>626.25</ele><time>2026-04-10T08:08:46.841Z</time></trkpt><trkpt lat="45.0782246" lon="7.7701588"><ele>621.5</ele><time>2026-04-10T08:08:49.843Z</time></trkpt><trkpt lat="45.0782008" lon="7.7703182"><ele>616.75</ele><time>2026-04-10T08:08:51.843Z</time></trkpt><trkpt lat="45.0781863" lon="7.7704597"><ele>612.0</ele><time>2026-04-10T08:08:53.843Z</time></trkpt><trkpt lat="45.0781459" lon="7.7706069"><ele>611.3333333333334</ele><time>2026-04-10T08:08:55.843Z</time></trkpt><trkpt lat="45.0781095" lon="7.7707376"><ele>610.6666666666666</ele><time>2026-04-10T08:08:57.842Z</time></trkpt><trkpt lat="45.0781205" lon="7.7708382"><ele>610.0</ele><time>2026-04-10T08:08:59.843Z</time></trkpt><trkpt lat="45.0781403" lon="7.7709325"><ele>609.3333333333333</ele><time>2026-04-10T08:09:01.841Z</time></trkpt><trkpt lat="45.0781561" lon="7.771026"><ele>608.6666666666666</ele><time>2026-04-10T08:09:03.843Z</time></trkpt><trkpt lat="45.0781224" lon="7.7711469"><ele>608.0</ele><time>2026-04-10T08:09:06.843Z</time></trkpt><trkpt lat="45.0781229" lon="7.7712439"><ele>607.8</ele><time>2026-04-10T08:09:08.842Z</time></trkpt><trkpt lat="45.0781951" lon="7.7713264"><ele>607.5999999999999</ele><time>2026-04-10T08:09:10.843Z</time></trkpt><trkpt lat="45.078297" lon="7.7714034"><ele>607.4000000000001</ele><time>2026-04-10T08:09:12.843Z</time></trkpt><trkpt lat="45.0783436" lon="7.7714719"><ele>607.2</ele><time>2026-04-10T08:09:13.843Z</time></trkpt><trkpt lat="45.078397" lon="7.7716201"><ele>607.0</ele><time>2026-04-10T08:09:15.842Z</time></trkpt><trkpt lat="45.0783904" lon="7.7718025"><ele>608.8000000000001</ele><time>2026-04-10T08:09:17.842Z</time></trkpt><trkpt lat="45.0783848" lon="7.7719789"><ele>610.6</ele><time>2026-04-10T08:09:19.843Z</time></trkpt><trkpt lat="45.0783906" lon="7.772073"><ele>612.4000000000001</ele><time>2026-04-10T08:09:20.843Z</time></trkpt><trkpt lat="45.0783889" lon="7.7722411"><ele>614.2</ele><time>2026-04-10T08:09:22.842Z</time></trkpt><trkpt lat="45.0783719" lon="7.7724103"><ele>616.0</ele><time>2026-04-10T08:09:24.843Z</time></trkpt><trkpt lat="45.0783268" lon="7.7725789"><ele>616.0</ele><time>2026-04-10T08:09:26.843Z</time></trkpt><trkpt lat="45.0783019" lon="7.772661"><ele>616.0</ele><time>2026-04-10T08:09:27.842Z</time></trkpt><trkpt lat="45.0782455" lon="7.7728236"><ele>616.0</ele><time>2026-04-10T08:09:29.843Z</time></trkpt><trkpt lat="45.0781863" lon="7.7729586"><ele>616.0</ele><time>2026-04-10T08:09:31.842Z</time></trkpt><trkpt lat="45.0780917" lon="7.7730686"><ele>616.0</ele><time>2026-04-10T08:09:33.843Z</time></trkpt><trkpt lat="45.0780098" lon="7.7731584"><ele>616.5</ele><time>2026-04-10T08:09:35.842Z</time></trkpt><trkpt lat="45.0779292" lon="7.7732229"><ele>617.0</ele><time>2026-04-10T08:09:37.843Z</time></trkpt><trkpt lat="45.0778699" lon="7.7732888"><ele>617.5</ele><time>2026-04-10T08:09:39.843Z</time></trkpt><trkpt lat="45.0777787" lon="7.7733656"><ele>618.0</ele><time>2026-04-10T08:09:42.842Z</time></trkpt><trkpt lat="45.0777308" lon="7.7734481"><ele>618.5</ele><time>2026-04-10T08:09:44.842Z</time></trkpt><trkpt lat="45.0776746" lon="7.7735331"><ele>619.0</ele><time>2026-04-10T08:09:47.843Z</time></trkpt><trkpt lat="45.0776247" lon="7.7736087"><ele>619.7142857142857</ele><time>2026-04-10T08:09:50.841Z</time></trkpt><trkpt lat="45.0775693" lon="7.7736624"><ele>620.4285714285714</ele><time>2026-04-10T08:09:53.842Z</time></trkpt><trkpt lat="45.0775117" lon="7.773733"><ele>621.1428571428571</ele><time>2026-04-10T08:09:56.843Z</time></trkpt><trkpt lat="45.0774538" lon="7.7737914"><ele>621.8571428571429</ele><time>2026-04-10T08:09:59.842Z</time></trkpt><trkpt lat="45.0774057" lon="7.7738574"><ele>622.5714285714286</ele><time>2026-04-10T08:10:02.842Z</time></trkpt><trkpt lat="45.0773383" lon="7.7739262"><ele>623.2857142857143</ele><time>2026-04-10T08:10:06.843Z</time></trkpt><trkpt lat="45.0772858" lon="7.7739783"><ele>624.0</ele><time>2026-04-10T08:10:09.842Z</time></trkpt><trkpt lat="45.077215" lon="7.7740226"><ele>626.1666666666666</ele><time>2026-04-10T08:10:12.842Z</time></trkpt><trkpt lat="45.0771353" lon="7.7740499"><ele>628.3333333333334</ele><time>2026-04-10T08:10:15.843Z</time></trkpt><trkpt lat="45.0770561" lon="7.7740663"><ele>630.5</ele><time>2026-04-10T08:10:18.842Z</time></trkpt><trkpt lat="45.0769788" lon="7.7740717"><ele>632.6666666666667</ele><time>2026-04-10T08:10:21.843Z</time></trkpt><trkpt lat="45.0769053" lon="7.77407"><ele>634.8333333333334</ele><time>2026-04-10T08:10:24.842Z</time></trkpt><trkpt lat="45.07683" lon="7.774059"><ele>637.0</ele><time>2026-04-10T08:10:27.843Z</time></trkpt><trkpt lat="45.0767526" lon="7.7740558"><ele>637.0</ele><time>2026-04-10T08:10:30.842Z</time></trkpt><trkpt lat="45.0766671" lon="7.774038"><ele>637.0</ele><time>2026-04-10T08:10:33.843Z</time></trkpt><trkpt lat="45.076578" lon="7.7740203"><ele>637.0</ele><time>2026-04-10T08:10:36.842Z</time></trkpt><trkpt lat="45.076494" lon="7.7740198"><ele>637.0</ele><time>2026-04-10T08:10:39.842Z</time></trkpt><trkpt lat="45.0764142" lon="7.7740122"><ele>637.0</ele><time>2026-04-10T08:10:42.842Z</time></trkpt><trkpt lat="45.076326" lon="7.7740089"><ele>637.0</ele><time>2026-04-10T08:10:45.842Z</time></trkpt><trkpt lat="45.0762419" lon="7.7740087"><ele>638.5</ele><time>2026-04-10T08:10:48.843Z</time></trkpt><trkpt lat="45.0761664" lon="7.7740167"><ele>640.0</ele><time>2026-04-10T08:10:51.843Z</time></trkpt><trkpt lat="45.0760862" lon="7.7740117"><ele>641.5</ele><time>2026-04-10T08:10:54.843Z</time></trkpt><trkpt lat="45.0760021" lon="7.7739879"><ele>643.0</ele><time>2026-04-10T08:10:57.843Z</time></trkpt><trkpt lat="45.0759179" lon="7.7739609"><ele>644.5</ele><time>2026-04-10T08:11:00.843Z</time></trkpt><trkpt lat="45.0758381" lon="7.7739287"><ele>646.0</ele><time>2026-04-10T08:11:03.843Z</time></trkpt><trkpt lat="45.0757486" lon="7.7738964"><ele>643.0000000000001</ele><time>2026-04-10T08:11:06.844Z</time></trkpt><trkpt lat="45.0756864" lon="7.7738818"><ele>640.0</ele><time>2026-04-10T08:11:08.844Z</time></trkpt><trkpt lat="45.0756232" lon="7.7738804"><ele>637.0</ele><time>2026-04-10T08:11:10.842Z</time></trkpt><trkpt lat="45.0755615" lon="7.7739031"><ele>634.0</ele><time>2026-04-10T08:11:12.843Z</time></trkpt><trkpt lat="45.0754836" lon="7.7739743"><ele>631.0</ele><time>2026-04-10T08:11:15.843Z</time></trkpt><trkpt lat="45.07544" lon="7.7740425"><ele>628.0000000000001</ele><time>2026-04-10T08:11:17.844Z</time></trkpt><trkpt lat="45.0754085" lon="7.774134"><ele>625.0</ele><time>2026-04-10T08:11:19.843Z</time></trkpt><trkpt lat="45.075391" lon="7.7742433"><ele>625.0</ele><time>2026-04-10T08:11:21.843Z</time></trkpt><trkpt lat="45.0753794" lon="7.774353"><ele>625.0</ele><time>2026-04-10T08:11:23.842Z</time></trkpt><trkpt lat="45.0753724" lon="7.7744709"><ele>625.0</ele><time>2026-04-10T08:11:25.842Z</time></trkpt><trkpt lat="45.0753699" lon="7.7745956"><ele>625.0</ele><time>2026-04-10T08:11:27.842Z</time></trkpt><trkpt lat="45.0753511" lon="7.7747184"><ele>625.0</ele><time>2026-04-10T08:11:29.844Z</time></trkpt><trkpt lat="45.0753356" lon="7.7748267"><ele>625.0</ele><time>2026-04-10T08:11:31.843Z</time></trkpt><trkpt lat="45.0753151" lon="7.7749264"><ele>627.0</ele><time>2026-04-10T08:11:33.842Z</time></trkpt><trkpt lat="45.0752902" lon="7.7750365"><ele>629.0</ele><time>2026-04-10T08:11:35.843Z</time></trkpt><trkpt lat="45.0752525" lon="7.775152"><ele>631.0</ele><time>2026-04-10T08:11:37.843Z</time></trkpt><trkpt lat="45.0752087" lon="7.7752443"><ele>633.0</ele><time>2026-04-10T08:11:39.843Z</time></trkpt><trkpt lat="45.0751652" lon="7.7753403"><ele>635.0</ele><time>2026-04-10T08:11:41.843Z</time></trkpt><trkpt lat="45.075113" lon="7.7754217"><ele>637.0</ele><time>2026-04-10T08:11:43.843Z</time></trkpt><trkpt lat="45.0750482" lon="7.7754963"><ele>637.1666666666667</ele><time>2026-04-10T08:11:45.843Z</time></trkpt><trkpt lat="45.0749716" lon="7.775578"><ele>637.3333333333334</ele><time>2026-04-10T08:11:47.843Z</time></trkpt><trkpt lat="45.0749203" lon="7.7756552"><ele>637.5</ele><time>2026-04-10T08:11:49.844Z</time></trkpt><trkpt lat="45.0748625" lon="7.7757244"><ele>637.6666666666666</ele><time>2026-04-10T08:11:51.842Z</time></trkpt><trkpt lat="45.0747952" lon="7.7757795"><ele>637.8333333333333</ele><time>2026-04-10T08:11:53.844Z</time></trkpt><trkpt lat="45.0747054" lon="7.7758364"><ele>638.0</ele><time>2026-04-10T08:11:56.844Z</time></trkpt><trkpt lat="45.0746361" lon="7.7758813"><ele>638.0</ele><time>2026-04-10T08:11:58.842Z</time></trkpt><trkpt lat="45.0745549" lon="7.7759329"><ele>638.0</ele><time>2026-04-10T08:12:01.842Z</time></trkpt><trkpt lat="45.0744705" lon="7.7759758"><ele>638.0</ele><time>2026-04-10T08:12:04.842Z</time></trkpt><trkpt lat="45.0743919" lon="7.7760256"><ele>638.0</ele><time>2026-04-10T08:12:07.844Z</time></trkpt><trkpt lat="45.0743283" lon="7.7761029"><ele>638.0</ele><time>2026-04-10T08:12:10.843Z</time></trkpt><trkpt lat="45.0742676" lon="7.7761919"><ele>638.0</ele><time>2026-04-10T08:12:13.843Z</time></trkpt><trkpt lat="45.0742096" lon="7.7762666"><ele>636.4285714285714</ele><time>2026-04-10T08:12:16.842Z</time></trkpt><trkpt lat="45.0741798" lon="7.7763716"><ele>634.8571428571428</ele><time>2026-04-10T08:12:19.843Z</time></trkpt><trkpt lat="45.0741603" lon="7.7764596"><ele>633.2857142857142</ele><time>2026-04-10T08:12:21.843Z</time></trkpt><trkpt lat="45.0741411" lon="7.7765566"><ele>631.7142857142858</ele><time>2026-04-10T08:12:23.842Z</time></trkpt><trkpt lat="45.0741281" lon="7.7766579"><ele>630.1428571428571</ele><time>2026-04-10T08:12:25.842Z</time></trkpt><trkpt lat="45.0741065" lon="7.7767616"><ele>628.5714285714286</ele><time>2026-04-10T08:12:27.842Z</time></trkpt><trkpt lat="45.0740899" lon="7.7768768"><ele>627.0</ele><time>2026-04-10T08:12:29.843Z</time></trkpt><trkpt lat="45.0740637" lon="7.7769957"><ele>627.0</ele><time>2026-04-10T08:12:31.843Z</time></trkpt><trkpt lat="45.0740419" lon="7.7771122"><ele>627.0</ele><time>2026-04-10T08:12:33.843Z</time></trkpt><trkpt lat="45.0740243" lon="7.7772295"><ele>627.0</ele><time>2026-04-10T08:12:35.842Z</time></trkpt><trkpt lat="45.0740068" lon="7.777344"><ele>627.0</ele><time>2026-04-10T08:12:37.843Z</time></trkpt><trkpt lat="45.0739788" lon="7.7774648"><ele>627.0</ele><time>2026-04-10T08:12:39.842Z</time></trkpt><trkpt lat="45.0739583" lon="7.7775974"><ele>627.0</ele><time>2026-04-10T08:12:41.842Z</time></trkpt><trkpt lat="45.0739362" lon="7.7777195"><ele>627.8000000000001</ele><time>2026-04-10T08:12:43.844Z</time></trkpt><trkpt lat="45.0739083" lon="7.7778393"><ele>628.6</ele><time>2026-04-10T08:12:45.843Z</time></trkpt><trkpt lat="45.073901" lon="7.7779582"><ele>629.4000000000001</ele><time>2026-04-10T08:12:47.842Z</time></trkpt><trkpt lat="45.0739023" lon="7.7780957"><ele>630.2</ele><time>2026-04-10T08:12:49.844Z</time></trkpt><trkpt lat="45.0739082" lon="7.7782334"><ele>631.0</ele><time>2026-04-10T08:12:51.843Z</time></trkpt><trkpt lat="45.0739239" lon="7.7784148"><ele>631.0</ele><time>2026-04-10T08:12:53.842Z</time></trkpt><trkpt lat="45.0739666" lon="7.7786133"><ele>631.0</ele><time>2026-04-10T08:12:55.843Z</time></trkpt><trkpt lat="45.0739891" lon="7.7787538"><ele>631.0</ele><time>2026-04-10T08:12:57.842Z</time></trkpt><trkpt lat="45.0740225" lon="7.7788854"><ele>631.0</ele><time>2026-04-10T08:12:59.843Z</time></trkpt><trkpt lat="45.0740556" lon="7.7789943"><ele>631.0</ele><time>2026-04-10T08:13:01.842Z</time></trkpt><trkpt lat="45.0740621" lon="7.7790847"><ele>631.0</ele><time>2026-04-10T08:13:02.842Z</time></trkpt><trkpt lat="45.0740729" lon="7.7792498"><ele>631.0</ele><time>2026-04-10T08:13:04.843Z</time></trkpt><trkpt lat="45.0740757" lon="7.7793598"><ele>631.0</ele><time>2026-04-10T08:13:05.842Z</time></trkpt><trkpt lat="45.0740772" lon="7.7794585"><ele>631.0</ele><time>2026-04-10T08:13:06.843Z</time></trkpt><trkpt lat="45.074056" lon="7.7795655"><ele>631.0</ele><time>2026-04-10T08:13:07.843Z</time></trkpt><trkpt lat="45.0740392" lon="7.7796573"><ele>631.0</ele><time>2026-04-10T08:13:08.843Z</time></trkpt><trkpt lat="45.0740179" lon="7.7797644"><ele>631.4285714285714</ele><time>2026-04-10T08:13:09.844Z</time></trkpt><trkpt lat="45.0740107" lon="7.7798675"><ele>631.8571428571428</ele><time>2026-04-10T08:13:10.843Z</time></trkpt><trkpt lat="45.0739997" lon="7.779958"><ele>632.2857142857142</ele><time>2026-04-10T08:13:11.842Z</time></trkpt><trkpt lat="45.0739897" lon="7.7800497"><ele>632.7142857142858</ele><time>2026-04-10T08:13:12.843Z</time></trkpt><trkpt lat="45.0739636" lon="7.7801548"><ele>633.1428571428571</ele><time>2026-04-10T08:13:13.843Z</time></trkpt><trkpt lat="45.0739469" lon="7.7802435"><ele>633.5714285714286</ele><time>2026-04-10T08:13:14.843Z</time></trkpt><trkpt lat="45.0739345" lon="7.7803493"><ele>634.0</ele><time>2026-04-10T08:13:15.844Z</time></trkpt><trkpt lat="45.0739224" lon="7.7804412"><ele>634.5714285714286</ele><time>2026-04-10T08:13:16.844Z</time></trkpt><trkpt lat="45.0739128" lon="7.7805486"><ele>635.1428571428571</ele><time>2026-04-10T08:13:17.843Z</time></trkpt><trkpt lat="45.0738885" lon="7.7806497"><ele>635.7142857142858</ele><time>2026-04-10T08:13:18.842Z</time></trkpt><trkpt lat="45.0738767" lon="7.7807484"><ele>636.2857142857142</ele><time>2026-04-10T08:13:19.843Z</time></trkpt><trkpt lat="45.073863" lon="7.7808528"><ele>636.8571428571428</ele><time>2026-04-10T08:13:20.842Z</time></trkpt><trkpt lat="45.073858" lon="7.7809583"><ele>637.4285714285714</ele><time>2026-04-10T08:13:21.843Z</time></trkpt><trkpt lat="45.0738502" lon="7.7810596"><ele>638.0</ele><time>2026-04-10T08:13:22.844Z</time></trkpt><trkpt lat="45.0738451" lon="7.7811692"><ele>638.6666666666666</ele><time>2026-04-10T08:13:23.843Z</time></trkpt><trkpt lat="45.073838" lon="7.7812746"><ele>639.3333333333333</ele><time>2026-04-10T08:13:24.842Z</time></trkpt><trkpt lat="45.0738585" lon="7.7813996"><ele>640.0</ele><time>2026-04-10T08:13:26.843Z</time></trkpt><trkpt lat="45.0738707" lon="7.7815641"><ele>640.6666666666666</ele><time>2026-04-10T08:13:28.844Z</time></trkpt><trkpt lat="45.0738664" lon="7.7816998"><ele>641.3333333333334</ele><time>2026-04-10T08:13:30.843Z</time></trkpt><trkpt lat="45.0738722" lon="7.7817966"><ele>642.0</ele><time>2026-04-10T08:13:32.843Z</time></trkpt><trkpt lat="45.0738652" lon="7.7819077"><ele>643.1666666666666</ele><time>2026-04-10T08:14:31.843Z</time></trkpt><trkpt lat="45.0739047" lon="7.7820016"><ele>644.3333333333334</ele><time>2026-04-10T08:14:34.843Z</time></trkpt><trkpt lat="45.0739579" lon="7.7820851"><ele>645.5</ele><time>2026-04-10T08:14:36.844Z</time></trkpt><trkpt lat="45.0739986" lon="7.7821826"><ele>646.6666666666667</ele><time>2026-04-10T08:14:38.844Z</time></trkpt><trkpt lat="45.0740135" lon="7.7822749"><ele>647.8333333333334</ele><time>2026-04-10T08:14:39.842Z</time></trkpt><trkpt lat="45.0740241" lon="7.7823941"><ele>649.0</ele><time>2026-04-10T08:14:41.842Z</time></trkpt><trkpt lat="45.0740184" lon="7.7825285"><ele>649.0</ele><time>2026-04-10T08:14:43.842Z</time></trkpt><trkpt lat="45.0740479" lon="7.7826583"><ele>649.0</ele><time>2026-04-10T08:14:45.843Z</time></trkpt><trkpt lat="45.0740385" lon="7.782808"><ele>649.0</ele><time>2026-04-10T08:14:47.843Z</time></trkpt><trkpt lat="45.0740297" lon="7.7829291"><ele>649.0</ele><time>2026-04-10T08:14:49.842Z</time></trkpt><trkpt lat="45.0740354" lon="7.7831541"><ele>649.0</ele><time>2026-04-10T08:14:52.843Z</time></trkpt><trkpt lat="45.0739733" lon="7.7832928"><ele>649.8000000000001</ele><time>2026-04-10T08:14:54.843Z</time></trkpt><trkpt lat="45.0739933" lon="7.7834046"><ele>650.6</ele><time>2026-04-10T08:14:56.843Z</time></trkpt><trkpt lat="45.0739968" lon="7.7835859"><ele>651.4</ele><time>2026-04-10T08:14:58.843Z</time></trkpt><trkpt lat="45.0740306" lon="7.7837335"><ele>652.2</ele><time>2026-04-10T08:15:00.842Z</time></trkpt><trkpt lat="45.0740302" lon="7.7838585"><ele>653.0</ele><time>2026-04-10T08:15:02.842Z</time></trkpt><trkpt lat="45.0740561" lon="7.7839883"><ele>652.6666666666666</ele><time>2026-04-10T08:15:04.842Z</time></trkpt><trkpt lat="45.0740812" lon="7.7840726"><ele>652.3333333333333</ele><time>2026-04-10T08:15:05.842Z</time></trkpt><trkpt lat="45.0741029" lon="7.7842082"><ele>652.0</ele><time>2026-04-10T08:15:07.844Z</time></trkpt><trkpt lat="45.0740695" lon="7.784319"><ele>651.6666666666666</ele><time>2026-04-10T08:15:10.843Z</time></trkpt><trkpt lat="45.0740482" lon="7.7844179"><ele>651.3333333333334</ele><time>2026-04-10T08:15:13.844Z</time></trkpt><trkpt lat="45.073997" lon="7.7845378"><ele>651.0</ele><time>2026-04-10T08:15:16.842Z</time></trkpt><trkpt lat="45.0739577" lon="7.7846493"><ele>651.0</ele><time>2026-04-10T08:15:18.843Z</time></trkpt><trkpt lat="45.0739229" lon="7.7847674"><ele>651.0</ele><time>2026-04-10T08:15:20.842Z</time></trkpt><trkpt lat="45.0738859" lon="7.784874"><ele>651.0</ele><time>2026-04-10T08:15:22.843Z</time></trkpt><trkpt lat="45.0738471" lon="7.7849717"><ele>651.0</ele><time>2026-04-10T08:15:24.843Z</time></trkpt><trkpt lat="45.0737915" lon="7.7850482"><ele>651.0</ele><time>2026-04-10T08:15:26.842Z</time></trkpt><trkpt lat="45.0737314" lon="7.785134"><ele>651.0</ele><time>2026-04-10T08:15:28.843Z</time></trkpt><trkpt lat="45.0736631" lon="7.7852217"><ele>647.4</ele><time>2026-04-10T08:15:31.843Z</time></trkpt><trkpt lat="45.0736061" lon="7.7852987"><ele>643.8</ele><time>2026-04-10T08:15:33.842Z</time></trkpt><trkpt lat="45.073522" lon="7.785382"><ele>640.1999999999999</ele><time>2026-04-10T08:15:35.843Z</time></trkpt><trkpt lat="45.0734603" lon="7.7854788"><ele>636.5999999999999</ele><time>2026-04-10T08:15:38.843Z</time></trkpt><trkpt lat="45.0733838" lon="7.7855954"><ele>633.0</ele><time>2026-04-10T08:15:40.844Z</time></trkpt><trkpt lat="45.0733076" lon="7.7857075"><ele>633.4</ele><time>2026-04-10T08:15:42.843Z</time></trkpt><trkpt lat="45.0732155" lon="7.7858211"><ele>633.8</ele><time>2026-04-10T08:15:44.843Z</time></trkpt><trkpt lat="45.0731773" lon="7.7859007"><ele>634.2</ele><time>2026-04-10T08:15:46.843Z</time></trkpt><trkpt lat="45.0731436" lon="7.7859853"><ele>634.6</ele><time>2026-04-10T08:15:48.843Z</time></trkpt><trkpt lat="45.0730926" lon="7.7860992"><ele>635.0</ele><time>2026-04-10T08:15:50.843Z</time></trkpt><trkpt lat="45.0730155" lon="7.786207"><ele>632.0</ele><time>2026-04-10T08:15:52.843Z</time></trkpt><trkpt lat="45.0729667" lon="7.7862765"><ele>629.0</ele><time>2026-04-10T08:15:53.842Z</time></trkpt><trkpt lat="45.0729047" lon="7.7863357"><ele>626.0</ele><time>2026-04-10T08:15:54.844Z</time></trkpt><trkpt lat="45.0728077" lon="7.7864342"><ele>623.0</ele><time>2026-04-10T08:15:56.843Z</time></trkpt><trkpt lat="45.0727159" lon="7.786558"><ele>620.0</ele><time>2026-04-10T08:15:58.843Z</time></trkpt><trkpt lat="45.0726547" lon="7.7866482"><ele>620.0</ele><time>2026-04-10T08:16:00.843Z</time></trkpt><trkpt lat="45.0725722" lon="7.7867031"><ele>620.0</ele><time>2026-04-10T08:16:02.843Z</time></trkpt><trkpt lat="45.0725016" lon="7.7866828"><ele>620.0</ele><time>2026-04-10T08:16:05.842Z</time></trkpt><trkpt lat="45.0724422" lon="7.7866455"><ele>620.0</ele><time>2026-04-10T08:16:07.843Z</time></trkpt><trkpt lat="45.0723818" lon="7.7866119"><ele>620.0</ele><time>2026-04-10T08:16:08.842Z</time></trkpt><trkpt lat="45.0722886" lon="7.7865957"><ele>620.0</ele><time>2026-04-10T08:16:10.843Z</time></trkpt><trkpt lat="45.0721478" lon="7.786587"><ele>616.5</ele><time>2026-04-10T08:16:12.845Z</time></trkpt><trkpt lat="45.0720746" lon="7.7866049"><ele>613.0</ele><time>2026-04-10T08:16:13.843Z</time></trkpt><trkpt lat="45.0720063" lon="7.7866387"><ele>609.5</ele><time>2026-04-10T08:16:14.843Z</time></trkpt><trkpt lat="45.0719478" lon="7.7866737"><ele>606.0</ele><time>2026-04-10T08:16:15.843Z</time></trkpt><trkpt lat="45.0718495" lon="7.7867857"><ele>602.5</ele><time>2026-04-10T08:16:17.844Z</time></trkpt><trkpt lat="45.0717788" lon="7.7868181"><ele>599.0</ele><time>2026-04-10T08:16:18.843Z</time></trkpt><trkpt lat="45.071762" lon="7.7869157"><ele>598.1666666666666</ele><time>2026-04-10T08:16:19.842Z</time></trkpt><trkpt lat="45.0717555" lon="7.7870224"><ele>597.3333333333333</ele><time>2026-04-10T08:16:20.843Z</time></trkpt><trkpt lat="45.0717569" lon="7.7871223"><ele>596.5</ele><time>2026-04-10T08:16:21.842Z</time></trkpt><trkpt lat="45.0717802" lon="7.787242"><ele>595.6666666666666</ele><time>2026-04-10T08:16:22.843Z</time></trkpt><trkpt lat="45.0717937" lon="7.78735"><ele>594.8333333333334</ele><time>2026-04-10T08:16:23.843Z</time></trkpt><trkpt lat="45.0717921" lon="7.7874646"><ele>594.0</ele><time>2026-04-10T08:16:24.842Z</time></trkpt><trkpt lat="45.0717587" lon="7.7875442"><ele>594.0</ele><time>2026-04-10T08:16:25.842Z</time></trkpt><trkpt lat="45.0717055" lon="7.787613"><ele>594.0</ele><time>2026-04-10T08:16:26.843Z</time></trkpt><trkpt lat="45.0716339" lon="7.7876382"><ele>594.0</ele><time>2026-04-10T08:16:27.844Z</time></trkpt><trkpt lat="45.0715716" lon="7.7877049"><ele>594.0</ele><time>2026-04-10T08:16:28.843Z</time></trkpt><trkpt lat="45.0715189" lon="7.7877798"><ele>594.0</ele><time>2026-04-10T08:16:29.843Z</time></trkpt><trkpt lat="45.0714819" lon="7.7878739"><ele>594.0</ele><time>2026-04-10T08:16:30.843Z</time></trkpt><trkpt lat="45.0714358" lon="7.7879766"><ele>590.4</ele><time>2026-04-10T08:16:31.843Z</time></trkpt><trkpt lat="45.0713949" lon="7.788082"><ele>586.8</ele><time>2026-04-10T08:16:32.844Z</time></trkpt><trkpt lat="45.0713532" lon="7.7882012"><ele>583.2</ele><time>2026-04-10T08:16:33.843Z</time></trkpt><trkpt lat="45.0713132" lon="7.7883306"><ele>579.6</ele><time>2026-04-10T08:16:34.843Z</time></trkpt><trkpt lat="45.0712732" lon="7.7884633"><ele>576.0</ele><time>2026-04-10T08:16:35.843Z</time></trkpt><trkpt lat="45.0712299" lon="7.7885973"><ele>576.0</ele><time>2026-04-10T08:16:36.843Z</time></trkpt><trkpt lat="45.0711731" lon="7.7887279"><ele>576.0</ele><time>2026-04-10T08:16:37.843Z</time></trkpt><trkpt lat="45.0711259" lon="7.7888616"><ele>576.0</ele><time>2026-04-10T08:16:38.842Z</time></trkpt><trkpt lat="45.0710783" lon="7.7889795"><ele>576.0</ele><time>2026-04-10T08:16:39.843Z</time></trkpt><trkpt lat="45.0710333" lon="7.7890729"><ele>576.0</ele><time>2026-04-10T08:16:40.843Z</time></trkpt><trkpt lat="45.0709979" lon="7.7891607"><ele>576.0</ele><time>2026-04-10T08:16:41.843Z</time></trkpt><trkpt lat="45.070975" lon="7.7893203"><ele>576.0</ele><time>2026-04-10T08:16:43.843Z</time></trkpt><trkpt lat="45.0709976" lon="7.7894091"><ele>576.0</ele><time>2026-04-10T08:16:44.842Z</time></trkpt><trkpt lat="45.0710403" lon="7.7894934"><ele>576.0</ele><time>2026-04-10T08:16:45.842Z</time></trkpt><trkpt lat="45.0710813" lon="7.7895688"><ele>576.0</ele><time>2026-04-10T08:16:46.844Z</time></trkpt><trkpt lat="45.0711311" lon="7.7896485"><ele>576.0</ele><time>2026-04-10T08:16:47.844Z</time></trkpt><trkpt lat="45.0711724" lon="7.7897346"><ele>575.5</ele><time>2026-04-10T08:16:48.842Z</time></trkpt><trkpt lat="45.0711983" lon="7.7898299"><ele>575.0</ele><time>2026-04-10T08:16:49.843Z</time></trkpt><trkpt lat="45.0711967" lon="7.7899315"><ele>574.5</ele><time>2026-04-10T08:16:50.843Z</time></trkpt><trkpt lat="45.0712135" lon="7.7900618"><ele>574.0</ele><time>2026-04-10T08:16:51.843Z</time></trkpt><trkpt lat="45.0712055" lon="7.7901585"><ele>573.5</ele><time>2026-04-10T08:16:52.842Z</time></trkpt><trkpt lat="45.0711805" lon="7.7902662"><ele>573.0</ele><time>2026-04-10T08:16:53.842Z</time></trkpt><trkpt lat="45.0711684" lon="7.7903915"><ele>573.0</ele><time>2026-04-10T08:16:54.843Z</time></trkpt><trkpt lat="45.071161" lon="7.7904951"><ele>573.0</ele><time>2026-04-10T08:16:55.843Z</time></trkpt><trkpt lat="45.0711365" lon="7.7906128"><ele>573.0</ele><time>2026-04-10T08:16:56.843Z</time></trkpt><trkpt lat="45.0711058" lon="7.7907215"><ele>573.0</ele><time>2026-04-10T08:16:57.843Z</time></trkpt><trkpt lat="45.0710759" lon="7.7908049"><ele>573.0</ele><time>2026-04-10T08:16:58.843Z</time></trkpt><trkpt lat="45.0710172" lon="7.7908905"><ele>573.0</ele><time>2026-04-10T08:16:59.842Z</time></trkpt><trkpt lat="45.0709506" lon="7.7909714"><ele>573.1666666666666</ele><time>2026-04-10T08:17:00.843Z</time></trkpt><trkpt lat="45.0708954" lon="7.7910421"><ele>573.3333333333334</ele><time>2026-04-10T08:17:01.843Z</time></trkpt><trkpt lat="45.0708259" lon="7.7911817"><ele>573.5</ele><time>2026-04-10T08:17:03.843Z</time></trkpt><trkpt lat="45.0708409" lon="7.7913382"><ele>573.6666666666667</ele><time>2026-04-10T08:17:05.843Z</time></trkpt><trkpt lat="45.0708922" lon="7.7914006"><ele>573.8333333333334</ele><time>2026-04-10T08:17:07.843Z</time></trkpt><trkpt lat="45.070957" lon="7.7914518"><ele>574.0</ele><time>2026-04-10T08:17:11.843Z</time></trkpt><trkpt lat="45.0710337" lon="7.7915086"><ele>574.0</ele><time>2026-04-10T08:17:13.844Z</time></trkpt><trkpt lat="45.0711083" lon="7.7915319"><ele>574.0</ele><time>2026-04-10T08:17:15.842Z</time></trkpt><trkpt lat="45.0712234" lon="7.7915768"><ele>574.0</ele><time>2026-04-10T08:17:17.844Z</time></trkpt><trkpt lat="45.0713718" lon="7.7916319"><ele>574.0</ele><time>2026-04-10T08:17:19.843Z</time></trkpt><trkpt lat="45.0714964" lon="7.7916825"><ele>572.4</ele><time>2026-04-10T08:17:20.843Z</time></trkpt><trkpt lat="45.0716354" lon="7.7917364"><ele>570.8</ele><time>2026-04-10T08:17:22.843Z</time></trkpt><trkpt lat="45.071728" lon="7.7917187"><ele>569.2</ele><time>2026-04-10T08:17:23.843Z</time></trkpt><trkpt lat="45.0718044" lon="7.7916761"><ele>567.6</ele><time>2026-04-10T08:17:24.843Z</time></trkpt><trkpt lat="45.0718915" lon="7.7916309"><ele>566.0</ele><time>2026-04-10T08:17:25.843Z</time></trkpt><trkpt lat="45.0719631" lon="7.7915393"><ele>566.0</ele><time>2026-04-10T08:17:26.842Z</time></trkpt><trkpt lat="45.072056" lon="7.7914152"><ele>566.0</ele><time>2026-04-10T08:17:27.843Z</time></trkpt><trkpt lat="45.0721457" lon="7.7913473"><ele>566.0</ele><time>2026-04-10T08:17:28.843Z</time></trkpt><trkpt lat="45.0722306" lon="7.7912836"><ele>566.0</ele><time>2026-04-10T08:17:29.843Z</time></trkpt><trkpt lat="45.0723288" lon="7.7912379"><ele>566.0</ele><time>2026-04-10T08:17:30.843Z</time></trkpt><trkpt lat="45.0724842" lon="7.7911633"><ele>563.8333333333333</ele><time>2026-04-10T08:17:32.843Z</time></trkpt><trkpt lat="45.072568" lon="7.7911525"><ele>561.6666666666666</ele><time>2026-04-10T08:17:33.842Z</time></trkpt><trkpt lat="45.0726713" lon="7.7911404"><ele>559.5</ele><time>2026-04-10T08:17:34.843Z</time></trkpt><trkpt lat="45.0727441" lon="7.7911039"><ele>557.3333333333334</ele><time>2026-04-10T08:17:35.843Z</time></trkpt><trkpt lat="45.0728198" lon="7.7911128"><ele>555.1666666666667</ele><time>2026-04-10T08:17:36.843Z</time></trkpt><trkpt lat="45.0728881" lon="7.791104"><ele>553.0</ele><time>2026-04-10T08:17:37.842Z</time></trkpt><trkpt lat="45.0730113" lon="7.7910966"><ele>553.0</ele><time>2026-04-10T08:17:39.842Z</time></trkpt><trkpt lat="45.0731273" lon="7.7910935"><ele>553.0</ele><time>2026-04-10T08:17:41.842Z</time></trkpt><trkpt lat="45.0732368" lon="7.7910893"><ele>553.0</ele><time>2026-04-10T08:17:43.843Z</time></trkpt><trkpt lat="45.0733225" lon="7.7910842"><ele>553.0</ele><time>2026-04-10T08:17:45.842Z</time></trkpt><trkpt lat="45.0733825" lon="7.7911523"><ele>553.0</ele><time>2026-04-10T08:17:47.844Z</time></trkpt><trkpt lat="45.0734128" lon="7.7912892"><ele>553.0</ele><time>2026-04-10T08:17:49.843Z</time></trkpt><trkpt lat="45.0734652" lon="7.7914577"><ele>553.0</ele><time>2026-04-10T08:17:51.844Z</time></trkpt><trkpt lat="45.0734779" lon="7.7915655"><ele>553.0</ele><time>2026-04-10T08:17:52.842Z</time></trkpt><trkpt lat="45.0734866" lon="7.7916604"><ele>553.0</ele><time>2026-04-10T08:17:53.843Z</time></trkpt><trkpt lat="45.0734986" lon="7.7917645"><ele>553.0</ele><time>2026-04-10T08:17:54.845Z</time></trkpt><trkpt lat="45.0735118" lon="7.7919769"><ele>552.4</ele><time>2026-04-10T08:17:56.844Z</time></trkpt><trkpt lat="45.0735085" lon="7.7920835"><ele>551.8</ele><time>2026-04-10T08:17:57.843Z</time></trkpt><trkpt lat="45.0735047" lon="7.7921852"><ele>551.2</ele><time>2026-04-10T08:17:58.843Z</time></trkpt><trkpt lat="45.0735041" lon="7.7922913"><ele>550.6</ele><time>2026-04-10T08:17:59.843Z</time></trkpt><trkpt lat="45.0735071" lon="7.7923895"><ele>550.0</ele><time>2026-04-10T08:18:00.844Z</time></trkpt><trkpt lat="45.0735076" lon="7.7926294"><ele>550.4</ele><time>2026-04-10T08:18:02.842Z</time></trkpt><trkpt lat="45.07351" lon="7.7927462"><ele>550.8</ele><time>2026-04-10T08:18:03.844Z</time></trkpt><trkpt lat="45.0735124" lon="7.7928616"><ele>551.2</ele><time>2026-04-10T08:18:04.843Z</time></trkpt><trkpt lat="45.0735126" lon="7.7929811"><ele>551.6</ele><time>2026-04-10T08:18:05.842Z</time></trkpt><trkpt lat="45.0735232" lon="7.7932079"><ele>552.0</ele><time>2026-04-10T08:18:07.842Z</time></trkpt><trkpt lat="45.0735363" lon="7.7933202"><ele>552.0</ele><time>2026-04-10T08:18:08.843Z</time></trkpt><trkpt lat="45.0735649" lon="7.793433"><ele>552.0</ele><time>2026-04-10T08:18:09.845Z</time></trkpt><trkpt lat="45.0735902" lon="7.7935364"><ele>552.0</ele><time>2026-04-10T08:18:10.843Z</time></trkpt><trkpt lat="45.0736153" lon="7.7936493"><ele>552.0</ele><time>2026-04-10T08:18:11.843Z</time></trkpt><trkpt lat="45.0736474" lon="7.7937453"><ele>552.0</ele><time>2026-04-10T08:18:12.843Z</time></trkpt><trkpt lat="45.0737145" lon="7.7939296"><ele>553.2</ele><time>2026-04-10T08:18:14.843Z</time></trkpt><trkpt lat="45.0737608" lon="7.7940031"><ele>554.4000000000001</ele><time>2026-04-10T08:18:15.843Z</time></trkpt><trkpt lat="45.0738178" lon="7.7941106"><ele>555.5999999999999</ele><time>2026-04-10T08:18:17.843Z</time></trkpt><trkpt lat="45.0739017" lon="7.7942839"><ele>556.8</ele><time>2026-04-10T08:18:19.843Z</time></trkpt><trkpt lat="45.0739535" lon="7.7943486"><ele>558.0</ele><time>2026-04-10T08:18:21.844Z</time></trkpt><trkpt lat="45.0739761" lon="7.7944482"><ele>558.6666666666666</ele><time>2026-04-10T08:18:23.843Z</time></trkpt><trkpt lat="45.0740034" lon="7.7945336"><ele>559.3333333333334</ele><time>2026-04-10T08:18:25.844Z</time></trkpt><trkpt lat="45.0740762" lon="7.7945766"><ele>560.0</ele><time>2026-04-10T08:18:26.844Z</time></trkpt><trkpt lat="45.0741209" lon="7.7946585"><ele>560.6666666666667</ele><time>2026-04-10T08:18:28.842Z</time></trkpt><trkpt lat="45.0741866" lon="7.7947605"><ele>561.3333333333334</ele><time>2026-04-10T08:18:31.842Z</time></trkpt><trkpt lat="45.0742285" lon="7.7948582"><ele>562.0</ele><time>2026-04-10T08:18:33.844Z</time></trkpt><trkpt lat="45.074272" lon="7.7949658"><ele>562.8000000000001</ele><time>2026-04-10T08:18:35.843Z</time></trkpt><trkpt lat="45.0743147" lon="7.7950849"><ele>563.6</ele><time>2026-04-10T08:18:37.844Z</time></trkpt><trkpt lat="45.0743373" lon="7.7952248"><ele>564.4000000000001</ele><time>2026-04-10T08:18:39.842Z</time></trkpt><trkpt lat="45.0743409" lon="7.7953599"><ele>565.2</ele><time>2026-04-10T08:18:41.842Z</time></trkpt><trkpt lat="45.0743266" lon="7.7954705"><ele>566.0</ele><time>2026-04-10T08:18:43.843Z</time></trkpt><trkpt lat="45.0743044" lon="7.7955838"><ele>566.1666666666666</ele><time>2026-04-10T08:18:45.842Z</time></trkpt><trkpt lat="45.0742856" lon="7.7957036"><ele>566.3333333333333</ele><time>2026-04-10T08:18:47.843Z</time></trkpt><trkpt lat="45.0742652" lon="7.7958197"><ele>566.5</ele><time>2026-04-10T08:18:50.842Z</time></trkpt><trkpt lat="45.0742669" lon="7.7959294"><ele>566.6666666666666</ele><time>2026-04-10T08:18:52.844Z</time></trkpt><trkpt lat="45.0742897" lon="7.7960235"><ele>566.8333333333334</ele><time>2026-04-10T08:18:54.843Z</time></trkpt><trkpt lat="45.0743534" lon="7.7960936"><ele>567.0</ele><time>2026-04-10T08:18:57.843Z</time></trkpt><trkpt lat="45.0744242" lon="7.7961342"><ele>566.0</ele><time>2026-04-10T08:18:59.843Z</time></trkpt><trkpt lat="45.0744937" lon="7.796185"><ele>565.0</ele><time>2026-04-10T08:19:01.843Z</time></trkpt><trkpt lat="45.0745468" lon="7.7962637"><ele>564.0</ele><time>2026-04-10T08:19:02.843Z</time></trkpt><trkpt lat="45.0746133" lon="7.7963266"><ele>563.0</ele><time>2026-04-10T08:19:04.844Z</time></trkpt><trkpt lat="45.0746931" lon="7.7963536"><ele>562.0</ele><time>2026-04-10T08:19:10.843Z</time></trkpt><trkpt lat="45.0747434" lon="7.7964215"><ele>561.0</ele><time>2026-04-10T08:19:11.842Z</time></trkpt><trkpt lat="45.0748282" lon="7.7964768"><ele>561.6</ele><time>2026-04-10T08:19:13.843Z</time></trkpt><trkpt lat="45.0749596" lon="7.7965393"><ele>562.2</ele><time>2026-04-10T08:19:15.844Z</time></trkpt><trkpt lat="45.075019" lon="7.7966104"><ele>562.8</ele><time>2026-04-10T08:19:18.843Z</time></trkpt><trkpt lat="45.075072" lon="7.796679"><ele>563.4</ele><time>2026-04-10T08:19:20.844Z</time></trkpt><trkpt lat="45.0751268" lon="7.7967794"><ele>564.0</ele><time>2026-04-10T08:19:22.844Z</time></trkpt><trkpt lat="45.0751974" lon="7.7969349"><ele>566.2</ele><time>2026-04-10T08:19:24.843Z</time></trkpt><trkpt lat="45.0752614" lon="7.7970568"><ele>568.4</ele><time>2026-04-10T08:19:26.844Z</time></trkpt><trkpt lat="45.0753172" lon="7.7971341"><ele>570.6</ele><time>2026-04-10T08:19:28.843Z</time></trkpt><trkpt lat="45.0754008" lon="7.7972267"><ele>572.8</ele><time>2026-04-10T08:19:30.843Z</time></trkpt><trkpt lat="45.0754731" lon="7.7973257"><ele>575.0</ele><time>2026-04-10T08:19:32.844Z</time></trkpt><trkpt lat="45.0755621" lon="7.797439"><ele>575.0</ele><time>2026-04-10T08:19:34.844Z</time></trkpt><trkpt lat="45.0756558" lon="7.7975141"><ele>575.0</ele><time>2026-04-10T08:19:36.843Z</time></trkpt><trkpt lat="45.0757155" lon="7.7975473"><ele>575.0</ele><time>2026-04-10T08:19:37.844Z</time></trkpt><trkpt lat="45.0758234" lon="7.7975876"><ele>575.0</ele><time>2026-04-10T08:19:39.844Z</time></trkpt><trkpt lat="45.0759156" lon="7.7976148"><ele>575.0</ele><time>2026-04-10T08:19:41.842Z</time></trkpt><trkpt lat="45.0759884" lon="7.7976404"><ele>574.6666666666666</ele><time>2026-04-10T08:19:43.843Z</time></trkpt><trkpt lat="45.0760756" lon="7.7976667"><ele>574.3333333333333</ele><time>2026-04-10T08:19:45.844Z</time></trkpt><trkpt lat="45.0761643" lon="7.7976841"><ele>574.0</ele><time>2026-04-10T08:19:47.844Z</time></trkpt><trkpt lat="45.0762527" lon="7.7977335"><ele>573.6666666666666</ele><time>2026-04-10T08:19:49.842Z</time></trkpt><trkpt lat="45.0763402" lon="7.7977872"><ele>573.3333333333334</ele><time>2026-04-10T08:19:51.843Z</time></trkpt><trkpt lat="45.0764023" lon="7.7978525"><ele>573.0</ele><time>2026-04-10T08:19:53.842Z</time></trkpt><trkpt lat="45.0764721" lon="7.7979255"><ele>573.0</ele><time>2026-04-10T08:19:56.843Z</time></trkpt><trkpt lat="45.0765197" lon="7.7979845"><ele>573.0</ele><time>2026-04-10T08:19:58.842Z</time></trkpt><trkpt lat="45.0765934" lon="7.7980739"><ele>573.0</ele><time>2026-04-10T08:20:00.843Z</time></trkpt><trkpt lat="45.0766938" lon="7.7981435"><ele>573.0</ele><time>2026-04-10T08:20:02.844Z</time></trkpt><trkpt lat="45.0768245" lon="7.7982263"><ele>573.0</ele><time>2026-04-10T08:20:04.842Z</time></trkpt><trkpt lat="45.0769127" lon="7.7982118"><ele>572.1999999999999</ele><time>2026-04-10T08:20:05.844Z</time></trkpt><trkpt lat="45.0769869" lon="7.7982232"><ele>571.4</ele><time>2026-04-10T08:20:06.843Z</time></trkpt><trkpt lat="45.0770679" lon="7.7982076"><ele>570.5999999999999</ele><time>2026-04-10T08:20:07.843Z</time></trkpt><trkpt lat="45.0771576" lon="7.7982084"><ele>569.8</ele><time>2026-04-10T08:20:08.843Z</time></trkpt><trkpt lat="45.077265" lon="7.7982515"><ele>569.0</ele><time>2026-04-10T08:20:10.844Z</time></trkpt><trkpt lat="45.0773723" lon="7.7983103"><ele>568.75</ele><time>2026-04-10T08:20:12.843Z</time></trkpt><trkpt lat="45.0774635" lon="7.7984151"><ele>568.5</ele><time>2026-04-10T08:20:14.843Z</time></trkpt><trkpt lat="45.077554" lon="7.7985295"><ele>568.25</ele><time>2026-04-10T08:20:16.843Z</time></trkpt><trkpt lat="45.0776379" lon="7.7986544"><ele>568.0</ele><time>2026-04-10T08:20:18.843Z</time></trkpt><trkpt lat="45.0777078" lon="7.7988009"><ele>564.5</ele><time>2026-04-10T08:20:20.843Z</time></trkpt><trkpt lat="45.07779" lon="7.7989302"><ele>561.0</ele><time>2026-04-10T08:20:22.842Z</time></trkpt><trkpt lat="45.0778627" lon="7.7990568"><ele>557.5</ele><time>2026-04-10T08:20:24.842Z</time></trkpt><trkpt lat="45.0779214" lon="7.7992099"><ele>554.0</ele><time>2026-04-10T08:20:26.843Z</time></trkpt><trkpt lat="45.0779735" lon="7.7993799"><ele>552.4</ele><time>2026-04-10T08:20:28.843Z</time></trkpt><trkpt lat="45.0779883" lon="7.7995361"><ele>550.8</ele><time>2026-04-10T08:20:30.843Z</time></trkpt><trkpt lat="45.0780278" lon="7.7996793"><ele>549.2</ele><time>2026-04-10T08:20:32.843Z</time></trkpt><trkpt lat="45.0780766" lon="7.7998061"><ele>547.6</ele><time>2026-04-10T08:20:34.843Z</time></trkpt><trkpt lat="45.078119" lon="7.7999539"><ele>546.0</ele><time>2026-04-10T08:20:36.842Z</time></trkpt><trkpt lat="45.0781642" lon="7.8000966"><ele>544.6666666666666</ele><time>2026-04-10T08:20:38.843Z</time></trkpt><trkpt lat="45.0781953" lon="7.8001935"><ele>543.3333333333334</ele><time>2026-04-10T08:20:40.844Z</time></trkpt><trkpt lat="45.0782193" lon="7.8002977"><ele>542.0</ele><time>2026-04-10T08:20:42.844Z</time></trkpt><trkpt lat="45.0782329" lon="7.8004288"><ele>540.6666666666667</ele><time>2026-04-10T08:20:44.844Z</time></trkpt><trkpt lat="45.0782299" lon="7.8005462"><ele>539.3333333333334</ele><time>2026-04-10T08:20:46.843Z</time></trkpt><trkpt lat="45.0781924" lon="7.8006775"><ele>538.0</ele><time>2026-04-10T08:20:48.843Z</time></trkpt><trkpt lat="45.0781885" lon="7.800768"><ele>538.0</ele><time>2026-04-10T08:20:49.844Z</time></trkpt><trkpt lat="45.0782296" lon="7.8009261"><ele>538.0</ele><time>2026-04-10T08:20:51.842Z</time></trkpt><trkpt lat="45.0782599" lon="7.8011224"><ele>538.0</ele><time>2026-04-10T08:20:53.843Z</time></trkpt><trkpt lat="45.0782787" lon="7.8012088"><ele>538.0</ele><time>2026-04-10T08:20:54.845Z</time></trkpt><trkpt lat="45.0782579" lon="7.8013045"><ele>538.0</ele><time>2026-04-10T08:20:56.844Z</time></trkpt><trkpt lat="45.0782973" lon="7.8014425"><ele>542.6</ele><time>2026-04-10T08:20:58.843Z</time></trkpt><trkpt lat="45.0783378" lon="7.8015488"><ele>547.1999999999999</ele><time>2026-04-10T08:21:00.842Z</time></trkpt><trkpt lat="45.0784154" lon="7.8016453"><ele>551.8</ele><time>2026-04-10T08:21:02.842Z</time></trkpt><trkpt lat="45.078471" lon="7.8017513"><ele>556.4</ele><time>2026-04-10T08:21:04.843Z</time></trkpt><trkpt lat="45.0785181" lon="7.8018532"><ele>561.0</ele><time>2026-04-10T08:21:06.844Z</time></trkpt><trkpt lat="45.0785719" lon="7.8019852"><ele>561.0</ele><time>2026-04-10T08:21:08.843Z</time></trkpt><trkpt lat="45.0785927" lon="7.8021273"><ele>561.0</ele><time>2026-04-10T08:21:10.843Z</time></trkpt><trkpt lat="45.0785832" lon="7.8022625"><ele>561.0</ele><time>2026-04-10T08:21:13.843Z</time></trkpt><trkpt lat="45.0785317" lon="7.8023387"><ele>561.0</ele><time>2026-04-10T08:21:17.843Z</time></trkpt><trkpt lat="45.0784698" lon="7.8024148"><ele>561.0</ele><time>2026-04-10T08:21:59.843Z</time></trkpt><trkpt lat="45.0784273" lon="7.8024928"><ele>561.0</ele><time>2026-04-10T08:22:01.842Z</time></trkpt><trkpt lat="45.0783968" lon="7.8026032"><ele>559.6</ele><time>2026-04-10T08:22:03.842Z</time></trkpt><trkpt lat="45.0783675" lon="7.8026994"><ele>558.2</ele><time>2026-04-10T08:22:05.843Z</time></trkpt><trkpt lat="45.0783514" lon="7.8028042"><ele>556.8</ele><time>2026-04-10T08:22:07.843Z</time></trkpt><trkpt lat="45.0783912" lon="7.802974"><ele>555.4</ele><time>2026-04-10T08:22:09.842Z</time></trkpt><trkpt lat="45.0784264" lon="7.8030976"><ele>554.0</ele><time>2026-04-10T08:22:11.843Z</time></trkpt><trkpt lat="45.0784711" lon="7.8032079"><ele>554.0</ele><time>2026-04-10T08:22:13.842Z</time></trkpt><trkpt lat="45.0785392" lon="7.8032754"><ele>554.0</ele><time>2026-04-10T08:22:15.843Z</time></trkpt><trkpt lat="45.0786193" lon="7.8033342"><ele>554.0</ele><time>2026-04-10T08:22:17.843Z</time></trkpt><trkpt lat="45.0786855" lon="7.8033968"><ele>554.0</ele><time>2026-04-10T08:22:19.842Z</time></trkpt><trkpt lat="45.0787019" lon="7.8035186"><ele>554.0</ele><time>2026-04-10T08:22:22.843Z</time></trkpt><trkpt lat="45.0786922" lon="7.8036096"><ele>554.0</ele><time>2026-04-10T08:22:24.844Z</time></trkpt><trkpt lat="45.0787158" lon="7.8037248"><ele>550.8</ele><time>2026-04-10T08:22:27.844Z</time></trkpt><trkpt lat="45.0787361" lon="7.8038293"><ele>547.5999999999999</ele><time>2026-04-10T08:22:29.843Z</time></trkpt><trkpt lat="45.0788199" lon="7.8040214"><ele>544.4</ele><time>2026-04-10T08:22:32.842Z</time></trkpt><trkpt lat="45.0788394" lon="7.8041606"><ele>541.1999999999999</ele><time>2026-04-10T08:22:34.843Z</time></trkpt><trkpt lat="45.0788889" lon="7.8043007"><ele>538.0</ele><time>2026-04-10T08:22:36.845Z</time></trkpt><trkpt lat="45.0789004" lon="7.8044521"><ele>538.0</ele><time>2026-04-10T08:22:38.845Z</time></trkpt><trkpt lat="45.0788895" lon="7.804617"><ele>538.0</ele><time>2026-04-10T08:22:40.842Z</time></trkpt><trkpt lat="45.0788908" lon="7.8047595"><ele>538.0</ele><time>2026-04-10T08:22:42.842Z</time></trkpt><trkpt lat="45.078906" lon="7.8048484"><ele>538.0</ele><time>2026-04-10T08:22:43.844Z</time></trkpt><trkpt lat="45.078913" lon="7.8049404"><ele>538.0</ele><time>2026-04-10T08:22:44.842Z</time></trkpt><trkpt lat="45.0789073" lon="7.8050441"><ele>538.0</ele><time>2026-04-10T08:22:45.843Z</time></trkpt><trkpt lat="45.0788608" lon="7.8051904"><ele>539.6666666666667</ele><time>2026-04-10T08:22:47.844Z</time></trkpt><trkpt lat="45.0788157" lon="7.8052676"><ele>541.3333333333334</ele><time>2026-04-10T08:22:49.844Z</time></trkpt><trkpt lat="45.0787384" lon="7.805323"><ele>543.0</ele><time>2026-04-10T08:22:52.843Z</time></trkpt><trkpt lat="45.0786581" lon="7.8053539"><ele>544.6666666666666</ele><time>2026-04-10T08:22:54.843Z</time></trkpt><trkpt lat="45.0785733" lon="7.8053833"><ele>546.3333333333333</ele><time>2026-04-10T08:22:56.843Z</time></trkpt><trkpt lat="45.0784841" lon="7.8054294"><ele>548.0</ele><time>2026-04-10T08:22:58.845Z</time></trkpt><trkpt lat="45.0783948" lon="7.8054957"><ele>548.0</ele><time>2026-04-10T08:23:00.844Z</time></trkpt><trkpt lat="45.07831" lon="7.805557"><ele>548.0</ele><time>2026-04-10T08:23:02.843Z</time></trkpt><trkpt lat="45.078259" lon="7.805659"><ele>548.0</ele><time>2026-04-10T08:23:04.843Z</time></trkpt><trkpt lat="45.0781985" lon="7.8057329"><ele>548.0</ele><time>2026-04-10T08:23:06.843Z</time></trkpt><trkpt lat="45.0781241" lon="7.8058264"><ele>548.0</ele><time>2026-04-10T08:23:09.842Z</time></trkpt><trkpt lat="45.0781022" lon="7.8059467"><ele>544.6</ele><time>2026-04-10T08:23:11.843Z</time></trkpt><trkpt lat="45.078089" lon="7.8060751"><ele>541.1999999999999</ele><time>2026-04-10T08:23:13.844Z</time></trkpt><trkpt lat="45.0780876" lon="7.8061764"><ele>537.8</ele><time>2026-04-10T08:23:15.843Z</time></trkpt><trkpt lat="45.0780961" lon="7.8063396"><ele>534.4</ele><time>2026-04-10T08:23:17.843Z</time></trkpt><trkpt lat="45.0781137" lon="7.8064898"><ele>531.0</ele><time>2026-04-10T08:23:19.844Z</time></trkpt><trkpt lat="45.0781448" lon="7.8066397"><ele>531.0</ele><time>2026-04-10T08:23:21.843Z</time></trkpt><trkpt lat="45.0781956" lon="7.8067102"><ele>531.0</ele><time>2026-04-10T08:23:22.842Z</time></trkpt><trkpt lat="45.0782181" lon="7.806824"><ele>531.0</ele><time>2026-04-10T08:23:24.843Z</time></trkpt><trkpt lat="45.0782612" lon="7.8069204"><ele>531.0</ele><time>2026-04-10T08:23:26.842Z</time></trkpt><trkpt lat="45.0783459" lon="7.8069752"><ele>531.0</ele><time>2026-04-10T08:23:28.843Z</time></trkpt><trkpt lat="45.0784263" lon="7.8070621"><ele>531.0</ele><time>2026-04-10T08:23:30.842Z</time></trkpt><trkpt lat="45.0785135" lon="7.8071294"><ele>531.1666666666666</ele><time>2026-04-10T08:23:32.844Z</time></trkpt><trkpt lat="45.0786134" lon="7.8072051"><ele>531.3333333333334</ele><time>2026-04-10T08:23:34.844Z</time></trkpt><trkpt lat="45.0786525" lon="7.8072843"><ele>531.5</ele><time>2026-04-10T08:23:36.843Z</time></trkpt><trkpt lat="45.0786971" lon="7.807401"><ele>531.6666666666667</ele><time>2026-04-10T08:23:38.842Z</time></trkpt><trkpt lat="45.0787239" lon="7.8075061"><ele>531.8333333333334</ele><time>2026-04-10T08:23:40.843Z</time></trkpt><trkpt lat="45.07874" lon="7.8076216"><ele>532.0</ele><time>2026-04-10T08:23:42.843Z</time></trkpt><trkpt lat="45.0787644" lon="7.8077553"><ele>529.8333333333334</ele><time>2026-04-10T08:23:44.843Z</time></trkpt><trkpt lat="45.0787542" lon="7.8078952"><ele>527.6666666666667</ele><time>2026-04-10T08:23:46.843Z</time></trkpt><trkpt lat="45.078761" lon="7.8079984"><ele>525.5</ele><time>2026-04-10T08:23:47.843Z</time></trkpt><trkpt lat="45.0787356" lon="7.8080946"><ele>523.3333333333334</ele><time>2026-04-10T08:23:49.844Z</time></trkpt><trkpt lat="45.0786885" lon="7.8081914"><ele>521.1666666666666</ele><time>2026-04-10T08:23:51.844Z</time></trkpt><trkpt lat="45.0786872" lon="7.8082928"><ele>519.0</ele><time>2026-04-10T08:23:53.844Z</time></trkpt><trkpt lat="45.0786978" lon="7.8083864"><ele>519.0</ele><time>2026-04-10T08:23:56.844Z</time></trkpt><trkpt lat="45.0787012" lon="7.8084929"><ele>519.0</ele><time>2026-04-10T08:23:59.842Z</time></trkpt><trkpt lat="45.0787123" lon="7.8086075"><ele>519.0</ele><time>2026-04-10T08:24:03.842Z</time></trkpt><trkpt lat="45.0787056" lon="7.8087312"><ele>519.0</ele><time>2026-04-10T08:24:06.843Z</time></trkpt><trkpt lat="45.0787224" lon="7.8088547"><ele>519.0</ele><time>2026-04-10T08:24:09.843Z</time></trkpt><trkpt lat="45.078698" lon="7.8089608"><ele>519.0</ele><time>2026-04-10T08:24:12.844Z</time></trkpt><trkpt lat="45.0786609" lon="7.8090515"><ele>518.0</ele><time>2026-04-10T08:24:14.843Z</time></trkpt><trkpt lat="45.0786027" lon="7.8091527"><ele>517.0</ele><time>2026-04-10T08:24:16.843Z</time></trkpt><trkpt lat="45.0785653" lon="7.8092369"><ele>516.0</ele><time>2026-04-10T08:24:18.845Z</time></trkpt><trkpt lat="45.0785254" lon="7.8093226"><ele>515.0</ele><time>2026-04-10T08:24:20.842Z</time></trkpt><trkpt lat="45.0784738" lon="7.8094108"><ele>514.0</ele><time>2026-04-10T08:24:22.842Z</time></trkpt><trkpt lat="45.07842" lon="7.8094994"><ele>513.0</ele><time>2026-04-10T08:24:24.843Z</time></trkpt><trkpt lat="45.0783791" lon="7.809568"><ele>513.0</ele><time>2026-04-10T08:24:26.843Z</time></trkpt><trkpt lat="45.0783266" lon="7.8096411"><ele>513.0</ele><time>2026-04-10T08:24:29.844Z</time></trkpt><trkpt lat="45.0782747" lon="7.8097074"><ele>513.0</ele><time>2026-04-10T08:24:32.843Z</time></trkpt><trkpt lat="45.0782104" lon="7.8097971"><ele>513.0</ele><time>2026-04-10T08:24:36.844Z</time></trkpt><trkpt lat="45.0781824" lon="7.809883"><ele>513.0</ele><time>2026-04-10T08:24:38.843Z</time></trkpt><trkpt lat="45.0781773" lon="7.8099814"><ele>513.0</ele><time>2026-04-10T08:24:40.844Z</time></trkpt><trkpt lat="45.0781608" lon="7.8101022"><ele>511.5</ele><time>2026-04-10T08:24:42.843Z</time></trkpt><trkpt lat="45.0781686" lon="7.8102622"><ele>510.0</ele><time>2026-04-10T08:24:45.843Z</time></trkpt><trkpt lat="45.0782014" lon="7.8103431"><ele>508.5</ele><time>2026-04-10T08:24:47.844Z</time></trkpt><trkpt lat="45.0782386" lon="7.8104238"><ele>507.0</ele><time>2026-04-10T08:24:49.844Z</time></trkpt><trkpt lat="45.0782783" lon="7.8104967"><ele>505.5</ele><time>2026-04-10T08:24:51.845Z</time></trkpt><trkpt lat="45.0783605" lon="7.8104843"><ele>504.0</ele><time>2026-04-10T08:24:54.844Z</time></trkpt><trkpt lat="45.0784186" lon="7.8104274"><ele>504.0</ele><time>2026-04-10T08:24:57.843Z</time></trkpt><trkpt lat="45.0784767" lon="7.8103629"><ele>504.0</ele><time>2026-04-10T08:25:00.842Z</time></trkpt><trkpt lat="45.078528" lon="7.8103098"><ele>504.0</ele><time>2026-04-10T08:25:03.842Z</time></trkpt><trkpt lat="45.0785858" lon="7.8102569"><ele>504.0</ele><time>2026-04-10T08:25:06.843Z</time></trkpt><trkpt lat="45.0786601" lon="7.81025"><ele>504.0</ele><time>2026-04-10T08:25:10.844Z</time></trkpt><trkpt lat="45.0787328" lon="7.8102671"><ele>504.0</ele><time>2026-04-10T08:25:13.844Z</time></trkpt><trkpt lat="45.0787995" lon="7.8102839"><ele>504.0</ele><time>2026-04-10T08:25:16.844Z</time></trkpt><trkpt lat="45.0788762" lon="7.8103245"><ele>504.0</ele><time>2026-04-10T08:25:19.845Z</time></trkpt><trkpt lat="45.0789681" lon="7.8103398"><ele>504.0</ele><time>2026-04-10T08:25:22.845Z</time></trkpt><trkpt lat="45.07904" lon="7.8103466"><ele>504.0</ele><time>2026-04-10T08:25:24.844Z</time></trkpt><trkpt lat="45.079113" lon="7.8103941"><ele>504.0</ele><time>2026-04-10T08:25:27.843Z</time></trkpt><trkpt lat="45.079203" lon="7.8103874"><ele>504.0</ele><time>2026-04-10T08:25:29.843Z</time></trkpt><trkpt lat="45.0792981" lon="7.8104144"><ele>504.0</ele><time>2026-04-10T08:25:32.844Z</time></trkpt><trkpt lat="45.0793703" lon="7.8104085"><ele>504.8333333333333</ele><time>2026-04-10T08:25:35.843Z</time></trkpt><trkpt lat="45.0794654" lon="7.8104174"><ele>505.66666666666663</ele><time>2026-04-10T08:25:38.844Z</time></trkpt><trkpt lat="45.0795364" lon="7.8104252"><ele>506.5</ele><time>2026-04-10T08:25:40.843Z</time></trkpt><trkpt lat="45.0796" lon="7.8104123"><ele>507.3333333333333</ele><time>2026-04-10T08:25:42.843Z</time></trkpt><trkpt lat="45.0796897" lon="7.8103733"><ele>508.16666666666663</ele><time>2026-04-10T08:25:45.844Z</time></trkpt><trkpt lat="45.0797588" lon="7.8103622"><ele>509.0</ele><time>2026-04-10T08:25:47.844Z</time></trkpt><trkpt lat="45.0798244" lon="7.8103529"><ele>508.99999999999994</ele><time>2026-04-10T08:25:49.844Z</time></trkpt><trkpt lat="45.0799002" lon="7.8103467"><ele>509.0</ele><time>2026-04-10T08:25:52.844Z</time></trkpt><trkpt lat="45.0799674" lon="7.8103563"><ele>509.0</ele><time>2026-04-10T08:25:55.842Z</time></trkpt><trkpt lat="45.0800397" lon="7.8103394"><ele>509.0</ele><time>2026-04-10T08:26:00.843Z</time></trkpt><trkpt lat="45.0801205" lon="7.8102842"><ele>508.99999999999994</ele><time>2026-04-10T08:26:03.843Z</time></trkpt><trkpt lat="45.080198" lon="7.8102496"><ele>509.0</ele><time>2026-04-10T08:26:05.844Z</time></trkpt><trkpt lat="45.0802811" lon="7.8102507"><ele>509.4</ele><time>2026-04-10T08:26:07.842Z</time></trkpt><trkpt lat="45.0803509" lon="7.8102676"><ele>509.79999999999995</ele><time>2026-04-10T08:26:09.842Z</time></trkpt><trkpt lat="45.0804104" lon="7.8103129"><ele>510.20000000000005</ele><time>2026-04-10T08:26:11.845Z</time></trkpt><trkpt lat="45.0805187" lon="7.8103978"><ele>510.6</ele><time>2026-04-10T08:26:14.843Z</time></trkpt><trkpt lat="45.0806048" lon="7.8104746"><ele>511.0</ele><time>2026-04-10T08:26:16.844Z</time></trkpt><trkpt lat="45.0806958" lon="7.8105739"><ele>511.0</ele><time>2026-04-10T08:26:18.843Z</time></trkpt><trkpt lat="45.0807475" lon="7.8106669"><ele>511.0</ele><time>2026-04-10T08:26:20.843Z</time></trkpt><trkpt lat="45.0808129" lon="7.8107746"><ele>511.0</ele><time>2026-04-10T08:26:22.844Z</time></trkpt><trkpt lat="45.0808553" lon="7.8108446"><ele>511.0</ele><time>2026-04-10T08:26:23.843Z</time></trkpt><trkpt lat="45.0809354" lon="7.8109632"><ele>511.0</ele><time>2026-04-10T08:26:25.844Z</time></trkpt><trkpt lat="45.0810022" lon="7.8110695"><ele>507.8</ele><time>2026-04-10T08:26:27.844Z</time></trkpt><trkpt lat="45.0810513" lon="7.811155"><ele>504.6</ele><time>2026-04-10T08:26:29.842Z</time></trkpt><trkpt lat="45.0810694" lon="7.8112496"><ele>501.4</ele><time>2026-04-10T08:26:31.844Z</time></trkpt><trkpt lat="45.0811494" lon="7.8113721"><ele>498.2</ele><time>2026-04-10T08:26:33.844Z</time></trkpt><trkpt lat="45.081237" lon="7.811496"><ele>495.0</ele><time>2026-04-10T08:26:35.843Z</time></trkpt><trkpt lat="45.0813356" lon="7.8115992"><ele>495.0</ele><time>2026-04-10T08:26:37.843Z</time></trkpt><trkpt lat="45.0813846" lon="7.8116552"><ele>495.0</ele><time>2026-04-10T08:26:38.843Z</time></trkpt><trkpt lat="45.0814553" lon="7.8117678"><ele>495.0</ele><time>2026-04-10T08:26:40.842Z</time></trkpt><trkpt lat="45.0814864" lon="7.81185"><ele>495.0</ele><time>2026-04-10T08:26:41.843Z</time></trkpt><trkpt lat="45.081528" lon="7.8120305"><ele>495.0</ele><time>2026-04-10T08:26:43.843Z</time></trkpt><trkpt lat="45.0815446" lon="7.812186"><ele>493.6666666666667</ele><time>2026-04-10T08:26:45.843Z</time></trkpt><trkpt lat="45.081572" lon="7.8122906"><ele>492.33333333333337</ele><time>2026-04-10T08:26:47.844Z</time></trkpt><trkpt lat="45.0815917" lon="7.8124265"><ele>491.0</ele><time>2026-04-10T08:26:50.843Z</time></trkpt><trkpt lat="45.0815861" lon="7.8125422"><ele>489.6666666666667</ele><time>2026-04-10T08:26:53.843Z</time></trkpt><trkpt lat="45.0815412" lon="7.8126223"><ele>488.33333333333337</ele><time>2026-04-10T08:26:57.846Z</time></trkpt><trkpt lat="45.0815161" lon="7.8127086"><ele>487.0</ele><time>2026-04-10T08:26:59.843Z</time></trkpt><trkpt lat="45.0814732" lon="7.8128071"><ele>487.00000000000006</ele><time>2026-04-10T08:27:01.844Z</time></trkpt><trkpt lat="45.0814353" lon="7.8129075"><ele>487.0</ele><time>2026-04-10T08:27:03.843Z</time></trkpt><trkpt lat="45.0813978" lon="7.8129933"><ele>487.0</ele><time>2026-04-10T08:27:05.844Z</time></trkpt><trkpt lat="45.0813745" lon="7.8130766"><ele>487.0</ele><time>2026-04-10T08:27:07.844Z</time></trkpt><trkpt lat="45.081356" lon="7.8132096"><ele>487.00000000000006</ele><time>2026-04-10T08:27:10.843Z</time></trkpt><trkpt lat="45.0813541" lon="7.8133005"><ele>487.0</ele><time>2026-04-10T08:27:12.844Z</time></trkpt><trkpt lat="45.0813712" lon="7.8134282"><ele>488.0</ele><time>2026-04-10T08:27:15.844Z</time></trkpt><trkpt lat="45.0814154" lon="7.8135371"><ele>489.0</ele><time>2026-04-10T08:27:18.844Z</time></trkpt><trkpt lat="45.0814649" lon="7.8136304"><ele>490.0</ele><time>2026-04-10T08:27:21.844Z</time></trkpt><trkpt lat="45.0815" lon="7.8137061"><ele>491.0</ele><time>2026-04-10T08:27:24.844Z</time></trkpt><trkpt lat="45.081508" lon="7.8138042"><ele>492.0</ele><time>2026-04-10T08:27:29.843Z</time></trkpt><trkpt lat="45.081502" lon="7.8138943"><ele>493.0</ele><time>2026-04-10T08:27:32.845Z</time></trkpt><trkpt lat="45.0815061" lon="7.8139916"><ele>494.0</ele><time>2026-04-10T08:27:36.843Z</time></trkpt><trkpt lat="45.0814961" lon="7.8141121"><ele>493.99999999999994</ele><time>2026-04-10T08:27:40.844Z</time></trkpt><trkpt lat="45.0814719" lon="7.8142361"><ele>494.0</ele><time>2026-04-10T08:27:43.844Z</time></trkpt><trkpt lat="45.0814546" lon="7.8143353"><ele>494.0</ele><time>2026-04-10T08:27:46.844Z</time></trkpt><trkpt lat="45.081466" lon="7.8144479"><ele>494.0</ele><time>2026-04-10T08:27:49.843Z</time></trkpt><trkpt lat="45.0814897" lon="7.8145468"><ele>493.99999999999994</ele><time>2026-04-10T08:27:52.843Z</time></trkpt><trkpt lat="45.0815136" lon="7.8146673"><ele>494.0</ele><time>2026-04-10T08:27:55.843Z</time></trkpt><trkpt lat="45.0815276" lon="7.8147826"><ele>494.14285714285717</ele><time>2026-04-10T08:27:58.844Z</time></trkpt><trkpt lat="45.0815303" lon="7.8148891"><ele>494.2857142857142</ele><time>2026-04-10T08:28:01.843Z</time></trkpt><trkpt lat="45.0815093" lon="7.8149826"><ele>494.4285714285714</ele><time>2026-04-10T08:28:05.843Z</time></trkpt><trkpt lat="45.0814776" lon="7.8150609"><ele>494.57142857142856</ele><time>2026-04-10T08:28:07.844Z</time></trkpt><trkpt lat="45.0814305" lon="7.8151485"><ele>494.71428571428567</ele><time>2026-04-10T08:28:09.844Z</time></trkpt><trkpt lat="45.0813865" lon="7.8152396"><ele>494.8571428571428</ele><time>2026-04-10T08:28:11.843Z</time></trkpt><trkpt lat="45.0813517" lon="7.8153464"><ele>494.99999999999994</ele><time>2026-04-10T08:28:13.843Z</time></trkpt><trkpt lat="45.0813187" lon="7.8154686"><ele>495.8333333333333</ele><time>2026-04-10T08:28:16.843Z</time></trkpt><trkpt lat="45.0812786" lon="7.8155481"><ele>496.66666666666663</ele><time>2026-04-10T08:28:18.843Z</time></trkpt><trkpt lat="45.081243" lon="7.8156493"><ele>497.5</ele><time>2026-04-10T08:28:22.844Z</time></trkpt><trkpt lat="45.0812727" lon="7.8157742"><ele>498.3333333333333</ele><time>2026-04-10T08:28:25.844Z</time></trkpt><trkpt lat="45.0813105" lon="7.815892"><ele>499.16666666666663</ele><time>2026-04-10T08:28:27.844Z</time></trkpt><trkpt lat="45.081363" lon="7.816004"><ele>500.0</ele><time>2026-04-10T08:28:29.843Z</time></trkpt><trkpt lat="45.0813977" lon="7.8160881"><ele>497.99999999999994</ele><time>2026-04-10T08:28:31.843Z</time></trkpt><trkpt lat="45.0814159" lon="7.8161802"><ele>496.0</ele><time>2026-04-10T08:28:33.844Z</time></trkpt><trkpt lat="45.0814274" lon="7.8163037"><ele>494.0</ele><time>2026-04-10T08:28:35.844Z</time></trkpt><trkpt lat="45.0814227" lon="7.8164178"><ele>492.0</ele><time>2026-04-10T08:28:37.844Z</time></trkpt><trkpt lat="45.0814083" lon="7.8165306"><ele>489.99999999999994</ele><time>2026-04-10T08:28:39.842Z</time></trkpt><trkpt lat="45.0813877" lon="7.8166455"><ele>488.0</ele><time>2026-04-10T08:28:41.843Z</time></trkpt><trkpt lat="45.081374" lon="7.8167353"><ele>487.59999999999997</ele><time>2026-04-10T08:28:43.844Z</time></trkpt><trkpt lat="45.0813579" lon="7.8168281"><ele>487.19999999999993</ele><time>2026-04-10T08:28:45.844Z</time></trkpt><trkpt lat="45.0813253" lon="7.8169193"><ele>486.8</ele><time>2026-04-10T08:28:47.842Z</time></trkpt><trkpt lat="45.0812684" lon="7.8170184"><ele>486.4</ele><time>2026-04-10T08:28:49.843Z</time></trkpt><trkpt lat="45.0812049" lon="7.8171328"><ele>486.0</ele><time>2026-04-10T08:28:50.842Z</time></trkpt><trkpt lat="45.0811242" lon="7.817259"><ele>486.0</ele><time>2026-04-10T08:28:52.844Z</time></trkpt><trkpt lat="45.0810529" lon="7.8172955"><ele>486.0</ele><time>2026-04-10T08:28:54.844Z</time></trkpt><trkpt lat="45.080988" lon="7.8173224"><ele>486.0</ele><time>2026-04-10T08:28:56.843Z</time></trkpt><trkpt lat="45.0808866" lon="7.8172886"><ele>486.0</ele><time>2026-04-10T08:28:58.845Z</time></trkpt><trkpt lat="45.0807893" lon="7.8173239"><ele>486.0</ele><time>2026-04-10T08:29:00.843Z</time></trkpt><trkpt lat="45.0806949" lon="7.8173537"><ele>486.0</ele><time>2026-04-10T08:29:03.842Z</time></trkpt><trkpt lat="45.08065" lon="7.8174497"><ele>481.0</ele><time>2026-04-10T08:29:05.845Z</time></trkpt><trkpt lat="45.0805744" lon="7.8175652"><ele>476.0</ele><time>2026-04-10T08:29:07.843Z</time></trkpt><trkpt lat="45.0805396" lon="7.8177045"><ele>471.0</ele><time>2026-04-10T08:29:09.844Z</time></trkpt><trkpt lat="45.0805211" lon="7.8178642"><ele>466.0</ele><time>2026-04-10T08:29:11.843Z</time></trkpt><trkpt lat="45.0805261" lon="7.8179566"><ele>461.0</ele><time>2026-04-10T08:29:12.843Z</time></trkpt><trkpt lat="45.080509" lon="7.8180963"><ele>461.0</ele><time>2026-04-10T08:29:14.843Z</time></trkpt><trkpt lat="45.0804552" lon="7.8182066"><ele>461.0</ele><time>2026-04-10T08:29:16.843Z</time></trkpt><trkpt lat="45.0803934" lon="7.8183169"><ele>461.0</ele><time>2026-04-10T08:29:18.844Z</time></trkpt><trkpt lat="45.0803523" lon="7.8184297"><ele>461.0</ele><time>2026-04-10T08:29:20.843Z</time></trkpt><trkpt lat="45.0803308" lon="7.8185631"><ele>461.0</ele><time>2026-04-10T08:29:22.844Z</time></trkpt><trkpt lat="45.0802913" lon="7.8186877"><ele>463.4</ele><time>2026-04-10T08:29:24.844Z</time></trkpt><trkpt lat="45.0802468" lon="7.8187775"><ele>465.8</ele><time>2026-04-10T08:29:26.844Z</time></trkpt><trkpt lat="45.0802406" lon="7.8189832"><ele>468.19999999999993</ele><time>2026-04-10T08:30:21.844Z</time></trkpt><trkpt lat="45.0802953" lon="7.8191438"><ele>470.59999999999997</ele><time>2026-04-10T08:30:23.843Z</time></trkpt><trkpt lat="45.0803236" lon="7.8192638"><ele>473.0</ele><time>2026-04-10T08:30:25.844Z</time></trkpt><trkpt lat="45.0803716" lon="7.8193461"><ele>473.3333333333333</ele><time>2026-04-10T08:30:27.844Z</time></trkpt><trkpt lat="45.0803689" lon="7.8194386"><ele>473.66666666666663</ele><time>2026-04-10T08:30:29.844Z</time></trkpt><trkpt lat="45.0803456" lon="7.8195393"><ele>474.0</ele><time>2026-04-10T08:30:31.845Z</time></trkpt><trkpt lat="45.0802962" lon="7.819656"><ele>474.33333333333337</ele><time>2026-04-10T08:30:33.843Z</time></trkpt><trkpt lat="45.0802635" lon="7.8197544"><ele>474.6666666666667</ele><time>2026-04-10T08:30:35.845Z</time></trkpt><trkpt lat="45.0802288" lon="7.8198689"><ele>475.0</ele><time>2026-04-10T08:30:37.843Z</time></trkpt><trkpt lat="45.0802159" lon="7.819972"><ele>473.6</ele><time>2026-04-10T08:30:39.843Z</time></trkpt><trkpt lat="45.08023" lon="7.8201613"><ele>472.2</ele><time>2026-04-10T08:30:41.844Z</time></trkpt><trkpt lat="45.0802146" lon="7.8203072"><ele>470.79999999999995</ele><time>2026-04-10T08:30:43.845Z</time></trkpt><trkpt lat="45.0801813" lon="7.8203925"><ele>469.4</ele><time>2026-04-10T08:30:44.845Z</time></trkpt><trkpt lat="45.0801653" lon="7.8205405"><ele>468.0</ele><time>2026-04-10T08:30:46.845Z</time></trkpt><trkpt lat="45.0801315" lon="7.8206233"><ele>468.0</ele><time>2026-04-10T08:30:47.844Z</time></trkpt><trkpt lat="45.0800935" lon="7.8207826"><ele>467.99999999999994</ele><time>2026-04-10T08:30:49.845Z</time></trkpt><trkpt lat="45.0800603" lon="7.8209233"><ele>467.99999999999994</ele><time>2026-04-10T08:30:51.843Z</time></trkpt><trkpt lat="45.0800192" lon="7.8210443"><ele>468.0</ele><time>2026-04-10T08:30:53.843Z</time></trkpt><trkpt lat="45.0799675" lon="7.8211564"><ele>468.0</ele><time>2026-04-10T08:30:55.844Z</time></trkpt><trkpt lat="45.0799256" lon="7.8212756"><ele>467.5</ele><time>2026-04-10T08:30:57.844Z</time></trkpt><trkpt lat="45.0798678" lon="7.8213639"><ele>467.0</ele><time>2026-04-10T08:31:00.844Z</time></trkpt><trkpt lat="45.079803" lon="7.8214208"><ele>466.5</ele><time>2026-04-10T08:31:03.844Z</time></trkpt><trkpt lat="45.0797273" lon="7.8214628"><ele>466.0</ele><time>2026-04-10T08:31:06.845Z</time></trkpt><trkpt lat="45.0796385" lon="7.8214822"><ele>465.5</ele><time>2026-04-10T08:31:09.844Z</time></trkpt><trkpt lat="45.0795444" lon="7.8214998"><ele>465.0</ele><time>2026-04-10T08:31:12.844Z</time></trkpt><trkpt lat="45.0794651" lon="7.8215138"><ele>465.0</ele><time>2026-04-10T08:31:14.845Z</time></trkpt><trkpt lat="45.0793548" lon="7.8215324"><ele>465.0</ele><time>2026-04-10T08:31:16.844Z</time></trkpt><trkpt lat="45.0792552" lon="7.8215511"><ele>465.0</ele><time>2026-04-10T08:31:18.844Z</time></trkpt><trkpt lat="45.0791568" lon="7.8215868"><ele>465.0</ele><time>2026-04-10T08:31:20.843Z</time></trkpt><trkpt lat="45.0790363" lon="7.8216074"><ele>465.0</ele><time>2026-04-10T08:31:22.844Z</time></trkpt><trkpt lat="45.0789695" lon="7.8216187"><ele>465.42857142857144</ele><time>2026-04-10T08:31:23.844Z</time></trkpt><trkpt lat="45.0789007" lon="7.821639"><ele>465.8571428571429</ele><time>2026-04-10T08:31:24.843Z</time></trkpt><trkpt lat="45.0788318" lon="7.821664"><ele>466.28571428571433</ele><time>2026-04-10T08:31:25.845Z</time></trkpt><trkpt lat="45.0787714" lon="7.8217267"><ele>466.7142857142857</ele><time>2026-04-10T08:31:26.844Z</time></trkpt><trkpt lat="45.0787118" lon="7.8217829"><ele>467.1428571428572</ele><time>2026-04-10T08:31:27.844Z</time></trkpt><trkpt lat="45.0786633" lon="7.8218468"><ele>467.5714285714286</ele><time>2026-04-10T08:31:28.845Z</time></trkpt><trkpt lat="45.078606" lon="7.821921"><ele>468.0</ele><time>2026-04-10T08:31:29.843Z</time></trkpt><trkpt lat="45.0785647" lon="7.8220139"><ele>465.4</ele><time>2026-04-10T08:31:30.845Z</time></trkpt><trkpt lat="45.0785573" lon="7.8221063"><ele>462.79999999999995</ele><time>2026-04-10T08:31:31.843Z</time></trkpt><trkpt lat="45.0785289" lon="7.8222128"><ele>460.2</ele><time>2026-04-10T08:31:32.845Z</time></trkpt><trkpt lat="45.078493" lon="7.8223176"><ele>457.6</ele><time>2026-04-10T08:31:33.843Z</time></trkpt><trkpt lat="45.0784308" lon="7.8225347"><ele>455.0</ele><time>2026-04-10T08:31:35.844Z</time></trkpt><trkpt lat="45.0784027" lon="7.8226253"><ele>452.3333333333333</ele><time>2026-04-10T08:31:36.843Z</time></trkpt><trkpt lat="45.0783423" lon="7.8226844"><ele>449.66666666666663</ele><time>2026-04-10T08:31:37.844Z</time></trkpt><trkpt lat="45.0782593" lon="7.8226974"><ele>447.0</ele><time>2026-04-10T08:31:38.844Z</time></trkpt><trkpt lat="45.0781302" lon="7.8227019"><ele>444.33333333333337</ele><time>2026-04-10T08:31:40.843Z</time></trkpt><trkpt lat="45.0780631" lon="7.8226916"><ele>441.6666666666667</ele><time>2026-04-10T08:31:41.844Z</time></trkpt><trkpt lat="45.0779885" lon="7.8226634"><ele>439.0</ele><time>2026-04-10T08:31:42.843Z</time></trkpt><trkpt lat="45.0779118" lon="7.8226505"><ele>441.1666666666667</ele><time>2026-04-10T08:31:43.844Z</time></trkpt><trkpt lat="45.0778278" lon="7.8226291"><ele>443.33333333333337</ele><time>2026-04-10T08:31:44.843Z</time></trkpt><trkpt lat="45.0777462" lon="7.8226118"><ele>445.5</ele><time>2026-04-10T08:31:45.845Z</time></trkpt><trkpt lat="45.0776728" lon="7.8225945"><ele>447.66666666666663</ele><time>2026-04-10T08:31:46.844Z</time></trkpt><trkpt lat="45.0775961" lon="7.8225775"><ele>449.8333333333333</ele><time>2026-04-10T08:31:47.843Z</time></trkpt><trkpt lat="45.0775318" lon="7.8225471"><ele>452.0</ele><time>2026-04-10T08:31:48.844Z</time></trkpt><trkpt lat="45.0774714" lon="7.8225174"><ele>450.8</ele><time>2026-04-10T08:31:49.844Z</time></trkpt><trkpt lat="45.0773785" lon="7.8224556"><ele>449.6</ele><time>2026-04-10T08:31:51.845Z</time></trkpt><trkpt lat="45.0772788" lon="7.8224816"><ele>448.40000000000003</ele><time>2026-04-10T08:31:53.844Z</time></trkpt><trkpt lat="45.0772163" lon="7.8225309"><ele>447.20000000000005</ele><time>2026-04-10T08:31:54.844Z</time></trkpt><trkpt lat="45.0770959" lon="7.822624"><ele>446.0</ele><time>2026-04-10T08:31:56.845Z</time></trkpt><trkpt lat="45.0770309" lon="7.822686"><ele>445.42857142857144</ele><time>2026-04-10T08:31:57.845Z</time></trkpt><trkpt lat="45.0769615" lon="7.8227371"><ele>444.85714285714283</ele><time>2026-04-10T08:31:58.843Z</time></trkpt><trkpt lat="45.0768903" lon="7.8227895"><ele>444.28571428571433</ele><time>2026-04-10T08:31:59.843Z</time></trkpt><trkpt lat="45.0768348" lon="7.8228411"><ele>443.7142857142857</ele><time>2026-04-10T08:32:00.846Z</time></trkpt><trkpt lat="45.0767664" lon="7.8228896"><ele>443.14285714285717</ele><time>2026-04-10T08:32:01.843Z</time></trkpt><trkpt lat="45.076712" lon="7.8229467"><ele>442.5714285714286</ele><time>2026-04-10T08:32:02.843Z</time></trkpt><trkpt lat="45.0766468" lon="7.8229874"><ele>442.0</ele><time>2026-04-10T08:32:03.845Z</time></trkpt><trkpt lat="45.0765927" lon="7.8230425"><ele>441.42857142857144</ele><time>2026-04-10T08:32:04.843Z</time></trkpt><trkpt lat="45.0765276" lon="7.8230896"><ele>440.8571428571429</ele><time>2026-04-10T08:32:05.845Z</time></trkpt><trkpt lat="45.0764607" lon="7.8231336"><ele>440.28571428571433</ele><time>2026-04-10T08:32:06.845Z</time></trkpt><trkpt lat="45.0763971" lon="7.823168"><ele>439.7142857142857</ele><time>2026-04-10T08:32:07.844Z</time></trkpt><trkpt lat="45.0763316" lon="7.8232043"><ele>439.1428571428571</ele><time>2026-04-10T08:32:08.844Z</time></trkpt><trkpt lat="45.0762692" lon="7.8232404"><ele>438.5714285714286</ele><time>2026-04-10T08:32:09.844Z</time></trkpt><trkpt lat="45.0762093" lon="7.8232705"><ele>438.0</ele><time>2026-04-10T08:32:10.845Z</time></trkpt><trkpt lat="45.0761422" lon="7.8233028"><ele>438.0</ele><time>2026-04-10T08:32:11.845Z</time></trkpt><trkpt lat="45.0760708" lon="7.8233335"><ele>438.0</ele><time>2026-04-10T08:32:12.846Z</time></trkpt><trkpt lat="45.0760044" lon="7.8233694"><ele>438.0</ele><time>2026-04-10T08:32:13.845Z</time></trkpt><trkpt lat="45.0759426" lon="7.8234069"><ele>438.0</ele><time>2026-04-10T08:32:14.844Z</time></trkpt><trkpt lat="45.0758841" lon="7.8234533"><ele>438.0</ele><time>2026-04-10T08:32:15.844Z</time></trkpt><trkpt lat="45.0758278" lon="7.8235119"><ele>438.0</ele><time>2026-04-10T08:32:16.844Z</time></trkpt><trkpt lat="45.0757717" lon="7.8235731"><ele>438.0</ele><time>2026-04-10T08:32:17.844Z</time></trkpt><trkpt lat="45.0757251" lon="7.8236511"><ele>437.14285714285717</ele><time>2026-04-10T08:32:18.844Z</time></trkpt><trkpt lat="45.0756813" lon="7.8237223"><ele>436.2857142857143</ele><time>2026-04-10T08:32:19.843Z</time></trkpt><trkpt lat="45.075639" lon="7.8238046"><ele>435.42857142857144</ele><time>2026-04-10T08:32:20.844Z</time></trkpt><trkpt lat="45.0756055" lon="7.8238918"><ele>434.57142857142856</ele><time>2026-04-10T08:32:21.846Z</time></trkpt><trkpt lat="45.0755629" lon="7.823968"><ele>433.71428571428567</ele><time>2026-04-10T08:32:22.845Z</time></trkpt><trkpt lat="45.0755204" lon="7.8240524"><ele>432.85714285714283</ele><time>2026-04-10T08:32:23.844Z</time></trkpt><trkpt lat="45.0754759" lon="7.8241404"><ele>432.0</ele><time>2026-04-10T08:32:24.844Z</time></trkpt><trkpt lat="45.0754389" lon="7.8242286"><ele>432.85714285714283</ele><time>2026-04-10T08:32:25.844Z</time></trkpt><trkpt lat="45.0753949" lon="7.8243225"><ele>433.71428571428567</ele><time>2026-04-10T08:32:26.844Z</time></trkpt><trkpt lat="45.0753513" lon="7.8243971"><ele>434.57142857142856</ele><time>2026-04-10T08:32:27.843Z</time></trkpt><trkpt lat="45.0752979" lon="7.8244651"><ele>435.42857142857144</ele><time>2026-04-10T08:32:28.843Z</time></trkpt><trkpt lat="45.0752486" lon="7.824523"><ele>436.2857142857143</ele><time>2026-04-10T08:32:29.844Z</time></trkpt><trkpt lat="45.0751948" lon="7.824578"><ele>437.14285714285717</ele><time>2026-04-10T08:32:30.843Z</time></trkpt><trkpt lat="45.0751338" lon="7.8246369"><ele>438.0</ele><time>2026-04-10T08:32:31.844Z</time></trkpt><trkpt lat="45.0750767" lon="7.8246919"><ele>438.0</ele><time>2026-04-10T08:32:32.845Z</time></trkpt><trkpt lat="45.0749806" lon="7.8247708"><ele>438.0</ele><time>2026-04-10T08:32:34.844Z</time></trkpt><trkpt lat="45.0749014" lon="7.8248129"><ele>438.0</ele><time>2026-04-10T08:32:35.844Z</time></trkpt><trkpt lat="45.0748436" lon="7.8248731"><ele>438.0</ele><time>2026-04-10T08:32:36.844Z</time></trkpt><trkpt lat="45.0747823" lon="7.8249005"><ele>438.0</ele><time>2026-04-10T08:32:37.843Z</time></trkpt><trkpt lat="45.074723" lon="7.8249426"><ele>438.0</ele><time>2026-04-10T08:32:38.843Z</time></trkpt><trkpt lat="45.0746589" lon="7.8249868"><ele>437.2857142857143</ele><time>2026-04-10T08:32:39.843Z</time></trkpt><trkpt lat="45.0745872" lon="7.8250253"><ele>436.57142857142856</ele><time>2026-04-10T08:32:40.844Z</time></trkpt><trkpt lat="45.0745164" lon="7.8250683"><ele>435.85714285714283</ele><time>2026-04-10T08:32:41.843Z</time></trkpt><trkpt lat="45.0744369" lon="7.8250935"><ele>435.1428571428571</ele><time>2026-04-10T08:32:42.843Z</time></trkpt><trkpt lat="45.0743641" lon="7.8251068"><ele>434.42857142857144</ele><time>2026-04-10T08:32:43.845Z</time></trkpt><trkpt lat="45.0742944" lon="7.8251129"><ele>433.71428571428567</ele><time>2026-04-10T08:32:44.843Z</time></trkpt><trkpt lat="45.0742253" lon="7.825125"><ele>433.0</ele><time>2026-04-10T08:32:45.844Z</time></trkpt><trkpt lat="45.074159" lon="7.8251197"><ele>433.00000000000006</ele><time>2026-04-10T08:32:46.845Z</time></trkpt><trkpt lat="45.0740936" lon="7.8251258"><ele>433.0</ele><time>2026-04-10T08:32:47.844Z</time></trkpt><trkpt lat="45.0740251" lon="7.8251271"><ele>433.0</ele><time>2026-04-10T08:32:48.844Z</time></trkpt><trkpt lat="45.0739614" lon="7.825141"><ele>433.0</ele><time>2026-04-10T08:32:49.844Z</time></trkpt><trkpt lat="45.0738914" lon="7.8251514"><ele>433.00000000000006</ele><time>2026-04-10T08:32:50.845Z</time></trkpt><trkpt lat="45.0738284" lon="7.8251552"><ele>433.0</ele><time>2026-04-10T08:32:51.844Z</time></trkpt><trkpt lat="45.0737021" lon="7.8251758"><ele>433.0</ele><time>2026-04-10T08:32:53.844Z</time></trkpt><trkpt lat="45.0735707" lon="7.8251812"><ele>432.99999999999994</ele><time>2026-04-10T08:32:55.845Z</time></trkpt><trkpt lat="45.0735049" lon="7.8251837"><ele>432.99999999999994</ele><time>2026-04-10T08:32:56.843Z</time></trkpt><trkpt lat="45.0733799" lon="7.8251841"><ele>433.0</ele><time>2026-04-10T08:32:58.843Z</time></trkpt><trkpt lat="45.073315" lon="7.8251798"><ele>433.0</ele><time>2026-04-10T08:32:59.843Z</time></trkpt><trkpt lat="45.0732471" lon="7.8251742"><ele>430.4</ele><time>2026-04-10T08:33:00.844Z</time></trkpt><trkpt lat="45.0731764" lon="7.8251772"><ele>427.79999999999995</ele><time>2026-04-10T08:33:01.844Z</time></trkpt><trkpt lat="45.0731082" lon="7.8251793"><ele>425.2</ele><time>2026-04-10T08:33:02.844Z</time></trkpt><trkpt lat="45.0729791" lon="7.8251829"><ele>422.6</ele><time>2026-04-10T08:33:04.845Z</time></trkpt><trkpt lat="45.0728598" lon="7.8251732"><ele>420.0</ele><time>2026-04-10T08:33:06.845Z</time></trkpt><trkpt lat="45.0727406" lon="7.8251637"><ele>420.0</ele><time>2026-04-10T08:33:08.844Z</time></trkpt><trkpt lat="45.0726198" lon="7.8251505"><ele>420.0</ele><time>2026-04-10T08:33:10.844Z</time></trkpt><trkpt lat="45.0724937" lon="7.8251392"><ele>420.0</ele><time>2026-04-10T08:33:12.844Z</time></trkpt><trkpt lat="45.0723795" lon="7.8251036"><ele>420.0</ele><time>2026-04-10T08:33:14.844Z</time></trkpt><trkpt lat="45.0722556" lon="7.8250059"><ele>421.14285714285717</ele><time>2026-04-10T08:33:16.843Z</time></trkpt><trkpt lat="45.0722043" lon="7.8249459"><ele>422.2857142857143</ele><time>2026-04-10T08:33:17.844Z</time></trkpt><trkpt lat="45.0721507" lon="7.8248817"><ele>423.42857142857144</ele><time>2026-04-10T08:33:18.844Z</time></trkpt><trkpt lat="45.0720934" lon="7.8248119"><ele>424.57142857142856</ele><time>2026-04-10T08:33:19.844Z</time></trkpt><trkpt lat="45.0720381" lon="7.8247461"><ele>425.7142857142857</ele><time>2026-04-10T08:33:20.843Z</time></trkpt><trkpt lat="45.0719826" lon="7.8246895"><ele>426.8571428571429</ele><time>2026-04-10T08:33:21.844Z</time></trkpt><trkpt lat="45.0719286" lon="7.8246379"><ele>428.0</ele><time>2026-04-10T08:33:22.844Z</time></trkpt><trkpt lat="45.0718797" lon="7.824577"><ele>427.99999999999994</ele><time>2026-04-10T08:33:23.844Z</time></trkpt><trkpt lat="45.0717868" lon="7.8244625"><ele>428.0</ele><time>2026-04-10T08:33:25.844Z</time></trkpt><trkpt lat="45.0717285" lon="7.8243956"><ele>428.0</ele><time>2026-04-10T08:33:26.845Z</time></trkpt><trkpt lat="45.0716761" lon="7.8243378"><ele>428.0</ele><time>2026-04-10T08:33:27.844Z</time></trkpt><trkpt lat="45.0716156" lon="7.8242832"><ele>427.99999999999994</ele><time>2026-04-10T08:33:28.844Z</time></trkpt><trkpt lat="45.0715445" lon="7.8242405"><ele>428.0</ele><time>2026-04-10T08:33:29.844Z</time></trkpt><trkpt lat="45.0714734" lon="7.8242185"><ele>429.14285714285717</ele><time>2026-04-10T08:33:30.843Z</time></trkpt><trkpt lat="45.0713993" lon="7.824219"><ele>430.2857142857143</ele><time>2026-04-10T08:33:31.844Z</time></trkpt><trkpt lat="45.071326" lon="7.8242274"><ele>431.42857142857144</ele><time>2026-04-10T08:33:32.845Z</time></trkpt><trkpt lat="45.0712594" lon="7.8242399"><ele>432.57142857142856</ele><time>2026-04-10T08:33:33.843Z</time></trkpt><trkpt lat="45.0711878" lon="7.8242472"><ele>433.7142857142857</ele><time>2026-04-10T08:33:34.844Z</time></trkpt><trkpt lat="45.0711208" lon="7.8242486"><ele>434.8571428571429</ele><time>2026-04-10T08:33:35.844Z</time></trkpt><trkpt lat="45.0710488" lon="7.8242283"><ele>436.0</ele><time>2026-04-10T08:33:36.844Z</time></trkpt><trkpt lat="45.0709711" lon="7.824202"><ele>436.00000000000006</ele><time>2026-04-10T08:33:37.843Z</time></trkpt><trkpt lat="45.0709022" lon="7.8241455"><ele>436.0</ele><time>2026-04-10T08:33:38.844Z</time></trkpt><trkpt lat="45.0708342" lon="7.8241011"><ele>436.0</ele><time>2026-04-10T08:33:39.845Z</time></trkpt><trkpt lat="45.070765" lon="7.8240608"><ele>436.0</ele><time>2026-04-10T08:33:40.843Z</time></trkpt><trkpt lat="45.0706602" lon="7.8239495"><ele>436.00000000000006</ele><time>2026-04-10T08:33:42.844Z</time></trkpt><trkpt lat="45.070602" lon="7.8238758"><ele>436.0</ele><time>2026-04-10T08:33:43.844Z</time></trkpt><trkpt lat="45.0705491" lon="7.8237997"><ele>435.6666666666667</ele><time>2026-04-10T08:33:44.844Z</time></trkpt><trkpt lat="45.0704909" lon="7.8237252"><ele>435.33333333333337</ele><time>2026-04-10T08:33:45.843Z</time></trkpt><trkpt lat="45.0704356" lon="7.823646"><ele>435.0</ele><time>2026-04-10T08:33:46.845Z</time></trkpt><trkpt lat="45.0703746" lon="7.8235867"><ele>434.66666666666663</ele><time>2026-04-10T08:33:47.845Z</time></trkpt><trkpt lat="45.0703148" lon="7.8235167"><ele>434.3333333333333</ele><time>2026-04-10T08:33:48.844Z</time></trkpt><trkpt lat="45.0702549" lon="7.8234616"><ele>434.0</ele><time>2026-04-10T08:33:49.845Z</time></trkpt><trkpt lat="45.0701441" lon="7.8233775"><ele>431.75</ele><time>2026-04-10T08:33:51.844Z</time></trkpt><trkpt lat="45.0700458" lon="7.8233054"><ele>429.5</ele><time>2026-04-10T08:33:53.844Z</time></trkpt><trkpt lat="45.0699426" lon="7.8232668"><ele>427.25</ele><time>2026-04-10T08:33:55.844Z</time></trkpt><trkpt lat="45.0698335" lon="7.8232274"><ele>425.0</ele><time>2026-04-10T08:33:57.844Z</time></trkpt><trkpt lat="45.0697091" lon="7.8231752"><ele>424.49999999999994</ele><time>2026-04-10T08:33:59.844Z</time></trkpt><trkpt lat="45.0696472" lon="7.823157"><ele>424.0</ele><time>2026-04-10T08:34:00.845Z</time></trkpt><trkpt lat="45.0695831" lon="7.8231316"><ele>423.5</ele><time>2026-04-10T08:34:01.844Z</time></trkpt><trkpt lat="45.0694904" lon="7.8231132"><ele>423.0</ele><time>2026-04-10T08:34:03.843Z</time></trkpt><trkpt lat="45.0694037" lon="7.8231106"><ele>422.49999999999994</ele><time>2026-04-10T08:34:05.845Z</time></trkpt><trkpt lat="45.0693249" lon="7.8231293"><ele>422.0</ele><time>2026-04-10T08:34:07.843Z</time></trkpt><trkpt lat="45.0692541" lon="7.8231581"><ele>422.0</ele><time>2026-04-10T08:34:09.843Z</time></trkpt><trkpt lat="45.0691655" lon="7.8231934"><ele>422.0</ele><time>2026-04-10T08:34:11.845Z</time></trkpt><trkpt lat="45.0690789" lon="7.8232424"><ele>422.0</ele><time>2026-04-10T08:34:13.844Z</time></trkpt><trkpt lat="45.0689939" lon="7.8233172"><ele>422.0</ele><time>2026-04-10T08:34:15.844Z</time></trkpt><trkpt lat="45.0689151" lon="7.8233956"><ele>422.0</ele><time>2026-04-10T08:34:17.844Z</time></trkpt><trkpt lat="45.0688169" lon="7.8234923"><ele>418.25</ele><time>2026-04-10T08:34:19.844Z</time></trkpt><trkpt lat="45.068702" lon="7.8235607"><ele>414.5</ele><time>2026-04-10T08:34:21.844Z</time></trkpt><trkpt lat="45.0685825" lon="7.8235925"><ele>410.75</ele><time>2026-04-10T08:34:23.844Z</time></trkpt><trkpt lat="45.0684629" lon="7.8236532"><ele>407.0</ele><time>2026-04-10T08:34:25.845Z</time></trkpt><trkpt lat="45.0683425" lon="7.8237012"><ele>406.99999999999994</ele><time>2026-04-10T08:34:27.843Z</time></trkpt><trkpt lat="45.0682781" lon="7.8237157"><ele>407.0</ele><time>2026-04-10T08:34:28.845Z</time></trkpt><trkpt lat="45.0682128" lon="7.8237282"><ele>407.0</ele><time>2026-04-10T08:34:29.843Z</time></trkpt><trkpt lat="45.0681514" lon="7.823749"><ele>407.0</ele><time>2026-04-10T08:34:30.844Z</time></trkpt><trkpt lat="45.0680826" lon="7.8237806"><ele>406.99999999999994</ele><time>2026-04-10T08:34:31.845Z</time></trkpt><trkpt lat="45.0680169" lon="7.8238144"><ele>407.0</ele><time>2026-04-10T08:34:32.844Z</time></trkpt><trkpt lat="45.067911" lon="7.8238707"><ele>406.40000000000003</ele><time>2026-04-10T08:34:34.843Z</time></trkpt><trkpt lat="45.0677988" lon="7.823924"><ele>405.8</ele><time>2026-04-10T08:34:36.845Z</time></trkpt><trkpt lat="45.0676902" lon="7.8239733"><ele>405.2</ele><time>2026-04-10T08:34:38.843Z</time></trkpt><trkpt lat="45.0675717" lon="7.8239903"><ele>404.6</ele><time>2026-04-10T08:34:40.844Z</time></trkpt><trkpt lat="45.0675021" lon="7.8239933"><ele>404.0</ele><time>2026-04-10T08:34:41.843Z</time></trkpt><trkpt lat="45.0674276" lon="7.8239922"><ele>403.2857142857143</ele><time>2026-04-10T08:34:42.844Z</time></trkpt><trkpt lat="45.0673519" lon="7.8239901"><ele>402.57142857142856</ele><time>2026-04-10T08:34:43.844Z</time></trkpt><trkpt lat="45.067275" lon="7.8239801"><ele>401.8571428571429</ele><time>2026-04-10T08:34:44.845Z</time></trkpt><trkpt lat="45.0672023" lon="7.8239738"><ele>401.1428571428571</ele><time>2026-04-10T08:34:45.844Z</time></trkpt><trkpt lat="45.0671323" lon="7.8239936"><ele>400.42857142857144</ele><time>2026-04-10T08:34:46.845Z</time></trkpt><trkpt lat="45.06706" lon="7.8239957"><ele>399.7142857142857</ele><time>2026-04-10T08:34:47.846Z</time></trkpt><trkpt lat="45.0669825" lon="7.8239937"><ele>399.0</ele><time>2026-04-10T08:34:48.844Z</time></trkpt><trkpt lat="45.0669012" lon="7.8239971"><ele>399.0</ele><time>2026-04-10T08:34:49.845Z</time></trkpt><trkpt lat="45.0668301" lon="7.8239878"><ele>399.0</ele><time>2026-04-10T08:34:50.844Z</time></trkpt><trkpt lat="45.066757" lon="7.8239765"><ele>399.0</ele><time>2026-04-10T08:34:51.844Z</time></trkpt><trkpt lat="45.0666867" lon="7.8239686"><ele>399.0</ele><time>2026-04-10T08:34:52.844Z</time></trkpt><trkpt lat="45.0665847" lon="7.8239821"><ele>399.0</ele><time>2026-04-10T08:34:54.845Z</time></trkpt><trkpt lat="45.0664758" lon="7.8239972"><ele>399.0</ele><time>2026-04-10T08:34:56.844Z</time></trkpt><trkpt lat="45.0664057" lon="7.8239941"><ele>397.0</ele><time>2026-04-10T08:34:57.844Z</time></trkpt><trkpt lat="45.0663336" lon="7.8239994"><ele>395.0</ele><time>2026-04-10T08:34:58.845Z</time></trkpt><trkpt lat="45.0662499" lon="7.8239835"><ele>393.0</ele><time>2026-04-10T08:34:59.844Z</time></trkpt><trkpt lat="45.0661597" lon="7.8239906"><ele>391.0</ele><time>2026-04-10T08:35:00.845Z</time></trkpt><trkpt lat="45.0660739" lon="7.824012"><ele>389.0</ele><time>2026-04-10T08:35:01.845Z</time></trkpt><trkpt lat="45.0659899" lon="7.824039"><ele>387.0</ele><time>2026-04-10T08:35:02.843Z</time></trkpt><trkpt lat="45.065913" lon="7.8241011"><ele>387.0</ele><time>2026-04-10T08:35:03.844Z</time></trkpt><trkpt lat="45.0658417" lon="7.8241689"><ele>387.0</ele><time>2026-04-10T08:35:04.843Z</time></trkpt><trkpt lat="45.0657701" lon="7.8242436"><ele>387.0</ele><time>2026-04-10T08:35:05.844Z</time></trkpt><trkpt lat="45.0657091" lon="7.8243199"><ele>387.0</ele><time>2026-04-10T08:35:06.845Z</time></trkpt><trkpt lat="45.0656149" lon="7.8244433"><ele>387.0</ele><time>2026-04-10T08:35:08.844Z</time></trkpt><trkpt lat="45.0655334" lon="7.8245195"><ele>384.40000000000003</ele><time>2026-04-10T08:35:10.844Z</time></trkpt><trkpt lat="45.0654308" lon="7.8245502"><ele>381.8</ele><time>2026-04-10T08:35:12.843Z</time></trkpt><trkpt lat="45.0653058" lon="7.8245924"><ele>379.2</ele><time>2026-04-10T08:35:14.844Z</time></trkpt><trkpt lat="45.0652284" lon="7.8246058"><ele>376.6</ele><time>2026-04-10T08:35:15.844Z</time></trkpt><trkpt lat="45.0651453" lon="7.8246257"><ele>374.0</ele><time>2026-04-10T08:35:16.844Z</time></trkpt><trkpt lat="45.0650631" lon="7.8246455"><ele>374.0</ele><time>2026-04-10T08:35:17.843Z</time></trkpt><trkpt lat="45.064976" lon="7.8246601"><ele>374.0</ele><time>2026-04-10T08:35:18.844Z</time></trkpt><trkpt lat="45.0648949" lon="7.8246957"><ele>374.0</ele><time>2026-04-10T08:35:19.845Z</time></trkpt><trkpt lat="45.0648218" lon="7.8247349"><ele>374.0</ele><time>2026-04-10T08:35:20.844Z</time></trkpt><trkpt lat="45.0647538" lon="7.8247842"><ele>374.0</ele><time>2026-04-10T08:35:21.844Z</time></trkpt><trkpt lat="45.0646873" lon="7.8248425"><ele>374.0</ele><time>2026-04-10T08:35:22.844Z</time></trkpt><trkpt lat="45.0646333" lon="7.8248907"><ele>373.2</ele><time>2026-04-10T08:35:23.844Z</time></trkpt><trkpt lat="45.0645567" lon="7.8249456"><ele>372.4</ele><time>2026-04-10T08:35:25.843Z</time></trkpt><trkpt lat="45.0645066" lon="7.8250349"><ele>371.6</ele><time>2026-04-10T08:35:27.844Z</time></trkpt><trkpt lat="45.0644479" lon="7.8251551"><ele>370.8</ele><time>2026-04-10T08:35:29.845Z</time></trkpt><trkpt lat="45.0644184" lon="7.8253176"><ele>370.0</ele><time>2026-04-10T08:35:31.845Z</time></trkpt><trkpt lat="45.0643814" lon="7.8253902"><ele>370.0</ele><time>2026-04-10T08:35:32.843Z</time></trkpt><trkpt lat="45.0643672" lon="7.8254811"><ele>370.0</ele><time>2026-04-10T08:35:33.845Z</time></trkpt><trkpt lat="45.0643341" lon="7.8255632"><ele>370.0</ele><time>2026-04-10T08:35:34.845Z</time></trkpt><trkpt lat="45.064293" lon="7.8256373"><ele>370.0</ele><time>2026-04-10T08:35:35.845Z</time></trkpt><trkpt lat="45.0642443" lon="7.8257036"><ele>370.0</ele><time>2026-04-10T08:35:36.844Z</time></trkpt><trkpt lat="45.0641538" lon="7.8257909"><ele>370.0</ele><time>2026-04-10T08:35:38.845Z</time></trkpt><trkpt lat="45.0641318" lon="7.8259269"><ele>371.4</ele><time>2026-04-10T08:35:40.844Z</time></trkpt><trkpt lat="45.064172" lon="7.8260752"><ele>372.8</ele><time>2026-04-10T08:35:42.845Z</time></trkpt><trkpt lat="45.0642561" lon="7.8262153"><ele>374.20000000000005</ele><time>2026-04-10T08:35:44.843Z</time></trkpt><trkpt lat="45.0643037" lon="7.8262819"><ele>375.6</ele><time>2026-04-10T08:35:45.845Z</time></trkpt><trkpt lat="45.0643648" lon="7.8263404"><ele>377.0</ele><time>2026-04-10T08:35:46.843Z</time></trkpt><trkpt lat="45.0644226" lon="7.8263973"><ele>377.0</ele><time>2026-04-10T08:35:47.844Z</time></trkpt><trkpt lat="45.0644992" lon="7.8264512"><ele>377.0</ele><time>2026-04-10T08:35:48.845Z</time></trkpt><trkpt lat="45.0645675" lon="7.8264959"><ele>377.0</ele><time>2026-04-10T08:35:49.843Z</time></trkpt><trkpt lat="45.0646467" lon="7.8265517"><ele>377.0</ele><time>2026-04-10T08:35:50.845Z</time></trkpt><trkpt lat="45.0647537" lon="7.8265729"><ele>377.0</ele><time>2026-04-10T08:35:51.843Z</time></trkpt><trkpt lat="45.0648623" lon="7.8266056"><ele>373.6</ele><time>2026-04-10T08:35:52.843Z</time></trkpt><trkpt lat="45.0649758" lon="7.8266183"><ele>370.20000000000005</ele><time>2026-04-10T08:35:53.844Z</time></trkpt><trkpt lat="45.0650809" lon="7.8266266"><ele>366.8</ele><time>2026-04-10T08:35:54.844Z</time></trkpt><trkpt lat="45.065185" lon="7.8266258"><ele>363.4</ele><time>2026-04-10T08:35:55.844Z</time></trkpt><trkpt lat="45.0652803" lon="7.8266073"><ele>360.0</ele><time>2026-04-10T08:35:56.845Z</time></trkpt><trkpt lat="45.0653674" lon="7.8265799"><ele>360.0</ele><time>2026-04-10T08:35:57.844Z</time></trkpt><trkpt lat="45.0654516" lon="7.8265441"><ele>360.0</ele><time>2026-04-10T08:35:58.844Z</time></trkpt><trkpt lat="45.0655211" lon="7.826521"><ele>360.0</ele><time>2026-04-10T08:35:59.845Z</time></trkpt><trkpt lat="45.065591" lon="7.8265087"><ele>360.0</ele><time>2026-04-10T08:36:00.844Z</time></trkpt><trkpt lat="45.0656626" lon="7.8265264"><ele>360.0</ele><time>2026-04-10T08:36:01.843Z</time></trkpt><trkpt lat="45.0657286" lon="7.826572"><ele>360.0</ele><time>2026-04-10T08:36:02.845Z</time></trkpt><trkpt lat="45.065784" lon="7.8266428"><ele>360.3333333333333</ele><time>2026-04-10T08:36:03.844Z</time></trkpt><trkpt lat="45.0658303" lon="7.8267352"><ele>360.6666666666667</ele><time>2026-04-10T08:36:04.843Z</time></trkpt><trkpt lat="45.0658128" lon="7.8268439"><ele>361.0</ele><time>2026-04-10T08:36:05.845Z</time></trkpt><trkpt lat="45.0658006" lon="7.8269621"><ele>361.33333333333337</ele><time>2026-04-10T08:36:06.843Z</time></trkpt><trkpt lat="45.0657291" lon="7.8270518"><ele>361.6666666666667</ele><time>2026-04-10T08:36:07.845Z</time></trkpt><trkpt lat="45.065654" lon="7.8271243"><ele>362.0</ele><time>2026-04-10T08:36:08.845Z</time></trkpt><trkpt lat="45.0655753" lon="7.8271847"><ele>362.0</ele><time>2026-04-10T08:36:09.843Z</time></trkpt><trkpt lat="45.0655136" lon="7.8272569"><ele>362.0</ele><time>2026-04-10T08:36:10.845Z</time></trkpt><trkpt lat="45.0654632" lon="7.8273635"><ele>362.0</ele><time>2026-04-10T08:36:11.844Z</time></trkpt><trkpt lat="45.0654302" lon="7.82748"><ele>362.0</ele><time>2026-04-10T08:36:12.843Z</time></trkpt><trkpt lat="45.0654208" lon="7.827614"><ele>362.0</ele><time>2026-04-10T08:36:13.844Z</time></trkpt><trkpt lat="45.0654375" lon="7.8277441"><ele>362.0</ele><time>2026-04-10T08:36:14.843Z</time></trkpt><trkpt lat="45.0654749" lon="7.8278739"><ele>363.0</ele><time>2026-04-10T08:36:15.843Z</time></trkpt><trkpt lat="45.0655127" lon="7.8280001"><ele>364.0</ele><time>2026-04-10T08:36:16.845Z</time></trkpt><trkpt lat="45.0655645" lon="7.8281444"><ele>365.0</ele><time>2026-04-10T08:36:17.843Z</time></trkpt><trkpt lat="45.0656192" lon="7.8282925"><ele>366.0</ele><time>2026-04-10T08:36:18.843Z</time></trkpt><trkpt lat="45.0656569" lon="7.828442"><ele>367.0</ele><time>2026-04-10T08:36:19.844Z</time></trkpt><trkpt lat="45.0657057" lon="7.8286161"><ele>367.75</ele><time>2026-04-10T08:36:20.844Z</time></trkpt><trkpt lat="45.0657686" lon="7.8287816"><ele>368.5</ele><time>2026-04-10T08:36:21.844Z</time></trkpt><trkpt lat="45.0658336" lon="7.8289381"><ele>369.25</ele><time>2026-04-10T08:36:22.844Z</time></trkpt><trkpt lat="45.0659166" lon="7.8290909"><ele>370.0</ele><time>2026-04-10T08:36:23.846Z</time></trkpt><trkpt lat="45.065991" lon="7.8292455"><ele>360.25</ele><time>2026-04-10T08:36:24.843Z</time></trkpt><trkpt lat="45.0660985" lon="7.8293626"><ele>350.5</ele><time>2026-04-10T08:36:25.845Z</time></trkpt><trkpt lat="45.0661799" lon="7.8294856"><ele>340.75</ele><time>2026-04-10T08:36:26.844Z</time></trkpt><trkpt lat="45.0662506" lon="7.8296259"><ele>331.0</ele><time>2026-04-10T08:36:27.843Z</time></trkpt><trkpt lat="45.0663074" lon="7.8297836"><ele>331.0</ele><time>2026-04-10T08:36:28.846Z</time></trkpt><trkpt lat="45.0663713" lon="7.830141"><ele>331.0</ele><time>2026-04-10T08:36:30.844Z</time></trkpt><trkpt lat="45.0663785" lon="7.830319"><ele>331.0</ele><time>2026-04-10T08:36:31.844Z</time></trkpt><trkpt lat="45.0663939" lon="7.8304866"><ele>328.6</ele><time>2026-04-10T08:36:32.844Z</time></trkpt><trkpt lat="45.0664152" lon="7.8306473"><ele>326.20000000000005</ele><time>2026-04-10T08:36:33.843Z</time></trkpt><trkpt lat="45.0664701" lon="7.8307776"><ele>323.79999999999995</ele><time>2026-04-10T08:36:34.844Z</time></trkpt><trkpt lat="45.0665435" lon="7.830894"><ele>321.4</ele><time>2026-04-10T08:36:35.844Z</time></trkpt><trkpt lat="45.0666271" lon="7.8309693"><ele>319.0</ele><time>2026-04-10T08:36:36.845Z</time></trkpt><trkpt lat="45.0667333" lon="7.8310276"><ele>316.2</ele><time>2026-04-10T08:36:37.845Z</time></trkpt><trkpt lat="45.0668392" lon="7.8310513"><ele>313.4</ele><time>2026-04-10T08:36:38.845Z</time></trkpt><trkpt lat="45.0669372" lon="7.8310819"><ele>310.6</ele><time>2026-04-10T08:36:39.846Z</time></trkpt><trkpt lat="45.0670319" lon="7.8311231"><ele>307.8</ele><time>2026-04-10T08:36:40.844Z</time></trkpt><trkpt lat="45.0671172" lon="7.8311813"><ele>305.0</ele><time>2026-04-10T08:36:41.846Z</time></trkpt><trkpt lat="45.0671996" lon="7.8312692"><ele>305.0</ele><time>2026-04-10T08:36:42.844Z</time></trkpt><trkpt lat="45.0672619" lon="7.8313679"><ele>305.0</ele><time>2026-04-10T08:36:43.843Z</time></trkpt><trkpt lat="45.0673169" lon="7.8314698"><ele>305.0</ele><time>2026-04-10T08:36:44.844Z</time></trkpt><trkpt lat="45.0673544" lon="7.8315714"><ele>305.0</ele><time>2026-04-10T08:36:45.843Z</time></trkpt><trkpt lat="45.0673767" lon="7.8316845"><ele>305.0</ele><time>2026-04-10T08:36:46.844Z</time></trkpt><trkpt lat="45.0673917" lon="7.8317912"><ele>305.0</ele><time>2026-04-10T08:36:47.846Z</time></trkpt><trkpt lat="45.0673982" lon="7.8318934"><ele>305.5714285714286</ele><time>2026-04-10T08:36:48.845Z</time></trkpt><trkpt lat="45.0674025" lon="7.8319981"><ele>306.1428571428571</ele><time>2026-04-10T08:36:49.844Z</time></trkpt><trkpt lat="45.0674105" lon="7.8320939"><ele>306.7142857142857</ele><time>2026-04-10T08:36:50.845Z</time></trkpt><trkpt lat="45.0674155" lon="7.8321903"><ele>307.28571428571433</ele><time>2026-04-10T08:36:51.845Z</time></trkpt><trkpt lat="45.0674205" lon="7.8322816"><ele>307.8571428571429</ele><time>2026-04-10T08:36:52.845Z</time></trkpt><trkpt lat="45.0674123" lon="7.83237"><ele>308.42857142857144</ele><time>2026-04-10T08:36:53.844Z</time></trkpt><trkpt lat="45.0673992" lon="7.8324575"><ele>309.0</ele><time>2026-04-10T08:36:54.844Z</time></trkpt><trkpt lat="45.0673687" lon="7.8326069"><ele>309.0</ele><time>2026-04-10T08:36:56.846Z</time></trkpt><trkpt lat="45.0673221" lon="7.8327481"><ele>309.0</ele><time>2026-04-10T08:36:58.844Z</time></trkpt><trkpt lat="45.0672719" lon="7.8328904"><ele>309.0</ele><time>2026-04-10T08:37:00.843Z</time></trkpt><trkpt lat="45.0672447" lon="7.8330442"><ele>309.0</ele><time>2026-04-10T08:37:02.844Z</time></trkpt><trkpt lat="45.0672158" lon="7.833184"><ele>309.0</ele><time>2026-04-10T08:37:04.844Z</time></trkpt><trkpt lat="45.067194" lon="7.8333103"><ele>309.0</ele><time>2026-04-10T08:37:06.845Z</time></trkpt><trkpt lat="45.0671766" lon="7.8334248"><ele>309.0</ele><time>2026-04-10T08:37:08.844Z</time></trkpt><trkpt lat="45.0671676" lon="7.8335317"><ele>309.0</ele><time>2026-04-10T08:37:10.844Z</time></trkpt><trkpt lat="45.0671776" lon="7.8336543"><ele>309.0</ele><time>2026-04-10T08:37:12.844Z</time></trkpt><trkpt lat="45.0671808" lon="7.8337727"><ele>309.0</ele><time>2026-04-10T08:37:14.844Z</time></trkpt><trkpt lat="45.0671781" lon="7.8338723"><ele>309.0</ele><time>2026-04-10T08:37:16.844Z</time></trkpt><trkpt lat="45.0671813" lon="7.8339724"><ele>309.3333333333333</ele><time>2026-04-10T08:37:18.843Z</time></trkpt><trkpt lat="45.0671862" lon="7.8340626"><ele>309.6666666666667</ele><time>2026-04-10T08:37:20.843Z</time></trkpt><trkpt lat="45.0671814" lon="7.8341958"><ele>310.0</ele><time>2026-04-10T08:37:23.844Z</time></trkpt><trkpt lat="45.0671813" lon="7.8343148"><ele>310.33333333333337</ele><time>2026-04-10T08:37:26.844Z</time></trkpt><trkpt lat="45.0671977" lon="7.8344564"><ele>310.6666666666667</ele><time>2026-04-10T08:37:30.844Z</time></trkpt><trkpt lat="45.0671927" lon="7.834594"><ele>311.0</ele><time>2026-04-10T08:37:34.844Z</time></trkpt><trkpt lat="45.0671976" lon="7.8346905"><ele>311.57142857142856</ele><time>2026-04-10T08:37:37.845Z</time></trkpt><trkpt lat="45.0671963" lon="7.8347943"><ele>312.14285714285717</ele><time>2026-04-10T08:37:40.844Z</time></trkpt><trkpt lat="45.0671899" lon="7.8348871"><ele>312.7142857142857</ele><time>2026-04-10T08:37:43.844Z</time></trkpt><trkpt lat="45.0671764" lon="7.8349772"><ele>313.2857142857143</ele><time>2026-04-10T08:37:46.845Z</time></trkpt><trkpt lat="45.0671552" lon="7.8350903"><ele>313.8571428571429</ele><time>2026-04-10T08:37:50.845Z</time></trkpt><trkpt lat="45.0671282" lon="7.8351761"><ele>314.42857142857144</ele><time>2026-04-10T08:37:53.844Z</time></trkpt><trkpt lat="45.0671067" lon="7.8352607"><ele>315.0</ele><time>2026-04-10T08:37:56.846Z</time></trkpt><trkpt lat="45.0670911" lon="7.835355"><ele>317.0</ele><time>2026-04-10T08:37:59.845Z</time></trkpt><trkpt lat="45.067083" lon="7.8354471"><ele>319.0</ele><time>2026-04-10T08:38:02.844Z</time></trkpt><trkpt lat="45.0670663" lon="7.8355529"><ele>321.0</ele><time>2026-04-10T08:38:06.844Z</time></trkpt><trkpt lat="45.0670389" lon="7.8356576"><ele>323.0</ele><time>2026-04-10T08:38:10.844Z</time></trkpt><trkpt lat="45.0670027" lon="7.8357418"><ele>325.0</ele><time>2026-04-10T08:38:12.845Z</time></trkpt><trkpt lat="45.066924" lon="7.8358734"><ele>327.0</ele><time>2026-04-10T08:38:14.845Z</time></trkpt><trkpt lat="45.0668339" lon="7.8360174"><ele>327.1666666666667</ele><time>2026-04-10T08:38:16.844Z</time></trkpt><trkpt lat="45.0667773" lon="7.8361011"><ele>327.3333333333333</ele><time>2026-04-10T08:38:17.843Z</time></trkpt><trkpt lat="45.0667182" lon="7.8361865"><ele>327.5</ele><time>2026-04-10T08:38:18.843Z</time></trkpt><trkpt lat="45.0666532" lon="7.8362792"><ele>327.66666666666663</ele><time>2026-04-10T08:38:19.844Z</time></trkpt><trkpt lat="45.0665895" lon="7.8363769"><ele>327.8333333333333</ele><time>2026-04-10T08:38:20.845Z</time></trkpt><trkpt lat="45.0665248" lon="7.836476"><ele>328.0</ele><time>2026-04-10T08:38:21.844Z</time></trkpt><trkpt lat="45.0664657" lon="7.8365872"><ele>325.2</ele><time>2026-04-10T08:38:22.844Z</time></trkpt><trkpt lat="45.0664018" lon="7.8366993"><ele>322.4</ele><time>2026-04-10T08:38:23.844Z</time></trkpt><trkpt lat="45.0663359" lon="7.8368103"><ele>319.59999999999997</ele><time>2026-04-10T08:38:24.844Z</time></trkpt><trkpt lat="45.0662778" lon="7.8369304"><ele>316.79999999999995</ele><time>2026-04-10T08:38:25.845Z</time></trkpt><trkpt lat="45.0662135" lon="7.8370589"><ele>314.0</ele><time>2026-04-10T08:38:26.845Z</time></trkpt><trkpt lat="45.0661487" lon="7.8371868"><ele>314.0</ele><time>2026-04-10T08:38:27.846Z</time></trkpt><trkpt lat="45.0660847" lon="7.8373124"><ele>314.0</ele><time>2026-04-10T08:38:28.844Z</time></trkpt><trkpt lat="45.0660263" lon="7.8374353"><ele>314.0</ele><time>2026-04-10T08:38:29.845Z</time></trkpt><trkpt lat="45.0659679" lon="7.8375435"><ele>314.0</ele><time>2026-04-10T08:38:30.845Z</time></trkpt><trkpt lat="45.0659244" lon="7.8376326"><ele>314.0</ele><time>2026-04-10T08:38:31.845Z</time></trkpt><trkpt lat="45.0658782" lon="7.8377082"><ele>314.2</ele><time>2026-04-10T08:38:32.845Z</time></trkpt><trkpt lat="45.0658356" lon="7.8377819"><ele>314.4</ele><time>2026-04-10T08:38:33.843Z</time></trkpt><trkpt lat="45.0657699" lon="7.8379267"><ele>314.6</ele><time>2026-04-10T08:38:35.845Z</time></trkpt><trkpt lat="45.0657571" lon="7.8380842"><ele>314.8</ele><time>2026-04-10T08:38:37.845Z</time></trkpt><trkpt lat="45.0657728" lon="7.8382157"><ele>315.0</ele><time>2026-04-10T08:38:39.845Z</time></trkpt><trkpt lat="45.0658081" lon="7.8383418"><ele>315.2</ele><time>2026-04-10T08:38:41.845Z</time></trkpt><trkpt lat="45.0658549" lon="7.8384823"><ele>315.4</ele><time>2026-04-10T08:38:43.845Z</time></trkpt><trkpt lat="45.0658823" lon="7.8386241"><ele>315.6</ele><time>2026-04-10T08:38:45.845Z</time></trkpt><trkpt lat="45.0659117" lon="7.8387683"><ele>315.8</ele><time>2026-04-10T08:38:47.844Z</time></trkpt><trkpt lat="45.0659413" lon="7.8389178"><ele>316.0</ele><time>2026-04-10T08:38:49.845Z</time></trkpt><trkpt lat="45.0659564" lon="7.8390842"><ele>316.00000000000006</ele><time>2026-04-10T08:38:51.844Z</time></trkpt><trkpt lat="45.0659546" lon="7.8391768"><ele>316.0</ele><time>2026-04-10T08:38:52.843Z</time></trkpt><trkpt lat="45.0659376" lon="7.8392636"><ele>316.0</ele><time>2026-04-10T08:38:53.845Z</time></trkpt><trkpt lat="45.0658935" lon="7.8393424"><ele>316.0</ele><time>2026-04-10T08:38:54.844Z</time></trkpt><trkpt lat="45.0658343" lon="7.8394011"><ele>316.0</ele><time>2026-04-10T08:38:55.845Z</time></trkpt><trkpt lat="45.065763" lon="7.8394572"><ele>316.00000000000006</ele><time>2026-04-10T08:38:56.844Z</time></trkpt><trkpt lat="45.0656883" lon="7.8395195"><ele>316.0</ele><time>2026-04-10T08:38:57.845Z</time></trkpt><trkpt lat="45.0656101" lon="7.8395809"><ele>313.8</ele><time>2026-04-10T08:38:58.844Z</time></trkpt><trkpt lat="45.0655344" lon="7.8396564"><ele>311.6</ele><time>2026-04-10T08:38:59.844Z</time></trkpt><trkpt lat="45.0654472" lon="7.8397337"><ele>309.4</ele><time>2026-04-10T08:39:00.845Z</time></trkpt><trkpt lat="45.0653716" lon="7.8398163"><ele>307.2</ele><time>2026-04-10T08:39:01.846Z</time></trkpt><trkpt lat="45.0653138" lon="7.8399142"><ele>305.0</ele><time>2026-04-10T08:39:02.845Z</time></trkpt><trkpt lat="45.0652677" lon="7.8400344"><ele>303.75</ele><time>2026-04-10T08:39:03.845Z</time></trkpt><trkpt lat="45.0652521" lon="7.8401926"><ele>302.5</ele><time>2026-04-10T08:39:04.845Z</time></trkpt><trkpt lat="45.0652565" lon="7.8403592"><ele>301.25</ele><time>2026-04-10T08:39:05.843Z</time></trkpt><trkpt lat="45.0652582" lon="7.8405097"><ele>300.0</ele><time>2026-04-10T08:39:06.844Z</time></trkpt><trkpt lat="45.0652738" lon="7.8406689"><ele>300.0</ele><time>2026-04-10T08:39:07.845Z</time></trkpt><trkpt lat="45.0653014" lon="7.8408297"><ele>300.0</ele><time>2026-04-10T08:39:08.846Z</time></trkpt><trkpt lat="45.0653218" lon="7.8409684"><ele>300.0</ele><time>2026-04-10T08:39:09.844Z</time></trkpt><trkpt lat="45.0653527" lon="7.8411051"><ele>300.0</ele><time>2026-04-10T08:39:10.844Z</time></trkpt><trkpt lat="45.0653806" lon="7.8412419"><ele>300.0</ele><time>2026-04-10T08:39:11.845Z</time></trkpt><trkpt lat="45.0654043" lon="7.8413658"><ele>299.1666666666667</ele><time>2026-04-10T08:39:12.844Z</time></trkpt><trkpt lat="45.0654236" lon="7.8414677"><ele>298.3333333333333</ele><time>2026-04-10T08:39:13.844Z</time></trkpt><trkpt lat="45.0654457" lon="7.8415556"><ele>297.5</ele><time>2026-04-10T08:39:14.846Z</time></trkpt><trkpt lat="45.0654547" lon="7.8417411"><ele>296.66666666666663</ele><time>2026-04-10T08:39:16.845Z</time></trkpt><trkpt lat="45.0654624" lon="7.8418362"><ele>295.8333333333333</ele><time>2026-04-10T08:39:17.844Z</time></trkpt><trkpt lat="45.065489" lon="7.84192"><ele>295.0</ele><time>2026-04-10T08:39:18.844Z</time></trkpt><trkpt lat="45.0655947" lon="7.841994"><ele>294.75</ele><time>2026-04-10T08:39:20.845Z</time></trkpt><trkpt lat="45.0657035" lon="7.841933"><ele>294.5</ele><time>2026-04-10T08:39:22.844Z</time></trkpt><trkpt lat="45.06581" lon="7.8418745"><ele>294.25</ele><time>2026-04-10T08:39:24.845Z</time></trkpt><trkpt lat="45.0659176" lon="7.841839"><ele>294.0</ele><time>2026-04-10T08:39:26.843Z</time></trkpt><trkpt lat="45.0660379" lon="7.8418281"><ele>294.0</ele><time>2026-04-10T08:39:28.845Z</time></trkpt><trkpt lat="45.0661019" lon="7.841823"><ele>294.0</ele><time>2026-04-10T08:39:29.845Z</time></trkpt><trkpt lat="45.0661684" lon="7.8418215"><ele>294.0</ele><time>2026-04-10T08:39:30.844Z</time></trkpt><trkpt lat="45.0662324" lon="7.8418206"><ele>294.0</ele><time>2026-04-10T08:39:31.844Z</time></trkpt><trkpt lat="45.0663587" lon="7.8418177"><ele>294.0</ele><time>2026-04-10T08:39:33.845Z</time></trkpt><trkpt lat="45.0664867" lon="7.8418137"><ele>294.0</ele><time>2026-04-10T08:39:35.845Z</time></trkpt><trkpt lat="45.0665514" lon="7.8418121"><ele>294.3333333333333</ele><time>2026-04-10T08:39:36.845Z</time></trkpt><trkpt lat="45.066617" lon="7.8418141"><ele>294.6666666666667</ele><time>2026-04-10T08:39:37.844Z</time></trkpt><trkpt lat="45.0667291" lon="7.8418163"><ele>295.0</ele><time>2026-04-10T08:39:39.845Z</time></trkpt><trkpt lat="45.0667924" lon="7.8418152"><ele>295.33333333333337</ele><time>2026-04-10T08:39:40.844Z</time></trkpt><trkpt lat="45.0669015" lon="7.8418281"><ele>295.6666666666667</ele><time>2026-04-10T08:39:42.845Z</time></trkpt><trkpt lat="45.0669776" lon="7.8419154"><ele>296.0</ele><time>2026-04-10T08:39:44.843Z</time></trkpt><trkpt lat="45.0669836" lon="7.8420513"><ele>296.0</ele><time>2026-04-10T08:39:46.845Z</time></trkpt><trkpt lat="45.0669793" lon="7.8422045"><ele>296.0</ele><time>2026-04-10T08:39:48.844Z</time></trkpt><trkpt lat="45.0669857" lon="7.8423487"><ele>296.0</ele><time>2026-04-10T08:39:50.844Z</time></trkpt><trkpt lat="45.0669966" lon="7.8425112"><ele>296.0</ele><time>2026-04-10T08:39:52.843Z</time></trkpt><trkpt lat="45.0670046" lon="7.8426636"><ele>296.0</ele><time>2026-04-10T08:39:54.845Z</time></trkpt><trkpt lat="45.0670076" lon="7.8428152"><ele>296.40000000000003</ele><time>2026-04-10T08:39:56.844Z</time></trkpt><trkpt lat="45.0670166" lon="7.8429644"><ele>296.8</ele><time>2026-04-10T08:39:58.843Z</time></trkpt><trkpt lat="45.0670167" lon="7.8431137"><ele>297.20000000000005</ele><time>2026-04-10T08:40:00.845Z</time></trkpt><trkpt lat="45.0670276" lon="7.8432544"><ele>297.6</ele><time>2026-04-10T08:40:02.844Z</time></trkpt><trkpt lat="45.0670274" lon="7.8433762"><ele>298.0</ele><time>2026-04-10T08:40:04.845Z</time></trkpt><trkpt lat="45.067032" lon="7.8434702"><ele>298.16666666666663</ele><time>2026-04-10T08:40:07.844Z</time></trkpt><trkpt lat="45.0670624" lon="7.8435597"><ele>298.3333333333333</ele><time>2026-04-10T08:41:59.844Z</time></trkpt><trkpt lat="45.0670477" lon="7.8436775"><ele>298.5</ele><time>2026-04-10T08:42:03.844Z</time></trkpt><trkpt lat="45.0670507" lon="7.8437962"><ele>298.6666666666667</ele><time>2026-04-10T08:42:06.845Z</time></trkpt><trkpt lat="45.0670586" lon="7.8438876"><ele>298.83333333333337</ele><time>2026-04-10T08:42:08.845Z</time></trkpt><trkpt lat="45.0670688" lon="7.8440093"><ele>299.0</ele><time>2026-04-10T08:42:11.845Z</time></trkpt><trkpt lat="45.0670654" lon="7.844117"><ele>299.0</ele><time>2026-04-10T08:42:14.845Z</time></trkpt><trkpt lat="45.0670785" lon="7.844207"><ele>299.0</ele><time>2026-04-10T08:42:17.844Z</time></trkpt><trkpt lat="45.0670887" lon="7.8443016"><ele>299.0</ele><time>2026-04-10T08:42:21.846Z</time></trkpt><trkpt lat="45.0670993" lon="7.8443895"><ele>299.0</ele><time>2026-04-10T08:42:24.844Z</time></trkpt><trkpt lat="45.0671129" lon="7.8445055"><ele>299.0</ele><time>2026-04-10T08:42:28.843Z</time></trkpt><trkpt lat="45.0671102" lon="7.8445947"><ele>299.0</ele><time>2026-04-10T08:42:31.845Z</time></trkpt><trkpt lat="45.0671134" lon="7.8446846"><ele>299.0</ele><time>2026-04-10T08:42:34.844Z</time></trkpt><trkpt lat="45.0670691" lon="7.8447737"><ele>300.42857142857144</ele><time>2026-04-10T08:42:38.845Z</time></trkpt><trkpt lat="45.0670061" lon="7.8448212"><ele>301.8571428571429</ele><time>2026-04-10T08:42:41.845Z</time></trkpt><trkpt lat="45.0669539" lon="7.844882"><ele>303.28571428571433</ele><time>2026-04-10T08:42:44.845Z</time></trkpt><trkpt lat="45.0669024" lon="7.84494"><ele>304.7142857142857</ele><time>2026-04-10T08:42:47.845Z</time></trkpt><trkpt lat="45.0668492" lon="7.844988"><ele>306.14285714285717</ele><time>2026-04-10T08:42:50.844Z</time></trkpt><trkpt lat="45.0667899" lon="7.8450396"><ele>307.5714285714286</ele><time>2026-04-10T08:42:53.845Z</time></trkpt><trkpt lat="45.066733" lon="7.845095"><ele>309.0</ele><time>2026-04-10T08:42:56.844Z</time></trkpt><trkpt lat="45.066681" lon="7.8451496"><ele>310.5714285714286</ele><time>2026-04-10T08:42:59.845Z</time></trkpt><trkpt lat="45.0666225" lon="7.8452067"><ele>312.14285714285717</ele><time>2026-04-10T08:43:02.844Z</time></trkpt><trkpt lat="45.0665692" lon="7.8452704"><ele>313.7142857142857</ele><time>2026-04-10T08:43:05.845Z</time></trkpt><trkpt lat="45.0665119" lon="7.8453309"><ele>315.28571428571433</ele><time>2026-04-10T08:43:08.846Z</time></trkpt><trkpt lat="45.0664627" lon="7.8453882"><ele>316.8571428571429</ele><time>2026-04-10T08:43:11.844Z</time></trkpt><trkpt lat="45.0664086" lon="7.8454415"><ele>318.42857142857144</ele><time>2026-04-10T08:43:14.845Z</time></trkpt><trkpt lat="45.0663498" lon="7.8454948"><ele>320.0</ele><time>2026-04-10T08:43:17.845Z</time></trkpt><trkpt lat="45.0662959" lon="7.8455556"><ele>320.0</ele><time>2026-04-10T08:43:20.845Z</time></trkpt><trkpt lat="45.0662396" lon="7.8456156"><ele>320.0</ele><time>2026-04-10T08:43:23.845Z</time></trkpt><trkpt lat="45.0661842" lon="7.8456715"><ele>320.0</ele><time>2026-04-10T08:43:26.845Z</time></trkpt><trkpt lat="45.0661282" lon="7.8457209"><ele>320.0</ele><time>2026-04-10T08:43:29.845Z</time></trkpt><trkpt lat="45.0660693" lon="7.8457807"><ele>320.0</ele><time>2026-04-10T08:43:32.845Z</time></trkpt><trkpt lat="45.0660089" lon="7.8458306"><ele>320.0</ele><time>2026-04-10T08:43:35.844Z</time></trkpt><trkpt lat="45.0659524" lon="7.8458915"><ele>320.0</ele><time>2026-04-10T08:43:38.844Z</time></trkpt><trkpt lat="45.0658937" lon="7.8459561"><ele>321.0</ele><time>2026-04-10T08:43:41.845Z</time></trkpt><trkpt lat="45.0658306" lon="7.8460123"><ele>322.0</ele><time>2026-04-10T08:43:44.845Z</time></trkpt><trkpt lat="45.0657659" lon="7.8460731"><ele>323.0</ele><time>2026-04-10T08:43:47.845Z</time></trkpt><trkpt lat="45.0657055" lon="7.8461242"><ele>324.0</ele><time>2026-04-10T08:43:50.844Z</time></trkpt><trkpt lat="45.0656487" lon="7.8461884"><ele>325.0</ele><time>2026-04-10T08:43:53.843Z</time></trkpt><trkpt lat="45.0655837" lon="7.846243"><ele>326.0</ele><time>2026-04-10T08:43:56.844Z</time></trkpt><trkpt lat="45.0655248" lon="7.8463005"><ele>327.0</ele><time>2026-04-10T08:43:59.845Z</time></trkpt><trkpt lat="45.0654658" lon="7.8463603"><ele>327.0</ele><time>2026-04-10T08:44:02.845Z</time></trkpt><trkpt lat="45.0654039" lon="7.8464193"><ele>327.0</ele><time>2026-04-10T08:44:05.844Z</time></trkpt><trkpt lat="45.0653434" lon="7.8464735"><ele>327.0</ele><time>2026-04-10T08:44:08.845Z</time></trkpt><trkpt lat="45.0652891" lon="7.8465322"><ele>327.0</ele><time>2026-04-10T08:44:11.845Z</time></trkpt><trkpt lat="45.0652284" lon="7.8465884"><ele>327.0</ele><time>2026-04-10T08:44:14.845Z</time></trkpt><trkpt lat="45.0651654" lon="7.8466497"><ele>327.0</ele><time>2026-04-10T08:44:17.846Z</time></trkpt><trkpt lat="45.0651054" lon="7.8467158"><ele>327.0</ele><time>2026-04-10T08:44:20.846Z</time></trkpt><trkpt lat="45.0650456" lon="7.8467735"><ele>326.5</ele><time>2026-04-10T08:44:23.845Z</time></trkpt><trkpt lat="45.0649844" lon="7.8468452"><ele>326.0</ele><time>2026-04-10T08:44:26.845Z</time></trkpt><trkpt lat="45.0649166" lon="7.8469148"><ele>325.5</ele><time>2026-04-10T08:44:29.845Z</time></trkpt><trkpt lat="45.0648495" lon="7.8469871"><ele>325.0</ele><time>2026-04-10T08:44:32.845Z</time></trkpt><trkpt lat="45.0647989" lon="7.8470864"><ele>324.5</ele><time>2026-04-10T08:44:35.844Z</time></trkpt><trkpt lat="45.0647632" lon="7.8472006"><ele>324.0</ele><time>2026-04-10T08:44:38.845Z</time></trkpt><trkpt lat="45.0647408" lon="7.8473212"><ele>324.0</ele><time>2026-04-10T08:44:41.844Z</time></trkpt><trkpt lat="45.0647187" lon="7.8474501"><ele>324.0</ele><time>2026-04-10T08:44:44.845Z</time></trkpt><trkpt lat="45.0647057" lon="7.8475434"><ele>324.0</ele><time>2026-04-10T08:44:46.845Z</time></trkpt><trkpt lat="45.0646924" lon="7.8476342"><ele>324.0</ele><time>2026-04-10T08:44:48.844Z</time></trkpt><trkpt lat="45.0646769" lon="7.847722"><ele>324.0</ele><time>2026-04-10T08:44:50.845Z</time></trkpt><trkpt lat="45.0646421" lon="7.847845"><ele>324.0</ele><time>2026-04-10T08:44:53.844Z</time></trkpt><trkpt lat="45.0646178" lon="7.8479326"><ele>326.0</ele><time>2026-04-10T08:44:55.844Z</time></trkpt><trkpt lat="45.0645912" lon="7.848016"><ele>328.0</ele><time>2026-04-10T08:44:57.844Z</time></trkpt><trkpt lat="45.0645609" lon="7.8480969"><ele>330.0</ele><time>2026-04-10T08:44:59.846Z</time></trkpt><trkpt lat="45.0645239" lon="7.8481746"><ele>332.0</ele><time>2026-04-10T08:45:01.846Z</time></trkpt><trkpt lat="45.0644852" lon="7.8482498"><ele>334.0</ele><time>2026-04-10T08:45:03.845Z</time></trkpt><trkpt lat="45.0644497" lon="7.8483245"><ele>336.0</ele><time>2026-04-10T08:45:05.844Z</time></trkpt><trkpt lat="45.0644168" lon="7.8484035"><ele>338.0</ele><time>2026-04-10T08:45:07.844Z</time></trkpt><trkpt lat="45.0643793" lon="7.8484796"><ele>339.8571428571429</ele><time>2026-04-10T08:45:09.845Z</time></trkpt><trkpt lat="45.0643428" lon="7.8485569"><ele>341.7142857142857</ele><time>2026-04-10T08:45:11.845Z</time></trkpt><trkpt lat="45.0643096" lon="7.8486413"><ele>343.57142857142856</ele><time>2026-04-10T08:45:13.846Z</time></trkpt><trkpt lat="45.0642784" lon="7.8487284"><ele>345.42857142857144</ele><time>2026-04-10T08:45:15.844Z</time></trkpt><trkpt lat="45.0642501" lon="7.8488129"><ele>347.2857142857143</ele><time>2026-04-10T08:45:17.844Z</time></trkpt><trkpt lat="45.0642356" lon="7.8489077"><ele>349.14285714285717</ele><time>2026-04-10T08:45:19.846Z</time></trkpt><trkpt lat="45.0642246" lon="7.8489994"><ele>351.0</ele><time>2026-04-10T08:45:21.844Z</time></trkpt><trkpt lat="45.06421" lon="7.8491316"><ele>351.0</ele><time>2026-04-10T08:45:24.844Z</time></trkpt><trkpt lat="45.0642012" lon="7.8492613"><ele>351.0</ele><time>2026-04-10T08:45:27.845Z</time></trkpt><trkpt lat="45.0642017" lon="7.84939"><ele>351.0</ele><time>2026-04-10T08:45:30.844Z</time></trkpt><trkpt lat="45.0642135" lon="7.8495169"><ele>351.0</ele><time>2026-04-10T08:45:33.844Z</time></trkpt><trkpt lat="45.0642541" lon="7.8496249"><ele>351.0</ele><time>2026-04-10T08:45:36.844Z</time></trkpt><trkpt lat="45.0643196" lon="7.8497138"><ele>351.6666666666667</ele><time>2026-04-10T08:45:39.844Z</time></trkpt><trkpt lat="45.0643853" lon="7.8497853"><ele>352.3333333333333</ele><time>2026-04-10T08:45:42.844Z</time></trkpt><trkpt lat="45.0643506" lon="7.8498627"><ele>353.0</ele><time>2026-04-10T08:45:48.844Z</time></trkpt><trkpt lat="45.0642777" lon="7.8498165"><ele>353.66666666666663</ele><time>2026-04-10T08:45:51.845Z</time></trkpt><trkpt lat="45.0641985" lon="7.8497798"><ele>354.3333333333333</ele><time>2026-04-10T08:45:54.844Z</time></trkpt><trkpt lat="45.0641222" lon="7.8497498"><ele>355.0</ele><time>2026-04-10T08:45:57.844Z</time></trkpt><trkpt lat="45.0640444" lon="7.8497121"><ele>356.3333333333333</ele><time>2026-04-10T08:46:00.846Z</time></trkpt><trkpt lat="45.0639656" lon="7.849666"><ele>357.66666666666663</ele><time>2026-04-10T08:46:03.844Z</time></trkpt><trkpt lat="45.0638863" lon="7.8496305"><ele>359.0</ele><time>2026-04-10T08:46:06.845Z</time></trkpt><trkpt lat="45.0637904" lon="7.8496292"><ele>360.3333333333333</ele><time>2026-04-10T08:46:09.844Z</time></trkpt><trkpt lat="45.063727" lon="7.8496461"><ele>361.6666666666667</ele><time>2026-04-10T08:46:11.845Z</time></trkpt><trkpt lat="45.0636653" lon="7.8496648"><ele>363.0</ele><time>2026-04-10T08:46:13.845Z</time></trkpt><trkpt lat="45.0635988" lon="7.8496843"><ele>362.99999999999994</ele><time>2026-04-10T08:46:15.845Z</time></trkpt><trkpt lat="45.0635308" lon="7.8497137"><ele>363.0</ele><time>2026-04-10T08:46:17.846Z</time></trkpt><trkpt lat="45.0634586" lon="7.8497345"><ele>363.0</ele><time>2026-04-10T08:46:19.845Z</time></trkpt><trkpt lat="45.0633932" lon="7.8497569"><ele>363.0</ele><time>2026-04-10T08:46:21.844Z</time></trkpt><trkpt lat="45.0633171" lon="7.84979"><ele>363.0</ele><time>2026-04-10T08:46:24.846Z</time></trkpt><trkpt lat="45.0632589" lon="7.8498521"><ele>362.99999999999994</ele><time>2026-04-10T08:46:27.846Z</time></trkpt><trkpt lat="45.0632054" lon="7.849915"><ele>363.0</ele><time>2026-04-10T08:46:30.846Z</time></trkpt><trkpt lat="45.0631571" lon="7.8499815"><ele>363.1666666666667</ele><time>2026-04-10T08:46:33.845Z</time></trkpt><trkpt lat="45.0630911" lon="7.8500494"><ele>363.3333333333333</ele><time>2026-04-10T08:46:36.846Z</time></trkpt><trkpt lat="45.0630423" lon="7.8501378"><ele>363.5</ele><time>2026-04-10T08:46:39.844Z</time></trkpt><trkpt lat="45.0630027" lon="7.8502497"><ele>363.66666666666663</ele><time>2026-04-10T08:46:43.845Z</time></trkpt><trkpt lat="45.0629398" lon="7.8503337"><ele>363.8333333333333</ele><time>2026-04-10T08:46:46.846Z</time></trkpt><trkpt lat="45.0628769" lon="7.8503896"><ele>364.0</ele><time>2026-04-10T08:46:49.844Z</time></trkpt><trkpt lat="45.0628146" lon="7.8504436"><ele>364.0</ele><time>2026-04-10T08:46:52.845Z</time></trkpt><trkpt lat="45.0627533" lon="7.8505392"><ele>364.0</ele><time>2026-04-10T08:46:55.845Z</time></trkpt><trkpt lat="45.0626967" lon="7.8506304"><ele>364.0</ele><time>2026-04-10T08:46:57.845Z</time></trkpt><trkpt lat="45.0626332" lon="7.8507047"><ele>364.0</ele><time>2026-04-10T08:46:59.845Z</time></trkpt><trkpt lat="45.0625712" lon="7.8507928"><ele>364.0</ele><time>2026-04-10T08:47:01.845Z</time></trkpt><trkpt lat="45.0625064" lon="7.8508667"><ele>364.0</ele><time>2026-04-10T08:47:03.844Z</time></trkpt><trkpt lat="45.0624551" lon="7.8509586"><ele>363.85714285714283</ele><time>2026-04-10T08:47:05.844Z</time></trkpt><trkpt lat="45.0624034" lon="7.8510482"><ele>363.7142857142857</ele><time>2026-04-10T08:47:07.846Z</time></trkpt><trkpt lat="45.0623498" lon="7.8511263"><ele>363.57142857142856</ele><time>2026-04-10T08:47:09.845Z</time></trkpt><trkpt lat="45.0623039" lon="7.8511944"><ele>363.42857142857144</ele><time>2026-04-10T08:47:11.845Z</time></trkpt><trkpt lat="45.0622546" lon="7.8512706"><ele>363.2857142857143</ele><time>2026-04-10T08:47:13.844Z</time></trkpt><trkpt lat="45.0622003" lon="7.851328"><ele>363.1428571428571</ele><time>2026-04-10T08:47:15.846Z</time></trkpt><trkpt lat="45.0621318" lon="7.8513651"><ele>363.0</ele><time>2026-04-10T08:47:17.845Z</time></trkpt><trkpt lat="45.0620377" lon="7.8514377"><ele>363.0</ele><time>2026-04-10T08:47:20.845Z</time></trkpt><trkpt lat="45.0619623" lon="7.8515165"><ele>363.0</ele><time>2026-04-10T08:47:22.845Z</time></trkpt><trkpt lat="45.0618614" lon="7.8516335"><ele>363.0</ele><time>2026-04-10T08:47:25.845Z</time></trkpt><trkpt lat="45.0617865" lon="7.8517203"><ele>363.0</ele><time>2026-04-10T08:47:27.844Z</time></trkpt><trkpt lat="45.0617174" lon="7.8518326"><ele>363.0</ele><time>2026-04-10T08:47:29.846Z</time></trkpt><trkpt lat="45.0616338" lon="7.8519752"><ele>361.5</ele><time>2026-04-10T08:47:31.845Z</time></trkpt><trkpt lat="45.0615391" lon="7.8520815"><ele>360.0</ele><time>2026-04-10T08:47:33.846Z</time></trkpt><trkpt lat="45.0615031" lon="7.8521658"><ele>358.5</ele><time>2026-04-10T08:47:34.845Z</time></trkpt><trkpt lat="45.0614536" lon="7.8522334"><ele>357.0</ele><time>2026-04-10T08:47:35.844Z</time></trkpt><trkpt lat="45.0614036" lon="7.8523004"><ele>355.5</ele><time>2026-04-10T08:47:36.844Z</time></trkpt><trkpt lat="45.0613485" lon="7.8523721"><ele>354.0</ele><time>2026-04-10T08:47:37.846Z</time></trkpt><trkpt lat="45.061296" lon="7.8524367"><ele>354.0</ele><time>2026-04-10T08:47:38.844Z</time></trkpt><trkpt lat="45.0612303" lon="7.8524972"><ele>354.0</ele><time>2026-04-10T08:47:39.846Z</time></trkpt><trkpt lat="45.0611572" lon="7.8525553"><ele>354.0</ele><time>2026-04-10T08:47:40.844Z</time></trkpt><trkpt lat="45.0611026" lon="7.8526293"><ele>354.0</ele><time>2026-04-10T08:47:41.845Z</time></trkpt><trkpt lat="45.0610336" lon="7.8526895"><ele>354.0</ele><time>2026-04-10T08:47:42.844Z</time></trkpt><trkpt lat="45.0609715" lon="7.8527643"><ele>354.0</ele><time>2026-04-10T08:47:43.845Z</time></trkpt><trkpt lat="45.0609057" lon="7.8528326"><ele>353.3333333333333</ele><time>2026-04-10T08:47:44.845Z</time></trkpt><trkpt lat="45.0608412" lon="7.8529028"><ele>352.6666666666667</ele><time>2026-04-10T08:47:45.845Z</time></trkpt><trkpt lat="45.0607745" lon="7.8529806"><ele>352.0</ele><time>2026-04-10T08:47:46.845Z</time></trkpt><trkpt lat="45.0607106" lon="7.8530548"><ele>351.33333333333337</ele><time>2026-04-10T08:47:47.844Z</time></trkpt><trkpt lat="45.0606455" lon="7.8531172"><ele>350.6666666666667</ele><time>2026-04-10T08:47:48.846Z</time></trkpt><trkpt lat="45.0605859" lon="7.8531785"><ele>350.0</ele><time>2026-04-10T08:47:49.845Z</time></trkpt><trkpt lat="45.0605332" lon="7.853246"><ele>349.83333333333337</ele><time>2026-04-10T08:47:50.845Z</time></trkpt><trkpt lat="45.0604851" lon="7.8533096"><ele>349.6666666666667</ele><time>2026-04-10T08:47:51.846Z</time></trkpt><trkpt lat="45.060434" lon="7.8533734"><ele>349.5</ele><time>2026-04-10T08:47:52.845Z</time></trkpt><trkpt lat="45.0603785" lon="7.8534321"><ele>349.3333333333333</ele><time>2026-04-10T08:47:53.845Z</time></trkpt><trkpt lat="45.0602831" lon="7.8535101"><ele>349.16666666666663</ele><time>2026-04-10T08:47:55.846Z</time></trkpt><trkpt lat="45.0601803" lon="7.8535585"><ele>349.0</ele><time>2026-04-10T08:47:57.845Z</time></trkpt><trkpt lat="45.0600629" lon="7.8535941"><ele>348.8333333333333</ele><time>2026-04-10T08:47:59.845Z</time></trkpt><trkpt lat="45.0599969" lon="7.8536181"><ele>348.66666666666663</ele><time>2026-04-10T08:48:00.845Z</time></trkpt><trkpt lat="45.0599293" lon="7.853637"><ele>348.5</ele><time>2026-04-10T08:48:01.845Z</time></trkpt><trkpt lat="45.0598588" lon="7.8536598"><ele>348.3333333333333</ele><time>2026-04-10T08:48:02.844Z</time></trkpt><trkpt lat="45.0597844" lon="7.8536858"><ele>348.1666666666667</ele><time>2026-04-10T08:48:03.844Z</time></trkpt><trkpt lat="45.0597121" lon="7.8537122"><ele>348.0</ele><time>2026-04-10T08:48:04.845Z</time></trkpt><trkpt lat="45.0595691" lon="7.8537662"><ele>348.0</ele><time>2026-04-10T08:48:06.845Z</time></trkpt><trkpt lat="45.0594982" lon="7.8537973"><ele>348.0</ele><time>2026-04-10T08:48:07.844Z</time></trkpt><trkpt lat="45.0594261" lon="7.8538345"><ele>348.0</ele><time>2026-04-10T08:48:08.846Z</time></trkpt><trkpt lat="45.0593573" lon="7.8538783"><ele>348.0</ele><time>2026-04-10T08:48:09.845Z</time></trkpt><trkpt lat="45.0592974" lon="7.8539413"><ele>348.0</ele><time>2026-04-10T08:48:10.845Z</time></trkpt><trkpt lat="45.05922" lon="7.8539794"><ele>348.0</ele><time>2026-04-10T08:48:11.846Z</time></trkpt><trkpt lat="45.0591503" lon="7.8540338"><ele>346.3333333333333</ele><time>2026-04-10T08:48:12.845Z</time></trkpt><trkpt lat="45.0590797" lon="7.8540878"><ele>344.6666666666667</ele><time>2026-04-10T08:48:13.845Z</time></trkpt><trkpt lat="45.0590118" lon="7.8541498"><ele>343.0</ele><time>2026-04-10T08:48:14.845Z</time></trkpt><trkpt lat="45.058947" lon="7.8542332"><ele>341.33333333333337</ele><time>2026-04-10T08:48:15.844Z</time></trkpt><trkpt lat="45.0588738" lon="7.8543062"><ele>339.6666666666667</ele><time>2026-04-10T08:48:16.845Z</time></trkpt><trkpt lat="45.0588035" lon="7.8543668"><ele>338.0</ele><time>2026-04-10T08:48:17.845Z</time></trkpt><trkpt lat="45.0587368" lon="7.8544698"><ele>338.0</ele><time>2026-04-10T08:48:18.846Z</time></trkpt><trkpt lat="45.0586732" lon="7.8545697"><ele>338.0</ele><time>2026-04-10T08:48:19.844Z</time></trkpt><trkpt lat="45.0586148" lon="7.8546702"><ele>338.0</ele><time>2026-04-10T08:48:20.844Z</time></trkpt><trkpt lat="45.0585741" lon="7.854789"><ele>338.0</ele><time>2026-04-10T08:48:21.845Z</time></trkpt><trkpt lat="45.0585283" lon="7.8548854"><ele>338.0</ele><time>2026-04-10T08:48:22.846Z</time></trkpt><trkpt lat="45.0584739" lon="7.8551163"><ele>338.33333333333337</ele><time>2026-04-10T08:48:24.844Z</time></trkpt><trkpt lat="45.0584554" lon="7.8552479"><ele>338.6666666666667</ele><time>2026-04-10T08:48:25.845Z</time></trkpt><trkpt lat="45.0584035" lon="7.8553443"><ele>339.0</ele><time>2026-04-10T08:48:26.845Z</time></trkpt><trkpt lat="45.0583833" lon="7.8554375"><ele>339.3333333333333</ele><time>2026-04-10T08:48:27.845Z</time></trkpt><trkpt lat="45.0583638" lon="7.8555274"><ele>339.66666666666663</ele><time>2026-04-10T08:48:28.844Z</time></trkpt><trkpt lat="45.058318" lon="7.8556878"><ele>340.0</ele><time>2026-04-10T08:48:30.846Z</time></trkpt><trkpt lat="45.0582805" lon="7.855764"><ele>338.4</ele><time>2026-04-10T08:48:31.844Z</time></trkpt><trkpt lat="45.058233" lon="7.8558362"><ele>336.8</ele><time>2026-04-10T08:48:32.845Z</time></trkpt><trkpt lat="45.0581772" lon="7.8558898"><ele>335.20000000000005</ele><time>2026-04-10T08:48:33.846Z</time></trkpt><trkpt lat="45.0580702" lon="7.8559867"><ele>333.6</ele><time>2026-04-10T08:48:35.847Z</time></trkpt><trkpt lat="45.057954" lon="7.8560692"><ele>332.0</ele><time>2026-04-10T08:48:37.846Z</time></trkpt><trkpt lat="45.0578913" lon="7.8561063"><ele>332.0</ele><time>2026-04-10T08:48:38.845Z</time></trkpt><trkpt lat="45.0578334" lon="7.8561498"><ele>332.0</ele><time>2026-04-10T08:48:39.844Z</time></trkpt><trkpt lat="45.0577692" lon="7.856181"><ele>332.0</ele><time>2026-04-10T08:48:40.845Z</time></trkpt><trkpt lat="45.0577006" lon="7.8562139"><ele>332.0</ele><time>2026-04-10T08:48:41.844Z</time></trkpt><trkpt lat="45.0576325" lon="7.8562433"><ele>332.0</ele><time>2026-04-10T08:48:42.845Z</time></trkpt><trkpt lat="45.0575671" lon="7.8562845"><ele>332.0</ele><time>2026-04-10T08:48:43.845Z</time></trkpt><trkpt lat="45.057494" lon="7.8563226"><ele>332.0</ele><time>2026-04-10T08:48:44.845Z</time></trkpt><trkpt lat="45.0574174" lon="7.856364"><ele>332.1428571428571</ele><time>2026-04-10T08:48:45.844Z</time></trkpt><trkpt lat="45.0573454" lon="7.8564068"><ele>332.28571428571433</ele><time>2026-04-10T08:48:46.845Z</time></trkpt><trkpt lat="45.0572688" lon="7.8564484"><ele>332.42857142857144</ele><time>2026-04-10T08:48:47.844Z</time></trkpt><trkpt lat="45.0571994" lon="7.8564905"><ele>332.57142857142856</ele><time>2026-04-10T08:48:48.845Z</time></trkpt><trkpt lat="45.057139" lon="7.856537"><ele>332.71428571428567</ele><time>2026-04-10T08:48:49.846Z</time></trkpt><trkpt lat="45.0570756" lon="7.8565758"><ele>332.8571428571429</ele><time>2026-04-10T08:48:50.845Z</time></trkpt><trkpt lat="45.0570102" lon="7.8566183"><ele>333.0</ele><time>2026-04-10T08:48:51.844Z</time></trkpt><trkpt lat="45.0569515" lon="7.856656"><ele>333.0</ele><time>2026-04-10T08:48:52.845Z</time></trkpt><trkpt lat="45.0568847" lon="7.8566911"><ele>333.0</ele><time>2026-04-10T08:48:53.845Z</time></trkpt><trkpt lat="45.0567666" lon="7.8567594"><ele>333.0</ele><time>2026-04-10T08:48:55.845Z</time></trkpt><trkpt lat="45.0566545" lon="7.8568253"><ele>333.0</ele><time>2026-04-10T08:48:57.844Z</time></trkpt><trkpt lat="45.0565444" lon="7.8569124"><ele>333.0</ele><time>2026-04-10T08:48:59.846Z</time></trkpt><trkpt lat="45.0564415" lon="7.8570036"><ele>333.0</ele><time>2026-04-10T08:49:01.845Z</time></trkpt><trkpt lat="45.0563534" lon="7.8571197"><ele>333.0</ele><time>2026-04-10T08:49:03.845Z</time></trkpt><trkpt lat="45.0562649" lon="7.8572345"><ele>333.0</ele><time>2026-04-10T08:49:05.845Z</time></trkpt><trkpt lat="45.0561724" lon="7.8573345"><ele>333.0</ele><time>2026-04-10T08:49:07.845Z</time></trkpt><trkpt lat="45.0560766" lon="7.8574279"><ele>333.0</ele><time>2026-04-10T08:49:09.844Z</time></trkpt><trkpt lat="45.055936" lon="7.8575429"><ele>333.0</ele><time>2026-04-10T08:49:12.846Z</time></trkpt><trkpt lat="45.0558317" lon="7.8576085"><ele>333.0</ele><time>2026-04-10T08:49:14.845Z</time></trkpt><trkpt lat="45.0557724" lon="7.8576423"><ele>333.0</ele><time>2026-04-10T08:49:15.844Z</time></trkpt><trkpt lat="45.055666" lon="7.8577207"><ele>334.75</ele><time>2026-04-10T08:49:17.844Z</time></trkpt><trkpt lat="45.05561" lon="7.8577627"><ele>336.5</ele><time>2026-04-10T08:49:18.846Z</time></trkpt><trkpt lat="45.0555038" lon="7.857833"><ele>338.25</ele><time>2026-04-10T08:49:20.844Z</time></trkpt><trkpt lat="45.055352" lon="7.8579569"><ele>340.0</ele><time>2026-04-10T08:49:23.844Z</time></trkpt><trkpt lat="45.0552482" lon="7.8580193"><ele>340.0</ele><time>2026-04-10T08:49:25.846Z</time></trkpt><trkpt lat="45.0551604" lon="7.8580248"><ele>340.0</ele><time>2026-04-10T08:49:27.845Z</time></trkpt><trkpt lat="45.0550878" lon="7.85801"><ele>340.0</ele><time>2026-04-10T08:49:29.846Z</time></trkpt><trkpt lat="45.0549985" lon="7.8580003"><ele>340.0</ele><time>2026-04-10T08:49:32.845Z</time></trkpt><trkpt lat="45.0549205" lon="7.8579938"><ele>340.0</ele><time>2026-04-10T08:49:34.845Z</time></trkpt><trkpt lat="45.0548132" lon="7.8579673"><ele>340.0</ele><time>2026-04-10T08:49:37.844Z</time></trkpt><trkpt lat="45.0547351" lon="7.857962"><ele>340.7142857142857</ele><time>2026-04-10T08:49:39.845Z</time></trkpt><trkpt lat="45.0546628" lon="7.8579777"><ele>341.4285714285714</ele><time>2026-04-10T08:49:41.845Z</time></trkpt><trkpt lat="45.0545975" lon="7.8580216"><ele>342.1428571428571</ele><time>2026-04-10T08:49:43.845Z</time></trkpt><trkpt lat="45.0545495" lon="7.8580898"><ele>342.8571428571429</ele><time>2026-04-10T08:49:45.845Z</time></trkpt><trkpt lat="45.0545281" lon="7.8581797"><ele>343.57142857142856</ele><time>2026-04-10T08:49:47.844Z</time></trkpt><trkpt lat="45.0545218" lon="7.8583086"><ele>344.2857142857143</ele><time>2026-04-10T08:49:50.845Z</time></trkpt><trkpt lat="45.0545171" lon="7.8583987"><ele>345.0</ele><time>2026-04-10T08:49:52.845Z</time></trkpt><trkpt lat="45.0544944" lon="7.8585266"><ele>345.0</ele><time>2026-04-10T08:49:55.845Z</time></trkpt><trkpt lat="45.0544554" lon="7.8586441"><ele>345.0</ele><time>2026-04-10T08:49:58.846Z</time></trkpt><trkpt lat="45.0544121" lon="7.8587108"><ele>345.0</ele><time>2026-04-10T08:50:00.845Z</time></trkpt><trkpt lat="45.0543563" lon="7.8587531"><ele>345.0</ele><time>2026-04-10T08:50:02.846Z</time></trkpt><trkpt lat="45.0542965" lon="7.8587815"><ele>345.0</ele><time>2026-04-10T08:50:04.844Z</time></trkpt><trkpt lat="45.0542308" lon="7.8587985"><ele>345.0</ele><time>2026-04-10T08:50:06.846Z</time></trkpt><trkpt lat="45.0541619" lon="7.858811"><ele>345.0</ele><time>2026-04-10T08:50:08.846Z</time></trkpt><trkpt lat="45.0540959" lon="7.858832"><ele>346.3333333333333</ele><time>2026-04-10T08:50:10.847Z</time></trkpt><trkpt lat="45.0540033" lon="7.8588683"><ele>347.6666666666667</ele><time>2026-04-10T08:50:13.844Z</time></trkpt><trkpt lat="45.0539173" lon="7.8589066"><ele>349.0</ele><time>2026-04-10T08:50:16.845Z</time></trkpt><trkpt lat="45.0538375" lon="7.8589462"><ele>350.33333333333337</ele><time>2026-04-10T08:50:19.845Z</time></trkpt><trkpt lat="45.0537749" lon="7.8589972"><ele>351.6666666666667</ele><time>2026-04-10T08:50:22.845Z</time></trkpt><trkpt lat="45.0536932" lon="7.8590766"><ele>353.0</ele><time>2026-04-10T08:50:25.846Z</time></trkpt><trkpt lat="45.0536305" lon="7.8591461"><ele>353.0</ele><time>2026-04-10T08:50:27.845Z</time></trkpt><trkpt lat="45.0535609" lon="7.8592251"><ele>353.0</ele><time>2026-04-10T08:50:29.845Z</time></trkpt><trkpt lat="45.0534884" lon="7.8593003"><ele>353.0</ele><time>2026-04-10T08:50:31.845Z</time></trkpt><trkpt lat="45.0533988" lon="7.8593802"><ele>353.0</ele><time>2026-04-10T08:50:33.846Z</time></trkpt><trkpt lat="45.0533061" lon="7.8594745"><ele>353.0</ele><time>2026-04-10T08:50:35.844Z</time></trkpt><trkpt lat="45.0532095" lon="7.8595761"><ele>353.0</ele><time>2026-04-10T08:50:37.846Z</time></trkpt><trkpt lat="45.0531345" lon="7.8596814"><ele>353.0</ele><time>2026-04-10T08:50:39.845Z</time></trkpt><trkpt lat="45.0530331" lon="7.8596872"><ele>353.0</ele><time>2026-04-10T08:50:41.845Z</time></trkpt><trkpt lat="45.0529618" lon="7.8596675"><ele>353.0</ele><time>2026-04-10T08:50:43.845Z</time></trkpt><trkpt lat="45.0528846" lon="7.8596311"><ele>353.0</ele><time>2026-04-10T08:50:45.845Z</time></trkpt><trkpt lat="45.0528106" lon="7.8596173"><ele>353.0</ele><time>2026-04-10T08:50:47.846Z</time></trkpt><trkpt lat="45.0527467" lon="7.8596057"><ele>353.0</ele><time>2026-04-10T08:50:49.845Z</time></trkpt><trkpt lat="45.052683" lon="7.8596039"><ele>353.0</ele><time>2026-04-10T08:50:51.845Z</time></trkpt><trkpt lat="45.052596" lon="7.8596419"><ele>353.0</ele><time>2026-04-10T08:50:54.844Z</time></trkpt><trkpt lat="45.0525311" lon="7.8597348"><ele>353.0</ele><time>2026-04-10T08:50:57.845Z</time></trkpt><trkpt lat="45.0524906" lon="7.8598132"><ele>353.0</ele><time>2026-04-10T08:50:59.845Z</time></trkpt><trkpt lat="45.0524454" lon="7.8599122"><ele>353.0</ele><time>2026-04-10T08:51:01.845Z</time></trkpt><trkpt lat="45.0523997" lon="7.8600164"><ele>354.0</ele><time>2026-04-10T08:51:03.844Z</time></trkpt><trkpt lat="45.0523578" lon="7.8601302"><ele>355.0</ele><time>2026-04-10T08:51:05.844Z</time></trkpt><trkpt lat="45.0523096" lon="7.8602486"><ele>356.0</ele><time>2026-04-10T08:51:07.845Z</time></trkpt><trkpt lat="45.0522707" lon="7.8603637"><ele>357.0</ele><time>2026-04-10T08:51:09.845Z</time></trkpt><trkpt lat="45.0522258" lon="7.8604612"><ele>358.0</ele><time>2026-04-10T08:51:11.844Z</time></trkpt><trkpt lat="45.0521997" lon="7.8605901"><ele>358.0</ele><time>2026-04-10T08:51:13.846Z</time></trkpt><trkpt lat="45.0521875" lon="7.8607522"><ele>358.0</ele><time>2026-04-10T08:51:15.844Z</time></trkpt><trkpt lat="45.0521721" lon="7.8609268"><ele>358.0</ele><time>2026-04-10T08:51:17.845Z</time></trkpt><trkpt lat="45.0521124" lon="7.8610627"><ele>358.0</ele><time>2026-04-10T08:51:19.845Z</time></trkpt><trkpt lat="45.0520514" lon="7.8611768"><ele>357.4</ele><time>2026-04-10T08:51:21.846Z</time></trkpt><trkpt lat="45.0519889" lon="7.8612591"><ele>356.79999999999995</ele><time>2026-04-10T08:51:23.844Z</time></trkpt><trkpt lat="45.0519267" lon="7.8613424"><ele>356.2</ele><time>2026-04-10T08:51:25.845Z</time></trkpt><trkpt lat="45.0518983" lon="7.861481"><ele>355.6</ele><time>2026-04-10T08:51:27.846Z</time></trkpt><trkpt lat="45.0518114" lon="7.8615718"><ele>355.0</ele><time>2026-04-10T08:51:29.845Z</time></trkpt><trkpt lat="45.0517517" lon="7.8616394"><ele>355.0</ele><time>2026-04-10T08:51:31.845Z</time></trkpt><trkpt lat="45.0516741" lon="7.8616513"><ele>355.0</ele><time>2026-04-10T08:51:33.846Z</time></trkpt><trkpt lat="45.0516058" lon="7.8616552"><ele>355.0</ele><time>2026-04-10T08:51:35.845Z</time></trkpt><trkpt lat="45.0515079" lon="7.8616623"><ele>355.0</ele><time>2026-04-10T08:51:37.844Z</time></trkpt><trkpt lat="45.0514109" lon="7.8616726"><ele>355.0</ele><time>2026-04-10T08:51:39.846Z</time></trkpt><trkpt lat="45.0513051" lon="7.8616721"><ele>355.0</ele><time>2026-04-10T08:51:41.845Z</time></trkpt><trkpt lat="45.0512358" lon="7.8616546"><ele>353.8333333333333</ele><time>2026-04-10T08:51:42.845Z</time></trkpt><trkpt lat="45.0511637" lon="7.8616327"><ele>352.66666666666663</ele><time>2026-04-10T08:51:43.846Z</time></trkpt><trkpt lat="45.0510951" lon="7.8616104"><ele>351.5</ele><time>2026-04-10T08:51:44.844Z</time></trkpt><trkpt lat="45.0510167" lon="7.861579"><ele>350.3333333333333</ele><time>2026-04-10T08:51:45.845Z</time></trkpt><trkpt lat="45.0509415" lon="7.8615494"><ele>349.1666666666667</ele><time>2026-04-10T08:51:46.846Z</time></trkpt><trkpt lat="45.0508654" lon="7.8615188"><ele>348.0</ele><time>2026-04-10T08:51:47.845Z</time></trkpt><trkpt lat="45.0507806" lon="7.8614741"><ele>347.0</ele><time>2026-04-10T08:51:48.845Z</time></trkpt><trkpt lat="45.0506923" lon="7.8614238"><ele>346.0</ele><time>2026-04-10T08:51:49.846Z</time></trkpt><trkpt lat="45.050599" lon="7.8613738"><ele>345.0</ele><time>2026-04-10T08:51:50.845Z</time></trkpt><trkpt lat="45.050521" lon="7.8613078"><ele>344.0</ele><time>2026-04-10T08:51:51.845Z</time></trkpt><trkpt lat="45.050453" lon="7.8612506"><ele>343.0</ele><time>2026-04-10T08:51:52.844Z</time></trkpt><trkpt lat="45.050376" lon="7.8612149"><ele>342.0</ele><time>2026-04-10T08:51:53.846Z</time></trkpt><trkpt lat="45.0502935" lon="7.8611818"><ele>342.0</ele><time>2026-04-10T08:51:54.846Z</time></trkpt><trkpt lat="45.0502077" lon="7.8611688"><ele>342.0</ele><time>2026-04-10T08:51:55.844Z</time></trkpt><trkpt lat="45.0501217" lon="7.8611746"><ele>342.0</ele><time>2026-04-10T08:51:56.846Z</time></trkpt><trkpt lat="45.0500484" lon="7.8612174"><ele>342.0</ele><time>2026-04-10T08:51:57.845Z</time></trkpt><trkpt lat="45.0499727" lon="7.8612746"><ele>342.0</ele><time>2026-04-10T08:51:58.847Z</time></trkpt><trkpt lat="45.049904" lon="7.8613427"><ele>342.0</ele><time>2026-04-10T08:51:59.847Z</time></trkpt><trkpt lat="45.0498358" lon="7.8614171"><ele>342.1666666666667</ele><time>2026-04-10T08:52:00.845Z</time></trkpt><trkpt lat="45.0497689" lon="7.8614909"><ele>342.3333333333333</ele><time>2026-04-10T08:52:01.845Z</time></trkpt><trkpt lat="45.0497012" lon="7.861557"><ele>342.5</ele><time>2026-04-10T08:52:02.845Z</time></trkpt><trkpt lat="45.0496286" lon="7.861616"><ele>342.66666666666663</ele><time>2026-04-10T08:52:03.845Z</time></trkpt><trkpt lat="45.0495494" lon="7.8616685"><ele>342.8333333333333</ele><time>2026-04-10T08:52:04.845Z</time></trkpt><trkpt lat="45.0494736" lon="7.8617239"><ele>343.0</ele><time>2026-04-10T08:52:05.845Z</time></trkpt><trkpt lat="45.0494039" lon="7.8617715"><ele>342.42857142857144</ele><time>2026-04-10T08:52:06.845Z</time></trkpt><trkpt lat="45.0493374" lon="7.8618211"><ele>341.8571428571429</ele><time>2026-04-10T08:52:07.845Z</time></trkpt><trkpt lat="45.0492759" lon="7.8618851"><ele>341.2857142857143</ele><time>2026-04-10T08:52:08.846Z</time></trkpt><trkpt lat="45.0492111" lon="7.8619336"><ele>340.7142857142857</ele><time>2026-04-10T08:52:09.845Z</time></trkpt><trkpt lat="45.0491525" lon="7.8619899"><ele>340.14285714285717</ele><time>2026-04-10T08:52:10.846Z</time></trkpt><trkpt lat="45.0490979" lon="7.8620457"><ele>339.57142857142856</ele><time>2026-04-10T08:52:11.845Z</time></trkpt><trkpt lat="45.0490464" lon="7.8620981"><ele>339.0</ele><time>2026-04-10T08:52:12.845Z</time></trkpt><trkpt lat="45.0489428" lon="7.8621974"><ele>339.0</ele><time>2026-04-10T08:52:14.844Z</time></trkpt><trkpt lat="45.0488518" lon="7.8623104"><ele>339.0</ele><time>2026-04-10T08:52:16.847Z</time></trkpt><trkpt lat="45.0488019" lon="7.8623681"><ele>339.0</ele><time>2026-04-10T08:52:17.845Z</time></trkpt><trkpt lat="45.0487331" lon="7.8624126"><ele>339.0</ele><time>2026-04-10T08:52:18.846Z</time></trkpt><trkpt lat="45.0486634" lon="7.8624489"><ele>339.0</ele><time>2026-04-10T08:52:19.845Z</time></trkpt><trkpt lat="45.0485919" lon="7.8624865"><ele>339.0</ele><time>2026-04-10T08:52:20.846Z</time></trkpt><trkpt lat="45.0485224" lon="7.8625226"><ele>339.0</ele><time>2026-04-10T08:52:21.844Z</time></trkpt><trkpt lat="45.0484502" lon="7.8625578"><ele>339.0</ele><time>2026-04-10T08:52:22.844Z</time></trkpt><trkpt lat="45.0483725" lon="7.8625914"><ele>339.0</ele><time>2026-04-10T08:52:23.846Z</time></trkpt><trkpt lat="45.0482908" lon="7.8626362"><ele>339.0</ele><time>2026-04-10T08:52:24.846Z</time></trkpt><trkpt lat="45.0482003" lon="7.8626713"><ele>339.0</ele><time>2026-04-10T08:52:25.845Z</time></trkpt><trkpt lat="45.0481117" lon="7.8627315"><ele>339.0</ele><time>2026-04-10T08:52:26.844Z</time></trkpt><trkpt lat="45.0480282" lon="7.8627907"><ele>338.0</ele><time>2026-04-10T08:52:27.846Z</time></trkpt><trkpt lat="45.047934" lon="7.8628344"><ele>337.0</ele><time>2026-04-10T08:52:28.844Z</time></trkpt><trkpt lat="45.0478506" lon="7.8628889"><ele>336.0</ele><time>2026-04-10T08:52:29.845Z</time></trkpt><trkpt lat="45.0477644" lon="7.8629323"><ele>335.0</ele><time>2026-04-10T08:52:30.845Z</time></trkpt><trkpt lat="45.0476901" lon="7.862991"><ele>334.0</ele><time>2026-04-10T08:52:31.845Z</time></trkpt><trkpt lat="45.0476175" lon="7.8630553"><ele>334.0</ele><time>2026-04-10T08:52:32.845Z</time></trkpt><trkpt lat="45.0475535" lon="7.8631254"><ele>334.0</ele><time>2026-04-10T08:52:33.845Z</time></trkpt><trkpt lat="45.0474986" lon="7.8631863"><ele>334.0</ele><time>2026-04-10T08:52:34.845Z</time></trkpt><trkpt lat="45.0474537" lon="7.8632531"><ele>334.0</ele><time>2026-04-10T08:52:35.847Z</time></trkpt><trkpt lat="45.0474036" lon="7.8633081"><ele>334.0</ele><time>2026-04-10T08:52:36.844Z</time></trkpt><trkpt lat="45.0473555" lon="7.8633768"><ele>334.0</ele><time>2026-04-10T08:52:37.845Z</time></trkpt><trkpt lat="45.0473155" lon="7.863446"><ele>334.0</ele><time>2026-04-10T08:52:38.844Z</time></trkpt><trkpt lat="45.0472781" lon="7.8635236"><ele>334.3333333333333</ele><time>2026-04-10T08:52:39.846Z</time></trkpt><trkpt lat="45.0472207" lon="7.8636813"><ele>334.66666666666663</ele><time>2026-04-10T08:52:41.846Z</time></trkpt><trkpt lat="45.0471942" lon="7.8637635"><ele>335.0</ele><time>2026-04-10T08:52:42.844Z</time></trkpt><trkpt lat="45.0471674" lon="7.8638442"><ele>335.3333333333333</ele><time>2026-04-10T08:52:43.844Z</time></trkpt><trkpt lat="45.0471465" lon="7.8639313"><ele>335.6666666666667</ele><time>2026-04-10T08:52:44.845Z</time></trkpt><trkpt lat="45.0470995" lon="7.864086"><ele>336.0</ele><time>2026-04-10T08:52:46.845Z</time></trkpt><trkpt lat="45.0470446" lon="7.8641905"><ele>336.5</ele><time>2026-04-10T08:52:48.845Z</time></trkpt><trkpt lat="45.0469999" lon="7.8642988"><ele>337.0</ele><time>2026-04-10T08:52:50.846Z</time></trkpt><trkpt lat="45.0469541" lon="7.8643807"><ele>337.5</ele><time>2026-04-10T08:52:52.844Z</time></trkpt><trkpt lat="45.0469037" lon="7.8644566"><ele>338.0</ele><time>2026-04-10T08:52:54.845Z</time></trkpt><trkpt lat="45.0468659" lon="7.864551"><ele>338.5</ele><time>2026-04-10T08:52:56.846Z</time></trkpt><trkpt lat="45.0468249" lon="7.8646455"><ele>339.0</ele><time>2026-04-10T08:52:58.844Z</time></trkpt><trkpt lat="45.0467771" lon="7.8647321"><ele>339.0</ele><time>2026-04-10T08:53:00.846Z</time></trkpt><trkpt lat="45.0467323" lon="7.8648115"><ele>339.0</ele><time>2026-04-10T08:53:02.845Z</time></trkpt><trkpt lat="45.0466871" lon="7.8648894"><ele>339.0</ele><time>2026-04-10T08:53:04.846Z</time></trkpt><trkpt lat="45.0466328" lon="7.8649658"><ele>339.0</ele><time>2026-04-10T08:53:06.845Z</time></trkpt><trkpt lat="45.0465741" lon="7.8650512"><ele>339.0</ele><time>2026-04-10T08:53:08.845Z</time></trkpt><trkpt lat="45.0465111" lon="7.8651354"><ele>339.0</ele><time>2026-04-10T08:53:10.845Z</time></trkpt><trkpt lat="45.046445" lon="7.8652201"><ele>339.79999999999995</ele><time>2026-04-10T08:53:12.845Z</time></trkpt><trkpt lat="45.0463648" lon="7.865305"><ele>340.59999999999997</ele><time>2026-04-10T08:53:14.845Z</time></trkpt><trkpt lat="45.0462799" lon="7.865373"><ele>341.4</ele><time>2026-04-10T08:53:16.847Z</time></trkpt><trkpt lat="45.046201" lon="7.8654501"><ele>342.2</ele><time>2026-04-10T08:53:18.846Z</time></trkpt><trkpt lat="45.0461252" lon="7.8655453"><ele>343.0</ele><time>2026-04-10T08:53:20.845Z</time></trkpt><trkpt lat="45.046058" lon="7.8656516"><ele>343.0</ele><time>2026-04-10T08:53:22.846Z</time></trkpt><trkpt lat="45.045997" lon="7.8657619"><ele>343.0</ele><time>2026-04-10T08:53:24.846Z</time></trkpt><trkpt lat="45.0459301" lon="7.8658565"><ele>343.0</ele><time>2026-04-10T08:53:26.845Z</time></trkpt><trkpt lat="45.0458512" lon="7.8659449"><ele>343.0</ele><time>2026-04-10T08:53:28.845Z</time></trkpt><trkpt lat="45.0457726" lon="7.8659921"><ele>343.0</ele><time>2026-04-10T08:53:30.844Z</time></trkpt><trkpt lat="45.0457041" lon="7.8660364"><ele>343.14285714285717</ele><time>2026-04-10T08:53:32.847Z</time></trkpt><trkpt lat="45.0456314" lon="7.8660473"><ele>343.2857142857143</ele><time>2026-04-10T08:53:34.845Z</time></trkpt><trkpt lat="45.0455489" lon="7.8660501"><ele>343.42857142857144</ele><time>2026-04-10T08:53:36.847Z</time></trkpt><trkpt lat="45.045484" lon="7.8660305"><ele>343.57142857142856</ele><time>2026-04-10T08:53:38.846Z</time></trkpt><trkpt lat="45.045421" lon="7.8660177"><ele>343.7142857142857</ele><time>2026-04-10T08:53:40.846Z</time></trkpt><trkpt lat="45.0453489" lon="7.8659743"><ele>343.8571428571429</ele><time>2026-04-10T08:53:43.846Z</time></trkpt><trkpt lat="45.0452857" lon="7.8659188"><ele>344.0</ele><time>2026-04-10T08:53:45.846Z</time></trkpt><trkpt lat="45.0451955" lon="7.8658387"><ele>344.0</ele><time>2026-04-10T08:53:47.846Z</time></trkpt><trkpt lat="45.0451065" lon="7.8657605"><ele>344.0</ele><time>2026-04-10T08:53:49.846Z</time></trkpt><trkpt lat="45.0450028" lon="7.8657183"><ele>344.0</ele><time>2026-04-10T08:53:51.845Z</time></trkpt><trkpt lat="45.0448802" lon="7.8657232"><ele>344.0</ele><time>2026-04-10T08:53:53.845Z</time></trkpt><trkpt lat="45.0447481" lon="7.8657181"><ele>342.0</ele><time>2026-04-10T08:53:55.845Z</time></trkpt><trkpt lat="45.0446726" lon="7.8656976"><ele>340.0</ele><time>2026-04-10T08:53:56.846Z</time></trkpt><trkpt lat="45.0445943" lon="7.8656805"><ele>338.0</ele><time>2026-04-10T08:53:57.845Z</time></trkpt><trkpt lat="45.0445063" lon="7.8656387"><ele>336.0</ele><time>2026-04-10T08:53:58.846Z</time></trkpt><trkpt lat="45.0444206" lon="7.8656013"><ele>334.0</ele><time>2026-04-10T08:53:59.846Z</time></trkpt><trkpt lat="45.0443276" lon="7.8655725"><ele>332.0</ele><time>2026-04-10T08:54:00.845Z</time></trkpt><trkpt lat="45.0442461" lon="7.8655462"><ele>332.0</ele><time>2026-04-10T08:54:01.845Z</time></trkpt><trkpt lat="45.0441544" lon="7.8655261"><ele>332.0</ele><time>2026-04-10T08:54:02.846Z</time></trkpt><trkpt lat="45.0440603" lon="7.8655197"><ele>332.0</ele><time>2026-04-10T08:54:03.845Z</time></trkpt><trkpt lat="45.043974" lon="7.8655583"><ele>332.0</ele><time>2026-04-10T08:54:04.846Z</time></trkpt><trkpt lat="45.0438889" lon="7.865619"><ele>332.0</ele><time>2026-04-10T08:54:05.845Z</time></trkpt><trkpt lat="45.0438107" lon="7.8656945"><ele>330.20000000000005</ele><time>2026-04-10T08:54:06.846Z</time></trkpt><trkpt lat="45.0437374" lon="7.8657761"><ele>328.4</ele><time>2026-04-10T08:54:07.845Z</time></trkpt><trkpt lat="45.043664" lon="7.8658596"><ele>326.6</ele><time>2026-04-10T08:54:08.845Z</time></trkpt><trkpt lat="45.0435953" lon="7.8659584"><ele>324.79999999999995</ele><time>2026-04-10T08:54:09.845Z</time></trkpt><trkpt lat="45.0435103" lon="7.866055"><ele>323.0</ele><time>2026-04-10T08:54:10.846Z</time></trkpt><trkpt lat="45.0434135" lon="7.8661439"><ele>322.75</ele><time>2026-04-10T08:54:11.845Z</time></trkpt><trkpt lat="45.0433045" lon="7.8662226"><ele>322.5</ele><time>2026-04-10T08:54:12.846Z</time></trkpt><trkpt lat="45.0431952" lon="7.8662923"><ele>322.25</ele><time>2026-04-10T08:54:13.845Z</time></trkpt><trkpt lat="45.0430821" lon="7.8663511"><ele>322.0</ele><time>2026-04-10T08:54:14.845Z</time></trkpt><trkpt lat="45.0429738" lon="7.866396"><ele>320.66666666666663</ele><time>2026-04-10T08:54:15.846Z</time></trkpt><trkpt lat="45.042868" lon="7.8664326"><ele>319.3333333333333</ele><time>2026-04-10T08:54:16.845Z</time></trkpt><trkpt lat="45.0427807" lon="7.8664804"><ele>318.0</ele><time>2026-04-10T08:54:17.844Z</time></trkpt><trkpt lat="45.0427047" lon="7.866509"><ele>316.6666666666667</ele><time>2026-04-10T08:54:18.847Z</time></trkpt><trkpt lat="45.0426301" lon="7.8665286"><ele>315.33333333333337</ele><time>2026-04-10T08:54:19.847Z</time></trkpt><trkpt lat="45.0425495" lon="7.8665104"><ele>314.0</ele><time>2026-04-10T08:54:20.844Z</time></trkpt><trkpt lat="45.0424829" lon="7.8664769"><ele>312.83333333333337</ele><time>2026-04-10T08:54:21.844Z</time></trkpt><trkpt lat="45.0424231" lon="7.8664218"><ele>311.6666666666667</ele><time>2026-04-10T08:54:22.846Z</time></trkpt><trkpt lat="45.0423658" lon="7.8663593"><ele>310.5</ele><time>2026-04-10T08:54:23.846Z</time></trkpt><trkpt lat="45.0423088" lon="7.8663021"><ele>309.3333333333333</ele><time>2026-04-10T08:54:24.845Z</time></trkpt><trkpt lat="45.0422531" lon="7.866245"><ele>308.16666666666663</ele><time>2026-04-10T08:54:25.845Z</time></trkpt><trkpt lat="45.0422014" lon="7.8661894"><ele>307.0</ele><time>2026-04-10T08:54:26.845Z</time></trkpt><trkpt lat="45.0421075" lon="7.8660745"><ele>307.0</ele><time>2026-04-10T08:54:28.846Z</time></trkpt><trkpt lat="45.0420152" lon="7.8659694"><ele>307.0</ele><time>2026-04-10T08:54:30.845Z</time></trkpt><trkpt lat="45.04192" lon="7.8658615"><ele>307.0</ele><time>2026-04-10T08:54:32.846Z</time></trkpt><trkpt lat="45.0418246" lon="7.8657607"><ele>307.0</ele><time>2026-04-10T08:54:34.845Z</time></trkpt><trkpt lat="45.0417315" lon="7.8656813"><ele>306.71428571428567</ele><time>2026-04-10T08:54:36.846Z</time></trkpt><trkpt lat="45.0416754" lon="7.8656375"><ele>306.42857142857144</ele><time>2026-04-10T08:54:37.845Z</time></trkpt><trkpt lat="45.0416144" lon="7.8655906"><ele>306.1428571428571</ele><time>2026-04-10T08:54:38.845Z</time></trkpt><trkpt lat="45.041548" lon="7.8655501"><ele>305.85714285714283</ele><time>2026-04-10T08:54:39.846Z</time></trkpt><trkpt lat="45.0414774" lon="7.8655294"><ele>305.57142857142856</ele><time>2026-04-10T08:54:40.845Z</time></trkpt><trkpt lat="45.0413996" lon="7.8655249"><ele>305.2857142857143</ele><time>2026-04-10T08:54:41.845Z</time></trkpt><trkpt lat="45.0413174" lon="7.8655289"><ele>305.0</ele><time>2026-04-10T08:54:42.844Z</time></trkpt><trkpt lat="45.0412195" lon="7.8655264"><ele>305.0</ele><time>2026-04-10T08:54:43.845Z</time></trkpt><trkpt lat="45.0411346" lon="7.865536"><ele>305.0</ele><time>2026-04-10T08:54:44.845Z</time></trkpt><trkpt lat="45.0410431" lon="7.8655337"><ele>305.0</ele><time>2026-04-10T08:54:45.844Z</time></trkpt><trkpt lat="45.0409619" lon="7.8655431"><ele>305.0</ele><time>2026-04-10T08:54:46.845Z</time></trkpt><trkpt lat="45.0408868" lon="7.8655547"><ele>305.0</ele><time>2026-04-10T08:54:47.845Z</time></trkpt><trkpt lat="45.040777" lon="7.8655768"><ele>305.0</ele><time>2026-04-10T08:54:49.845Z</time></trkpt><trkpt lat="45.0406832" lon="7.8656257"><ele>303.6666666666667</ele><time>2026-04-10T08:54:51.846Z</time></trkpt><trkpt lat="45.0405766" lon="7.8657045"><ele>302.33333333333337</ele><time>2026-04-10T08:54:53.845Z</time></trkpt><trkpt lat="45.0405234" lon="7.8657584"><ele>301.0</ele><time>2026-04-10T08:54:54.845Z</time></trkpt><trkpt lat="45.0404669" lon="7.865811"><ele>299.6666666666667</ele><time>2026-04-10T08:54:55.844Z</time></trkpt><trkpt lat="45.0404101" lon="7.865871"><ele>298.3333333333333</ele><time>2026-04-10T08:54:56.845Z</time></trkpt><trkpt lat="45.040342" lon="7.8659289"><ele>297.0</ele><time>2026-04-10T08:54:57.846Z</time></trkpt><trkpt lat="45.0402734" lon="7.8659785"><ele>297.0</ele><time>2026-04-10T08:54:58.846Z</time></trkpt><trkpt lat="45.0402139" lon="7.8660366"><ele>297.0</ele><time>2026-04-10T08:54:59.846Z</time></trkpt><trkpt lat="45.0401561" lon="7.8660945"><ele>297.0</ele><time>2026-04-10T08:55:00.845Z</time></trkpt><trkpt lat="45.0400852" lon="7.8661493"><ele>297.0</ele><time>2026-04-10T08:55:01.846Z</time></trkpt><trkpt lat="45.0400199" lon="7.866221"><ele>297.0</ele><time>2026-04-10T08:55:02.845Z</time></trkpt><trkpt lat="45.0399498" lon="7.8662728"><ele>297.0</ele><time>2026-04-10T08:55:03.846Z</time></trkpt><trkpt lat="45.0398893" lon="7.8663533"><ele>296.5</ele><time>2026-04-10T08:55:04.845Z</time></trkpt><trkpt lat="45.0398218" lon="7.8664254"><ele>296.0</ele><time>2026-04-10T08:55:05.844Z</time></trkpt><trkpt lat="45.039743" lon="7.8665002"><ele>295.5</ele><time>2026-04-10T08:55:06.846Z</time></trkpt><trkpt lat="45.0396808" lon="7.8665585"><ele>295.0</ele><time>2026-04-10T08:55:07.845Z</time></trkpt><trkpt lat="45.0396173" lon="7.8666117"><ele>294.5</ele><time>2026-04-10T08:55:08.845Z</time></trkpt><trkpt lat="45.0395484" lon="7.8666062"><ele>294.0</ele><time>2026-04-10T08:55:10.846Z</time></trkpt><trkpt lat="45.0394748" lon="7.8665616"><ele>294.0</ele><time>2026-04-10T08:55:12.847Z</time></trkpt><trkpt lat="45.0393937" lon="7.8665433"><ele>294.0</ele><time>2026-04-10T08:55:14.845Z</time></trkpt><trkpt lat="45.0393191" lon="7.8665676"><ele>294.0</ele><time>2026-04-10T08:55:16.846Z</time></trkpt><trkpt lat="45.0392505" lon="7.8665872"><ele>294.0</ele><time>2026-04-10T08:55:18.846Z</time></trkpt><trkpt lat="45.039185" lon="7.8665926"><ele>294.0</ele><time>2026-04-10T08:55:20.844Z</time></trkpt><trkpt lat="45.0391195" lon="7.8666397"><ele>294.0</ele><time>2026-04-10T08:55:22.846Z</time></trkpt><trkpt lat="45.039044" lon="7.8666735"><ele>294.0</ele><time>2026-04-10T08:55:24.845Z</time></trkpt><trkpt lat="45.0389587" lon="7.8667048"><ele>295.0</ele><time>2026-04-10T08:55:27.845Z</time></trkpt><trkpt lat="45.0388767" lon="7.8667246"><ele>296.0</ele><time>2026-04-10T08:55:30.844Z</time></trkpt><trkpt lat="45.0387924" lon="7.8667585"><ele>297.0</ele><time>2026-04-10T08:55:33.846Z</time></trkpt><trkpt lat="45.0387257" lon="7.8667771"><ele>298.0</ele><time>2026-04-10T08:55:36.846Z</time></trkpt><trkpt lat="45.0386598" lon="7.8668272"><ele>299.0</ele><time>2026-04-10T08:55:40.845Z</time></trkpt><trkpt lat="45.0386191" lon="7.8669224"><ele>300.0</ele><time>2026-04-10T08:55:44.846Z</time></trkpt><trkpt lat="45.0385497" lon="7.8669094"><ele>299.99999999999994</ele><time>2026-04-10T08:55:50.847Z</time></trkpt><trkpt lat="45.0384984" lon="7.8668515"><ele>300.0</ele><time>2026-04-10T08:55:53.846Z</time></trkpt><trkpt lat="45.0384432" lon="7.8668065"><ele>300.0</ele><time>2026-04-10T08:55:56.846Z</time></trkpt><trkpt lat="45.0383826" lon="7.86676"><ele>300.0</ele><time>2026-04-10T08:55:59.846Z</time></trkpt><trkpt lat="45.038313" lon="7.8667201"><ele>300.0</ele><time>2026-04-10T08:56:02.845Z</time></trkpt><trkpt lat="45.0382416" lon="7.8666836"><ele>299.99999999999994</ele><time>2026-04-10T08:56:05.845Z</time></trkpt><trkpt lat="45.0381657" lon="7.8666619"><ele>300.0</ele><time>2026-04-10T08:56:08.845Z</time></trkpt><trkpt lat="45.0380782" lon="7.8666479"><ele>300.4285714285714</ele><time>2026-04-10T08:56:11.846Z</time></trkpt><trkpt lat="45.0380149" lon="7.8666368"><ele>300.85714285714283</ele><time>2026-04-10T08:56:13.845Z</time></trkpt><trkpt lat="45.0379493" lon="7.8666155"><ele>301.2857142857143</ele><time>2026-04-10T08:56:15.844Z</time></trkpt><trkpt lat="45.0378846" lon="7.866585"><ele>301.71428571428567</ele><time>2026-04-10T08:56:17.847Z</time></trkpt><trkpt lat="45.0378197" lon="7.8665655"><ele>302.1428571428571</ele><time>2026-04-10T08:56:19.846Z</time></trkpt><trkpt lat="45.0377519" lon="7.8665471"><ele>302.57142857142856</ele><time>2026-04-10T08:56:21.846Z</time></trkpt><trkpt lat="45.0376789" lon="7.8665318"><ele>303.0</ele><time>2026-04-10T08:56:23.846Z</time></trkpt><trkpt lat="45.0376048" lon="7.8665119"><ele>303.0</ele><time>2026-04-10T08:56:25.846Z</time></trkpt><trkpt lat="45.0375305" lon="7.8665063"><ele>303.0</ele><time>2026-04-10T08:56:27.846Z</time></trkpt><trkpt lat="45.0374571" lon="7.8665139"><ele>303.0</ele><time>2026-04-10T08:56:29.846Z</time></trkpt><trkpt lat="45.0373836" lon="7.8665235"><ele>303.0</ele><time>2026-04-10T08:56:31.845Z</time></trkpt><trkpt lat="45.0373096" lon="7.8665368"><ele>303.0</ele><time>2026-04-10T08:56:33.846Z</time></trkpt><trkpt lat="45.0372344" lon="7.866562"><ele>303.0</ele><time>2026-04-10T08:56:35.847Z</time></trkpt><trkpt lat="45.0371643" lon="7.8666141"><ele>300.6666666666667</ele><time>2026-04-10T08:56:37.845Z</time></trkpt><trkpt lat="45.0371172" lon="7.8666902"><ele>298.3333333333333</ele><time>2026-04-10T08:56:39.845Z</time></trkpt><trkpt lat="45.0370996" lon="7.8667827"><ele>296.0</ele><time>2026-04-10T08:56:41.845Z</time></trkpt><trkpt lat="45.0371127" lon="7.8668835"><ele>293.66666666666663</ele><time>2026-04-10T08:56:43.846Z</time></trkpt><trkpt lat="45.0371371" lon="7.866996"><ele>291.3333333333333</ele><time>2026-04-10T08:56:45.847Z</time></trkpt><trkpt lat="45.0371677" lon="7.8671071"><ele>289.0</ele><time>2026-04-10T08:56:47.846Z</time></trkpt><trkpt lat="45.0372045" lon="7.8672199"><ele>288.59999999999997</ele><time>2026-04-10T08:56:49.846Z</time></trkpt><trkpt lat="45.0372357" lon="7.8673335"><ele>288.2</ele><time>2026-04-10T08:56:51.846Z</time></trkpt><trkpt lat="45.0372682" lon="7.8674592"><ele>287.79999999999995</ele><time>2026-04-10T08:56:53.845Z</time></trkpt><trkpt lat="45.0372898" lon="7.8676025"><ele>287.4</ele><time>2026-04-10T08:56:55.846Z</time></trkpt><trkpt lat="45.0373145" lon="7.8677269"><ele>287.0</ele><time>2026-04-10T08:56:57.845Z</time></trkpt><trkpt lat="45.0373563" lon="7.8678451"><ele>286.42857142857144</ele><time>2026-04-10T08:56:59.844Z</time></trkpt><trkpt lat="45.037417" lon="7.8679534"><ele>285.8571428571429</ele><time>2026-04-10T08:57:01.847Z</time></trkpt><trkpt lat="45.037483" lon="7.86802"><ele>285.2857142857143</ele><time>2026-04-10T08:57:03.846Z</time></trkpt><trkpt lat="45.0375487" lon="7.8680567"><ele>284.7142857142857</ele><time>2026-04-10T08:57:05.846Z</time></trkpt><trkpt lat="45.0376139" lon="7.8680531"><ele>284.14285714285717</ele><time>2026-04-10T08:57:07.846Z</time></trkpt><trkpt lat="45.0376766" lon="7.8680328"><ele>283.57142857142856</ele><time>2026-04-10T08:57:09.847Z</time></trkpt><trkpt lat="45.0377441" lon="7.8680091"><ele>283.0</ele><time>2026-04-10T08:57:11.845Z</time></trkpt><trkpt lat="45.0378096" lon="7.8679821"><ele>283.0</ele><time>2026-04-10T08:57:13.845Z</time></trkpt><trkpt lat="45.0378824" lon="7.867945"><ele>283.0</ele><time>2026-04-10T08:57:16.846Z</time></trkpt><trkpt lat="45.0378112" lon="7.8679053"><ele>283.0</ele><time>2026-04-10T08:57:21.845Z</time></trkpt><trkpt lat="45.0377511" lon="7.8679347"><ele>283.0</ele><time>2026-04-10T08:57:23.844Z</time></trkpt><trkpt lat="45.0376858" lon="7.8679712"><ele>283.0</ele><time>2026-04-10T08:57:25.846Z</time></trkpt><trkpt lat="45.0376087" lon="7.8680063"><ele>283.0</ele><time>2026-04-10T08:57:27.844Z</time></trkpt><trkpt lat="45.0375297" lon="7.8680095"><ele>283.0</ele><time>2026-04-10T08:57:29.845Z</time></trkpt><trkpt lat="45.0374648" lon="7.8679966"><ele>283.0</ele><time>2026-04-10T08:57:31.846Z</time></trkpt><trkpt lat="45.0374236" lon="7.8680682"><ele>283.0</ele><time>2026-04-10T08:57:58.847Z</time></trkpt><trkpt lat="45.0374497" lon="7.8681545"><ele>283.0</ele><time>2026-04-10T08:58:09.846Z</time></trkpt><trkpt lat="45.0375279" lon="7.8681711"><ele>283.0</ele><time>2026-04-10T08:58:24.846Z</time></trkpt><trkpt lat="45.0375874" lon="7.8682295"><ele>283.0</ele><time>2026-04-10T08:58:30.846Z</time></trkpt><trkpt lat="45.0375242" lon="7.8681708"><ele>283.0</ele><time>2026-04-10T08:58:47.845Z</time></trkpt><trkpt lat="45.0374863" lon="7.8680684"><ele>283.0</ele><time>2026-04-10T08:58:56.846Z</time></trkpt><trkpt lat="45.0374014" lon="7.8679468"><ele>283.0</ele><time>2026-04-10T08:58:58.845Z</time></trkpt><trkpt lat="45.0373312" lon="7.8678287"><ele>283.0</ele><time>2026-04-10T08:59:00.846Z</time></trkpt><trkpt lat="45.0372789" lon="7.8677554"><ele>283.0</ele><time>2026-04-10T08:59:02.844Z</time></trkpt><trkpt lat="45.0372551" lon="7.8678591"><ele>283.0</ele><time>2026-04-10T08:59:06.848Z</time></trkpt><trkpt lat="45.0372768" lon="7.86796"><ele>283.0</ele><time>2026-04-10T08:59:08.844Z</time></trkpt><trkpt lat="45.0372826" lon="7.8681156"><ele>283.0</ele><time>2026-04-10T08:59:10.848Z</time></trkpt><trkpt lat="45.0373101" lon="7.8682755"><ele>283.0</ele><time>2026-04-10T08:59:12.846Z</time></trkpt><trkpt lat="45.0373309" lon="7.8683693"><ele>283.0</ele><time>2026-04-10T08:59:13.846Z</time></trkpt><trkpt lat="45.0373427" lon="7.868534"><ele>283.0</ele><time>2026-04-10T08:59:15.844Z</time></trkpt><trkpt lat="45.0373236" lon="7.868717"><ele>283.0</ele><time>2026-04-10T08:59:17.846Z</time></trkpt><trkpt lat="45.0373301" lon="7.8688444"><ele>283.0</ele><time>2026-04-10T08:59:19.846Z</time></trkpt><trkpt lat="45.0373104" lon="7.8689402"><ele>282.66666666666663</ele><time>2026-04-10T08:59:20.846Z</time></trkpt><trkpt lat="45.0373053" lon="7.8690571"><ele>282.3333333333333</ele><time>2026-04-10T08:59:22.847Z</time></trkpt><trkpt lat="45.0372674" lon="7.8691299"><ele>282.0</ele><time>2026-04-10T08:59:25.845Z</time></trkpt><trkpt lat="45.0373087" lon="7.8692445"><ele>281.6666666666667</ele><time>2026-04-10T08:59:29.846Z</time></trkpt><trkpt lat="45.0373399" lon="7.8693427"><ele>281.33333333333337</ele><time>2026-04-10T08:59:32.847Z</time></trkpt><trkpt lat="45.0372747" lon="7.8694517"><ele>281.0</ele><time>2026-04-10T08:59:35.845Z</time></trkpt><trkpt lat="45.0371714" lon="7.869511"><ele>281.0</ele><time>2026-04-10T08:59:37.845Z</time></trkpt><trkpt lat="45.037096" lon="7.8695926"><ele>281.0</ele><time>2026-04-10T08:59:39.846Z</time></trkpt><trkpt lat="45.0370231" lon="7.8696874"><ele>281.0</ele><time>2026-04-10T08:59:41.847Z</time></trkpt><trkpt lat="45.0369317" lon="7.8697836"><ele>281.0</ele><time>2026-04-10T08:59:43.846Z</time></trkpt><trkpt lat="45.0368513" lon="7.8698951"><ele>281.0</ele><time>2026-04-10T08:59:45.846Z</time></trkpt><trkpt lat="45.0368017" lon="7.869964"><ele>281.0</ele><time>2026-04-10T08:59:46.847Z</time></trkpt><trkpt lat="45.0367562" lon="7.8700262"><ele>281.0</ele><time>2026-04-10T08:59:47.845Z</time></trkpt><trkpt lat="45.0366688" lon="7.8701556"><ele>281.0</ele><time>2026-04-10T08:59:49.847Z</time></trkpt><trkpt lat="45.0366066" lon="7.8702664"><ele>281.0</ele><time>2026-04-10T08:59:51.847Z</time></trkpt><trkpt lat="45.0365597" lon="7.8703559"><ele>281.0</ele><time>2026-04-10T08:59:53.845Z</time></trkpt><trkpt lat="45.0365059" lon="7.8704262"><ele>281.0</ele><time>2026-04-10T09:00:11.845Z</time></trkpt><trkpt lat="45.0364961" lon="7.8705308"><ele>281.7142857142857</ele><time>2026-04-10T09:00:15.845Z</time></trkpt><trkpt lat="45.0365288" lon="7.8706279"><ele>282.42857142857144</ele><time>2026-04-10T09:00:55.846Z</time></trkpt><trkpt lat="45.0365596" lon="7.8707336"><ele>283.1428571428571</ele><time>2026-04-10T09:00:58.845Z</time></trkpt><trkpt lat="45.0365866" lon="7.8708155"><ele>283.8571428571429</ele><time>2026-04-10T09:01:00.845Z</time></trkpt><trkpt lat="45.0366081" lon="7.8709046"><ele>284.57142857142856</ele><time>2026-04-10T09:01:02.847Z</time></trkpt><trkpt lat="45.036634" lon="7.8709988"><ele>285.2857142857143</ele><time>2026-04-10T09:01:04.845Z</time></trkpt><trkpt lat="45.0366614" lon="7.8710971"><ele>286.0</ele><time>2026-04-10T09:01:06.845Z</time></trkpt><trkpt lat="45.0366942" lon="7.8711928"><ele>285.99999999999994</ele><time>2026-04-10T09:01:08.846Z</time></trkpt><trkpt lat="45.0367222" lon="7.8712883"><ele>286.0</ele><time>2026-04-10T09:01:10.846Z</time></trkpt><trkpt lat="45.0367451" lon="7.8713838"><ele>286.0</ele><time>2026-04-10T09:01:12.846Z</time></trkpt><trkpt lat="45.0367742" lon="7.8714837"><ele>286.0</ele><time>2026-04-10T09:01:14.846Z</time></trkpt><trkpt lat="45.0367987" lon="7.8715818"><ele>286.0</ele><time>2026-04-10T09:01:16.846Z</time></trkpt><trkpt lat="45.0368304" lon="7.8716647"><ele>285.99999999999994</ele><time>2026-04-10T09:01:18.847Z</time></trkpt><trkpt lat="45.0368548" lon="7.8717567"><ele>286.0</ele><time>2026-04-10T09:01:20.845Z</time></trkpt><trkpt lat="45.0368811" lon="7.871852"><ele>287.16666666666663</ele><time>2026-04-10T09:01:22.845Z</time></trkpt><trkpt lat="45.0369061" lon="7.8719539"><ele>288.3333333333333</ele><time>2026-04-10T09:01:24.847Z</time></trkpt><trkpt lat="45.0369345" lon="7.8720587"><ele>289.5</ele><time>2026-04-10T09:01:26.846Z</time></trkpt><trkpt lat="45.0369634" lon="7.8721625"><ele>290.6666666666667</ele><time>2026-04-10T09:01:28.847Z</time></trkpt><trkpt lat="45.0369823" lon="7.8722693"><ele>291.83333333333337</ele><time>2026-04-10T09:01:30.846Z</time></trkpt><trkpt lat="45.0370017" lon="7.8723853"><ele>293.0</ele><time>2026-04-10T09:01:32.846Z</time></trkpt><trkpt lat="45.0370253" lon="7.8724955"><ele>293.0</ele><time>2026-04-10T09:01:34.846Z</time></trkpt><trkpt lat="45.0370443" lon="7.8726041"><ele>293.0</ele><time>2026-04-10T09:01:36.845Z</time></trkpt><trkpt lat="45.0370587" lon="7.8727252"><ele>293.0</ele><time>2026-04-10T09:01:38.846Z</time></trkpt><trkpt lat="45.0370788" lon="7.8728405"><ele>293.0</ele><time>2026-04-10T09:01:40.846Z</time></trkpt><trkpt lat="45.0371016" lon="7.8729512"><ele>293.0</ele><time>2026-04-10T09:01:42.846Z</time></trkpt><trkpt lat="45.0371272" lon="7.8730921"><ele>293.0</ele><time>2026-04-10T09:01:44.846Z</time></trkpt><trkpt lat="45.0371462" lon="7.8732276"><ele>292.8</ele><time>2026-04-10T09:01:46.846Z</time></trkpt><trkpt lat="45.0371326" lon="7.8733794"><ele>292.6</ele><time>2026-04-10T09:01:48.845Z</time></trkpt><trkpt lat="45.0370936" lon="7.8734941"><ele>292.4</ele><time>2026-04-10T09:01:50.846Z</time></trkpt><trkpt lat="45.0370574" lon="7.8736142"><ele>292.2</ele><time>2026-04-10T09:01:52.845Z</time></trkpt><trkpt lat="45.0370958" lon="7.8737381"><ele>292.0</ele><time>2026-04-10T09:01:54.845Z</time></trkpt><trkpt lat="45.0371832" lon="7.8737654"><ele>291.0</ele><time>2026-04-10T09:01:56.846Z</time></trkpt><trkpt lat="45.0372931" lon="7.8737595"><ele>290.0</ele><time>2026-04-10T09:01:58.844Z</time></trkpt><trkpt lat="45.037356" lon="7.8737767"><ele>289.0</ele><time>2026-04-10T09:01:59.846Z</time></trkpt><trkpt lat="45.0374704" lon="7.8738322"><ele>288.0</ele><time>2026-04-10T09:02:01.845Z</time></trkpt><trkpt lat="45.0375294" lon="7.8738692"><ele>287.0</ele><time>2026-04-10T09:02:02.845Z</time></trkpt><trkpt lat="45.0376239" lon="7.8739034"><ele>286.8</ele><time>2026-04-10T09:02:04.845Z</time></trkpt><trkpt lat="45.0377443" lon="7.8739779"><ele>286.6</ele><time>2026-04-10T09:02:06.845Z</time></trkpt><trkpt lat="45.0378155" lon="7.8740025"><ele>286.40000000000003</ele><time>2026-04-10T09:02:07.847Z</time></trkpt><trkpt lat="45.0378794" lon="7.8740357"><ele>286.2</ele><time>2026-04-10T09:02:08.846Z</time></trkpt><trkpt lat="45.0379883" lon="7.8741134"><ele>286.0</ele><time>2026-04-10T09:02:10.845Z</time></trkpt><trkpt lat="45.0380626" lon="7.8741575"><ele>285.99999999999994</ele><time>2026-04-10T09:02:11.846Z</time></trkpt><trkpt lat="45.0381296" lon="7.874198"><ele>286.0</ele><time>2026-04-10T09:02:12.846Z</time></trkpt><trkpt lat="45.0381974" lon="7.8742367"><ele>286.0</ele><time>2026-04-10T09:02:13.845Z</time></trkpt><trkpt lat="45.038261" lon="7.8742827"><ele>286.0</ele><time>2026-04-10T09:02:14.847Z</time></trkpt><trkpt lat="45.0383276" lon="7.874311"><ele>286.0</ele><time>2026-04-10T09:02:15.846Z</time></trkpt><trkpt lat="45.0383882" lon="7.874341"><ele>285.99999999999994</ele><time>2026-04-10T09:02:16.846Z</time></trkpt><trkpt lat="45.0384526" lon="7.8743677"><ele>286.0</ele><time>2026-04-10T09:02:17.845Z</time></trkpt><trkpt lat="45.0385211" lon="7.874407"><ele>285.5</ele><time>2026-04-10T09:02:18.845Z</time></trkpt><trkpt lat="45.0385857" lon="7.8744356"><ele>285.0</ele><time>2026-04-10T09:02:19.845Z</time></trkpt><trkpt lat="45.0386483" lon="7.8744635"><ele>284.5</ele><time>2026-04-10T09:02:20.845Z</time></trkpt><trkpt lat="45.0387158" lon="7.8744906"><ele>284.0</ele><time>2026-04-10T09:02:21.846Z</time></trkpt><trkpt lat="45.0387802" lon="7.8745171"><ele>283.5</ele><time>2026-04-10T09:02:22.846Z</time></trkpt><trkpt lat="45.0388434" lon="7.8745559"><ele>283.0</ele><time>2026-04-10T09:02:23.846Z</time></trkpt><trkpt lat="45.0389641" lon="7.8746101"><ele>283.0</ele><time>2026-04-10T09:02:25.846Z</time></trkpt><trkpt lat="45.0390324" lon="7.8746482"><ele>283.0</ele><time>2026-04-10T09:02:26.845Z</time></trkpt><trkpt lat="45.0391469" lon="7.8747123"><ele>283.0</ele><time>2026-04-10T09:02:28.845Z</time></trkpt><trkpt lat="45.0392527" lon="7.8747691"><ele>283.0</ele><time>2026-04-10T09:02:30.845Z</time></trkpt><trkpt lat="45.0393554" lon="7.8748234"><ele>283.0</ele><time>2026-04-10T09:02:32.846Z</time></trkpt><trkpt lat="45.0394578" lon="7.8748807"><ele>283.0</ele><time>2026-04-10T09:02:34.845Z</time></trkpt><trkpt lat="45.0395393" lon="7.8749315"><ele>283.0</ele><time>2026-04-10T09:02:36.846Z</time></trkpt><trkpt lat="45.0396324" lon="7.8749806"><ele>283.0</ele><time>2026-04-10T09:02:38.846Z</time></trkpt><trkpt lat="45.0397331" lon="7.8750379"><ele>283.0</ele><time>2026-04-10T09:02:40.846Z</time></trkpt><trkpt lat="45.0398392" lon="7.8750941"><ele>283.0</ele><time>2026-04-10T09:02:42.845Z</time></trkpt><trkpt lat="45.0399052" lon="7.8751274"><ele>283.2</ele><time>2026-04-10T09:02:43.845Z</time></trkpt><trkpt lat="45.0399645" lon="7.8751598"><ele>283.4</ele><time>2026-04-10T09:02:44.846Z</time></trkpt><trkpt lat="45.0400686" lon="7.8752279"><ele>283.59999999999997</ele><time>2026-04-10T09:02:46.845Z</time></trkpt><trkpt lat="45.040181" lon="7.8752814"><ele>283.8</ele><time>2026-04-10T09:02:48.846Z</time></trkpt><trkpt lat="45.0402913" lon="7.8753419"><ele>284.0</ele><time>2026-04-10T09:02:50.845Z</time></trkpt><trkpt lat="45.0403496" lon="7.8753839"><ele>283.6666666666667</ele><time>2026-04-10T09:02:51.846Z</time></trkpt><trkpt lat="45.0404637" lon="7.8754365"><ele>283.33333333333337</ele><time>2026-04-10T09:02:53.845Z</time></trkpt><trkpt lat="45.0405313" lon="7.8754701"><ele>283.0</ele><time>2026-04-10T09:02:54.845Z</time></trkpt><trkpt lat="45.0405921" lon="7.8754946"><ele>282.6666666666667</ele><time>2026-04-10T09:02:55.846Z</time></trkpt><trkpt lat="45.0406564" lon="7.8755273"><ele>282.3333333333333</ele><time>2026-04-10T09:02:56.847Z</time></trkpt><trkpt lat="45.0407171" lon="7.8755632"><ele>282.0</ele><time>2026-04-10T09:02:57.846Z</time></trkpt><trkpt lat="45.0408211" lon="7.8756288"><ele>283.0</ele><time>2026-04-10T09:02:59.846Z</time></trkpt><trkpt lat="45.0409301" lon="7.8756833"><ele>284.0</ele><time>2026-04-10T09:03:01.845Z</time></trkpt><trkpt lat="45.0410337" lon="7.8757464"><ele>285.0</ele><time>2026-04-10T09:03:03.847Z</time></trkpt><trkpt lat="45.0411286" lon="7.8758047"><ele>286.0</ele><time>2026-04-10T09:03:05.846Z</time></trkpt><trkpt lat="45.0412552" lon="7.8758733"><ele>286.0</ele><time>2026-04-10T09:03:08.846Z</time></trkpt><trkpt lat="45.0413314" lon="7.8759132"><ele>286.0</ele><time>2026-04-10T09:03:10.847Z</time></trkpt><trkpt lat="45.0414121" lon="7.8759575"><ele>286.0</ele><time>2026-04-10T09:03:12.846Z</time></trkpt><trkpt lat="45.0414808" lon="7.875987"><ele>286.0</ele><time>2026-04-10T09:03:14.845Z</time></trkpt><trkpt lat="45.0415663" lon="7.8760342"><ele>286.0</ele><time>2026-04-10T09:03:17.846Z</time></trkpt><trkpt lat="45.0416453" lon="7.8761073"><ele>286.0</ele><time>2026-04-10T09:03:21.846Z</time></trkpt><trkpt lat="45.041706" lon="7.8761738"><ele>288.3333333333333</ele><time>2026-04-10T09:03:24.846Z</time></trkpt><trkpt lat="45.0417665" lon="7.8762485"><ele>290.66666666666663</ele><time>2026-04-10T09:03:27.845Z</time></trkpt><trkpt lat="45.0418313" lon="7.8763023"><ele>293.0</ele><time>2026-04-10T09:03:30.845Z</time></trkpt><trkpt lat="45.041891" lon="7.8763696"><ele>295.3333333333333</ele><time>2026-04-10T09:03:33.846Z</time></trkpt><trkpt lat="45.0419509" lon="7.8764525"><ele>297.6666666666667</ele><time>2026-04-10T09:03:36.846Z</time></trkpt><trkpt lat="45.042003" lon="7.8765367"><ele>300.0</ele><time>2026-04-10T09:03:39.846Z</time></trkpt><trkpt lat="45.0420554" lon="7.8766288"><ele>299.99999999999994</ele><time>2026-04-10T09:03:42.845Z</time></trkpt><trkpt lat="45.0421059" lon="7.8767315"><ele>300.0</ele><time>2026-04-10T09:03:45.845Z</time></trkpt><trkpt lat="45.0421505" lon="7.8768016"><ele>300.0</ele><time>2026-04-10T09:03:48.847Z</time></trkpt><trkpt lat="45.0421927" lon="7.8768769"><ele>300.0</ele><time>2026-04-10T09:03:51.847Z</time></trkpt><trkpt lat="45.0422354" lon="7.8769553"><ele>300.0</ele><time>2026-04-10T09:03:54.846Z</time></trkpt><trkpt lat="45.0422786" lon="7.8770312"><ele>299.99999999999994</ele><time>2026-04-10T09:03:57.847Z</time></trkpt><trkpt lat="45.0423285" lon="7.8770992"><ele>300.0</ele><time>2026-04-10T09:04:00.846Z</time></trkpt><trkpt lat="45.0423797" lon="7.8771724"><ele>300.6666666666667</ele><time>2026-04-10T09:04:03.845Z</time></trkpt><trkpt lat="45.0424367" lon="7.8772346"><ele>301.3333333333333</ele><time>2026-04-10T09:04:06.845Z</time></trkpt><trkpt lat="45.0425201" lon="7.8772877"><ele>302.0</ele><time>2026-04-10T09:04:10.846Z</time></trkpt><trkpt lat="45.0426053" lon="7.8773262"><ele>302.66666666666663</ele><time>2026-04-10T09:04:14.846Z</time></trkpt><trkpt lat="45.0426578" lon="7.8773801"><ele>303.3333333333333</ele><time>2026-04-10T09:04:16.846Z</time></trkpt><trkpt lat="45.0427331" lon="7.8774519"><ele>304.0</ele><time>2026-04-10T09:04:20.845Z</time></trkpt><trkpt lat="45.0427995" lon="7.8774752"><ele>304.3333333333333</ele><time>2026-04-10T09:04:23.846Z</time></trkpt><trkpt lat="45.0428807" lon="7.8774923"><ele>304.66666666666663</ele><time>2026-04-10T09:04:26.846Z</time></trkpt><trkpt lat="45.0429623" lon="7.8775064"><ele>305.0</ele><time>2026-04-10T09:04:29.845Z</time></trkpt><trkpt lat="45.0430398" lon="7.877514"><ele>305.3333333333333</ele><time>2026-04-10T09:04:32.846Z</time></trkpt><trkpt lat="45.043125" lon="7.8775272"><ele>305.6666666666667</ele><time>2026-04-10T09:04:35.845Z</time></trkpt><trkpt lat="45.0432079" lon="7.8775367"><ele>306.0</ele><time>2026-04-10T09:04:38.847Z</time></trkpt><trkpt lat="45.0432891" lon="7.8775463"><ele>307.1666666666667</ele><time>2026-04-10T09:04:41.845Z</time></trkpt><trkpt lat="45.0433748" lon="7.8775676"><ele>308.3333333333333</ele><time>2026-04-10T09:04:44.846Z</time></trkpt><trkpt lat="45.0434556" lon="7.8775803"><ele>309.5</ele><time>2026-04-10T09:04:47.847Z</time></trkpt><trkpt lat="45.0435336" lon="7.8775925"><ele>310.66666666666663</ele><time>2026-04-10T09:04:50.847Z</time></trkpt><trkpt lat="45.0436126" lon="7.8776078"><ele>311.8333333333333</ele><time>2026-04-10T09:04:53.845Z</time></trkpt><trkpt lat="45.0436871" lon="7.8776209"><ele>313.0</ele><time>2026-04-10T09:04:56.846Z</time></trkpt><trkpt lat="45.0437608" lon="7.8776292"><ele>313.42857142857144</ele><time>2026-04-10T09:04:59.847Z</time></trkpt><trkpt lat="45.0438342" lon="7.8776398"><ele>313.8571428571429</ele><time>2026-04-10T09:05:02.846Z</time></trkpt><trkpt lat="45.0439086" lon="7.877649"><ele>314.28571428571433</ele><time>2026-04-10T09:05:05.847Z</time></trkpt><trkpt lat="45.0439795" lon="7.8776641"><ele>314.7142857142857</ele><time>2026-04-10T09:05:08.847Z</time></trkpt><trkpt lat="45.0440517" lon="7.8776801"><ele>315.14285714285717</ele><time>2026-04-10T09:05:11.846Z</time></trkpt><trkpt lat="45.0441211" lon="7.8776894"><ele>315.5714285714286</ele><time>2026-04-10T09:05:14.846Z</time></trkpt><trkpt lat="45.0441875" lon="7.8776938"><ele>316.0</ele><time>2026-04-10T09:05:17.846Z</time></trkpt><trkpt lat="45.0442542" lon="7.8777032"><ele>317.42857142857144</ele><time>2026-04-10T09:05:20.846Z</time></trkpt><trkpt lat="45.044322" lon="7.8777149"><ele>318.8571428571429</ele><time>2026-04-10T09:05:23.845Z</time></trkpt><trkpt lat="45.0443913" lon="7.8777276"><ele>320.28571428571433</ele><time>2026-04-10T09:05:26.846Z</time></trkpt><trkpt lat="45.044462" lon="7.8777474"><ele>321.7142857142857</ele><time>2026-04-10T09:05:29.846Z</time></trkpt><trkpt lat="45.0445302" lon="7.8777624"><ele>323.1428571428571</ele><time>2026-04-10T09:05:32.847Z</time></trkpt><trkpt lat="45.0446043" lon="7.8777814"><ele>324.5714285714286</ele><time>2026-04-10T09:05:35.846Z</time></trkpt><trkpt lat="45.0446729" lon="7.8777977"><ele>326.0</ele><time>2026-04-10T09:05:38.846Z</time></trkpt><trkpt lat="45.0447413" lon="7.8778272"><ele>326.0</ele><time>2026-04-10T09:05:41.846Z</time></trkpt><trkpt lat="45.0448106" lon="7.8778539"><ele>326.0</ele><time>2026-04-10T09:05:44.846Z</time></trkpt><trkpt lat="45.0448783" lon="7.8778888"><ele>326.0</ele><time>2026-04-10T09:05:47.846Z</time></trkpt><trkpt lat="45.0449485" lon="7.877932"><ele>326.0</ele><time>2026-04-10T09:05:50.846Z</time></trkpt><trkpt lat="45.0450199" lon="7.8779732"><ele>326.0</ele><time>2026-04-10T09:05:53.846Z</time></trkpt><trkpt lat="45.0450913" lon="7.8780277"><ele>326.0</ele><time>2026-04-10T09:05:56.846Z</time></trkpt><trkpt lat="45.0451634" lon="7.87808"><ele>327.33333333333337</ele><time>2026-04-10T09:05:59.846Z</time></trkpt><trkpt lat="45.045233" lon="7.8781272"><ele>328.6666666666667</ele><time>2026-04-10T09:06:02.847Z</time></trkpt><trkpt lat="45.0453058" lon="7.8781672"><ele>330.0</ele><time>2026-04-10T09:06:05.846Z</time></trkpt><trkpt lat="45.0453799" lon="7.878219"><ele>331.3333333333333</ele><time>2026-04-10T09:06:08.846Z</time></trkpt><trkpt lat="45.0454611" lon="7.8782711"><ele>332.66666666666663</ele><time>2026-04-10T09:06:11.846Z</time></trkpt><trkpt lat="45.0455442" lon="7.8783181"><ele>334.0</ele><time>2026-04-10T09:06:14.847Z</time></trkpt><trkpt lat="45.0456236" lon="7.8783723"><ele>334.0</ele><time>2026-04-10T09:06:17.846Z</time></trkpt><trkpt lat="45.0456832" lon="7.8784095"><ele>334.0</ele><time>2026-04-10T09:06:19.846Z</time></trkpt><trkpt lat="45.0457686" lon="7.8784556"><ele>334.0</ele><time>2026-04-10T09:06:22.847Z</time></trkpt><trkpt lat="45.0458269" lon="7.8784912"><ele>334.0</ele><time>2026-04-10T09:06:24.846Z</time></trkpt><trkpt lat="45.0459141" lon="7.878534"><ele>334.0</ele><time>2026-04-10T09:06:27.846Z</time></trkpt><trkpt lat="45.045977" lon="7.8785608"><ele>334.0</ele><time>2026-04-10T09:06:29.846Z</time></trkpt><trkpt lat="45.0460421" lon="7.87858"><ele>334.0</ele><time>2026-04-10T09:06:31.847Z</time></trkpt><trkpt lat="45.0461086" lon="7.8785975"><ele>335.85714285714283</ele><time>2026-04-10T09:06:33.845Z</time></trkpt><trkpt lat="45.0461704" lon="7.8786168"><ele>337.7142857142857</ele><time>2026-04-10T09:06:35.846Z</time></trkpt><trkpt lat="45.0462333" lon="7.8786361"><ele>339.57142857142856</ele><time>2026-04-10T09:06:37.845Z</time></trkpt><trkpt lat="45.0462975" lon="7.8786553"><ele>341.42857142857144</ele><time>2026-04-10T09:06:39.847Z</time></trkpt><trkpt lat="45.0463623" lon="7.878673"><ele>343.2857142857143</ele><time>2026-04-10T09:06:41.847Z</time></trkpt><trkpt lat="45.0464254" lon="7.8786935"><ele>345.14285714285717</ele><time>2026-04-10T09:06:43.846Z</time></trkpt><trkpt lat="45.0464907" lon="7.8787117"><ele>347.0</ele><time>2026-04-10T09:06:45.847Z</time></trkpt><trkpt lat="45.046558" lon="7.8787296"><ele>346.83333333333337</ele><time>2026-04-10T09:06:47.845Z</time></trkpt><trkpt lat="45.0466543" lon="7.878751"><ele>346.6666666666667</ele><time>2026-04-10T09:06:50.845Z</time></trkpt><trkpt lat="45.0467233" lon="7.8787641"><ele>346.5</ele><time>2026-04-10T09:06:52.846Z</time></trkpt><trkpt lat="45.0467994" lon="7.8787794"><ele>346.3333333333333</ele><time>2026-04-10T09:06:54.846Z</time></trkpt><trkpt lat="45.046877" lon="7.8787895"><ele>346.16666666666663</ele><time>2026-04-10T09:06:56.845Z</time></trkpt><trkpt lat="45.0469635" lon="7.8787963"><ele>346.0</ele><time>2026-04-10T09:06:58.846Z</time></trkpt><trkpt lat="45.0470628" lon="7.8787978"><ele>346.0</ele><time>2026-04-10T09:07:00.846Z</time></trkpt><trkpt lat="45.0471595" lon="7.8787895"><ele>346.0</ele><time>2026-04-10T09:07:02.846Z</time></trkpt><trkpt lat="45.0472636" lon="7.8787657"><ele>346.0</ele><time>2026-04-10T09:07:04.845Z</time></trkpt><trkpt lat="45.0473791" lon="7.8787546"><ele>346.0</ele><time>2026-04-10T09:07:06.847Z</time></trkpt><trkpt lat="45.0474773" lon="7.8787429"><ele>346.0</ele><time>2026-04-10T09:07:08.845Z</time></trkpt><trkpt lat="45.0475393" lon="7.8787263"><ele>345.16666666666663</ele><time>2026-04-10T09:07:09.846Z</time></trkpt><trkpt lat="45.0476569" lon="7.8787057"><ele>344.3333333333333</ele><time>2026-04-10T09:07:11.845Z</time></trkpt><trkpt lat="45.0477723" lon="7.8787048"><ele>343.5</ele><time>2026-04-10T09:07:13.846Z</time></trkpt><trkpt lat="45.0478387" lon="7.8786971"><ele>342.6666666666667</ele><time>2026-04-10T09:07:14.845Z</time></trkpt><trkpt lat="45.0479053" lon="7.8786881"><ele>341.83333333333337</ele><time>2026-04-10T09:07:15.846Z</time></trkpt><trkpt lat="45.0479727" lon="7.8786754"><ele>341.0</ele><time>2026-04-10T09:07:16.845Z</time></trkpt><trkpt lat="45.0480392" lon="7.8786694"><ele>341.0</ele><time>2026-04-10T09:07:17.847Z</time></trkpt><trkpt lat="45.0481048" lon="7.8786513"><ele>341.0</ele><time>2026-04-10T09:07:18.847Z</time></trkpt><trkpt lat="45.0481731" lon="7.8786434"><ele>341.0</ele><time>2026-04-10T09:07:19.846Z</time></trkpt><trkpt lat="45.0482414" lon="7.8786358"><ele>341.0</ele><time>2026-04-10T09:07:20.845Z</time></trkpt><trkpt lat="45.0483056" lon="7.8786336"><ele>341.0</ele><time>2026-04-10T09:07:21.845Z</time></trkpt><trkpt lat="45.0483731" lon="7.8786284"><ele>341.0</ele><time>2026-04-10T09:07:22.846Z</time></trkpt><trkpt lat="45.0484893" lon="7.8786481"><ele>340.4</ele><time>2026-04-10T09:07:24.845Z</time></trkpt><trkpt lat="45.0486133" lon="7.8786884"><ele>339.8</ele><time>2026-04-10T09:07:26.847Z</time></trkpt><trkpt lat="45.0487349" lon="7.8787356"><ele>339.2</ele><time>2026-04-10T09:07:28.845Z</time></trkpt><trkpt lat="45.0487835" lon="7.8787961"><ele>338.59999999999997</ele><time>2026-04-10T09:07:29.847Z</time></trkpt><trkpt lat="45.0488183" lon="7.878886"><ele>338.0</ele><time>2026-04-10T09:07:30.846Z</time></trkpt><trkpt lat="45.04885" lon="7.8789932"><ele>338.0</ele><time>2026-04-10T09:07:31.846Z</time></trkpt><trkpt lat="45.0488781" lon="7.8791045"><ele>338.0</ele><time>2026-04-10T09:07:32.846Z</time></trkpt><trkpt lat="45.0489071" lon="7.8792238"><ele>338.0</ele><time>2026-04-10T09:07:33.846Z</time></trkpt><trkpt lat="45.0489396" lon="7.8793299"><ele>338.0</ele><time>2026-04-10T09:07:34.845Z</time></trkpt><trkpt lat="45.0489653" lon="7.8794415"><ele>338.0</ele><time>2026-04-10T09:07:35.845Z</time></trkpt><trkpt lat="45.0489934" lon="7.8795519"><ele>338.0</ele><time>2026-04-10T09:07:36.846Z</time></trkpt><trkpt lat="45.0490174" lon="7.8796667"><ele>336.4</ele><time>2026-04-10T09:07:37.846Z</time></trkpt><trkpt lat="45.0490355" lon="7.8797583"><ele>334.79999999999995</ele><time>2026-04-10T09:07:38.846Z</time></trkpt><trkpt lat="45.0490263" lon="7.8799722"><ele>333.2</ele><time>2026-04-10T09:07:41.846Z</time></trkpt><trkpt lat="45.0489968" lon="7.8801518"><ele>331.6</ele><time>2026-04-10T09:07:43.846Z</time></trkpt><trkpt lat="45.0489857" lon="7.8802589"><ele>330.0</ele><time>2026-04-10T09:07:44.846Z</time></trkpt><trkpt lat="45.0489695" lon="7.8803797"><ele>329.2</ele><time>2026-04-10T09:07:45.848Z</time></trkpt><trkpt lat="45.0489515" lon="7.8805207"><ele>328.4</ele><time>2026-04-10T09:07:46.846Z</time></trkpt><trkpt lat="45.0489332" lon="7.8806769"><ele>327.6</ele><time>2026-04-10T09:07:47.846Z</time></trkpt><trkpt lat="45.0489081" lon="7.8808324"><ele>326.8</ele><time>2026-04-10T09:07:48.846Z</time></trkpt><trkpt lat="45.0488898" lon="7.8809868"><ele>326.0</ele><time>2026-04-10T09:07:49.846Z</time></trkpt><trkpt lat="45.0488667" lon="7.8811469"><ele>324.5</ele><time>2026-04-10T09:07:50.846Z</time></trkpt><trkpt lat="45.0488547" lon="7.8813154"><ele>323.0</ele><time>2026-04-10T09:07:51.846Z</time></trkpt><trkpt lat="45.0488333" lon="7.8814737"><ele>321.5</ele><time>2026-04-10T09:07:52.847Z</time></trkpt><trkpt lat="45.0488211" lon="7.8816362"><ele>320.0</ele><time>2026-04-10T09:07:53.847Z</time></trkpt><trkpt lat="45.0488023" lon="7.8817907"><ele>319.4</ele><time>2026-04-10T09:07:54.846Z</time></trkpt><trkpt lat="45.0487864" lon="7.8819369"><ele>318.8</ele><time>2026-04-10T09:07:55.846Z</time></trkpt><trkpt lat="45.0487771" lon="7.8820912"><ele>318.2</ele><time>2026-04-10T09:07:56.846Z</time></trkpt><trkpt lat="45.0487629" lon="7.8822378"><ele>317.6</ele><time>2026-04-10T09:07:57.848Z</time></trkpt><trkpt lat="45.0487568" lon="7.8823904"><ele>317.0</ele><time>2026-04-10T09:07:58.846Z</time></trkpt><trkpt lat="45.0487478" lon="7.882529"><ele>317.0</ele><time>2026-04-10T09:07:59.845Z</time></trkpt><trkpt lat="45.0487418" lon="7.8826719"><ele>317.0</ele><time>2026-04-10T09:08:00.848Z</time></trkpt><trkpt lat="45.0487319" lon="7.8828096"><ele>317.0</ele><time>2026-04-10T09:08:01.848Z</time></trkpt><trkpt lat="45.048725" lon="7.8829473"><ele>317.0</ele><time>2026-04-10T09:08:02.845Z</time></trkpt><trkpt lat="45.048718" lon="7.8830757"><ele>317.0</ele><time>2026-04-10T09:08:03.846Z</time></trkpt><trkpt lat="45.0487116" lon="7.8831995"><ele>317.0</ele><time>2026-04-10T09:08:04.847Z</time></trkpt><trkpt lat="45.0487078" lon="7.8833287"><ele>317.0</ele><time>2026-04-10T09:08:05.846Z</time></trkpt><trkpt lat="45.048706" lon="7.8834521"><ele>317.0</ele><time>2026-04-10T09:08:06.846Z</time></trkpt><trkpt lat="45.0486982" lon="7.8835612"><ele>317.0</ele><time>2026-04-10T09:08:07.847Z</time></trkpt><trkpt lat="45.0486965" lon="7.883661"><ele>317.0</ele><time>2026-04-10T09:08:08.845Z</time></trkpt><trkpt lat="45.0486866" lon="7.883754"><ele>317.0</ele><time>2026-04-10T09:08:09.847Z</time></trkpt><trkpt lat="45.0486652" lon="7.8839242"><ele>317.33333333333337</ele><time>2026-04-10T09:08:11.846Z</time></trkpt><trkpt lat="45.0486465" lon="7.8840877"><ele>317.6666666666667</ele><time>2026-04-10T09:08:13.846Z</time></trkpt><trkpt lat="45.0486509" lon="7.8842469"><ele>318.0</ele><time>2026-04-10T09:08:15.846Z</time></trkpt><trkpt lat="45.0486571" lon="7.8843411"><ele>318.3333333333333</ele><time>2026-04-10T09:08:16.845Z</time></trkpt><trkpt lat="45.0486598" lon="7.8844396"><ele>318.66666666666663</ele><time>2026-04-10T09:08:17.846Z</time></trkpt><trkpt lat="45.04867" lon="7.8845403"><ele>319.0</ele><time>2026-04-10T09:08:18.847Z</time></trkpt><trkpt lat="45.048676" lon="7.8846338"><ele>318.42857142857144</ele><time>2026-04-10T09:08:19.846Z</time></trkpt><trkpt lat="45.0486792" lon="7.8847256"><ele>317.85714285714283</ele><time>2026-04-10T09:08:20.846Z</time></trkpt><trkpt lat="45.048684" lon="7.8848208"><ele>317.2857142857143</ele><time>2026-04-10T09:08:21.845Z</time></trkpt><trkpt lat="45.0486872" lon="7.884917"><ele>316.7142857142857</ele><time>2026-04-10T09:08:22.846Z</time></trkpt><trkpt lat="45.0486921" lon="7.8850064"><ele>316.1428571428571</ele><time>2026-04-10T09:08:23.847Z</time></trkpt><trkpt lat="45.0486922" lon="7.8851232"><ele>315.57142857142856</ele><time>2026-04-10T09:08:25.847Z</time></trkpt><trkpt lat="45.0486963" lon="7.8852315"><ele>315.0</ele><time>2026-04-10T09:09:00.845Z</time></trkpt><trkpt lat="45.0487012" lon="7.8853289"><ele>314.0</ele><time>2026-04-10T09:09:03.847Z</time></trkpt><trkpt lat="45.0486987" lon="7.8854335"><ele>313.0</ele><time>2026-04-10T09:09:05.846Z</time></trkpt><trkpt lat="45.048694" lon="7.8855545"><ele>312.0</ele><time>2026-04-10T09:09:07.846Z</time></trkpt><trkpt lat="45.0486998" lon="7.8857849"><ele>311.0</ele><time>2026-04-10T09:09:10.848Z</time></trkpt><trkpt lat="45.0487017" lon="7.8859451"><ele>310.0</ele><time>2026-04-10T09:09:12.846Z</time></trkpt><trkpt lat="45.0487074" lon="7.8861154"><ele>308.5</ele><time>2026-04-10T09:09:14.846Z</time></trkpt><trkpt lat="45.0487066" lon="7.8862882"><ele>307.0</ele><time>2026-04-10T09:09:16.846Z</time></trkpt><trkpt lat="45.0487081" lon="7.8863898"><ele>305.5</ele><time>2026-04-10T09:09:17.847Z</time></trkpt><trkpt lat="45.048707" lon="7.8864909"><ele>304.0</ele><time>2026-04-10T09:09:18.846Z</time></trkpt><trkpt lat="45.0487078" lon="7.8865913"><ele>302.5</ele><time>2026-04-10T09:09:19.846Z</time></trkpt><trkpt lat="45.0487096" lon="7.8866875"><ele>301.0</ele><time>2026-04-10T09:09:20.846Z</time></trkpt><trkpt lat="45.0487176" lon="7.8867791"><ele>299.40000000000003</ele><time>2026-04-10T09:09:21.848Z</time></trkpt><trkpt lat="45.0487398" lon="7.8869489"><ele>297.8</ele><time>2026-04-10T09:09:23.846Z</time></trkpt><trkpt lat="45.0487465" lon="7.887066"><ele>296.20000000000005</ele><time>2026-04-10T09:09:25.845Z</time></trkpt><trkpt lat="45.04873" lon="7.8871558"><ele>294.6</ele><time>2026-04-10T09:09:27.846Z</time></trkpt><trkpt lat="45.0486624" lon="7.8871865"><ele>293.0</ele><time>2026-04-10T09:09:29.845Z</time></trkpt><trkpt lat="45.0485474" lon="7.8872089"><ele>293.0</ele><time>2026-04-10T09:09:31.845Z</time></trkpt><trkpt lat="45.0484208" lon="7.8872246"><ele>293.0</ele><time>2026-04-10T09:09:33.847Z</time></trkpt><trkpt lat="45.0483087" lon="7.8872562"><ele>293.0</ele><time>2026-04-10T09:09:35.846Z</time></trkpt><trkpt lat="45.048193" lon="7.8872796"><ele>293.0</ele><time>2026-04-10T09:09:37.847Z</time></trkpt><trkpt lat="45.0481293" lon="7.8872917"><ele>293.0</ele><time>2026-04-10T09:09:38.848Z</time></trkpt><trkpt lat="45.0480134" lon="7.8873111"><ele>292.4</ele><time>2026-04-10T09:09:40.846Z</time></trkpt><trkpt lat="45.0479504" lon="7.8873137"><ele>291.8</ele><time>2026-04-10T09:09:41.846Z</time></trkpt><trkpt lat="45.0478876" lon="7.8873267"><ele>291.2</ele><time>2026-04-10T09:09:42.847Z</time></trkpt><trkpt lat="45.0477681" lon="7.8873354"><ele>290.6</ele><time>2026-04-10T09:09:44.848Z</time></trkpt><trkpt lat="45.0476512" lon="7.887354"><ele>290.0</ele><time>2026-04-10T09:09:46.847Z</time></trkpt><trkpt lat="45.0475253" lon="7.8873734"><ele>290.33333333333337</ele><time>2026-04-10T09:09:48.846Z</time></trkpt><trkpt lat="45.0474587" lon="7.8873882"><ele>290.6666666666667</ele><time>2026-04-10T09:09:49.848Z</time></trkpt><trkpt lat="45.0473348" lon="7.8874007"><ele>291.0</ele><time>2026-04-10T09:09:51.845Z</time></trkpt><trkpt lat="45.0472717" lon="7.8874078"><ele>291.3333333333333</ele><time>2026-04-10T09:09:52.846Z</time></trkpt><trkpt lat="45.0472078" lon="7.8874124"><ele>291.66666666666663</ele><time>2026-04-10T09:09:53.847Z</time></trkpt><trkpt lat="45.0470856" lon="7.8874237"><ele>292.0</ele><time>2026-04-10T09:09:55.845Z</time></trkpt><trkpt lat="45.0470197" lon="7.8874288"><ele>292.0</ele><time>2026-04-10T09:09:56.846Z</time></trkpt><trkpt lat="45.0468934" lon="7.8874553"><ele>292.0</ele><time>2026-04-10T09:09:58.846Z</time></trkpt><trkpt lat="45.0467777" lon="7.8874811"><ele>292.0</ele><time>2026-04-10T09:10:00.847Z</time></trkpt><trkpt lat="45.0466595" lon="7.8875162"><ele>292.0</ele><time>2026-04-10T09:10:02.848Z</time></trkpt><trkpt lat="45.0465936" lon="7.8875311"><ele>292.0</ele><time>2026-04-10T09:10:03.845Z</time></trkpt><trkpt lat="45.0464709" lon="7.8875687"><ele>291.5</ele><time>2026-04-10T09:10:05.846Z</time></trkpt><trkpt lat="45.0463527" lon="7.8876151"><ele>291.0</ele><time>2026-04-10T09:10:07.847Z</time></trkpt><trkpt lat="45.0462345" lon="7.8876665"><ele>290.5</ele><time>2026-04-10T09:10:09.847Z</time></trkpt><trkpt lat="45.0461145" lon="7.887704"><ele>290.0</ele><time>2026-04-10T09:10:11.845Z</time></trkpt><trkpt lat="45.0459985" lon="7.8877387"><ele>290.0</ele><time>2026-04-10T09:10:13.846Z</time></trkpt><trkpt lat="45.0458845" lon="7.887777"><ele>290.0</ele><time>2026-04-10T09:10:15.845Z</time></trkpt><trkpt lat="45.0458238" lon="7.8878055"><ele>290.0</ele><time>2026-04-10T09:10:16.848Z</time></trkpt><trkpt lat="45.0457028" lon="7.8878556"><ele>290.0</ele><time>2026-04-10T09:10:18.847Z</time></trkpt><trkpt lat="45.0456402" lon="7.8878768"><ele>290.0</ele><time>2026-04-10T09:10:19.846Z</time></trkpt><trkpt lat="45.045521" lon="7.8879334"><ele>290.6</ele><time>2026-04-10T09:10:21.846Z</time></trkpt><trkpt lat="45.0454602" lon="7.8879604"><ele>291.2</ele><time>2026-04-10T09:10:22.847Z</time></trkpt><trkpt lat="45.0453325" lon="7.8880243"><ele>291.8</ele><time>2026-04-10T09:10:24.847Z</time></trkpt><trkpt lat="45.0452576" lon="7.8880593"><ele>292.4</ele><time>2026-04-10T09:10:25.847Z</time></trkpt><trkpt lat="45.0451233" lon="7.8880935"><ele>293.0</ele><time>2026-04-10T09:10:27.847Z</time></trkpt><trkpt lat="45.0450238" lon="7.88813"><ele>293.4</ele><time>2026-04-10T09:10:29.846Z</time></trkpt><trkpt lat="45.0449307" lon="7.8881744"><ele>293.8</ele><time>2026-04-10T09:10:31.845Z</time></trkpt><trkpt lat="45.044828" lon="7.8882146"><ele>294.2</ele><time>2026-04-10T09:10:33.847Z</time></trkpt><trkpt lat="45.0447014" lon="7.8882495"><ele>294.6</ele><time>2026-04-10T09:10:35.846Z</time></trkpt><trkpt lat="45.0445973" lon="7.8883007"><ele>295.0</ele><time>2026-04-10T09:10:37.845Z</time></trkpt><trkpt lat="45.044494" lon="7.8883487"><ele>295.0</ele><time>2026-04-10T09:10:39.845Z</time></trkpt><trkpt lat="45.0443931" lon="7.8883963"><ele>295.0</ele><time>2026-04-10T09:10:41.846Z</time></trkpt><trkpt lat="45.0442925" lon="7.8884356"><ele>295.0</ele><time>2026-04-10T09:10:43.848Z</time></trkpt><trkpt lat="45.0442021" lon="7.8884763"><ele>295.0</ele><time>2026-04-10T09:10:45.847Z</time></trkpt><trkpt lat="45.0441677" lon="7.8885731"><ele>295.0</ele><time>2026-04-10T09:10:48.846Z</time></trkpt><trkpt lat="45.0441585" lon="7.8886679"><ele>293.3333333333333</ele><time>2026-04-10T09:10:51.846Z</time></trkpt><trkpt lat="45.0441866" lon="7.8887517"><ele>291.66666666666663</ele><time>2026-04-10T09:10:53.846Z</time></trkpt><trkpt lat="45.0442072" lon="7.8888486"><ele>290.0</ele><time>2026-04-10T09:10:55.846Z</time></trkpt><trkpt lat="45.0442287" lon="7.8889436"><ele>288.3333333333333</ele><time>2026-04-10T09:10:57.846Z</time></trkpt><trkpt lat="45.0442556" lon="7.8890532"><ele>286.6666666666667</ele><time>2026-04-10T09:10:59.847Z</time></trkpt><trkpt lat="45.044281" lon="7.8891704"><ele>285.0</ele><time>2026-04-10T09:11:01.846Z</time></trkpt><trkpt lat="45.0443044" lon="7.8892999"><ele>284.6</ele><time>2026-04-10T09:11:03.847Z</time></trkpt><trkpt lat="45.0443394" lon="7.8894279"><ele>284.2</ele><time>2026-04-10T09:11:05.846Z</time></trkpt><trkpt lat="45.0443765" lon="7.8895395"><ele>283.8</ele><time>2026-04-10T09:11:07.846Z</time></trkpt><trkpt lat="45.0444108" lon="7.8896619"><ele>283.4</ele><time>2026-04-10T09:11:09.845Z</time></trkpt><trkpt lat="45.0444438" lon="7.8897957"><ele>283.0</ele><time>2026-04-10T09:11:11.845Z</time></trkpt><trkpt lat="45.0444709" lon="7.8899347"><ele>283.0</ele><time>2026-04-10T09:11:13.846Z</time></trkpt><trkpt lat="45.0444999" lon="7.8900732"><ele>283.0</ele><time>2026-04-10T09:11:15.845Z</time></trkpt><trkpt lat="45.0445344" lon="7.8902051"><ele>283.0</ele><time>2026-04-10T09:11:17.847Z</time></trkpt><trkpt lat="45.0445733" lon="7.8903454"><ele>283.0</ele><time>2026-04-10T09:11:19.847Z</time></trkpt><trkpt lat="45.044604" lon="7.8904804"><ele>283.0</ele><time>2026-04-10T09:11:21.845Z</time></trkpt><trkpt lat="45.0446405" lon="7.8906165"><ele>283.4</ele><time>2026-04-10T09:11:23.845Z</time></trkpt><trkpt lat="45.0446744" lon="7.8907487"><ele>283.8</ele><time>2026-04-10T09:11:25.847Z</time></trkpt><trkpt lat="45.0447054" lon="7.8908872"><ele>284.2</ele><time>2026-04-10T09:11:27.846Z</time></trkpt><trkpt lat="45.04474" lon="7.891025"><ele>284.6</ele><time>2026-04-10T09:11:29.846Z</time></trkpt><trkpt lat="45.0447743" lon="7.8911583"><ele>285.0</ele><time>2026-04-10T09:11:31.845Z</time></trkpt><trkpt lat="45.0448023" lon="7.8912867"><ele>285.0</ele><time>2026-04-10T09:11:33.846Z</time></trkpt><trkpt lat="45.0448326" lon="7.8914165"><ele>285.0</ele><time>2026-04-10T09:11:35.846Z</time></trkpt><trkpt lat="45.0448745" lon="7.8915623"><ele>285.0</ele><time>2026-04-10T09:11:37.845Z</time></trkpt><trkpt lat="45.0449126" lon="7.8917077"><ele>285.0</ele><time>2026-04-10T09:11:39.846Z</time></trkpt><trkpt lat="45.0449531" lon="7.8918517"><ele>285.0</ele><time>2026-04-10T09:11:41.847Z</time></trkpt><trkpt lat="45.0449758" lon="7.8919834"><ele>285.5</ele><time>2026-04-10T09:11:43.846Z</time></trkpt><trkpt lat="45.0450257" lon="7.8922246"><ele>286.0</ele><time>2026-04-10T09:11:46.846Z</time></trkpt><trkpt lat="45.0450615" lon="7.8923716"><ele>286.5</ele><time>2026-04-10T09:11:48.847Z</time></trkpt><trkpt lat="45.0450922" lon="7.8924911"><ele>287.0</ele><time>2026-04-10T09:11:50.845Z</time></trkpt><trkpt lat="45.0451254" lon="7.8926279"><ele>287.5</ele><time>2026-04-10T09:11:52.846Z</time></trkpt><trkpt lat="45.0451494" lon="7.8927336"><ele>288.0</ele><time>2026-04-10T09:11:54.846Z</time></trkpt><trkpt lat="45.045181" lon="7.8928368"><ele>288.5</ele><time>2026-04-10T09:11:56.846Z</time></trkpt><trkpt lat="45.0452037" lon="7.8929361"><ele>289.0</ele><time>2026-04-10T09:11:58.848Z</time></trkpt><trkpt lat="45.0452411" lon="7.8930152"><ele>289.5</ele><time>2026-04-10T09:12:00.847Z</time></trkpt><trkpt lat="45.0452135" lon="7.8931327"><ele>290.0</ele><time>2026-04-10T09:12:03.846Z</time></trkpt><trkpt lat="45.0451168" lon="7.8931326"><ele>290.0</ele><time>2026-04-10T09:12:05.845Z</time></trkpt><trkpt lat="45.0450531" lon="7.8931313"><ele>290.0</ele><time>2026-04-10T09:12:06.847Z</time></trkpt><trkpt lat="45.0449338" lon="7.8931545"><ele>290.0</ele><time>2026-04-10T09:12:08.847Z</time></trkpt><trkpt lat="45.0448701" lon="7.8931729"><ele>290.0</ele><time>2026-04-10T09:12:09.847Z</time></trkpt><trkpt lat="45.0448071" lon="7.8931988"><ele>290.0</ele><time>2026-04-10T09:12:10.846Z</time></trkpt><trkpt lat="45.0447402" lon="7.8932394"><ele>290.0</ele><time>2026-04-10T09:12:11.846Z</time></trkpt><trkpt lat="45.0446777" lon="7.8932866"><ele>289.2857142857143</ele><time>2026-04-10T09:12:12.845Z</time></trkpt><trkpt lat="45.044619" lon="7.8933398"><ele>288.5714285714286</ele><time>2026-04-10T09:12:13.847Z</time></trkpt><trkpt lat="45.0445665" lon="7.8933963"><ele>287.8571428571429</ele><time>2026-04-10T09:12:14.847Z</time></trkpt><trkpt lat="45.0445164" lon="7.8934545"><ele>287.14285714285717</ele><time>2026-04-10T09:12:15.848Z</time></trkpt><trkpt lat="45.0444534" lon="7.8935127"><ele>286.42857142857144</ele><time>2026-04-10T09:12:16.847Z</time></trkpt><trkpt lat="45.0444047" lon="7.8935802"><ele>285.7142857142857</ele><time>2026-04-10T09:12:17.846Z</time></trkpt><trkpt lat="45.0443513" lon="7.8936522"><ele>285.0</ele><time>2026-04-10T09:12:18.846Z</time></trkpt><trkpt lat="45.0443065" lon="7.8937302"><ele>285.0</ele><time>2026-04-10T09:12:19.845Z</time></trkpt><trkpt lat="45.0442749" lon="7.8938268"><ele>285.0</ele><time>2026-04-10T09:12:20.845Z</time></trkpt><trkpt lat="45.0442261" lon="7.8939049"><ele>285.0</ele><time>2026-04-10T09:12:21.847Z</time></trkpt><trkpt lat="45.0441988" lon="7.8939905"><ele>285.0</ele><time>2026-04-10T09:12:22.845Z</time></trkpt><trkpt lat="45.0441719" lon="7.8940837"><ele>285.0</ele><time>2026-04-10T09:12:23.847Z</time></trkpt><trkpt lat="45.0441387" lon="7.8941671"><ele>285.0</ele><time>2026-04-10T09:12:24.847Z</time></trkpt><trkpt lat="45.0441109" lon="7.8942573"><ele>285.0</ele><time>2026-04-10T09:12:25.846Z</time></trkpt><trkpt lat="45.0440838" lon="7.8943441"><ele>284.8333333333333</ele><time>2026-04-10T09:12:26.846Z</time></trkpt><trkpt lat="45.0440571" lon="7.8944357"><ele>284.6666666666667</ele><time>2026-04-10T09:12:27.848Z</time></trkpt><trkpt lat="45.0440137" lon="7.8946042"><ele>284.5</ele><time>2026-04-10T09:12:29.847Z</time></trkpt><trkpt lat="45.0439959" lon="7.8946987"><ele>284.33333333333337</ele><time>2026-04-10T09:12:30.846Z</time></trkpt><trkpt lat="45.043977" lon="7.8947913"><ele>284.1666666666667</ele><time>2026-04-10T09:12:31.847Z</time></trkpt><trkpt lat="45.0439621" lon="7.8948862"><ele>284.0</ele><time>2026-04-10T09:12:32.846Z</time></trkpt><trkpt lat="45.0439446" lon="7.8949747"><ele>284.0</ele><time>2026-04-10T09:12:33.847Z</time></trkpt><trkpt lat="45.0439236" lon="7.8950587"><ele>284.0</ele><time>2026-04-10T09:12:34.846Z</time></trkpt><trkpt lat="45.0439107" lon="7.895167"><ele>284.0</ele><time>2026-04-10T09:12:35.845Z</time></trkpt><trkpt lat="45.043902" lon="7.8952559"><ele>284.0</ele><time>2026-04-10T09:12:36.847Z</time></trkpt><trkpt lat="45.0438831" lon="7.8953522"><ele>284.0</ele><time>2026-04-10T09:12:37.846Z</time></trkpt><trkpt lat="45.0438635" lon="7.8954431"><ele>284.0</ele><time>2026-04-10T09:12:38.848Z</time></trkpt><trkpt lat="45.0438314" lon="7.8955321"><ele>284.0</ele><time>2026-04-10T09:12:39.845Z</time></trkpt><trkpt lat="45.0437933" lon="7.8956128"><ele>284.57142857142856</ele><time>2026-04-10T09:12:40.846Z</time></trkpt><trkpt lat="45.0437575" lon="7.8956872"><ele>285.1428571428571</ele><time>2026-04-10T09:12:41.847Z</time></trkpt><trkpt lat="45.0437113" lon="7.8957588"><ele>285.7142857142857</ele><time>2026-04-10T09:12:42.847Z</time></trkpt><trkpt lat="45.0436638" lon="7.8958287"><ele>286.2857142857143</ele><time>2026-04-10T09:12:43.846Z</time></trkpt><trkpt lat="45.0436152" lon="7.8958946"><ele>286.8571428571429</ele><time>2026-04-10T09:12:44.848Z</time></trkpt><trkpt lat="45.0435651" lon="7.8959604"><ele>287.42857142857144</ele><time>2026-04-10T09:12:45.847Z</time></trkpt><trkpt lat="45.0435123" lon="7.8960234"><ele>288.0</ele><time>2026-04-10T09:12:46.847Z</time></trkpt><trkpt lat="45.0434641" lon="7.8960832"><ele>290.2</ele><time>2026-04-10T09:12:47.846Z</time></trkpt><trkpt lat="45.0434089" lon="7.8961397"><ele>292.4</ele><time>2026-04-10T09:12:48.847Z</time></trkpt><trkpt lat="45.0433038" lon="7.8962347"><ele>294.59999999999997</ele><time>2026-04-10T09:12:50.847Z</time></trkpt><trkpt lat="45.0432026" lon="7.8963206"><ele>296.8</ele><time>2026-04-10T09:12:52.846Z</time></trkpt><trkpt lat="45.0431436" lon="7.8963611"><ele>299.0</ele><time>2026-04-10T09:12:53.846Z</time></trkpt><trkpt lat="45.0430503" lon="7.8964465"><ele>299.5</ele><time>2026-04-10T09:12:55.847Z</time></trkpt><trkpt lat="45.0429658" lon="7.8965481"><ele>300.0</ele><time>2026-04-10T09:12:57.847Z</time></trkpt><trkpt lat="45.0429125" lon="7.8965956"><ele>300.5</ele><time>2026-04-10T09:12:58.847Z</time></trkpt><trkpt lat="45.0428766" lon="7.896688"><ele>301.0</ele><time>2026-04-10T09:13:00.846Z</time></trkpt><trkpt lat="45.0428494" lon="7.8967974"><ele>301.5</ele><time>2026-04-10T09:13:03.846Z</time></trkpt><trkpt lat="45.042813" lon="7.896929"><ele>302.0</ele><time>2026-04-10T09:13:06.846Z</time></trkpt><trkpt lat="45.0428074" lon="7.8970339"><ele>302.5</ele><time>2026-04-10T09:13:10.845Z</time></trkpt><trkpt lat="45.0427725" lon="7.89712"><ele>303.0</ele><time>2026-04-10T09:13:12.846Z</time></trkpt><trkpt lat="45.0427236" lon="7.8972293"><ele>303.5</ele><time>2026-04-10T09:13:15.845Z</time></trkpt><trkpt lat="45.042675" lon="7.8972962"><ele>304.0</ele><time>2026-04-10T09:13:17.846Z</time></trkpt><trkpt lat="45.0426098" lon="7.8973793"><ele>304.5</ele><time>2026-04-10T09:13:20.848Z</time></trkpt><trkpt lat="45.0425359" lon="7.8974536"><ele>305.0</ele><time>2026-04-10T09:13:23.846Z</time></trkpt><trkpt lat="45.0424655" lon="7.8975151"><ele>304.83333333333337</ele><time>2026-04-10T09:13:26.846Z</time></trkpt><trkpt lat="45.0424092" lon="7.8975782"><ele>304.6666666666667</ele><time>2026-04-10T09:13:29.847Z</time></trkpt><trkpt lat="45.0423524" lon="7.8976266"><ele>304.5</ele><time>2026-04-10T09:13:32.848Z</time></trkpt><trkpt lat="45.0422764" lon="7.8976798"><ele>304.3333333333333</ele><time>2026-04-10T09:14:15.847Z</time></trkpt><trkpt lat="45.0422181" lon="7.897723"><ele>304.16666666666663</ele><time>2026-04-10T09:14:17.846Z</time></trkpt><trkpt lat="45.0421354" lon="7.8978146"><ele>304.0</ele><time>2026-04-10T09:14:19.847Z</time></trkpt><trkpt lat="45.042041" lon="7.8978814"><ele>303.2</ele><time>2026-04-10T09:14:21.847Z</time></trkpt><trkpt lat="45.0419831" lon="7.8980174"><ele>302.4</ele><time>2026-04-10T09:14:23.847Z</time></trkpt><trkpt lat="45.041921" lon="7.8981365"><ele>301.6</ele><time>2026-04-10T09:14:25.847Z</time></trkpt><trkpt lat="45.041859" lon="7.8982608"><ele>300.8</ele><time>2026-04-10T09:14:27.847Z</time></trkpt><trkpt lat="45.0418033" lon="7.8984106"><ele>300.0</ele><time>2026-04-10T09:14:29.846Z</time></trkpt><trkpt lat="45.0417657" lon="7.8985699"><ele>299.8</ele><time>2026-04-10T09:14:31.848Z</time></trkpt><trkpt lat="45.0417348" lon="7.8987452"><ele>299.6</ele><time>2026-04-10T09:14:33.846Z</time></trkpt><trkpt lat="45.0417236" lon="7.8988334"><ele>299.4</ele><time>2026-04-10T09:14:34.846Z</time></trkpt><trkpt lat="45.0417137" lon="7.8990037"><ele>299.2</ele><time>2026-04-10T09:14:36.846Z</time></trkpt><trkpt lat="45.0417072" lon="7.899174"><ele>299.0</ele><time>2026-04-10T09:14:38.846Z</time></trkpt><trkpt lat="45.0417435" lon="7.8993219"><ele>299.59999999999997</ele><time>2026-04-10T09:14:40.847Z</time></trkpt><trkpt lat="45.0418134" lon="7.8994399"><ele>300.2</ele><time>2026-04-10T09:14:42.846Z</time></trkpt><trkpt lat="45.0419141" lon="7.8994627"><ele>300.79999999999995</ele><time>2026-04-10T09:14:44.846Z</time></trkpt><trkpt lat="45.0420298" lon="7.8994678"><ele>301.4</ele><time>2026-04-10T09:14:46.848Z</time></trkpt><trkpt lat="45.0421349" lon="7.8994432"><ele>302.0</ele><time>2026-04-10T09:14:48.845Z</time></trkpt><trkpt lat="45.0422418" lon="7.899454"><ele>302.0</ele><time>2026-04-10T09:14:50.847Z</time></trkpt><trkpt lat="45.0423342" lon="7.8995113"><ele>302.0</ele><time>2026-04-10T09:14:52.848Z</time></trkpt><trkpt lat="45.0423999" lon="7.8996011"><ele>302.0</ele><time>2026-04-10T09:14:54.848Z</time></trkpt><trkpt lat="45.0424696" lon="7.8997733"><ele>302.0</ele><time>2026-04-10T09:14:57.847Z</time></trkpt><trkpt lat="45.0425092" lon="7.8998689"><ele>302.0</ele><time>2026-04-10T09:14:59.846Z</time></trkpt><trkpt lat="45.0425562" lon="7.899986"><ele>303.33333333333337</ele><time>2026-04-10T09:15:01.847Z</time></trkpt><trkpt lat="45.0426062" lon="7.900109"><ele>304.6666666666667</ele><time>2026-04-10T09:15:03.846Z</time></trkpt><trkpt lat="45.0426474" lon="7.9002163"><ele>306.0</ele><time>2026-04-10T09:15:05.848Z</time></trkpt><trkpt lat="45.0427056" lon="7.9003014"><ele>307.3333333333333</ele><time>2026-04-10T09:15:07.847Z</time></trkpt><trkpt lat="45.0427654" lon="7.9003666"><ele>308.66666666666663</ele><time>2026-04-10T09:15:09.847Z</time></trkpt><trkpt lat="45.0428192" lon="7.9004548"><ele>310.0</ele><time>2026-04-10T09:15:11.846Z</time></trkpt><trkpt lat="45.0428743" lon="7.900563"><ele>310.0</ele><time>2026-04-10T09:15:13.846Z</time></trkpt><trkpt lat="45.042923" lon="7.9006454"><ele>310.0</ele><time>2026-04-10T09:15:15.846Z</time></trkpt><trkpt lat="45.0429804" lon="7.9007072"><ele>310.0</ele><time>2026-04-10T09:15:17.847Z</time></trkpt><trkpt lat="45.0430357" lon="7.9007569"><ele>310.0</ele><time>2026-04-10T09:15:19.846Z</time></trkpt><trkpt lat="45.0430924" lon="7.9008176"><ele>310.0</ele><time>2026-04-10T09:15:21.847Z</time></trkpt><trkpt lat="45.0431719" lon="7.9008929"><ele>310.0</ele><time>2026-04-10T09:15:24.846Z</time></trkpt><trkpt lat="45.043228" lon="7.9009362"><ele>310.0</ele><time>2026-04-10T09:15:26.846Z</time></trkpt><trkpt lat="45.0433021" lon="7.9009895"><ele>311.14285714285717</ele><time>2026-04-10T09:15:29.846Z</time></trkpt><trkpt lat="45.0433639" lon="7.9010354"><ele>312.2857142857143</ele><time>2026-04-10T09:15:31.847Z</time></trkpt><trkpt lat="45.0434247" lon="7.9010761"><ele>313.42857142857144</ele><time>2026-04-10T09:15:33.847Z</time></trkpt><trkpt lat="45.0434936" lon="7.9011126"><ele>314.57142857142856</ele><time>2026-04-10T09:15:35.847Z</time></trkpt><trkpt lat="45.0435811" lon="7.901141"><ele>315.7142857142857</ele><time>2026-04-10T09:15:38.845Z</time></trkpt><trkpt lat="45.0436423" lon="7.9011654"><ele>316.85714285714283</ele><time>2026-04-10T09:15:40.845Z</time></trkpt><trkpt lat="45.0437144" lon="7.9011864"><ele>318.0</ele><time>2026-04-10T09:15:42.846Z</time></trkpt><trkpt lat="45.0437881" lon="7.9012046"><ele>318.0</ele><time>2026-04-10T09:15:44.846Z</time></trkpt><trkpt lat="45.0438554" lon="7.9012281"><ele>318.0</ele><time>2026-04-10T09:15:46.849Z</time></trkpt><trkpt lat="45.0439381" lon="7.9012632"><ele>318.0</ele><time>2026-04-10T09:15:49.847Z</time></trkpt><trkpt lat="45.0440182" lon="7.9013291"><ele>318.0</ele><time>2026-04-10T09:15:52.847Z</time></trkpt><trkpt lat="45.0440675" lon="7.9013861"><ele>318.0</ele><time>2026-04-10T09:15:54.846Z</time></trkpt><trkpt lat="45.0441259" lon="7.9014638"><ele>318.0</ele><time>2026-04-10T09:15:57.847Z</time></trkpt><trkpt lat="45.0441589" lon="7.9015438"><ele>318.5</ele><time>2026-04-10T09:16:00.847Z</time></trkpt><trkpt lat="45.044188" lon="7.9016423"><ele>319.0</ele><time>2026-04-10T09:16:03.847Z</time></trkpt><trkpt lat="45.044222" lon="7.9017455"><ele>319.5</ele><time>2026-04-10T09:16:06.847Z</time></trkpt><trkpt lat="45.0442595" lon="7.9018493"><ele>320.0</ele><time>2026-04-10T09:16:09.846Z</time></trkpt><trkpt lat="45.0442851" lon="7.9019477"><ele>320.5</ele><time>2026-04-10T09:16:12.846Z</time></trkpt><trkpt lat="45.0443176" lon="7.9020813"><ele>321.0</ele><time>2026-04-10T09:16:16.846Z</time></trkpt><trkpt lat="45.0443242" lon="7.9021731"><ele>321.1666666666667</ele><time>2026-04-10T09:16:19.846Z</time></trkpt><trkpt lat="45.0442493" lon="7.9021909"><ele>321.3333333333333</ele><time>2026-04-10T09:16:22.846Z</time></trkpt><trkpt lat="45.0441607" lon="7.9021939"><ele>321.5</ele><time>2026-04-10T09:16:25.848Z</time></trkpt><trkpt lat="45.0440916" lon="7.9022052"><ele>321.66666666666663</ele><time>2026-04-10T09:16:28.846Z</time></trkpt><trkpt lat="45.0440137" lon="7.9022226"><ele>321.8333333333333</ele><time>2026-04-10T09:16:31.846Z</time></trkpt><trkpt lat="45.0439407" lon="7.9022274"><ele>322.0</ele><time>2026-04-10T09:16:34.846Z</time></trkpt><trkpt lat="45.0438667" lon="7.9022354"><ele>322.0</ele><time>2026-04-10T09:16:37.846Z</time></trkpt><trkpt lat="45.0437952" lon="7.9022565"><ele>322.0</ele><time>2026-04-10T09:16:40.845Z</time></trkpt><trkpt lat="45.0437209" lon="7.9023219"><ele>322.0</ele><time>2026-04-10T09:16:43.846Z</time></trkpt><trkpt lat="45.0436703" lon="7.9024359"><ele>322.0</ele><time>2026-04-10T09:16:45.846Z</time></trkpt><trkpt lat="45.0436406" lon="7.9025513"><ele>322.0</ele><time>2026-04-10T09:16:47.846Z</time></trkpt><trkpt lat="45.0436012" lon="7.9026498"><ele>322.0</ele><time>2026-04-10T09:16:49.846Z</time></trkpt><trkpt lat="45.0435796" lon="7.9027375"><ele>322.16666666666663</ele><time>2026-04-10T09:16:52.847Z</time></trkpt><trkpt lat="45.0435259" lon="7.9028088"><ele>322.3333333333333</ele><time>2026-04-10T09:16:55.847Z</time></trkpt><trkpt lat="45.0434432" lon="7.9027912"><ele>322.5</ele><time>2026-04-10T09:16:57.846Z</time></trkpt><trkpt lat="45.0433363" lon="7.9027941"><ele>322.6666666666667</ele><time>2026-04-10T09:16:59.848Z</time></trkpt><trkpt lat="45.0432511" lon="7.9027867"><ele>322.83333333333337</ele><time>2026-04-10T09:17:01.849Z</time></trkpt><trkpt lat="45.0431693" lon="7.9028526"><ele>323.0</ele><time>2026-04-10T09:17:03.846Z</time></trkpt><trkpt lat="45.0431425" lon="7.9029818"><ele>322.0</ele><time>2026-04-10T09:17:05.846Z</time></trkpt><trkpt lat="45.0431416" lon="7.903112"><ele>321.0</ele><time>2026-04-10T09:17:07.846Z</time></trkpt><trkpt lat="45.0431104" lon="7.9032231"><ele>320.0</ele><time>2026-04-10T09:17:09.847Z</time></trkpt><trkpt lat="45.0430169" lon="7.9032794"><ele>319.0</ele><time>2026-04-10T09:17:11.847Z</time></trkpt><trkpt lat="45.04295" lon="7.9032834"><ele>318.0</ele><time>2026-04-10T09:17:13.847Z</time></trkpt><trkpt lat="45.0428649" lon="7.9032956"><ele>317.0</ele><time>2026-04-10T09:17:16.846Z</time></trkpt><trkpt lat="45.0427748" lon="7.9032917"><ele>317.0</ele><time>2026-04-10T09:17:18.848Z</time></trkpt><trkpt lat="45.0426789" lon="7.9033004"><ele>317.0</ele><time>2026-04-10T09:17:20.846Z</time></trkpt><trkpt lat="45.0425846" lon="7.9032957"><ele>317.0</ele><time>2026-04-10T09:17:22.845Z</time></trkpt><trkpt lat="45.0424896" lon="7.9033183"><ele>317.0</ele><time>2026-04-10T09:17:24.846Z</time></trkpt><trkpt lat="45.0423953" lon="7.903326"><ele>317.0</ele><time>2026-04-10T09:17:26.846Z</time></trkpt><trkpt lat="45.0423094" lon="7.9033172"><ele>316.6</ele><time>2026-04-10T09:17:28.847Z</time></trkpt><trkpt lat="45.0422163" lon="7.9032901"><ele>316.2</ele><time>2026-04-10T09:17:30.846Z</time></trkpt><trkpt lat="45.0421207" lon="7.9032662"><ele>315.8</ele><time>2026-04-10T09:17:32.847Z</time></trkpt><trkpt lat="45.0420399" lon="7.9032665"><ele>315.4</ele><time>2026-04-10T09:17:33.847Z</time></trkpt><trkpt lat="45.0419736" lon="7.9032489"><ele>315.0</ele><time>2026-04-10T09:17:34.846Z</time></trkpt><trkpt lat="45.0418412" lon="7.9032352"><ele>315.0</ele><time>2026-04-10T09:17:36.846Z</time></trkpt><trkpt lat="45.0417682" lon="7.9032244"><ele>315.0</ele><time>2026-04-10T09:17:37.847Z</time></trkpt><trkpt lat="45.0417046" lon="7.90323"><ele>315.0</ele><time>2026-04-10T09:17:38.846Z</time></trkpt><trkpt lat="45.0415802" lon="7.9032452"><ele>315.0</ele><time>2026-04-10T09:17:40.847Z</time></trkpt><trkpt lat="45.0414612" lon="7.903269"><ele>315.0</ele><time>2026-04-10T09:17:42.846Z</time></trkpt><trkpt lat="45.0413427" lon="7.9032586"><ele>314.6666666666667</ele><time>2026-04-10T09:17:44.847Z</time></trkpt><trkpt lat="45.0412781" lon="7.9032668"><ele>314.3333333333333</ele><time>2026-04-10T09:17:45.848Z</time></trkpt><trkpt lat="45.0411603" lon="7.9033051"><ele>314.0</ele><time>2026-04-10T09:17:47.846Z</time></trkpt><trkpt lat="45.0410639" lon="7.9033231"><ele>313.66666666666663</ele><time>2026-04-10T09:17:49.847Z</time></trkpt><trkpt lat="45.040999" lon="7.903334"><ele>313.3333333333333</ele><time>2026-04-10T09:17:50.847Z</time></trkpt><trkpt lat="45.0409361" lon="7.9033469"><ele>313.0</ele><time>2026-04-10T09:17:51.846Z</time></trkpt><trkpt lat="45.0408635" lon="7.903369"><ele>311.8333333333333</ele><time>2026-04-10T09:17:52.846Z</time></trkpt><trkpt lat="45.0407884" lon="7.9033822"><ele>310.66666666666663</ele><time>2026-04-10T09:17:53.846Z</time></trkpt><trkpt lat="45.0407056" lon="7.9034003"><ele>309.5</ele><time>2026-04-10T09:17:54.846Z</time></trkpt><trkpt lat="45.0406139" lon="7.9034139"><ele>308.3333333333333</ele><time>2026-04-10T09:17:55.846Z</time></trkpt><trkpt lat="45.0405257" lon="7.9034384"><ele>307.1666666666667</ele><time>2026-04-10T09:17:56.847Z</time></trkpt><trkpt lat="45.0404335" lon="7.9034699"><ele>306.0</ele><time>2026-04-10T09:17:57.846Z</time></trkpt><trkpt lat="45.040331" lon="7.9034972"><ele>306.0</ele><time>2026-04-10T09:17:58.846Z</time></trkpt><trkpt lat="45.0402365" lon="7.9035343"><ele>306.0</ele><time>2026-04-10T09:17:59.847Z</time></trkpt><trkpt lat="45.0401396" lon="7.9035699"><ele>306.0</ele><time>2026-04-10T09:18:00.847Z</time></trkpt><trkpt lat="45.0400355" lon="7.903599"><ele>306.0</ele><time>2026-04-10T09:18:01.847Z</time></trkpt><trkpt lat="45.0399273" lon="7.9036211"><ele>306.0</ele><time>2026-04-10T09:18:02.845Z</time></trkpt><trkpt lat="45.039821" lon="7.903656"><ele>303.75</ele><time>2026-04-10T09:18:03.846Z</time></trkpt><trkpt lat="45.039709" lon="7.9036866"><ele>301.5</ele><time>2026-04-10T09:18:04.846Z</time></trkpt><trkpt lat="45.0395876" lon="7.9037154"><ele>299.25</ele><time>2026-04-10T09:18:05.845Z</time></trkpt><trkpt lat="45.0394793" lon="7.9037494"><ele>297.0</ele><time>2026-04-10T09:18:06.846Z</time></trkpt><trkpt lat="45.0393694" lon="7.9037776"><ele>297.0</ele><time>2026-04-10T09:18:07.847Z</time></trkpt><trkpt lat="45.0392627" lon="7.9038101"><ele>297.0</ele><time>2026-04-10T09:18:08.847Z</time></trkpt><trkpt lat="45.0391571" lon="7.9038381"><ele>297.0</ele><time>2026-04-10T09:18:09.846Z</time></trkpt><trkpt lat="45.0390517" lon="7.903871"><ele>297.0</ele><time>2026-04-10T09:18:10.845Z</time></trkpt><trkpt lat="45.0389539" lon="7.9039105"><ele>297.0</ele><time>2026-04-10T09:18:11.847Z</time></trkpt><trkpt lat="45.0388575" lon="7.9039359"><ele>297.0</ele><time>2026-04-10T09:18:12.846Z</time></trkpt><trkpt lat="45.0387537" lon="7.9039688"><ele>297.0</ele><time>2026-04-10T09:18:13.847Z</time></trkpt><trkpt lat="45.0386536" lon="7.9039946"><ele>297.0</ele><time>2026-04-10T09:18:14.847Z</time></trkpt><trkpt lat="45.0385555" lon="7.9040223"><ele>297.0</ele><time>2026-04-10T09:18:15.847Z</time></trkpt><trkpt lat="45.0384599" lon="7.9040462"><ele>297.0</ele><time>2026-04-10T09:18:16.846Z</time></trkpt><trkpt lat="45.0382955" lon="7.9040851"><ele>296.6666666666667</ele><time>2026-04-10T09:18:18.847Z</time></trkpt><trkpt lat="45.038231" lon="7.9040956"><ele>296.3333333333333</ele><time>2026-04-10T09:18:19.847Z</time></trkpt><trkpt lat="45.0381363" lon="7.9041244"><ele>296.0</ele><time>2026-04-10T09:18:21.847Z</time></trkpt><trkpt lat="45.0380707" lon="7.9041428"><ele>295.66666666666663</ele><time>2026-04-10T09:18:23.848Z</time></trkpt><trkpt lat="45.0379854" lon="7.9042114"><ele>295.3333333333333</ele><time>2026-04-10T09:18:26.847Z</time></trkpt><trkpt lat="45.0378996" lon="7.9042995"><ele>295.0</ele><time>2026-04-10T09:18:28.847Z</time></trkpt><trkpt lat="45.0378453" lon="7.9043474"><ele>294.8333333333333</ele><time>2026-04-10T09:18:29.846Z</time></trkpt><trkpt lat="45.0377348" lon="7.9044361"><ele>294.66666666666663</ele><time>2026-04-10T09:18:31.847Z</time></trkpt><trkpt lat="45.0376758" lon="7.9044939"><ele>294.5</ele><time>2026-04-10T09:18:32.847Z</time></trkpt><trkpt lat="45.0376172" lon="7.9045394"><ele>294.3333333333333</ele><time>2026-04-10T09:18:33.846Z</time></trkpt><trkpt lat="45.0375534" lon="7.9045761"><ele>294.1666666666667</ele><time>2026-04-10T09:18:34.846Z</time></trkpt><trkpt lat="45.0374885" lon="7.9046272"><ele>294.0</ele><time>2026-04-10T09:18:35.846Z</time></trkpt><trkpt lat="45.0374324" lon="7.9046784"><ele>294.0</ele><time>2026-04-10T09:18:36.847Z</time></trkpt><trkpt lat="45.0373724" lon="7.9047082"><ele>294.0</ele><time>2026-04-10T09:18:37.847Z</time></trkpt><trkpt lat="45.0373039" lon="7.904725"><ele>294.0</ele><time>2026-04-10T09:18:38.846Z</time></trkpt><trkpt lat="45.0371755" lon="7.9047459"><ele>294.0</ele><time>2026-04-10T09:18:40.847Z</time></trkpt><trkpt lat="45.0370479" lon="7.904716"><ele>294.0</ele><time>2026-04-10T09:18:42.846Z</time></trkpt><trkpt lat="45.0369776" lon="7.9047018"><ele>294.0</ele><time>2026-04-10T09:18:43.847Z</time></trkpt><trkpt lat="45.0369094" lon="7.904678"><ele>294.0</ele><time>2026-04-10T09:18:44.846Z</time></trkpt><trkpt lat="45.0368406" lon="7.9046551"><ele>294.0</ele><time>2026-04-10T09:18:45.846Z</time></trkpt><trkpt lat="45.0367818" lon="7.9046155"><ele>294.0</ele><time>2026-04-10T09:18:46.845Z</time></trkpt><trkpt lat="45.03665" lon="7.9045748"><ele>294.0</ele><time>2026-04-10T09:18:48.847Z</time></trkpt><trkpt lat="45.0365819" lon="7.9045371"><ele>294.0</ele><time>2026-04-10T09:18:49.848Z</time></trkpt><trkpt lat="45.0365164" lon="7.9045188"><ele>294.3333333333333</ele><time>2026-04-10T09:18:50.847Z</time></trkpt><trkpt lat="45.0364506" lon="7.9045103"><ele>294.6666666666667</ele><time>2026-04-10T09:18:51.845Z</time></trkpt><trkpt lat="45.0363254" lon="7.904492"><ele>295.0</ele><time>2026-04-10T09:18:53.846Z</time></trkpt><trkpt lat="45.0362607" lon="7.9044988"><ele>295.33333333333337</ele><time>2026-04-10T09:18:54.847Z</time></trkpt><trkpt lat="45.0361966" lon="7.9045106"><ele>295.6666666666667</ele><time>2026-04-10T09:18:55.845Z</time></trkpt><trkpt lat="45.0361257" lon="7.904517"><ele>296.0</ele><time>2026-04-10T09:18:56.847Z</time></trkpt><trkpt lat="45.0360509" lon="7.904514"><ele>296.0</ele><time>2026-04-10T09:18:57.847Z</time></trkpt><trkpt lat="45.0359807" lon="7.9045258"><ele>296.0</ele><time>2026-04-10T09:18:58.846Z</time></trkpt><trkpt lat="45.0359174" lon="7.9045318"><ele>296.0</ele><time>2026-04-10T09:18:59.847Z</time></trkpt><trkpt lat="45.0358536" lon="7.9045386"><ele>296.0</ele><time>2026-04-10T09:19:00.847Z</time></trkpt><trkpt lat="45.03578" lon="7.9045356"><ele>296.0</ele><time>2026-04-10T09:19:01.847Z</time></trkpt><trkpt lat="45.0357155" lon="7.9045419"><ele>296.0</ele><time>2026-04-10T09:19:02.846Z</time></trkpt><trkpt lat="45.0356521" lon="7.9045411"><ele>296.0</ele><time>2026-04-10T09:19:03.846Z</time></trkpt><trkpt lat="45.0355855" lon="7.9045317"><ele>295.57142857142856</ele><time>2026-04-10T09:19:04.847Z</time></trkpt><trkpt lat="45.0355177" lon="7.9045065"><ele>295.1428571428571</ele><time>2026-04-10T09:19:05.847Z</time></trkpt><trkpt lat="45.0354511" lon="7.9044785"><ele>294.71428571428567</ele><time>2026-04-10T09:19:06.847Z</time></trkpt><trkpt lat="45.0353824" lon="7.9044414"><ele>294.2857142857143</ele><time>2026-04-10T09:19:07.845Z</time></trkpt><trkpt lat="45.0353145" lon="7.9043989"><ele>293.85714285714283</ele><time>2026-04-10T09:19:08.847Z</time></trkpt><trkpt lat="45.0352534" lon="7.9043502"><ele>293.4285714285714</ele><time>2026-04-10T09:19:09.847Z</time></trkpt><trkpt lat="45.0351946" lon="7.904303"><ele>293.0</ele><time>2026-04-10T09:19:10.845Z</time></trkpt><trkpt lat="45.0351325" lon="7.9042541"><ele>292.6666666666667</ele><time>2026-04-10T09:19:11.846Z</time></trkpt><trkpt lat="45.0350736" lon="7.9041967"><ele>292.33333333333337</ele><time>2026-04-10T09:19:12.846Z</time></trkpt><trkpt lat="45.0350117" lon="7.9041452"><ele>292.0</ele><time>2026-04-10T09:19:13.846Z</time></trkpt><trkpt lat="45.0349507" lon="7.9040957"><ele>291.6666666666667</ele><time>2026-04-10T09:19:14.847Z</time></trkpt><trkpt lat="45.0348937" lon="7.9040571"><ele>291.3333333333333</ele><time>2026-04-10T09:19:15.846Z</time></trkpt><trkpt lat="45.0348364" lon="7.904012"><ele>291.0</ele><time>2026-04-10T09:19:16.848Z</time></trkpt><trkpt lat="45.0347197" lon="7.9039278"><ele>291.0</ele><time>2026-04-10T09:19:18.847Z</time></trkpt><trkpt lat="45.0346585" lon="7.9038855"><ele>291.0</ele><time>2026-04-10T09:19:19.846Z</time></trkpt><trkpt lat="45.0345961" lon="7.9038474"><ele>291.0</ele><time>2026-04-10T09:19:20.847Z</time></trkpt><trkpt lat="45.0344129" lon="7.9037759"><ele>291.0</ele><time>2026-04-10T09:19:23.846Z</time></trkpt><trkpt lat="45.0343443" lon="7.9037512"><ele>291.0</ele><time>2026-04-10T09:19:24.847Z</time></trkpt><trkpt lat="45.034275" lon="7.9037313"><ele>291.0</ele><time>2026-04-10T09:19:25.848Z</time></trkpt><trkpt lat="45.0342127" lon="7.9037146"><ele>291.0</ele><time>2026-04-10T09:19:26.848Z</time></trkpt><trkpt lat="45.0341482" lon="7.9037013"><ele>291.0</ele><time>2026-04-10T09:19:27.846Z</time></trkpt><trkpt lat="45.0340227" lon="7.9036899"><ele>291.0</ele><time>2026-04-10T09:19:29.846Z</time></trkpt><trkpt lat="45.0338406" lon="7.9037194"><ele>291.0</ele><time>2026-04-10T09:19:32.847Z</time></trkpt><trkpt lat="45.0337253" lon="7.9037685"><ele>292.25</ele><time>2026-04-10T09:19:34.846Z</time></trkpt><trkpt lat="45.0336198" lon="7.903838"><ele>293.5</ele><time>2026-04-10T09:19:36.845Z</time></trkpt><trkpt lat="45.0335171" lon="7.9039187"><ele>294.75</ele><time>2026-04-10T09:19:38.848Z</time></trkpt><trkpt lat="45.033428" lon="7.904001"><ele>296.0</ele><time>2026-04-10T09:19:40.846Z</time></trkpt><trkpt lat="45.0333249" lon="7.9040929"><ele>296.2</ele><time>2026-04-10T09:19:42.848Z</time></trkpt><trkpt lat="45.0332303" lon="7.904191"><ele>296.40000000000003</ele><time>2026-04-10T09:19:44.847Z</time></trkpt><trkpt lat="45.0331356" lon="7.9042814"><ele>296.6</ele><time>2026-04-10T09:19:46.845Z</time></trkpt><trkpt lat="45.0330502" lon="7.9043804"><ele>296.8</ele><time>2026-04-10T09:19:48.846Z</time></trkpt><trkpt lat="45.0329688" lon="7.9044677"><ele>297.0</ele><time>2026-04-10T09:19:50.846Z</time></trkpt><trkpt lat="45.0328891" lon="7.9045492"><ele>298.3333333333333</ele><time>2026-04-10T09:19:52.848Z</time></trkpt><trkpt lat="45.0328261" lon="7.9046293"><ele>299.6666666666667</ele><time>2026-04-10T09:19:54.848Z</time></trkpt><trkpt lat="45.0327615" lon="7.904698"><ele>301.0</ele><time>2026-04-10T09:19:56.847Z</time></trkpt><trkpt lat="45.0327008" lon="7.9047867"><ele>302.33333333333337</ele><time>2026-04-10T09:19:58.845Z</time></trkpt><trkpt lat="45.0326396" lon="7.9048602"><ele>303.6666666666667</ele><time>2026-04-10T09:20:00.846Z</time></trkpt><trkpt lat="45.0325807" lon="7.9049282"><ele>305.0</ele><time>2026-04-10T09:20:02.848Z</time></trkpt><trkpt lat="45.0325147" lon="7.9049928"><ele>305.5714285714286</ele><time>2026-04-10T09:20:04.847Z</time></trkpt><trkpt lat="45.0324645" lon="7.9050511"><ele>306.1428571428571</ele><time>2026-04-10T09:20:06.846Z</time></trkpt><trkpt lat="45.0324217" lon="7.9051354"><ele>306.7142857142857</ele><time>2026-04-10T09:20:08.846Z</time></trkpt><trkpt lat="45.032388" lon="7.9052327"><ele>307.28571428571433</ele><time>2026-04-10T09:20:10.847Z</time></trkpt><trkpt lat="45.0323527" lon="7.9053214"><ele>307.8571428571429</ele><time>2026-04-10T09:20:12.847Z</time></trkpt><trkpt lat="45.0323118" lon="7.9053912"><ele>308.42857142857144</ele><time>2026-04-10T09:20:14.846Z</time></trkpt><trkpt lat="45.0322668" lon="7.9054616"><ele>309.0</ele><time>2026-04-10T09:20:16.846Z</time></trkpt><trkpt lat="45.0322237" lon="7.9055286"><ele>309.0</ele><time>2026-04-10T09:20:18.846Z</time></trkpt><trkpt lat="45.0321626" lon="7.9056046"><ele>309.0</ele><time>2026-04-10T09:20:21.848Z</time></trkpt><trkpt lat="45.0320915" lon="7.9056573"><ele>309.0</ele><time>2026-04-10T09:20:24.846Z</time></trkpt><trkpt lat="45.0320264" lon="7.9057282"><ele>309.0</ele><time>2026-04-10T09:20:27.847Z</time></trkpt><trkpt lat="45.0319689" lon="7.9057659"><ele>309.0</ele><time>2026-04-10T09:20:29.846Z</time></trkpt><trkpt lat="45.0319067" lon="7.9057951"><ele>309.0</ele><time>2026-04-10T09:20:31.847Z</time></trkpt><trkpt lat="45.0318162" lon="7.9058138"><ele>309.00000000000006</ele><time>2026-04-10T09:20:34.846Z</time></trkpt><trkpt lat="45.0317511" lon="7.9058334"><ele>309.0</ele><time>2026-04-10T09:20:36.848Z</time></trkpt><trkpt lat="45.0316855" lon="7.9058441"><ele>309.0</ele><time>2026-04-10T09:20:38.846Z</time></trkpt><trkpt lat="45.0316181" lon="7.9058565"><ele>309.0</ele><time>2026-04-10T09:20:40.847Z</time></trkpt><trkpt lat="45.0315462" lon="7.9058578"><ele>309.0</ele><time>2026-04-10T09:20:42.845Z</time></trkpt><trkpt lat="45.0314741" lon="7.905848"><ele>309.00000000000006</ele><time>2026-04-10T09:20:44.847Z</time></trkpt><trkpt lat="45.0314056" lon="7.9058329"><ele>309.0</ele><time>2026-04-10T09:20:46.847Z</time></trkpt><trkpt lat="45.0313408" lon="7.9058095"><ele>308.6666666666667</ele><time>2026-04-10T09:20:48.847Z</time></trkpt><trkpt lat="45.0312496" lon="7.9057787"><ele>308.3333333333333</ele><time>2026-04-10T09:20:51.845Z</time></trkpt><trkpt lat="45.0311518" lon="7.9057402"><ele>308.0</ele><time>2026-04-10T09:20:54.847Z</time></trkpt><trkpt lat="45.0310813" lon="7.9057109"><ele>307.66666666666663</ele><time>2026-04-10T09:20:56.847Z</time></trkpt><trkpt lat="45.0310134" lon="7.9056832"><ele>307.3333333333333</ele><time>2026-04-10T09:20:58.847Z</time></trkpt><trkpt lat="45.0309418" lon="7.9056522"><ele>307.0</ele><time>2026-04-10T09:21:00.847Z</time></trkpt><trkpt lat="45.0308574" lon="7.9056296"><ele>307.2</ele><time>2026-04-10T09:21:02.847Z</time></trkpt><trkpt lat="45.0307563" lon="7.905613"><ele>307.4</ele><time>2026-04-10T09:21:04.847Z</time></trkpt><trkpt lat="45.0306472" lon="7.905599"><ele>307.6</ele><time>2026-04-10T09:21:06.846Z</time></trkpt><trkpt lat="45.0305355" lon="7.9055824"><ele>307.8</ele><time>2026-04-10T09:21:08.847Z</time></trkpt><trkpt lat="45.0304697" lon="7.9055663"><ele>308.0</ele><time>2026-04-10T09:21:09.846Z</time></trkpt><trkpt lat="45.0303962" lon="7.9055543"><ele>308.0</ele><time>2026-04-10T09:21:10.847Z</time></trkpt><trkpt lat="45.030268" lon="7.9055143"><ele>308.0</ele><time>2026-04-10T09:21:12.846Z</time></trkpt><trkpt lat="45.0301926" lon="7.9054811"><ele>308.0</ele><time>2026-04-10T09:21:13.846Z</time></trkpt><trkpt lat="45.0301251" lon="7.9054695"><ele>308.0</ele><time>2026-04-10T09:21:14.848Z</time></trkpt><trkpt lat="45.030023" lon="7.9054529"><ele>308.0</ele><time>2026-04-10T09:21:16.848Z</time></trkpt><trkpt lat="45.0299603" lon="7.9054809"><ele>308.0</ele><time>2026-04-10T09:21:18.846Z</time></trkpt><trkpt lat="45.0299429" lon="7.9056062"><ele>307.1666666666667</ele><time>2026-04-10T09:21:20.845Z</time></trkpt><trkpt lat="45.0299042" lon="7.9057426"><ele>306.33333333333337</ele><time>2026-04-10T09:21:22.846Z</time></trkpt><trkpt lat="45.0298768" lon="7.9059164"><ele>305.5</ele><time>2026-04-10T09:21:24.847Z</time></trkpt><trkpt lat="45.0298493" lon="7.9060032"><ele>304.6666666666667</ele><time>2026-04-10T09:21:25.846Z</time></trkpt><trkpt lat="45.0298196" lon="7.9060988"><ele>303.8333333333333</ele><time>2026-04-10T09:21:26.845Z</time></trkpt><trkpt lat="45.0297976" lon="7.9061951"><ele>303.0</ele><time>2026-04-10T09:21:27.846Z</time></trkpt><trkpt lat="45.0297719" lon="7.9062867"><ele>302.2857142857143</ele><time>2026-04-10T09:21:28.847Z</time></trkpt><trkpt lat="45.029747" lon="7.906377"><ele>301.57142857142856</ele><time>2026-04-10T09:21:29.847Z</time></trkpt><trkpt lat="45.0297291" lon="7.9064767"><ele>300.85714285714283</ele><time>2026-04-10T09:21:30.848Z</time></trkpt><trkpt lat="45.0297043" lon="7.9065755"><ele>300.1428571428571</ele><time>2026-04-10T09:21:31.848Z</time></trkpt><trkpt lat="45.0296811" lon="7.9066675"><ele>299.4285714285714</ele><time>2026-04-10T09:21:32.847Z</time></trkpt><trkpt lat="45.0296442" lon="7.9067617"><ele>298.7142857142857</ele><time>2026-04-10T09:21:33.846Z</time></trkpt><trkpt lat="45.0296204" lon="7.9068621"><ele>298.0</ele><time>2026-04-10T09:21:34.846Z</time></trkpt><trkpt lat="45.029588" lon="7.9069577"><ele>297.8333333333333</ele><time>2026-04-10T09:21:35.846Z</time></trkpt><trkpt lat="45.0295464" lon="7.9070497"><ele>297.66666666666663</ele><time>2026-04-10T09:21:36.847Z</time></trkpt><trkpt lat="45.0294938" lon="7.9071295"><ele>297.5</ele><time>2026-04-10T09:21:37.847Z</time></trkpt><trkpt lat="45.0294438" lon="7.9072034"><ele>297.3333333333333</ele><time>2026-04-10T09:21:38.846Z</time></trkpt><trkpt lat="45.029383" lon="7.9072528"><ele>297.1666666666667</ele><time>2026-04-10T09:21:39.847Z</time></trkpt><trkpt lat="45.0292647" lon="7.9073226"><ele>297.0</ele><time>2026-04-10T09:21:41.846Z</time></trkpt><trkpt lat="45.0291526" lon="7.9073761"><ele>296.5</ele><time>2026-04-10T09:21:43.846Z</time></trkpt><trkpt lat="45.0290508" lon="7.9073978"><ele>296.0</ele><time>2026-04-10T09:21:45.846Z</time></trkpt><trkpt lat="45.0289819" lon="7.9074002"><ele>295.5</ele><time>2026-04-10T09:21:46.847Z</time></trkpt><trkpt lat="45.0288561" lon="7.9073858"><ele>295.0</ele><time>2026-04-10T09:21:48.846Z</time></trkpt><trkpt lat="45.0287919" lon="7.9073878"><ele>294.5</ele><time>2026-04-10T09:21:49.847Z</time></trkpt><trkpt lat="45.0287271" lon="7.9074042"><ele>294.0</ele><time>2026-04-10T09:21:50.847Z</time></trkpt><trkpt lat="45.0286638" lon="7.9074201"><ele>294.0</ele><time>2026-04-10T09:21:51.848Z</time></trkpt><trkpt lat="45.0285963" lon="7.9074527"><ele>294.0</ele><time>2026-04-10T09:21:52.846Z</time></trkpt><trkpt lat="45.0285357" lon="7.9074779"><ele>294.0</ele><time>2026-04-10T09:21:53.846Z</time></trkpt><trkpt lat="45.0284237" lon="7.9075283"><ele>294.0</ele><time>2026-04-10T09:21:55.847Z</time></trkpt><trkpt lat="45.0283599" lon="7.9075456"><ele>294.0</ele><time>2026-04-10T09:21:56.846Z</time></trkpt><trkpt lat="45.0282405" lon="7.9076038"><ele>294.0</ele><time>2026-04-10T09:21:58.847Z</time></trkpt><trkpt lat="45.0281786" lon="7.9076344"><ele>293.6666666666667</ele><time>2026-04-10T09:21:59.847Z</time></trkpt><trkpt lat="45.0281144" lon="7.9076662"><ele>293.3333333333333</ele><time>2026-04-10T09:22:00.848Z</time></trkpt><trkpt lat="45.0279813" lon="7.9076959"><ele>293.0</ele><time>2026-04-10T09:22:02.846Z</time></trkpt><trkpt lat="45.0279028" lon="7.9077079"><ele>292.66666666666663</ele><time>2026-04-10T09:22:03.847Z</time></trkpt><trkpt lat="45.0278227" lon="7.9077146"><ele>292.3333333333333</ele><time>2026-04-10T09:22:04.846Z</time></trkpt><trkpt lat="45.0277499" lon="7.9077093"><ele>292.0</ele><time>2026-04-10T09:22:05.847Z</time></trkpt><trkpt lat="45.0276757" lon="7.9076991"><ele>292.0</ele><time>2026-04-10T09:22:06.846Z</time></trkpt><trkpt lat="45.0275993" lon="7.9076946"><ele>292.0</ele><time>2026-04-10T09:22:07.846Z</time></trkpt><trkpt lat="45.0275253" lon="7.9076907"><ele>292.0</ele><time>2026-04-10T09:22:08.847Z</time></trkpt><trkpt lat="45.0274485" lon="7.9076777"><ele>292.0</ele><time>2026-04-10T09:22:09.847Z</time></trkpt><trkpt lat="45.0273778" lon="7.9076721"><ele>292.0</ele><time>2026-04-10T09:22:10.847Z</time></trkpt><trkpt lat="45.0273022" lon="7.9076673"><ele>292.0</ele><time>2026-04-10T09:22:11.846Z</time></trkpt><trkpt lat="45.0272261" lon="7.9076639"><ele>291.85714285714283</ele><time>2026-04-10T09:22:12.848Z</time></trkpt><trkpt lat="45.0271537" lon="7.9076654"><ele>291.7142857142857</ele><time>2026-04-10T09:22:13.847Z</time></trkpt><trkpt lat="45.0270826" lon="7.9076698"><ele>291.57142857142856</ele><time>2026-04-10T09:22:14.847Z</time></trkpt><trkpt lat="45.0270068" lon="7.9076654"><ele>291.42857142857144</ele><time>2026-04-10T09:22:15.846Z</time></trkpt><trkpt lat="45.0269356" lon="7.9076588"><ele>291.2857142857143</ele><time>2026-04-10T09:22:16.848Z</time></trkpt><trkpt lat="45.0268611" lon="7.9076373"><ele>291.1428571428571</ele><time>2026-04-10T09:22:17.847Z</time></trkpt><trkpt lat="45.0267873" lon="7.9076362"><ele>291.0</ele><time>2026-04-10T09:22:18.847Z</time></trkpt><trkpt lat="45.0267154" lon="7.9076222"><ele>290.6666666666667</ele><time>2026-04-10T09:22:19.847Z</time></trkpt><trkpt lat="45.0266401" lon="7.9076053"><ele>290.3333333333333</ele><time>2026-04-10T09:22:20.846Z</time></trkpt><trkpt lat="45.0265704" lon="7.9075902"><ele>290.0</ele><time>2026-04-10T09:22:21.846Z</time></trkpt><trkpt lat="45.0264986" lon="7.9075703"><ele>289.66666666666663</ele><time>2026-04-10T09:22:22.846Z</time></trkpt><trkpt lat="45.0264216" lon="7.9075352"><ele>289.3333333333333</ele><time>2026-04-10T09:22:23.847Z</time></trkpt><trkpt lat="45.0263469" lon="7.9075131"><ele>289.0</ele><time>2026-04-10T09:22:24.847Z</time></trkpt><trkpt lat="45.0262734" lon="7.9074805"><ele>289.0</ele><time>2026-04-10T09:22:25.846Z</time></trkpt><trkpt lat="45.0262002" lon="7.9074466"><ele>289.0</ele><time>2026-04-10T09:22:26.847Z</time></trkpt><trkpt lat="45.026132" lon="7.9074243"><ele>289.0</ele><time>2026-04-10T09:22:27.846Z</time></trkpt><trkpt lat="45.0260572" lon="7.9073963"><ele>289.0</ele><time>2026-04-10T09:22:28.846Z</time></trkpt><trkpt lat="45.0259851" lon="7.9073696"><ele>289.0</ele><time>2026-04-10T09:22:29.847Z</time></trkpt><trkpt lat="45.0259097" lon="7.9073313"><ele>289.0</ele><time>2026-04-10T09:22:30.845Z</time></trkpt><trkpt lat="45.0258325" lon="7.907298"><ele>288.5</ele><time>2026-04-10T09:22:31.846Z</time></trkpt><trkpt lat="45.0257559" lon="7.9072695"><ele>288.0</ele><time>2026-04-10T09:22:32.845Z</time></trkpt><trkpt lat="45.0256774" lon="7.907239"><ele>287.5</ele><time>2026-04-10T09:22:33.846Z</time></trkpt><trkpt lat="45.0255995" lon="7.9072017"><ele>287.0</ele><time>2026-04-10T09:22:34.846Z</time></trkpt><trkpt lat="45.0255256" lon="7.9071683"><ele>286.5</ele><time>2026-04-10T09:22:35.847Z</time></trkpt><trkpt lat="45.0254498" lon="7.9071371"><ele>286.0</ele><time>2026-04-10T09:22:36.846Z</time></trkpt><trkpt lat="45.025377" lon="7.9071108"><ele>285.99999999999994</ele><time>2026-04-10T09:22:37.845Z</time></trkpt><trkpt lat="45.0253083" lon="7.9070875"><ele>286.0</ele><time>2026-04-10T09:22:38.845Z</time></trkpt><trkpt lat="45.0252347" lon="7.9070694"><ele>286.0</ele><time>2026-04-10T09:22:39.847Z</time></trkpt><trkpt lat="45.0251622" lon="7.9070415"><ele>286.0</ele><time>2026-04-10T09:22:40.846Z</time></trkpt><trkpt lat="45.0250924" lon="7.9070144"><ele>286.0</ele><time>2026-04-10T09:22:41.847Z</time></trkpt><trkpt lat="45.0250212" lon="7.9069867"><ele>285.99999999999994</ele><time>2026-04-10T09:22:42.846Z</time></trkpt><trkpt lat="45.0249486" lon="7.9069702"><ele>286.0</ele><time>2026-04-10T09:22:43.845Z</time></trkpt><trkpt lat="45.0248822" lon="7.9069358"><ele>285.57142857142856</ele><time>2026-04-10T09:22:44.845Z</time></trkpt><trkpt lat="45.0248184" lon="7.9069197"><ele>285.1428571428571</ele><time>2026-04-10T09:22:45.848Z</time></trkpt><trkpt lat="45.0247467" lon="7.9068959"><ele>284.7142857142857</ele><time>2026-04-10T09:22:46.847Z</time></trkpt><trkpt lat="45.0246729" lon="7.9068753"><ele>284.2857142857143</ele><time>2026-04-10T09:22:47.846Z</time></trkpt><trkpt lat="45.0245993" lon="7.9068553"><ele>283.8571428571429</ele><time>2026-04-10T09:22:48.847Z</time></trkpt><trkpt lat="45.0245249" lon="7.9068347"><ele>283.42857142857144</ele><time>2026-04-10T09:22:49.848Z</time></trkpt><trkpt lat="45.0244479" lon="7.9068154"><ele>283.0</ele><time>2026-04-10T09:22:50.847Z</time></trkpt><trkpt lat="45.024371" lon="7.9067984"><ele>283.0</ele><time>2026-04-10T09:22:51.846Z</time></trkpt><trkpt lat="45.0242956" lon="7.9067827"><ele>283.0</ele><time>2026-04-10T09:22:52.847Z</time></trkpt><trkpt lat="45.0242167" lon="7.9067636"><ele>283.0</ele><time>2026-04-10T09:22:53.846Z</time></trkpt><trkpt lat="45.0241414" lon="7.9067513"><ele>283.0</ele><time>2026-04-10T09:22:54.846Z</time></trkpt><trkpt lat="45.0240742" lon="7.9067426"><ele>283.0</ele><time>2026-04-10T09:22:55.847Z</time></trkpt><trkpt lat="45.024003" lon="7.9067368"><ele>283.0</ele><time>2026-04-10T09:22:56.847Z</time></trkpt><trkpt lat="45.0239342" lon="7.9067259"><ele>283.0</ele><time>2026-04-10T09:22:57.847Z</time></trkpt><trkpt lat="45.0238667" lon="7.9067201"><ele>283.2857142857143</ele><time>2026-04-10T09:22:58.846Z</time></trkpt><trkpt lat="45.0237988" lon="7.9067155"><ele>283.5714285714286</ele><time>2026-04-10T09:22:59.846Z</time></trkpt><trkpt lat="45.0237281" lon="7.9067005"><ele>283.8571428571429</ele><time>2026-04-10T09:23:00.848Z</time></trkpt><trkpt lat="45.0236576" lon="7.9066862"><ele>284.14285714285717</ele><time>2026-04-10T09:23:01.846Z</time></trkpt><trkpt lat="45.0235883" lon="7.9066732"><ele>284.42857142857144</ele><time>2026-04-10T09:23:02.847Z</time></trkpt><trkpt lat="45.0235124" lon="7.9066558"><ele>284.7142857142857</ele><time>2026-04-10T09:23:03.847Z</time></trkpt><trkpt lat="45.0234408" lon="7.9066404"><ele>285.0</ele><time>2026-04-10T09:23:04.847Z</time></trkpt><trkpt lat="45.023367" lon="7.9066228"><ele>285.0</ele><time>2026-04-10T09:23:05.846Z</time></trkpt><trkpt lat="45.0233007" lon="7.9066043"><ele>285.0</ele><time>2026-04-10T09:23:06.847Z</time></trkpt><trkpt lat="45.0232312" lon="7.9066031"><ele>285.0</ele><time>2026-04-10T09:23:07.846Z</time></trkpt><trkpt lat="45.0231616" lon="7.9065879"><ele>285.0</ele><time>2026-04-10T09:23:08.846Z</time></trkpt><trkpt lat="45.0230366" lon="7.9065519"><ele>285.0</ele><time>2026-04-10T09:23:10.847Z</time></trkpt><trkpt lat="45.02297" lon="7.906532"><ele>285.0</ele><time>2026-04-10T09:23:11.846Z</time></trkpt><trkpt lat="45.0228991" lon="7.9065129"><ele>285.0</ele><time>2026-04-10T09:23:12.847Z</time></trkpt><trkpt lat="45.0228265" lon="7.9065063"><ele>285.0</ele><time>2026-04-10T09:23:13.848Z</time></trkpt><trkpt lat="45.022755" lon="7.906492"><ele>285.0</ele><time>2026-04-10T09:23:14.845Z</time></trkpt><trkpt lat="45.0226801" lon="7.9064726"><ele>285.0</ele><time>2026-04-10T09:23:15.848Z</time></trkpt><trkpt lat="45.0226108" lon="7.9064619"><ele>285.0</ele><time>2026-04-10T09:23:16.846Z</time></trkpt><trkpt lat="45.0225335" lon="7.9064456"><ele>285.0</ele><time>2026-04-10T09:23:17.848Z</time></trkpt><trkpt lat="45.0224607" lon="7.9064292"><ele>285.0</ele><time>2026-04-10T09:23:18.846Z</time></trkpt><trkpt lat="45.0223891" lon="7.9064162"><ele>284.6666666666667</ele><time>2026-04-10T09:23:19.846Z</time></trkpt><trkpt lat="45.0223209" lon="7.9064039"><ele>284.3333333333333</ele><time>2026-04-10T09:23:20.847Z</time></trkpt><trkpt lat="45.0222167" lon="7.906375"><ele>284.0</ele><time>2026-04-10T09:23:22.847Z</time></trkpt><trkpt lat="45.022153" lon="7.9064017"><ele>283.66666666666663</ele><time>2026-04-10T09:23:24.845Z</time></trkpt><trkpt lat="45.022131" lon="7.9064873"><ele>283.3333333333333</ele><time>2026-04-10T09:23:26.847Z</time></trkpt><trkpt lat="45.0221134" lon="7.906613"><ele>283.0</ele><time>2026-04-10T09:23:28.847Z</time></trkpt><trkpt lat="45.022099" lon="7.9067812"><ele>282.5</ele><time>2026-04-10T09:23:30.847Z</time></trkpt><trkpt lat="45.0220837" lon="7.9069751"><ele>282.0</ele><time>2026-04-10T09:23:32.848Z</time></trkpt><trkpt lat="45.0220762" lon="7.9070757"><ele>281.5</ele><time>2026-04-10T09:23:33.847Z</time></trkpt><trkpt lat="45.0220674" lon="7.9071742"><ele>281.0</ele><time>2026-04-10T09:23:34.847Z</time></trkpt><trkpt lat="45.0220537" lon="7.9072731"><ele>280.5</ele><time>2026-04-10T09:23:35.847Z</time></trkpt><trkpt lat="45.0220377" lon="7.9073673"><ele>280.0</ele><time>2026-04-10T09:23:36.846Z</time></trkpt><trkpt lat="45.0220286" lon="7.9074576"><ele>280.0</ele><time>2026-04-10T09:23:37.845Z</time></trkpt><trkpt lat="45.0220262" lon="7.9075591"><ele>280.0</ele><time>2026-04-10T09:23:38.845Z</time></trkpt><trkpt lat="45.0220196" lon="7.9076574"><ele>280.0</ele><time>2026-04-10T09:23:39.846Z</time></trkpt><trkpt lat="45.0220148" lon="7.9077554"><ele>280.0</ele><time>2026-04-10T09:23:40.846Z</time></trkpt><trkpt lat="45.022011" lon="7.9078535"><ele>280.0</ele><time>2026-04-10T09:23:41.846Z</time></trkpt><trkpt lat="45.0219985" lon="7.9079597"><ele>280.0</ele><time>2026-04-10T09:23:42.847Z</time></trkpt><trkpt lat="45.0219903" lon="7.9080583"><ele>280.0</ele><time>2026-04-10T09:23:43.845Z</time></trkpt><trkpt lat="45.0219706" lon="7.9082641"><ele>279.8333333333333</ele><time>2026-04-10T09:23:45.845Z</time></trkpt><trkpt lat="45.0219617" lon="7.9083606"><ele>279.66666666666663</ele><time>2026-04-10T09:23:46.846Z</time></trkpt><trkpt lat="45.0219524" lon="7.9084522"><ele>279.5</ele><time>2026-04-10T09:23:47.847Z</time></trkpt><trkpt lat="45.0219415" lon="7.9085444"><ele>279.3333333333333</ele><time>2026-04-10T09:23:48.846Z</time></trkpt><trkpt lat="45.0219293" lon="7.9086365"><ele>279.1666666666667</ele><time>2026-04-10T09:23:49.846Z</time></trkpt><trkpt lat="45.0219191" lon="7.9087339"><ele>279.0</ele><time>2026-04-10T09:23:50.846Z</time></trkpt><trkpt lat="45.0219058" lon="7.9089222"><ele>278.8333333333333</ele><time>2026-04-10T09:23:52.847Z</time></trkpt><trkpt lat="45.0218946" lon="7.9090195"><ele>278.6666666666667</ele><time>2026-04-10T09:23:53.847Z</time></trkpt><trkpt lat="45.0218767" lon="7.909121"><ele>278.5</ele><time>2026-04-10T09:23:54.847Z</time></trkpt><trkpt lat="45.021843" lon="7.9093049"><ele>278.33333333333337</ele><time>2026-04-10T09:23:56.848Z</time></trkpt><trkpt lat="45.0218176" lon="7.9093986"><ele>278.1666666666667</ele><time>2026-04-10T09:23:57.846Z</time></trkpt><trkpt lat="45.0217835" lon="7.9094765"><ele>278.0</ele><time>2026-04-10T09:23:58.847Z</time></trkpt><trkpt lat="45.0217506" lon="7.9095531"><ele>278.0</ele><time>2026-04-10T09:23:59.846Z</time></trkpt><trkpt lat="45.0217115" lon="7.9097215"><ele>278.0</ele><time>2026-04-10T09:24:01.847Z</time></trkpt><trkpt lat="45.0216705" lon="7.9098871"><ele>278.0</ele><time>2026-04-10T09:24:03.847Z</time></trkpt><trkpt lat="45.021624" lon="7.9100389"><ele>278.0</ele><time>2026-04-10T09:24:05.847Z</time></trkpt><trkpt lat="45.0215717" lon="7.9102029"><ele>277.83333333333337</ele><time>2026-04-10T09:24:07.846Z</time></trkpt><trkpt lat="45.0215456" lon="7.9102845"><ele>277.6666666666667</ele><time>2026-04-10T09:24:08.846Z</time></trkpt><trkpt lat="45.0214975" lon="7.9104438"><ele>277.5</ele><time>2026-04-10T09:24:10.845Z</time></trkpt><trkpt lat="45.0214484" lon="7.9106033"><ele>277.3333333333333</ele><time>2026-04-10T09:24:12.846Z</time></trkpt><trkpt lat="45.0214324" lon="7.9106904"><ele>277.16666666666663</ele><time>2026-04-10T09:24:13.848Z</time></trkpt><trkpt lat="45.0214177" lon="7.9107815"><ele>277.0</ele><time>2026-04-10T09:24:14.845Z</time></trkpt><trkpt lat="45.0214263" lon="7.9109633"><ele>277.0</ele><time>2026-04-10T09:24:16.847Z</time></trkpt><trkpt lat="45.0214454" lon="7.9111283"><ele>277.0</ele><time>2026-04-10T09:24:18.847Z</time></trkpt><trkpt lat="45.021445" lon="7.9113048"><ele>277.0</ele><time>2026-04-10T09:24:20.847Z</time></trkpt><trkpt lat="45.0214443" lon="7.9114725"><ele>277.0</ele><time>2026-04-10T09:24:22.846Z</time></trkpt><trkpt lat="45.021449" lon="7.9116461"><ele>277.0</ele><time>2026-04-10T09:24:24.846Z</time></trkpt><trkpt lat="45.021452" lon="7.9117393"><ele>277.0</ele><time>2026-04-10T09:24:25.847Z</time></trkpt><trkpt lat="45.0214563" lon="7.91183"><ele>277.0</ele><time>2026-04-10T09:24:26.847Z</time></trkpt><trkpt lat="45.0214623" lon="7.9119218"><ele>277.0</ele><time>2026-04-10T09:24:27.846Z</time></trkpt><trkpt lat="45.0214674" lon="7.9120152"><ele>277.0</ele><time>2026-04-10T09:24:28.846Z</time></trkpt><trkpt lat="45.0214696" lon="7.9121101"><ele>277.0</ele><time>2026-04-10T09:24:29.846Z</time></trkpt><trkpt lat="45.021469" lon="7.9122074"><ele>277.0</ele><time>2026-04-10T09:24:30.848Z</time></trkpt><trkpt lat="45.0214447" lon="7.9123817"><ele>278.0</ele><time>2026-04-10T09:24:32.847Z</time></trkpt><trkpt lat="45.0214228" lon="7.9124672"><ele>279.0</ele><time>2026-04-10T09:24:33.847Z</time></trkpt><trkpt lat="45.021404" lon="7.912555"><ele>280.0</ele><time>2026-04-10T09:24:34.846Z</time></trkpt><trkpt lat="45.0213733" lon="7.9127197"><ele>281.0</ele><time>2026-04-10T09:24:36.846Z</time></trkpt><trkpt lat="45.0213478" lon="7.9128744"><ele>282.0</ele><time>2026-04-10T09:24:38.847Z</time></trkpt><trkpt lat="45.021337" lon="7.9130443"><ele>282.0</ele><time>2026-04-10T09:24:40.848Z</time></trkpt><trkpt lat="45.0213251" lon="7.9131342"><ele>282.0</ele><time>2026-04-10T09:24:41.846Z</time></trkpt><trkpt lat="45.0213162" lon="7.9132271"><ele>282.0</ele><time>2026-04-10T09:24:42.846Z</time></trkpt><trkpt lat="45.0212951" lon="7.9133894"><ele>282.0</ele><time>2026-04-10T09:24:44.845Z</time></trkpt><trkpt lat="45.0212737" lon="7.913477"><ele>282.0</ele><time>2026-04-10T09:24:45.847Z</time></trkpt><trkpt lat="45.0212562" lon="7.913565"><ele>282.0</ele><time>2026-04-10T09:24:46.848Z</time></trkpt><trkpt lat="45.0212314" lon="7.9136486"><ele>282.0</ele><time>2026-04-10T09:24:47.846Z</time></trkpt><trkpt lat="45.0211995" lon="7.9137323"><ele>282.0</ele><time>2026-04-10T09:24:48.846Z</time></trkpt><trkpt lat="45.0211662" lon="7.9138168"><ele>282.0</ele><time>2026-04-10T09:24:49.846Z</time></trkpt><trkpt lat="45.0211392" lon="7.9138984"><ele>282.0</ele><time>2026-04-10T09:24:50.846Z</time></trkpt><trkpt lat="45.0211067" lon="7.9140691"><ele>282.0</ele><time>2026-04-10T09:24:52.846Z</time></trkpt><trkpt lat="45.0211013" lon="7.9141603"><ele>282.0</ele><time>2026-04-10T09:24:53.845Z</time></trkpt><trkpt lat="45.0210906" lon="7.9143348"><ele>282.0</ele><time>2026-04-10T09:24:55.846Z</time></trkpt><trkpt lat="45.0210828" lon="7.9144993"><ele>282.0</ele><time>2026-04-10T09:24:57.847Z</time></trkpt><trkpt lat="45.0210835" lon="7.9146457"><ele>282.0</ele><time>2026-04-10T09:24:59.846Z</time></trkpt><trkpt lat="45.0210806" lon="7.914772"><ele>282.0</ele><time>2026-04-10T09:25:01.848Z</time></trkpt><trkpt lat="45.0210724" lon="7.9149031"><ele>282.0</ele><time>2026-04-10T09:25:03.846Z</time></trkpt><trkpt lat="45.021074" lon="7.915049"><ele>282.0</ele><time>2026-04-10T09:25:05.848Z</time></trkpt><trkpt lat="45.021078" lon="7.9151859"><ele>282.0</ele><time>2026-04-10T09:25:07.846Z</time></trkpt><trkpt lat="45.021089" lon="7.9153369"><ele>282.0</ele><time>2026-04-10T09:25:09.847Z</time></trkpt><trkpt lat="45.0211037" lon="7.9154894"><ele>282.0</ele><time>2026-04-10T09:25:11.846Z</time></trkpt><trkpt lat="45.0211077" lon="7.9156396"><ele>282.0</ele><time>2026-04-10T09:25:13.847Z</time></trkpt><trkpt lat="45.0211058" lon="7.9158009"><ele>282.0</ele><time>2026-04-10T09:25:15.846Z</time></trkpt><trkpt lat="45.0211094" lon="7.9159576"><ele>283.4</ele><time>2026-04-10T09:25:17.847Z</time></trkpt><trkpt lat="45.0211137" lon="7.9161169"><ele>284.79999999999995</ele><time>2026-04-10T09:25:19.847Z</time></trkpt><trkpt lat="45.0211161" lon="7.9162704"><ele>286.2</ele><time>2026-04-10T09:25:21.847Z</time></trkpt><trkpt lat="45.0211138" lon="7.9164109"><ele>287.59999999999997</ele><time>2026-04-10T09:25:23.847Z</time></trkpt><trkpt lat="45.0211063" lon="7.9165191"><ele>289.0</ele><time>2026-04-10T09:25:25.848Z</time></trkpt><trkpt lat="45.0211009" lon="7.9166177"><ele>288.66666666666663</ele><time>2026-04-10T09:25:28.846Z</time></trkpt><trkpt lat="45.0210758" lon="7.9167421"><ele>288.3333333333333</ele><time>2026-04-10T09:25:31.847Z</time></trkpt><trkpt lat="45.021059" lon="7.9168655"><ele>288.0</ele><time>2026-04-10T09:25:34.847Z</time></trkpt><trkpt lat="45.0210315" lon="7.9169488"><ele>287.6666666666667</ele><time>2026-04-10T09:25:36.846Z</time></trkpt><trkpt lat="45.0210033" lon="7.9170538"><ele>287.33333333333337</ele><time>2026-04-10T09:25:39.847Z</time></trkpt><trkpt lat="45.0209881" lon="7.9171449"><ele>287.0</ele><time>2026-04-10T09:25:42.848Z</time></trkpt><trkpt lat="45.020967" lon="7.9172595"><ele>287.0</ele><time>2026-04-10T09:25:45.847Z</time></trkpt><trkpt lat="45.020877" lon="7.9173135"><ele>287.0</ele><time>2026-04-10T09:25:48.847Z</time></trkpt><trkpt lat="45.0208015" lon="7.9173329"><ele>287.0</ele><time>2026-04-10T09:25:50.848Z</time></trkpt><trkpt lat="45.0207315" lon="7.9173703"><ele>287.0</ele><time>2026-04-10T09:25:52.847Z</time></trkpt><trkpt lat="45.020649" lon="7.9174395"><ele>287.0</ele><time>2026-04-10T09:25:54.847Z</time></trkpt><trkpt lat="45.0205749" lon="7.917547"><ele>287.0</ele><time>2026-04-10T09:25:56.847Z</time></trkpt><trkpt lat="45.0205346" lon="7.9176883"><ele>287.0</ele><time>2026-04-10T09:25:58.846Z</time></trkpt><trkpt lat="45.0205341" lon="7.9177867"><ele>287.0</ele><time>2026-04-10T09:25:59.847Z</time></trkpt><trkpt lat="45.0205306" lon="7.9179709"><ele>287.0</ele><time>2026-04-10T09:26:01.846Z</time></trkpt><trkpt lat="45.0205181" lon="7.9181579"><ele>287.0</ele><time>2026-04-10T09:26:03.846Z</time></trkpt><trkpt lat="45.0205101" lon="7.9182528"><ele>287.0</ele><time>2026-04-10T09:26:04.847Z</time></trkpt><trkpt lat="45.0205009" lon="7.9183486"><ele>287.0</ele><time>2026-04-10T09:26:05.847Z</time></trkpt><trkpt lat="45.020493" lon="7.9184455"><ele>287.0</ele><time>2026-04-10T09:26:06.848Z</time></trkpt><trkpt lat="45.0204809" lon="7.918549"><ele>287.0</ele><time>2026-04-10T09:26:07.847Z</time></trkpt><trkpt lat="45.0204635" lon="7.9186484"><ele>287.0</ele><time>2026-04-10T09:26:08.848Z</time></trkpt><trkpt lat="45.0204527" lon="7.918747"><ele>287.0</ele><time>2026-04-10T09:26:09.847Z</time></trkpt><trkpt lat="45.0204433" lon="7.9188497"><ele>287.0</ele><time>2026-04-10T09:26:10.846Z</time></trkpt><trkpt lat="45.0204371" lon="7.9189503"><ele>286.57142857142856</ele><time>2026-04-10T09:26:11.847Z</time></trkpt><trkpt lat="45.0204337" lon="7.9190442"><ele>286.1428571428571</ele><time>2026-04-10T09:26:12.846Z</time></trkpt><trkpt lat="45.0204207" lon="7.9191396"><ele>285.7142857142857</ele><time>2026-04-10T09:26:13.846Z</time></trkpt><trkpt lat="45.0204093" lon="7.9192332"><ele>285.2857142857143</ele><time>2026-04-10T09:26:14.846Z</time></trkpt><trkpt lat="45.0203982" lon="7.9193316"><ele>284.85714285714283</ele><time>2026-04-10T09:26:15.847Z</time></trkpt><trkpt lat="45.0203855" lon="7.9194313"><ele>284.42857142857144</ele><time>2026-04-10T09:26:16.847Z</time></trkpt><trkpt lat="45.0203755" lon="7.9195275"><ele>284.0</ele><time>2026-04-10T09:26:17.846Z</time></trkpt><trkpt lat="45.020377" lon="7.9196309"><ele>284.0</ele><time>2026-04-10T09:26:18.847Z</time></trkpt><trkpt lat="45.0203744" lon="7.9197307"><ele>284.0</ele><time>2026-04-10T09:26:19.846Z</time></trkpt><trkpt lat="45.0203691" lon="7.9198234"><ele>284.0</ele><time>2026-04-10T09:26:20.847Z</time></trkpt><trkpt lat="45.0203659" lon="7.9199223"><ele>284.0</ele><time>2026-04-10T09:26:21.848Z</time></trkpt><trkpt lat="45.0203645" lon="7.9200221"><ele>284.0</ele><time>2026-04-10T09:26:22.846Z</time></trkpt><trkpt lat="45.0203521" lon="7.920195"><ele>284.0</ele><time>2026-04-10T09:26:24.847Z</time></trkpt><trkpt lat="45.0203491" lon="7.9202852"><ele>284.0</ele><time>2026-04-10T09:26:25.847Z</time></trkpt><trkpt lat="45.0203515" lon="7.9204604"><ele>284.0</ele><time>2026-04-10T09:26:27.846Z</time></trkpt><trkpt lat="45.0203547" lon="7.9206279"><ele>284.0</ele><time>2026-04-10T09:26:29.846Z</time></trkpt><trkpt lat="45.0203586" lon="7.9207822"><ele>284.0</ele><time>2026-04-10T09:26:31.847Z</time></trkpt><trkpt lat="45.020355" lon="7.920922"><ele>285.0</ele><time>2026-04-10T09:26:33.848Z</time></trkpt><trkpt lat="45.0203521" lon="7.9210536"><ele>286.0</ele><time>2026-04-10T09:26:35.846Z</time></trkpt><trkpt lat="45.0203589" lon="7.9211622"><ele>287.0</ele><time>2026-04-10T09:26:37.846Z</time></trkpt><trkpt lat="45.0203562" lon="7.9212626"><ele>288.0</ele><time>2026-04-10T09:26:39.846Z</time></trkpt><trkpt lat="45.020352" lon="7.9213771"><ele>289.0</ele><time>2026-04-10T09:26:42.845Z</time></trkpt><trkpt lat="45.0203543" lon="7.9215075"><ele>290.0</ele><time>2026-04-10T09:26:45.845Z</time></trkpt><trkpt lat="45.0203538" lon="7.9215968"><ele>290.0</ele><time>2026-04-10T09:26:47.846Z</time></trkpt><trkpt lat="45.020354" lon="7.9217279"><ele>290.0</ele><time>2026-04-10T09:26:50.846Z</time></trkpt><trkpt lat="45.0203471" lon="7.9218196"><ele>290.0</ele><time>2026-04-10T09:26:52.847Z</time></trkpt><trkpt lat="45.0203394" lon="7.9219432"><ele>290.0</ele><time>2026-04-10T09:26:55.847Z</time></trkpt><trkpt lat="45.0203279" lon="7.9220344"><ele>290.0</ele><time>2026-04-10T09:26:57.846Z</time></trkpt><trkpt lat="45.0203081" lon="7.9221238"><ele>290.0</ele><time>2026-04-10T09:26:59.846Z</time></trkpt><trkpt lat="45.0202816" lon="7.9222147"><ele>290.0</ele><time>2026-04-10T09:27:01.847Z</time></trkpt><trkpt lat="45.0202558" lon="7.9223048"><ele>290.1666666666667</ele><time>2026-04-10T09:27:03.847Z</time></trkpt><trkpt lat="45.020237" lon="7.922403"><ele>290.33333333333337</ele><time>2026-04-10T09:27:05.847Z</time></trkpt><trkpt lat="45.0202169" lon="7.9224907"><ele>290.5</ele><time>2026-04-10T09:27:07.846Z</time></trkpt><trkpt lat="45.0202067" lon="7.9225871"><ele>290.6666666666667</ele><time>2026-04-10T09:27:09.847Z</time></trkpt><trkpt lat="45.0202006" lon="7.9226975"><ele>290.8333333333333</ele><time>2026-04-10T09:27:11.847Z</time></trkpt><trkpt lat="45.0201904" lon="7.9228111"><ele>291.0</ele><time>2026-04-10T09:27:13.846Z</time></trkpt><trkpt lat="45.0201966" lon="7.9229433"><ele>291.0</ele><time>2026-04-10T09:27:15.846Z</time></trkpt><trkpt lat="45.0201875" lon="7.9230833"><ele>291.0</ele><time>2026-04-10T09:27:17.846Z</time></trkpt><trkpt lat="45.0201859" lon="7.9232043"><ele>291.0</ele><time>2026-04-10T09:27:19.847Z</time></trkpt><trkpt lat="45.0201843" lon="7.9233508"><ele>291.0</ele><time>2026-04-10T09:27:21.847Z</time></trkpt><trkpt lat="45.0201872" lon="7.9234796"><ele>291.0</ele><time>2026-04-10T09:27:23.846Z</time></trkpt><trkpt lat="45.0202004" lon="7.9236102"><ele>290.8</ele><time>2026-04-10T09:27:25.847Z</time></trkpt><trkpt lat="45.0202055" lon="7.9237493"><ele>290.6</ele><time>2026-04-10T09:27:27.847Z</time></trkpt><trkpt lat="45.0202185" lon="7.9238844"><ele>290.4</ele><time>2026-04-10T09:27:29.846Z</time></trkpt><trkpt lat="45.0202335" lon="7.9240365"><ele>290.2</ele><time>2026-04-10T09:27:31.846Z</time></trkpt><trkpt lat="45.0202665" lon="7.9241964"><ele>290.0</ele><time>2026-04-10T09:27:33.847Z</time></trkpt><trkpt lat="45.0203029" lon="7.924358"><ele>289.5</ele><time>2026-04-10T09:27:35.847Z</time></trkpt><trkpt lat="45.0203319" lon="7.9245117"><ele>289.0</ele><time>2026-04-10T09:27:37.846Z</time></trkpt><trkpt lat="45.0203356" lon="7.9246727"><ele>288.5</ele><time>2026-04-10T09:27:39.847Z</time></trkpt><trkpt lat="45.0203204" lon="7.9248374"><ele>288.0</ele><time>2026-04-10T09:27:41.847Z</time></trkpt><trkpt lat="45.0203136" lon="7.9250072"><ele>288.0</ele><time>2026-04-10T09:27:43.848Z</time></trkpt><trkpt lat="45.0203036" lon="7.9251441"><ele>288.0</ele><time>2026-04-10T09:27:45.846Z</time></trkpt><trkpt lat="45.0203289" lon="7.925029"><ele>288.0</ele><time>2026-04-10T09:28:02.847Z</time></trkpt><trkpt lat="45.0203354" lon="7.9249395"><ele>288.0</ele><time>2026-04-10T09:28:04.846Z</time></trkpt><trkpt lat="45.0203362" lon="7.9248412"><ele>288.0</ele><time>2026-04-10T09:28:06.848Z</time></trkpt><trkpt lat="45.0203402" lon="7.9247359"><ele>288.0</ele><time>2026-04-10T09:28:08.847Z</time></trkpt><trkpt lat="45.0203446" lon="7.9246261"><ele>288.0</ele><time>2026-04-10T09:28:10.846Z</time></trkpt><trkpt lat="45.0203427" lon="7.924514"><ele>288.0</ele><time>2026-04-10T09:28:12.846Z</time></trkpt><trkpt lat="45.0203241" lon="7.9243925"><ele>288.0</ele><time>2026-04-10T09:28:14.846Z</time></trkpt><trkpt lat="45.0202952" lon="7.9242719"><ele>288.0</ele><time>2026-04-10T09:28:16.846Z</time></trkpt><trkpt lat="45.0202579" lon="7.9241513"><ele>288.0</ele><time>2026-04-10T09:28:18.847Z</time></trkpt><trkpt lat="45.0202312" lon="7.9240398"><ele>288.0</ele><time>2026-04-10T09:28:20.846Z</time></trkpt><trkpt lat="45.0202176" lon="7.9239451"><ele>288.00000000000006</ele><time>2026-04-10T09:28:22.846Z</time></trkpt><trkpt lat="45.0201518" lon="7.9239512"><ele>288.0</ele><time>2026-04-10T09:29:44.847Z</time></trkpt><trkpt lat="45.02022" lon="7.9239698"><ele>288.0</ele><time>2026-04-10T09:31:37.847Z</time></trkpt><trkpt lat="45.0202253" lon="7.9240613"><ele>288.0</ele><time>2026-04-10T09:31:55.847Z</time></trkpt><trkpt lat="45.0202469" lon="7.9241817"><ele>288.0</ele><time>2026-04-10T09:31:58.846Z</time></trkpt><trkpt lat="45.0202756" lon="7.9242827"><ele>288.00000000000006</ele><time>2026-04-10T09:32:00.847Z</time></trkpt><trkpt lat="45.0203" lon="7.9243914"><ele>288.0</ele><time>2026-04-10T09:32:02.847Z</time></trkpt><trkpt lat="45.0203192" lon="7.9245087"><ele>288.0</ele><time>2026-04-10T09:32:04.845Z</time></trkpt><trkpt lat="45.0203208" lon="7.9246336"><ele>288.0</ele><time>2026-04-10T09:32:06.845Z</time></trkpt><trkpt lat="45.0203102" lon="7.9247921"><ele>288.0</ele><time>2026-04-10T09:32:08.847Z</time></trkpt><trkpt lat="45.020304" lon="7.9249513"><ele>288.0</ele><time>2026-04-10T09:32:10.847Z</time></trkpt><trkpt lat="45.0202952" lon="7.9251162"><ele>288.0</ele><time>2026-04-10T09:32:12.845Z</time></trkpt><trkpt lat="45.0202782" lon="7.9252722"><ele>287.75</ele><time>2026-04-10T09:32:14.848Z</time></trkpt><trkpt lat="45.0202692" lon="7.9254214"><ele>287.5</ele><time>2026-04-10T09:32:16.847Z</time></trkpt><trkpt lat="45.0202545" lon="7.9255839"><ele>287.25</ele><time>2026-04-10T09:32:18.845Z</time></trkpt><trkpt lat="45.0202283" lon="7.9257423"><ele>287.0</ele><time>2026-04-10T09:32:20.845Z</time></trkpt><trkpt lat="45.0201873" lon="7.9258965"><ele>286.83333333333337</ele><time>2026-04-10T09:32:22.845Z</time></trkpt><trkpt lat="45.0201414" lon="7.9260524"><ele>286.6666666666667</ele><time>2026-04-10T09:32:24.847Z</time></trkpt><trkpt lat="45.0201209" lon="7.9261368"><ele>286.5</ele><time>2026-04-10T09:32:25.846Z</time></trkpt><trkpt lat="45.0200991" lon="7.9262239"><ele>286.3333333333333</ele><time>2026-04-10T09:32:26.846Z</time></trkpt><trkpt lat="45.0200767" lon="7.9263143"><ele>286.16666666666663</ele><time>2026-04-10T09:32:27.847Z</time></trkpt><trkpt lat="45.0200352" lon="7.9264833"><ele>286.0</ele><time>2026-04-10T09:32:29.846Z</time></trkpt><trkpt lat="45.0200189" lon="7.9265698"><ele>286.0</ele><time>2026-04-10T09:32:30.846Z</time></trkpt><trkpt lat="45.0199967" lon="7.9267253"><ele>286.0</ele><time>2026-04-10T09:32:32.845Z</time></trkpt><trkpt lat="45.0199654" lon="7.926884"><ele>286.0</ele><time>2026-04-10T09:32:34.845Z</time></trkpt><trkpt lat="45.0199466" lon="7.927062"><ele>286.0</ele><time>2026-04-10T09:32:36.847Z</time></trkpt><trkpt lat="45.0199302" lon="7.9272337"><ele>285.5</ele><time>2026-04-10T09:32:38.846Z</time></trkpt><trkpt lat="45.0199149" lon="7.9274081"><ele>285.0</ele><time>2026-04-10T09:32:40.848Z</time></trkpt><trkpt lat="45.0199053" lon="7.9275799"><ele>284.5</ele><time>2026-04-10T09:32:42.846Z</time></trkpt><trkpt lat="45.0199058" lon="7.9277518"><ele>284.0</ele><time>2026-04-10T09:32:44.846Z</time></trkpt><trkpt lat="45.0198995" lon="7.9279169"><ele>283.83333333333337</ele><time>2026-04-10T09:32:46.846Z</time></trkpt><trkpt lat="45.019896" lon="7.9280782"><ele>283.6666666666667</ele><time>2026-04-10T09:32:48.845Z</time></trkpt><trkpt lat="45.0198927" lon="7.9282322"><ele>283.5</ele><time>2026-04-10T09:32:50.846Z</time></trkpt><trkpt lat="45.0198884" lon="7.9283228"><ele>283.3333333333333</ele><time>2026-04-10T09:32:51.847Z</time></trkpt><trkpt lat="45.0198864" lon="7.9284162"><ele>283.16666666666663</ele><time>2026-04-10T09:32:52.846Z</time></trkpt><trkpt lat="45.0198835" lon="7.9285089"><ele>283.0</ele><time>2026-04-10T09:32:53.847Z</time></trkpt><trkpt lat="45.0198804" lon="7.9285987"><ele>283.0</ele><time>2026-04-10T09:32:54.846Z</time></trkpt><trkpt lat="45.0198854" lon="7.9287717"><ele>283.0</ele><time>2026-04-10T09:32:56.846Z</time></trkpt><trkpt lat="45.0198968" lon="7.9289475"><ele>283.0</ele><time>2026-04-10T09:32:58.846Z</time></trkpt><trkpt lat="45.0199112" lon="7.9290352"><ele>283.0</ele><time>2026-04-10T09:32:59.846Z</time></trkpt><trkpt lat="45.0199362" lon="7.9292032"><ele>283.0</ele><time>2026-04-10T09:33:01.848Z</time></trkpt><trkpt lat="45.0199726" lon="7.9293783"><ele>283.16666666666663</ele><time>2026-04-10T09:33:03.846Z</time></trkpt><trkpt lat="45.0199927" lon="7.9294661"><ele>283.3333333333333</ele><time>2026-04-10T09:33:04.845Z</time></trkpt><trkpt lat="45.0200148" lon="7.9295516"><ele>283.5</ele><time>2026-04-10T09:33:05.845Z</time></trkpt><trkpt lat="45.0200378" lon="7.9296443"><ele>283.6666666666667</ele><time>2026-04-10T09:33:06.845Z</time></trkpt><trkpt lat="45.0200632" lon="7.9297326"><ele>283.83333333333337</ele><time>2026-04-10T09:33:07.846Z</time></trkpt><trkpt lat="45.0201076" lon="7.9298972"><ele>284.0</ele><time>2026-04-10T09:33:09.847Z</time></trkpt><trkpt lat="45.0201409" lon="7.9300625"><ele>284.0</ele><time>2026-04-10T09:33:11.846Z</time></trkpt><trkpt lat="45.020148" lon="7.9301515"><ele>284.0</ele><time>2026-04-10T09:33:12.847Z</time></trkpt><trkpt lat="45.0201574" lon="7.9303234"><ele>284.0</ele><time>2026-04-10T09:33:14.847Z</time></trkpt><trkpt lat="45.0201611" lon="7.9304892"><ele>284.0</ele><time>2026-04-10T09:33:16.846Z</time></trkpt><trkpt lat="45.0201622" lon="7.9306504"><ele>284.0</ele><time>2026-04-10T09:33:18.847Z</time></trkpt><trkpt lat="45.0201528" lon="7.9308198"><ele>283.8</ele><time>2026-04-10T09:33:20.847Z</time></trkpt><trkpt lat="45.0201433" lon="7.9309828"><ele>283.59999999999997</ele><time>2026-04-10T09:33:22.846Z</time></trkpt><trkpt lat="45.0201367" lon="7.931145"><ele>283.4</ele><time>2026-04-10T09:33:24.845Z</time></trkpt><trkpt lat="45.0201379" lon="7.931235"><ele>283.2</ele><time>2026-04-10T09:33:25.847Z</time></trkpt><trkpt lat="45.0201283" lon="7.9313976"><ele>283.0</ele><time>2026-04-10T09:33:27.847Z</time></trkpt><trkpt lat="45.0201207" lon="7.9315671"><ele>283.4</ele><time>2026-04-10T09:33:29.845Z</time></trkpt><trkpt lat="45.0201075" lon="7.9317312"><ele>283.8</ele><time>2026-04-10T09:33:31.847Z</time></trkpt><trkpt lat="45.0200935" lon="7.9318848"><ele>284.2</ele><time>2026-04-10T09:33:33.848Z</time></trkpt><trkpt lat="45.020095" lon="7.9320265"><ele>284.6</ele><time>2026-04-10T09:33:35.847Z</time></trkpt><trkpt lat="45.020082" lon="7.9321571"><ele>285.0</ele><time>2026-04-10T09:33:37.846Z</time></trkpt><trkpt lat="45.0200632" lon="7.9322895"><ele>285.0</ele><time>2026-04-10T09:33:39.847Z</time></trkpt><trkpt lat="45.0200574" lon="7.9324176"><ele>285.0</ele><time>2026-04-10T09:33:41.847Z</time></trkpt><trkpt lat="45.0200499" lon="7.9325547"><ele>285.0</ele><time>2026-04-10T09:33:43.846Z</time></trkpt><trkpt lat="45.0200433" lon="7.9326933"><ele>285.0</ele><time>2026-04-10T09:33:45.845Z</time></trkpt><trkpt lat="45.0200329" lon="7.9328221"><ele>285.0</ele><time>2026-04-10T09:33:47.845Z</time></trkpt><trkpt lat="45.0200251" lon="7.9329569"><ele>285.2</ele><time>2026-04-10T09:33:49.846Z</time></trkpt><trkpt lat="45.0200031" lon="7.9330958"><ele>285.4</ele><time>2026-04-10T09:33:51.846Z</time></trkpt><trkpt lat="45.0199983" lon="7.933218"><ele>285.6</ele><time>2026-04-10T09:33:53.846Z</time></trkpt><trkpt lat="45.0199716" lon="7.9333502"><ele>285.8</ele><time>2026-04-10T09:33:55.846Z</time></trkpt><trkpt lat="45.0199666" lon="7.9334721"><ele>286.0</ele><time>2026-04-10T09:33:57.847Z</time></trkpt><trkpt lat="45.0199638" lon="7.9336118"><ele>286.16666666666663</ele><time>2026-04-10T09:33:59.847Z</time></trkpt><trkpt lat="45.0199492" lon="7.9337368"><ele>286.3333333333333</ele><time>2026-04-10T09:34:01.846Z</time></trkpt><trkpt lat="45.019954" lon="7.9338499"><ele>286.5</ele><time>2026-04-10T09:34:03.846Z</time></trkpt><trkpt lat="45.0199576" lon="7.933954"><ele>286.6666666666667</ele><time>2026-04-10T09:34:05.848Z</time></trkpt><trkpt lat="45.0199468" lon="7.9340697"><ele>286.83333333333337</ele><time>2026-04-10T09:34:07.846Z</time></trkpt><trkpt lat="45.0199393" lon="7.9341972"><ele>287.0</ele><time>2026-04-10T09:34:09.846Z</time></trkpt><trkpt lat="45.0199319" lon="7.9343175"><ele>286.6</ele><time>2026-04-10T09:34:11.845Z</time></trkpt><trkpt lat="45.0199209" lon="7.9344597"><ele>286.2</ele><time>2026-04-10T09:34:13.846Z</time></trkpt><trkpt lat="45.0199" lon="7.9346001"><ele>285.8</ele><time>2026-04-10T09:34:15.847Z</time></trkpt><trkpt lat="45.0198845" lon="7.9347312"><ele>285.4</ele><time>2026-04-10T09:34:17.846Z</time></trkpt><trkpt lat="45.019857" lon="7.9348603"><ele>285.0</ele><time>2026-04-10T09:34:19.846Z</time></trkpt><trkpt lat="45.0198095" lon="7.9349709"><ele>284.8</ele><time>2026-04-10T09:34:21.847Z</time></trkpt><trkpt lat="45.0197498" lon="7.9350838"><ele>284.6</ele><time>2026-04-10T09:34:23.846Z</time></trkpt><trkpt lat="45.019724" lon="7.9352118"><ele>284.4</ele><time>2026-04-10T09:34:25.845Z</time></trkpt><trkpt lat="45.0197361" lon="7.9353416"><ele>284.2</ele><time>2026-04-10T09:34:27.847Z</time></trkpt><trkpt lat="45.0197553" lon="7.9354771"><ele>284.0</ele><time>2026-04-10T09:34:29.846Z</time></trkpt><trkpt lat="45.0197541" lon="7.9356552"><ele>284.0</ele><time>2026-04-10T09:34:31.847Z</time></trkpt><trkpt lat="45.0197475" lon="7.9357533"><ele>284.0</ele><time>2026-04-10T09:34:32.845Z</time></trkpt><trkpt lat="45.0197374" lon="7.9358486"><ele>284.0</ele><time>2026-04-10T09:34:33.846Z</time></trkpt><trkpt lat="45.0197357" lon="7.9359433"><ele>284.0</ele><time>2026-04-10T09:34:34.846Z</time></trkpt><trkpt lat="45.0197255" lon="7.9360415"><ele>284.0</ele><time>2026-04-10T09:34:35.845Z</time></trkpt><trkpt lat="45.0197196" lon="7.9361446"><ele>284.0</ele><time>2026-04-10T09:34:36.846Z</time></trkpt><trkpt lat="45.0197107" lon="7.9362484"><ele>284.0</ele><time>2026-04-10T09:34:37.846Z</time></trkpt><trkpt lat="45.019701" lon="7.9363447"><ele>284.0</ele><time>2026-04-10T09:34:38.848Z</time></trkpt><trkpt lat="45.0196916" lon="7.9364493"><ele>284.0</ele><time>2026-04-10T09:34:39.846Z</time></trkpt><trkpt lat="45.0196813" lon="7.9365464"><ele>284.0</ele><time>2026-04-10T09:34:40.846Z</time></trkpt><trkpt lat="45.0196723" lon="7.9366386"><ele>284.0</ele><time>2026-04-10T09:34:41.847Z</time></trkpt><trkpt lat="45.0196634" lon="7.936817"><ele>284.0</ele><time>2026-04-10T09:34:43.846Z</time></trkpt><trkpt lat="45.0196544" lon="7.9369173"><ele>284.0</ele><time>2026-04-10T09:34:44.847Z</time></trkpt><trkpt lat="45.019645" lon="7.9370115"><ele>284.0</ele><time>2026-04-10T09:34:45.846Z</time></trkpt><trkpt lat="45.0196357" lon="7.9371108"><ele>284.0</ele><time>2026-04-10T09:34:46.845Z</time></trkpt><trkpt lat="45.0196209" lon="7.9372033"><ele>284.0</ele><time>2026-04-10T09:34:47.845Z</time></trkpt><trkpt lat="45.0196086" lon="7.9373006"><ele>284.0</ele><time>2026-04-10T09:34:48.846Z</time></trkpt><trkpt lat="45.0195954" lon="7.9374021"><ele>284.0</ele><time>2026-04-10T09:34:49.846Z</time></trkpt><trkpt lat="45.0195782" lon="7.9375044"><ele>284.0</ele><time>2026-04-10T09:34:50.845Z</time></trkpt><trkpt lat="45.0195613" lon="7.9376021"><ele>284.0</ele><time>2026-04-10T09:34:51.846Z</time></trkpt><trkpt lat="45.0195477" lon="7.9376996"><ele>284.33333333333337</ele><time>2026-04-10T09:34:52.848Z</time></trkpt><trkpt lat="45.0195233" lon="7.9378911"><ele>284.6666666666667</ele><time>2026-04-10T09:34:54.846Z</time></trkpt><trkpt lat="45.0195107" lon="7.9379839"><ele>285.0</ele><time>2026-04-10T09:34:55.847Z</time></trkpt><trkpt lat="45.0195023" lon="7.9380824"><ele>285.3333333333333</ele><time>2026-04-10T09:34:56.847Z</time></trkpt><trkpt lat="45.0194942" lon="7.9381782"><ele>285.66666666666663</ele><time>2026-04-10T09:34:57.847Z</time></trkpt><trkpt lat="45.0194855" lon="7.938276"><ele>286.0</ele><time>2026-04-10T09:34:58.846Z</time></trkpt><trkpt lat="45.0194792" lon="7.9383791"><ele>286.1428571428571</ele><time>2026-04-10T09:34:59.845Z</time></trkpt><trkpt lat="45.0194754" lon="7.9384775"><ele>286.2857142857143</ele><time>2026-04-10T09:35:00.845Z</time></trkpt><trkpt lat="45.0194691" lon="7.9385794"><ele>286.42857142857144</ele><time>2026-04-10T09:35:01.846Z</time></trkpt><trkpt lat="45.0194603" lon="7.9386722"><ele>286.57142857142856</ele><time>2026-04-10T09:35:02.846Z</time></trkpt><trkpt lat="45.0194551" lon="7.9387742"><ele>286.7142857142857</ele><time>2026-04-10T09:35:03.846Z</time></trkpt><trkpt lat="45.0194565" lon="7.9388746"><ele>286.85714285714283</ele><time>2026-04-10T09:35:04.847Z</time></trkpt><trkpt lat="45.0194589" lon="7.9389752"><ele>287.0</ele><time>2026-04-10T09:35:05.845Z</time></trkpt><trkpt lat="45.0194568" lon="7.93908"><ele>287.0</ele><time>2026-04-10T09:35:06.845Z</time></trkpt><trkpt lat="45.0194644" lon="7.9391823"><ele>287.0</ele><time>2026-04-10T09:35:07.846Z</time></trkpt><trkpt lat="45.019465" lon="7.939277"><ele>287.0</ele><time>2026-04-10T09:35:08.846Z</time></trkpt><trkpt lat="45.0194684" lon="7.9393706"><ele>287.0</ele><time>2026-04-10T09:35:09.845Z</time></trkpt><trkpt lat="45.0194727" lon="7.9394705"><ele>287.0</ele><time>2026-04-10T09:35:10.847Z</time></trkpt><trkpt lat="45.0194749" lon="7.9395638"><ele>287.0</ele><time>2026-04-10T09:35:11.846Z</time></trkpt><trkpt lat="45.0194824" lon="7.9396623"><ele>287.0</ele><time>2026-04-10T09:35:12.846Z</time></trkpt><trkpt lat="45.0194905" lon="7.9397525"><ele>287.0</ele><time>2026-04-10T09:35:13.847Z</time></trkpt><trkpt lat="45.0194938" lon="7.9398455"><ele>287.0</ele><time>2026-04-10T09:35:14.846Z</time></trkpt><trkpt lat="45.0194935" lon="7.9399367"><ele>287.0</ele><time>2026-04-10T09:35:15.846Z</time></trkpt><trkpt lat="45.0194989" lon="7.9400317"><ele>287.0</ele><time>2026-04-10T09:35:16.847Z</time></trkpt><trkpt lat="45.0195083" lon="7.9402099"><ele>287.0</ele><time>2026-04-10T09:35:18.846Z</time></trkpt><trkpt lat="45.0195126" lon="7.9403696"><ele>287.0</ele><time>2026-04-10T09:35:20.846Z</time></trkpt><trkpt lat="45.0195275" lon="7.9405351"><ele>287.0</ele><time>2026-04-10T09:35:22.845Z</time></trkpt><trkpt lat="45.0195362" lon="7.9406276"><ele>287.0</ele><time>2026-04-10T09:35:23.846Z</time></trkpt><trkpt lat="45.0195401" lon="7.9407198"><ele>287.0</ele><time>2026-04-10T09:35:24.846Z</time></trkpt><trkpt lat="45.0195408" lon="7.9408156"><ele>287.0</ele><time>2026-04-10T09:35:25.846Z</time></trkpt><trkpt lat="45.0195432" lon="7.9409108"><ele>287.0</ele><time>2026-04-10T09:35:26.845Z</time></trkpt><trkpt lat="45.0195415" lon="7.9410022"><ele>287.0</ele><time>2026-04-10T09:35:27.847Z</time></trkpt><trkpt lat="45.0195349" lon="7.9410974"><ele>287.0</ele><time>2026-04-10T09:35:28.847Z</time></trkpt><trkpt lat="45.0195281" lon="7.9411933"><ele>286.5</ele><time>2026-04-10T09:35:29.847Z</time></trkpt><trkpt lat="45.0195146" lon="7.9413007"><ele>286.0</ele><time>2026-04-10T09:35:30.846Z</time></trkpt><trkpt lat="45.019505" lon="7.9414024"><ele>285.5</ele><time>2026-04-10T09:35:31.846Z</time></trkpt><trkpt lat="45.0194987" lon="7.9415125"><ele>285.0</ele><time>2026-04-10T09:35:32.845Z</time></trkpt><trkpt lat="45.0194967" lon="7.9416142"><ele>284.5</ele><time>2026-04-10T09:35:33.846Z</time></trkpt><trkpt lat="45.0194858" lon="7.9417288"><ele>284.0</ele><time>2026-04-10T09:35:34.847Z</time></trkpt><trkpt lat="45.0194794" lon="7.9418352"><ele>284.0</ele><time>2026-04-10T09:35:35.847Z</time></trkpt><trkpt lat="45.0194675" lon="7.9419482"><ele>284.0</ele><time>2026-04-10T09:35:36.846Z</time></trkpt><trkpt lat="45.0194537" lon="7.9420638"><ele>284.0</ele><time>2026-04-10T09:35:37.846Z</time></trkpt><trkpt lat="45.0194406" lon="7.9421742"><ele>284.0</ele><time>2026-04-10T09:35:38.846Z</time></trkpt><trkpt lat="45.019423" lon="7.942287"><ele>284.0</ele><time>2026-04-10T09:35:39.846Z</time></trkpt><trkpt lat="45.0194072" lon="7.9424019"><ele>284.0</ele><time>2026-04-10T09:35:40.846Z</time></trkpt><trkpt lat="45.0193911" lon="7.9425038"><ele>283.83333333333337</ele><time>2026-04-10T09:35:41.846Z</time></trkpt><trkpt lat="45.0193756" lon="7.9426118"><ele>283.6666666666667</ele><time>2026-04-10T09:35:42.847Z</time></trkpt><trkpt lat="45.0193498" lon="7.9427187"><ele>283.5</ele><time>2026-04-10T09:35:43.847Z</time></trkpt><trkpt lat="45.0193381" lon="7.9428282"><ele>283.3333333333333</ele><time>2026-04-10T09:35:44.846Z</time></trkpt><trkpt lat="45.0193225" lon="7.9429319"><ele>283.16666666666663</ele><time>2026-04-10T09:35:45.845Z</time></trkpt><trkpt lat="45.0193007" lon="7.9430432"><ele>283.0</ele><time>2026-04-10T09:35:46.846Z</time></trkpt><trkpt lat="45.0192756" lon="7.9431588"><ele>283.0</ele><time>2026-04-10T09:35:47.846Z</time></trkpt><trkpt lat="45.0192522" lon="7.9432679"><ele>283.0</ele><time>2026-04-10T09:35:48.847Z</time></trkpt><trkpt lat="45.0192275" lon="7.9433708"><ele>283.0</ele><time>2026-04-10T09:35:49.845Z</time></trkpt><trkpt lat="45.0192034" lon="7.9434717"><ele>283.0</ele><time>2026-04-10T09:35:50.845Z</time></trkpt><trkpt lat="45.0191792" lon="7.9435758"><ele>283.0</ele><time>2026-04-10T09:35:51.845Z</time></trkpt><trkpt lat="45.0191585" lon="7.9436855"><ele>283.0</ele><time>2026-04-10T09:35:52.846Z</time></trkpt><trkpt lat="45.0191376" lon="7.9438892"><ele>283.14285714285717</ele><time>2026-04-10T09:35:54.847Z</time></trkpt><trkpt lat="45.0191312" lon="7.943995"><ele>283.28571428571433</ele><time>2026-04-10T09:35:55.846Z</time></trkpt><trkpt lat="45.0191409" lon="7.9441001"><ele>283.42857142857144</ele><time>2026-04-10T09:35:56.846Z</time></trkpt><trkpt lat="45.0191637" lon="7.9441955"><ele>283.57142857142856</ele><time>2026-04-10T09:35:57.845Z</time></trkpt><trkpt lat="45.0191954" lon="7.9442938"><ele>283.71428571428567</ele><time>2026-04-10T09:35:58.847Z</time></trkpt><trkpt lat="45.01924" lon="7.9443812"><ele>283.85714285714283</ele><time>2026-04-10T09:35:59.846Z</time></trkpt><trkpt lat="45.0192861" lon="7.9444648"><ele>284.0</ele><time>2026-04-10T09:36:00.846Z</time></trkpt><trkpt lat="45.019337" lon="7.9445409"><ele>283.6666666666667</ele><time>2026-04-10T09:36:01.848Z</time></trkpt><trkpt lat="45.0193864" lon="7.9446161"><ele>283.33333333333337</ele><time>2026-04-10T09:36:02.847Z</time></trkpt><trkpt lat="45.0194336" lon="7.9446909"><ele>283.0</ele><time>2026-04-10T09:36:03.845Z</time></trkpt><trkpt lat="45.0194748" lon="7.944777"><ele>282.6666666666667</ele><time>2026-04-10T09:36:04.845Z</time></trkpt><trkpt lat="45.0195132" lon="7.9448502"><ele>282.3333333333333</ele><time>2026-04-10T09:36:05.846Z</time></trkpt><trkpt lat="45.0195486" lon="7.9449251"><ele>282.0</ele><time>2026-04-10T09:36:06.847Z</time></trkpt><trkpt lat="45.0196192" lon="7.945072"><ele>281.8571428571429</ele><time>2026-04-10T09:36:08.845Z</time></trkpt><trkpt lat="45.0196599" lon="7.9451472"><ele>281.7142857142857</ele><time>2026-04-10T09:36:09.845Z</time></trkpt><trkpt lat="45.0197042" lon="7.9452284"><ele>281.57142857142856</ele><time>2026-04-10T09:36:10.845Z</time></trkpt><trkpt lat="45.0197385" lon="7.9453074"><ele>281.42857142857144</ele><time>2026-04-10T09:36:11.847Z</time></trkpt><trkpt lat="45.0197856" lon="7.9453941"><ele>281.2857142857143</ele><time>2026-04-10T09:36:12.846Z</time></trkpt><trkpt lat="45.0198237" lon="7.9454799"><ele>281.14285714285717</ele><time>2026-04-10T09:36:13.846Z</time></trkpt><trkpt lat="45.0198583" lon="7.9455617"><ele>281.0</ele><time>2026-04-10T09:36:14.847Z</time></trkpt><trkpt lat="45.0199305" lon="7.945713"><ele>281.0</ele><time>2026-04-10T09:36:16.846Z</time></trkpt><trkpt lat="45.0199698" lon="7.9457925"><ele>281.0</ele><time>2026-04-10T09:36:17.845Z</time></trkpt><trkpt lat="45.0200025" lon="7.9458716"><ele>281.0</ele><time>2026-04-10T09:36:18.846Z</time></trkpt><trkpt lat="45.0200632" lon="7.9460166"><ele>281.0</ele><time>2026-04-10T09:36:20.846Z</time></trkpt><trkpt lat="45.020117" lon="7.9461363"><ele>281.0</ele><time>2026-04-10T09:36:22.846Z</time></trkpt><trkpt lat="45.0201725" lon="7.9462521"><ele>282.2</ele><time>2026-04-10T09:36:24.846Z</time></trkpt><trkpt lat="45.0202264" lon="7.9463668"><ele>283.40000000000003</ele><time>2026-04-10T09:36:26.845Z</time></trkpt><trkpt lat="45.0202941" lon="7.9464844"><ele>284.6</ele><time>2026-04-10T09:36:28.846Z</time></trkpt><trkpt lat="45.0203671" lon="7.9465917"><ele>285.8</ele><time>2026-04-10T09:36:30.846Z</time></trkpt><trkpt lat="45.020441" lon="7.9467022"><ele>287.0</ele><time>2026-04-10T09:36:32.845Z</time></trkpt><trkpt lat="45.0205016" lon="7.9468117"><ele>287.5</ele><time>2026-04-10T09:36:34.846Z</time></trkpt><trkpt lat="45.020581" lon="7.9469382"><ele>288.0</ele><time>2026-04-10T09:36:36.845Z</time></trkpt><trkpt lat="45.0206543" lon="7.9470433"><ele>288.5</ele><time>2026-04-10T09:36:38.847Z</time></trkpt><trkpt lat="45.0207324" lon="7.9471668"><ele>289.0</ele><time>2026-04-10T09:36:40.847Z</time></trkpt><trkpt lat="45.0208129" lon="7.9472753"><ele>289.0</ele><time>2026-04-10T09:36:42.846Z</time></trkpt><trkpt lat="45.0208944" lon="7.9473621"><ele>289.0</ele><time>2026-04-10T09:36:44.846Z</time></trkpt><trkpt lat="45.0209696" lon="7.9474725"><ele>289.0</ele><time>2026-04-10T09:36:46.847Z</time></trkpt><trkpt lat="45.0210501" lon="7.9475909"><ele>289.0</ele><time>2026-04-10T09:36:48.847Z</time></trkpt><trkpt lat="45.0211385" lon="7.947694"><ele>289.0</ele><time>2026-04-10T09:36:50.847Z</time></trkpt><trkpt lat="45.021202" lon="7.947812"><ele>289.2</ele><time>2026-04-10T09:36:52.846Z</time></trkpt><trkpt lat="45.0212616" lon="7.9478671"><ele>289.4</ele><time>2026-04-10T09:36:53.846Z</time></trkpt><trkpt lat="45.0213224" lon="7.9479783"><ele>289.6</ele><time>2026-04-10T09:36:55.846Z</time></trkpt><trkpt lat="45.0214132" lon="7.9480691"><ele>289.8</ele><time>2026-04-10T09:36:57.847Z</time></trkpt><trkpt lat="45.0214857" lon="7.9481528"><ele>290.0</ele><time>2026-04-10T09:36:59.846Z</time></trkpt><trkpt lat="45.021549" lon="7.9482445"><ele>290.0</ele><time>2026-04-10T09:37:01.847Z</time></trkpt><trkpt lat="45.0216083" lon="7.9483445"><ele>290.0</ele><time>2026-04-10T09:37:03.846Z</time></trkpt><trkpt lat="45.0216318" lon="7.9484472"><ele>290.0</ele><time>2026-04-10T09:37:06.846Z</time></trkpt><trkpt lat="45.0215457" lon="7.9484926"><ele>290.0</ele><time>2026-04-10T09:37:08.846Z</time></trkpt><trkpt lat="45.0214429" lon="7.9485172"><ele>290.0</ele><time>2026-04-10T09:37:10.846Z</time></trkpt><trkpt lat="45.0213393" lon="7.948559"><ele>289.83333333333337</ele><time>2026-04-10T09:37:12.846Z</time></trkpt><trkpt lat="45.0212274" lon="7.9486137"><ele>289.6666666666667</ele><time>2026-04-10T09:37:14.846Z</time></trkpt><trkpt lat="45.0211491" lon="7.9486407"><ele>289.5</ele><time>2026-04-10T09:37:16.847Z</time></trkpt><trkpt lat="45.0212208" lon="7.9485879"><ele>289.3333333333333</ele><time>2026-04-10T09:37:24.847Z</time></trkpt><trkpt lat="45.0212942" lon="7.9485748"><ele>289.16666666666663</ele><time>2026-04-10T09:37:27.847Z</time></trkpt><trkpt lat="45.0213599" lon="7.9485418"><ele>289.0</ele><time>2026-04-10T09:37:29.847Z</time></trkpt><trkpt lat="45.0214336" lon="7.9485032"><ele>289.0</ele><time>2026-04-10T09:37:31.846Z</time></trkpt><trkpt lat="45.0215158" lon="7.9484579"><ele>289.0</ele><time>2026-04-10T09:37:33.846Z</time></trkpt><trkpt lat="45.0215954" lon="7.9484168"><ele>289.0</ele><time>2026-04-10T09:37:35.846Z</time></trkpt><trkpt lat="45.021671" lon="7.9483912"><ele>289.0</ele><time>2026-04-10T09:37:37.848Z</time></trkpt><trkpt lat="45.0217169" lon="7.9484794"><ele>289.0</ele><time>2026-04-10T09:37:39.847Z</time></trkpt><trkpt lat="45.0217254" lon="7.9486567"><ele>289.4</ele><time>2026-04-10T09:37:41.845Z</time></trkpt><trkpt lat="45.0217123" lon="7.9487919"><ele>289.79999999999995</ele><time>2026-04-10T09:37:43.847Z</time></trkpt><trkpt lat="45.0217003" lon="7.9489279"><ele>290.20000000000005</ele><time>2026-04-10T09:37:45.846Z</time></trkpt><trkpt lat="45.0216608" lon="7.949082"><ele>290.6</ele><time>2026-04-10T09:37:47.846Z</time></trkpt><trkpt lat="45.0216332" lon="7.9492245"><ele>291.0</ele><time>2026-04-10T09:37:49.845Z</time></trkpt><trkpt lat="45.0215932" lon="7.9493883"><ele>291.0</ele><time>2026-04-10T09:37:51.848Z</time></trkpt><trkpt lat="45.0215598" lon="7.949467"><ele>291.0</ele><time>2026-04-10T09:37:52.846Z</time></trkpt><trkpt lat="45.021535" lon="7.9495499"><ele>291.0</ele><time>2026-04-10T09:37:53.846Z</time></trkpt><trkpt lat="45.0215216" lon="7.9497177"><ele>291.0</ele><time>2026-04-10T09:37:55.846Z</time></trkpt><trkpt lat="45.021487" lon="7.9498738"><ele>291.0</ele><time>2026-04-10T09:37:57.847Z</time></trkpt><trkpt lat="45.0214496" lon="7.9500189"><ele>291.1666666666667</ele><time>2026-04-10T09:37:59.846Z</time></trkpt><trkpt lat="45.0214162" lon="7.9501323"><ele>291.3333333333333</ele><time>2026-04-10T09:38:01.846Z</time></trkpt><trkpt lat="45.0213926" lon="7.9502536"><ele>291.5</ele><time>2026-04-10T09:38:04.845Z</time></trkpt><trkpt lat="45.021458" lon="7.9502857"><ele>291.66666666666663</ele><time>2026-04-10T09:38:07.847Z</time></trkpt><trkpt lat="45.0215461" lon="7.9503264"><ele>291.8333333333333</ele><time>2026-04-10T09:38:10.846Z</time></trkpt><trkpt lat="45.0216122" lon="7.9503681"><ele>292.0</ele><time>2026-04-10T09:38:12.845Z</time></trkpt><trkpt lat="45.0216815" lon="7.9504026"><ele>292.0</ele><time>2026-04-10T09:38:14.845Z</time></trkpt><trkpt lat="45.0217484" lon="7.9504304"><ele>292.0</ele><time>2026-04-10T09:38:16.846Z</time></trkpt><trkpt lat="45.0217046" lon="7.9503552"><ele>292.0</ele><time>2026-04-10T09:38:20.848Z</time></trkpt><trkpt lat="45.0216418" lon="7.9503077"><ele>292.0</ele><time>2026-04-10T09:38:27.847Z</time></trkpt><trkpt lat="45.0217145" lon="7.9503384"><ele>292.0</ele><time>2026-04-10T09:42:21.317Z</time></trkpt><trkpt lat="45.0217055" lon="7.9504453"><ele>292.0</ele><time>2026-04-10T09:48:07.846Z</time></trkpt><trkpt lat="45.0217589" lon="7.9504972"><ele>292.0</ele><time>2026-04-10T09:48:10.845Z</time></trkpt><trkpt lat="45.02184" lon="7.9505384"><ele>292.66666666666663</ele><time>2026-04-10T09:48:13.845Z</time></trkpt><trkpt lat="45.0218978" lon="7.9505891"><ele>293.3333333333333</ele><time>2026-04-10T09:48:15.845Z</time></trkpt><trkpt lat="45.0219769" lon="7.9506409"><ele>294.0</ele><time>2026-04-10T09:48:18.846Z</time></trkpt><trkpt lat="45.0220516" lon="7.9506834"><ele>294.6666666666667</ele><time>2026-04-10T09:48:21.845Z</time></trkpt><trkpt lat="45.0221273" lon="7.9506881"><ele>295.33333333333337</ele><time>2026-04-10T09:48:24.845Z</time></trkpt><trkpt lat="45.0222169" lon="7.9506853"><ele>296.0</ele><time>2026-04-10T09:48:28.846Z</time></trkpt><trkpt lat="45.022292" lon="7.9506549"><ele>296.0</ele><time>2026-04-10T09:48:30.846Z</time></trkpt><trkpt lat="45.0223421" lon="7.950535"><ele>296.0</ele><time>2026-04-10T09:48:33.845Z</time></trkpt><trkpt lat="45.0223984" lon="7.9504441"><ele>296.0</ele><time>2026-04-10T09:48:35.845Z</time></trkpt><trkpt lat="45.0224471" lon="7.9502901"><ele>296.0</ele><time>2026-04-10T09:48:37.846Z</time></trkpt><trkpt lat="45.0225068" lon="7.9501954"><ele>296.0</ele><time>2026-04-10T09:48:39.846Z</time></trkpt><trkpt lat="45.0225316" lon="7.9500505"><ele>296.40000000000003</ele><time>2026-04-10T09:48:41.844Z</time></trkpt><trkpt lat="45.0225642" lon="7.9499734"><ele>296.8</ele><time>2026-04-10T09:48:42.845Z</time></trkpt><trkpt lat="45.0226048" lon="7.9498577"><ele>297.20000000000005</ele><time>2026-04-10T09:48:44.847Z</time></trkpt><trkpt lat="45.0226311" lon="7.9497729"><ele>297.6</ele><time>2026-04-10T09:48:45.844Z</time></trkpt><trkpt lat="45.0226747" lon="7.9496213"><ele>298.0</ele><time>2026-04-10T09:48:47.845Z</time></trkpt><trkpt lat="45.0227269" lon="7.9494759"><ele>298.0</ele><time>2026-04-10T09:48:49.846Z</time></trkpt><trkpt lat="45.0227735" lon="7.9493258"><ele>298.0</ele><time>2026-04-10T09:48:51.846Z</time></trkpt><trkpt lat="45.0228093" lon="7.9491969"><ele>298.0</ele><time>2026-04-10T09:48:53.845Z</time></trkpt><trkpt lat="45.0228382" lon="7.9490162"><ele>298.0</ele><time>2026-04-10T09:48:55.845Z</time></trkpt><trkpt lat="45.0228657" lon="7.9488887"><ele>298.0</ele><time>2026-04-10T09:48:57.845Z</time></trkpt><trkpt lat="45.022942" lon="7.9488296"><ele>297.4</ele><time>2026-04-10T09:49:00.844Z</time></trkpt><trkpt lat="45.0230062" lon="7.9488039"><ele>296.8</ele><time>2026-04-10T09:49:02.845Z</time></trkpt><trkpt lat="45.0230901" lon="7.9487919"><ele>296.2</ele><time>2026-04-10T09:49:04.846Z</time></trkpt><trkpt lat="45.0231778" lon="7.9487617"><ele>295.6</ele><time>2026-04-10T09:49:06.845Z</time></trkpt><trkpt lat="45.0232875" lon="7.9487803"><ele>295.0</ele><time>2026-04-10T09:49:08.845Z</time></trkpt><trkpt lat="45.0233967" lon="7.948784"><ele>295.0</ele><time>2026-04-10T09:49:10.846Z</time></trkpt><trkpt lat="45.0234987" lon="7.9487502"><ele>295.0</ele><time>2026-04-10T09:49:12.845Z</time></trkpt><trkpt lat="45.023614" lon="7.9487423"><ele>295.0</ele><time>2026-04-10T09:49:14.845Z</time></trkpt><trkpt lat="45.0237049" lon="7.9487419"><ele>295.0</ele><time>2026-04-10T09:49:16.845Z</time></trkpt><trkpt lat="45.0238109" lon="7.9487203"><ele>295.0</ele><time>2026-04-10T09:49:18.844Z</time></trkpt><trkpt lat="45.0239268" lon="7.948659"><ele>295.0</ele><time>2026-04-10T09:49:20.845Z</time></trkpt><trkpt lat="45.0240352" lon="7.948598"><ele>295.0</ele><time>2026-04-10T09:49:22.845Z</time></trkpt><trkpt lat="45.0240963" lon="7.9485732"><ele>295.0</ele><time>2026-04-10T09:49:23.845Z</time></trkpt><trkpt lat="45.0241972" lon="7.9485015"><ele>295.0</ele><time>2026-04-10T09:49:25.846Z</time></trkpt><trkpt lat="45.0243102" lon="7.9484263"><ele>295.0</ele><time>2026-04-10T09:49:27.845Z</time></trkpt><trkpt lat="45.0243659" lon="7.9483737"><ele>294.75</ele><time>2026-04-10T09:49:28.845Z</time></trkpt><trkpt lat="45.0244659" lon="7.948276"><ele>294.5</ele><time>2026-04-10T09:49:30.845Z</time></trkpt><trkpt lat="45.0245423" lon="7.9481713"><ele>294.25</ele><time>2026-04-10T09:49:32.844Z</time></trkpt><trkpt lat="45.0246351" lon="7.9480801"><ele>294.0</ele><time>2026-04-10T09:49:34.845Z</time></trkpt><trkpt lat="45.0247362" lon="7.9479812"><ele>294.0</ele><time>2026-04-10T09:49:36.845Z</time></trkpt><trkpt lat="45.0248108" lon="7.947881"><ele>294.0</ele><time>2026-04-10T09:49:38.844Z</time></trkpt><trkpt lat="45.0248869" lon="7.9477747"><ele>294.0</ele><time>2026-04-10T09:49:40.844Z</time></trkpt><trkpt lat="45.0249803" lon="7.9476407"><ele>294.0</ele><time>2026-04-10T09:49:42.845Z</time></trkpt><trkpt lat="45.0250372" lon="7.947588"><ele>294.0</ele><time>2026-04-10T09:49:43.845Z</time></trkpt><trkpt lat="45.0251361" lon="7.9475062"><ele>294.0</ele><time>2026-04-10T09:49:45.845Z</time></trkpt><trkpt lat="45.0252269" lon="7.9473973"><ele>294.0</ele><time>2026-04-10T09:49:47.845Z</time></trkpt><trkpt lat="45.0253194" lon="7.9472918"><ele>294.0</ele><time>2026-04-10T09:49:49.847Z</time></trkpt><trkpt lat="45.0254146" lon="7.9471813"><ele>294.0</ele><time>2026-04-10T09:49:51.844Z</time></trkpt><trkpt lat="45.0255154" lon="7.9470772"><ele>294.0</ele><time>2026-04-10T09:49:53.846Z</time></trkpt><trkpt lat="45.0255637" lon="7.9470195"><ele>294.0</ele><time>2026-04-10T09:49:54.845Z</time></trkpt><trkpt lat="45.0256506" lon="7.9469124"><ele>294.0</ele><time>2026-04-10T09:49:56.845Z</time></trkpt><trkpt lat="45.0257057" lon="7.9468502"><ele>294.0</ele><time>2026-04-10T09:49:57.845Z</time></trkpt><trkpt lat="45.0257532" lon="7.9467907"><ele>294.0</ele><time>2026-04-10T09:49:58.845Z</time></trkpt><trkpt lat="45.02581" lon="7.9467291"><ele>294.0</ele><time>2026-04-10T09:49:59.846Z</time></trkpt><trkpt lat="45.0258615" lon="7.9466743"><ele>294.0</ele><time>2026-04-10T09:50:00.844Z</time></trkpt><trkpt lat="45.0259081" lon="7.9466123"><ele>293.57142857142856</ele><time>2026-04-10T09:50:01.845Z</time></trkpt><trkpt lat="45.0259647" lon="7.9465524"><ele>293.1428571428571</ele><time>2026-04-10T09:50:02.845Z</time></trkpt><trkpt lat="45.0260239" lon="7.9464958"><ele>292.7142857142857</ele><time>2026-04-10T09:50:03.846Z</time></trkpt><trkpt lat="45.0260774" lon="7.9464427"><ele>292.2857142857143</ele><time>2026-04-10T09:50:04.844Z</time></trkpt><trkpt lat="45.0261282" lon="7.9463857"><ele>291.85714285714283</ele><time>2026-04-10T09:50:05.845Z</time></trkpt><trkpt lat="45.0261746" lon="7.9463166"><ele>291.42857142857144</ele><time>2026-04-10T09:50:06.845Z</time></trkpt><trkpt lat="45.0262245" lon="7.9462605"><ele>291.0</ele><time>2026-04-10T09:50:07.846Z</time></trkpt><trkpt lat="45.0262776" lon="7.9461983"><ele>291.0</ele><time>2026-04-10T09:50:08.846Z</time></trkpt><trkpt lat="45.0263319" lon="7.9461366"><ele>291.0</ele><time>2026-04-10T09:50:09.846Z</time></trkpt><trkpt lat="45.0263877" lon="7.9460689"><ele>291.0</ele><time>2026-04-10T09:50:10.846Z</time></trkpt><trkpt lat="45.0264469" lon="7.9460058"><ele>291.0</ele><time>2026-04-10T09:50:11.846Z</time></trkpt><trkpt lat="45.0264989" lon="7.9459318"><ele>291.0</ele><time>2026-04-10T09:50:12.846Z</time></trkpt><trkpt lat="45.0265596" lon="7.9458666"><ele>291.0</ele><time>2026-04-10T09:50:13.845Z</time></trkpt><trkpt lat="45.0266244" lon="7.9458031"><ele>291.0</ele><time>2026-04-10T09:50:14.845Z</time></trkpt><trkpt lat="45.0266811" lon="7.9457363"><ele>290.7142857142857</ele><time>2026-04-10T09:50:15.845Z</time></trkpt><trkpt lat="45.0267406" lon="7.9456716"><ele>290.4285714285714</ele><time>2026-04-10T09:50:16.844Z</time></trkpt><trkpt lat="45.0268016" lon="7.9456089"><ele>290.1428571428571</ele><time>2026-04-10T09:50:17.846Z</time></trkpt><trkpt lat="45.0268576" lon="7.9455401"><ele>289.85714285714283</ele><time>2026-04-10T09:50:18.844Z</time></trkpt><trkpt lat="45.026918" lon="7.9454805"><ele>289.57142857142856</ele><time>2026-04-10T09:50:19.845Z</time></trkpt><trkpt lat="45.0269754" lon="7.9454173"><ele>289.2857142857143</ele><time>2026-04-10T09:50:20.844Z</time></trkpt><trkpt lat="45.0270283" lon="7.9453535"><ele>289.0</ele><time>2026-04-10T09:50:21.846Z</time></trkpt><trkpt lat="45.0270815" lon="7.9452868"><ele>289.0</ele><time>2026-04-10T09:50:22.845Z</time></trkpt><trkpt lat="45.0271395" lon="7.9452304"><ele>289.0</ele><time>2026-04-10T09:50:23.845Z</time></trkpt><trkpt lat="45.0271967" lon="7.9451685"><ele>289.0</ele><time>2026-04-10T09:50:24.844Z</time></trkpt><trkpt lat="45.0272527" lon="7.945109"><ele>289.0</ele><time>2026-04-10T09:50:25.846Z</time></trkpt><trkpt lat="45.0273037" lon="7.9450434"><ele>289.0</ele><time>2026-04-10T09:50:26.845Z</time></trkpt><trkpt lat="45.0273589" lon="7.9449813"><ele>289.0</ele><time>2026-04-10T09:50:27.846Z</time></trkpt><trkpt lat="45.0274128" lon="7.9449214"><ele>289.0</ele><time>2026-04-10T09:50:28.845Z</time></trkpt><trkpt lat="45.0275127" lon="7.9448119"><ele>289.2</ele><time>2026-04-10T09:50:30.846Z</time></trkpt><trkpt lat="45.0275654" lon="7.9447565"><ele>289.4</ele><time>2026-04-10T09:50:31.846Z</time></trkpt><trkpt lat="45.0276675" lon="7.9446845"><ele>289.6</ele><time>2026-04-10T09:50:33.845Z</time></trkpt><trkpt lat="45.0277805" lon="7.9446759"><ele>289.8</ele><time>2026-04-10T09:50:35.845Z</time></trkpt><trkpt lat="45.0278954" lon="7.9446711"><ele>290.0</ele><time>2026-04-10T09:50:37.845Z</time></trkpt><trkpt lat="45.0279619" lon="7.9446698"><ele>290.0</ele><time>2026-04-10T09:50:38.844Z</time></trkpt><trkpt lat="45.0280873" lon="7.9446817"><ele>290.0</ele><time>2026-04-10T09:50:40.846Z</time></trkpt><trkpt lat="45.0281525" lon="7.9446866"><ele>290.0</ele><time>2026-04-10T09:50:41.844Z</time></trkpt><trkpt lat="45.0282696" lon="7.9446652"><ele>290.0</ele><time>2026-04-10T09:50:43.845Z</time></trkpt><trkpt lat="45.0283805" lon="7.9446586"><ele>290.0</ele><time>2026-04-10T09:50:45.845Z</time></trkpt><trkpt lat="45.028477" lon="7.9446401"><ele>290.14285714285717</ele><time>2026-04-10T09:50:47.844Z</time></trkpt><trkpt lat="45.0285536" lon="7.9446466"><ele>290.28571428571433</ele><time>2026-04-10T09:50:49.846Z</time></trkpt><trkpt lat="45.0286276" lon="7.9446491"><ele>290.42857142857144</ele><time>2026-04-10T09:50:51.845Z</time></trkpt><trkpt lat="45.0287004" lon="7.9446522"><ele>290.57142857142856</ele><time>2026-04-10T09:50:53.845Z</time></trkpt><trkpt lat="45.0287652" lon="7.944636"><ele>290.71428571428567</ele><time>2026-04-10T09:50:55.847Z</time></trkpt><trkpt lat="45.0288392" lon="7.9446124"><ele>290.85714285714283</ele><time>2026-04-10T09:50:57.845Z</time></trkpt><trkpt lat="45.0289061" lon="7.9445982"><ele>291.0</ele><time>2026-04-10T09:50:59.846Z</time></trkpt><trkpt lat="45.0289846" lon="7.9445765"><ele>291.0</ele><time>2026-04-10T09:51:01.847Z</time></trkpt><trkpt lat="45.0291239" lon="7.9445287"><ele>291.0</ele><time>2026-04-10T09:51:04.847Z</time></trkpt><trkpt lat="45.029214" lon="7.9445037"><ele>291.0</ele><time>2026-04-10T09:51:06.846Z</time></trkpt><trkpt lat="45.0293322" lon="7.9444879"><ele>291.0</ele><time>2026-04-10T09:51:08.845Z</time></trkpt><trkpt lat="45.0294337" lon="7.9444731"><ele>291.40000000000003</ele><time>2026-04-10T09:51:10.846Z</time></trkpt><trkpt lat="45.0295219" lon="7.9444553"><ele>291.8</ele><time>2026-04-10T09:51:12.845Z</time></trkpt><trkpt lat="45.0296734" lon="7.9444452"><ele>292.20000000000005</ele><time>2026-04-10T09:51:15.845Z</time></trkpt><trkpt lat="45.0297684" lon="7.9444421"><ele>292.6</ele><time>2026-04-10T09:51:17.846Z</time></trkpt><trkpt lat="45.0298628" lon="7.9444462"><ele>293.0</ele><time>2026-04-10T09:51:19.845Z</time></trkpt><trkpt lat="45.0299644" lon="7.9444535"><ele>294.1666666666667</ele><time>2026-04-10T09:51:21.845Z</time></trkpt><trkpt lat="45.0300608" lon="7.9444576"><ele>295.33333333333337</ele><time>2026-04-10T09:51:23.845Z</time></trkpt><trkpt lat="45.030147" lon="7.9444828"><ele>296.5</ele><time>2026-04-10T09:51:25.845Z</time></trkpt><trkpt lat="45.0302323" lon="7.9445085"><ele>297.6666666666667</ele><time>2026-04-10T09:51:27.844Z</time></trkpt><trkpt lat="45.0303137" lon="7.9445234"><ele>298.8333333333333</ele><time>2026-04-10T09:51:29.844Z</time></trkpt><trkpt lat="45.0303791" lon="7.9445396"><ele>300.0</ele><time>2026-04-10T09:51:30.844Z</time></trkpt><trkpt lat="45.0304754" lon="7.9445489"><ele>300.0</ele><time>2026-04-10T09:51:32.845Z</time></trkpt><trkpt lat="45.0305593" lon="7.9445765"><ele>300.0</ele><time>2026-04-10T09:51:34.845Z</time></trkpt><trkpt lat="45.0306324" lon="7.9445837"><ele>300.0</ele><time>2026-04-10T09:51:36.845Z</time></trkpt><trkpt lat="45.0307169" lon="7.944602"><ele>300.0</ele><time>2026-04-10T09:51:38.845Z</time></trkpt><trkpt lat="45.0308111" lon="7.9445878"><ele>300.0</ele><time>2026-04-10T09:51:40.844Z</time></trkpt><trkpt lat="45.0308953" lon="7.9445938"><ele>300.0</ele><time>2026-04-10T09:51:42.845Z</time></trkpt><trkpt lat="45.030976" lon="7.9446005"><ele>300.85714285714283</ele><time>2026-04-10T09:51:44.844Z</time></trkpt><trkpt lat="45.0310559" lon="7.9446161"><ele>301.7142857142857</ele><time>2026-04-10T09:51:46.846Z</time></trkpt><trkpt lat="45.0311288" lon="7.944637"><ele>302.57142857142856</ele><time>2026-04-10T09:51:48.845Z</time></trkpt><trkpt lat="45.0312012" lon="7.9446552"><ele>303.42857142857144</ele><time>2026-04-10T09:51:50.844Z</time></trkpt><trkpt lat="45.031268" lon="7.9446651"><ele>304.2857142857143</ele><time>2026-04-10T09:51:52.845Z</time></trkpt><trkpt lat="45.031336" lon="7.9446777"><ele>305.1428571428571</ele><time>2026-04-10T09:51:54.844Z</time></trkpt><trkpt lat="45.0314049" lon="7.9446977"><ele>306.0</ele><time>2026-04-10T09:51:56.846Z</time></trkpt><trkpt lat="45.0314711" lon="7.9447174"><ele>306.0</ele><time>2026-04-10T09:51:58.844Z</time></trkpt><trkpt lat="45.0315352" lon="7.9447338"><ele>306.0</ele><time>2026-04-10T09:52:00.845Z</time></trkpt><trkpt lat="45.0315979" lon="7.9447574"><ele>306.0</ele><time>2026-04-10T09:52:02.845Z</time></trkpt><trkpt lat="45.0316622" lon="7.9447831"><ele>306.0</ele><time>2026-04-10T09:52:04.846Z</time></trkpt><trkpt lat="45.0317279" lon="7.9448077"><ele>306.0</ele><time>2026-04-10T09:52:06.844Z</time></trkpt><trkpt lat="45.0317898" lon="7.9448339"><ele>306.0</ele><time>2026-04-10T09:52:08.845Z</time></trkpt><trkpt lat="45.0318783" lon="7.9448618"><ele>306.0</ele><time>2026-04-10T09:52:11.846Z</time></trkpt><trkpt lat="45.0319726" lon="7.9449072"><ele>306.6666666666667</ele><time>2026-04-10T09:52:14.844Z</time></trkpt><trkpt lat="45.0320516" lon="7.9449365"><ele>307.3333333333333</ele><time>2026-04-10T09:52:16.845Z</time></trkpt><trkpt lat="45.0321368" lon="7.9449567"><ele>308.0</ele><time>2026-04-10T09:52:18.845Z</time></trkpt><trkpt lat="45.0322211" lon="7.9449662"><ele>308.66666666666663</ele><time>2026-04-10T09:52:20.845Z</time></trkpt><trkpt lat="45.0323108" lon="7.9449746"><ele>309.3333333333333</ele><time>2026-04-10T09:52:22.844Z</time></trkpt><trkpt lat="45.0323948" lon="7.9449902"><ele>310.0</ele><time>2026-04-10T09:52:24.845Z</time></trkpt><trkpt lat="45.032481" lon="7.9450212"><ele>310.0</ele><time>2026-04-10T09:52:26.845Z</time></trkpt><trkpt lat="45.0325649" lon="7.9450395"><ele>310.0</ele><time>2026-04-10T09:52:28.845Z</time></trkpt><trkpt lat="45.0326475" lon="7.9450545"><ele>310.0</ele><time>2026-04-10T09:52:30.845Z</time></trkpt><trkpt lat="45.0327282" lon="7.9450799"><ele>310.0</ele><time>2026-04-10T09:52:32.844Z</time></trkpt><trkpt lat="45.0328136" lon="7.9451082"><ele>310.0</ele><time>2026-04-10T09:52:34.844Z</time></trkpt><trkpt lat="45.0328981" lon="7.9451389"><ele>310.0</ele><time>2026-04-10T09:52:36.844Z</time></trkpt><trkpt lat="45.032976" lon="7.9451767"><ele>310.16666666666663</ele><time>2026-04-10T09:52:38.844Z</time></trkpt><trkpt lat="45.0330422" lon="7.9452251"><ele>310.3333333333333</ele><time>2026-04-10T09:52:40.844Z</time></trkpt><trkpt lat="45.0331096" lon="7.9452986"><ele>310.5</ele><time>2026-04-10T09:52:42.845Z</time></trkpt><trkpt lat="45.0331774" lon="7.9453846"><ele>310.6666666666667</ele><time>2026-04-10T09:52:44.844Z</time></trkpt><trkpt lat="45.0332499" lon="7.9454629"><ele>310.83333333333337</ele><time>2026-04-10T09:52:46.844Z</time></trkpt><trkpt lat="45.0333395" lon="7.9455307"><ele>311.0</ele><time>2026-04-10T09:52:48.845Z</time></trkpt><trkpt lat="45.0334418" lon="7.9455861"><ele>311.0</ele><time>2026-04-10T09:52:50.844Z</time></trkpt><trkpt lat="45.0335426" lon="7.9456083"><ele>311.0</ele><time>2026-04-10T09:52:52.846Z</time></trkpt><trkpt lat="45.0336529" lon="7.9456055"><ele>311.0</ele><time>2026-04-10T09:52:54.844Z</time></trkpt><trkpt lat="45.0337751" lon="7.9455455"><ele>311.0</ele><time>2026-04-10T09:52:56.845Z</time></trkpt><trkpt lat="45.0338714" lon="7.9455167"><ele>311.0</ele><time>2026-04-10T09:52:58.845Z</time></trkpt><trkpt lat="45.0339985" lon="7.9455043"><ele>311.0</ele><time>2026-04-10T09:53:00.845Z</time></trkpt><trkpt lat="45.0340828" lon="7.9454936"><ele>311.0</ele><time>2026-04-10T09:53:02.845Z</time></trkpt><trkpt lat="45.034205" lon="7.9454694"><ele>311.0</ele><time>2026-04-10T09:53:04.846Z</time></trkpt><trkpt lat="45.0343263" lon="7.9454422"><ele>311.0</ele><time>2026-04-10T09:53:06.844Z</time></trkpt><trkpt lat="45.0344367" lon="7.9454124"><ele>311.0</ele><time>2026-04-10T09:53:08.844Z</time></trkpt><trkpt lat="45.0345053" lon="7.9454061"><ele>310.8</ele><time>2026-04-10T09:53:09.844Z</time></trkpt><trkpt lat="45.0346238" lon="7.9453805"><ele>310.6</ele><time>2026-04-10T09:53:11.845Z</time></trkpt><trkpt lat="45.0347298" lon="7.945359"><ele>310.4</ele><time>2026-04-10T09:53:13.845Z</time></trkpt><trkpt lat="45.0348257" lon="7.9453427"><ele>310.2</ele><time>2026-04-10T09:53:15.844Z</time></trkpt><trkpt lat="45.0349285" lon="7.9453175"><ele>310.0</ele><time>2026-04-10T09:53:17.844Z</time></trkpt><trkpt lat="45.0350322" lon="7.9453059"><ele>310.0</ele><time>2026-04-10T09:53:19.845Z</time></trkpt><trkpt lat="45.0351485" lon="7.9452978"><ele>310.0</ele><time>2026-04-10T09:53:21.844Z</time></trkpt><trkpt lat="45.0352152" lon="7.9453129"><ele>310.0</ele><time>2026-04-10T09:53:22.845Z</time></trkpt><trkpt lat="45.0352773" lon="7.9453465"><ele>310.0</ele><time>2026-04-10T09:53:23.844Z</time></trkpt><trkpt lat="45.0353439" lon="7.9454045"><ele>310.0</ele><time>2026-04-10T09:53:24.845Z</time></trkpt><trkpt lat="45.0354064" lon="7.9454644"><ele>310.0</ele><time>2026-04-10T09:53:25.845Z</time></trkpt><trkpt lat="45.0354635" lon="7.9455274"><ele>310.0</ele><time>2026-04-10T09:53:26.845Z</time></trkpt><trkpt lat="45.0355251" lon="7.9455861"><ele>310.0</ele><time>2026-04-10T09:53:27.845Z</time></trkpt><trkpt lat="45.0355824" lon="7.9456434"><ele>310.0</ele><time>2026-04-10T09:53:28.845Z</time></trkpt><trkpt lat="45.0356414" lon="7.9457048"><ele>310.0</ele><time>2026-04-10T09:53:29.844Z</time></trkpt><trkpt lat="45.0356987" lon="7.9457697"><ele>310.0</ele><time>2026-04-10T09:53:30.845Z</time></trkpt><trkpt lat="45.0357509" lon="7.9458312"><ele>310.0</ele><time>2026-04-10T09:53:31.845Z</time></trkpt><trkpt lat="45.0357992" lon="7.945893"><ele>310.0</ele><time>2026-04-10T09:53:32.844Z</time></trkpt><trkpt lat="45.0358758" lon="7.9460076"><ele>309.8333333333333</ele><time>2026-04-10T09:53:34.846Z</time></trkpt><trkpt lat="45.0359517" lon="7.946116"><ele>309.66666666666663</ele><time>2026-04-10T09:53:36.845Z</time></trkpt><trkpt lat="45.0360396" lon="7.9462406"><ele>309.5</ele><time>2026-04-10T09:53:38.844Z</time></trkpt><trkpt lat="45.0360824" lon="7.9463074"><ele>309.3333333333333</ele><time>2026-04-10T09:53:39.844Z</time></trkpt><trkpt lat="45.0361371" lon="7.9463716"><ele>309.1666666666667</ele><time>2026-04-10T09:53:40.845Z</time></trkpt><trkpt lat="45.0361918" lon="7.9464238"><ele>309.0</ele><time>2026-04-10T09:53:41.844Z</time></trkpt><trkpt lat="45.0362455" lon="7.9464834"><ele>309.0</ele><time>2026-04-10T09:53:42.844Z</time></trkpt><trkpt lat="45.0363024" lon="7.9465373"><ele>309.0</ele><time>2026-04-10T09:53:43.844Z</time></trkpt><trkpt lat="45.0363562" lon="7.9465897"><ele>309.0</ele><time>2026-04-10T09:53:44.845Z</time></trkpt><trkpt lat="45.0364099" lon="7.946648"><ele>309.0</ele><time>2026-04-10T09:53:45.844Z</time></trkpt><trkpt lat="45.0365075" lon="7.9467551"><ele>309.0</ele><time>2026-04-10T09:53:47.845Z</time></trkpt><trkpt lat="45.036612" lon="7.9468435"><ele>309.0</ele><time>2026-04-10T09:53:49.844Z</time></trkpt><trkpt lat="45.0367181" lon="7.9468705"><ele>309.0</ele><time>2026-04-10T09:53:51.846Z</time></trkpt><trkpt lat="45.0367853" lon="7.9468659"><ele>309.0</ele><time>2026-04-10T09:53:52.845Z</time></trkpt><trkpt lat="45.0368959" lon="7.9468683"><ele>309.0</ele><time>2026-04-10T09:53:54.845Z</time></trkpt><trkpt lat="45.037003" lon="7.9468773"><ele>309.0</ele><time>2026-04-10T09:53:56.844Z</time></trkpt><trkpt lat="45.0371146" lon="7.9468836"><ele>309.0</ele><time>2026-04-10T09:53:58.845Z</time></trkpt><trkpt lat="45.0372201" lon="7.9468871"><ele>309.0</ele><time>2026-04-10T09:54:00.845Z</time></trkpt><trkpt lat="45.0373176" lon="7.9468749"><ele>309.0</ele><time>2026-04-10T09:54:02.844Z</time></trkpt><trkpt lat="45.0374084" lon="7.9468519"><ele>309.0</ele><time>2026-04-10T09:54:04.844Z</time></trkpt><trkpt lat="45.0375067" lon="7.9468144"><ele>309.0</ele><time>2026-04-10T09:54:06.846Z</time></trkpt><trkpt lat="45.0376008" lon="7.9467664"><ele>309.0</ele><time>2026-04-10T09:54:08.845Z</time></trkpt><trkpt lat="45.0376978" lon="7.9466994"><ele>310.8</ele><time>2026-04-10T09:54:10.846Z</time></trkpt><trkpt lat="45.0377747" lon="7.9466299"><ele>312.59999999999997</ele><time>2026-04-10T09:54:12.844Z</time></trkpt><trkpt lat="45.0378447" lon="7.9465382"><ele>314.4</ele><time>2026-04-10T09:54:14.845Z</time></trkpt><trkpt lat="45.0378806" lon="7.9464159"><ele>316.2</ele><time>2026-04-10T09:54:16.845Z</time></trkpt><trkpt lat="45.0378957" lon="7.9462717"><ele>318.0</ele><time>2026-04-10T09:54:18.844Z</time></trkpt><trkpt lat="45.0378999" lon="7.9461531"><ele>318.0</ele><time>2026-04-10T09:54:20.845Z</time></trkpt><trkpt lat="45.0379124" lon="7.9460418"><ele>318.0</ele><time>2026-04-10T09:54:22.844Z</time></trkpt><trkpt lat="45.037909" lon="7.9459329"><ele>318.0</ele><time>2026-04-10T09:54:25.844Z</time></trkpt><trkpt lat="45.0379345" lon="7.9458326"><ele>318.0</ele><time>2026-04-10T09:54:28.844Z</time></trkpt><trkpt lat="45.0379737" lon="7.9457175"><ele>318.0</ele><time>2026-04-10T09:54:31.845Z</time></trkpt><trkpt lat="45.0380038" lon="7.9456369"><ele>318.0</ele><time>2026-04-10T09:54:33.845Z</time></trkpt><trkpt lat="45.0380411" lon="7.9455641"><ele>318.6666666666667</ele><time>2026-04-10T09:54:35.845Z</time></trkpt><trkpt lat="45.0380932" lon="7.9454944"><ele>319.3333333333333</ele><time>2026-04-10T09:54:37.845Z</time></trkpt><trkpt lat="45.0381481" lon="7.9454271"><ele>320.0</ele><time>2026-04-10T09:54:39.845Z</time></trkpt><trkpt lat="45.038205" lon="7.9453524"><ele>320.66666666666663</ele><time>2026-04-10T09:54:41.845Z</time></trkpt><trkpt lat="45.038285" lon="7.9453338"><ele>321.3333333333333</ele><time>2026-04-10T09:54:44.846Z</time></trkpt><trkpt lat="45.0383453" lon="7.9453024"><ele>322.0</ele><time>2026-04-10T09:54:50.846Z</time></trkpt><trkpt lat="45.0382542" lon="7.9453157"><ele>322.0</ele><time>2026-04-10T09:54:55.845Z</time></trkpt><trkpt lat="45.0381965" lon="7.9453949"><ele>322.0</ele><time>2026-04-10T09:54:57.845Z</time></trkpt><trkpt lat="45.0381481" lon="7.9454751"><ele>322.0</ele><time>2026-04-10T09:54:59.844Z</time></trkpt><trkpt lat="45.038101" lon="7.9455499"><ele>322.0</ele><time>2026-04-10T09:55:01.843Z</time></trkpt><trkpt lat="45.0380482" lon="7.9456276"><ele>322.0</ele><time>2026-04-10T09:55:03.844Z</time></trkpt><trkpt lat="45.0380024" lon="7.9457187"><ele>322.0</ele><time>2026-04-10T09:55:05.844Z</time></trkpt><trkpt lat="45.0379646" lon="7.9458247"><ele>321.57142857142856</ele><time>2026-04-10T09:55:07.843Z</time></trkpt><trkpt lat="45.0379451" lon="7.9459194"><ele>321.1428571428571</ele><time>2026-04-10T09:55:09.845Z</time></trkpt><trkpt lat="45.0379875" lon="7.9460036"><ele>320.7142857142857</ele><time>2026-04-10T09:55:12.845Z</time></trkpt><trkpt lat="45.0380658" lon="7.9460482"><ele>320.2857142857143</ele><time>2026-04-10T09:55:14.845Z</time></trkpt><trkpt lat="45.0381416" lon="7.9460752"><ele>319.85714285714283</ele><time>2026-04-10T09:55:16.844Z</time></trkpt><trkpt lat="45.0382077" lon="7.946069"><ele>319.42857142857144</ele><time>2026-04-10T09:55:18.845Z</time></trkpt><trkpt lat="45.0382766" lon="7.9460538"><ele>319.0</ele><time>2026-04-10T09:55:20.844Z</time></trkpt><trkpt lat="45.0383366" lon="7.9459899"><ele>319.0</ele><time>2026-04-10T09:55:22.845Z</time></trkpt><trkpt lat="45.0383599" lon="7.9458919"><ele>319.0</ele><time>2026-04-10T09:55:24.844Z</time></trkpt><trkpt lat="45.0383703" lon="7.94578"><ele>319.0</ele><time>2026-04-10T09:55:26.846Z</time></trkpt><trkpt lat="45.0384103" lon="7.9456953"><ele>319.0</ele><time>2026-04-10T09:55:28.845Z</time></trkpt><trkpt lat="45.038514" lon="7.9456593"><ele>319.0</ele><time>2026-04-10T09:55:30.844Z</time></trkpt><trkpt lat="45.0386007" lon="7.945611"><ele>319.0</ele><time>2026-04-10T09:55:32.844Z</time></trkpt><trkpt lat="45.0386853" lon="7.9455763"><ele>319.8333333333333</ele><time>2026-04-10T09:55:34.844Z</time></trkpt><trkpt lat="45.0387595" lon="7.9455642"><ele>320.66666666666663</ele><time>2026-04-10T09:55:36.845Z</time></trkpt><trkpt lat="45.0388374" lon="7.9455849"><ele>321.5</ele><time>2026-04-10T09:55:38.844Z</time></trkpt><trkpt lat="45.0389361" lon="7.9456091"><ele>322.3333333333333</ele><time>2026-04-10T09:55:40.844Z</time></trkpt><trkpt lat="45.0390376" lon="7.9456217"><ele>323.1666666666667</ele><time>2026-04-10T09:55:42.845Z</time></trkpt><trkpt lat="45.0391018" lon="7.9456536"><ele>324.0</ele><time>2026-04-10T09:55:44.846Z</time></trkpt><trkpt lat="45.0391688" lon="7.9456973"><ele>324.0</ele><time>2026-04-10T09:55:47.845Z</time></trkpt><trkpt lat="45.0392206" lon="7.9456175"><ele>324.0</ele><time>2026-04-10T09:55:55.845Z</time></trkpt><trkpt lat="45.0392334" lon="7.9455229"><ele>324.0</ele><time>2026-04-10T09:55:57.845Z</time></trkpt><trkpt lat="45.0392363" lon="7.9454159"><ele>324.0</ele><time>2026-04-10T09:55:59.845Z</time></trkpt><trkpt lat="45.0392471" lon="7.9453152"><ele>324.0</ele><time>2026-04-10T09:56:01.846Z</time></trkpt><trkpt lat="45.0392748" lon="7.9452164"><ele>324.0</ele><time>2026-04-10T09:56:04.845Z</time></trkpt><trkpt lat="45.0393072" lon="7.9451257"><ele>324.0</ele><time>2026-04-10T09:56:08.844Z</time></trkpt><trkpt lat="45.0393103" lon="7.9450057"><ele>323.6666666666667</ele><time>2026-04-10T09:56:10.845Z</time></trkpt><trkpt lat="45.0393106" lon="7.9448704"><ele>323.3333333333333</ele><time>2026-04-10T09:56:12.844Z</time></trkpt><trkpt lat="45.039295" lon="7.9446929"><ele>323.0</ele><time>2026-04-10T09:56:14.843Z</time></trkpt><trkpt lat="45.0392854" lon="7.9446009"><ele>322.66666666666663</ele><time>2026-04-10T09:56:15.845Z</time></trkpt><trkpt lat="45.0392896" lon="7.9445019"><ele>322.3333333333333</ele><time>2026-04-10T09:56:16.845Z</time></trkpt><trkpt lat="45.0392824" lon="7.9444043"><ele>322.0</ele><time>2026-04-10T09:56:17.844Z</time></trkpt><trkpt lat="45.0392779" lon="7.9443141"><ele>322.0</ele><time>2026-04-10T09:56:18.846Z</time></trkpt><trkpt lat="45.0392961" lon="7.9442072"><ele>322.0</ele><time>2026-04-10T09:56:20.844Z</time></trkpt><trkpt lat="45.0393825" lon="7.9442138"><ele>322.0</ele><time>2026-04-10T09:56:24.844Z</time></trkpt><trkpt lat="45.0394597" lon="7.9442733"><ele>322.0</ele><time>2026-04-10T09:56:26.846Z</time></trkpt><trkpt lat="45.039554" lon="7.9443409"><ele>322.0</ele><time>2026-04-10T09:56:28.844Z</time></trkpt><trkpt lat="45.0396168" lon="7.9443796"><ele>322.0</ele><time>2026-04-10T09:56:29.845Z</time></trkpt><trkpt lat="45.0396829" lon="7.9444182"><ele>322.0</ele><time>2026-04-10T09:56:30.846Z</time></trkpt><trkpt lat="45.0397406" lon="7.9444726"><ele>322.0</ele><time>2026-04-10T09:56:31.844Z</time></trkpt><trkpt lat="45.0398057" lon="7.9445288"><ele>322.0</ele><time>2026-04-10T09:56:32.845Z</time></trkpt><trkpt lat="45.0398673" lon="7.9445944"><ele>322.0</ele><time>2026-04-10T09:56:33.845Z</time></trkpt><trkpt lat="45.0399031" lon="7.9446998"><ele>322.0</ele><time>2026-04-10T09:56:34.845Z</time></trkpt><trkpt lat="45.0399287" lon="7.9448211"><ele>322.0</ele><time>2026-04-10T09:56:35.845Z</time></trkpt><trkpt lat="45.0399303" lon="7.9449636"><ele>322.5</ele><time>2026-04-10T09:56:36.846Z</time></trkpt><trkpt lat="45.0399291" lon="7.9451014"><ele>323.0</ele><time>2026-04-10T09:56:37.844Z</time></trkpt><trkpt lat="45.0399247" lon="7.9452462"><ele>323.5</ele><time>2026-04-10T09:56:38.845Z</time></trkpt><trkpt lat="45.0399216" lon="7.9455279"><ele>324.0</ele><time>2026-04-10T09:56:40.845Z</time></trkpt><trkpt lat="45.0399231" lon="7.945665"><ele>324.0</ele><time>2026-04-10T09:56:41.844Z</time></trkpt><trkpt lat="45.039924" lon="7.9458197"><ele>324.0</ele><time>2026-04-10T09:56:42.843Z</time></trkpt><trkpt lat="45.0399566" lon="7.9459317"><ele>324.0</ele><time>2026-04-10T09:56:43.845Z</time></trkpt><trkpt lat="45.0399774" lon="7.9460612"><ele>324.0</ele><time>2026-04-10T09:56:44.844Z</time></trkpt><trkpt lat="45.0399769" lon="7.9461818"><ele>324.0</ele><time>2026-04-10T09:56:45.845Z</time></trkpt><trkpt lat="45.0399588" lon="7.9463044"><ele>321.8333333333333</ele><time>2026-04-10T09:56:46.843Z</time></trkpt><trkpt lat="45.0399018" lon="7.9463884"><ele>319.6666666666667</ele><time>2026-04-10T09:56:47.844Z</time></trkpt><trkpt lat="45.0398318" lon="7.9464606"><ele>317.5</ele><time>2026-04-10T09:56:48.845Z</time></trkpt><trkpt lat="45.0397536" lon="7.9465101"><ele>315.33333333333337</ele><time>2026-04-10T09:56:49.845Z</time></trkpt><trkpt lat="45.0396811" lon="7.9465172"><ele>313.1666666666667</ele><time>2026-04-10T09:56:50.845Z</time></trkpt><trkpt lat="45.0395649" lon="7.9465422"><ele>311.0</ele><time>2026-04-10T09:56:51.846Z</time></trkpt><trkpt lat="45.039458" lon="7.9465855"><ele>311.0</ele><time>2026-04-10T09:56:52.844Z</time></trkpt><trkpt lat="45.0393866" lon="7.9466815"><ele>311.0</ele><time>2026-04-10T09:56:53.845Z</time></trkpt><trkpt lat="45.0393386" lon="7.9468032"><ele>311.0</ele><time>2026-04-10T09:56:54.844Z</time></trkpt><trkpt lat="45.0392984" lon="7.9469202"><ele>311.0</ele><time>2026-04-10T09:56:55.843Z</time></trkpt><trkpt lat="45.0392728" lon="7.9470409"><ele>311.0</ele><time>2026-04-10T09:56:56.843Z</time></trkpt><trkpt lat="45.039249" lon="7.9471821"><ele>307.6</ele><time>2026-04-10T09:56:57.845Z</time></trkpt><trkpt lat="45.0392379" lon="7.9473082"><ele>304.20000000000005</ele><time>2026-04-10T09:56:58.845Z</time></trkpt><trkpt lat="45.0392111" lon="7.947474"><ele>300.79999999999995</ele><time>2026-04-10T09:56:59.844Z</time></trkpt><trkpt lat="45.0392141" lon="7.9476112"><ele>297.4</ele><time>2026-04-10T09:57:00.844Z</time></trkpt><trkpt lat="45.0391846" lon="7.9477382"><ele>294.0</ele><time>2026-04-10T09:57:01.844Z</time></trkpt><trkpt lat="45.0391457" lon="7.9478817"><ele>290.59999999999997</ele><time>2026-04-10T09:57:02.845Z</time></trkpt><trkpt lat="45.0390985" lon="7.9479776"><ele>287.2</ele><time>2026-04-10T09:57:03.845Z</time></trkpt><trkpt lat="45.0390821" lon="7.9481212"><ele>283.79999999999995</ele><time>2026-04-10T09:57:04.845Z</time></trkpt><trkpt lat="45.0390629" lon="7.9482658"><ele>280.4</ele><time>2026-04-10T09:57:05.844Z</time></trkpt><trkpt lat="45.0390696" lon="7.9484007"><ele>277.0</ele><time>2026-04-10T09:57:06.843Z</time></trkpt><trkpt lat="45.0390945" lon="7.9485514"><ele>275.0</ele><time>2026-04-10T09:57:07.844Z</time></trkpt><trkpt lat="45.0391219" lon="7.9487078"><ele>273.0</ele><time>2026-04-10T09:57:08.844Z</time></trkpt><trkpt lat="45.0391408" lon="7.9488782"><ele>271.0</ele><time>2026-04-10T09:57:09.844Z</time></trkpt><trkpt lat="45.0391643" lon="7.9490515"><ele>269.0</ele><time>2026-04-10T09:57:10.845Z</time></trkpt><trkpt lat="45.0391937" lon="7.9492242"><ele>268.25</ele><time>2026-04-10T09:57:11.845Z</time></trkpt><trkpt lat="45.0392194" lon="7.9494129"><ele>267.5</ele><time>2026-04-10T09:57:12.844Z</time></trkpt><trkpt lat="45.03924" lon="7.949598"><ele>266.75</ele><time>2026-04-10T09:57:13.845Z</time></trkpt><trkpt lat="45.039267" lon="7.9497834"><ele>266.0</ele><time>2026-04-10T09:57:14.843Z</time></trkpt><trkpt lat="45.0392799" lon="7.9499739"><ele>265.75</ele><time>2026-04-10T09:57:15.845Z</time></trkpt><trkpt lat="45.0392708" lon="7.9501672"><ele>265.5</ele><time>2026-04-10T09:57:16.844Z</time></trkpt><trkpt lat="45.0392444" lon="7.95035"><ele>265.25</ele><time>2026-04-10T09:57:17.845Z</time></trkpt><trkpt lat="45.0391954" lon="7.9505387"><ele>265.0</ele><time>2026-04-10T09:57:18.844Z</time></trkpt><trkpt lat="45.0391329" lon="7.9507093"><ele>262.25</ele><time>2026-04-10T09:57:19.844Z</time></trkpt><trkpt lat="45.0390552" lon="7.9508646"><ele>259.5</ele><time>2026-04-10T09:57:20.844Z</time></trkpt><trkpt lat="45.0389768" lon="7.9510333"><ele>256.75</ele><time>2026-04-10T09:57:21.844Z</time></trkpt><trkpt lat="45.038901" lon="7.9512036"><ele>254.0</ele><time>2026-04-10T09:57:22.846Z</time></trkpt><trkpt lat="45.0388253" lon="7.9513728"><ele>254.0</ele><time>2026-04-10T09:57:23.843Z</time></trkpt><trkpt lat="45.0387521" lon="7.9515457"><ele>254.0</ele><time>2026-04-10T09:57:24.845Z</time></trkpt><trkpt lat="45.0386893" lon="7.9517162"><ele>254.0</ele><time>2026-04-10T09:57:25.843Z</time></trkpt><trkpt lat="45.0386273" lon="7.9519039"><ele>254.0</ele><time>2026-04-10T09:57:26.845Z</time></trkpt><trkpt lat="45.0385834" lon="7.9520974"><ele>252.5</ele><time>2026-04-10T09:57:27.845Z</time></trkpt><trkpt lat="45.0385459" lon="7.9522978"><ele>251.0</ele><time>2026-04-10T09:57:28.846Z</time></trkpt><trkpt lat="45.0385436" lon="7.9524951"><ele>249.5</ele><time>2026-04-10T09:57:29.845Z</time></trkpt><trkpt lat="45.0385593" lon="7.9526911"><ele>248.0</ele><time>2026-04-10T09:57:30.846Z</time></trkpt><trkpt lat="45.038585" lon="7.9528794"><ele>247.0</ele><time>2026-04-10T09:57:31.846Z</time></trkpt><trkpt lat="45.0386331" lon="7.9530604"><ele>246.0</ele><time>2026-04-10T09:57:32.843Z</time></trkpt><trkpt lat="45.0386815" lon="7.9532436"><ele>245.0</ele><time>2026-04-10T09:57:33.844Z</time></trkpt><trkpt lat="45.0387297" lon="7.9534212"><ele>244.0</ele><time>2026-04-10T09:57:34.845Z</time></trkpt><trkpt lat="45.038768" lon="7.9535981"><ele>243.79999999999998</ele><time>2026-04-10T09:57:35.845Z</time></trkpt><trkpt lat="45.0388176" lon="7.9537668"><ele>243.59999999999997</ele><time>2026-04-10T09:57:36.846Z</time></trkpt><trkpt lat="45.0388589" lon="7.9539215"><ele>243.4</ele><time>2026-04-10T09:57:37.844Z</time></trkpt><trkpt lat="45.0388853" lon="7.954047"><ele>243.2</ele><time>2026-04-10T09:57:38.844Z</time></trkpt><trkpt lat="45.0389086" lon="7.9541405"><ele>243.0</ele><time>2026-04-10T09:57:39.844Z</time></trkpt><trkpt lat="45.0389194" lon="7.9542542"><ele>242.8</ele><time>2026-04-10T09:57:41.843Z</time></trkpt><trkpt lat="45.0388836" lon="7.9543378"><ele>242.60000000000002</ele><time>2026-04-10T09:57:43.843Z</time></trkpt><trkpt lat="45.0387899" lon="7.9544511"><ele>242.39999999999998</ele><time>2026-04-10T09:57:45.844Z</time></trkpt><trkpt lat="45.0387289" lon="7.9545282"><ele>242.2</ele><time>2026-04-10T09:57:46.844Z</time></trkpt><trkpt lat="45.0386702" lon="7.9546163"><ele>242.0</ele><time>2026-04-10T09:57:47.844Z</time></trkpt><trkpt lat="45.0386024" lon="7.9547108"><ele>242.00000000000003</ele><time>2026-04-10T09:57:48.844Z</time></trkpt><trkpt lat="45.0385381" lon="7.9547972"><ele>242.0</ele><time>2026-04-10T09:57:49.844Z</time></trkpt><trkpt lat="45.0384685" lon="7.9548917"><ele>242.0</ele><time>2026-04-10T09:57:50.844Z</time></trkpt><trkpt lat="45.0384153" lon="7.9549797"><ele>242.0</ele><time>2026-04-10T09:57:51.845Z</time></trkpt><trkpt lat="45.038357" lon="7.9550632"><ele>242.00000000000003</ele><time>2026-04-10T09:57:52.844Z</time></trkpt><trkpt lat="45.0382991" lon="7.9551461"><ele>242.0</ele><time>2026-04-10T09:57:53.843Z</time></trkpt><trkpt lat="45.0382409" lon="7.9552283"><ele>242.00000000000003</ele><time>2026-04-10T09:57:54.843Z</time></trkpt><trkpt lat="45.0381852" lon="7.9553114"><ele>242.0</ele><time>2026-04-10T09:57:55.845Z</time></trkpt><trkpt lat="45.0381294" lon="7.9553975"><ele>242.0</ele><time>2026-04-10T09:57:56.845Z</time></trkpt><trkpt lat="45.0380764" lon="7.9554854"><ele>242.0</ele><time>2026-04-10T09:57:57.844Z</time></trkpt><trkpt lat="45.0380265" lon="7.9555751"><ele>242.00000000000003</ele><time>2026-04-10T09:57:58.846Z</time></trkpt><trkpt lat="45.037986" lon="7.9556661"><ele>242.0</ele><time>2026-04-10T09:57:59.844Z</time></trkpt><trkpt lat="45.0379438" lon="7.9557553"><ele>242.0</ele><time>2026-04-10T09:58:00.844Z</time></trkpt><trkpt lat="45.0379046" lon="7.9558496"><ele>241.99999999999997</ele><time>2026-04-10T09:58:01.844Z</time></trkpt><trkpt lat="45.037871" lon="7.9559437"><ele>242.0</ele><time>2026-04-10T09:58:02.845Z</time></trkpt><trkpt lat="45.0378516" lon="7.9560369"><ele>242.0</ele><time>2026-04-10T09:58:03.845Z</time></trkpt><trkpt lat="45.0378192" lon="7.9561263"><ele>241.99999999999997</ele><time>2026-04-10T09:58:04.844Z</time></trkpt><trkpt lat="45.0377939" lon="7.9562218"><ele>242.0</ele><time>2026-04-10T09:58:05.845Z</time></trkpt><trkpt lat="45.0377623" lon="7.956309"><ele>242.0</ele><time>2026-04-10T09:58:06.845Z</time></trkpt><trkpt lat="45.0377267" lon="7.9563951"><ele>242.33333333333334</ele><time>2026-04-10T09:58:07.844Z</time></trkpt><trkpt lat="45.0376867" lon="7.9564749"><ele>242.66666666666669</ele><time>2026-04-10T09:58:08.843Z</time></trkpt><trkpt lat="45.0376441" lon="7.956542"><ele>243.0</ele><time>2026-04-10T09:58:09.844Z</time></trkpt><trkpt lat="45.0375942" lon="7.9566092"><ele>243.33333333333331</ele><time>2026-04-10T09:58:10.844Z</time></trkpt><trkpt lat="45.0375012" lon="7.9567177"><ele>243.66666666666666</ele><time>2026-04-10T09:58:12.844Z</time></trkpt><trkpt lat="45.0374485" lon="7.9567669"><ele>244.0</ele><time>2026-04-10T09:58:13.844Z</time></trkpt><trkpt lat="45.0373428" lon="7.9568398"><ele>244.16666666666666</ele><time>2026-04-10T09:58:15.845Z</time></trkpt><trkpt lat="45.0372556" lon="7.9568949"><ele>244.33333333333331</ele><time>2026-04-10T09:58:17.845Z</time></trkpt><trkpt lat="45.0371785" lon="7.9569436"><ele>244.5</ele><time>2026-04-10T09:58:19.845Z</time></trkpt><trkpt lat="45.03711" lon="7.9569742"><ele>244.66666666666669</ele><time>2026-04-10T09:58:21.845Z</time></trkpt><trkpt lat="45.0370423" lon="7.9570196"><ele>244.83333333333334</ele><time>2026-04-10T09:58:23.844Z</time></trkpt><trkpt lat="45.0369681" lon="7.9570768"><ele>245.0</ele><time>2026-04-10T09:58:25.845Z</time></trkpt><trkpt lat="45.0368965" lon="7.9571417"><ele>245.0</ele><time>2026-04-10T09:58:27.844Z</time></trkpt><trkpt lat="45.036825" lon="7.9572017"><ele>245.0</ele><time>2026-04-10T09:58:29.844Z</time></trkpt><trkpt lat="45.0367382" lon="7.9572558"><ele>245.0</ele><time>2026-04-10T09:58:31.845Z</time></trkpt><trkpt lat="45.0366571" lon="7.9573229"><ele>245.0</ele><time>2026-04-10T09:58:33.844Z</time></trkpt><trkpt lat="45.0365447" lon="7.957377"><ele>245.0</ele><time>2026-04-10T09:58:35.845Z</time></trkpt><trkpt lat="45.0364783" lon="7.957414"><ele>244.0</ele><time>2026-04-10T09:58:36.846Z</time></trkpt><trkpt lat="45.0363708" lon="7.9574921"><ele>243.0</ele><time>2026-04-10T09:58:38.844Z</time></trkpt><trkpt lat="45.0362567" lon="7.9575744"><ele>242.0</ele><time>2026-04-10T09:58:40.845Z</time></trkpt><trkpt lat="45.0361564" lon="7.9576417"><ele>241.0</ele><time>2026-04-10T09:58:42.845Z</time></trkpt><trkpt lat="45.0360633" lon="7.9577143"><ele>241.20000000000002</ele><time>2026-04-10T09:58:44.846Z</time></trkpt><trkpt lat="45.0359645" lon="7.9578006"><ele>241.40000000000003</ele><time>2026-04-10T09:58:46.845Z</time></trkpt><trkpt lat="45.0358655" lon="7.9578782"><ele>241.6</ele><time>2026-04-10T09:58:48.843Z</time></trkpt><trkpt lat="45.0357852" lon="7.9579538"><ele>241.8</ele><time>2026-04-10T09:58:50.844Z</time></trkpt><trkpt lat="45.0356968" lon="7.9580337"><ele>242.0</ele><time>2026-04-10T09:58:52.845Z</time></trkpt><trkpt lat="45.0355995" lon="7.9581078"><ele>242.0</ele><time>2026-04-10T09:58:54.844Z</time></trkpt><trkpt lat="45.0354958" lon="7.9581591"><ele>242.0</ele><time>2026-04-10T09:58:56.845Z</time></trkpt><trkpt lat="45.0354342" lon="7.9581917"><ele>242.0</ele><time>2026-04-10T09:58:57.844Z</time></trkpt><trkpt lat="45.0353597" lon="7.9582991"><ele>242.0</ele><time>2026-04-10T09:58:59.845Z</time></trkpt><trkpt lat="45.035293" lon="7.958448"><ele>242.0</ele><time>2026-04-10T09:59:01.844Z</time></trkpt><trkpt lat="45.0352351" lon="7.9586021"><ele>241.8</ele><time>2026-04-10T09:59:03.845Z</time></trkpt><trkpt lat="45.0351928" lon="7.9587455"><ele>241.6</ele><time>2026-04-10T09:59:05.843Z</time></trkpt><trkpt lat="45.0351298" lon="7.9588943"><ele>241.40000000000003</ele><time>2026-04-10T09:59:07.845Z</time></trkpt><trkpt lat="45.035073" lon="7.9589606"><ele>241.20000000000002</ele><time>2026-04-10T09:59:08.845Z</time></trkpt><trkpt lat="45.0350237" lon="7.9590251"><ele>241.0</ele><time>2026-04-10T09:59:09.844Z</time></trkpt><trkpt lat="45.0349764" lon="7.9591215"><ele>240.33333333333331</ele><time>2026-04-10T09:59:11.845Z</time></trkpt><trkpt lat="45.0348989" lon="7.9592434"><ele>239.66666666666666</ele><time>2026-04-10T09:59:13.846Z</time></trkpt><trkpt lat="45.0348593" lon="7.9593167"><ele>239.0</ele><time>2026-04-10T09:59:14.843Z</time></trkpt><trkpt lat="45.034819" lon="7.9593905"><ele>238.33333333333331</ele><time>2026-04-10T09:59:15.843Z</time></trkpt><trkpt lat="45.0347757" lon="7.95947"><ele>237.66666666666666</ele><time>2026-04-10T09:59:16.843Z</time></trkpt><trkpt lat="45.0347373" lon="7.95955"><ele>237.0</ele><time>2026-04-10T09:59:17.844Z</time></trkpt><trkpt lat="45.0347045" lon="7.9596362"><ele>236.99999999999997</ele><time>2026-04-10T09:59:18.845Z</time></trkpt><trkpt lat="45.0346825" lon="7.9597333"><ele>237.0</ele><time>2026-04-10T09:59:19.844Z</time></trkpt><trkpt lat="45.0346495" lon="7.9598253"><ele>236.99999999999997</ele><time>2026-04-10T09:59:20.845Z</time></trkpt><trkpt lat="45.034626" lon="7.9599198"><ele>236.99999999999997</ele><time>2026-04-10T09:59:21.843Z</time></trkpt><trkpt lat="45.0346153" lon="7.960019"><ele>237.0</ele><time>2026-04-10T09:59:22.845Z</time></trkpt><trkpt lat="45.0345972" lon="7.9601229"><ele>236.99999999999997</ele><time>2026-04-10T09:59:23.845Z</time></trkpt><trkpt lat="45.0345992" lon="7.9602259"><ele>236.99999999999997</ele><time>2026-04-10T09:59:24.845Z</time></trkpt><trkpt lat="45.0345988" lon="7.9603244"><ele>236.83333333333334</ele><time>2026-04-10T09:59:25.845Z</time></trkpt><trkpt lat="45.0345907" lon="7.9604206"><ele>236.66666666666669</ele><time>2026-04-10T09:59:26.843Z</time></trkpt><trkpt lat="45.0345878" lon="7.9605207"><ele>236.5</ele><time>2026-04-10T09:59:27.845Z</time></trkpt><trkpt lat="45.0345932" lon="7.9606187"><ele>236.33333333333334</ele><time>2026-04-10T09:59:28.844Z</time></trkpt><trkpt lat="45.0346281" lon="7.9607942"><ele>236.16666666666669</ele><time>2026-04-10T09:59:30.844Z</time></trkpt><trkpt lat="45.0346979" lon="7.9609178"><ele>236.0</ele><time>2026-04-10T09:59:32.846Z</time></trkpt><trkpt lat="45.034764" lon="7.9610509"><ele>235.8</ele><time>2026-04-10T09:59:34.845Z</time></trkpt><trkpt lat="45.0348278" lon="7.9611826"><ele>235.60000000000002</ele><time>2026-04-10T09:59:36.846Z</time></trkpt><trkpt lat="45.034884" lon="7.9613145"><ele>235.4</ele><time>2026-04-10T09:59:38.845Z</time></trkpt><trkpt lat="45.0349548" lon="7.9614198"><ele>235.2</ele><time>2026-04-10T09:59:40.843Z</time></trkpt><trkpt lat="45.0350307" lon="7.9615343"><ele>235.0</ele><time>2026-04-10T09:59:42.846Z</time></trkpt><trkpt lat="45.0350948" lon="7.9616654"><ele>234.6</ele><time>2026-04-10T09:59:44.846Z</time></trkpt><trkpt lat="45.0351732" lon="7.961776"><ele>234.2</ele><time>2026-04-10T09:59:46.843Z</time></trkpt><trkpt lat="45.0352218" lon="7.9619105"><ele>233.8</ele><time>2026-04-10T09:59:48.844Z</time></trkpt><trkpt lat="45.0352757" lon="7.962045"><ele>233.4</ele><time>2026-04-10T09:59:50.844Z</time></trkpt><trkpt lat="45.0353472" lon="7.9621823"><ele>233.0</ele><time>2026-04-10T09:59:52.844Z</time></trkpt><trkpt lat="45.0354285" lon="7.9623136"><ele>233.00000000000003</ele><time>2026-04-10T09:59:54.844Z</time></trkpt><trkpt lat="45.035504" lon="7.9624372"><ele>233.0</ele><time>2026-04-10T09:59:56.845Z</time></trkpt><trkpt lat="45.0355476" lon="7.9625054"><ele>233.0</ele><time>2026-04-10T09:59:57.844Z</time></trkpt><trkpt lat="45.0355907" lon="7.962572"><ele>233.0</ele><time>2026-04-10T09:59:58.845Z</time></trkpt><trkpt lat="45.0356371" lon="7.9626406"><ele>233.00000000000003</ele><time>2026-04-10T09:59:59.844Z</time></trkpt><trkpt lat="45.0357222" lon="7.962757"><ele>233.0</ele><time>2026-04-10T10:00:01.845Z</time></trkpt><trkpt lat="45.0357836" lon="7.9627803"><ele>232.83333333333334</ele><time>2026-04-10T10:00:02.846Z</time></trkpt><trkpt lat="45.0358467" lon="7.9627869"><ele>232.66666666666669</ele><time>2026-04-10T10:00:03.845Z</time></trkpt><trkpt lat="45.0359099" lon="7.9627801"><ele>232.5</ele><time>2026-04-10T10:00:04.844Z</time></trkpt><trkpt lat="45.0359739" lon="7.9627626"><ele>232.33333333333331</ele><time>2026-04-10T10:00:05.846Z</time></trkpt><trkpt lat="45.036097" lon="7.9627455"><ele>232.16666666666666</ele><time>2026-04-10T10:00:07.845Z</time></trkpt><trkpt lat="45.0362211" lon="7.9627422"><ele>232.0</ele><time>2026-04-10T10:00:09.844Z</time></trkpt><trkpt lat="45.0362913" lon="7.96273"><ele>232.0</ele><time>2026-04-10T10:00:10.845Z</time></trkpt><trkpt lat="45.0364117" lon="7.962723"><ele>232.0</ele><time>2026-04-10T10:00:12.845Z</time></trkpt><trkpt lat="45.0365397" lon="7.9627167"><ele>232.0</ele><time>2026-04-10T10:00:14.844Z</time></trkpt><trkpt lat="45.0366018" lon="7.9626927"><ele>232.0</ele><time>2026-04-10T10:00:15.845Z</time></trkpt><trkpt lat="45.0366698" lon="7.9626659"><ele>232.0</ele><time>2026-04-10T10:00:16.844Z</time></trkpt><trkpt lat="45.0367383" lon="7.9626358"><ele>231.8</ele><time>2026-04-10T10:00:17.844Z</time></trkpt><trkpt lat="45.0368509" lon="7.9625794"><ele>231.6</ele><time>2026-04-10T10:00:19.844Z</time></trkpt><trkpt lat="45.0369138" lon="7.9625451"><ele>231.40000000000003</ele><time>2026-04-10T10:00:20.845Z</time></trkpt><trkpt lat="45.0369766" lon="7.9625085"><ele>231.20000000000002</ele><time>2026-04-10T10:00:21.844Z</time></trkpt><trkpt lat="45.0370939" lon="7.9624381"><ele>231.0</ele><time>2026-04-10T10:00:23.844Z</time></trkpt><trkpt lat="45.0371634" lon="7.9624015"><ele>231.85714285714286</ele><time>2026-04-10T10:00:24.844Z</time></trkpt><trkpt lat="45.037226" lon="7.962355"><ele>232.71428571428572</ele><time>2026-04-10T10:00:25.844Z</time></trkpt><trkpt lat="45.037293" lon="7.9623144"><ele>233.57142857142856</ele><time>2026-04-10T10:00:26.845Z</time></trkpt><trkpt lat="45.0373583" lon="7.9622768"><ele>234.42857142857142</ele><time>2026-04-10T10:00:27.844Z</time></trkpt><trkpt lat="45.0374183" lon="7.9622444"><ele>235.28571428571428</ele><time>2026-04-10T10:00:28.846Z</time></trkpt><trkpt lat="45.0374817" lon="7.962193"><ele>236.1428571428571</ele><time>2026-04-10T10:00:29.844Z</time></trkpt><trkpt lat="45.0375433" lon="7.9621433"><ele>236.99999999999997</ele><time>2026-04-10T10:00:30.843Z</time></trkpt><trkpt lat="45.0376108" lon="7.9620942"><ele>236.99999999999997</ele><time>2026-04-10T10:00:31.844Z</time></trkpt><trkpt lat="45.0376772" lon="7.9620372"><ele>237.0</ele><time>2026-04-10T10:00:32.845Z</time></trkpt><trkpt lat="45.0377413" lon="7.9619953"><ele>236.99999999999997</ele><time>2026-04-10T10:00:33.844Z</time></trkpt><trkpt lat="45.0377988" lon="7.9619395"><ele>236.99999999999997</ele><time>2026-04-10T10:00:34.844Z</time></trkpt><trkpt lat="45.0378524" lon="7.9618769"><ele>237.0</ele><time>2026-04-10T10:00:35.844Z</time></trkpt><trkpt lat="45.0379093" lon="7.9618199"><ele>236.99999999999997</ele><time>2026-04-10T10:00:36.844Z</time></trkpt><trkpt lat="45.0379696" lon="7.9617673"><ele>236.99999999999997</ele><time>2026-04-10T10:00:37.844Z</time></trkpt><trkpt lat="45.0380234" lon="7.9617128"><ele>237.16666666666666</ele><time>2026-04-10T10:00:38.845Z</time></trkpt><trkpt lat="45.038084" lon="7.9616573"><ele>237.33333333333331</ele><time>2026-04-10T10:00:39.844Z</time></trkpt><trkpt lat="45.038137" lon="7.9616015"><ele>237.5</ele><time>2026-04-10T10:00:40.843Z</time></trkpt><trkpt lat="45.0381937" lon="7.9615569"><ele>237.66666666666666</ele><time>2026-04-10T10:00:41.845Z</time></trkpt><trkpt lat="45.0382913" lon="7.9614756"><ele>237.83333333333331</ele><time>2026-04-10T10:00:43.843Z</time></trkpt><trkpt lat="45.0383868" lon="7.961421"><ele>238.0</ele><time>2026-04-10T10:00:45.845Z</time></trkpt><trkpt lat="45.0384613" lon="7.9613987"><ele>238.0</ele><time>2026-04-10T10:00:47.845Z</time></trkpt><trkpt lat="45.0385368" lon="7.9613943"><ele>238.0</ele><time>2026-04-10T10:00:49.844Z</time></trkpt><trkpt lat="45.0386079" lon="7.9614748"><ele>238.0</ele><time>2026-04-10T10:00:52.843Z</time></trkpt><trkpt lat="45.0386217" lon="7.9615927"><ele>238.0</ele><time>2026-04-10T10:00:54.846Z</time></trkpt><trkpt lat="45.0386262" lon="7.96175"><ele>238.0</ele><time>2026-04-10T10:00:56.843Z</time></trkpt><trkpt lat="45.0386268" lon="7.9619081"><ele>237.83333333333331</ele><time>2026-04-10T10:00:58.845Z</time></trkpt><trkpt lat="45.0386371" lon="7.9619968"><ele>237.66666666666666</ele><time>2026-04-10T10:00:59.844Z</time></trkpt><trkpt lat="45.0386498" lon="7.9621573"><ele>237.5</ele><time>2026-04-10T10:01:01.845Z</time></trkpt><trkpt lat="45.0386537" lon="7.9622501"><ele>237.33333333333331</ele><time>2026-04-10T10:01:02.843Z</time></trkpt><trkpt lat="45.0386648" lon="7.9623472"><ele>237.16666666666666</ele><time>2026-04-10T10:01:03.845Z</time></trkpt><trkpt lat="45.0386847" lon="7.9624559"><ele>237.0</ele><time>2026-04-10T10:01:04.843Z</time></trkpt><trkpt lat="45.0386859" lon="7.9625458"><ele>236.85714285714283</ele><time>2026-04-10T10:01:05.843Z</time></trkpt><trkpt lat="45.0386855" lon="7.9626413"><ele>236.71428571428572</ele><time>2026-04-10T10:01:06.844Z</time></trkpt><trkpt lat="45.0386828" lon="7.9627333"><ele>236.57142857142856</ele><time>2026-04-10T10:01:07.845Z</time></trkpt><trkpt lat="45.0386872" lon="7.9628345"><ele>236.42857142857142</ele><time>2026-04-10T10:01:08.844Z</time></trkpt><trkpt lat="45.0386948" lon="7.9629359"><ele>236.28571428571428</ele><time>2026-04-10T10:01:09.845Z</time></trkpt><trkpt lat="45.0386954" lon="7.9630347"><ele>236.14285714285714</ele><time>2026-04-10T10:01:10.845Z</time></trkpt><trkpt lat="45.0387025" lon="7.9631375"><ele>236.0</ele><time>2026-04-10T10:01:11.844Z</time></trkpt><trkpt lat="45.0387032" lon="7.9632383"><ele>236.0</ele><time>2026-04-10T10:01:12.846Z</time></trkpt><trkpt lat="45.0387061" lon="7.9633372"><ele>236.0</ele><time>2026-04-10T10:01:13.844Z</time></trkpt><trkpt lat="45.0387044" lon="7.9634421"><ele>236.0</ele><time>2026-04-10T10:01:14.844Z</time></trkpt><trkpt lat="45.0387068" lon="7.9635504"><ele>236.0</ele><time>2026-04-10T10:01:15.844Z</time></trkpt><trkpt lat="45.0387106" lon="7.9636513"><ele>236.0</ele><time>2026-04-10T10:01:16.844Z</time></trkpt><trkpt lat="45.0387247" lon="7.9637526"><ele>236.0</ele><time>2026-04-10T10:01:17.844Z</time></trkpt><trkpt lat="45.038741" lon="7.9638454"><ele>236.0</ele><time>2026-04-10T10:01:18.845Z</time></trkpt><trkpt lat="45.03876" lon="7.9639464"><ele>236.0</ele><time>2026-04-10T10:01:19.846Z</time></trkpt><trkpt lat="45.0387848" lon="7.9640463"><ele>236.0</ele><time>2026-04-10T10:01:20.845Z</time></trkpt><trkpt lat="45.0388148" lon="7.964139"><ele>236.0</ele><time>2026-04-10T10:01:21.845Z</time></trkpt><trkpt lat="45.0388517" lon="7.9642236"><ele>236.0</ele><time>2026-04-10T10:01:22.844Z</time></trkpt><trkpt lat="45.0388921" lon="7.9642994"><ele>236.0</ele><time>2026-04-10T10:01:23.844Z</time></trkpt><trkpt lat="45.0389413" lon="7.9643756"><ele>236.0</ele><time>2026-04-10T10:01:24.844Z</time></trkpt><trkpt lat="45.0389986" lon="7.9644354"><ele>236.0</ele><time>2026-04-10T10:01:25.845Z</time></trkpt><trkpt lat="45.0390586" lon="7.9644867"><ele>236.0</ele><time>2026-04-10T10:01:26.844Z</time></trkpt><trkpt lat="45.0391135" lon="7.9645482"><ele>236.0</ele><time>2026-04-10T10:01:27.843Z</time></trkpt><trkpt lat="45.039168" lon="7.9646037"><ele>236.0</ele><time>2026-04-10T10:01:28.844Z</time></trkpt><trkpt lat="45.0392216" lon="7.964662"><ele>236.0</ele><time>2026-04-10T10:01:29.845Z</time></trkpt><trkpt lat="45.0392764" lon="7.9647184"><ele>236.0</ele><time>2026-04-10T10:01:30.844Z</time></trkpt><trkpt lat="45.0393318" lon="7.964769"><ele>236.0</ele><time>2026-04-10T10:01:31.845Z</time></trkpt><trkpt lat="45.0393897" lon="7.964818"><ele>236.0</ele><time>2026-04-10T10:01:32.845Z</time></trkpt><trkpt lat="45.0394393" lon="7.964873"><ele>236.16666666666669</ele><time>2026-04-10T10:01:33.844Z</time></trkpt><trkpt lat="45.03949" lon="7.9649406"><ele>236.33333333333334</ele><time>2026-04-10T10:01:34.845Z</time></trkpt><trkpt lat="45.039544" lon="7.9650086"><ele>236.5</ele><time>2026-04-10T10:01:35.843Z</time></trkpt><trkpt lat="45.039598" lon="7.9650726"><ele>236.66666666666669</ele><time>2026-04-10T10:01:36.845Z</time></trkpt><trkpt lat="45.039646" lon="7.965136"><ele>236.83333333333334</ele><time>2026-04-10T10:01:37.846Z</time></trkpt><trkpt lat="45.0397392" lon="7.9652527"><ele>237.0</ele><time>2026-04-10T10:01:39.844Z</time></trkpt><trkpt lat="45.0397836" lon="7.9653197"><ele>237.2</ele><time>2026-04-10T10:01:40.844Z</time></trkpt><trkpt lat="45.0398261" lon="7.9653862"><ele>237.39999999999998</ele><time>2026-04-10T10:01:41.844Z</time></trkpt><trkpt lat="45.0398999" lon="7.9655015"><ele>237.60000000000002</ele><time>2026-04-10T10:01:43.846Z</time></trkpt><trkpt lat="45.0399732" lon="7.9656088"><ele>237.8</ele><time>2026-04-10T10:01:45.844Z</time></trkpt><trkpt lat="45.0399614" lon="7.9657527"><ele>238.0</ele><time>2026-04-10T10:01:48.844Z</time></trkpt><trkpt lat="45.0399087" lon="7.9658415"><ele>238.0</ele><time>2026-04-10T10:01:50.844Z</time></trkpt><trkpt lat="45.0398392" lon="7.9658776"><ele>238.0</ele><time>2026-04-10T10:01:52.845Z</time></trkpt><trkpt lat="45.039762" lon="7.9659075"><ele>238.0</ele><time>2026-04-10T10:01:54.845Z</time></trkpt><trkpt lat="45.0396832" lon="7.9659375"><ele>238.0</ele><time>2026-04-10T10:01:56.844Z</time></trkpt><trkpt lat="45.0396171" lon="7.9659749"><ele>238.0</ele><time>2026-04-10T10:01:58.844Z</time></trkpt><trkpt lat="45.0395609" lon="7.9660178"><ele>238.0</ele><time>2026-04-10T10:02:01.844Z</time></trkpt><trkpt lat="45.0396298" lon="7.9660624"><ele>238.0</ele><time>2026-04-10T10:02:05.844Z</time></trkpt><trkpt lat="45.0396908" lon="7.9661129"><ele>238.0</ele><time>2026-04-10T10:02:07.845Z</time></trkpt><trkpt lat="45.0397079" lon="7.9662251"><ele>238.0</ele><time>2026-04-10T10:02:09.844Z</time></trkpt><trkpt lat="45.0396492" lon="7.9663408"><ele>238.0</ele><time>2026-04-10T10:02:11.843Z</time></trkpt><trkpt lat="45.0395893" lon="7.9664457"><ele>238.0</ele><time>2026-04-10T10:02:13.844Z</time></trkpt><trkpt lat="45.039539" lon="7.9665618"><ele>238.0</ele><time>2026-04-10T10:02:15.843Z</time></trkpt><trkpt lat="45.0395158" lon="7.9667047"><ele>238.2</ele><time>2026-04-10T10:02:17.845Z</time></trkpt><trkpt lat="45.0395222" lon="7.9668343"><ele>238.4</ele><time>2026-04-10T10:02:19.844Z</time></trkpt><trkpt lat="45.0395598" lon="7.9669738"><ele>238.59999999999997</ele><time>2026-04-10T10:02:21.844Z</time></trkpt><trkpt lat="45.0395695" lon="7.9671289"><ele>238.79999999999998</ele><time>2026-04-10T10:02:23.844Z</time></trkpt><trkpt lat="45.0395862" lon="7.9672657"><ele>239.0</ele><time>2026-04-10T10:02:25.845Z</time></trkpt><trkpt lat="45.0396289" lon="7.9674101"><ele>239.33333333333334</ele><time>2026-04-10T10:02:27.844Z</time></trkpt><trkpt lat="45.0396631" lon="7.9675504"><ele>239.66666666666669</ele><time>2026-04-10T10:02:29.845Z</time></trkpt><trkpt lat="45.0396807" lon="7.9676667"><ele>240.0</ele><time>2026-04-10T10:02:31.845Z</time></trkpt><trkpt lat="45.0397122" lon="7.9677743"><ele>240.33333333333331</ele><time>2026-04-10T10:02:33.843Z</time></trkpt><trkpt lat="45.0397492" lon="7.9678785"><ele>240.66666666666666</ele><time>2026-04-10T10:02:35.844Z</time></trkpt><trkpt lat="45.0397638" lon="7.9679939"><ele>241.0</ele><time>2026-04-10T10:02:37.845Z</time></trkpt><trkpt lat="45.0397792" lon="7.968098"><ele>240.99999999999997</ele><time>2026-04-10T10:02:39.843Z</time></trkpt><trkpt lat="45.039801" lon="7.9682063"><ele>241.0</ele><time>2026-04-10T10:02:41.843Z</time></trkpt><trkpt lat="45.0398201" lon="7.9683216"><ele>241.0</ele><time>2026-04-10T10:02:43.845Z</time></trkpt><trkpt lat="45.0398392" lon="7.9684371"><ele>241.0</ele><time>2026-04-10T10:02:45.845Z</time></trkpt><trkpt lat="45.0398596" lon="7.9685503"><ele>240.99999999999997</ele><time>2026-04-10T10:02:47.844Z</time></trkpt><trkpt lat="45.0398847" lon="7.9686625"><ele>241.0</ele><time>2026-04-10T10:02:49.844Z</time></trkpt><trkpt lat="45.0399069" lon="7.9687749"><ele>241.66666666666666</ele><time>2026-04-10T10:02:51.845Z</time></trkpt><trkpt lat="45.0399265" lon="7.9688877"><ele>242.33333333333331</ele><time>2026-04-10T10:02:53.845Z</time></trkpt><trkpt lat="45.0399449" lon="7.9690004"><ele>243.0</ele><time>2026-04-10T10:02:55.844Z</time></trkpt><trkpt lat="45.0399621" lon="7.9691157"><ele>243.66666666666669</ele><time>2026-04-10T10:02:57.844Z</time></trkpt><trkpt lat="45.0399835" lon="7.969216"><ele>244.33333333333334</ele><time>2026-04-10T10:02:59.845Z</time></trkpt><trkpt lat="45.040006" lon="7.9693206"><ele>245.0</ele><time>2026-04-10T10:03:01.845Z</time></trkpt><trkpt lat="45.0400223" lon="7.9694306"><ele>245.50000000000003</ele><time>2026-04-10T10:03:03.845Z</time></trkpt><trkpt lat="45.0400421" lon="7.9695425"><ele>246.0</ele><time>2026-04-10T10:03:05.845Z</time></trkpt><trkpt lat="45.0400633" lon="7.9696531"><ele>246.5</ele><time>2026-04-10T10:03:07.844Z</time></trkpt><trkpt lat="45.0400797" lon="7.9697632"><ele>247.0</ele><time>2026-04-10T10:03:09.844Z</time></trkpt><trkpt lat="45.0400898" lon="7.96988"><ele>247.50000000000003</ele><time>2026-04-10T10:03:11.845Z</time></trkpt><trkpt lat="45.0401091" lon="7.9699924"><ele>248.0</ele><time>2026-04-10T10:03:13.845Z</time></trkpt><trkpt lat="45.0401295" lon="7.9701069"><ele>250.33333333333334</ele><time>2026-04-10T10:03:15.846Z</time></trkpt><trkpt lat="45.0401468" lon="7.9702219"><ele>252.66666666666669</ele><time>2026-04-10T10:03:17.844Z</time></trkpt><trkpt lat="45.0401638" lon="7.9703301"><ele>255.0</ele><time>2026-04-10T10:03:19.844Z</time></trkpt><trkpt lat="45.0401816" lon="7.970435"><ele>257.3333333333333</ele><time>2026-04-10T10:03:21.845Z</time></trkpt><trkpt lat="45.0402006" lon="7.9705371"><ele>259.66666666666663</ele><time>2026-04-10T10:03:23.845Z</time></trkpt><trkpt lat="45.0402244" lon="7.9706432"><ele>262.0</ele><time>2026-04-10T10:03:25.843Z</time></trkpt><trkpt lat="45.0402468" lon="7.9707529"><ele>263.3333333333333</ele><time>2026-04-10T10:03:27.843Z</time></trkpt><trkpt lat="45.0402688" lon="7.9708644"><ele>264.66666666666663</ele><time>2026-04-10T10:03:29.845Z</time></trkpt><trkpt lat="45.0402943" lon="7.9709733"><ele>266.0</ele><time>2026-04-10T10:03:31.844Z</time></trkpt><trkpt lat="45.0403138" lon="7.9710837"><ele>267.3333333333333</ele><time>2026-04-10T10:03:33.844Z</time></trkpt><trkpt lat="45.0403316" lon="7.9711931"><ele>268.6666666666667</ele><time>2026-04-10T10:03:35.844Z</time></trkpt><trkpt lat="45.0403433" lon="7.9713094"><ele>270.0</ele><time>2026-04-10T10:03:37.845Z</time></trkpt><trkpt lat="45.0403601" lon="7.9714246"><ele>270.0</ele><time>2026-04-10T10:03:39.845Z</time></trkpt><trkpt lat="45.0403815" lon="7.9715372"><ele>270.0</ele><time>2026-04-10T10:03:41.844Z</time></trkpt><trkpt lat="45.040396" lon="7.9716574"><ele>270.0</ele><time>2026-04-10T10:03:43.844Z</time></trkpt><trkpt lat="45.0404087" lon="7.9717767"><ele>270.0</ele><time>2026-04-10T10:03:45.844Z</time></trkpt><trkpt lat="45.0404255" lon="7.9718926"><ele>270.0</ele><time>2026-04-10T10:03:47.845Z</time></trkpt><trkpt lat="45.0404382" lon="7.9720081"><ele>270.0</ele><time>2026-04-10T10:03:49.843Z</time></trkpt><trkpt lat="45.0404514" lon="7.972124"><ele>267.4</ele><time>2026-04-10T10:03:51.845Z</time></trkpt><trkpt lat="45.0404644" lon="7.9722369"><ele>264.8</ele><time>2026-04-10T10:03:53.844Z</time></trkpt><trkpt lat="45.0404789" lon="7.9723466"><ele>262.2</ele><time>2026-04-10T10:03:55.844Z</time></trkpt><trkpt lat="45.0404952" lon="7.9724615"><ele>259.6</ele><time>2026-04-10T10:03:57.845Z</time></trkpt><trkpt lat="45.0405143" lon="7.9725916"><ele>257.0</ele><time>2026-04-10T10:03:59.844Z</time></trkpt><trkpt lat="45.0405357" lon="7.9727807"><ele>256.0</ele><time>2026-04-10T10:04:02.844Z</time></trkpt><trkpt lat="45.040557" lon="7.9729858"><ele>255.0</ele><time>2026-04-10T10:04:05.844Z</time></trkpt><trkpt lat="45.0405674" lon="7.9731162"><ele>254.0</ele><time>2026-04-10T10:04:07.844Z</time></trkpt><trkpt lat="45.0405782" lon="7.9732481"><ele>253.0</ele><time>2026-04-10T10:04:09.844Z</time></trkpt><trkpt lat="45.0405963" lon="7.9733849"><ele>252.0</ele><time>2026-04-10T10:04:11.844Z</time></trkpt><trkpt lat="45.0406076" lon="7.9735115"><ele>254.8</ele><time>2026-04-10T10:04:13.846Z</time></trkpt><trkpt lat="45.0406245" lon="7.9736408"><ele>257.6</ele><time>2026-04-10T10:04:15.844Z</time></trkpt><trkpt lat="45.0406525" lon="7.9737571"><ele>260.40000000000003</ele><time>2026-04-10T10:04:17.845Z</time></trkpt><trkpt lat="45.0406574" lon="7.9738769"><ele>263.2</ele><time>2026-04-10T10:04:19.844Z</time></trkpt><trkpt lat="45.040671" lon="7.9740129"><ele>266.0</ele><time>2026-04-10T10:04:21.845Z</time></trkpt><trkpt lat="45.0406759" lon="7.9741651"><ele>270.0</ele><time>2026-04-10T10:04:23.845Z</time></trkpt><trkpt lat="45.0406826" lon="7.974309"><ele>274.0</ele><time>2026-04-10T10:04:25.844Z</time></trkpt><trkpt lat="45.0407076" lon="7.9744304"><ele>278.0</ele><time>2026-04-10T10:04:27.845Z</time></trkpt><trkpt lat="45.0407232" lon="7.9745658"><ele>282.0</ele><time>2026-04-10T10:04:29.845Z</time></trkpt><trkpt lat="45.0407441" lon="7.9746895"><ele>286.0</ele><time>2026-04-10T10:04:31.845Z</time></trkpt><trkpt lat="45.0407589" lon="7.9748354"><ele>286.0</ele><time>2026-04-10T10:04:33.844Z</time></trkpt><trkpt lat="45.0407779" lon="7.9749435"><ele>286.0</ele><time>2026-04-10T10:04:35.846Z</time></trkpt><trkpt lat="45.0407894" lon="7.9750463"><ele>286.0</ele><time>2026-04-10T10:04:37.845Z</time></trkpt><trkpt lat="45.0408006" lon="7.9751503"><ele>286.0</ele><time>2026-04-10T10:04:39.844Z</time></trkpt><trkpt lat="45.0408338" lon="7.9752464"><ele>286.0</ele><time>2026-04-10T10:04:41.845Z</time></trkpt><trkpt lat="45.0409353" lon="7.9764744"><ele>284.40000000000003</ele><time>2026-04-10T10:04:54.844Z</time></trkpt><trkpt lat="45.0409451" lon="7.9765911"><ele>282.8</ele><time>2026-04-10T10:04:55.845Z</time></trkpt><trkpt lat="45.040988" lon="7.9767775"><ele>281.20000000000005</ele><time>2026-04-10T10:04:57.844Z</time></trkpt><trkpt lat="45.0409998" lon="7.9768718"><ele>279.6</ele><time>2026-04-10T10:04:58.844Z</time></trkpt><trkpt lat="45.0410127" lon="7.9769664"><ele>278.0</ele><time>2026-04-10T10:04:59.846Z</time></trkpt><trkpt lat="45.0410162" lon="7.9771494"><ele>274.83333333333337</ele><time>2026-04-10T10:05:01.845Z</time></trkpt><trkpt lat="45.0410405" lon="7.977287"><ele>271.6666666666667</ele><time>2026-04-10T10:05:02.845Z</time></trkpt><trkpt lat="45.0410428" lon="7.9773935"><ele>268.5</ele><time>2026-04-10T10:05:03.845Z</time></trkpt><trkpt lat="45.041064" lon="7.9775077"><ele>265.3333333333333</ele><time>2026-04-10T10:05:04.845Z</time></trkpt><trkpt lat="45.0410748" lon="7.9776198"><ele>262.16666666666663</ele><time>2026-04-10T10:05:05.845Z</time></trkpt><trkpt lat="45.0410883" lon="7.9777305"><ele>259.0</ele><time>2026-04-10T10:05:06.845Z</time></trkpt><trkpt lat="45.0410998" lon="7.9778514"><ele>259.2857142857143</ele><time>2026-04-10T10:05:07.845Z</time></trkpt><trkpt lat="45.0411194" lon="7.977962"><ele>259.57142857142856</ele><time>2026-04-10T10:05:08.844Z</time></trkpt><trkpt lat="45.0411334" lon="7.9780666"><ele>259.8571428571429</ele><time>2026-04-10T10:05:09.844Z</time></trkpt><trkpt lat="45.0411335" lon="7.9781668"><ele>260.1428571428571</ele><time>2026-04-10T10:05:10.844Z</time></trkpt><trkpt lat="45.0411242" lon="7.9782616"><ele>260.42857142857144</ele><time>2026-04-10T10:05:11.845Z</time></trkpt><trkpt lat="45.0410957" lon="7.978351"><ele>260.7142857142857</ele><time>2026-04-10T10:05:12.845Z</time></trkpt><trkpt lat="45.0410741" lon="7.9784387"><ele>261.0</ele><time>2026-04-10T10:05:13.845Z</time></trkpt><trkpt lat="45.0410528" lon="7.9785377"><ele>261.0</ele><time>2026-04-10T10:05:14.845Z</time></trkpt><trkpt lat="45.0410466" lon="7.9786321"><ele>261.0</ele><time>2026-04-10T10:05:15.845Z</time></trkpt><trkpt lat="45.0410689" lon="7.9787179"><ele>261.0</ele><time>2026-04-10T10:05:16.844Z</time></trkpt><trkpt lat="45.0410904" lon="7.9788149"><ele>261.0</ele><time>2026-04-10T10:05:17.844Z</time></trkpt><trkpt lat="45.0411425" lon="7.9788842"><ele>261.0</ele><time>2026-04-10T10:05:18.845Z</time></trkpt><trkpt lat="45.041191" lon="7.9789644"><ele>261.0</ele><time>2026-04-10T10:05:19.844Z</time></trkpt><trkpt lat="45.0412378" lon="7.9790539"><ele>261.0</ele><time>2026-04-10T10:05:20.845Z</time></trkpt><trkpt lat="45.0412838" lon="7.979214"><ele>262.8333333333333</ele><time>2026-04-10T10:05:22.843Z</time></trkpt><trkpt lat="45.0412903" lon="7.979367"><ele>264.6666666666667</ele><time>2026-04-10T10:05:24.843Z</time></trkpt><trkpt lat="45.0412526" lon="7.9794759"><ele>266.5</ele><time>2026-04-10T10:05:26.843Z</time></trkpt><trkpt lat="45.0412242" lon="7.9795975"><ele>268.33333333333337</ele><time>2026-04-10T10:05:28.843Z</time></trkpt><trkpt lat="45.0412113" lon="7.9796935"><ele>270.1666666666667</ele><time>2026-04-10T10:05:30.846Z</time></trkpt><trkpt lat="45.0412271" lon="7.9798217"><ele>272.0</ele><time>2026-04-10T10:05:33.844Z</time></trkpt><trkpt lat="45.0412473" lon="7.9799156"><ele>273.85714285714283</ele><time>2026-04-10T10:05:35.844Z</time></trkpt><trkpt lat="45.0412477" lon="7.9800169"><ele>275.7142857142857</ele><time>2026-04-10T10:05:38.844Z</time></trkpt><trkpt lat="45.041254" lon="7.9801152"><ele>277.57142857142856</ele><time>2026-04-10T10:05:41.844Z</time></trkpt><trkpt lat="45.0412698" lon="7.9802074"><ele>279.42857142857144</ele><time>2026-04-10T10:05:54.843Z</time></trkpt><trkpt lat="45.0412845" lon="7.980299"><ele>281.2857142857143</ele><time>2026-04-10T10:05:58.844Z</time></trkpt><trkpt lat="45.0412869" lon="7.9803902"><ele>283.1428571428571</ele><time>2026-04-10T10:06:14.843Z</time></trkpt><trkpt lat="45.0412939" lon="7.9804805"><ele>285.0</ele><time>2026-04-10T10:06:17.843Z</time></trkpt><trkpt lat="45.0413111" lon="7.9805872"><ele>285.0</ele><time>2026-04-10T10:06:20.845Z</time></trkpt><trkpt lat="45.0413461" lon="7.9806937"><ele>285.0</ele><time>2026-04-10T10:06:23.844Z</time></trkpt><trkpt lat="45.041369" lon="7.9807888"><ele>285.0</ele><time>2026-04-10T10:06:26.845Z</time></trkpt><trkpt lat="45.0413745" lon="7.9808862"><ele>285.0</ele><time>2026-04-10T10:06:30.843Z</time></trkpt><trkpt lat="45.0413888" lon="7.9809857"><ele>285.0</ele><time>2026-04-10T10:06:34.844Z</time></trkpt><trkpt lat="45.0414173" lon="7.9810891"><ele>285.0</ele><time>2026-04-10T10:06:38.844Z</time></trkpt><trkpt lat="45.0414524" lon="7.9811755"><ele>285.0</ele><time>2026-04-10T10:06:42.844Z</time></trkpt><trkpt lat="45.0414853" lon="7.9812727"><ele>286.42857142857144</ele><time>2026-04-10T10:06:46.843Z</time></trkpt><trkpt lat="45.0414982" lon="7.9813779"><ele>287.8571428571429</ele><time>2026-04-10T10:06:50.844Z</time></trkpt><trkpt lat="45.0415159" lon="7.9814779"><ele>289.28571428571433</ele><time>2026-04-10T10:06:54.844Z</time></trkpt><trkpt lat="45.0415496" lon="7.9815615"><ele>290.7142857142857</ele><time>2026-04-10T10:06:58.844Z</time></trkpt><trkpt lat="45.0414756" lon="7.9815238"><ele>292.14285714285717</ele><time>2026-04-10T10:07:05.844Z</time></trkpt><trkpt lat="45.0414155" lon="7.9814624"><ele>293.5714285714286</ele><time>2026-04-10T10:07:09.844Z</time></trkpt><trkpt lat="45.0414763" lon="7.9815214"><ele>295.0</ele><time>2026-04-10T10:07:15.844Z</time></trkpt><trkpt lat="45.0415179" lon="7.9815934"><ele>295.00000000000006</ele><time>2026-04-10T10:07:17.843Z</time></trkpt><trkpt lat="45.0415566" lon="7.9816777"><ele>295.0</ele><time>2026-04-10T10:07:18.844Z</time></trkpt><trkpt lat="45.0415591" lon="7.9817763"><ele>295.0</ele><time>2026-04-10T10:07:21.844Z</time></trkpt><trkpt lat="45.0415628" lon="7.9818697"><ele>295.0</ele><time>2026-04-10T10:07:24.845Z</time></trkpt><trkpt lat="45.041557" lon="7.9819666"><ele>295.0</ele><time>2026-04-10T10:07:27.845Z</time></trkpt><trkpt lat="45.0415607" lon="7.9820673"><ele>295.00000000000006</ele><time>2026-04-10T10:07:30.844Z</time></trkpt><trkpt lat="45.0415432" lon="7.982153"><ele>295.0</ele><time>2026-04-10T10:07:33.844Z</time></trkpt><trkpt lat="45.041515" lon="7.9822541"><ele>295.14285714285717</ele><time>2026-04-10T10:07:37.844Z</time></trkpt><trkpt lat="45.0414802" lon="7.9823326"><ele>295.2857142857143</ele><time>2026-04-10T10:07:40.845Z</time></trkpt><trkpt lat="45.0414347" lon="7.9824136"><ele>295.42857142857144</ele><time>2026-04-10T10:07:43.844Z</time></trkpt><trkpt lat="45.041399" lon="7.9824933"><ele>295.57142857142856</ele><time>2026-04-10T10:07:46.845Z</time></trkpt><trkpt lat="45.0413523" lon="7.9825737"><ele>295.7142857142857</ele><time>2026-04-10T10:07:49.846Z</time></trkpt><trkpt lat="45.0412896" lon="7.9826377"><ele>295.8571428571429</ele><time>2026-04-10T10:07:52.845Z</time></trkpt><trkpt lat="45.0412402" lon="7.98272"><ele>296.0</ele><time>2026-04-10T10:07:55.844Z</time></trkpt><trkpt lat="45.0411963" lon="7.9827919"><ele>295.5</ele><time>2026-04-10T10:07:58.846Z</time></trkpt><trkpt lat="45.0411412" lon="7.9828661"><ele>295.0</ele><time>2026-04-10T10:08:01.845Z</time></trkpt><trkpt lat="45.0410803" lon="7.9829345"><ele>294.5</ele><time>2026-04-10T10:08:04.844Z</time></trkpt><trkpt lat="45.0410114" lon="7.9830006"><ele>294.0</ele><time>2026-04-10T10:08:07.844Z</time></trkpt><trkpt lat="45.0409381" lon="7.983051"><ele>293.5</ele><time>2026-04-10T10:08:10.844Z</time></trkpt><trkpt lat="45.0408563" lon="7.9830893"><ele>293.0</ele><time>2026-04-10T10:08:13.844Z</time></trkpt><trkpt lat="45.0407704" lon="7.9831332"><ele>293.33333333333337</ele><time>2026-04-10T10:08:16.843Z</time></trkpt><trkpt lat="45.0406831" lon="7.9831586"><ele>293.6666666666667</ele><time>2026-04-10T10:08:19.846Z</time></trkpt><trkpt lat="45.0405975" lon="7.9831934"><ele>294.0</ele><time>2026-04-10T10:08:22.844Z</time></trkpt><trkpt lat="45.0405158" lon="7.9832371"><ele>294.3333333333333</ele><time>2026-04-10T10:08:25.845Z</time></trkpt><trkpt lat="45.0404515" lon="7.9832712"><ele>294.66666666666663</ele><time>2026-04-10T10:08:27.845Z</time></trkpt><trkpt lat="45.0403894" lon="7.983307"><ele>295.0</ele><time>2026-04-10T10:08:29.844Z</time></trkpt><trkpt lat="45.0403253" lon="7.9833508"><ele>295.0</ele><time>2026-04-10T10:08:31.844Z</time></trkpt><trkpt lat="45.040262" lon="7.9834008"><ele>295.0</ele><time>2026-04-10T10:08:33.844Z</time></trkpt><trkpt lat="45.0401967" lon="7.9834523"><ele>295.0</ele><time>2026-04-10T10:08:35.845Z</time></trkpt><trkpt lat="45.0401295" lon="7.9835068"><ele>295.0</ele><time>2026-04-10T10:08:37.844Z</time></trkpt><trkpt lat="45.0400613" lon="7.9835638"><ele>295.0</ele><time>2026-04-10T10:08:39.843Z</time></trkpt><trkpt lat="45.0399906" lon="7.9836266"><ele>295.0</ele><time>2026-04-10T10:08:41.843Z</time></trkpt><trkpt lat="45.0399095" lon="7.9836848"><ele>295.0</ele><time>2026-04-10T10:08:43.844Z</time></trkpt><trkpt lat="45.0398174" lon="7.9837598"><ele>295.0</ele><time>2026-04-10T10:08:45.843Z</time></trkpt><trkpt lat="45.0397265" lon="7.9838373"><ele>295.0</ele><time>2026-04-10T10:08:47.844Z</time></trkpt><trkpt lat="45.0396698" lon="7.9838778"><ele>295.0</ele><time>2026-04-10T10:08:48.843Z</time></trkpt><trkpt lat="45.0396123" lon="7.9839155"><ele>295.0</ele><time>2026-04-10T10:08:49.845Z</time></trkpt><trkpt lat="45.0395575" lon="7.9839631"><ele>295.0</ele><time>2026-04-10T10:08:50.845Z</time></trkpt><trkpt lat="45.0395006" lon="7.9840097"><ele>295.0</ele><time>2026-04-10T10:08:51.844Z</time></trkpt><trkpt lat="45.0393903" lon="7.9840929"><ele>295.0</ele><time>2026-04-10T10:08:53.845Z</time></trkpt><trkpt lat="45.0392875" lon="7.9841791"><ele>295.0</ele><time>2026-04-10T10:08:55.844Z</time></trkpt><trkpt lat="45.0391853" lon="7.9842611"><ele>295.0</ele><time>2026-04-10T10:08:57.843Z</time></trkpt><trkpt lat="45.0391267" lon="7.9843058"><ele>295.0</ele><time>2026-04-10T10:08:58.844Z</time></trkpt><trkpt lat="45.0390262" lon="7.9843728"><ele>294.0</ele><time>2026-04-10T10:09:00.844Z</time></trkpt><trkpt lat="45.0389123" lon="7.9844573"><ele>293.0</ele><time>2026-04-10T10:09:02.844Z</time></trkpt><trkpt lat="45.0388428" lon="7.9845036"><ele>292.0</ele><time>2026-04-10T10:09:03.844Z</time></trkpt><trkpt lat="45.0387803" lon="7.9845489"><ele>291.0</ele><time>2026-04-10T10:09:04.843Z</time></trkpt><trkpt lat="45.0387223" lon="7.9845942"><ele>290.0</ele><time>2026-04-10T10:09:05.844Z</time></trkpt><trkpt lat="45.0386666" lon="7.9846508"><ele>289.0</ele><time>2026-04-10T10:09:06.845Z</time></trkpt><trkpt lat="45.038557" lon="7.9847643"><ele>289.0</ele><time>2026-04-10T10:09:08.845Z</time></trkpt><trkpt lat="45.038486" lon="7.9848221"><ele>289.0</ele><time>2026-04-10T10:09:09.843Z</time></trkpt><trkpt lat="45.0384357" lon="7.9848923"><ele>289.0</ele><time>2026-04-10T10:09:10.843Z</time></trkpt><trkpt lat="45.038364" lon="7.9849537"><ele>289.0</ele><time>2026-04-10T10:09:11.844Z</time></trkpt><trkpt lat="45.0382896" lon="7.9850148"><ele>289.0</ele><time>2026-04-10T10:09:12.844Z</time></trkpt><trkpt lat="45.0382102" lon="7.9850707"><ele>289.0</ele><time>2026-04-10T10:09:13.844Z</time></trkpt><trkpt lat="45.0381073" lon="7.9850789"><ele>290.59999999999997</ele><time>2026-04-10T10:09:14.844Z</time></trkpt><trkpt lat="45.0380251" lon="7.9850902"><ele>292.2</ele><time>2026-04-10T10:09:15.843Z</time></trkpt><trkpt lat="45.0379376" lon="7.9850853"><ele>293.79999999999995</ele><time>2026-04-10T10:09:16.843Z</time></trkpt><trkpt lat="45.0378613" lon="7.9850823"><ele>295.4</ele><time>2026-04-10T10:09:17.844Z</time></trkpt><trkpt lat="45.0377657" lon="7.9851111"><ele>297.0</ele><time>2026-04-10T10:09:18.844Z</time></trkpt><trkpt lat="45.0376527" lon="7.9851042"><ele>297.0</ele><time>2026-04-10T10:09:19.843Z</time></trkpt><trkpt lat="45.0375786" lon="7.9850965"><ele>297.0</ele><time>2026-04-10T10:09:20.845Z</time></trkpt><trkpt lat="45.0375145" lon="7.9851314"><ele>297.0</ele><time>2026-04-10T10:09:21.844Z</time></trkpt><trkpt lat="45.0374452" lon="7.9851946"><ele>297.0</ele><time>2026-04-10T10:09:22.845Z</time></trkpt><trkpt lat="45.0373675" lon="7.9852416"><ele>297.0</ele><time>2026-04-10T10:09:23.843Z</time></trkpt><trkpt lat="45.0372979" lon="7.9853175"><ele>297.0</ele><time>2026-04-10T10:09:24.845Z</time></trkpt><trkpt lat="45.0372327" lon="7.9853975"><ele>296.1666666666667</ele><time>2026-04-10T10:09:25.843Z</time></trkpt><trkpt lat="45.0371748" lon="7.9854717"><ele>295.3333333333333</ele><time>2026-04-10T10:09:26.843Z</time></trkpt><trkpt lat="45.0371034" lon="7.9855594"><ele>294.5</ele><time>2026-04-10T10:09:27.844Z</time></trkpt><trkpt lat="45.0370319" lon="7.9856165"><ele>293.66666666666663</ele><time>2026-04-10T10:09:28.845Z</time></trkpt><trkpt lat="45.0369444" lon="7.9856536"><ele>292.8333333333333</ele><time>2026-04-10T10:09:29.845Z</time></trkpt><trkpt lat="45.0368805" lon="7.9856753"><ele>292.0</ele><time>2026-04-10T10:09:30.843Z</time></trkpt><trkpt lat="45.036811" lon="7.9856832"><ele>292.0</ele><time>2026-04-10T10:09:31.844Z</time></trkpt><trkpt lat="45.0367275" lon="7.9856908"><ele>292.0</ele><time>2026-04-10T10:09:32.844Z</time></trkpt><trkpt lat="45.0366422" lon="7.9857027"><ele>292.0</ele><time>2026-04-10T10:09:33.843Z</time></trkpt><trkpt lat="45.036563" lon="7.9857105"><ele>292.0</ele><time>2026-04-10T10:09:34.845Z</time></trkpt><trkpt lat="45.036484" lon="7.9857222"><ele>292.0</ele><time>2026-04-10T10:09:35.843Z</time></trkpt><trkpt lat="45.0364089" lon="7.9857284"><ele>292.0</ele><time>2026-04-10T10:09:36.844Z</time></trkpt><trkpt lat="45.036333" lon="7.9857444"><ele>290.8</ele><time>2026-04-10T10:09:37.843Z</time></trkpt><trkpt lat="45.0362481" lon="7.9857475"><ele>289.6</ele><time>2026-04-10T10:09:38.844Z</time></trkpt><trkpt lat="45.0360866" lon="7.985721"><ele>288.40000000000003</ele><time>2026-04-10T10:09:40.844Z</time></trkpt><trkpt lat="45.036011" lon="7.9856945"><ele>287.2</ele><time>2026-04-10T10:09:41.845Z</time></trkpt><trkpt lat="45.0359362" lon="7.9856605"><ele>286.0</ele><time>2026-04-10T10:09:42.844Z</time></trkpt><trkpt lat="45.0358658" lon="7.9856084"><ele>284.85714285714283</ele><time>2026-04-10T10:09:43.843Z</time></trkpt><trkpt lat="45.0357946" lon="7.9855461"><ele>283.7142857142857</ele><time>2026-04-10T10:09:44.845Z</time></trkpt><trkpt lat="45.0357372" lon="7.9854773"><ele>282.57142857142856</ele><time>2026-04-10T10:09:45.845Z</time></trkpt><trkpt lat="45.0356771" lon="7.9854001"><ele>281.42857142857144</ele><time>2026-04-10T10:09:46.844Z</time></trkpt><trkpt lat="45.0356339" lon="7.9853192"><ele>280.2857142857143</ele><time>2026-04-10T10:09:47.843Z</time></trkpt><trkpt lat="45.0355962" lon="7.985244"><ele>279.1428571428571</ele><time>2026-04-10T10:09:48.843Z</time></trkpt><trkpt lat="45.0355528" lon="7.9851767"><ele>278.0</ele><time>2026-04-10T10:09:49.843Z</time></trkpt><trkpt lat="45.0354925" lon="7.9851135"><ele>278.0</ele><time>2026-04-10T10:09:50.845Z</time></trkpt><trkpt lat="45.035424" lon="7.9850724"><ele>278.0</ele><time>2026-04-10T10:09:51.844Z</time></trkpt><trkpt lat="45.0353564" lon="7.985035"><ele>278.0</ele><time>2026-04-10T10:09:52.843Z</time></trkpt><trkpt lat="45.0352823" lon="7.9849989"><ele>278.0</ele><time>2026-04-10T10:09:53.845Z</time></trkpt><trkpt lat="45.0352046" lon="7.9849598"><ele>278.0</ele><time>2026-04-10T10:09:54.843Z</time></trkpt><trkpt lat="45.0351286" lon="7.9849204"><ele>278.0</ele><time>2026-04-10T10:09:55.845Z</time></trkpt><trkpt lat="45.0350494" lon="7.9848812"><ele>279.0</ele><time>2026-04-10T10:09:56.843Z</time></trkpt><trkpt lat="45.0349702" lon="7.984855"><ele>280.0</ele><time>2026-04-10T10:09:57.843Z</time></trkpt><trkpt lat="45.0348868" lon="7.9848376"><ele>281.0</ele><time>2026-04-10T10:09:58.843Z</time></trkpt><trkpt lat="45.0348119" lon="7.9848341"><ele>282.0</ele><time>2026-04-10T10:09:59.843Z</time></trkpt><trkpt lat="45.0347321" lon="7.9848429"><ele>283.0</ele><time>2026-04-10T10:10:00.843Z</time></trkpt><trkpt lat="45.0346503" lon="7.984868"><ele>284.0</ele><time>2026-04-10T10:10:01.845Z</time></trkpt><trkpt lat="45.0345753" lon="7.9849022"><ele>284.0</ele><time>2026-04-10T10:10:02.843Z</time></trkpt><trkpt lat="45.0344957" lon="7.9849402"><ele>284.0</ele><time>2026-04-10T10:10:03.843Z</time></trkpt><trkpt lat="45.034421" lon="7.9849802"><ele>284.0</ele><time>2026-04-10T10:10:04.844Z</time></trkpt><trkpt lat="45.0343568" lon="7.9850236"><ele>284.0</ele><time>2026-04-10T10:10:05.845Z</time></trkpt><trkpt lat="45.0342886" lon="7.9850598"><ele>284.0</ele><time>2026-04-10T10:10:06.844Z</time></trkpt><trkpt lat="45.0342204" lon="7.9850879"><ele>284.0</ele><time>2026-04-10T10:10:07.844Z</time></trkpt><trkpt lat="45.0341494" lon="7.9851086"><ele>282.33333333333337</ele><time>2026-04-10T10:10:08.845Z</time></trkpt><trkpt lat="45.0340741" lon="7.9851168"><ele>280.6666666666667</ele><time>2026-04-10T10:10:09.844Z</time></trkpt><trkpt lat="45.0339932" lon="7.9851243"><ele>279.0</ele><time>2026-04-10T10:10:10.844Z</time></trkpt><trkpt lat="45.0339068" lon="7.9851242"><ele>277.3333333333333</ele><time>2026-04-10T10:10:11.844Z</time></trkpt><trkpt lat="45.0338208" lon="7.9851183"><ele>275.66666666666663</ele><time>2026-04-10T10:10:12.844Z</time></trkpt><trkpt lat="45.0337322" lon="7.9850995"><ele>274.0</ele><time>2026-04-10T10:10:13.844Z</time></trkpt><trkpt lat="45.0336462" lon="7.9850742"><ele>274.0</ele><time>2026-04-10T10:10:14.845Z</time></trkpt><trkpt lat="45.0335643" lon="7.9850361"><ele>274.0</ele><time>2026-04-10T10:10:15.844Z</time></trkpt><trkpt lat="45.0334833" lon="7.9849878"><ele>274.0</ele><time>2026-04-10T10:10:16.845Z</time></trkpt><trkpt lat="45.0334051" lon="7.9849245"><ele>274.0</ele><time>2026-04-10T10:10:17.843Z</time></trkpt><trkpt lat="45.0333291" lon="7.984858"><ele>274.0</ele><time>2026-04-10T10:10:18.843Z</time></trkpt><trkpt lat="45.0332576" lon="7.9847922"><ele>274.0</ele><time>2026-04-10T10:10:19.844Z</time></trkpt><trkpt lat="45.0331866" lon="7.9847269"><ele>273.66666666666663</ele><time>2026-04-10T10:10:20.844Z</time></trkpt><trkpt lat="45.0331142" lon="7.984657"><ele>273.3333333333333</ele><time>2026-04-10T10:10:21.843Z</time></trkpt><trkpt lat="45.0330368" lon="7.9845977"><ele>273.0</ele><time>2026-04-10T10:10:22.844Z</time></trkpt><trkpt lat="45.0329576" lon="7.984552"><ele>272.6666666666667</ele><time>2026-04-10T10:10:23.843Z</time></trkpt><trkpt lat="45.0328747" lon="7.9845317"><ele>272.33333333333337</ele><time>2026-04-10T10:10:24.843Z</time></trkpt><trkpt lat="45.0327846" lon="7.9845138"><ele>272.0</ele><time>2026-04-10T10:10:25.845Z</time></trkpt><trkpt lat="45.0326919" lon="7.9845092"><ele>272.0</ele><time>2026-04-10T10:10:26.843Z</time></trkpt><trkpt lat="45.0325911" lon="7.9845131"><ele>272.0</ele><time>2026-04-10T10:10:27.845Z</time></trkpt><trkpt lat="45.0324946" lon="7.9845198"><ele>272.0</ele><time>2026-04-10T10:10:28.843Z</time></trkpt><trkpt lat="45.0323977" lon="7.9845335"><ele>272.0</ele><time>2026-04-10T10:10:29.844Z</time></trkpt><trkpt lat="45.0323001" lon="7.9845529"><ele>272.0</ele><time>2026-04-10T10:10:30.845Z</time></trkpt><trkpt lat="45.0322077" lon="7.9845847"><ele>272.0</ele><time>2026-04-10T10:10:31.844Z</time></trkpt><trkpt lat="45.0321163" lon="7.9846186"><ele>272.0</ele><time>2026-04-10T10:10:32.844Z</time></trkpt><trkpt lat="45.0320313" lon="7.9846697"><ele>272.0</ele><time>2026-04-10T10:10:33.844Z</time></trkpt><trkpt lat="45.0319491" lon="7.9847319"><ele>272.0</ele><time>2026-04-10T10:10:34.844Z</time></trkpt><trkpt lat="45.0318651" lon="7.9847998"><ele>272.0</ele><time>2026-04-10T10:10:35.843Z</time></trkpt><trkpt lat="45.0317863" lon="7.984883"><ele>272.0</ele><time>2026-04-10T10:10:36.844Z</time></trkpt><trkpt lat="45.0317067" lon="7.9849637"><ele>272.0</ele><time>2026-04-10T10:10:37.845Z</time></trkpt><trkpt lat="45.0316239" lon="7.9850391"><ele>272.0</ele><time>2026-04-10T10:10:38.844Z</time></trkpt><trkpt lat="45.0315364" lon="7.9851231"><ele>272.0</ele><time>2026-04-10T10:10:39.844Z</time></trkpt><trkpt lat="45.0314495" lon="7.985203"><ele>272.0</ele><time>2026-04-10T10:10:40.843Z</time></trkpt><trkpt lat="45.0313579" lon="7.9852782"><ele>271.8</ele><time>2026-04-10T10:10:41.843Z</time></trkpt><trkpt lat="45.0312676" lon="7.9853544"><ele>271.6</ele><time>2026-04-10T10:10:42.844Z</time></trkpt><trkpt lat="45.0311875" lon="7.9854409"><ele>271.40000000000003</ele><time>2026-04-10T10:10:43.843Z</time></trkpt><trkpt lat="45.0311045" lon="7.9855167"><ele>271.2</ele><time>2026-04-10T10:10:44.844Z</time></trkpt><trkpt lat="45.0310286" lon="7.9855949"><ele>271.0</ele><time>2026-04-10T10:10:45.845Z</time></trkpt><trkpt lat="45.0309582" lon="7.9856723"><ele>271.0</ele><time>2026-04-10T10:10:46.845Z</time></trkpt><trkpt lat="45.0308941" lon="7.9857468"><ele>271.0</ele><time>2026-04-10T10:10:47.844Z</time></trkpt><trkpt lat="45.0308368" lon="7.9858124"><ele>271.0</ele><time>2026-04-10T10:10:48.844Z</time></trkpt><trkpt lat="45.0307857" lon="7.9858812"><ele>271.0</ele><time>2026-04-10T10:10:49.845Z</time></trkpt><trkpt lat="45.0307395" lon="7.9859546"><ele>271.0</ele><time>2026-04-10T10:10:50.844Z</time></trkpt><trkpt lat="45.0306647" lon="7.9860846"><ele>271.0</ele><time>2026-04-10T10:10:52.845Z</time></trkpt><trkpt lat="45.0305805" lon="7.9861973"><ele>271.6</ele><time>2026-04-10T10:10:54.843Z</time></trkpt><trkpt lat="45.0305024" lon="7.9863144"><ele>272.20000000000005</ele><time>2026-04-10T10:10:56.844Z</time></trkpt><trkpt lat="45.0304156" lon="7.9864173"><ele>272.79999999999995</ele><time>2026-04-10T10:10:58.843Z</time></trkpt><trkpt lat="45.0303071" lon="7.9864813"><ele>273.4</ele><time>2026-04-10T10:11:00.843Z</time></trkpt><trkpt lat="45.030246" lon="7.9865269"><ele>274.0</ele><time>2026-04-10T10:11:01.843Z</time></trkpt><trkpt lat="45.0301342" lon="7.9865881"><ele>274.0</ele><time>2026-04-10T10:11:03.844Z</time></trkpt><trkpt lat="45.0299869" lon="7.9866562"><ele>274.0</ele><time>2026-04-10T10:11:05.844Z</time></trkpt><trkpt lat="45.02992" lon="7.9866988"><ele>274.0</ele><time>2026-04-10T10:11:06.844Z</time></trkpt><trkpt lat="45.0298089" lon="7.9868163"><ele>274.0</ele><time>2026-04-10T10:11:08.844Z</time></trkpt><trkpt lat="45.0297481" lon="7.9868688"><ele>274.0</ele><time>2026-04-10T10:11:09.843Z</time></trkpt><trkpt lat="45.0296671" lon="7.9869156"><ele>273.42857142857144</ele><time>2026-04-10T10:11:10.845Z</time></trkpt><trkpt lat="45.0296062" lon="7.9869633"><ele>272.8571428571429</ele><time>2026-04-10T10:11:11.844Z</time></trkpt><trkpt lat="45.0295445" lon="7.9870021"><ele>272.2857142857143</ele><time>2026-04-10T10:11:12.845Z</time></trkpt><trkpt lat="45.0294764" lon="7.9870408"><ele>271.7142857142857</ele><time>2026-04-10T10:11:13.843Z</time></trkpt><trkpt lat="45.0294057" lon="7.9870769"><ele>271.1428571428571</ele><time>2026-04-10T10:11:14.843Z</time></trkpt><trkpt lat="45.0293346" lon="7.9870995"><ele>270.57142857142856</ele><time>2026-04-10T10:11:15.844Z</time></trkpt><trkpt lat="45.0292685" lon="7.987125"><ele>270.0</ele><time>2026-04-10T10:11:16.844Z</time></trkpt><trkpt lat="45.029205" lon="7.9871521"><ele>270.1666666666667</ele><time>2026-04-10T10:11:17.844Z</time></trkpt><trkpt lat="45.0290745" lon="7.9871947"><ele>270.3333333333333</ele><time>2026-04-10T10:11:19.844Z</time></trkpt><trkpt lat="45.029005" lon="7.987214"><ele>270.5</ele><time>2026-04-10T10:11:20.844Z</time></trkpt><trkpt lat="45.0289244" lon="7.9872251"><ele>270.66666666666663</ele><time>2026-04-10T10:11:21.843Z</time></trkpt><trkpt lat="45.0288491" lon="7.9872301"><ele>270.8333333333333</ele><time>2026-04-10T10:11:22.843Z</time></trkpt><trkpt lat="45.0287717" lon="7.9872386"><ele>271.0</ele><time>2026-04-10T10:11:23.844Z</time></trkpt><trkpt lat="45.0286979" lon="7.9872542"><ele>271.0</ele><time>2026-04-10T10:11:24.843Z</time></trkpt><trkpt lat="45.0286209" lon="7.9872595"><ele>271.0</ele><time>2026-04-10T10:11:25.843Z</time></trkpt><trkpt lat="45.028549" lon="7.9872665"><ele>271.0</ele><time>2026-04-10T10:11:26.844Z</time></trkpt><trkpt lat="45.0284686" lon="7.9872755"><ele>271.0</ele><time>2026-04-10T10:11:27.844Z</time></trkpt><trkpt lat="45.0283921" lon="7.98727"><ele>271.0</ele><time>2026-04-10T10:11:28.844Z</time></trkpt><trkpt lat="45.0283079" lon="7.9872578"><ele>271.0</ele><time>2026-04-10T10:11:29.844Z</time></trkpt><trkpt lat="45.0282283" lon="7.9872304"><ele>270.0</ele><time>2026-04-10T10:11:30.843Z</time></trkpt><trkpt lat="45.0281447" lon="7.9871948"><ele>269.0</ele><time>2026-04-10T10:11:31.844Z</time></trkpt><trkpt lat="45.0280618" lon="7.987165"><ele>268.0</ele><time>2026-04-10T10:11:32.844Z</time></trkpt><trkpt lat="45.0279806" lon="7.9871308"><ele>267.0</ele><time>2026-04-10T10:11:33.844Z</time></trkpt><trkpt lat="45.0278988" lon="7.9871001"><ele>266.0</ele><time>2026-04-10T10:11:34.844Z</time></trkpt><trkpt lat="45.0278148" lon="7.9870669"><ele>265.0</ele><time>2026-04-10T10:11:35.844Z</time></trkpt><trkpt lat="45.0277224" lon="7.9870301"><ele>265.0</ele><time>2026-04-10T10:11:36.843Z</time></trkpt><trkpt lat="45.0276272" lon="7.986999"><ele>265.0</ele><time>2026-04-10T10:11:37.843Z</time></trkpt><trkpt lat="45.0275443" lon="7.986967"><ele>265.0</ele><time>2026-04-10T10:11:38.843Z</time></trkpt><trkpt lat="45.0273563" lon="7.9869123"><ele>265.0</ele><time>2026-04-10T10:11:40.845Z</time></trkpt><trkpt lat="45.0272624" lon="7.986898"><ele>265.0</ele><time>2026-04-10T10:11:41.845Z</time></trkpt><trkpt lat="45.0271724" lon="7.9868842"><ele>265.0</ele><time>2026-04-10T10:11:42.844Z</time></trkpt><trkpt lat="45.0270839" lon="7.9868836"><ele>265.0</ele><time>2026-04-10T10:11:43.845Z</time></trkpt><trkpt lat="45.0269899" lon="7.9869119"><ele>265.0</ele><time>2026-04-10T10:11:44.844Z</time></trkpt><trkpt lat="45.0268994" lon="7.9869462"><ele>265.0</ele><time>2026-04-10T10:11:45.844Z</time></trkpt><trkpt lat="45.026818" lon="7.9869847"><ele>265.0</ele><time>2026-04-10T10:11:46.844Z</time></trkpt><trkpt lat="45.0267434" lon="7.9870252"><ele>265.0</ele><time>2026-04-10T10:11:47.844Z</time></trkpt><trkpt lat="45.0266642" lon="7.9870674"><ele>265.0</ele><time>2026-04-10T10:11:48.843Z</time></trkpt><trkpt lat="45.0265827" lon="7.9871073"><ele>265.0</ele><time>2026-04-10T10:11:49.844Z</time></trkpt><trkpt lat="45.0265013" lon="7.987149"><ele>265.0</ele><time>2026-04-10T10:11:50.843Z</time></trkpt><trkpt lat="45.0264261" lon="7.9871936"><ele>265.0</ele><time>2026-04-10T10:11:51.843Z</time></trkpt><trkpt lat="45.0263497" lon="7.9872406"><ele>265.0</ele><time>2026-04-10T10:11:52.844Z</time></trkpt><trkpt lat="45.0262747" lon="7.9872846"><ele>265.0</ele><time>2026-04-10T10:11:53.844Z</time></trkpt><trkpt lat="45.0262012" lon="7.9873288"><ele>265.0</ele><time>2026-04-10T10:11:54.845Z</time></trkpt><trkpt lat="45.026132" lon="7.9873815"><ele>265.0</ele><time>2026-04-10T10:11:55.844Z</time></trkpt><trkpt lat="45.0260636" lon="7.9874309"><ele>265.0</ele><time>2026-04-10T10:11:56.843Z</time></trkpt><trkpt lat="45.0259994" lon="7.9874837"><ele>265.0</ele><time>2026-04-10T10:11:57.843Z</time></trkpt><trkpt lat="45.0259318" lon="7.9875616"><ele>265.0</ele><time>2026-04-10T10:11:58.843Z</time></trkpt><trkpt lat="45.0258719" lon="7.987638"><ele>265.0</ele><time>2026-04-10T10:11:59.843Z</time></trkpt><trkpt lat="45.0258112" lon="7.9877077"><ele>265.0</ele><time>2026-04-10T10:12:00.844Z</time></trkpt><trkpt lat="45.025749" lon="7.9877863"><ele>265.0</ele><time>2026-04-10T10:12:01.844Z</time></trkpt><trkpt lat="45.0256892" lon="7.9878667"><ele>265.0</ele><time>2026-04-10T10:12:02.843Z</time></trkpt><trkpt lat="45.0256403" lon="7.9879336"><ele>265.0</ele><time>2026-04-10T10:12:03.844Z</time></trkpt><trkpt lat="45.0255456" lon="7.9880947"><ele>265.8333333333333</ele><time>2026-04-10T10:12:05.844Z</time></trkpt><trkpt lat="45.0255152" lon="7.9881756"><ele>266.66666666666663</ele><time>2026-04-10T10:12:06.843Z</time></trkpt><trkpt lat="45.0254771" lon="7.9882763"><ele>267.5</ele><time>2026-04-10T10:12:07.844Z</time></trkpt><trkpt lat="45.0254309" lon="7.9883633"><ele>268.3333333333333</ele><time>2026-04-10T10:12:08.844Z</time></trkpt><trkpt lat="45.0253878" lon="7.9884599"><ele>269.1666666666667</ele><time>2026-04-10T10:12:09.843Z</time></trkpt><trkpt lat="45.0253334" lon="7.9885332"><ele>270.0</ele><time>2026-04-10T10:12:10.843Z</time></trkpt><trkpt lat="45.025258" lon="7.9885792"><ele>270.0</ele><time>2026-04-10T10:12:11.844Z</time></trkpt><trkpt lat="45.0251708" lon="7.988703"><ele>270.0</ele><time>2026-04-10T10:12:13.843Z</time></trkpt><trkpt lat="45.0251148" lon="7.988769"><ele>270.0</ele><time>2026-04-10T10:12:14.845Z</time></trkpt><trkpt lat="45.0250531" lon="7.9888178"><ele>270.0</ele><time>2026-04-10T10:12:15.844Z</time></trkpt><trkpt lat="45.0250023" lon="7.9888792"><ele>270.0</ele><time>2026-04-10T10:12:16.844Z</time></trkpt><trkpt lat="45.0249411" lon="7.9889238"><ele>270.0</ele><time>2026-04-10T10:12:17.844Z</time></trkpt><trkpt lat="45.0248804" lon="7.9889706"><ele>269.3333333333333</ele><time>2026-04-10T10:12:18.843Z</time></trkpt><trkpt lat="45.0248106" lon="7.9890121"><ele>268.6666666666667</ele><time>2026-04-10T10:12:19.843Z</time></trkpt><trkpt lat="45.0247404" lon="7.9890581"><ele>268.0</ele><time>2026-04-10T10:12:20.844Z</time></trkpt><trkpt lat="45.0246644" lon="7.9891031"><ele>267.33333333333337</ele><time>2026-04-10T10:12:21.845Z</time></trkpt><trkpt lat="45.0245936" lon="7.9891394"><ele>266.6666666666667</ele><time>2026-04-10T10:12:22.844Z</time></trkpt><trkpt lat="45.024503" lon="7.9891896"><ele>266.0</ele><time>2026-04-10T10:12:23.844Z</time></trkpt><trkpt lat="45.0244123" lon="7.9891846"><ele>266.0</ele><time>2026-04-10T10:12:24.843Z</time></trkpt><trkpt lat="45.0243329" lon="7.9891494"><ele>266.0</ele><time>2026-04-10T10:12:25.844Z</time></trkpt><trkpt lat="45.0242543" lon="7.9890872"><ele>266.0</ele><time>2026-04-10T10:12:26.845Z</time></trkpt><trkpt lat="45.0241725" lon="7.9890067"><ele>266.0</ele><time>2026-04-10T10:12:27.844Z</time></trkpt><trkpt lat="45.0240942" lon="7.9889205"><ele>266.0</ele><time>2026-04-10T10:12:28.844Z</time></trkpt><trkpt lat="45.0240021" lon="7.9888409"><ele>262.8</ele><time>2026-04-10T10:12:29.843Z</time></trkpt><trkpt lat="45.0239182" lon="7.9887623"><ele>259.6</ele><time>2026-04-10T10:12:30.843Z</time></trkpt><trkpt lat="45.0238296" lon="7.988699"><ele>256.4</ele><time>2026-04-10T10:12:31.843Z</time></trkpt><trkpt lat="45.0237383" lon="7.9886443"><ele>253.2</ele><time>2026-04-10T10:12:32.845Z</time></trkpt><trkpt lat="45.0236485" lon="7.9885941"><ele>250.0</ele><time>2026-04-10T10:12:33.844Z</time></trkpt><trkpt lat="45.0235549" lon="7.9885525"><ele>250.0</ele><time>2026-04-10T10:12:34.845Z</time></trkpt><trkpt lat="45.023461" lon="7.9884961"><ele>250.0</ele><time>2026-04-10T10:12:35.844Z</time></trkpt><trkpt lat="45.023373" lon="7.9884517"><ele>250.0</ele><time>2026-04-10T10:12:36.843Z</time></trkpt><trkpt lat="45.0232761" lon="7.9883956"><ele>250.0</ele><time>2026-04-10T10:12:37.843Z</time></trkpt><trkpt lat="45.0231815" lon="7.98834"><ele>250.0</ele><time>2026-04-10T10:12:38.845Z</time></trkpt><trkpt lat="45.0230894" lon="7.9882877"><ele>251.8</ele><time>2026-04-10T10:12:39.843Z</time></trkpt><trkpt lat="45.0229925" lon="7.9882324"><ele>253.6</ele><time>2026-04-10T10:12:40.845Z</time></trkpt><trkpt lat="45.0229095" lon="7.9881826"><ele>255.39999999999998</ele><time>2026-04-10T10:12:41.843Z</time></trkpt><trkpt lat="45.0228193" lon="7.9881315"><ele>257.2</ele><time>2026-04-10T10:12:42.844Z</time></trkpt><trkpt lat="45.0227388" lon="7.9880698"><ele>259.0</ele><time>2026-04-10T10:12:43.844Z</time></trkpt><trkpt lat="45.0226571" lon="7.9880192"><ele>259.0</ele><time>2026-04-10T10:12:44.844Z</time></trkpt><trkpt lat="45.0225832" lon="7.9879667"><ele>259.0</ele><time>2026-04-10T10:12:45.843Z</time></trkpt><trkpt lat="45.0225121" lon="7.9879216"><ele>259.0</ele><time>2026-04-10T10:12:46.844Z</time></trkpt><trkpt lat="45.0224498" lon="7.9878728"><ele>259.0</ele><time>2026-04-10T10:12:47.845Z</time></trkpt><trkpt lat="45.0223815" lon="7.9878274"><ele>259.0</ele><time>2026-04-10T10:12:48.843Z</time></trkpt><trkpt lat="45.022318" lon="7.9877981"><ele>259.0</ele><time>2026-04-10T10:12:49.843Z</time></trkpt><trkpt lat="45.0222559" lon="7.9877718"><ele>259.0</ele><time>2026-04-10T10:12:50.844Z</time></trkpt><trkpt lat="45.0221486" lon="7.9877516"><ele>260.4</ele><time>2026-04-10T10:12:52.844Z</time></trkpt><trkpt lat="45.0220286" lon="7.9877793"><ele>261.79999999999995</ele><time>2026-04-10T10:12:54.843Z</time></trkpt><trkpt lat="45.0219372" lon="7.9878124"><ele>263.20000000000005</ele><time>2026-04-10T10:12:56.844Z</time></trkpt><trkpt lat="45.0218335" lon="7.9878524"><ele>264.6</ele><time>2026-04-10T10:12:58.844Z</time></trkpt><trkpt lat="45.0217328" lon="7.9879142"><ele>266.0</ele><time>2026-04-10T10:13:00.845Z</time></trkpt><trkpt lat="45.0216212" lon="7.9879553"><ele>267.6</ele><time>2026-04-10T10:13:02.843Z</time></trkpt><trkpt lat="45.0215179" lon="7.9879941"><ele>269.20000000000005</ele><time>2026-04-10T10:13:04.844Z</time></trkpt><trkpt lat="45.0214211" lon="7.9880261"><ele>270.79999999999995</ele><time>2026-04-10T10:13:06.843Z</time></trkpt><trkpt lat="45.021321" lon="7.9880512"><ele>272.4</ele><time>2026-04-10T10:13:08.844Z</time></trkpt><trkpt lat="45.0212296" lon="7.9880806"><ele>274.0</ele><time>2026-04-10T10:13:10.843Z</time></trkpt><trkpt lat="45.021134" lon="7.9881129"><ele>274.0</ele><time>2026-04-10T10:13:12.843Z</time></trkpt><trkpt lat="45.0210521" lon="7.9881381"><ele>274.0</ele><time>2026-04-10T10:13:14.844Z</time></trkpt><trkpt lat="45.0209754" lon="7.9881611"><ele>274.0</ele><time>2026-04-10T10:13:16.844Z</time></trkpt><trkpt lat="45.0209048" lon="7.9881655"><ele>274.0</ele><time>2026-04-10T10:13:18.844Z</time></trkpt><trkpt lat="45.0208201" lon="7.9880939"><ele>274.0</ele><time>2026-04-10T10:13:21.845Z</time></trkpt><trkpt lat="45.0207544" lon="7.9880424"><ele>274.0</ele><time>2026-04-10T10:13:23.844Z</time></trkpt><trkpt lat="45.0206811" lon="7.9880148"><ele>274.16666666666663</ele><time>2026-04-10T10:13:25.843Z</time></trkpt><trkpt lat="45.0206059" lon="7.9879899"><ele>274.3333333333333</ele><time>2026-04-10T10:13:27.844Z</time></trkpt><trkpt lat="45.0205257" lon="7.9879548"><ele>274.5</ele><time>2026-04-10T10:13:29.844Z</time></trkpt><trkpt lat="45.0204403" lon="7.9879206"><ele>274.6666666666667</ele><time>2026-04-10T10:13:31.843Z</time></trkpt><trkpt lat="45.0203533" lon="7.9878813"><ele>274.83333333333337</ele><time>2026-04-10T10:13:33.844Z</time></trkpt><trkpt lat="45.0202634" lon="7.9878542"><ele>275.0</ele><time>2026-04-10T10:13:35.844Z</time></trkpt><trkpt lat="45.0201752" lon="7.9878106"><ele>275.0</ele><time>2026-04-10T10:13:37.843Z</time></trkpt><trkpt lat="45.0200872" lon="7.9877693"><ele>275.0</ele><time>2026-04-10T10:13:39.844Z</time></trkpt><trkpt lat="45.0199917" lon="7.987727"><ele>275.0</ele><time>2026-04-10T10:13:41.843Z</time></trkpt><trkpt lat="45.0199067" lon="7.9876903"><ele>275.0</ele><time>2026-04-10T10:13:43.843Z</time></trkpt><trkpt lat="45.0198174" lon="7.9876748"><ele>275.0</ele><time>2026-04-10T10:13:45.844Z</time></trkpt><trkpt lat="45.0197265" lon="7.9876728"><ele>274.8</ele><time>2026-04-10T10:13:47.844Z</time></trkpt><trkpt lat="45.0196222" lon="7.9876829"><ele>274.6</ele><time>2026-04-10T10:13:49.844Z</time></trkpt><trkpt lat="45.0195033" lon="7.9877159"><ele>274.4</ele><time>2026-04-10T10:13:51.844Z</time></trkpt><trkpt lat="45.0193877" lon="7.9877859"><ele>274.2</ele><time>2026-04-10T10:13:53.844Z</time></trkpt><trkpt lat="45.0193246" lon="7.9878231"><ele>274.0</ele><time>2026-04-10T10:13:54.845Z</time></trkpt><trkpt lat="45.019262" lon="7.9878725"><ele>274.00000000000006</ele><time>2026-04-10T10:13:55.844Z</time></trkpt><trkpt lat="45.0192099" lon="7.9879248"><ele>274.0</ele><time>2026-04-10T10:13:56.844Z</time></trkpt><trkpt lat="45.0191556" lon="7.9879821"><ele>274.0</ele><time>2026-04-10T10:13:57.844Z</time></trkpt><trkpt lat="45.0190969" lon="7.9880496"><ele>274.0</ele><time>2026-04-10T10:13:58.845Z</time></trkpt><trkpt lat="45.0190449" lon="7.9881145"><ele>274.0</ele><time>2026-04-10T10:13:59.843Z</time></trkpt><trkpt lat="45.0189947" lon="7.9881795"><ele>274.00000000000006</ele><time>2026-04-10T10:14:00.844Z</time></trkpt><trkpt lat="45.0189445" lon="7.9882508"><ele>274.0</ele><time>2026-04-10T10:14:01.843Z</time></trkpt><trkpt lat="45.0189063" lon="7.9883274"><ele>274.14285714285717</ele><time>2026-04-10T10:14:02.843Z</time></trkpt><trkpt lat="45.0188639" lon="7.988403"><ele>274.2857142857143</ele><time>2026-04-10T10:14:03.845Z</time></trkpt><trkpt lat="45.0188225" lon="7.988494"><ele>274.42857142857144</ele><time>2026-04-10T10:14:04.844Z</time></trkpt><trkpt lat="45.0187869" lon="7.9885813"><ele>274.57142857142856</ele><time>2026-04-10T10:14:05.843Z</time></trkpt><trkpt lat="45.0187527" lon="7.9886635"><ele>274.7142857142857</ele><time>2026-04-10T10:14:06.844Z</time></trkpt><trkpt lat="45.0187211" lon="7.9887499"><ele>274.8571428571429</ele><time>2026-04-10T10:14:07.844Z</time></trkpt><trkpt lat="45.0186872" lon="7.9888391"><ele>275.0</ele><time>2026-04-10T10:14:08.844Z</time></trkpt><trkpt lat="45.0186539" lon="7.9889248"><ele>275.0</ele><time>2026-04-10T10:14:09.844Z</time></trkpt><trkpt lat="45.0186216" lon="7.9890089"><ele>275.0</ele><time>2026-04-10T10:14:10.844Z</time></trkpt><trkpt lat="45.0185879" lon="7.9891105"><ele>275.0</ele><time>2026-04-10T10:14:11.845Z</time></trkpt><trkpt lat="45.0185576" lon="7.9891955"><ele>275.0</ele><time>2026-04-10T10:14:12.844Z</time></trkpt><trkpt lat="45.0185275" lon="7.9892909"><ele>275.0</ele><time>2026-04-10T10:14:13.843Z</time></trkpt><trkpt lat="45.0184993" lon="7.9893921"><ele>275.0</ele><time>2026-04-10T10:14:14.844Z</time></trkpt><trkpt lat="45.018482" lon="7.9895016"><ele>275.0</ele><time>2026-04-10T10:14:15.843Z</time></trkpt><trkpt lat="45.0184454" lon="7.9895868"><ele>274.1666666666667</ele><time>2026-04-10T10:14:16.843Z</time></trkpt><trkpt lat="45.0184168" lon="7.9896986"><ele>273.33333333333337</ele><time>2026-04-10T10:14:17.843Z</time></trkpt><trkpt lat="45.0183814" lon="7.9898249"><ele>272.5</ele><time>2026-04-10T10:14:18.844Z</time></trkpt><trkpt lat="45.0183474" lon="7.9899193"><ele>271.6666666666667</ele><time>2026-04-10T10:14:19.844Z</time></trkpt><trkpt lat="45.0183032" lon="7.9900225"><ele>270.8333333333333</ele><time>2026-04-10T10:14:20.843Z</time></trkpt><trkpt lat="45.0182692" lon="7.9901104"><ele>270.0</ele><time>2026-04-10T10:14:21.843Z</time></trkpt><trkpt lat="45.0182297" lon="7.9902091"><ele>269.0</ele><time>2026-04-10T10:14:22.844Z</time></trkpt><trkpt lat="45.018193" lon="7.9903128"><ele>268.0</ele><time>2026-04-10T10:14:23.843Z</time></trkpt><trkpt lat="45.0181513" lon="7.9904376"><ele>267.0</ele><time>2026-04-10T10:14:24.843Z</time></trkpt><trkpt lat="45.0181112" lon="7.9905386"><ele>266.0</ele><time>2026-04-10T10:14:25.844Z</time></trkpt><trkpt lat="45.0180705" lon="7.9906454"><ele>265.0</ele><time>2026-04-10T10:14:26.843Z</time></trkpt><trkpt lat="45.0180266" lon="7.9907436"><ele>264.0</ele><time>2026-04-10T10:14:27.843Z</time></trkpt><trkpt lat="45.0179839" lon="7.9908341"><ele>264.3333333333333</ele><time>2026-04-10T10:14:28.843Z</time></trkpt><trkpt lat="45.0179375" lon="7.9909295"><ele>264.6666666666667</ele><time>2026-04-10T10:14:29.844Z</time></trkpt><trkpt lat="45.0178938" lon="7.9910256"><ele>265.0</ele><time>2026-04-10T10:14:30.843Z</time></trkpt><trkpt lat="45.017844" lon="7.9911167"><ele>265.33333333333337</ele><time>2026-04-10T10:14:31.844Z</time></trkpt><trkpt lat="45.0178008" lon="7.9912129"><ele>265.6666666666667</ele><time>2026-04-10T10:14:32.844Z</time></trkpt><trkpt lat="45.0177535" lon="7.9912991"><ele>266.0</ele><time>2026-04-10T10:14:33.843Z</time></trkpt><trkpt lat="45.0177012" lon="7.9913829"><ele>266.0</ele><time>2026-04-10T10:14:34.844Z</time></trkpt><trkpt lat="45.0176446" lon="7.9914647"><ele>266.0</ele><time>2026-04-10T10:14:35.844Z</time></trkpt><trkpt lat="45.0175892" lon="7.9915364"><ele>266.0</ele><time>2026-04-10T10:14:36.843Z</time></trkpt><trkpt lat="45.0175299" lon="7.9916083"><ele>266.0</ele><time>2026-04-10T10:14:37.843Z</time></trkpt><trkpt lat="45.0174659" lon="7.9916687"><ele>266.0</ele><time>2026-04-10T10:14:38.843Z</time></trkpt><trkpt lat="45.0174015" lon="7.9917377"><ele>266.0</ele><time>2026-04-10T10:14:39.843Z</time></trkpt><trkpt lat="45.0173382" lon="7.9917996"><ele>266.6666666666667</ele><time>2026-04-10T10:14:40.843Z</time></trkpt><trkpt lat="45.0172796" lon="7.9918621"><ele>267.33333333333337</ele><time>2026-04-10T10:14:41.844Z</time></trkpt><trkpt lat="45.0172174" lon="7.9919177"><ele>268.0</ele><time>2026-04-10T10:14:42.844Z</time></trkpt><trkpt lat="45.0171608" lon="7.9919639"><ele>268.6666666666667</ele><time>2026-04-10T10:14:43.843Z</time></trkpt><trkpt lat="45.0171032" lon="7.992009"><ele>269.3333333333333</ele><time>2026-04-10T10:14:44.844Z</time></trkpt><trkpt lat="45.0170491" lon="7.9920633"><ele>270.0</ele><time>2026-04-10T10:14:45.844Z</time></trkpt><trkpt lat="45.0169526" lon="7.9921587"><ele>270.0</ele><time>2026-04-10T10:14:47.844Z</time></trkpt><trkpt lat="45.0168675" lon="7.9922314"><ele>270.0</ele><time>2026-04-10T10:14:49.843Z</time></trkpt><trkpt lat="45.0168094" lon="7.9922772"><ele>270.0</ele><time>2026-04-10T10:14:50.844Z</time></trkpt><trkpt lat="45.0167539" lon="7.9923202"><ele>270.0</ele><time>2026-04-10T10:14:51.845Z</time></trkpt><trkpt lat="45.0166457" lon="7.9923838"><ele>270.0</ele><time>2026-04-10T10:14:53.845Z</time></trkpt><trkpt lat="45.0165598" lon="7.9924671"><ele>270.0</ele><time>2026-04-10T10:14:55.843Z</time></trkpt><trkpt lat="45.0164747" lon="7.9925139"><ele>270.0</ele><time>2026-04-10T10:14:57.843Z</time></trkpt><trkpt lat="45.0163791" lon="7.9925694"><ele>270.0</ele><time>2026-04-10T10:14:59.845Z</time></trkpt><trkpt lat="45.0162795" lon="7.9926115"><ele>270.0</ele><time>2026-04-10T10:15:01.844Z</time></trkpt><trkpt lat="45.0161855" lon="7.9926438"><ele>270.0</ele><time>2026-04-10T10:15:03.844Z</time></trkpt><trkpt lat="45.0160953" lon="7.9926705"><ele>270.0</ele><time>2026-04-10T10:15:05.844Z</time></trkpt><trkpt lat="45.0160156" lon="7.992697"><ele>270.0</ele><time>2026-04-10T10:15:07.844Z</time></trkpt><trkpt lat="45.015914" lon="7.9927027"><ele>270.0</ele><time>2026-04-10T10:15:09.843Z</time></trkpt><trkpt lat="45.0158118" lon="7.9927177"><ele>270.0</ele><time>2026-04-10T10:15:11.844Z</time></trkpt><trkpt lat="45.0157054" lon="7.9927245"><ele>270.0</ele><time>2026-04-10T10:15:13.844Z</time></trkpt><trkpt lat="45.0155835" lon="7.9927253"><ele>269.3333333333333</ele><time>2026-04-10T10:15:15.843Z</time></trkpt><trkpt lat="45.0154678" lon="7.9927175"><ele>268.6666666666667</ele><time>2026-04-10T10:15:17.844Z</time></trkpt><trkpt lat="45.0154046" lon="7.9927104"><ele>268.0</ele><time>2026-04-10T10:15:18.844Z</time></trkpt><trkpt lat="45.0153376" lon="7.9927153"><ele>267.33333333333337</ele><time>2026-04-10T10:15:19.845Z</time></trkpt><trkpt lat="45.0152745" lon="7.9927068"><ele>266.6666666666667</ele><time>2026-04-10T10:15:20.844Z</time></trkpt><trkpt lat="45.0152033" lon="7.9926953"><ele>266.0</ele><time>2026-04-10T10:15:21.843Z</time></trkpt><trkpt lat="45.015133" lon="7.9926847"><ele>266.0</ele><time>2026-04-10T10:15:22.843Z</time></trkpt><trkpt lat="45.0150635" lon="7.99266"><ele>266.0</ele><time>2026-04-10T10:15:23.844Z</time></trkpt><trkpt lat="45.0149896" lon="7.9926392"><ele>266.0</ele><time>2026-04-10T10:15:24.844Z</time></trkpt><trkpt lat="45.0149135" lon="7.9926098"><ele>266.0</ele><time>2026-04-10T10:15:25.845Z</time></trkpt><trkpt lat="45.0148384" lon="7.9925895"><ele>266.0</ele><time>2026-04-10T10:15:26.845Z</time></trkpt><trkpt lat="45.0147509" lon="7.9925625"><ele>266.0</ele><time>2026-04-10T10:15:27.843Z</time></trkpt><trkpt lat="45.0146706" lon="7.9925366"><ele>266.1666666666667</ele><time>2026-04-10T10:15:28.844Z</time></trkpt><trkpt lat="45.0145952" lon="7.9925145"><ele>266.33333333333337</ele><time>2026-04-10T10:15:29.844Z</time></trkpt><trkpt lat="45.0145146" lon="7.9924848"><ele>266.5</ele><time>2026-04-10T10:15:30.844Z</time></trkpt><trkpt lat="45.0144342" lon="7.9924523"><ele>266.6666666666667</ele><time>2026-04-10T10:15:31.844Z</time></trkpt><trkpt lat="45.0143519" lon="7.9924155"><ele>266.8333333333333</ele><time>2026-04-10T10:15:32.843Z</time></trkpt><trkpt lat="45.0142686" lon="7.9923808"><ele>267.0</ele><time>2026-04-10T10:15:33.843Z</time></trkpt><trkpt lat="45.0141855" lon="7.9923557"><ele>266.1666666666667</ele><time>2026-04-10T10:15:34.843Z</time></trkpt><trkpt lat="45.0141059" lon="7.9923342"><ele>265.3333333333333</ele><time>2026-04-10T10:15:35.842Z</time></trkpt><trkpt lat="45.0140259" lon="7.9923086"><ele>264.5</ele><time>2026-04-10T10:15:36.844Z</time></trkpt><trkpt lat="45.0139417" lon="7.9922811"><ele>263.66666666666663</ele><time>2026-04-10T10:15:37.843Z</time></trkpt><trkpt lat="45.0138582" lon="7.9922508"><ele>262.8333333333333</ele><time>2026-04-10T10:15:38.844Z</time></trkpt><trkpt lat="45.0137761" lon="7.9922196"><ele>262.0</ele><time>2026-04-10T10:15:39.843Z</time></trkpt><trkpt lat="45.0136929" lon="7.9921856"><ele>262.0</ele><time>2026-04-10T10:15:40.843Z</time></trkpt><trkpt lat="45.0136102" lon="7.9921414"><ele>262.0</ele><time>2026-04-10T10:15:41.843Z</time></trkpt><trkpt lat="45.0135281" lon="7.9921043"><ele>262.0</ele><time>2026-04-10T10:15:42.844Z</time></trkpt><trkpt lat="45.0134519" lon="7.9920504"><ele>262.0</ele><time>2026-04-10T10:15:43.843Z</time></trkpt><trkpt lat="45.0133753" lon="7.9919881"><ele>262.0</ele><time>2026-04-10T10:15:44.845Z</time></trkpt><trkpt lat="45.0133008" lon="7.9919125"><ele>262.0</ele><time>2026-04-10T10:15:45.843Z</time></trkpt><trkpt lat="45.0132319" lon="7.9918235"><ele>262.4</ele><time>2026-04-10T10:15:46.845Z</time></trkpt><trkpt lat="45.0131667" lon="7.9917267"><ele>262.79999999999995</ele><time>2026-04-10T10:15:47.845Z</time></trkpt><trkpt lat="45.0131044" lon="7.991634"><ele>263.2</ele><time>2026-04-10T10:15:48.843Z</time></trkpt><trkpt lat="45.0130486" lon="7.9915261"><ele>263.59999999999997</ele><time>2026-04-10T10:15:49.843Z</time></trkpt><trkpt lat="45.0129928" lon="7.9914061"><ele>264.0</ele><time>2026-04-10T10:15:50.843Z</time></trkpt><trkpt lat="45.0129376" lon="7.9912849"><ele>264.0</ele><time>2026-04-10T10:15:51.844Z</time></trkpt><trkpt lat="45.0128859" lon="7.9911567"><ele>264.0</ele><time>2026-04-10T10:15:52.845Z</time></trkpt><trkpt lat="45.0128257" lon="7.9910519"><ele>264.0</ele><time>2026-04-10T10:15:53.845Z</time></trkpt><trkpt lat="45.0127755" lon="7.990924"><ele>264.0</ele><time>2026-04-10T10:15:54.844Z</time></trkpt><trkpt lat="45.0127195" lon="7.9908101"><ele>264.0</ele><time>2026-04-10T10:15:55.844Z</time></trkpt><trkpt lat="45.012646" lon="7.9906862"><ele>262.8</ele><time>2026-04-10T10:15:56.845Z</time></trkpt><trkpt lat="45.012567" lon="7.9905806"><ele>261.59999999999997</ele><time>2026-04-10T10:15:57.844Z</time></trkpt><trkpt lat="45.012481" lon="7.9904823"><ele>260.4</ele><time>2026-04-10T10:15:58.845Z</time></trkpt><trkpt lat="45.0123948" lon="7.9903984"><ele>259.2</ele><time>2026-04-10T10:15:59.843Z</time></trkpt><trkpt lat="45.0123008" lon="7.9903371"><ele>258.0</ele><time>2026-04-10T10:16:00.844Z</time></trkpt><trkpt lat="45.0122016" lon="7.9902939"><ele>257.5</ele><time>2026-04-10T10:16:01.844Z</time></trkpt><trkpt lat="45.0121026" lon="7.9902595"><ele>257.0</ele><time>2026-04-10T10:16:02.843Z</time></trkpt><trkpt lat="45.0119974" lon="7.990209"><ele>256.5</ele><time>2026-04-10T10:16:03.844Z</time></trkpt><trkpt lat="45.0117879" lon="7.9901253"><ele>256.0</ele><time>2026-04-10T10:16:05.844Z</time></trkpt><trkpt lat="45.0116998" lon="7.9900908"><ele>255.20000000000002</ele><time>2026-04-10T10:16:06.845Z</time></trkpt><trkpt lat="45.0116111" lon="7.990052"><ele>254.40000000000003</ele><time>2026-04-10T10:16:07.844Z</time></trkpt><trkpt lat="45.0115267" lon="7.9900307"><ele>253.6</ele><time>2026-04-10T10:16:08.844Z</time></trkpt><trkpt lat="45.0114349" lon="7.9900134"><ele>252.8</ele><time>2026-04-10T10:16:09.845Z</time></trkpt><trkpt lat="45.0113444" lon="7.9900027"><ele>252.0</ele><time>2026-04-10T10:16:10.843Z</time></trkpt><trkpt lat="45.0112532" lon="7.9899996"><ele>251.33333333333334</ele><time>2026-04-10T10:16:11.844Z</time></trkpt><trkpt lat="45.0111705" lon="7.9900014"><ele>250.66666666666669</ele><time>2026-04-10T10:16:12.844Z</time></trkpt><trkpt lat="45.0110828" lon="7.9899958"><ele>250.0</ele><time>2026-04-10T10:16:13.844Z</time></trkpt><trkpt lat="45.0109917" lon="7.9899917"><ele>249.33333333333334</ele><time>2026-04-10T10:16:14.844Z</time></trkpt><trkpt lat="45.0108986" lon="7.989983"><ele>248.66666666666669</ele><time>2026-04-10T10:16:15.845Z</time></trkpt><trkpt lat="45.010806" lon="7.9899758"><ele>248.0</ele><time>2026-04-10T10:16:16.842Z</time></trkpt><trkpt lat="45.010721" lon="7.9899649"><ele>247.50000000000003</ele><time>2026-04-10T10:16:17.844Z</time></trkpt><trkpt lat="45.0106521" lon="7.9899591"><ele>247.0</ele><time>2026-04-10T10:16:18.843Z</time></trkpt><trkpt lat="45.0105427" lon="7.9899339"><ele>246.5</ele><time>2026-04-10T10:16:20.845Z</time></trkpt><trkpt lat="45.0104832" lon="7.9898773"><ele>246.0</ele><time>2026-04-10T10:16:22.843Z</time></trkpt><trkpt lat="45.0104193" lon="7.9899201"><ele>245.50000000000003</ele><time>2026-04-10T10:16:27.842Z</time></trkpt><trkpt lat="45.0104845" lon="7.9899242"><ele>245.0</ele><time>2026-04-10T10:16:32.843Z</time></trkpt><trkpt lat="45.010555" lon="7.9899387"><ele>245.00000000000003</ele><time>2026-04-10T10:16:35.845Z</time></trkpt><trkpt lat="45.0106293" lon="7.9899657"><ele>245.0</ele><time>2026-04-10T10:16:38.843Z</time></trkpt><trkpt lat="45.0107132" lon="7.9899974"><ele>245.0</ele><time>2026-04-10T10:16:41.843Z</time></trkpt><trkpt lat="45.0108023" lon="7.9900121"><ele>245.0</ele><time>2026-04-10T10:16:44.844Z</time></trkpt><trkpt lat="45.0108687" lon="7.990026"><ele>245.00000000000003</ele><time>2026-04-10T10:16:46.843Z</time></trkpt><trkpt lat="45.0109572" lon="7.9900422"><ele>245.0</ele><time>2026-04-10T10:16:49.843Z</time></trkpt><trkpt lat="45.0110456" lon="7.9900517"><ele>246.16666666666669</ele><time>2026-04-10T10:16:52.843Z</time></trkpt><trkpt lat="45.0111245" lon="7.990057"><ele>247.33333333333334</ele><time>2026-04-10T10:16:55.843Z</time></trkpt><trkpt lat="45.0112326" lon="7.9900618"><ele>248.5</ele><time>2026-04-10T10:16:59.844Z</time></trkpt><trkpt lat="45.0113139" lon="7.9900632"><ele>249.66666666666669</ele><time>2026-04-10T10:17:02.844Z</time></trkpt><trkpt lat="45.0113988" lon="7.9900606"><ele>250.83333333333334</ele><time>2026-04-10T10:17:05.844Z</time></trkpt><trkpt lat="45.0114701" lon="7.9900848"><ele>252.0</ele><time>2026-04-10T10:17:08.843Z</time></trkpt><trkpt lat="45.0114562" lon="7.9901764"><ele>252.0</ele><time>2026-04-10T10:17:11.845Z</time></trkpt><trkpt lat="45.0113902" lon="7.9902373"><ele>252.0</ele><time>2026-04-10T10:17:14.845Z</time></trkpt><trkpt lat="45.0113262" lon="7.99028"><ele>252.0</ele><time>2026-04-10T10:17:17.843Z</time></trkpt><trkpt lat="45.0112629" lon="7.9903176"><ele>252.0</ele><time>2026-04-10T10:17:20.843Z</time></trkpt><trkpt lat="45.0111746" lon="7.9903772"><ele>252.0</ele><time>2026-04-10T10:17:23.842Z</time></trkpt><trkpt lat="45.0111048" lon="7.9904217"><ele>252.0</ele><time>2026-04-10T10:17:25.843Z</time></trkpt><trkpt lat="45.0110381" lon="7.990468"><ele>252.0</ele><time>2026-04-10T10:17:27.842Z</time></trkpt><trkpt lat="45.0109713" lon="7.9905028"><ele>252.0</ele><time>2026-04-10T10:17:29.844Z</time></trkpt><trkpt lat="45.0109029" lon="7.9905286"><ele>252.0</ele><time>2026-04-10T10:17:31.843Z</time></trkpt><trkpt lat="45.0108409" lon="7.9905464"><ele>252.0</ele><time>2026-04-10T10:17:33.843Z</time></trkpt><trkpt lat="45.0107702" lon="7.9905743"><ele>252.0</ele><time>2026-04-10T10:17:35.843Z</time></trkpt><trkpt lat="45.0106942" lon="7.9906282"><ele>252.0</ele><time>2026-04-10T10:17:37.843Z</time></trkpt><trkpt lat="45.0106027" lon="7.9906611"><ele>252.0</ele><time>2026-04-10T10:17:39.843Z</time></trkpt><trkpt lat="45.0105097" lon="7.9906757"><ele>252.0</ele><time>2026-04-10T10:17:41.844Z</time></trkpt><trkpt lat="45.0104103" lon="7.9907038"><ele>252.0</ele><time>2026-04-10T10:17:43.843Z</time></trkpt><trkpt lat="45.0103016" lon="7.9907217"><ele>252.0</ele><time>2026-04-10T10:17:45.844Z</time></trkpt><trkpt lat="45.0101908" lon="7.9907313"><ele>252.0</ele><time>2026-04-10T10:17:48.844Z</time></trkpt><trkpt lat="45.0101186" lon="7.9906998"><ele>252.0</ele><time>2026-04-10T10:17:52.844Z</time></trkpt><trkpt lat="45.0100475" lon="7.9907332"><ele>252.0</ele><time>2026-04-10T10:18:31.844Z</time></trkpt><trkpt lat="45.0099916" lon="7.9908334"><ele>252.0</ele><time>2026-04-10T10:18:35.843Z</time></trkpt><trkpt lat="45.0099245" lon="7.9908399"><ele>252.0</ele><time>2026-04-10T10:18:37.845Z</time></trkpt><trkpt lat="45.009836" lon="7.9908234"><ele>252.0</ele><time>2026-04-10T10:18:40.844Z</time></trkpt><trkpt lat="45.0097721" lon="7.9907769"><ele>252.0</ele><time>2026-04-10T10:18:42.844Z</time></trkpt><trkpt lat="45.0097195" lon="7.9906861"><ele>251.66666666666666</ele><time>2026-04-10T10:18:44.845Z</time></trkpt><trkpt lat="45.0096688" lon="7.9906003"><ele>251.33333333333331</ele><time>2026-04-10T10:18:46.843Z</time></trkpt><trkpt lat="45.009611" lon="7.9905184"><ele>251.0</ele><time>2026-04-10T10:18:48.843Z</time></trkpt><trkpt lat="45.0095544" lon="7.9904612"><ele>250.66666666666666</ele><time>2026-04-10T10:18:50.842Z</time></trkpt><trkpt lat="45.0094683" lon="7.9904605"><ele>250.33333333333331</ele><time>2026-04-10T10:18:53.844Z</time></trkpt><trkpt lat="45.0094131" lon="7.9905034"><ele>250.0</ele><time>2026-04-10T10:18:55.844Z</time></trkpt><trkpt lat="45.0093461" lon="7.9905406"><ele>249.99999999999997</ele><time>2026-04-10T10:18:57.843Z</time></trkpt><trkpt lat="45.009271" lon="7.9905599"><ele>250.0</ele><time>2026-04-10T10:18:59.844Z</time></trkpt><trkpt lat="45.0091907" lon="7.9905656"><ele>250.0</ele><time>2026-04-10T10:19:01.842Z</time></trkpt><trkpt lat="45.0091148" lon="7.9905729"><ele>250.0</ele><time>2026-04-10T10:19:03.843Z</time></trkpt><trkpt lat="45.0090517" lon="7.9905521"><ele>249.99999999999997</ele><time>2026-04-10T10:19:05.844Z</time></trkpt><trkpt lat="45.0089855" lon="7.9904985"><ele>250.0</ele><time>2026-04-10T10:19:08.843Z</time></trkpt><trkpt lat="45.0089169" lon="7.990429"><ele>248.99999999999997</ele><time>2026-04-10T10:19:12.843Z</time></trkpt><trkpt lat="45.0088418" lon="7.9903441"><ele>248.0</ele><time>2026-04-10T10:19:15.844Z</time></trkpt><trkpt lat="45.0087779" lon="7.9902907"><ele>247.0</ele><time>2026-04-10T10:19:17.843Z</time></trkpt><trkpt lat="45.0087136" lon="7.9902385"><ele>246.0</ele><time>2026-04-10T10:19:19.843Z</time></trkpt><trkpt lat="45.0086477" lon="7.9901854"><ele>244.99999999999997</ele><time>2026-04-10T10:19:21.843Z</time></trkpt><trkpt lat="45.0085795" lon="7.9901368"><ele>244.0</ele><time>2026-04-10T10:19:23.843Z</time></trkpt><trkpt lat="45.0085078" lon="7.9900811"><ele>243.99999999999997</ele><time>2026-04-10T10:19:25.843Z</time></trkpt><trkpt lat="45.0084286" lon="7.9900224"><ele>244.0</ele><time>2026-04-10T10:19:27.843Z</time></trkpt><trkpt lat="45.0083395" lon="7.9899432"><ele>244.0</ele><time>2026-04-10T10:19:29.842Z</time></trkpt><trkpt lat="45.0082722" lon="7.989889"><ele>244.0</ele><time>2026-04-10T10:19:31.842Z</time></trkpt><trkpt lat="45.0082142" lon="7.9898203"><ele>243.99999999999997</ele><time>2026-04-10T10:19:33.844Z</time></trkpt><trkpt lat="45.0081421" lon="7.9897884"><ele>244.0</ele><time>2026-04-10T10:19:35.842Z</time></trkpt><trkpt lat="45.0080733" lon="7.9897477"><ele>244.4285714285714</ele><time>2026-04-10T10:19:37.844Z</time></trkpt><trkpt lat="45.008018" lon="7.9897"><ele>244.85714285714283</ele><time>2026-04-10T10:19:39.843Z</time></trkpt><trkpt lat="45.0079847" lon="7.989603"><ele>245.28571428571428</ele><time>2026-04-10T10:19:43.843Z</time></trkpt><trkpt lat="45.0080559" lon="7.9896606"><ele>245.7142857142857</ele><time>2026-04-10T10:19:47.843Z</time></trkpt><trkpt lat="45.0081014" lon="7.989732"><ele>246.1428571428571</ele><time>2026-04-10T10:19:49.843Z</time></trkpt><trkpt lat="45.0081576" lon="7.9898028"><ele>246.57142857142858</ele><time>2026-04-10T10:19:51.844Z</time></trkpt><trkpt lat="45.0082208" lon="7.9898691"><ele>247.0</ele><time>2026-04-10T10:19:53.844Z</time></trkpt><trkpt lat="45.0083049" lon="7.9899412"><ele>246.39999999999998</ele><time>2026-04-10T10:19:55.843Z</time></trkpt><trkpt lat="45.0083915" lon="7.990025"><ele>245.79999999999998</ele><time>2026-04-10T10:19:57.844Z</time></trkpt><trkpt lat="45.0084754" lon="7.9900943"><ele>245.2</ele><time>2026-04-10T10:19:59.844Z</time></trkpt><trkpt lat="45.008561" lon="7.9901714"><ele>244.6</ele><time>2026-04-10T10:20:01.844Z</time></trkpt><trkpt lat="45.008648" lon="7.9902399"><ele>244.0</ele><time>2026-04-10T10:20:03.843Z</time></trkpt><trkpt lat="45.0087266" lon="7.9903256"><ele>244.0</ele><time>2026-04-10T10:20:05.843Z</time></trkpt><trkpt lat="45.0088073" lon="7.9904258"><ele>243.99999999999997</ele><time>2026-04-10T10:20:07.842Z</time></trkpt><trkpt lat="45.0089018" lon="7.9905001"><ele>243.99999999999997</ele><time>2026-04-10T10:20:09.844Z</time></trkpt><trkpt lat="45.0089988" lon="7.9905584"><ele>244.0</ele><time>2026-04-10T10:20:11.843Z</time></trkpt><trkpt lat="45.0091125" lon="7.9906056"><ele>244.0</ele><time>2026-04-10T10:20:13.843Z</time></trkpt><trkpt lat="45.0091816" lon="7.9906182"><ele>245.2</ele><time>2026-04-10T10:20:14.844Z</time></trkpt><trkpt lat="45.0092991" lon="7.9906103"><ele>246.39999999999998</ele><time>2026-04-10T10:20:16.843Z</time></trkpt><trkpt lat="45.0094023" lon="7.9905749"><ele>247.6</ele><time>2026-04-10T10:20:18.844Z</time></trkpt><trkpt lat="45.0094813" lon="7.9905112"><ele>248.8</ele><time>2026-04-10T10:20:20.844Z</time></trkpt><trkpt lat="45.0095555" lon="7.9904933"><ele>250.0</ele><time>2026-04-10T10:20:22.843Z</time></trkpt><trkpt lat="45.0096219" lon="7.9905631"><ele>249.99999999999997</ele><time>2026-04-10T10:20:24.843Z</time></trkpt><trkpt lat="45.009673" lon="7.9906463"><ele>250.0</ele><time>2026-04-10T10:20:26.843Z</time></trkpt><trkpt lat="45.009717" lon="7.9907394"><ele>250.0</ele><time>2026-04-10T10:20:29.843Z</time></trkpt><trkpt lat="45.0097673" lon="7.9908063"><ele>250.0</ele><time>2026-04-10T10:20:32.844Z</time></trkpt><trkpt lat="45.0098235" lon="7.9908628"><ele>249.99999999999997</ele><time>2026-04-10T10:20:35.843Z</time></trkpt><trkpt lat="45.0098875" lon="7.9908513"><ele>250.0</ele><time>2026-04-10T10:20:45.844Z</time></trkpt><trkpt lat="45.0099981" lon="7.9908423"><ele>250.33333333333331</ele><time>2026-04-10T10:20:51.843Z</time></trkpt><trkpt lat="45.0101018" lon="7.9908359"><ele>250.66666666666666</ele><time>2026-04-10T10:20:53.844Z</time></trkpt><trkpt lat="45.0101646" lon="7.9908104"><ele>251.0</ele><time>2026-04-10T10:20:54.843Z</time></trkpt><trkpt lat="45.0102279" lon="7.99075"><ele>251.33333333333331</ele><time>2026-04-10T10:20:56.843Z</time></trkpt><trkpt lat="45.0102987" lon="7.9907721"><ele>251.66666666666666</ele><time>2026-04-10T10:20:59.842Z</time></trkpt><trkpt lat="45.0103527" lon="7.9908548"><ele>252.0</ele><time>2026-04-10T10:21:03.842Z</time></trkpt><trkpt lat="45.0104244" lon="7.9909187"><ele>249.8</ele><time>2026-04-10T10:21:06.842Z</time></trkpt><trkpt lat="45.0103822" lon="7.9910054"><ele>247.6</ele><time>2026-04-10T10:21:13.842Z</time></trkpt><trkpt lat="45.0102993" lon="7.9910535"><ele>245.40000000000003</ele><time>2026-04-10T10:21:16.843Z</time></trkpt><trkpt lat="45.0101942" lon="7.9910786"><ele>243.20000000000002</ele><time>2026-04-10T10:21:18.843Z</time></trkpt><trkpt lat="45.0100921" lon="7.9910966"><ele>241.0</ele><time>2026-04-10T10:21:20.844Z</time></trkpt><trkpt lat="45.0099994" lon="7.9911294"><ele>240.16666666666666</ele><time>2026-04-10T10:21:22.844Z</time></trkpt><trkpt lat="45.0099199" lon="7.991163"><ele>239.33333333333331</ele><time>2026-04-10T10:21:24.843Z</time></trkpt><trkpt lat="45.0098464" lon="7.9911948"><ele>238.5</ele><time>2026-04-10T10:21:26.842Z</time></trkpt><trkpt lat="45.0097659" lon="7.9912113"><ele>237.66666666666669</ele><time>2026-04-10T10:21:28.843Z</time></trkpt><trkpt lat="45.0096865" lon="7.9912339"><ele>236.83333333333334</ele><time>2026-04-10T10:21:30.843Z</time></trkpt><trkpt lat="45.0095711" lon="7.9912367"><ele>236.0</ele><time>2026-04-10T10:21:32.842Z</time></trkpt><trkpt lat="45.0095006" lon="7.9911978"><ele>236.0</ele><time>2026-04-10T10:21:33.843Z</time></trkpt><trkpt lat="45.0094368" lon="7.9911695"><ele>236.00000000000003</ele><time>2026-04-10T10:21:34.845Z</time></trkpt><trkpt lat="45.0093605" lon="7.991154"><ele>236.00000000000003</ele><time>2026-04-10T10:21:35.844Z</time></trkpt><trkpt lat="45.0092936" lon="7.9911245"><ele>236.0</ele><time>2026-04-10T10:21:36.843Z</time></trkpt><trkpt lat="45.009181" lon="7.9910866"><ele>236.0</ele><time>2026-04-10T10:21:38.844Z</time></trkpt><trkpt lat="45.0090611" lon="7.9910437"><ele>234.16666666666669</ele><time>2026-04-10T10:21:40.843Z</time></trkpt><trkpt lat="45.0089982" lon="7.9910219"><ele>232.33333333333334</ele><time>2026-04-10T10:21:41.843Z</time></trkpt><trkpt lat="45.0089362" lon="7.9909986"><ele>230.5</ele><time>2026-04-10T10:21:42.843Z</time></trkpt><trkpt lat="45.0088378" lon="7.9909574"><ele>228.66666666666669</ele><time>2026-04-10T10:21:44.843Z</time></trkpt><trkpt lat="45.0087391" lon="7.9909242"><ele>226.83333333333334</ele><time>2026-04-10T10:21:46.842Z</time></trkpt><trkpt lat="45.0086456" lon="7.9908831"><ele>225.0</ele><time>2026-04-10T10:21:48.845Z</time></trkpt><trkpt lat="45.0085458" lon="7.9908504"><ele>225.4</ele><time>2026-04-10T10:21:50.843Z</time></trkpt><trkpt lat="45.0084486" lon="7.9908142"><ele>225.8</ele><time>2026-04-10T10:21:52.844Z</time></trkpt><trkpt lat="45.0083469" lon="7.9907716"><ele>226.2</ele><time>2026-04-10T10:21:54.843Z</time></trkpt><trkpt lat="45.0082414" lon="7.9907299"><ele>226.6</ele><time>2026-04-10T10:21:56.844Z</time></trkpt><trkpt lat="45.0081251" lon="7.9906736"><ele>227.0</ele><time>2026-04-10T10:21:58.842Z</time></trkpt><trkpt lat="45.0080657" lon="7.9906279"><ele>227.00000000000003</ele><time>2026-04-10T10:21:59.844Z</time></trkpt><trkpt lat="45.0079975" lon="7.9905837"><ele>227.0</ele><time>2026-04-10T10:22:01.844Z</time></trkpt><trkpt lat="45.0079326" lon="7.9904969"><ele>227.0</ele><time>2026-04-10T10:22:03.844Z</time></trkpt><trkpt lat="45.0078809" lon="7.9903826"><ele>227.0</ele><time>2026-04-10T10:22:05.844Z</time></trkpt><trkpt lat="45.0078301" lon="7.9902763"><ele>227.00000000000003</ele><time>2026-04-10T10:22:07.843Z</time></trkpt><trkpt lat="45.0077638" lon="7.9901812"><ele>227.0</ele><time>2026-04-10T10:22:09.844Z</time></trkpt><trkpt lat="45.0076994" lon="7.9900983"><ele>227.00000000000003</ele><time>2026-04-10T10:22:11.844Z</time></trkpt><trkpt lat="45.0076192" lon="7.9900433"><ele>227.0</ele><time>2026-04-10T10:22:13.844Z</time></trkpt><trkpt lat="45.00754" lon="7.989984"><ele>227.0</ele><time>2026-04-10T10:22:15.844Z</time></trkpt><trkpt lat="45.0074856" lon="7.9899318"><ele>227.0</ele><time>2026-04-10T10:22:17.843Z</time></trkpt><trkpt lat="45.0074131" lon="7.9898725"><ele>227.00000000000003</ele><time>2026-04-10T10:22:19.843Z</time></trkpt><trkpt lat="45.0073234" lon="7.9897938"><ele>227.0</ele><time>2026-04-10T10:22:21.844Z</time></trkpt><trkpt lat="45.0072601" lon="7.9897037"><ele>225.8</ele><time>2026-04-10T10:22:23.843Z</time></trkpt><trkpt lat="45.0071891" lon="7.9896302"><ele>224.6</ele><time>2026-04-10T10:22:25.844Z</time></trkpt><trkpt lat="45.0071128" lon="7.9895498"><ele>223.40000000000003</ele><time>2026-04-10T10:22:27.844Z</time></trkpt><trkpt lat="45.007035" lon="7.9894743"><ele>222.20000000000002</ele><time>2026-04-10T10:22:29.842Z</time></trkpt><trkpt lat="45.0069781" lon="7.989389"><ele>221.0</ele><time>2026-04-10T10:22:31.842Z</time></trkpt><trkpt lat="45.0069027" lon="7.9893076"><ele>221.00000000000003</ele><time>2026-04-10T10:22:33.843Z</time></trkpt><trkpt lat="45.0068389" lon="7.9892384"><ele>221.0</ele><time>2026-04-10T10:22:35.845Z</time></trkpt><trkpt lat="45.0067704" lon="7.9891631"><ele>221.0</ele><time>2026-04-10T10:22:37.844Z</time></trkpt><trkpt lat="45.0067179" lon="7.9890924"><ele>221.0</ele><time>2026-04-10T10:22:39.843Z</time></trkpt><trkpt lat="45.0066801" lon="7.9890147"><ele>221.0</ele><time>2026-04-10T10:22:42.844Z</time></trkpt><trkpt lat="45.0066556" lon="7.9889231"><ele>221.00000000000003</ele><time>2026-04-10T10:22:53.844Z</time></trkpt><trkpt lat="45.0066513" lon="7.9888233"><ele>221.0</ele><time>2026-04-10T10:22:58.843Z</time></trkpt><trkpt lat="45.0065999" lon="7.9887372"><ele>221.50000000000003</ele><time>2026-04-10T10:23:02.843Z</time></trkpt><trkpt lat="45.0065432" lon="7.9886555"><ele>222.0</ele><time>2026-04-10T10:23:05.843Z</time></trkpt><trkpt lat="45.0064651" lon="7.9885835"><ele>222.5</ele><time>2026-04-10T10:23:08.843Z</time></trkpt><trkpt lat="45.0063862" lon="7.9885623"><ele>223.0</ele><time>2026-04-10T10:23:11.843Z</time></trkpt><trkpt lat="45.0063031" lon="7.9885996"><ele>223.50000000000003</ele><time>2026-04-10T10:23:14.842Z</time></trkpt><trkpt lat="45.0062039" lon="7.9885845"><ele>224.0</ele><time>2026-04-10T10:23:16.843Z</time></trkpt><trkpt lat="45.006091" lon="7.9885507"><ele>224.00000000000003</ele><time>2026-04-10T10:23:18.844Z</time></trkpt><trkpt lat="45.0060003" lon="7.988493"><ele>224.0</ele><time>2026-04-10T10:23:20.843Z</time></trkpt><trkpt lat="45.0059382" lon="7.9884203"><ele>224.0</ele><time>2026-04-10T10:23:22.844Z</time></trkpt><trkpt lat="45.0058691" lon="7.9884162"><ele>224.0</ele><time>2026-04-10T10:23:29.842Z</time></trkpt><trkpt lat="45.0059367" lon="7.9884994"><ele>224.00000000000003</ele><time>2026-04-10T10:23:34.843Z</time></trkpt><trkpt lat="45.0059972" lon="7.9885402"><ele>224.0</ele><time>2026-04-10T10:23:37.844Z</time></trkpt><trkpt lat="45.0060553" lon="7.988582"><ele>224.00000000000003</ele><time>2026-04-10T10:23:39.844Z</time></trkpt><trkpt lat="45.0061152" lon="7.9886201"><ele>224.0</ele><time>2026-04-10T10:23:41.843Z</time></trkpt><trkpt lat="45.0061818" lon="7.988649"><ele>224.0</ele><time>2026-04-10T10:23:43.844Z</time></trkpt><trkpt lat="45.006275" lon="7.9886484"><ele>224.0</ele><time>2026-04-10T10:23:46.843Z</time></trkpt><trkpt lat="45.0063218" lon="7.988584"><ele>224.00000000000003</ele><time>2026-04-10T10:23:48.844Z</time></trkpt><trkpt lat="45.006306" lon="7.9884906"><ele>224.0</ele><time>2026-04-10T10:23:51.843Z</time></trkpt><trkpt lat="45.0062114" lon="7.9884407"><ele>224.00000000000003</ele><time>2026-04-10T10:23:54.843Z</time></trkpt><trkpt lat="45.0061188" lon="7.9884499"><ele>224.0</ele><time>2026-04-10T10:23:56.844Z</time></trkpt><trkpt lat="45.0060447" lon="7.9884495"><ele>224.0</ele><time>2026-04-10T10:23:58.845Z</time></trkpt><trkpt lat="45.0060059" lon="7.988353"><ele>224.0</ele><time>2026-04-10T10:24:01.843Z</time></trkpt><trkpt lat="45.0060094" lon="7.9882458"><ele>224.00000000000003</ele><time>2026-04-10T10:24:03.844Z</time></trkpt><trkpt lat="45.0060356" lon="7.988146"><ele>224.0</ele><time>2026-04-10T10:24:05.844Z</time></trkpt><trkpt lat="45.0060721" lon="7.98805"><ele>226.33333333333334</ele><time>2026-04-10T10:24:07.844Z</time></trkpt><trkpt lat="45.0061231" lon="7.9879594"><ele>228.66666666666669</ele><time>2026-04-10T10:24:09.843Z</time></trkpt><trkpt lat="45.0061818" lon="7.9878867"><ele>231.0</ele><time>2026-04-10T10:24:11.844Z</time></trkpt><trkpt lat="45.0062509" lon="7.9878103"><ele>233.33333333333331</ele><time>2026-04-10T10:24:13.843Z</time></trkpt><trkpt lat="45.006316" lon="7.9877518"><ele>235.66666666666666</ele><time>2026-04-10T10:24:15.842Z</time></trkpt><trkpt lat="45.0062461" lon="7.9877688"><ele>238.0</ele><time>2026-04-10T10:24:27.845Z</time></trkpt><trkpt lat="45.006133" lon="7.9877851"><ele>238.0</ele><time>2026-04-10T10:24:29.843Z</time></trkpt><trkpt lat="45.0060657" lon="7.9878951"><ele>238.0</ele><time>2026-04-10T10:24:31.843Z</time></trkpt><trkpt lat="45.0059987" lon="7.9879992"><ele>238.0</ele><time>2026-04-10T10:24:33.843Z</time></trkpt><trkpt lat="45.0059449" lon="7.9881182"><ele>238.0</ele><time>2026-04-10T10:24:35.843Z</time></trkpt><trkpt lat="45.0059341" lon="7.9882549"><ele>238.0</ele><time>2026-04-10T10:24:37.844Z</time></trkpt><trkpt lat="45.0059523" lon="7.9883831"><ele>235.66666666666666</ele><time>2026-04-10T10:24:39.843Z</time></trkpt><trkpt lat="45.0060126" lon="7.9884955"><ele>233.33333333333331</ele><time>2026-04-10T10:24:41.843Z</time></trkpt><trkpt lat="45.0060942" lon="7.9884821"><ele>231.0</ele><time>2026-04-10T10:24:43.843Z</time></trkpt><trkpt lat="45.0061706" lon="7.9884568"><ele>228.66666666666669</ele><time>2026-04-10T10:24:45.843Z</time></trkpt><trkpt lat="45.0062451" lon="7.9884626"><ele>226.33333333333334</ele><time>2026-04-10T10:24:47.843Z</time></trkpt><trkpt lat="45.0063065" lon="7.9885062"><ele>224.0</ele><time>2026-04-10T10:24:49.842Z</time></trkpt><trkpt lat="45.0063235" lon="7.9886052"><ele>224.0</ele><time>2026-04-10T10:24:53.843Z</time></trkpt><trkpt lat="45.0062447" lon="7.9886124"><ele>223.99999999999997</ele><time>2026-04-10T10:25:02.844Z</time></trkpt><trkpt lat="45.0061814" lon="7.9885888"><ele>223.99999999999997</ele><time>2026-04-10T10:25:03.845Z</time></trkpt><trkpt lat="45.0060814" lon="7.9885681"><ele>224.0</ele><time>2026-04-10T10:25:05.843Z</time></trkpt><trkpt lat="45.0059822" lon="7.9884944"><ele>224.0</ele><time>2026-04-10T10:25:07.843Z</time></trkpt><trkpt lat="45.0058839" lon="7.9884021"><ele>222.5</ele><time>2026-04-10T10:25:09.843Z</time></trkpt><trkpt lat="45.0057851" lon="7.9883243"><ele>221.0</ele><time>2026-04-10T10:25:11.845Z</time></trkpt><trkpt lat="45.0056813" lon="7.9882366"><ele>219.5</ele><time>2026-04-10T10:25:13.844Z</time></trkpt><trkpt lat="45.005598" lon="7.9881336"><ele>218.0</ele><time>2026-04-10T10:25:15.845Z</time></trkpt><trkpt lat="45.0055624" lon="7.9879836"><ele>218.00000000000003</ele><time>2026-04-10T10:25:17.842Z</time></trkpt><trkpt lat="45.0055597" lon="7.98789"><ele>218.0</ele><time>2026-04-10T10:25:19.844Z</time></trkpt><trkpt lat="45.0055556" lon="7.9879963"><ele>218.0</ele><time>2026-04-10T10:25:27.843Z</time></trkpt><trkpt lat="45.0055787" lon="7.9881015"><ele>218.0</ele><time>2026-04-10T10:25:29.844Z</time></trkpt><trkpt lat="45.005618" lon="7.9882118"><ele>218.00000000000003</ele><time>2026-04-10T10:25:31.843Z</time></trkpt><trkpt lat="45.0056662" lon="7.9883028"><ele>218.0</ele><time>2026-04-10T10:25:33.844Z</time></trkpt><trkpt lat="45.0057243" lon="7.9883694"><ele>217.16666666666669</ele><time>2026-04-10T10:25:35.842Z</time></trkpt><trkpt lat="45.005794" lon="7.9884176"><ele>216.33333333333334</ele><time>2026-04-10T10:25:37.843Z</time></trkpt><trkpt lat="45.005868" lon="7.9884688"><ele>215.5</ele><time>2026-04-10T10:25:39.843Z</time></trkpt><trkpt lat="45.0059319" lon="7.98853"><ele>214.66666666666669</ele><time>2026-04-10T10:25:41.843Z</time></trkpt><trkpt lat="45.0060333" lon="7.9886053"><ele>213.83333333333334</ele><time>2026-04-10T10:25:43.843Z</time></trkpt><trkpt lat="45.006113" lon="7.9886543"><ele>213.0</ele><time>2026-04-10T10:25:45.844Z</time></trkpt><trkpt lat="45.0061782" lon="7.9886746"><ele>214.83333333333334</ele><time>2026-04-10T10:25:47.843Z</time></trkpt><trkpt lat="45.0062488" lon="7.9886845"><ele>216.66666666666669</ele><time>2026-04-10T10:25:49.843Z</time></trkpt><trkpt lat="45.0063151" lon="7.988657"><ele>218.5</ele><time>2026-04-10T10:25:51.843Z</time></trkpt><trkpt lat="45.0063852" lon="7.9886522"><ele>220.33333333333334</ele><time>2026-04-10T10:25:54.842Z</time></trkpt><trkpt lat="45.0064621" lon="7.9887074"><ele>222.16666666666669</ele><time>2026-04-10T10:25:56.843Z</time></trkpt><trkpt lat="45.00654" lon="7.9887722"><ele>224.0</ele><time>2026-04-10T10:25:58.843Z</time></trkpt><trkpt lat="45.0065981" lon="7.9888619"><ele>224.0</ele><time>2026-04-10T10:26:00.843Z</time></trkpt><trkpt lat="45.0066391" lon="7.9889503"><ele>223.99999999999997</ele><time>2026-04-10T10:26:02.843Z</time></trkpt><trkpt lat="45.0065583" lon="7.9889513"><ele>223.99999999999997</ele><time>2026-04-10T10:26:07.842Z</time></trkpt><trkpt lat="45.0064482" lon="7.9888884"><ele>224.0</ele><time>2026-04-10T10:26:09.844Z</time></trkpt><trkpt lat="45.00632" lon="7.9888361"><ele>224.0</ele><time>2026-04-10T10:26:10.843Z</time></trkpt><trkpt lat="45.0061901" lon="7.9888225"><ele>224.00000000000003</ele><time>2026-04-10T10:26:12.843Z</time></trkpt><trkpt lat="45.0061209" lon="7.9888012"><ele>224.0</ele><time>2026-04-10T10:26:13.843Z</time></trkpt><trkpt lat="45.0060276" lon="7.9887627"><ele>224.0</ele><time>2026-04-10T10:26:14.843Z</time></trkpt><trkpt lat="45.0059569" lon="7.9887252"><ele>224.0</ele><time>2026-04-10T10:26:15.844Z</time></trkpt><trkpt lat="45.0058851" lon="7.9887034"><ele>224.00000000000003</ele><time>2026-04-10T10:26:16.843Z</time></trkpt><trkpt lat="45.0058161" lon="7.9886868"><ele>224.0</ele><time>2026-04-10T10:26:17.843Z</time></trkpt><trkpt lat="45.0057363" lon="7.9886634"><ele>222.42857142857142</ele><time>2026-04-10T10:26:18.843Z</time></trkpt><trkpt lat="45.0056612" lon="7.988622"><ele>220.85714285714286</ele><time>2026-04-10T10:26:19.844Z</time></trkpt><trkpt lat="45.0055913" lon="7.9886055"><ele>219.28571428571428</ele><time>2026-04-10T10:26:20.843Z</time></trkpt><trkpt lat="45.0055265" lon="7.9885786"><ele>217.71428571428572</ele><time>2026-04-10T10:26:21.844Z</time></trkpt><trkpt lat="45.0055079" lon="7.9886764"><ele>216.14285714285714</ele><time>2026-04-10T10:26:27.844Z</time></trkpt><trkpt lat="45.0055624" lon="7.9887559"><ele>214.57142857142856</ele><time>2026-04-10T10:26:29.843Z</time></trkpt><trkpt lat="45.0056325" lon="7.9888005"><ele>213.0</ele><time>2026-04-10T10:26:31.843Z</time></trkpt><trkpt lat="45.005703" lon="7.9888772"><ele>213.0</ele><time>2026-04-10T10:26:33.842Z</time></trkpt><trkpt lat="45.0057846" lon="7.9889816"><ele>213.0</ele><time>2026-04-10T10:26:35.843Z</time></trkpt><trkpt lat="45.0058659" lon="7.989065"><ele>213.0</ele><time>2026-04-10T10:26:37.844Z</time></trkpt><trkpt lat="45.005928" lon="7.9891638"><ele>213.0</ele><time>2026-04-10T10:26:40.843Z</time></trkpt><trkpt lat="45.0058518" lon="7.989168"><ele>213.0</ele><time>2026-04-10T10:26:44.843Z</time></trkpt><trkpt lat="45.0057644" lon="7.989127"><ele>213.0</ele><time>2026-04-10T10:26:46.843Z</time></trkpt><trkpt lat="45.0056775" lon="7.9890601"><ele>213.0</ele><time>2026-04-10T10:26:48.844Z</time></trkpt><trkpt lat="45.0055977" lon="7.9889938"><ele>213.0</ele><time>2026-04-10T10:26:50.843Z</time></trkpt><trkpt lat="45.0055139" lon="7.9889439"><ele>213.0</ele><time>2026-04-10T10:26:52.843Z</time></trkpt><trkpt lat="45.0054274" lon="7.9888794"><ele>213.0</ele><time>2026-04-10T10:26:54.843Z</time></trkpt><trkpt lat="45.005346" lon="7.9887962"><ele>213.0</ele><time>2026-04-10T10:26:56.842Z</time></trkpt><trkpt lat="45.0052539" lon="7.9886999"><ele>213.0</ele><time>2026-04-10T10:26:58.844Z</time></trkpt><trkpt lat="45.0051556" lon="7.9885948"><ele>213.0</ele><time>2026-04-10T10:27:00.842Z</time></trkpt><trkpt lat="45.0050654" lon="7.9885106"><ele>213.0</ele><time>2026-04-10T10:27:02.843Z</time></trkpt><trkpt lat="45.0049813" lon="7.9884267"><ele>213.0</ele><time>2026-04-10T10:27:04.842Z</time></trkpt><trkpt lat="45.004896" lon="7.9883318"><ele>213.33333333333334</ele><time>2026-04-10T10:27:06.844Z</time></trkpt><trkpt lat="45.004807" lon="7.9882389"><ele>213.66666666666669</ele><time>2026-04-10T10:27:08.844Z</time></trkpt><trkpt lat="45.0047244" lon="7.9881769"><ele>214.0</ele><time>2026-04-10T10:27:10.844Z</time></trkpt><trkpt lat="45.0046584" lon="7.9881337"><ele>214.33333333333334</ele><time>2026-04-10T10:27:12.843Z</time></trkpt><trkpt lat="45.0045845" lon="7.9881463"><ele>214.66666666666669</ele><time>2026-04-10T10:27:14.844Z</time></trkpt><trkpt lat="45.004529" lon="7.9882589"><ele>215.0</ele><time>2026-04-10T10:27:16.842Z</time></trkpt><trkpt lat="45.0044753" lon="7.9883905"><ele>215.0</ele><time>2026-04-10T10:27:18.843Z</time></trkpt><trkpt lat="45.0044247" lon="7.9885191"><ele>215.0</ele><time>2026-04-10T10:27:20.844Z</time></trkpt><trkpt lat="45.0043752" lon="7.9886619"><ele>215.0</ele><time>2026-04-10T10:27:22.843Z</time></trkpt><trkpt lat="45.0043105" lon="7.9887898"><ele>215.0</ele><time>2026-04-10T10:27:24.843Z</time></trkpt><trkpt lat="45.0042332" lon="7.9889759"><ele>215.0</ele><time>2026-04-10T10:27:27.842Z</time></trkpt><trkpt lat="45.004173" lon="7.9891039"><ele>215.0</ele><time>2026-04-10T10:27:29.842Z</time></trkpt><trkpt lat="45.0041211" lon="7.9892246"><ele>215.0</ele><time>2026-04-10T10:27:31.843Z</time></trkpt><trkpt lat="45.0040693" lon="7.989337"><ele>215.0</ele><time>2026-04-10T10:27:33.844Z</time></trkpt><trkpt lat="45.0040193" lon="7.9894486"><ele>215.0</ele><time>2026-04-10T10:27:35.844Z</time></trkpt><trkpt lat="45.0039765" lon="7.9895451"><ele>215.00000000000003</ele><time>2026-04-10T10:27:37.842Z</time></trkpt><trkpt lat="45.0039372" lon="7.9896525"><ele>215.0</ele><time>2026-04-10T10:27:39.842Z</time></trkpt><trkpt lat="45.0039009" lon="7.9897413"><ele>215.0</ele><time>2026-04-10T10:27:41.844Z</time></trkpt><trkpt lat="45.0038472" lon="7.9898384"><ele>215.0</ele><time>2026-04-10T10:27:43.843Z</time></trkpt><trkpt lat="45.0038178" lon="7.9899347"><ele>215.00000000000003</ele><time>2026-04-10T10:27:45.843Z</time></trkpt><trkpt lat="45.0037824" lon="7.990034"><ele>215.0</ele><time>2026-04-10T10:27:47.844Z</time></trkpt><trkpt lat="45.0037482" lon="7.990116"><ele>216.00000000000003</ele><time>2026-04-10T10:27:49.845Z</time></trkpt><trkpt lat="45.0037252" lon="7.990206"><ele>217.0</ele><time>2026-04-10T10:27:51.842Z</time></trkpt><trkpt lat="45.0037083" lon="7.9903011"><ele>218.0</ele><time>2026-04-10T10:27:53.842Z</time></trkpt><trkpt lat="45.0036903" lon="7.9904505"><ele>219.0</ele><time>2026-04-10T10:27:56.843Z</time></trkpt><trkpt lat="45.0036796" lon="7.9905493"><ele>220.00000000000003</ele><time>2026-04-10T10:27:58.842Z</time></trkpt><trkpt lat="45.0036736" lon="7.9906501"><ele>221.0</ele><time>2026-04-10T10:28:00.843Z</time></trkpt><trkpt lat="45.0036711" lon="7.9907526"><ele>221.2857142857143</ele><time>2026-04-10T10:28:02.842Z</time></trkpt><trkpt lat="45.0036688" lon="7.9908534"><ele>221.57142857142858</ele><time>2026-04-10T10:28:04.843Z</time></trkpt><trkpt lat="45.0036658" lon="7.9909467"><ele>221.85714285714286</ele><time>2026-04-10T10:28:06.843Z</time></trkpt><trkpt lat="45.003663" lon="7.9910427"><ele>222.14285714285717</ele><time>2026-04-10T10:28:08.842Z</time></trkpt><trkpt lat="45.0036634" lon="7.9911368"><ele>222.42857142857142</ele><time>2026-04-10T10:28:10.843Z</time></trkpt><trkpt lat="45.003661" lon="7.9912307"><ele>222.71428571428572</ele><time>2026-04-10T10:28:12.842Z</time></trkpt><trkpt lat="45.0036615" lon="7.991327"><ele>223.0</ele><time>2026-04-10T10:28:14.845Z</time></trkpt><trkpt lat="45.0036591" lon="7.9914178"><ele>223.0</ele><time>2026-04-10T10:28:16.843Z</time></trkpt><trkpt lat="45.0036605" lon="7.9915085"><ele>223.0</ele><time>2026-04-10T10:28:18.843Z</time></trkpt><trkpt lat="45.0036604" lon="7.9915999"><ele>223.0</ele><time>2026-04-10T10:28:20.843Z</time></trkpt><trkpt lat="45.0036573" lon="7.9916955"><ele>223.0</ele><time>2026-04-10T10:28:22.842Z</time></trkpt><trkpt lat="45.0036593" lon="7.9917878"><ele>223.0</ele><time>2026-04-10T10:28:24.845Z</time></trkpt><trkpt lat="45.0036725" lon="7.991877"><ele>223.0</ele><time>2026-04-10T10:28:26.842Z</time></trkpt><trkpt lat="45.003723" lon="7.9919909"><ele>223.0</ele><time>2026-04-10T10:28:29.842Z</time></trkpt><trkpt lat="45.0037694" lon="7.9920561"><ele>223.0</ele><time>2026-04-10T10:28:31.843Z</time></trkpt><trkpt lat="45.0038266" lon="7.9921034"><ele>223.0</ele><time>2026-04-10T10:28:33.843Z</time></trkpt><trkpt lat="45.0038857" lon="7.992146"><ele>223.0</ele><time>2026-04-10T10:28:35.844Z</time></trkpt><trkpt lat="45.0039491" lon="7.9921818"><ele>223.0</ele><time>2026-04-10T10:28:37.843Z</time></trkpt><trkpt lat="45.0040134" lon="7.9922108"><ele>223.0</ele><time>2026-04-10T10:28:39.842Z</time></trkpt><trkpt lat="45.0040734" lon="7.9922497"><ele>223.0</ele><time>2026-04-10T10:28:41.842Z</time></trkpt><trkpt lat="45.004157" lon="7.992308"><ele>223.0</ele><time>2026-04-10T10:28:44.843Z</time></trkpt><trkpt lat="45.0042144" lon="7.992408"><ele>224.99999999999997</ele><time>2026-04-10T10:28:47.843Z</time></trkpt><trkpt lat="45.0042203" lon="7.9925059"><ele>227.0</ele><time>2026-04-10T10:28:49.843Z</time></trkpt><trkpt lat="45.0041952" lon="7.9926337"><ele>229.0</ele><time>2026-04-10T10:28:52.843Z</time></trkpt><trkpt lat="45.0041808" lon="7.9927674"><ele>231.0</ele><time>2026-04-10T10:28:55.844Z</time></trkpt><trkpt lat="45.0041845" lon="7.9928627"><ele>232.99999999999997</ele><time>2026-04-10T10:28:57.842Z</time></trkpt><trkpt lat="45.0042097" lon="7.9929618"><ele>235.0</ele><time>2026-04-10T10:28:59.844Z</time></trkpt><trkpt lat="45.0042495" lon="7.9930553"><ele>235.0</ele><time>2026-04-10T10:29:01.842Z</time></trkpt><trkpt lat="45.0042929" lon="7.9931303"><ele>234.99999999999997</ele><time>2026-04-10T10:29:03.843Z</time></trkpt><trkpt lat="45.0043357" lon="7.9932019"><ele>235.0</ele><time>2026-04-10T10:29:05.843Z</time></trkpt><trkpt lat="45.0043812" lon="7.9932761"><ele>235.0</ele><time>2026-04-10T10:29:07.842Z</time></trkpt><trkpt lat="45.0044263" lon="7.9933489"><ele>234.99999999999997</ele><time>2026-04-10T10:29:09.842Z</time></trkpt><trkpt lat="45.0044729" lon="7.9934399"><ele>235.0</ele><time>2026-04-10T10:29:11.843Z</time></trkpt><trkpt lat="45.0045066" lon="7.9935319"><ele>235.0</ele><time>2026-04-10T10:29:13.844Z</time></trkpt><trkpt lat="45.0045282" lon="7.9936281"><ele>235.83333333333331</ele><time>2026-04-10T10:29:15.843Z</time></trkpt><trkpt lat="45.0045363" lon="7.9937297"><ele>236.66666666666666</ele><time>2026-04-10T10:29:17.843Z</time></trkpt><trkpt lat="45.0045347" lon="7.9938234"><ele>237.5</ele><time>2026-04-10T10:29:19.844Z</time></trkpt><trkpt lat="45.0045338" lon="7.9939561"><ele>238.33333333333331</ele><time>2026-04-10T10:29:22.843Z</time></trkpt><trkpt lat="45.0045312" lon="7.9940502"><ele>239.16666666666666</ele><time>2026-04-10T10:29:24.843Z</time></trkpt><trkpt lat="45.0045302" lon="7.9941862"><ele>240.0</ele><time>2026-04-10T10:29:27.843Z</time></trkpt><trkpt lat="45.0045315" lon="7.994288"><ele>241.0</ele><time>2026-04-10T10:29:29.843Z</time></trkpt><trkpt lat="45.0045315" lon="7.9943898"><ele>242.0</ele><time>2026-04-10T10:29:31.843Z</time></trkpt><trkpt lat="45.0045284" lon="7.9944949"><ele>243.0</ele><time>2026-04-10T10:29:33.843Z</time></trkpt><trkpt lat="45.0045254" lon="7.9945916"><ele>244.0</ele><time>2026-04-10T10:29:35.842Z</time></trkpt><trkpt lat="45.0045264" lon="7.9946971"><ele>245.0</ele><time>2026-04-10T10:29:37.844Z</time></trkpt><trkpt lat="45.0045189" lon="7.994804"><ele>246.0</ele><time>2026-04-10T10:29:39.842Z</time></trkpt><trkpt lat="45.0045144" lon="7.9949125"><ele>247.0</ele><time>2026-04-10T10:29:41.844Z</time></trkpt><trkpt lat="45.0045061" lon="7.9950239"><ele>248.99999999999997</ele><time>2026-04-10T10:29:43.842Z</time></trkpt><trkpt lat="45.0044914" lon="7.9951406"><ele>251.0</ele><time>2026-04-10T10:29:45.843Z</time></trkpt><trkpt lat="45.0044637" lon="7.9952568"><ele>253.0</ele><time>2026-04-10T10:29:47.843Z</time></trkpt><trkpt lat="45.0044159" lon="7.9953631"><ele>255.0</ele><time>2026-04-10T10:29:49.843Z</time></trkpt><trkpt lat="45.0043452" lon="7.9954395"><ele>257.0</ele><time>2026-04-10T10:29:51.842Z</time></trkpt><trkpt lat="45.0042642" lon="7.99547"><ele>259.0</ele><time>2026-04-10T10:29:53.842Z</time></trkpt><trkpt lat="45.0041788" lon="7.9954787"><ele>257.0</ele><time>2026-04-10T10:29:55.843Z</time></trkpt><trkpt lat="45.0040989" lon="7.9954744"><ele>254.99999999999997</ele><time>2026-04-10T10:29:57.843Z</time></trkpt><trkpt lat="45.0040194" lon="7.9954696"><ele>252.99999999999997</ele><time>2026-04-10T10:29:59.844Z</time></trkpt><trkpt lat="45.0038948" lon="7.9954807"><ele>251.0</ele><time>2026-04-10T10:30:02.843Z</time></trkpt><trkpt lat="45.0038121" lon="7.9955017"><ele>249.0</ele><time>2026-04-10T10:30:04.842Z</time></trkpt><trkpt lat="45.0037312" lon="7.9955471"><ele>249.0</ele><time>2026-04-10T10:30:06.844Z</time></trkpt><trkpt lat="45.0036589" lon="7.9956177"><ele>248.99999999999997</ele><time>2026-04-10T10:30:08.844Z</time></trkpt><trkpt lat="45.0035951" lon="7.9957069"><ele>248.99999999999997</ele><time>2026-04-10T10:30:10.843Z</time></trkpt><trkpt lat="45.0035384" lon="7.9958073"><ele>249.0</ele><time>2026-04-10T10:30:12.842Z</time></trkpt><trkpt lat="45.0034836" lon="7.9959093"><ele>249.0</ele><time>2026-04-10T10:30:14.842Z</time></trkpt><trkpt lat="45.0034278" lon="7.996012"><ele>250.5</ele><time>2026-04-10T10:30:16.843Z</time></trkpt><trkpt lat="45.0033759" lon="7.9961166"><ele>252.0</ele><time>2026-04-10T10:30:18.844Z</time></trkpt><trkpt lat="45.0033237" lon="7.9962302"><ele>253.5</ele><time>2026-04-10T10:30:20.842Z</time></trkpt><trkpt lat="45.003281" lon="7.9963419"><ele>255.0</ele><time>2026-04-10T10:30:22.844Z</time></trkpt><trkpt lat="45.003231" lon="7.9964373"><ele>256.5</ele><time>2026-04-10T10:30:24.842Z</time></trkpt><trkpt lat="45.0031895" lon="7.9965439"><ele>258.0</ele><time>2026-04-10T10:30:26.844Z</time></trkpt><trkpt lat="45.0031636" lon="7.9966491"><ele>257.3333333333333</ele><time>2026-04-10T10:30:28.844Z</time></trkpt><trkpt lat="45.0031672" lon="7.996745"><ele>256.6666666666667</ele><time>2026-04-10T10:30:30.844Z</time></trkpt><trkpt lat="45.0032252" lon="7.9968329"><ele>256.0</ele><time>2026-04-10T10:30:32.843Z</time></trkpt><trkpt lat="45.0033085" lon="7.99689"><ele>255.33333333333334</ele><time>2026-04-10T10:30:34.844Z</time></trkpt><trkpt lat="45.0033941" lon="7.9969534"><ele>254.66666666666669</ele><time>2026-04-10T10:30:36.842Z</time></trkpt><trkpt lat="45.0034712" lon="7.9970094"><ele>254.0</ele><time>2026-04-10T10:30:38.844Z</time></trkpt><trkpt lat="45.0035529" lon="7.9970714"><ele>253.33333333333334</ele><time>2026-04-10T10:30:40.843Z</time></trkpt><trkpt lat="45.0036172" lon="7.9971472"><ele>252.66666666666669</ele><time>2026-04-10T10:30:42.843Z</time></trkpt><trkpt lat="45.0036841" lon="7.9972328"><ele>252.0</ele><time>2026-04-10T10:30:44.843Z</time></trkpt><trkpt lat="45.0037473" lon="7.9973235"><ele>251.33333333333331</ele><time>2026-04-10T10:30:46.845Z</time></trkpt><trkpt lat="45.0038143" lon="7.9974036"><ele>250.66666666666666</ele><time>2026-04-10T10:30:48.844Z</time></trkpt><trkpt lat="45.0038739" lon="7.997499"><ele>250.0</ele><time>2026-04-10T10:30:50.842Z</time></trkpt><trkpt lat="45.0039369" lon="7.9975938"><ele>250.6</ele><time>2026-04-10T10:30:52.842Z</time></trkpt><trkpt lat="45.0039934" lon="7.9976717"><ele>251.2</ele><time>2026-04-10T10:30:54.843Z</time></trkpt><trkpt lat="45.0040571" lon="7.997748"><ele>251.8</ele><time>2026-04-10T10:30:56.843Z</time></trkpt><trkpt lat="45.0041027" lon="7.9978465"><ele>252.4</ele><time>2026-04-10T10:30:58.843Z</time></trkpt><trkpt lat="45.0041483" lon="7.9979875"><ele>253.0</ele><time>2026-04-10T10:31:00.843Z</time></trkpt><trkpt lat="45.0041696" lon="7.998159"><ele>252.99999999999997</ele><time>2026-04-10T10:31:02.844Z</time></trkpt><trkpt lat="45.0041736" lon="7.9982499"><ele>253.0</ele><time>2026-04-10T10:31:03.843Z</time></trkpt><trkpt lat="45.004159" lon="7.9983453"><ele>253.0</ele><time>2026-04-10T10:31:04.842Z</time></trkpt><trkpt lat="45.0041447" lon="7.9984485"><ele>253.0</ele><time>2026-04-10T10:31:05.842Z</time></trkpt><trkpt lat="45.0041245" lon="7.9985497"><ele>252.99999999999997</ele><time>2026-04-10T10:31:06.842Z</time></trkpt><trkpt lat="45.004096" lon="7.9986694"><ele>253.0</ele><time>2026-04-10T10:31:07.844Z</time></trkpt><trkpt lat="45.0040632" lon="7.9987793"><ele>250.4</ele><time>2026-04-10T10:31:08.844Z</time></trkpt><trkpt lat="45.0040335" lon="7.9989072"><ele>247.8</ele><time>2026-04-10T10:31:09.842Z</time></trkpt><trkpt lat="45.0040092" lon="7.999026"><ele>245.2</ele><time>2026-04-10T10:31:10.843Z</time></trkpt><trkpt lat="45.0039832" lon="7.9991588"><ele>242.6</ele><time>2026-04-10T10:31:11.843Z</time></trkpt><trkpt lat="45.0039537" lon="7.9992892"><ele>240.0</ele><time>2026-04-10T10:31:12.843Z</time></trkpt><trkpt lat="45.0039195" lon="7.9994052"><ele>240.0</ele><time>2026-04-10T10:31:13.844Z</time></trkpt><trkpt lat="45.0038987" lon="7.9995222"><ele>240.0</ele><time>2026-04-10T10:31:14.844Z</time></trkpt><trkpt lat="45.0038601" lon="7.9996522"><ele>240.0</ele><time>2026-04-10T10:31:15.842Z</time></trkpt><trkpt lat="45.0038234" lon="7.9997532"><ele>240.0</ele><time>2026-04-10T10:31:16.842Z</time></trkpt><trkpt lat="45.0037909" lon="7.9998735"><ele>240.0</ele><time>2026-04-10T10:31:17.842Z</time></trkpt><trkpt lat="45.0037587" lon="8.0000009"><ele>240.0</ele><time>2026-04-10T10:31:18.843Z</time></trkpt><trkpt lat="45.0037183" lon="8.0001267"><ele>240.0</ele><time>2026-04-10T10:31:19.843Z</time></trkpt><trkpt lat="45.0036689" lon="8.0002561"><ele>240.0</ele><time>2026-04-10T10:31:20.843Z</time></trkpt><trkpt lat="45.0036135" lon="8.000375"><ele>240.0</ele><time>2026-04-10T10:31:21.843Z</time></trkpt><trkpt lat="45.0035531" lon="8.0005096"><ele>240.0</ele><time>2026-04-10T10:31:22.844Z</time></trkpt><trkpt lat="45.0034888" lon="8.0006378"><ele>240.0</ele><time>2026-04-10T10:31:23.842Z</time></trkpt><trkpt lat="45.0034067" lon="8.0007658"><ele>240.0</ele><time>2026-04-10T10:31:24.842Z</time></trkpt><trkpt lat="45.0033184" lon="8.0008821"><ele>240.0</ele><time>2026-04-10T10:31:25.843Z</time></trkpt><trkpt lat="45.0032454" lon="8.0009919"><ele>240.0</ele><time>2026-04-10T10:31:26.845Z</time></trkpt><trkpt lat="45.0031741" lon="8.0010451"><ele>240.0</ele><time>2026-04-10T10:31:27.843Z</time></trkpt><trkpt lat="45.0031078" lon="8.001072"><ele>237.16666666666666</ele><time>2026-04-10T10:31:28.843Z</time></trkpt><trkpt lat="45.0030441" lon="8.0010554"><ele>234.33333333333331</ele><time>2026-04-10T10:31:29.842Z</time></trkpt><trkpt lat="45.0030078" lon="8.0009805"><ele>231.5</ele><time>2026-04-10T10:31:30.843Z</time></trkpt><trkpt lat="45.0029928" lon="8.0008752"><ele>228.66666666666666</ele><time>2026-04-10T10:31:31.843Z</time></trkpt><trkpt lat="45.0030129" lon="8.0007645"><ele>225.83333333333331</ele><time>2026-04-10T10:31:32.843Z</time></trkpt><trkpt lat="45.0030584" lon="8.0006629"><ele>223.0</ele><time>2026-04-10T10:31:33.842Z</time></trkpt><trkpt lat="45.0031049" lon="8.0005597"><ele>222.49999999999997</ele><time>2026-04-10T10:31:34.843Z</time></trkpt><trkpt lat="45.0031322" lon="8.0004481"><ele>222.0</ele><time>2026-04-10T10:31:35.843Z</time></trkpt><trkpt lat="45.003139" lon="8.0003252"><ele>221.5</ele><time>2026-04-10T10:31:36.842Z</time></trkpt><trkpt lat="45.0031194" lon="8.0002063"><ele>221.0</ele><time>2026-04-10T10:31:37.842Z</time></trkpt><trkpt lat="45.0030683" lon="8.0001025"><ele>220.49999999999997</ele><time>2026-04-10T10:31:38.845Z</time></trkpt><trkpt lat="45.0029985" lon="8.0000187"><ele>220.0</ele><time>2026-04-10T10:31:39.842Z</time></trkpt><trkpt lat="45.0028985" lon="7.9999808"><ele>220.0</ele><time>2026-04-10T10:31:40.843Z</time></trkpt><trkpt lat="45.0027924" lon="7.9999783"><ele>220.0</ele><time>2026-04-10T10:31:41.843Z</time></trkpt><trkpt lat="45.0026782" lon="7.9999966"><ele>220.0</ele><time>2026-04-10T10:31:42.843Z</time></trkpt><trkpt lat="45.0025724" lon="8.000067"><ele>220.0</ele><time>2026-04-10T10:31:43.842Z</time></trkpt><trkpt lat="45.0024768" lon="8.0001762"><ele>221.75</ele><time>2026-04-10T10:31:44.843Z</time></trkpt><trkpt lat="45.0023911" lon="8.0003025"><ele>223.5</ele><time>2026-04-10T10:31:45.843Z</time></trkpt><trkpt lat="45.0023067" lon="8.0004441"><ele>225.25</ele><time>2026-04-10T10:31:46.843Z</time></trkpt><trkpt lat="45.0022335" lon="8.0006153"><ele>227.0</ele><time>2026-04-10T10:31:47.842Z</time></trkpt><trkpt lat="45.0021452" lon="8.000761"><ele>223.75</ele><time>2026-04-10T10:31:48.843Z</time></trkpt><trkpt lat="45.0020674" lon="8.0009135"><ele>220.5</ele><time>2026-04-10T10:31:49.845Z</time></trkpt><trkpt lat="45.0020275" lon="8.0010588"><ele>217.25</ele><time>2026-04-10T10:31:50.843Z</time></trkpt><trkpt lat="45.0019885" lon="8.0012114"><ele>214.0</ele><time>2026-04-10T10:31:51.843Z</time></trkpt><trkpt lat="45.0019749" lon="8.0013799"><ele>214.0</ele><time>2026-04-10T10:31:52.842Z</time></trkpt><trkpt lat="45.0019899" lon="8.0015522"><ele>214.0</ele><time>2026-04-10T10:31:53.843Z</time></trkpt><trkpt lat="45.0020234" lon="8.001725"><ele>214.0</ele><time>2026-04-10T10:31:54.843Z</time></trkpt><trkpt lat="45.0020642" lon="8.0019017"><ele>214.0</ele><time>2026-04-10T10:31:55.844Z</time></trkpt><trkpt lat="45.0021077" lon="8.002085"><ele>214.0</ele><time>2026-04-10T10:31:56.843Z</time></trkpt><trkpt lat="45.0021446" lon="8.002266"><ele>214.0</ele><time>2026-04-10T10:31:57.843Z</time></trkpt><trkpt lat="45.0021812" lon="8.0024505"><ele>214.0</ele><time>2026-04-10T10:31:58.844Z</time></trkpt><trkpt lat="45.0022226" lon="8.0026399"><ele>214.0</ele><time>2026-04-10T10:31:59.843Z</time></trkpt><trkpt lat="45.0022631" lon="8.0028293"><ele>214.0</ele><time>2026-04-10T10:32:00.844Z</time></trkpt><trkpt lat="45.0023085" lon="8.003017"><ele>214.0</ele><time>2026-04-10T10:32:01.842Z</time></trkpt><trkpt lat="45.0023571" lon="8.0032041"><ele>214.0</ele><time>2026-04-10T10:32:02.842Z</time></trkpt><trkpt lat="45.0024042" lon="8.0033829"><ele>214.0</ele><time>2026-04-10T10:32:03.842Z</time></trkpt><trkpt lat="45.0024479" lon="8.0035565"><ele>214.75</ele><time>2026-04-10T10:32:04.843Z</time></trkpt><trkpt lat="45.0024906" lon="8.0037333"><ele>215.5</ele><time>2026-04-10T10:32:05.843Z</time></trkpt><trkpt lat="45.002533" lon="8.0039032"><ele>216.25</ele><time>2026-04-10T10:32:06.844Z</time></trkpt><trkpt lat="45.0025779" lon="8.0040676"><ele>217.0</ele><time>2026-04-10T10:32:07.844Z</time></trkpt><trkpt lat="45.0026084" lon="8.0042257"><ele>212.75</ele><time>2026-04-10T10:32:08.842Z</time></trkpt><trkpt lat="45.0026495" lon="8.0043829"><ele>208.5</ele><time>2026-04-10T10:32:09.842Z</time></trkpt><trkpt lat="45.0026831" lon="8.0045395"><ele>204.25</ele><time>2026-04-10T10:32:10.842Z</time></trkpt><trkpt lat="45.0027213" lon="8.0046801"><ele>200.0</ele><time>2026-04-10T10:32:11.844Z</time></trkpt><trkpt lat="45.0027662" lon="8.0048254"><ele>200.0</ele><time>2026-04-10T10:32:12.845Z</time></trkpt><trkpt lat="45.0028059" lon="8.0049567"><ele>200.0</ele><time>2026-04-10T10:32:13.843Z</time></trkpt><trkpt lat="45.0028405" lon="8.0050904"><ele>200.0</ele><time>2026-04-10T10:32:14.843Z</time></trkpt><trkpt lat="45.0028778" lon="8.0052229"><ele>200.0</ele><time>2026-04-10T10:32:15.843Z</time></trkpt><trkpt lat="45.0029107" lon="8.0053536"><ele>200.0</ele><time>2026-04-10T10:32:16.843Z</time></trkpt><trkpt lat="45.0029398" lon="8.0054775"><ele>199.00000000000003</ele><time>2026-04-10T10:32:17.844Z</time></trkpt><trkpt lat="45.0029731" lon="8.0055965"><ele>198.0</ele><time>2026-04-10T10:32:18.843Z</time></trkpt><trkpt lat="45.0030048" lon="8.0057073"><ele>197.0</ele><time>2026-04-10T10:32:19.842Z</time></trkpt><trkpt lat="45.0030302" lon="8.0058131"><ele>196.0</ele><time>2026-04-10T10:32:20.844Z</time></trkpt><trkpt lat="45.0030443" lon="8.005928"><ele>195.00000000000003</ele><time>2026-04-10T10:32:21.844Z</time></trkpt><trkpt lat="45.0030565" lon="8.006039"><ele>194.0</ele><time>2026-04-10T10:32:22.843Z</time></trkpt><trkpt lat="45.0030491" lon="8.0061555"><ele>193.83333333333334</ele><time>2026-04-10T10:32:23.842Z</time></trkpt><trkpt lat="45.0030194" lon="8.0062585"><ele>193.66666666666669</ele><time>2026-04-10T10:32:24.842Z</time></trkpt><trkpt lat="45.0029731" lon="8.0063335"><ele>193.5</ele><time>2026-04-10T10:32:25.844Z</time></trkpt><trkpt lat="45.0029024" lon="8.0064033"><ele>193.33333333333331</ele><time>2026-04-10T10:32:26.843Z</time></trkpt><trkpt lat="45.0028334" lon="8.0064577"><ele>193.16666666666666</ele><time>2026-04-10T10:32:27.844Z</time></trkpt><trkpt lat="45.0027735" lon="8.006502"><ele>193.0</ele><time>2026-04-10T10:32:28.842Z</time></trkpt><trkpt lat="45.002706" lon="8.0065586"><ele>192.99999999999997</ele><time>2026-04-10T10:32:29.844Z</time></trkpt><trkpt lat="45.0026336" lon="8.0066137"><ele>193.0</ele><time>2026-04-10T10:32:30.843Z</time></trkpt><trkpt lat="45.0025548" lon="8.0066792"><ele>193.0</ele><time>2026-04-10T10:32:31.843Z</time></trkpt><trkpt lat="45.0024879" lon="8.0067274"><ele>193.0</ele><time>2026-04-10T10:32:32.842Z</time></trkpt><trkpt lat="45.0024192" lon="8.006775"><ele>192.99999999999997</ele><time>2026-04-10T10:32:33.844Z</time></trkpt><trkpt lat="45.0023587" lon="8.006823"><ele>193.0</ele><time>2026-04-10T10:32:34.842Z</time></trkpt><trkpt lat="45.0022867" lon="8.0068739"><ele>192.99999999999997</ele><time>2026-04-10T10:32:35.843Z</time></trkpt><trkpt lat="45.0022238" lon="8.0069237"><ele>193.0</ele><time>2026-04-10T10:32:36.844Z</time></trkpt><trkpt lat="45.0021643" lon="8.0069737"><ele>193.0</ele><time>2026-04-10T10:32:37.843Z</time></trkpt><trkpt lat="45.0020922" lon="8.0070205"><ele>193.0</ele><time>2026-04-10T10:32:38.843Z</time></trkpt><trkpt lat="45.0020288" lon="8.0070563"><ele>192.99999999999997</ele><time>2026-04-10T10:32:39.842Z</time></trkpt><trkpt lat="45.0019649" lon="8.0070912"><ele>193.0</ele><time>2026-04-10T10:32:40.844Z</time></trkpt><trkpt lat="45.0018621" lon="8.0071901"><ele>193.0</ele><time>2026-04-10T10:32:42.842Z</time></trkpt><trkpt lat="45.0018018" lon="8.0072353"><ele>193.0</ele><time>2026-04-10T10:32:43.843Z</time></trkpt><trkpt lat="45.0016982" lon="8.0073317"><ele>193.0</ele><time>2026-04-10T10:32:45.843Z</time></trkpt><trkpt lat="45.0015874" lon="8.0074134"><ele>193.0</ele><time>2026-04-10T10:32:47.843Z</time></trkpt><trkpt lat="45.0015312" lon="8.0074672"><ele>193.0</ele><time>2026-04-10T10:32:48.842Z</time></trkpt><trkpt lat="45.0014739" lon="8.0075172"><ele>193.99999999999997</ele><time>2026-04-10T10:32:49.843Z</time></trkpt><trkpt lat="45.0014136" lon="8.0075719"><ele>195.0</ele><time>2026-04-10T10:32:50.843Z</time></trkpt><trkpt lat="45.0013576" lon="8.0076238"><ele>196.0</ele><time>2026-04-10T10:32:51.843Z</time></trkpt><trkpt lat="45.0012985" lon="8.0076887"><ele>197.0</ele><time>2026-04-10T10:32:52.843Z</time></trkpt><trkpt lat="45.0012381" lon="8.0077517"><ele>197.99999999999997</ele><time>2026-04-10T10:32:53.842Z</time></trkpt><trkpt lat="45.0011647" lon="8.0078205"><ele>199.0</ele><time>2026-04-10T10:32:54.843Z</time></trkpt><trkpt lat="45.0011014" lon="8.0078815"><ele>199.0</ele><time>2026-04-10T10:32:55.843Z</time></trkpt><trkpt lat="45.0010476" lon="8.0079357"><ele>199.0</ele><time>2026-04-10T10:32:56.842Z</time></trkpt><trkpt lat="45.0009844" lon="8.0079914"><ele>199.0</ele><time>2026-04-10T10:32:57.842Z</time></trkpt><trkpt lat="45.0009043" lon="8.0080659"><ele>199.0</ele><time>2026-04-10T10:32:58.843Z</time></trkpt><trkpt lat="45.0007897" lon="8.0081585"><ele>199.0</ele><time>2026-04-10T10:33:00.843Z</time></trkpt><trkpt lat="45.0007098" lon="8.0082"><ele>198.28571428571428</ele><time>2026-04-10T10:33:01.843Z</time></trkpt><trkpt lat="45.0006334" lon="8.0082183"><ele>197.57142857142856</ele><time>2026-04-10T10:33:02.842Z</time></trkpt><trkpt lat="45.0005539" lon="8.008221"><ele>196.85714285714283</ele><time>2026-04-10T10:33:03.843Z</time></trkpt><trkpt lat="45.0004788" lon="8.0082263"><ele>196.14285714285714</ele><time>2026-04-10T10:33:04.842Z</time></trkpt><trkpt lat="45.0004031" lon="8.0082226"><ele>195.42857142857144</ele><time>2026-04-10T10:33:05.844Z</time></trkpt><trkpt lat="45.0003396" lon="8.0082226"><ele>194.7142857142857</ele><time>2026-04-10T10:33:06.843Z</time></trkpt><trkpt lat="45.0002759" lon="8.0082342"><ele>194.0</ele><time>2026-04-10T10:33:07.843Z</time></trkpt><trkpt lat="45.0002128" lon="8.0082491"><ele>194.0</ele><time>2026-04-10T10:33:08.842Z</time></trkpt><trkpt lat="45.0001534" lon="8.0082925"><ele>194.0</ele><time>2026-04-10T10:33:09.842Z</time></trkpt><trkpt lat="45.0000966" lon="8.0083499"><ele>194.0</ele><time>2026-04-10T10:33:10.843Z</time></trkpt><trkpt lat="45.0000553" lon="8.0084188"><ele>194.0</ele><time>2026-04-10T10:33:11.842Z</time></trkpt><trkpt lat="44.9999997" lon="8.0085027"><ele>194.0</ele><time>2026-04-10T10:33:12.844Z</time></trkpt><trkpt lat="44.9999492" lon="8.008576"><ele>194.0</ele><time>2026-04-10T10:33:13.843Z</time></trkpt><trkpt lat="44.9999032" lon="8.0086578"><ele>194.0</ele><time>2026-04-10T10:33:14.843Z</time></trkpt><trkpt lat="44.9998593" lon="8.0087389"><ele>194.33333333333334</ele><time>2026-04-10T10:33:15.843Z</time></trkpt><trkpt lat="44.9998123" lon="8.0088213"><ele>194.66666666666669</ele><time>2026-04-10T10:33:16.842Z</time></trkpt><trkpt lat="44.9997238" lon="8.0089679"><ele>195.0</ele><time>2026-04-10T10:33:18.843Z</time></trkpt><trkpt lat="44.9996683" lon="8.009044"><ele>195.33333333333331</ele><time>2026-04-10T10:33:19.843Z</time></trkpt><trkpt lat="44.9996169" lon="8.0091283"><ele>195.66666666666666</ele><time>2026-04-10T10:33:20.843Z</time></trkpt><trkpt lat="44.999572" lon="8.0092199"><ele>196.0</ele><time>2026-04-10T10:33:21.843Z</time></trkpt><trkpt lat="44.9995307" lon="8.0093107"><ele>196.28571428571428</ele><time>2026-04-10T10:33:22.843Z</time></trkpt><trkpt lat="44.9994852" lon="8.0093969"><ele>196.57142857142856</ele><time>2026-04-10T10:33:23.844Z</time></trkpt><trkpt lat="44.9994484" lon="8.0094745"><ele>196.85714285714286</ele><time>2026-04-10T10:33:24.842Z</time></trkpt><trkpt lat="44.9994149" lon="8.0095612"><ele>197.14285714285714</ele><time>2026-04-10T10:33:25.843Z</time></trkpt><trkpt lat="44.9993801" lon="8.0096562"><ele>197.42857142857142</ele><time>2026-04-10T10:33:26.843Z</time></trkpt><trkpt lat="44.9993513" lon="8.0097566"><ele>197.71428571428572</ele><time>2026-04-10T10:33:27.843Z</time></trkpt><trkpt lat="44.9993137" lon="8.0098465"><ele>198.0</ele><time>2026-04-10T10:33:28.842Z</time></trkpt><trkpt lat="44.9992849" lon="8.0099442"><ele>198.0</ele><time>2026-04-10T10:33:29.843Z</time></trkpt><trkpt lat="44.999259" lon="8.0100521"><ele>198.0</ele><time>2026-04-10T10:33:30.842Z</time></trkpt><trkpt lat="44.9992312" lon="8.0101435"><ele>198.0</ele><time>2026-04-10T10:33:31.843Z</time></trkpt><trkpt lat="44.9991957" lon="8.010233"><ele>198.0</ele><time>2026-04-10T10:33:32.842Z</time></trkpt><trkpt lat="44.9991793" lon="8.0103258"><ele>198.0</ele><time>2026-04-10T10:33:33.843Z</time></trkpt><trkpt lat="44.9991645" lon="8.0104179"><ele>198.0</ele><time>2026-04-10T10:33:34.842Z</time></trkpt><trkpt lat="44.9991518" lon="8.0105185"><ele>198.0</ele><time>2026-04-10T10:33:35.844Z</time></trkpt><trkpt lat="44.9991456" lon="8.0106157"><ele>198.2857142857143</ele><time>2026-04-10T10:33:36.842Z</time></trkpt><trkpt lat="44.9991489" lon="8.0107112"><ele>198.57142857142856</ele><time>2026-04-10T10:33:37.843Z</time></trkpt><trkpt lat="44.9991552" lon="8.0108127"><ele>198.85714285714286</ele><time>2026-04-10T10:33:38.842Z</time></trkpt><trkpt lat="44.9991772" lon="8.0108995"><ele>199.14285714285717</ele><time>2026-04-10T10:33:39.843Z</time></trkpt><trkpt lat="44.9991899" lon="8.0109877"><ele>199.42857142857144</ele><time>2026-04-10T10:33:40.843Z</time></trkpt><trkpt lat="44.999205" lon="8.0110799"><ele>199.71428571428572</ele><time>2026-04-10T10:33:41.843Z</time></trkpt><trkpt lat="44.9992252" lon="8.0111805"><ele>200.0</ele><time>2026-04-10T10:33:42.842Z</time></trkpt><trkpt lat="44.9992418" lon="8.0112725"><ele>200.00000000000003</ele><time>2026-04-10T10:33:43.843Z</time></trkpt><trkpt lat="44.9992568" lon="8.0113638"><ele>200.0</ele><time>2026-04-10T10:33:44.842Z</time></trkpt><trkpt lat="44.9992752" lon="8.0114663"><ele>200.0</ele><time>2026-04-10T10:33:45.843Z</time></trkpt><trkpt lat="44.9992876" lon="8.0115565"><ele>200.0</ele><time>2026-04-10T10:33:46.843Z</time></trkpt><trkpt lat="44.9992974" lon="8.0116465"><ele>200.00000000000003</ele><time>2026-04-10T10:33:47.843Z</time></trkpt><trkpt lat="44.9993024" lon="8.0117427"><ele>200.0</ele><time>2026-04-10T10:33:48.843Z</time></trkpt><trkpt lat="44.9993099" lon="8.0119246"><ele>200.85714285714286</ele><time>2026-04-10T10:33:50.842Z</time></trkpt><trkpt lat="44.9993091" lon="8.01202"><ele>201.71428571428572</ele><time>2026-04-10T10:33:51.842Z</time></trkpt><trkpt lat="44.9993091" lon="8.0121131"><ele>202.57142857142856</ele><time>2026-04-10T10:33:52.843Z</time></trkpt><trkpt lat="44.9993098" lon="8.0122112"><ele>203.42857142857144</ele><time>2026-04-10T10:33:53.843Z</time></trkpt><trkpt lat="44.9993177" lon="8.0123204"><ele>204.28571428571428</ele><time>2026-04-10T10:33:54.844Z</time></trkpt><trkpt lat="44.9993247" lon="8.0124129"><ele>205.14285714285714</ele><time>2026-04-10T10:33:55.843Z</time></trkpt><trkpt lat="44.9993267" lon="8.0125034"><ele>206.0</ele><time>2026-04-10T10:33:56.842Z</time></trkpt><trkpt lat="44.9993215" lon="8.0125951"><ele>208.4</ele><time>2026-04-10T10:33:57.842Z</time></trkpt><trkpt lat="44.999321" lon="8.0126878"><ele>210.8</ele><time>2026-04-10T10:33:58.843Z</time></trkpt><trkpt lat="44.9993304" lon="8.0128803"><ele>213.20000000000002</ele><time>2026-04-10T10:34:00.842Z</time></trkpt><trkpt lat="44.9993399" lon="8.0129729"><ele>215.60000000000002</ele><time>2026-04-10T10:34:01.843Z</time></trkpt><trkpt lat="44.9993404" lon="8.0131457"><ele>218.0</ele><time>2026-04-10T10:34:03.843Z</time></trkpt><trkpt lat="44.9993589" lon="8.0133157"><ele>218.50000000000003</ele><time>2026-04-10T10:34:05.843Z</time></trkpt><trkpt lat="44.999351" lon="8.0134056"><ele>219.0</ele><time>2026-04-10T10:34:06.843Z</time></trkpt><trkpt lat="44.9993465" lon="8.0135645"><ele>219.5</ele><time>2026-04-10T10:34:08.843Z</time></trkpt><trkpt lat="44.9993407" lon="8.0137185"><ele>220.0</ele><time>2026-04-10T10:34:10.843Z</time></trkpt><trkpt lat="44.9992846" lon="8.0138013"><ele>220.50000000000003</ele><time>2026-04-10T10:34:12.843Z</time></trkpt><trkpt lat="44.9992197" lon="8.0138341"><ele>221.0</ele><time>2026-04-10T10:34:14.844Z</time></trkpt><trkpt lat="44.9991648" lon="8.0139069"><ele>218.33333333333334</ele><time>2026-04-10T10:34:16.842Z</time></trkpt><trkpt lat="44.9991168" lon="8.0139758"><ele>215.66666666666669</ele><time>2026-04-10T10:34:18.842Z</time></trkpt><trkpt lat="44.9990317" lon="8.0140407"><ele>213.0</ele><time>2026-04-10T10:34:20.842Z</time></trkpt><trkpt lat="44.9989792" lon="8.0141686"><ele>210.33333333333331</ele><time>2026-04-10T10:34:22.843Z</time></trkpt><trkpt lat="44.9989459" lon="8.0142585"><ele>207.66666666666666</ele><time>2026-04-10T10:34:23.844Z</time></trkpt><trkpt lat="44.9989163" lon="8.01434"><ele>205.0</ele><time>2026-04-10T10:34:24.842Z</time></trkpt><trkpt lat="44.9988882" lon="8.0144371"><ele>204.99999999999997</ele><time>2026-04-10T10:34:25.842Z</time></trkpt><trkpt lat="44.9988625" lon="8.0145231"><ele>205.0</ele><time>2026-04-10T10:34:26.842Z</time></trkpt><trkpt lat="44.9988323" lon="8.0146273"><ele>205.0</ele><time>2026-04-10T10:34:27.844Z</time></trkpt><trkpt lat="44.998801" lon="8.0147367"><ele>205.0</ele><time>2026-04-10T10:34:28.842Z</time></trkpt><trkpt lat="44.9987946" lon="8.0148547"><ele>204.99999999999997</ele><time>2026-04-10T10:34:29.843Z</time></trkpt><trkpt lat="44.998776" lon="8.0149879"><ele>205.0</ele><time>2026-04-10T10:34:30.843Z</time></trkpt><trkpt lat="44.9987566" lon="8.0151143"><ele>204.16666666666666</ele><time>2026-04-10T10:34:31.843Z</time></trkpt><trkpt lat="44.998741" lon="8.0152397"><ele>203.33333333333331</ele><time>2026-04-10T10:34:32.842Z</time></trkpt><trkpt lat="44.9987323" lon="8.0153597"><ele>202.5</ele><time>2026-04-10T10:34:33.844Z</time></trkpt><trkpt lat="44.9987082" lon="8.0154748"><ele>201.66666666666669</ele><time>2026-04-10T10:34:34.843Z</time></trkpt><trkpt lat="44.9986922" lon="8.0155893"><ele>200.83333333333334</ele><time>2026-04-10T10:34:35.844Z</time></trkpt><trkpt lat="44.9986873" lon="8.0157102"><ele>200.0</ele><time>2026-04-10T10:34:36.843Z</time></trkpt><trkpt lat="44.99867" lon="8.0158299"><ele>198.66666666666669</ele><time>2026-04-10T10:34:37.844Z</time></trkpt><trkpt lat="44.9986593" lon="8.0159481"><ele>197.33333333333334</ele><time>2026-04-10T10:34:38.844Z</time></trkpt><trkpt lat="44.998654" lon="8.0160681"><ele>196.0</ele><time>2026-04-10T10:34:39.842Z</time></trkpt><trkpt lat="44.9986534" lon="8.0161853"><ele>194.66666666666669</ele><time>2026-04-10T10:34:40.842Z</time></trkpt><trkpt lat="44.9986481" lon="8.016304"><ele>193.33333333333334</ele><time>2026-04-10T10:34:41.844Z</time></trkpt><trkpt lat="44.9986466" lon="8.0164107"><ele>192.0</ele><time>2026-04-10T10:34:42.843Z</time></trkpt><trkpt lat="44.9986418" lon="8.0165298"><ele>192.0</ele><time>2026-04-10T10:34:43.842Z</time></trkpt><trkpt lat="44.9986361" lon="8.0166515"><ele>192.0</ele><time>2026-04-10T10:34:44.842Z</time></trkpt><trkpt lat="44.9986362" lon="8.0167733"><ele>192.0</ele><time>2026-04-10T10:34:45.841Z</time></trkpt><trkpt lat="44.9986352" lon="8.0168874"><ele>192.0</ele><time>2026-04-10T10:34:46.843Z</time></trkpt><trkpt lat="44.998629" lon="8.0170005"><ele>192.0</ele><time>2026-04-10T10:34:47.843Z</time></trkpt><trkpt lat="44.9986337" lon="8.0171091"><ele>192.0</ele><time>2026-04-10T10:34:48.842Z</time></trkpt><trkpt lat="44.9986316" lon="8.0172148"><ele>191.5</ele><time>2026-04-10T10:34:49.844Z</time></trkpt><trkpt lat="44.9986258" lon="8.0173076"><ele>191.0</ele><time>2026-04-10T10:34:50.842Z</time></trkpt><trkpt lat="44.9986216" lon="8.0173975"><ele>190.5</ele><time>2026-04-10T10:34:51.842Z</time></trkpt><trkpt lat="44.9986224" lon="8.0174883"><ele>190.0</ele><time>2026-04-10T10:34:52.842Z</time></trkpt><trkpt lat="44.9986171" lon="8.017666"><ele>189.5</ele><time>2026-04-10T10:34:54.843Z</time></trkpt><trkpt lat="44.9986188" lon="8.0177593"><ele>189.0</ele><time>2026-04-10T10:34:55.843Z</time></trkpt><trkpt lat="44.9986085" lon="8.0179327"><ele>188.71428571428572</ele><time>2026-04-10T10:34:57.842Z</time></trkpt><trkpt lat="44.998607" lon="8.0180293"><ele>188.42857142857144</ele><time>2026-04-10T10:34:58.843Z</time></trkpt><trkpt lat="44.9986001" lon="8.0181187"><ele>188.14285714285714</ele><time>2026-04-10T10:34:59.843Z</time></trkpt><trkpt lat="44.9985913" lon="8.0182101"><ele>187.85714285714286</ele><time>2026-04-10T10:35:00.842Z</time></trkpt><trkpt lat="44.9985784" lon="8.0183032"><ele>187.57142857142858</ele><time>2026-04-10T10:35:01.842Z</time></trkpt><trkpt lat="44.9985701" lon="8.0183982"><ele>187.28571428571428</ele><time>2026-04-10T10:35:02.843Z</time></trkpt><trkpt lat="44.9985617" lon="8.0184922"><ele>187.0</ele><time>2026-04-10T10:35:03.842Z</time></trkpt><trkpt lat="44.9985325" lon="8.0186564"><ele>187.0</ele><time>2026-04-10T10:35:05.844Z</time></trkpt><trkpt lat="44.9985169" lon="8.0187437"><ele>187.0</ele><time>2026-04-10T10:35:06.842Z</time></trkpt><trkpt lat="44.9984996" lon="8.0188304"><ele>187.0</ele><time>2026-04-10T10:35:07.844Z</time></trkpt><trkpt lat="44.9984901" lon="8.0189201"><ele>187.0</ele><time>2026-04-10T10:35:08.843Z</time></trkpt><trkpt lat="44.9984827" lon="8.0190114"><ele>187.0</ele><time>2026-04-10T10:35:09.843Z</time></trkpt><trkpt lat="44.9984805" lon="8.0191931"><ele>187.0</ele><time>2026-04-10T10:35:11.842Z</time></trkpt><trkpt lat="44.9984826" lon="8.019287"><ele>187.0</ele><time>2026-04-10T10:35:12.843Z</time></trkpt><trkpt lat="44.9985046" lon="8.0194598"><ele>187.0</ele><time>2026-04-10T10:35:14.842Z</time></trkpt><trkpt lat="44.998521" lon="8.0196274"><ele>187.0</ele><time>2026-04-10T10:35:16.843Z</time></trkpt><trkpt lat="44.9985421" lon="8.0198008"><ele>187.0</ele><time>2026-04-10T10:35:18.843Z</time></trkpt><trkpt lat="44.9985488" lon="8.0198934"><ele>187.0</ele><time>2026-04-10T10:35:19.842Z</time></trkpt><trkpt lat="44.9985584" lon="8.0199898"><ele>187.0</ele><time>2026-04-10T10:35:20.843Z</time></trkpt><trkpt lat="44.9985511" lon="8.0201713"><ele>187.0</ele><time>2026-04-10T10:35:22.843Z</time></trkpt><trkpt lat="44.9985301" lon="8.0203435"><ele>187.0</ele><time>2026-04-10T10:35:24.843Z</time></trkpt><trkpt lat="44.9985174" lon="8.020431"><ele>187.0</ele><time>2026-04-10T10:35:25.843Z</time></trkpt><trkpt lat="44.998499" lon="8.0205188"><ele>187.0</ele><time>2026-04-10T10:35:26.842Z</time></trkpt><trkpt lat="44.9984841" lon="8.0206069"><ele>187.0</ele><time>2026-04-10T10:35:27.842Z</time></trkpt><trkpt lat="44.998458" lon="8.0207695"><ele>187.0</ele><time>2026-04-10T10:35:29.843Z</time></trkpt><trkpt lat="44.9984373" lon="8.0209128"><ele>187.0</ele><time>2026-04-10T10:35:31.844Z</time></trkpt><trkpt lat="44.9984023" lon="8.0210441"><ele>187.0</ele><time>2026-04-10T10:35:33.844Z</time></trkpt><trkpt lat="44.9983508" lon="8.0210964"><ele>187.0</ele><time>2026-04-10T10:35:35.843Z</time></trkpt><trkpt lat="44.9982888" lon="8.0210692"><ele>187.0</ele><time>2026-04-10T10:35:38.843Z</time></trkpt><trkpt lat="44.9982146" lon="8.0210427"><ele>187.0</ele><time>2026-04-10T10:36:20.843Z</time></trkpt><trkpt lat="44.998117" lon="8.0210158"><ele>187.0</ele><time>2026-04-10T10:36:23.842Z</time></trkpt><trkpt lat="44.9980323" lon="8.0209965"><ele>187.0</ele><time>2026-04-10T10:36:25.842Z</time></trkpt><trkpt lat="44.9979439" lon="8.0209883"><ele>187.0</ele><time>2026-04-10T10:36:27.843Z</time></trkpt><trkpt lat="44.9978576" lon="8.0209778"><ele>187.0</ele><time>2026-04-10T10:36:29.843Z</time></trkpt><trkpt lat="44.9977733" lon="8.0209731"><ele>187.0</ele><time>2026-04-10T10:36:31.842Z</time></trkpt><trkpt lat="44.9976862" lon="8.0209768"><ele>187.0</ele><time>2026-04-10T10:36:33.843Z</time></trkpt><trkpt lat="44.9975822" lon="8.0209682"><ele>188.75</ele><time>2026-04-10T10:36:35.843Z</time></trkpt><trkpt lat="44.9974651" lon="8.0209745"><ele>190.5</ele><time>2026-04-10T10:36:37.843Z</time></trkpt><trkpt lat="44.9973476" lon="8.0209729"><ele>192.25</ele><time>2026-04-10T10:36:39.843Z</time></trkpt><trkpt lat="44.9972342" lon="8.0209786"><ele>194.0</ele><time>2026-04-10T10:36:41.842Z</time></trkpt><trkpt lat="44.9971094" lon="8.0209903"><ele>194.00000000000003</ele><time>2026-04-10T10:36:43.842Z</time></trkpt><trkpt lat="44.9970416" lon="8.0209853"><ele>194.0</ele><time>2026-04-10T10:36:44.842Z</time></trkpt><trkpt lat="44.9969148" lon="8.0209944"><ele>194.0</ele><time>2026-04-10T10:36:46.842Z</time></trkpt><trkpt lat="44.9968447" lon="8.0209958"><ele>194.0</ele><time>2026-04-10T10:36:47.841Z</time></trkpt><trkpt lat="44.9967784" lon="8.0209997"><ele>194.00000000000003</ele><time>2026-04-10T10:36:48.843Z</time></trkpt><trkpt lat="44.9967137" lon="8.0210061"><ele>194.0</ele><time>2026-04-10T10:36:49.843Z</time></trkpt><trkpt lat="44.996647" lon="8.0210095"><ele>193.42857142857142</ele><time>2026-04-10T10:36:50.841Z</time></trkpt><trkpt lat="44.9965746" lon="8.0210128"><ele>192.85714285714286</ele><time>2026-04-10T10:36:51.842Z</time></trkpt><trkpt lat="44.9965055" lon="8.02102"><ele>192.28571428571428</ele><time>2026-04-10T10:36:52.843Z</time></trkpt><trkpt lat="44.9964319" lon="8.0210269"><ele>191.71428571428572</ele><time>2026-04-10T10:36:53.843Z</time></trkpt><trkpt lat="44.996364" lon="8.0210334"><ele>191.14285714285717</ele><time>2026-04-10T10:36:54.842Z</time></trkpt><trkpt lat="44.9962966" lon="8.0210375"><ele>190.57142857142858</ele><time>2026-04-10T10:36:55.843Z</time></trkpt><trkpt lat="44.9962322" lon="8.0210342"><ele>190.0</ele><time>2026-04-10T10:36:56.843Z</time></trkpt><trkpt lat="44.9961633" lon="8.0210415"><ele>190.0</ele><time>2026-04-10T10:36:57.843Z</time></trkpt><trkpt lat="44.996099" lon="8.0210515"><ele>190.0</ele><time>2026-04-10T10:36:58.843Z</time></trkpt><trkpt lat="44.9960317" lon="8.0210555"><ele>190.0</ele><time>2026-04-10T10:36:59.841Z</time></trkpt><trkpt lat="44.9959673" lon="8.0210621"><ele>190.0</ele><time>2026-04-10T10:37:00.843Z</time></trkpt><trkpt lat="44.9958977" lon="8.0210701"><ele>190.0</ele><time>2026-04-10T10:37:01.842Z</time></trkpt><trkpt lat="44.9958289" lon="8.0210715"><ele>190.0</ele><time>2026-04-10T10:37:02.843Z</time></trkpt><trkpt lat="44.9957577" lon="8.0210711"><ele>190.0</ele><time>2026-04-10T10:37:03.842Z</time></trkpt><trkpt lat="44.995683" lon="8.0210752"><ele>190.0</ele><time>2026-04-10T10:37:04.843Z</time></trkpt><trkpt lat="44.9956153" lon="8.0210817"><ele>190.0</ele><time>2026-04-10T10:37:05.842Z</time></trkpt><trkpt lat="44.9955469" lon="8.021085"><ele>190.0</ele><time>2026-04-10T10:37:06.843Z</time></trkpt><trkpt lat="44.9954832" lon="8.0210984"><ele>190.0</ele><time>2026-04-10T10:37:07.844Z</time></trkpt><trkpt lat="44.9954135" lon="8.0210954"><ele>190.0</ele><time>2026-04-10T10:37:08.843Z</time></trkpt><trkpt lat="44.9953426" lon="8.0210964"><ele>190.0</ele><time>2026-04-10T10:37:09.843Z</time></trkpt><trkpt lat="44.9952795" lon="8.0210969"><ele>190.0</ele><time>2026-04-10T10:37:10.842Z</time></trkpt><trkpt lat="44.9951637" lon="8.0210891"><ele>190.0</ele><time>2026-04-10T10:37:12.843Z</time></trkpt><trkpt lat="44.9950749" lon="8.0210859"><ele>190.0</ele><time>2026-04-10T10:37:14.843Z</time></trkpt><trkpt lat="44.9950108" lon="8.0211564"><ele>190.0</ele><time>2026-04-10T10:37:17.841Z</time></trkpt><trkpt lat="44.9949775" lon="8.0212616"><ele>190.0</ele><time>2026-04-10T10:37:19.842Z</time></trkpt><trkpt lat="44.9949255" lon="8.0213717"><ele>190.0</ele><time>2026-04-10T10:37:21.843Z</time></trkpt><trkpt lat="44.9948793" lon="8.0214745"><ele>190.0</ele><time>2026-04-10T10:37:23.843Z</time></trkpt><trkpt lat="44.9948416" lon="8.0215845"><ele>189.8</ele><time>2026-04-10T10:37:25.842Z</time></trkpt><trkpt lat="44.9948139" lon="8.0217052"><ele>189.6</ele><time>2026-04-10T10:37:27.842Z</time></trkpt><trkpt lat="44.9947781" lon="8.0218249"><ele>189.39999999999998</ele><time>2026-04-10T10:37:29.842Z</time></trkpt><trkpt lat="44.99474" lon="8.0219426"><ele>189.2</ele><time>2026-04-10T10:37:31.842Z</time></trkpt><trkpt lat="44.994696" lon="8.0220644"><ele>189.0</ele><time>2026-04-10T10:37:33.844Z</time></trkpt><trkpt lat="44.9946595" lon="8.022192"><ele>189.0</ele><time>2026-04-10T10:37:35.844Z</time></trkpt><trkpt lat="44.9946249" lon="8.0223156"><ele>189.0</ele><time>2026-04-10T10:37:37.843Z</time></trkpt><trkpt lat="44.9945831" lon="8.0224402"><ele>189.0</ele><time>2026-04-10T10:37:39.842Z</time></trkpt><trkpt lat="44.99454" lon="8.022554"><ele>189.0</ele><time>2026-04-10T10:37:41.843Z</time></trkpt><trkpt lat="44.994494" lon="8.0226711"><ele>189.0</ele><time>2026-04-10T10:37:43.843Z</time></trkpt><trkpt lat="44.994454" lon="8.0227985"><ele>190.6</ele><time>2026-04-10T10:37:45.841Z</time></trkpt><trkpt lat="44.9944142" lon="8.0229253"><ele>192.2</ele><time>2026-04-10T10:37:47.842Z</time></trkpt><trkpt lat="44.9943776" lon="8.0230553"><ele>193.79999999999998</ele><time>2026-04-10T10:37:49.844Z</time></trkpt><trkpt lat="44.9943384" lon="8.0231976"><ele>195.39999999999998</ele><time>2026-04-10T10:37:51.841Z</time></trkpt><trkpt lat="44.9942995" lon="8.0233247"><ele>197.0</ele><time>2026-04-10T10:37:53.843Z</time></trkpt><trkpt lat="44.9942666" lon="8.023445"><ele>196.0</ele><time>2026-04-10T10:37:55.842Z</time></trkpt><trkpt lat="44.9942325" lon="8.0235754"><ele>195.0</ele><time>2026-04-10T10:37:57.843Z</time></trkpt><trkpt lat="44.9941842" lon="8.0237099"><ele>194.0</ele><time>2026-04-10T10:37:59.842Z</time></trkpt><trkpt lat="44.9941322" lon="8.0238405"><ele>193.0</ele><time>2026-04-10T10:38:01.844Z</time></trkpt><trkpt lat="44.9940916" lon="8.0239639"><ele>192.0</ele><time>2026-04-10T10:38:03.842Z</time></trkpt><trkpt lat="44.9940639" lon="8.0241051"><ele>192.39999999999998</ele><time>2026-04-10T10:38:05.842Z</time></trkpt><trkpt lat="44.9940429" lon="8.0242466"><ele>192.79999999999998</ele><time>2026-04-10T10:38:07.843Z</time></trkpt><trkpt lat="44.9940245" lon="8.0243846"><ele>193.2</ele><time>2026-04-10T10:38:09.843Z</time></trkpt><trkpt lat="44.9940019" lon="8.0245243"><ele>193.6</ele><time>2026-04-10T10:38:11.842Z</time></trkpt><trkpt lat="44.9939875" lon="8.024665"><ele>194.0</ele><time>2026-04-10T10:38:13.843Z</time></trkpt><trkpt lat="44.9939861" lon="8.0248155"><ele>194.0</ele><time>2026-04-10T10:38:15.843Z</time></trkpt><trkpt lat="44.9939803" lon="8.0249589"><ele>194.0</ele><time>2026-04-10T10:38:17.842Z</time></trkpt><trkpt lat="44.9940079" lon="8.025088"><ele>194.0</ele><time>2026-04-10T10:38:19.844Z</time></trkpt><trkpt lat="44.9940313" lon="8.0252291"><ele>194.0</ele><time>2026-04-10T10:38:21.843Z</time></trkpt><trkpt lat="44.9940581" lon="8.0253716"><ele>194.0</ele><time>2026-04-10T10:38:23.842Z</time></trkpt><trkpt lat="44.9940806" lon="8.0255095"><ele>193.6</ele><time>2026-04-10T10:38:25.842Z</time></trkpt><trkpt lat="44.9941048" lon="8.0256399"><ele>193.2</ele><time>2026-04-10T10:38:27.842Z</time></trkpt><trkpt lat="44.9941381" lon="8.0257614"><ele>192.79999999999998</ele><time>2026-04-10T10:38:29.842Z</time></trkpt><trkpt lat="44.9941887" lon="8.0258867"><ele>192.39999999999998</ele><time>2026-04-10T10:38:31.842Z</time></trkpt><trkpt lat="44.9942412" lon="8.0260161"><ele>192.0</ele><time>2026-04-10T10:38:33.842Z</time></trkpt><trkpt lat="44.9942806" lon="8.0261412"><ele>194.8</ele><time>2026-04-10T10:38:35.843Z</time></trkpt><trkpt lat="44.9943286" lon="8.0262627"><ele>197.6</ele><time>2026-04-10T10:38:37.843Z</time></trkpt><trkpt lat="44.9943653" lon="8.0263793"><ele>200.4</ele><time>2026-04-10T10:38:39.843Z</time></trkpt><trkpt lat="44.9943789" lon="8.0265202"><ele>203.20000000000002</ele><time>2026-04-10T10:38:41.844Z</time></trkpt><trkpt lat="44.9943717" lon="8.0266656"><ele>206.0</ele><time>2026-04-10T10:38:43.842Z</time></trkpt><trkpt lat="44.9943708" lon="8.0267936"><ele>206.0</ele><time>2026-04-10T10:38:45.843Z</time></trkpt><trkpt lat="44.9943696" lon="8.0270028"><ele>206.0</ele><time>2026-04-10T10:38:48.842Z</time></trkpt><trkpt lat="44.9943953" lon="8.0271431"><ele>206.0</ele><time>2026-04-10T10:38:50.844Z</time></trkpt><trkpt lat="44.9944322" lon="8.0272785"><ele>206.0</ele><time>2026-04-10T10:38:52.843Z</time></trkpt><trkpt lat="44.9944782" lon="8.0274074"><ele>205.60000000000002</ele><time>2026-04-10T10:38:54.843Z</time></trkpt><trkpt lat="44.9945271" lon="8.0275438"><ele>205.2</ele><time>2026-04-10T10:38:56.844Z</time></trkpt><trkpt lat="44.9945722" lon="8.0276834"><ele>204.8</ele><time>2026-04-10T10:38:58.844Z</time></trkpt><trkpt lat="44.9946042" lon="8.0278113"><ele>204.39999999999998</ele><time>2026-04-10T10:39:00.842Z</time></trkpt><trkpt lat="44.9946379" lon="8.0279472"><ele>204.0</ele><time>2026-04-10T10:39:02.842Z</time></trkpt><trkpt lat="44.9946723" lon="8.0280865"><ele>204.0</ele><time>2026-04-10T10:39:04.841Z</time></trkpt><trkpt lat="44.9947083" lon="8.0282209"><ele>204.0</ele><time>2026-04-10T10:39:06.843Z</time></trkpt><trkpt lat="44.9947501" lon="8.0283531"><ele>204.0</ele><time>2026-04-10T10:39:08.842Z</time></trkpt><trkpt lat="44.9947826" lon="8.0284818"><ele>204.0</ele><time>2026-04-10T10:39:10.842Z</time></trkpt><trkpt lat="44.9948107" lon="8.0286153"><ele>204.0</ele><time>2026-04-10T10:39:12.843Z</time></trkpt><trkpt lat="44.9948346" lon="8.0287545"><ele>203.39999999999998</ele><time>2026-04-10T10:39:14.843Z</time></trkpt><trkpt lat="44.9948597" lon="8.0288944"><ele>202.8</ele><time>2026-04-10T10:39:16.842Z</time></trkpt><trkpt lat="44.9948864" lon="8.0290244"><ele>202.2</ele><time>2026-04-10T10:39:18.843Z</time></trkpt><trkpt lat="44.994913" lon="8.0291516"><ele>201.60000000000002</ele><time>2026-04-10T10:39:20.843Z</time></trkpt><trkpt lat="44.9949335" lon="8.0292803"><ele>201.0</ele><time>2026-04-10T10:39:22.842Z</time></trkpt><trkpt lat="44.994954" lon="8.0294222"><ele>201.0</ele><time>2026-04-10T10:39:24.843Z</time></trkpt><trkpt lat="44.9949874" lon="8.0295508"><ele>201.0</ele><time>2026-04-10T10:39:26.843Z</time></trkpt><trkpt lat="44.9950116" lon="8.0296826"><ele>201.0</ele><time>2026-04-10T10:39:28.844Z</time></trkpt><trkpt lat="44.9950332" lon="8.0298081"><ele>201.0</ele><time>2026-04-10T10:39:30.844Z</time></trkpt><trkpt lat="44.9950638" lon="8.0299321"><ele>201.0</ele><time>2026-04-10T10:39:32.844Z</time></trkpt><trkpt lat="44.9951081" lon="8.0300217"><ele>201.0</ele><time>2026-04-10T10:39:34.842Z</time></trkpt><trkpt lat="44.9951768" lon="8.0300843"><ele>201.0</ele><time>2026-04-10T10:39:36.844Z</time></trkpt><trkpt lat="44.9952677" lon="8.0301289"><ele>201.0</ele><time>2026-04-10T10:39:38.844Z</time></trkpt><trkpt lat="44.9953546" lon="8.0301602"><ele>201.0</ele><time>2026-04-10T10:39:40.843Z</time></trkpt><trkpt lat="44.9954432" lon="8.0301994"><ele>201.0</ele><time>2026-04-10T10:39:42.842Z</time></trkpt><trkpt lat="44.9955313" lon="8.0302373"><ele>201.0</ele><time>2026-04-10T10:39:44.844Z</time></trkpt><trkpt lat="44.9956392" lon="8.0302825"><ele>201.0</ele><time>2026-04-10T10:39:46.843Z</time></trkpt><trkpt lat="44.9957358" lon="8.0303302"><ele>201.0</ele><time>2026-04-10T10:39:48.842Z</time></trkpt><trkpt lat="44.9958324" lon="8.0303617"><ele>201.0</ele><time>2026-04-10T10:39:50.843Z</time></trkpt><trkpt lat="44.9959294" lon="8.0303809"><ele>201.0</ele><time>2026-04-10T10:39:52.844Z</time></trkpt><trkpt lat="44.9960334" lon="8.0304031"><ele>202.0</ele><time>2026-04-10T10:39:54.842Z</time></trkpt><trkpt lat="44.9961323" lon="8.0304194"><ele>203.0</ele><time>2026-04-10T10:39:56.842Z</time></trkpt><trkpt lat="44.9962403" lon="8.0304176"><ele>204.0</ele><time>2026-04-10T10:39:58.843Z</time></trkpt><trkpt lat="44.9963336" lon="8.0304191"><ele>205.0</ele><time>2026-04-10T10:40:00.842Z</time></trkpt><trkpt lat="44.9964257" lon="8.0304201"><ele>206.0</ele><time>2026-04-10T10:40:02.842Z</time></trkpt><trkpt lat="44.996526" lon="8.0304244"><ele>205.99999999999997</ele><time>2026-04-10T10:40:04.842Z</time></trkpt><trkpt lat="44.9965896" lon="8.0304699"><ele>206.0</ele><time>2026-04-10T10:40:06.842Z</time></trkpt><trkpt lat="44.9966196" lon="8.0305516"><ele>206.0</ele><time>2026-04-10T10:40:08.843Z</time></trkpt><trkpt lat="44.9966292" lon="8.0306446"><ele>206.0</ele><time>2026-04-10T10:40:10.842Z</time></trkpt><trkpt lat="44.9966319" lon="8.0307462"><ele>206.0</ele><time>2026-04-10T10:40:12.843Z</time></trkpt><trkpt lat="44.9966307" lon="8.0308471"><ele>205.99999999999997</ele><time>2026-04-10T10:40:14.842Z</time></trkpt><trkpt lat="44.9966227" lon="8.030948"><ele>206.0</ele><time>2026-04-10T10:40:16.843Z</time></trkpt><trkpt lat="44.9966191" lon="8.0310506"><ele>206.42857142857142</ele><time>2026-04-10T10:40:18.843Z</time></trkpt><trkpt lat="44.9966287" lon="8.031149"><ele>206.85714285714286</ele><time>2026-04-10T10:40:20.842Z</time></trkpt><trkpt lat="44.9966401" lon="8.0312494"><ele>207.28571428571428</ele><time>2026-04-10T10:40:22.842Z</time></trkpt><trkpt lat="44.9966513" lon="8.0313457"><ele>207.71428571428572</ele><time>2026-04-10T10:40:24.841Z</time></trkpt><trkpt lat="44.9966563" lon="8.0314426"><ele>208.14285714285714</ele><time>2026-04-10T10:40:26.842Z</time></trkpt><trkpt lat="44.9966558" lon="8.0315363"><ele>208.57142857142856</ele><time>2026-04-10T10:40:28.842Z</time></trkpt><trkpt lat="44.9966455" lon="8.0316498"><ele>209.0</ele><time>2026-04-10T10:40:30.842Z</time></trkpt><trkpt lat="44.9966436" lon="8.0317443"><ele>210.50000000000003</ele><time>2026-04-10T10:40:32.843Z</time></trkpt><trkpt lat="44.9966553" lon="8.0318606"><ele>212.0</ele><time>2026-04-10T10:40:35.843Z</time></trkpt><trkpt lat="44.9966746" lon="8.0319602"><ele>213.5</ele><time>2026-04-10T10:40:38.841Z</time></trkpt><trkpt lat="44.9966737" lon="8.0320635"><ele>215.0</ele><time>2026-04-10T10:40:41.841Z</time></trkpt><trkpt lat="44.9966892" lon="8.0321679"><ele>216.50000000000003</ele><time>2026-04-10T10:40:44.842Z</time></trkpt><trkpt lat="44.9967128" lon="8.0322802"><ele>218.0</ele><time>2026-04-10T10:40:47.841Z</time></trkpt><trkpt lat="44.9967129" lon="8.0323935"><ele>222.16666666666669</ele><time>2026-04-10T10:40:50.842Z</time></trkpt><trkpt lat="44.9967376" lon="8.0325004"><ele>226.33333333333334</ele><time>2026-04-10T10:40:53.842Z</time></trkpt><trkpt lat="44.9967718" lon="8.0326009"><ele>230.5</ele><time>2026-04-10T10:40:56.841Z</time></trkpt><trkpt lat="44.996826" lon="8.0326582"><ele>234.66666666666669</ele><time>2026-04-10T10:40:59.841Z</time></trkpt><trkpt lat="44.996883" lon="8.0327441"><ele>238.83333333333334</ele><time>2026-04-10T10:41:02.841Z</time></trkpt><trkpt lat="44.9969405" lon="8.0328477"><ele>243.0</ele><time>2026-04-10T10:41:05.841Z</time></trkpt><trkpt lat="44.9970046" lon="8.0329004"><ele>243.0</ele><time>2026-04-10T10:41:07.842Z</time></trkpt><trkpt lat="44.9970614" lon="8.0329844"><ele>243.0</ele><time>2026-04-10T10:41:10.842Z</time></trkpt><trkpt lat="44.9971126" lon="8.0330382"><ele>243.0</ele><time>2026-04-10T10:41:12.843Z</time></trkpt><trkpt lat="44.997179" lon="8.0330782"><ele>243.0</ele><time>2026-04-10T10:41:15.842Z</time></trkpt><trkpt lat="44.9972505" lon="8.0331613"><ele>243.0</ele><time>2026-04-10T10:41:18.843Z</time></trkpt><trkpt lat="44.997317" lon="8.0332389"><ele>243.0</ele><time>2026-04-10T10:41:21.843Z</time></trkpt><trkpt lat="44.9973761" lon="8.0333209"><ele>242.71428571428572</ele><time>2026-04-10T10:41:24.842Z</time></trkpt><trkpt lat="44.99743" lon="8.0334034"><ele>242.42857142857144</ele><time>2026-04-10T10:41:27.842Z</time></trkpt><trkpt lat="44.9974748" lon="8.0334778"><ele>242.14285714285717</ele><time>2026-04-10T10:41:30.841Z</time></trkpt><trkpt lat="44.9975151" lon="8.0335552"><ele>241.85714285714286</ele><time>2026-04-10T10:41:33.844Z</time></trkpt><trkpt lat="44.99756" lon="8.0336231"><ele>241.5714285714286</ele><time>2026-04-10T10:41:36.843Z</time></trkpt><trkpt lat="44.997615" lon="8.033688"><ele>241.2857142857143</ele><time>2026-04-10T10:41:39.843Z</time></trkpt><trkpt lat="44.997676" lon="8.0337467"><ele>241.0</ele><time>2026-04-10T10:41:42.842Z</time></trkpt><trkpt lat="44.9977251" lon="8.0338138"><ele>243.99999999999997</ele><time>2026-04-10T10:41:45.841Z</time></trkpt><trkpt lat="44.9977886" lon="8.033886"><ele>247.0</ele><time>2026-04-10T10:41:49.843Z</time></trkpt><trkpt lat="44.9978314" lon="8.0339826"><ele>250.0</ele><time>2026-04-10T10:41:53.842Z</time></trkpt><trkpt lat="44.9978103" lon="8.0340725"><ele>253.0</ele><time>2026-04-10T10:41:56.843Z</time></trkpt><trkpt lat="44.9977438" lon="8.0341322"><ele>255.99999999999997</ele><time>2026-04-10T10:41:59.843Z</time></trkpt><trkpt lat="44.9976544" lon="8.0341358"><ele>259.0</ele><time>2026-04-10T10:42:02.843Z</time></trkpt><trkpt lat="44.9975647" lon="8.0341278"><ele>258.5</ele><time>2026-04-10T10:42:05.841Z</time></trkpt><trkpt lat="44.9974943" lon="8.0341625"><ele>258.0</ele><time>2026-04-10T10:42:08.842Z</time></trkpt><trkpt lat="44.9974729" lon="8.0342671"><ele>257.5</ele><time>2026-04-10T10:42:12.842Z</time></trkpt><trkpt lat="44.9975084" lon="8.0343702"><ele>257.0</ele><time>2026-04-10T10:42:16.843Z</time></trkpt><trkpt lat="44.997569" lon="8.0344431"><ele>256.5</ele><time>2026-04-10T10:42:20.842Z</time></trkpt><trkpt lat="44.9976248" lon="8.0345218"><ele>256.0</ele><time>2026-04-10T10:42:25.841Z</time></trkpt><trkpt lat="44.997683" lon="8.0345614"><ele>255.99999999999997</ele><time>2026-04-10T10:42:28.842Z</time></trkpt><trkpt lat="44.9977504" lon="8.0346199"><ele>256.0</ele><time>2026-04-10T10:42:31.842Z</time></trkpt><trkpt lat="44.997813" lon="8.0346764"><ele>256.0</ele><time>2026-04-10T10:42:34.841Z</time></trkpt><trkpt lat="44.9978856" lon="8.0347353"><ele>256.0</ele><time>2026-04-10T10:42:38.842Z</time></trkpt><trkpt lat="44.9979395" lon="8.0347891"><ele>255.99999999999997</ele><time>2026-04-10T10:42:42.841Z</time></trkpt><trkpt lat="44.9979247" lon="8.0348956"><ele>256.0</ele><time>2026-04-10T10:42:46.842Z</time></trkpt><trkpt lat="44.9978461" lon="8.0349554"><ele>255.99999999999997</ele><time>2026-04-10T10:42:49.842Z</time></trkpt><trkpt lat="44.9977708" lon="8.0349026"><ele>256.0</ele><time>2026-04-10T10:42:52.842Z</time></trkpt><trkpt lat="44.9976653" lon="8.0348393"><ele>256.0</ele><time>2026-04-10T10:42:56.843Z</time></trkpt><trkpt lat="44.9976144" lon="8.0347644"><ele>256.0</ele><time>2026-04-10T10:42:59.841Z</time></trkpt><trkpt lat="44.9975654" lon="8.0346559"><ele>255.99999999999997</ele><time>2026-04-10T10:43:03.843Z</time></trkpt><trkpt lat="44.9975099" lon="8.0346036"><ele>256.0</ele><time>2026-04-10T10:43:06.841Z</time></trkpt><trkpt lat="44.9974396" lon="8.034575"><ele>254.0</ele><time>2026-04-10T10:43:09.843Z</time></trkpt><trkpt lat="44.9973651" lon="8.0345413"><ele>251.99999999999997</ele><time>2026-04-10T10:43:12.842Z</time></trkpt><trkpt lat="44.9972989" lon="8.0344874"><ele>250.0</ele><time>2026-04-10T10:43:15.844Z</time></trkpt><trkpt lat="44.9972327" lon="8.0344415"><ele>248.0</ele><time>2026-04-10T10:43:18.842Z</time></trkpt><trkpt lat="44.9971695" lon="8.034392"><ele>245.99999999999997</ele><time>2026-04-10T10:43:21.843Z</time></trkpt><trkpt lat="44.9971061" lon="8.0343356"><ele>244.0</ele><time>2026-04-10T10:43:24.843Z</time></trkpt><trkpt lat="44.9970411" lon="8.0342947"><ele>242.0</ele><time>2026-04-10T10:43:27.842Z</time></trkpt><trkpt lat="44.9969662" lon="8.0342746"><ele>242.00000000000003</ele><time>2026-04-10T10:43:30.844Z</time></trkpt><trkpt lat="44.996889" lon="8.0342743"><ele>242.0</ele><time>2026-04-10T10:43:33.841Z</time></trkpt><trkpt lat="44.9968098" lon="8.0343001"><ele>242.0</ele><time>2026-04-10T10:43:36.842Z</time></trkpt><trkpt lat="44.9967331" lon="8.0343474"><ele>242.0</ele><time>2026-04-10T10:43:39.843Z</time></trkpt><trkpt lat="44.9966739" lon="8.0344177"><ele>242.00000000000003</ele><time>2026-04-10T10:43:42.842Z</time></trkpt><trkpt lat="44.9966089" lon="8.034495"><ele>242.0</ele><time>2026-04-10T10:43:45.841Z</time></trkpt><trkpt lat="44.9965542" lon="8.0345638"><ele>244.00000000000003</ele><time>2026-04-10T10:43:48.843Z</time></trkpt><trkpt lat="44.9964966" lon="8.0346829"><ele>246.0</ele><time>2026-04-10T10:43:52.843Z</time></trkpt><trkpt lat="44.996465" lon="8.0347757"><ele>248.0</ele><time>2026-04-10T10:43:55.843Z</time></trkpt><trkpt lat="44.996442" lon="8.0348941"><ele>250.0</ele><time>2026-04-10T10:43:58.843Z</time></trkpt><trkpt lat="44.9964135" lon="8.0349997"><ele>252.00000000000003</ele><time>2026-04-10T10:44:01.842Z</time></trkpt><trkpt lat="44.9963764" lon="8.0350829"><ele>254.0</ele><time>2026-04-10T10:44:03.842Z</time></trkpt><trkpt lat="44.9963339" lon="8.0351714"><ele>255.66666666666669</ele><time>2026-04-10T10:44:05.843Z</time></trkpt><trkpt lat="44.9963044" lon="8.0352726"><ele>257.33333333333337</ele><time>2026-04-10T10:44:07.841Z</time></trkpt><trkpt lat="44.9962645" lon="8.0353628"><ele>259.0</ele><time>2026-04-10T10:44:09.842Z</time></trkpt><trkpt lat="44.9962145" lon="8.0354491"><ele>260.6666666666667</ele><time>2026-04-10T10:44:11.841Z</time></trkpt><trkpt lat="44.9961658" lon="8.0355459"><ele>262.3333333333333</ele><time>2026-04-10T10:44:13.843Z</time></trkpt><trkpt lat="44.9961227" lon="8.0356496"><ele>264.0</ele><time>2026-04-10T10:44:15.842Z</time></trkpt><trkpt lat="44.996064" lon="8.035748"><ele>263.2</ele><time>2026-04-10T10:44:17.843Z</time></trkpt><trkpt lat="44.9959852" lon="8.0358436"><ele>262.4</ele><time>2026-04-10T10:44:19.842Z</time></trkpt><trkpt lat="44.9958809" lon="8.0358877"><ele>261.6</ele><time>2026-04-10T10:44:21.844Z</time></trkpt><trkpt lat="44.9957691" lon="8.0358632"><ele>260.8</ele><time>2026-04-10T10:44:23.842Z</time></trkpt><trkpt lat="44.9956824" lon="8.035777"><ele>260.0</ele><time>2026-04-10T10:44:25.843Z</time></trkpt><trkpt lat="44.9956292" lon="8.0356759"><ele>260.0</ele><time>2026-04-10T10:44:27.842Z</time></trkpt><trkpt lat="44.9956564" lon="8.0357756"><ele>260.0</ele><time>2026-04-10T10:44:34.842Z</time></trkpt><trkpt lat="44.9957243" lon="8.035834"><ele>260.0</ele><time>2026-04-10T10:44:36.841Z</time></trkpt><trkpt lat="44.9957965" lon="8.0358935"><ele>260.0</ele><time>2026-04-10T10:44:38.842Z</time></trkpt><trkpt lat="44.9958636" lon="8.035937"><ele>260.0</ele><time>2026-04-10T10:44:40.843Z</time></trkpt><trkpt lat="44.995902" lon="8.0360138"><ele>260.0</ele><time>2026-04-10T10:44:42.843Z</time></trkpt><trkpt lat="44.995875" lon="8.0361155"><ele>260.0</ele><time>2026-04-10T10:44:44.843Z</time></trkpt><trkpt lat="44.9958176" lon="8.0362133"><ele>260.0</ele><time>2026-04-10T10:44:46.844Z</time></trkpt><trkpt lat="44.9957563" lon="8.0363115"><ele>260.0</ele><time>2026-04-10T10:44:48.842Z</time></trkpt><trkpt lat="44.9957012" lon="8.0363976"><ele>260.0</ele><time>2026-04-10T10:44:50.841Z</time></trkpt><trkpt lat="44.9956433" lon="8.0364386"><ele>260.0</ele><time>2026-04-10T10:44:51.841Z</time></trkpt><trkpt lat="44.9955631" lon="8.0365269"><ele>260.0</ele><time>2026-04-10T10:44:53.843Z</time></trkpt><trkpt lat="44.9954891" lon="8.0365563"><ele>260.0</ele><time>2026-04-10T10:44:55.843Z</time></trkpt><trkpt lat="44.9954389" lon="8.0366136"><ele>260.0</ele><time>2026-04-10T10:44:57.841Z</time></trkpt><trkpt lat="44.9953642" lon="8.0366546"><ele>260.0</ele><time>2026-04-10T10:44:59.843Z</time></trkpt><trkpt lat="44.9952427" lon="8.0367137"><ele>260.0</ele><time>2026-04-10T10:45:02.841Z</time></trkpt><trkpt lat="44.9951752" lon="8.0367648"><ele>260.0</ele><time>2026-04-10T10:45:04.842Z</time></trkpt><trkpt lat="44.9950772" lon="8.0368139"><ele>259.4</ele><time>2026-04-10T10:45:06.843Z</time></trkpt><trkpt lat="44.9949653" lon="8.0368749"><ele>258.8</ele><time>2026-04-10T10:45:08.842Z</time></trkpt><trkpt lat="44.9949052" lon="8.0369025"><ele>258.2</ele><time>2026-04-10T10:45:09.843Z</time></trkpt><trkpt lat="44.9947955" lon="8.0369367"><ele>257.6</ele><time>2026-04-10T10:45:11.841Z</time></trkpt><trkpt lat="44.9946911" lon="8.036975"><ele>257.0</ele><time>2026-04-10T10:45:13.842Z</time></trkpt><trkpt lat="44.9945909" lon="8.0370358"><ele>257.0</ele><time>2026-04-10T10:45:15.842Z</time></trkpt><trkpt lat="44.994494" lon="8.0370636"><ele>257.0</ele><time>2026-04-10T10:45:17.842Z</time></trkpt><trkpt lat="44.9944317" lon="8.0371007"><ele>257.0</ele><time>2026-04-10T10:45:18.843Z</time></trkpt><trkpt lat="44.9943808" lon="8.0371548"><ele>257.0</ele><time>2026-04-10T10:45:19.842Z</time></trkpt><trkpt lat="44.9943313" lon="8.0372109"><ele>257.0</ele><time>2026-04-10T10:45:20.843Z</time></trkpt><trkpt lat="44.9942869" lon="8.0373463"><ele>257.0</ele><time>2026-04-10T10:45:22.842Z</time></trkpt><trkpt lat="44.9942217" lon="8.0374353"><ele>256.6</ele><time>2026-04-10T10:45:24.841Z</time></trkpt><trkpt lat="44.9941159" lon="8.0374507"><ele>256.2</ele><time>2026-04-10T10:45:26.843Z</time></trkpt><trkpt lat="44.994007" lon="8.0374709"><ele>255.8</ele><time>2026-04-10T10:45:28.843Z</time></trkpt><trkpt lat="44.9939443" lon="8.0374854"><ele>255.4</ele><time>2026-04-10T10:45:29.842Z</time></trkpt><trkpt lat="44.9938287" lon="8.0375254"><ele>255.0</ele><time>2026-04-10T10:45:31.841Z</time></trkpt><trkpt lat="44.9937217" lon="8.0375918"><ele>255.0</ele><time>2026-04-10T10:45:33.841Z</time></trkpt><trkpt lat="44.9936629" lon="8.0376426"><ele>255.0</ele><time>2026-04-10T10:45:34.844Z</time></trkpt><trkpt lat="44.9936038" lon="8.0377658"><ele>255.0</ele><time>2026-04-10T10:45:36.844Z</time></trkpt><trkpt lat="44.993549" lon="8.0379061"><ele>255.0</ele><time>2026-04-10T10:45:38.843Z</time></trkpt><trkpt lat="44.9935206" lon="8.038062"><ele>255.0</ele><time>2026-04-10T10:45:40.842Z</time></trkpt><trkpt lat="44.9934927" lon="8.0382115"><ele>252.4</ele><time>2026-04-10T10:45:42.842Z</time></trkpt><trkpt lat="44.9934826" lon="8.0383572"><ele>249.8</ele><time>2026-04-10T10:45:44.843Z</time></trkpt><trkpt lat="44.9934851" lon="8.0385143"><ele>247.2</ele><time>2026-04-10T10:45:46.842Z</time></trkpt><trkpt lat="44.9934887" lon="8.0386748"><ele>244.6</ele><time>2026-04-10T10:45:48.843Z</time></trkpt><trkpt lat="44.9934792" lon="8.0388346"><ele>242.0</ele><time>2026-04-10T10:45:50.843Z</time></trkpt><trkpt lat="44.9934488" lon="8.0389854"><ele>242.0</ele><time>2026-04-10T10:45:52.841Z</time></trkpt><trkpt lat="44.9934131" lon="8.0391285"><ele>242.0</ele><time>2026-04-10T10:45:54.842Z</time></trkpt><trkpt lat="44.9933776" lon="8.0392044"><ele>242.0</ele><time>2026-04-10T10:45:55.842Z</time></trkpt><trkpt lat="44.9933301" lon="8.0393479"><ele>242.0</ele><time>2026-04-10T10:45:57.842Z</time></trkpt><trkpt lat="44.9932549" lon="8.039443"><ele>242.0</ele><time>2026-04-10T10:45:59.843Z</time></trkpt><trkpt lat="44.9931692" lon="8.0395143"><ele>243.16666666666669</ele><time>2026-04-10T10:46:01.843Z</time></trkpt><trkpt lat="44.9931097" lon="8.0396104"><ele>244.33333333333334</ele><time>2026-04-10T10:46:03.844Z</time></trkpt><trkpt lat="44.9930771" lon="8.0396879"><ele>245.5</ele><time>2026-04-10T10:46:04.842Z</time></trkpt><trkpt lat="44.9930432" lon="8.0398181"><ele>246.66666666666669</ele><time>2026-04-10T10:46:06.841Z</time></trkpt><trkpt lat="44.9930078" lon="8.0399077"><ele>247.83333333333334</ele><time>2026-04-10T10:46:07.842Z</time></trkpt><trkpt lat="44.9929935" lon="8.0400063"><ele>249.0</ele><time>2026-04-10T10:46:08.842Z</time></trkpt><trkpt lat="44.9929803" lon="8.0401101"><ele>249.0</ele><time>2026-04-10T10:46:09.843Z</time></trkpt><trkpt lat="44.9929722" lon="8.0402075"><ele>248.99999999999997</ele><time>2026-04-10T10:46:10.842Z</time></trkpt><trkpt lat="44.9929553" lon="8.0403109"><ele>249.0</ele><time>2026-04-10T10:46:11.842Z</time></trkpt><trkpt lat="44.9929393" lon="8.0404066"><ele>249.0</ele><time>2026-04-10T10:46:12.841Z</time></trkpt><trkpt lat="44.992896" lon="8.0404961"><ele>248.99999999999997</ele><time>2026-04-10T10:46:13.842Z</time></trkpt><trkpt lat="44.9928715" lon="8.0405832"><ele>249.0</ele><time>2026-04-10T10:46:14.842Z</time></trkpt><trkpt lat="44.9928403" lon="8.0406908"><ele>249.0</ele><time>2026-04-10T10:46:15.843Z</time></trkpt><trkpt lat="44.9928114" lon="8.0407891"><ele>246.66666666666666</ele><time>2026-04-10T10:46:16.842Z</time></trkpt><trkpt lat="44.9927718" lon="8.040866"><ele>244.33333333333331</ele><time>2026-04-10T10:46:17.843Z</time></trkpt><trkpt lat="44.9927338" lon="8.0409628"><ele>242.0</ele><time>2026-04-10T10:46:18.841Z</time></trkpt><trkpt lat="44.992714" lon="8.0410663"><ele>239.66666666666666</ele><time>2026-04-10T10:46:19.841Z</time></trkpt><trkpt lat="44.9926839" lon="8.04116"><ele>237.33333333333331</ele><time>2026-04-10T10:46:20.841Z</time></trkpt><trkpt lat="44.9926483" lon="8.041247"><ele>235.0</ele><time>2026-04-10T10:46:21.842Z</time></trkpt><trkpt lat="44.9926255" lon="8.0413723"><ele>235.0</ele><time>2026-04-10T10:46:22.843Z</time></trkpt><trkpt lat="44.9925925" lon="8.0414595"><ele>234.99999999999997</ele><time>2026-04-10T10:46:23.841Z</time></trkpt><trkpt lat="44.9925601" lon="8.041542"><ele>235.0</ele><time>2026-04-10T10:46:24.843Z</time></trkpt><trkpt lat="44.9925293" lon="8.0416214"><ele>235.0</ele><time>2026-04-10T10:46:25.842Z</time></trkpt><trkpt lat="44.99249" lon="8.0417059"><ele>234.99999999999997</ele><time>2026-04-10T10:46:26.844Z</time></trkpt><trkpt lat="44.9924454" lon="8.0417778"><ele>235.0</ele><time>2026-04-10T10:46:27.844Z</time></trkpt><trkpt lat="44.9923704" lon="8.0418283"><ele>235.0</ele><time>2026-04-10T10:46:28.842Z</time></trkpt><trkpt lat="44.9923035" lon="8.0418613"><ele>237.5</ele><time>2026-04-10T10:46:29.841Z</time></trkpt><trkpt lat="44.9921904" lon="8.0419323"><ele>240.0</ele><time>2026-04-10T10:46:31.842Z</time></trkpt><trkpt lat="44.9921058" lon="8.0420563"><ele>242.5</ele><time>2026-04-10T10:46:33.843Z</time></trkpt><trkpt lat="44.9920391" lon="8.0421977"><ele>245.0</ele><time>2026-04-10T10:46:35.843Z</time></trkpt><trkpt lat="44.9919742" lon="8.0423616"><ele>245.0</ele><time>2026-04-10T10:46:37.843Z</time></trkpt><trkpt lat="44.9919364" lon="8.0424533"><ele>245.0</ele><time>2026-04-10T10:46:38.841Z</time></trkpt><trkpt lat="44.9918966" lon="8.0425353"><ele>245.0</ele><time>2026-04-10T10:46:39.844Z</time></trkpt><trkpt lat="44.991853" lon="8.0426195"><ele>245.0</ele><time>2026-04-10T10:46:40.841Z</time></trkpt><trkpt lat="44.9918" lon="8.0426943"><ele>245.0</ele><time>2026-04-10T10:46:41.843Z</time></trkpt><trkpt lat="44.9917569" lon="8.0427775"><ele>245.0</ele><time>2026-04-10T10:46:42.842Z</time></trkpt><trkpt lat="44.9917161" lon="8.0428563"><ele>245.0</ele><time>2026-04-10T10:46:43.842Z</time></trkpt><trkpt lat="44.9916917" lon="8.0429401"><ele>245.0</ele><time>2026-04-10T10:46:44.841Z</time></trkpt><trkpt lat="44.9916357" lon="8.0430931"><ele>245.0</ele><time>2026-04-10T10:46:46.842Z</time></trkpt><trkpt lat="44.9915839" lon="8.0432228"><ele>245.0</ele><time>2026-04-10T10:46:48.843Z</time></trkpt><trkpt lat="44.991531" lon="8.0433318"><ele>245.0</ele><time>2026-04-10T10:46:50.841Z</time></trkpt><trkpt lat="44.9914773" lon="8.0434392"><ele>245.0</ele><time>2026-04-10T10:46:52.841Z</time></trkpt><trkpt lat="44.9914329" lon="8.0435388"><ele>244.57142857142856</ele><time>2026-04-10T10:46:54.843Z</time></trkpt><trkpt lat="44.9913731" lon="8.0435934"><ele>244.14285714285714</ele><time>2026-04-10T10:46:56.844Z</time></trkpt><trkpt lat="44.9913133" lon="8.0436425"><ele>243.71428571428572</ele><time>2026-04-10T10:46:58.842Z</time></trkpt><trkpt lat="44.9912746" lon="8.043732"><ele>243.28571428571428</ele><time>2026-04-10T10:47:00.842Z</time></trkpt><trkpt lat="44.9912376" lon="8.043805"><ele>242.85714285714283</ele><time>2026-04-10T10:47:02.843Z</time></trkpt><trkpt lat="44.9911651" lon="8.0438526"><ele>242.42857142857142</ele><time>2026-04-10T10:47:05.843Z</time></trkpt><trkpt lat="44.9910904" lon="8.043903"><ele>242.0</ele><time>2026-04-10T10:47:07.841Z</time></trkpt><trkpt lat="44.9910175" lon="8.0439503"><ele>242.00000000000003</ele><time>2026-04-10T10:47:09.842Z</time></trkpt><trkpt lat="44.9909491" lon="8.0439961"><ele>242.0</ele><time>2026-04-10T10:47:11.844Z</time></trkpt><trkpt lat="44.9908784" lon="8.0440281"><ele>242.0</ele><time>2026-04-10T10:47:13.842Z</time></trkpt><trkpt lat="44.9908036" lon="8.0440586"><ele>242.0</ele><time>2026-04-10T10:47:15.843Z</time></trkpt><trkpt lat="44.9907354" lon="8.0440864"><ele>242.00000000000003</ele><time>2026-04-10T10:47:17.841Z</time></trkpt><trkpt lat="44.9906564" lon="8.0441438"><ele>242.0</ele><time>2026-04-10T10:47:20.841Z</time></trkpt><trkpt lat="44.9905917" lon="8.0442053"><ele>243.00000000000003</ele><time>2026-04-10T10:47:22.842Z</time></trkpt><trkpt lat="44.9905323" lon="8.0442891"><ele>244.0</ele><time>2026-04-10T10:47:24.842Z</time></trkpt><trkpt lat="44.9904749" lon="8.0444045"><ele>245.0</ele><time>2026-04-10T10:47:26.842Z</time></trkpt><trkpt lat="44.9904772" lon="8.0445267"><ele>246.0</ele><time>2026-04-10T10:47:27.843Z</time></trkpt><trkpt lat="44.9905249" lon="8.0446393"><ele>247.00000000000003</ele><time>2026-04-10T10:47:28.843Z</time></trkpt><trkpt lat="44.9904995" lon="8.0447329"><ele>248.0</ele><time>2026-04-10T10:47:29.842Z</time></trkpt><trkpt lat="44.9904913" lon="8.0448253"><ele>248.00000000000003</ele><time>2026-04-10T10:47:30.842Z</time></trkpt><trkpt lat="44.990477" lon="8.0449176"><ele>248.0</ele><time>2026-04-10T10:47:31.842Z</time></trkpt><trkpt lat="44.9904479" lon="8.0450223"><ele>248.0</ele><time>2026-04-10T10:47:32.841Z</time></trkpt><trkpt lat="44.9903766" lon="8.0450787"><ele>248.0</ele><time>2026-04-10T10:47:33.842Z</time></trkpt><trkpt lat="44.9902864" lon="8.0451156"><ele>248.00000000000003</ele><time>2026-04-10T10:47:34.841Z</time></trkpt><trkpt lat="44.9902199" lon="8.0451823"><ele>248.0</ele><time>2026-04-10T10:47:35.842Z</time></trkpt><trkpt lat="44.9901339" lon="8.0452419"><ele>246.83333333333334</ele><time>2026-04-10T10:47:36.842Z</time></trkpt><trkpt lat="44.9900678" lon="8.0453165"><ele>245.66666666666669</ele><time>2026-04-10T10:47:37.843Z</time></trkpt><trkpt lat="44.9900081" lon="8.0454067"><ele>244.5</ele><time>2026-04-10T10:47:38.842Z</time></trkpt><trkpt lat="44.989944" lon="8.0454923"><ele>243.33333333333331</ele><time>2026-04-10T10:47:39.842Z</time></trkpt><trkpt lat="44.9898821" lon="8.0455732"><ele>242.16666666666666</ele><time>2026-04-10T10:47:40.842Z</time></trkpt><trkpt lat="44.9898203" lon="8.0456506"><ele>241.0</ele><time>2026-04-10T10:47:41.843Z</time></trkpt><trkpt lat="44.9897594" lon="8.0457355"><ele>239.99999999999997</ele><time>2026-04-10T10:47:42.843Z</time></trkpt><trkpt lat="44.9896964" lon="8.0458095"><ele>239.0</ele><time>2026-04-10T10:47:43.843Z</time></trkpt><trkpt lat="44.989632" lon="8.0458829"><ele>238.0</ele><time>2026-04-10T10:47:44.842Z</time></trkpt><trkpt lat="44.9895678" lon="8.0459493"><ele>237.0</ele><time>2026-04-10T10:47:45.844Z</time></trkpt><trkpt lat="44.9895122" lon="8.0460141"><ele>235.99999999999997</ele><time>2026-04-10T10:47:46.842Z</time></trkpt><trkpt lat="44.9894616" lon="8.046083"><ele>235.0</ele><time>2026-04-10T10:47:47.841Z</time></trkpt><trkpt lat="44.9893674" lon="8.046215"><ele>235.0</ele><time>2026-04-10T10:47:49.841Z</time></trkpt><trkpt lat="44.989315" lon="8.0462739"><ele>235.0</ele><time>2026-04-10T10:47:50.843Z</time></trkpt><trkpt lat="44.989232" lon="8.0463895"><ele>235.0</ele><time>2026-04-10T10:47:52.843Z</time></trkpt><trkpt lat="44.9891851" lon="8.0464935"><ele>235.0</ele><time>2026-04-10T10:47:54.841Z</time></trkpt><trkpt lat="44.9891254" lon="8.0465998"><ele>235.0</ele><time>2026-04-10T10:47:56.842Z</time></trkpt><trkpt lat="44.9890699" lon="8.0467197"><ele>236.25</ele><time>2026-04-10T10:47:58.842Z</time></trkpt><trkpt lat="44.989002" lon="8.0468677"><ele>237.5</ele><time>2026-04-10T10:48:00.844Z</time></trkpt><trkpt lat="44.9889407" lon="8.0470072"><ele>238.75</ele><time>2026-04-10T10:48:02.842Z</time></trkpt><trkpt lat="44.9888533" lon="8.0470971"><ele>240.0</ele><time>2026-04-10T10:48:04.843Z</time></trkpt><trkpt lat="44.9887441" lon="8.0471132"><ele>240.0</ele><time>2026-04-10T10:48:05.843Z</time></trkpt><trkpt lat="44.9886775" lon="8.0471456"><ele>240.0</ele><time>2026-04-10T10:48:06.842Z</time></trkpt><trkpt lat="44.9886071" lon="8.0471877"><ele>240.0</ele><time>2026-04-10T10:48:07.843Z</time></trkpt><trkpt lat="44.9885457" lon="8.0472423"><ele>240.0</ele><time>2026-04-10T10:48:08.843Z</time></trkpt><trkpt lat="44.9884672" lon="8.0472654"><ele>240.0</ele><time>2026-04-10T10:48:09.842Z</time></trkpt><trkpt lat="44.9884003" lon="8.0473145"><ele>240.0</ele><time>2026-04-10T10:48:10.842Z</time></trkpt><trkpt lat="44.9883379" lon="8.047356"><ele>240.0</ele><time>2026-04-10T10:48:11.842Z</time></trkpt><trkpt lat="44.9882654" lon="8.0473972"><ele>239.5</ele><time>2026-04-10T10:48:12.842Z</time></trkpt><trkpt lat="44.9882051" lon="8.0474488"><ele>239.0</ele><time>2026-04-10T10:48:13.843Z</time></trkpt><trkpt lat="44.9881371" lon="8.0475063"><ele>238.5</ele><time>2026-04-10T10:48:14.841Z</time></trkpt><trkpt lat="44.9880771" lon="8.0475575"><ele>238.0</ele><time>2026-04-10T10:48:15.843Z</time></trkpt><trkpt lat="44.9880037" lon="8.0475899"><ele>237.5</ele><time>2026-04-10T10:48:16.842Z</time></trkpt><trkpt lat="44.9879373" lon="8.0476367"><ele>237.0</ele><time>2026-04-10T10:48:17.842Z</time></trkpt><trkpt lat="44.9878632" lon="8.0476803"><ele>237.0</ele><time>2026-04-10T10:48:18.841Z</time></trkpt><trkpt lat="44.9877843" lon="8.0477397"><ele>237.0</ele><time>2026-04-10T10:48:19.842Z</time></trkpt><trkpt lat="44.9877047" lon="8.0477945"><ele>237.0</ele><time>2026-04-10T10:48:20.842Z</time></trkpt><trkpt lat="44.9876198" lon="8.0478577"><ele>237.0</ele><time>2026-04-10T10:48:21.843Z</time></trkpt><trkpt lat="44.9875399" lon="8.047916"><ele>237.0</ele><time>2026-04-10T10:48:22.842Z</time></trkpt><trkpt lat="44.9874601" lon="8.047971"><ele>234.75</ele><time>2026-04-10T10:48:23.842Z</time></trkpt><trkpt lat="44.9873789" lon="8.0480247"><ele>232.5</ele><time>2026-04-10T10:48:24.841Z</time></trkpt><trkpt lat="44.9872945" lon="8.0480778"><ele>230.25</ele><time>2026-04-10T10:48:25.841Z</time></trkpt><trkpt lat="44.9871134" lon="8.0482044"><ele>228.0</ele><time>2026-04-10T10:48:27.842Z</time></trkpt><trkpt lat="44.9870223" lon="8.0482784"><ele>227.2</ele><time>2026-04-10T10:48:28.843Z</time></trkpt><trkpt lat="44.9869381" lon="8.0483478"><ele>226.4</ele><time>2026-04-10T10:48:29.842Z</time></trkpt><trkpt lat="44.9868514" lon="8.0484263"><ele>225.59999999999997</ele><time>2026-04-10T10:48:30.844Z</time></trkpt><trkpt lat="44.9867681" lon="8.0485093"><ele>224.79999999999998</ele><time>2026-04-10T10:48:31.842Z</time></trkpt><trkpt lat="44.9866829" lon="8.048594"><ele>224.0</ele><time>2026-04-10T10:48:32.841Z</time></trkpt><trkpt lat="44.9865953" lon="8.0486772"><ele>224.0</ele><time>2026-04-10T10:48:33.842Z</time></trkpt><trkpt lat="44.9865049" lon="8.04877"><ele>223.99999999999997</ele><time>2026-04-10T10:48:34.841Z</time></trkpt><trkpt lat="44.9864179" lon="8.0488573"><ele>223.99999999999997</ele><time>2026-04-10T10:48:35.842Z</time></trkpt><trkpt lat="44.9863322" lon="8.0489587"><ele>224.0</ele><time>2026-04-10T10:48:36.844Z</time></trkpt><trkpt lat="44.9862472" lon="8.0490734"><ele>224.0</ele><time>2026-04-10T10:48:37.842Z</time></trkpt><trkpt lat="44.9861638" lon="8.0491881"><ele>224.5</ele><time>2026-04-10T10:48:38.842Z</time></trkpt><trkpt lat="44.9860778" lon="8.0493009"><ele>225.0</ele><time>2026-04-10T10:48:39.841Z</time></trkpt><trkpt lat="44.9859943" lon="8.0494147"><ele>225.5</ele><time>2026-04-10T10:48:40.843Z</time></trkpt><trkpt lat="44.9859111" lon="8.049532"><ele>226.0</ele><time>2026-04-10T10:48:41.843Z</time></trkpt><trkpt lat="44.9858288" lon="8.04964"><ele>223.4</ele><time>2026-04-10T10:48:42.842Z</time></trkpt><trkpt lat="44.9857445" lon="8.0497504"><ele>220.8</ele><time>2026-04-10T10:48:43.841Z</time></trkpt><trkpt lat="44.9856612" lon="8.0498544"><ele>218.20000000000002</ele><time>2026-04-10T10:48:44.843Z</time></trkpt><trkpt lat="44.9855782" lon="8.0499521"><ele>215.60000000000002</ele><time>2026-04-10T10:48:45.842Z</time></trkpt><trkpt lat="44.9855003" lon="8.0500485"><ele>213.0</ele><time>2026-04-10T10:48:46.842Z</time></trkpt><trkpt lat="44.9854255" lon="8.0501462"><ele>213.0</ele><time>2026-04-10T10:48:47.842Z</time></trkpt><trkpt lat="44.9853489" lon="8.0502485"><ele>213.0</ele><time>2026-04-10T10:48:48.842Z</time></trkpt><trkpt lat="44.9852781" lon="8.0503429"><ele>213.0</ele><time>2026-04-10T10:48:49.841Z</time></trkpt><trkpt lat="44.9852113" lon="8.0504334"><ele>213.0</ele><time>2026-04-10T10:48:50.843Z</time></trkpt><trkpt lat="44.9851556" lon="8.0505274"><ele>213.0</ele><time>2026-04-10T10:48:51.842Z</time></trkpt><trkpt lat="44.9851127" lon="8.0506306"><ele>212.99999999999997</ele><time>2026-04-10T10:48:52.842Z</time></trkpt><trkpt lat="44.985071" lon="8.0507295"><ele>213.0</ele><time>2026-04-10T10:48:53.842Z</time></trkpt><trkpt lat="44.9850472" lon="8.0508331"><ele>213.0</ele><time>2026-04-10T10:48:54.841Z</time></trkpt><trkpt lat="44.9850148" lon="8.050924"><ele>213.0</ele><time>2026-04-10T10:48:55.841Z</time></trkpt><trkpt lat="44.9849784" lon="8.0510138"><ele>213.0</ele><time>2026-04-10T10:48:56.842Z</time></trkpt><trkpt lat="44.9849632" lon="8.0511112"><ele>212.99999999999997</ele><time>2026-04-10T10:48:57.841Z</time></trkpt><trkpt lat="44.9849399" lon="8.0512051"><ele>213.0</ele><time>2026-04-10T10:48:58.841Z</time></trkpt><trkpt lat="44.984908" lon="8.0512989"><ele>213.14285714285714</ele><time>2026-04-10T10:48:59.842Z</time></trkpt><trkpt lat="44.9848785" lon="8.0513949"><ele>213.28571428571428</ele><time>2026-04-10T10:49:00.841Z</time></trkpt><trkpt lat="44.9848532" lon="8.0514862"><ele>213.42857142857144</ele><time>2026-04-10T10:49:01.842Z</time></trkpt><trkpt lat="44.9848234" lon="8.051576"><ele>213.57142857142856</ele><time>2026-04-10T10:49:02.843Z</time></trkpt><trkpt lat="44.9847957" lon="8.0516619"><ele>213.71428571428572</ele><time>2026-04-10T10:49:03.842Z</time></trkpt><trkpt lat="44.9847659" lon="8.05175"><ele>213.85714285714286</ele><time>2026-04-10T10:49:04.842Z</time></trkpt><trkpt lat="44.9847389" lon="8.051831"><ele>214.0</ele><time>2026-04-10T10:49:05.842Z</time></trkpt><trkpt lat="44.9847158" lon="8.0519142"><ele>216.6</ele><time>2026-04-10T10:49:06.842Z</time></trkpt><trkpt lat="44.9846905" lon="8.0520029"><ele>219.2</ele><time>2026-04-10T10:49:07.842Z</time></trkpt><trkpt lat="44.9846387" lon="8.0521516"><ele>221.79999999999998</ele><time>2026-04-10T10:49:09.843Z</time></trkpt><trkpt lat="44.9846013" lon="8.0522858"><ele>224.39999999999998</ele><time>2026-04-10T10:49:11.843Z</time></trkpt><trkpt lat="44.9845734" lon="8.0523792"><ele>227.0</ele><time>2026-04-10T10:49:13.843Z</time></trkpt><trkpt lat="44.9845589" lon="8.0525243"><ele>228.00000000000003</ele><time>2026-04-10T10:49:16.842Z</time></trkpt><trkpt lat="44.984544" lon="8.0526788"><ele>229.0</ele><time>2026-04-10T10:49:18.843Z</time></trkpt><trkpt lat="44.9845329" lon="8.0527725"><ele>230.0</ele><time>2026-04-10T10:49:19.842Z</time></trkpt><trkpt lat="44.9845189" lon="8.0528824"><ele>231.0</ele><time>2026-04-10T10:49:20.841Z</time></trkpt><trkpt lat="44.9845016" lon="8.0530013"><ele>232.00000000000003</ele><time>2026-04-10T10:49:21.842Z</time></trkpt><trkpt lat="44.9844825" lon="8.0531247"><ele>233.0</ele><time>2026-04-10T10:49:22.842Z</time></trkpt><trkpt lat="44.9844593" lon="8.0532476"><ele>230.8</ele><time>2026-04-10T10:49:23.842Z</time></trkpt><trkpt lat="44.9844362" lon="8.0533654"><ele>228.60000000000002</ele><time>2026-04-10T10:49:24.842Z</time></trkpt><trkpt lat="44.9843537" lon="8.0535832"><ele>226.39999999999998</ele><time>2026-04-10T10:49:26.842Z</time></trkpt><trkpt lat="44.9842972" lon="8.0536786"><ele>224.2</ele><time>2026-04-10T10:49:27.843Z</time></trkpt><trkpt lat="44.9842389" lon="8.0537612"><ele>222.0</ele><time>2026-04-10T10:49:28.843Z</time></trkpt><trkpt lat="44.9841537" lon="8.0538067"><ele>222.0</ele><time>2026-04-10T10:49:29.842Z</time></trkpt><trkpt lat="44.9840643" lon="8.0538445"><ele>222.0</ele><time>2026-04-10T10:49:30.842Z</time></trkpt><trkpt lat="44.9839756" lon="8.0538573"><ele>222.0</ele><time>2026-04-10T10:49:31.842Z</time></trkpt><trkpt lat="44.9838949" lon="8.0538514"><ele>222.0</ele><time>2026-04-10T10:49:32.843Z</time></trkpt><trkpt lat="44.9838288" lon="8.0538511"><ele>222.0</ele><time>2026-04-10T10:49:33.841Z</time></trkpt><trkpt lat="44.9837398" lon="8.053854"><ele>222.0</ele><time>2026-04-10T10:49:35.841Z</time></trkpt><trkpt lat="44.9836725" lon="8.0539637"><ele>220.39999999999998</ele><time>2026-04-10T10:49:37.842Z</time></trkpt><trkpt lat="44.9836345" lon="8.0541247"><ele>218.79999999999998</ele><time>2026-04-10T10:49:39.843Z</time></trkpt><trkpt lat="44.9836298" lon="8.0542391"><ele>217.2</ele><time>2026-04-10T10:49:40.843Z</time></trkpt><trkpt lat="44.9836262" lon="8.0543685"><ele>215.6</ele><time>2026-04-10T10:49:41.842Z</time></trkpt><trkpt lat="44.9836197" lon="8.0544869"><ele>214.0</ele><time>2026-04-10T10:49:42.842Z</time></trkpt><trkpt lat="44.9836263" lon="8.054608"><ele>214.0</ele><time>2026-04-10T10:49:43.843Z</time></trkpt><trkpt lat="44.9836484" lon="8.0547343"><ele>213.99999999999997</ele><time>2026-04-10T10:49:44.842Z</time></trkpt><trkpt lat="44.9836858" lon="8.0548722"><ele>213.99999999999997</ele><time>2026-04-10T10:49:45.843Z</time></trkpt><trkpt lat="44.9837253" lon="8.0550206"><ele>214.0</ele><time>2026-04-10T10:49:46.842Z</time></trkpt><trkpt lat="44.9837848" lon="8.0551754"><ele>214.0</ele><time>2026-04-10T10:49:47.841Z</time></trkpt><trkpt lat="44.9838412" lon="8.055333"><ele>211.25</ele><time>2026-04-10T10:49:48.842Z</time></trkpt><trkpt lat="44.9839042" lon="8.0554743"><ele>208.5</ele><time>2026-04-10T10:49:49.843Z</time></trkpt><trkpt lat="44.983972" lon="8.0556177"><ele>205.75</ele><time>2026-04-10T10:49:50.842Z</time></trkpt><trkpt lat="44.9840369" lon="8.0557637"><ele>203.0</ele><time>2026-04-10T10:49:51.843Z</time></trkpt><trkpt lat="44.9840868" lon="8.0559042"><ele>200.5</ele><time>2026-04-10T10:49:52.841Z</time></trkpt><trkpt lat="44.9841394" lon="8.0560515"><ele>198.0</ele><time>2026-04-10T10:49:53.842Z</time></trkpt><trkpt lat="44.9841855" lon="8.0562113"><ele>195.5</ele><time>2026-04-10T10:49:54.842Z</time></trkpt><trkpt lat="44.984221" lon="8.0563589"><ele>193.0</ele><time>2026-04-10T10:49:55.842Z</time></trkpt><trkpt lat="44.9842549" lon="8.0564952"><ele>192.49999999999997</ele><time>2026-04-10T10:49:56.844Z</time></trkpt><trkpt lat="44.9842796" lon="8.0566145"><ele>192.0</ele><time>2026-04-10T10:49:57.842Z</time></trkpt><trkpt lat="44.9843016" lon="8.0567176"><ele>191.5</ele><time>2026-04-10T10:49:58.843Z</time></trkpt><trkpt lat="44.9843178" lon="8.0568114"><ele>191.0</ele><time>2026-04-10T10:49:59.842Z</time></trkpt><trkpt lat="44.9843609" lon="8.056924"><ele>190.5</ele><time>2026-04-10T10:50:01.842Z</time></trkpt><trkpt lat="44.9844447" lon="8.0569591"><ele>190.0</ele><time>2026-04-10T10:50:03.842Z</time></trkpt><trkpt lat="44.9845391" lon="8.0569243"><ele>188.6</ele><time>2026-04-10T10:50:05.841Z</time></trkpt><trkpt lat="44.9846393" lon="8.0568797"><ele>187.2</ele><time>2026-04-10T10:50:07.842Z</time></trkpt><trkpt lat="44.9847487" lon="8.0568296"><ele>185.8</ele><time>2026-04-10T10:50:09.842Z</time></trkpt><trkpt lat="44.9848095" lon="8.056801"><ele>184.4</ele><time>2026-04-10T10:50:10.842Z</time></trkpt><trkpt lat="44.9849301" lon="8.0567458"><ele>183.0</ele><time>2026-04-10T10:50:12.842Z</time></trkpt><trkpt lat="44.9849965" lon="8.0567202"><ele>182.83333333333334</ele><time>2026-04-10T10:50:13.842Z</time></trkpt><trkpt lat="44.9850646" lon="8.0566973"><ele>182.66666666666666</ele><time>2026-04-10T10:50:14.842Z</time></trkpt><trkpt lat="44.9851338" lon="8.056661"><ele>182.5</ele><time>2026-04-10T10:50:15.841Z</time></trkpt><trkpt lat="44.9851967" lon="8.0566306"><ele>182.33333333333331</ele><time>2026-04-10T10:50:16.842Z</time></trkpt><trkpt lat="44.9852591" lon="8.0566009"><ele>182.16666666666666</ele><time>2026-04-10T10:50:17.843Z</time></trkpt><trkpt lat="44.985377" lon="8.0565496"><ele>182.0</ele><time>2026-04-10T10:50:19.841Z</time></trkpt><trkpt lat="44.9854446" lon="8.0565189"><ele>182.16666666666666</ele><time>2026-04-10T10:50:20.843Z</time></trkpt><trkpt lat="44.9855058" lon="8.0564974"><ele>182.33333333333331</ele><time>2026-04-10T10:50:21.842Z</time></trkpt><trkpt lat="44.9855718" lon="8.0564725"><ele>182.5</ele><time>2026-04-10T10:50:22.841Z</time></trkpt><trkpt lat="44.9856388" lon="8.056457"><ele>182.66666666666666</ele><time>2026-04-10T10:50:23.842Z</time></trkpt><trkpt lat="44.9857038" lon="8.0564502"><ele>182.83333333333334</ele><time>2026-04-10T10:50:24.843Z</time></trkpt><trkpt lat="44.9858358" lon="8.0564485"><ele>183.0</ele><time>2026-04-10T10:50:26.842Z</time></trkpt><trkpt lat="44.9859046" lon="8.0564563"><ele>183.0</ele><time>2026-04-10T10:50:27.841Z</time></trkpt><trkpt lat="44.985969" lon="8.0564743"><ele>183.0</ele><time>2026-04-10T10:50:28.842Z</time></trkpt><trkpt lat="44.9860969" lon="8.0565379"><ele>183.0</ele><time>2026-04-10T10:50:30.843Z</time></trkpt><trkpt lat="44.9861602" lon="8.0565787"><ele>183.0</ele><time>2026-04-10T10:50:31.843Z</time></trkpt><trkpt lat="44.9862177" lon="8.0566279"><ele>183.0</ele><time>2026-04-10T10:50:32.843Z</time></trkpt><trkpt lat="44.986283" lon="8.0566789"><ele>183.0</ele><time>2026-04-10T10:50:33.842Z</time></trkpt><trkpt lat="44.9863796" lon="8.0567949"><ele>183.14285714285714</ele><time>2026-04-10T10:50:35.842Z</time></trkpt><trkpt lat="44.9864298" lon="8.056857"><ele>183.28571428571428</ele><time>2026-04-10T10:50:36.843Z</time></trkpt><trkpt lat="44.986484" lon="8.0569222"><ele>183.42857142857144</ele><time>2026-04-10T10:50:37.843Z</time></trkpt><trkpt lat="44.9865252" lon="8.0569945"><ele>183.57142857142856</ele><time>2026-04-10T10:50:38.841Z</time></trkpt><trkpt lat="44.9865667" lon="8.0570643"><ele>183.7142857142857</ele><time>2026-04-10T10:50:39.842Z</time></trkpt><trkpt lat="44.9866151" lon="8.0571338"><ele>183.85714285714286</ele><time>2026-04-10T10:50:40.843Z</time></trkpt><trkpt lat="44.9866578" lon="8.0572046"><ele>184.0</ele><time>2026-04-10T10:50:41.841Z</time></trkpt><trkpt lat="44.9867071" lon="8.0572716"><ele>185.71428571428572</ele><time>2026-04-10T10:50:42.842Z</time></trkpt><trkpt lat="44.9867563" lon="8.0573446"><ele>187.42857142857142</ele><time>2026-04-10T10:50:43.842Z</time></trkpt><trkpt lat="44.9868017" lon="8.0574246"><ele>189.14285714285714</ele><time>2026-04-10T10:50:44.842Z</time></trkpt><trkpt lat="44.986848" lon="8.0575002"><ele>190.85714285714286</ele><time>2026-04-10T10:50:45.843Z</time></trkpt><trkpt lat="44.9868948" lon="8.0575807"><ele>192.57142857142856</ele><time>2026-04-10T10:50:46.842Z</time></trkpt><trkpt lat="44.9869411" lon="8.0576536"><ele>194.28571428571428</ele><time>2026-04-10T10:50:47.842Z</time></trkpt><trkpt lat="44.9869896" lon="8.0577225"><ele>196.0</ele><time>2026-04-10T10:50:48.841Z</time></trkpt><trkpt lat="44.9870363" lon="8.0577988"><ele>196.0</ele><time>2026-04-10T10:50:49.842Z</time></trkpt><trkpt lat="44.9870861" lon="8.0578742"><ele>196.0</ele><time>2026-04-10T10:50:50.842Z</time></trkpt><trkpt lat="44.9871337" lon="8.0579498"><ele>196.0</ele><time>2026-04-10T10:50:51.842Z</time></trkpt><trkpt lat="44.9871872" lon="8.0580304"><ele>196.0</ele><time>2026-04-10T10:50:52.842Z</time></trkpt><trkpt lat="44.987235" lon="8.058104"><ele>196.0</ele><time>2026-04-10T10:50:53.842Z</time></trkpt><trkpt lat="44.98728" lon="8.0581732"><ele>196.0</ele><time>2026-04-10T10:50:54.841Z</time></trkpt><trkpt lat="44.9873256" lon="8.0582467"><ele>196.0</ele><time>2026-04-10T10:50:55.841Z</time></trkpt><trkpt lat="44.987376" lon="8.0583235"><ele>196.28571428571428</ele><time>2026-04-10T10:50:56.844Z</time></trkpt><trkpt lat="44.9874212" lon="8.0583958"><ele>196.57142857142856</ele><time>2026-04-10T10:50:57.843Z</time></trkpt><trkpt lat="44.9874639" lon="8.058467"><ele>196.85714285714286</ele><time>2026-04-10T10:50:58.841Z</time></trkpt><trkpt lat="44.9875105" lon="8.0585367"><ele>197.14285714285714</ele><time>2026-04-10T10:50:59.842Z</time></trkpt><trkpt lat="44.9875541" lon="8.0586064"><ele>197.42857142857142</ele><time>2026-04-10T10:51:00.842Z</time></trkpt><trkpt lat="44.9876032" lon="8.0586814"><ele>197.71428571428572</ele><time>2026-04-10T10:51:01.842Z</time></trkpt><trkpt lat="44.9876468" lon="8.058752"><ele>198.0</ele><time>2026-04-10T10:51:02.842Z</time></trkpt><trkpt lat="44.9876935" lon="8.058832"><ele>198.0</ele><time>2026-04-10T10:51:03.844Z</time></trkpt><trkpt lat="44.9877406" lon="8.058911"><ele>198.0</ele><time>2026-04-10T10:51:04.843Z</time></trkpt><trkpt lat="44.9877808" lon="8.0589889"><ele>198.0</ele><time>2026-04-10T10:51:05.841Z</time></trkpt><trkpt lat="44.9878267" lon="8.0590663"><ele>198.0</ele><time>2026-04-10T10:51:06.842Z</time></trkpt><trkpt lat="44.9878707" lon="8.0591394"><ele>198.0</ele><time>2026-04-10T10:51:07.841Z</time></trkpt><trkpt lat="44.9879247" lon="8.0592062"><ele>198.0</ele><time>2026-04-10T10:51:08.843Z</time></trkpt><trkpt lat="44.9879686" lon="8.0592787"><ele>198.0</ele><time>2026-04-10T10:51:09.841Z</time></trkpt><trkpt lat="44.9880129" lon="8.0593573"><ele>196.0</ele><time>2026-04-10T10:51:10.841Z</time></trkpt><trkpt lat="44.9880588" lon="8.0594356"><ele>194.0</ele><time>2026-04-10T10:51:11.842Z</time></trkpt><trkpt lat="44.988106" lon="8.0595003"><ele>192.0</ele><time>2026-04-10T10:51:12.842Z</time></trkpt><trkpt lat="44.98815" lon="8.0595805"><ele>190.0</ele><time>2026-04-10T10:51:13.841Z</time></trkpt><trkpt lat="44.9881952" lon="8.0596577"><ele>188.0</ele><time>2026-04-10T10:51:14.843Z</time></trkpt><trkpt lat="44.988244" lon="8.0597332"><ele>186.0</ele><time>2026-04-10T10:51:15.842Z</time></trkpt><trkpt lat="44.9882934" lon="8.0597964"><ele>184.0</ele><time>2026-04-10T10:51:16.841Z</time></trkpt><trkpt lat="44.9883399" lon="8.0598763"><ele>184.66666666666669</ele><time>2026-04-10T10:51:17.841Z</time></trkpt><trkpt lat="44.9883934" lon="8.059941"><ele>185.33333333333334</ele><time>2026-04-10T10:51:18.843Z</time></trkpt><trkpt lat="44.988436" lon="8.0600142"><ele>186.0</ele><time>2026-04-10T10:51:19.843Z</time></trkpt><trkpt lat="44.9884737" lon="8.0600903"><ele>186.66666666666666</ele><time>2026-04-10T10:51:20.842Z</time></trkpt><trkpt lat="44.9885114" lon="8.0601658"><ele>187.33333333333331</ele><time>2026-04-10T10:51:21.842Z</time></trkpt><trkpt lat="44.9885543" lon="8.060242"><ele>188.0</ele><time>2026-04-10T10:51:22.842Z</time></trkpt><trkpt lat="44.988637" lon="8.060376"><ele>188.0</ele><time>2026-04-10T10:51:24.842Z</time></trkpt><trkpt lat="44.9886807" lon="8.0604424"><ele>188.0</ele><time>2026-04-10T10:51:25.842Z</time></trkpt><trkpt lat="44.9887262" lon="8.0605061"><ele>188.0</ele><time>2026-04-10T10:51:26.843Z</time></trkpt><trkpt lat="44.988769" lon="8.0605755"><ele>188.0</ele><time>2026-04-10T10:51:27.842Z</time></trkpt><trkpt lat="44.9888117" lon="8.0606543"><ele>188.0</ele><time>2026-04-10T10:51:28.842Z</time></trkpt><trkpt lat="44.9888582" lon="8.0607244"><ele>188.0</ele><time>2026-04-10T10:51:29.841Z</time></trkpt><trkpt lat="44.9889081" lon="8.0607981"><ele>188.0</ele><time>2026-04-10T10:51:30.843Z</time></trkpt><trkpt lat="44.9889589" lon="8.0608711"><ele>188.0</ele><time>2026-04-10T10:51:31.842Z</time></trkpt><trkpt lat="44.989012" lon="8.0609305"><ele>188.0</ele><time>2026-04-10T10:51:32.842Z</time></trkpt><trkpt lat="44.9890707" lon="8.0609904"><ele>188.0</ele><time>2026-04-10T10:51:33.842Z</time></trkpt><trkpt lat="44.9891293" lon="8.0610425"><ele>188.0</ele><time>2026-04-10T10:51:34.843Z</time></trkpt><trkpt lat="44.9891847" lon="8.0610853"><ele>188.0</ele><time>2026-04-10T10:51:35.843Z</time></trkpt><trkpt lat="44.9892429" lon="8.0611286"><ele>188.0</ele><time>2026-04-10T10:51:36.841Z</time></trkpt><trkpt lat="44.9893079" lon="8.0611693"><ele>188.0</ele><time>2026-04-10T10:51:37.843Z</time></trkpt><trkpt lat="44.9893674" lon="8.0612073"><ele>188.0</ele><time>2026-04-10T10:51:38.842Z</time></trkpt><trkpt lat="44.9894307" lon="8.0612342"><ele>188.0</ele><time>2026-04-10T10:51:39.841Z</time></trkpt><trkpt lat="44.9895049" lon="8.061258"><ele>188.0</ele><time>2026-04-10T10:51:40.841Z</time></trkpt><trkpt lat="44.9895718" lon="8.0612788"><ele>188.0</ele><time>2026-04-10T10:51:41.842Z</time></trkpt><trkpt lat="44.9896387" lon="8.0612891"><ele>188.0</ele><time>2026-04-10T10:51:42.841Z</time></trkpt><trkpt lat="44.9897113" lon="8.0612962"><ele>188.0</ele><time>2026-04-10T10:51:43.842Z</time></trkpt><trkpt lat="44.9897809" lon="8.0612969"><ele>188.0</ele><time>2026-04-10T10:51:44.842Z</time></trkpt><trkpt lat="44.9898474" lon="8.0612969"><ele>188.0</ele><time>2026-04-10T10:51:45.841Z</time></trkpt><trkpt lat="44.9899142" lon="8.0612858"><ele>188.0</ele><time>2026-04-10T10:51:46.842Z</time></trkpt><trkpt lat="44.9899827" lon="8.0612794"><ele>188.0</ele><time>2026-04-10T10:51:47.841Z</time></trkpt><trkpt lat="44.9900491" lon="8.0612742"><ele>188.0</ele><time>2026-04-10T10:51:48.843Z</time></trkpt><trkpt lat="44.9901119" lon="8.0612622"><ele>188.0</ele><time>2026-04-10T10:51:49.842Z</time></trkpt><trkpt lat="44.9902425" lon="8.0612396"><ele>188.0</ele><time>2026-04-10T10:51:51.842Z</time></trkpt><trkpt lat="44.9903669" lon="8.0612166"><ele>187.71428571428572</ele><time>2026-04-10T10:51:53.843Z</time></trkpt><trkpt lat="44.9904314" lon="8.061212"><ele>187.42857142857142</ele><time>2026-04-10T10:51:54.842Z</time></trkpt><trkpt lat="44.9904941" lon="8.0612001"><ele>187.14285714285717</ele><time>2026-04-10T10:51:55.841Z</time></trkpt><trkpt lat="44.9905567" lon="8.0611839"><ele>186.85714285714286</ele><time>2026-04-10T10:51:56.841Z</time></trkpt><trkpt lat="44.9906207" lon="8.0611776"><ele>186.57142857142858</ele><time>2026-04-10T10:51:57.842Z</time></trkpt><trkpt lat="44.990689" lon="8.0611691"><ele>186.2857142857143</ele><time>2026-04-10T10:51:58.843Z</time></trkpt><trkpt lat="44.9907527" lon="8.0611661"><ele>186.0</ele><time>2026-04-10T10:51:59.842Z</time></trkpt><trkpt lat="44.9908823" lon="8.0611491"><ele>187.5</ele><time>2026-04-10T10:52:01.842Z</time></trkpt><trkpt lat="44.9910027" lon="8.0611226"><ele>189.0</ele><time>2026-04-10T10:52:03.844Z</time></trkpt><trkpt lat="44.9911277" lon="8.0610981"><ele>190.5</ele><time>2026-04-10T10:52:05.842Z</time></trkpt><trkpt lat="44.9912629" lon="8.0610737"><ele>192.0</ele><time>2026-04-10T10:52:07.842Z</time></trkpt><trkpt lat="44.9913917" lon="8.0610522"><ele>192.0</ele><time>2026-04-10T10:52:09.841Z</time></trkpt><trkpt lat="44.991458" lon="8.061035"><ele>192.0</ele><time>2026-04-10T10:52:10.842Z</time></trkpt><trkpt lat="44.9915238" lon="8.0610237"><ele>192.0</ele><time>2026-04-10T10:52:11.842Z</time></trkpt><trkpt lat="44.9916409" lon="8.0610015"><ele>192.0</ele><time>2026-04-10T10:52:13.842Z</time></trkpt><trkpt lat="44.9917084" lon="8.0609941"><ele>192.0</ele><time>2026-04-10T10:52:14.844Z</time></trkpt><trkpt lat="44.9917718" lon="8.060993"><ele>192.0</ele><time>2026-04-10T10:52:15.842Z</time></trkpt><trkpt lat="44.9918434" lon="8.0609823"><ele>190.83333333333334</ele><time>2026-04-10T10:52:16.842Z</time></trkpt><trkpt lat="44.9919133" lon="8.0609666"><ele>189.66666666666666</ele><time>2026-04-10T10:52:17.841Z</time></trkpt><trkpt lat="44.9919779" lon="8.0609582"><ele>188.5</ele><time>2026-04-10T10:52:18.841Z</time></trkpt><trkpt lat="44.9921015" lon="8.0609203"><ele>187.33333333333331</ele><time>2026-04-10T10:52:20.841Z</time></trkpt><trkpt lat="44.992169" lon="8.0609053"><ele>186.16666666666666</ele><time>2026-04-10T10:52:21.842Z</time></trkpt><trkpt lat="44.9922354" lon="8.0608908"><ele>185.0</ele><time>2026-04-10T10:52:22.842Z</time></trkpt><trkpt lat="44.9923079" lon="8.0608698"><ele>185.0</ele><time>2026-04-10T10:52:23.841Z</time></trkpt><trkpt lat="44.9923771" lon="8.0608727"><ele>185.0</ele><time>2026-04-10T10:52:24.841Z</time></trkpt><trkpt lat="44.9924433" lon="8.0608739"><ele>185.0</ele><time>2026-04-10T10:52:25.842Z</time></trkpt><trkpt lat="44.9925685" lon="8.0608486"><ele>185.0</ele><time>2026-04-10T10:52:27.841Z</time></trkpt><trkpt lat="44.9927001" lon="8.0608322"><ele>185.0</ele><time>2026-04-10T10:52:29.842Z</time></trkpt><trkpt lat="44.9928314" lon="8.0608204"><ele>184.99999999999997</ele><time>2026-04-10T10:52:31.841Z</time></trkpt><trkpt lat="44.9928952" lon="8.0608012"><ele>185.0</ele><time>2026-04-10T10:52:32.841Z</time></trkpt><trkpt lat="44.9930142" lon="8.0607887"><ele>185.0</ele><time>2026-04-10T10:52:34.842Z</time></trkpt><trkpt lat="44.9930775" lon="8.0607836"><ele>185.0</ele><time>2026-04-10T10:52:35.842Z</time></trkpt><trkpt lat="44.9931428" lon="8.0607781"><ele>185.0</ele><time>2026-04-10T10:52:36.843Z</time></trkpt><trkpt lat="44.9932081" lon="8.0607658"><ele>184.99999999999997</ele><time>2026-04-10T10:52:37.842Z</time></trkpt><trkpt lat="44.9932734" lon="8.0607582"><ele>185.0</ele><time>2026-04-10T10:52:38.843Z</time></trkpt><trkpt lat="44.9933374" lon="8.0607511"><ele>185.57142857142856</ele><time>2026-04-10T10:52:39.841Z</time></trkpt><trkpt lat="44.9934023" lon="8.060741"><ele>186.14285714285714</ele><time>2026-04-10T10:52:40.844Z</time></trkpt><trkpt lat="44.9934667" lon="8.0607296"><ele>186.71428571428572</ele><time>2026-04-10T10:52:41.843Z</time></trkpt><trkpt lat="44.9935323" lon="8.0607186"><ele>187.28571428571428</ele><time>2026-04-10T10:52:42.842Z</time></trkpt><trkpt lat="44.993599" lon="8.0607102"><ele>187.85714285714286</ele><time>2026-04-10T10:52:43.842Z</time></trkpt><trkpt lat="44.9936657" lon="8.0607068"><ele>188.42857142857142</ele><time>2026-04-10T10:52:44.842Z</time></trkpt><trkpt lat="44.9937285" lon="8.0606875"><ele>189.0</ele><time>2026-04-10T10:52:45.843Z</time></trkpt><trkpt lat="44.9937965" lon="8.0606862"><ele>189.0</ele><time>2026-04-10T10:52:46.842Z</time></trkpt><trkpt lat="44.9938633" lon="8.0606752"><ele>189.0</ele><time>2026-04-10T10:52:47.843Z</time></trkpt><trkpt lat="44.9939297" lon="8.0606634"><ele>189.0</ele><time>2026-04-10T10:52:48.842Z</time></trkpt><trkpt lat="44.9939987" lon="8.0606524"><ele>189.0</ele><time>2026-04-10T10:52:49.841Z</time></trkpt><trkpt lat="44.994064" lon="8.0606465"><ele>189.0</ele><time>2026-04-10T10:52:50.842Z</time></trkpt><trkpt lat="44.9941341" lon="8.0606318"><ele>189.0</ele><time>2026-04-10T10:52:51.842Z</time></trkpt><trkpt lat="44.9942001" lon="8.0606293"><ele>189.0</ele><time>2026-04-10T10:52:52.842Z</time></trkpt><trkpt lat="44.9942677" lon="8.0606165"><ele>189.57142857142858</ele><time>2026-04-10T10:52:53.842Z</time></trkpt><trkpt lat="44.9943368" lon="8.0605898"><ele>190.14285714285714</ele><time>2026-04-10T10:52:54.842Z</time></trkpt><trkpt lat="44.9944072" lon="8.060577"><ele>190.71428571428572</ele><time>2026-04-10T10:52:55.843Z</time></trkpt><trkpt lat="44.9944788" lon="8.0605634"><ele>191.28571428571428</ele><time>2026-04-10T10:52:56.843Z</time></trkpt><trkpt lat="44.9945531" lon="8.060536"><ele>191.85714285714286</ele><time>2026-04-10T10:52:57.842Z</time></trkpt><trkpt lat="44.9946166" lon="8.0605237"><ele>192.42857142857144</ele><time>2026-04-10T10:52:58.843Z</time></trkpt><trkpt lat="44.9946835" lon="8.0605193"><ele>193.0</ele><time>2026-04-10T10:52:59.842Z</time></trkpt><trkpt lat="44.9947469" lon="8.0605066"><ele>193.00000000000003</ele><time>2026-04-10T10:53:00.841Z</time></trkpt><trkpt lat="44.9948165" lon="8.0604995"><ele>193.0</ele><time>2026-04-10T10:53:01.843Z</time></trkpt><trkpt lat="44.9948803" lon="8.0604915"><ele>193.0</ele><time>2026-04-10T10:53:02.843Z</time></trkpt><trkpt lat="44.9949439" lon="8.0604856"><ele>193.0</ele><time>2026-04-10T10:53:03.841Z</time></trkpt><trkpt lat="44.9950079" lon="8.0604752"><ele>193.0</ele><time>2026-04-10T10:53:04.842Z</time></trkpt><trkpt lat="44.9950702" lon="8.0604581"><ele>193.00000000000003</ele><time>2026-04-10T10:53:05.841Z</time></trkpt><trkpt lat="44.9951868" lon="8.060444"><ele>193.0</ele><time>2026-04-10T10:53:07.843Z</time></trkpt><trkpt lat="44.9953127" lon="8.0604258"><ele>192.49999999999997</ele><time>2026-04-10T10:53:09.841Z</time></trkpt><trkpt lat="44.9953886" lon="8.0604042"><ele>192.0</ele><time>2026-04-10T10:53:10.843Z</time></trkpt><trkpt lat="44.9954527" lon="8.0603956"><ele>191.5</ele><time>2026-04-10T10:53:11.842Z</time></trkpt><trkpt lat="44.9955191" lon="8.0603779"><ele>191.0</ele><time>2026-04-10T10:53:12.842Z</time></trkpt><trkpt lat="44.9956404" lon="8.0603668"><ele>190.5</ele><time>2026-04-10T10:53:14.841Z</time></trkpt><trkpt lat="44.9957069" lon="8.0603812"><ele>190.0</ele><time>2026-04-10T10:53:15.841Z</time></trkpt><trkpt lat="44.9957753" lon="8.0603786"><ele>190.0</ele><time>2026-04-10T10:53:16.842Z</time></trkpt><trkpt lat="44.99584" lon="8.060366"><ele>190.0</ele><time>2026-04-10T10:53:17.841Z</time></trkpt><trkpt lat="44.9959105" lon="8.0603539"><ele>190.0</ele><time>2026-04-10T10:53:18.841Z</time></trkpt><trkpt lat="44.9959765" lon="8.0603475"><ele>190.0</ele><time>2026-04-10T10:53:19.841Z</time></trkpt><trkpt lat="44.9961008" lon="8.0603179"><ele>190.0</ele><time>2026-04-10T10:53:21.842Z</time></trkpt><trkpt lat="44.9961753" lon="8.0603088"><ele>190.0</ele><time>2026-04-10T10:53:22.843Z</time></trkpt><trkpt lat="44.9962399" lon="8.0602885"><ele>190.0</ele><time>2026-04-10T10:53:23.843Z</time></trkpt><trkpt lat="44.9963053" lon="8.0602716"><ele>190.0</ele><time>2026-04-10T10:53:24.842Z</time></trkpt><trkpt lat="44.9963729" lon="8.0602644"><ele>190.0</ele><time>2026-04-10T10:53:25.842Z</time></trkpt><trkpt lat="44.9964408" lon="8.0602533"><ele>190.0</ele><time>2026-04-10T10:53:26.843Z</time></trkpt><trkpt lat="44.9965669" lon="8.0602414"><ele>190.0</ele><time>2026-04-10T10:53:28.842Z</time></trkpt><trkpt lat="44.9966365" lon="8.0602264"><ele>190.0</ele><time>2026-04-10T10:53:29.842Z</time></trkpt><trkpt lat="44.9967088" lon="8.0602048"><ele>190.0</ele><time>2026-04-10T10:53:30.842Z</time></trkpt><trkpt lat="44.9967784" lon="8.0601893"><ele>190.0</ele><time>2026-04-10T10:53:31.842Z</time></trkpt><trkpt lat="44.9968456" lon="8.0601744"><ele>190.0</ele><time>2026-04-10T10:53:32.842Z</time></trkpt><trkpt lat="44.9969694" lon="8.060134"><ele>190.0</ele><time>2026-04-10T10:53:34.842Z</time></trkpt><trkpt lat="44.997033" lon="8.0601216"><ele>190.0</ele><time>2026-04-10T10:53:35.842Z</time></trkpt><trkpt lat="44.9970995" lon="8.0601226"><ele>190.0</ele><time>2026-04-10T10:53:36.842Z</time></trkpt><trkpt lat="44.9971772" lon="8.0601098"><ele>190.0</ele><time>2026-04-10T10:53:37.841Z</time></trkpt><trkpt lat="44.997246" lon="8.0601072"><ele>190.0</ele><time>2026-04-10T10:53:38.843Z</time></trkpt><trkpt lat="44.9973145" lon="8.060086"><ele>190.0</ele><time>2026-04-10T10:53:39.842Z</time></trkpt><trkpt lat="44.9973833" lon="8.0600716"><ele>190.0</ele><time>2026-04-10T10:53:40.842Z</time></trkpt><trkpt lat="44.9974518" lon="8.0600632"><ele>190.0</ele><time>2026-04-10T10:53:41.843Z</time></trkpt><trkpt lat="44.9975254" lon="8.0600385"><ele>190.0</ele><time>2026-04-10T10:53:42.842Z</time></trkpt><trkpt lat="44.9976473" lon="8.0600192"><ele>190.14285714285714</ele><time>2026-04-10T10:53:44.843Z</time></trkpt><trkpt lat="44.997712" lon="8.0600111"><ele>190.28571428571428</ele><time>2026-04-10T10:53:45.841Z</time></trkpt><trkpt lat="44.9977819" lon="8.0600046"><ele>190.42857142857144</ele><time>2026-04-10T10:53:46.842Z</time></trkpt><trkpt lat="44.9978493" lon="8.0599849"><ele>190.57142857142856</ele><time>2026-04-10T10:53:47.841Z</time></trkpt><trkpt lat="44.9979152" lon="8.0599753"><ele>190.7142857142857</ele><time>2026-04-10T10:53:48.842Z</time></trkpt><trkpt lat="44.9979845" lon="8.059971"><ele>190.85714285714286</ele><time>2026-04-10T10:53:49.841Z</time></trkpt><trkpt lat="44.9980483" lon="8.0599555"><ele>191.0</ele><time>2026-04-10T10:53:50.842Z</time></trkpt><trkpt lat="44.998121" lon="8.0599423"><ele>191.14285714285714</ele><time>2026-04-10T10:53:51.842Z</time></trkpt><trkpt lat="44.9981859" lon="8.0599358"><ele>191.28571428571428</ele><time>2026-04-10T10:53:52.842Z</time></trkpt><trkpt lat="44.9982494" lon="8.0599269"><ele>191.42857142857142</ele><time>2026-04-10T10:53:53.842Z</time></trkpt><trkpt lat="44.9983155" lon="8.0599095"><ele>191.57142857142856</ele><time>2026-04-10T10:53:54.843Z</time></trkpt><trkpt lat="44.9983786" lon="8.0598956"><ele>191.71428571428572</ele><time>2026-04-10T10:53:55.842Z</time></trkpt><trkpt lat="44.9985025" lon="8.0598897"><ele>191.85714285714283</ele><time>2026-04-10T10:53:57.844Z</time></trkpt><trkpt lat="44.9985656" lon="8.0598769"><ele>192.0</ele><time>2026-04-10T10:53:58.843Z</time></trkpt><trkpt lat="44.9986921" lon="8.0598568"><ele>192.85714285714283</ele><time>2026-04-10T10:54:00.842Z</time></trkpt><trkpt lat="44.998759" lon="8.0598442"><ele>193.71428571428572</ele><time>2026-04-10T10:54:01.842Z</time></trkpt><trkpt lat="44.9988233" lon="8.0598328"><ele>194.57142857142856</ele><time>2026-04-10T10:54:02.842Z</time></trkpt><trkpt lat="44.9988899" lon="8.0598219"><ele>195.42857142857142</ele><time>2026-04-10T10:54:03.842Z</time></trkpt><trkpt lat="44.9989535" lon="8.0598137"><ele>196.28571428571428</ele><time>2026-04-10T10:54:04.842Z</time></trkpt><trkpt lat="44.9990146" lon="8.0597912"><ele>197.14285714285714</ele><time>2026-04-10T10:54:05.841Z</time></trkpt><trkpt lat="44.9990847" lon="8.0597742"><ele>198.0</ele><time>2026-04-10T10:54:06.841Z</time></trkpt><trkpt lat="44.9991509" lon="8.0597691"><ele>199.2</ele><time>2026-04-10T10:54:07.842Z</time></trkpt><trkpt lat="44.99928" lon="8.0597451"><ele>200.4</ele><time>2026-04-10T10:54:09.843Z</time></trkpt><trkpt lat="44.9993428" lon="8.0597372"><ele>201.6</ele><time>2026-04-10T10:54:10.843Z</time></trkpt><trkpt lat="44.9994123" lon="8.0597238"><ele>202.79999999999998</ele><time>2026-04-10T10:54:11.842Z</time></trkpt><trkpt lat="44.9995288" lon="8.0597123"><ele>204.0</ele><time>2026-04-10T10:54:13.841Z</time></trkpt><trkpt lat="44.9996072" lon="8.059698"><ele>204.0</ele><time>2026-04-10T10:54:14.843Z</time></trkpt><trkpt lat="44.9996789" lon="8.0597013"><ele>204.0</ele><time>2026-04-10T10:54:15.842Z</time></trkpt><trkpt lat="44.9997551" lon="8.0596634"><ele>204.0</ele><time>2026-04-10T10:54:16.841Z</time></trkpt><trkpt lat="44.9998795" lon="8.0596435"><ele>204.0</ele><time>2026-04-10T10:54:18.843Z</time></trkpt><trkpt lat="44.9999938" lon="8.0596343"><ele>204.0</ele><time>2026-04-10T10:54:20.844Z</time></trkpt><trkpt lat="45.0000617" lon="8.0596312"><ele>204.0</ele><time>2026-04-10T10:54:21.841Z</time></trkpt><trkpt lat="45.0001301" lon="8.059626"><ele>204.0</ele><time>2026-04-10T10:54:22.841Z</time></trkpt><trkpt lat="45.0002016" lon="8.0596118"><ele>204.0</ele><time>2026-04-10T10:54:23.842Z</time></trkpt><trkpt lat="45.0002781" lon="8.0596007"><ele>204.0</ele><time>2026-04-10T10:54:24.841Z</time></trkpt><trkpt lat="45.0003454" lon="8.0596069"><ele>204.0</ele><time>2026-04-10T10:54:25.842Z</time></trkpt><trkpt lat="45.0004228" lon="8.0596018"><ele>204.0</ele><time>2026-04-10T10:54:26.841Z</time></trkpt><trkpt lat="45.0004967" lon="8.0596088"><ele>204.0</ele><time>2026-04-10T10:54:27.841Z</time></trkpt><trkpt lat="45.0006382" lon="8.0596388"><ele>204.0</ele><time>2026-04-10T10:54:29.844Z</time></trkpt><trkpt lat="45.0007121" lon="8.0596522"><ele>204.0</ele><time>2026-04-10T10:54:30.842Z</time></trkpt><trkpt lat="45.0007795" lon="8.0596605"><ele>204.0</ele><time>2026-04-10T10:54:31.842Z</time></trkpt><trkpt lat="45.0008414" lon="8.0596808"><ele>204.0</ele><time>2026-04-10T10:54:32.841Z</time></trkpt><trkpt lat="45.0009067" lon="8.0597013"><ele>204.0</ele><time>2026-04-10T10:54:33.842Z</time></trkpt><trkpt lat="45.0009843" lon="8.0597451"><ele>204.0</ele><time>2026-04-10T10:54:34.842Z</time></trkpt><trkpt lat="45.001058" lon="8.0597726"><ele>204.0</ele><time>2026-04-10T10:54:35.842Z</time></trkpt><trkpt lat="45.00113" lon="8.0598091"><ele>202.66666666666666</ele><time>2026-04-10T10:54:36.843Z</time></trkpt><trkpt lat="45.001195" lon="8.0598356"><ele>201.33333333333331</ele><time>2026-04-10T10:54:37.842Z</time></trkpt><trkpt lat="45.0012565" lon="8.0598575"><ele>200.0</ele><time>2026-04-10T10:54:38.843Z</time></trkpt><trkpt lat="45.0013236" lon="8.0598888"><ele>198.66666666666666</ele><time>2026-04-10T10:54:39.842Z</time></trkpt><trkpt lat="45.0013904" lon="8.0599233"><ele>197.33333333333331</ele><time>2026-04-10T10:54:40.842Z</time></trkpt><trkpt lat="45.0014511" lon="8.0599682"><ele>196.0</ele><time>2026-04-10T10:54:41.842Z</time></trkpt><trkpt lat="45.0015738" lon="8.0600315"><ele>195.60000000000002</ele><time>2026-04-10T10:54:43.842Z</time></trkpt><trkpt lat="45.0016963" lon="8.0600865"><ele>195.2</ele><time>2026-04-10T10:54:45.841Z</time></trkpt><trkpt lat="45.0017617" lon="8.0601264"><ele>194.8</ele><time>2026-04-10T10:54:46.842Z</time></trkpt><trkpt lat="45.0018874" lon="8.0601784"><ele>194.39999999999998</ele><time>2026-04-10T10:54:48.842Z</time></trkpt><trkpt lat="45.0019526" lon="8.0602151"><ele>194.0</ele><time>2026-04-10T10:54:49.842Z</time></trkpt><trkpt lat="45.0020136" lon="8.0602521"><ele>194.00000000000003</ele><time>2026-04-10T10:54:50.842Z</time></trkpt><trkpt lat="45.0020833" lon="8.0602887"><ele>194.0</ele><time>2026-04-10T10:54:51.841Z</time></trkpt><trkpt lat="45.0022068" lon="8.0603601"><ele>194.0</ele><time>2026-04-10T10:54:53.842Z</time></trkpt><trkpt lat="45.0022661" lon="8.0603949"><ele>194.0</ele><time>2026-04-10T10:54:54.841Z</time></trkpt><trkpt lat="45.0023364" lon="8.0604234"><ele>194.00000000000003</ele><time>2026-04-10T10:54:55.841Z</time></trkpt><trkpt lat="45.0024003" lon="8.0604613"><ele>194.0</ele><time>2026-04-10T10:54:56.842Z</time></trkpt><trkpt lat="45.0024645" lon="8.0604947"><ele>195.28571428571428</ele><time>2026-04-10T10:54:57.841Z</time></trkpt><trkpt lat="45.0025259" lon="8.0605206"><ele>196.57142857142858</ele><time>2026-04-10T10:54:58.842Z</time></trkpt><trkpt lat="45.0025882" lon="8.0605539"><ele>197.85714285714286</ele><time>2026-04-10T10:54:59.843Z</time></trkpt><trkpt lat="45.0026489" lon="8.0605869"><ele>199.14285714285714</ele><time>2026-04-10T10:55:00.842Z</time></trkpt><trkpt lat="45.0027148" lon="8.0606197"><ele>200.42857142857144</ele><time>2026-04-10T10:55:01.841Z</time></trkpt><trkpt lat="45.0027786" lon="8.0606477"><ele>201.71428571428572</ele><time>2026-04-10T10:55:02.841Z</time></trkpt><trkpt lat="45.0028394" lon="8.0606825"><ele>203.0</ele><time>2026-04-10T10:55:03.841Z</time></trkpt><trkpt lat="45.002965" lon="8.0607345"><ele>203.00000000000003</ele><time>2026-04-10T10:55:05.842Z</time></trkpt><trkpt lat="45.0030318" lon="8.060779"><ele>203.0</ele><time>2026-04-10T10:55:06.842Z</time></trkpt><trkpt lat="45.0031516" lon="8.0608462"><ele>203.0</ele><time>2026-04-10T10:55:08.841Z</time></trkpt><trkpt lat="45.0032211" lon="8.0608782"><ele>203.0</ele><time>2026-04-10T10:55:09.841Z</time></trkpt><trkpt lat="45.0032889" lon="8.0609187"><ele>203.00000000000003</ele><time>2026-04-10T10:55:10.843Z</time></trkpt><trkpt lat="45.0033492" lon="8.0609511"><ele>203.0</ele><time>2026-04-10T10:55:11.842Z</time></trkpt><trkpt lat="45.0034711" lon="8.0610099"><ele>202.0</ele><time>2026-04-10T10:55:13.841Z</time></trkpt><trkpt lat="45.0035328" lon="8.0610428"><ele>201.0</ele><time>2026-04-10T10:55:14.842Z</time></trkpt><trkpt lat="45.0036647" lon="8.0611142"><ele>200.0</ele><time>2026-04-10T10:55:16.842Z</time></trkpt><trkpt lat="45.0037287" lon="8.0611421"><ele>199.0</ele><time>2026-04-10T10:55:17.843Z</time></trkpt><trkpt lat="45.0038458" lon="8.0611901"><ele>198.0</ele><time>2026-04-10T10:55:19.842Z</time></trkpt><trkpt lat="45.0039103" lon="8.0612163"><ele>198.0</ele><time>2026-04-10T10:55:20.842Z</time></trkpt><trkpt lat="45.0039737" lon="8.0612392"><ele>198.0</ele><time>2026-04-10T10:55:21.842Z</time></trkpt><trkpt lat="45.0040335" lon="8.0612676"><ele>198.0</ele><time>2026-04-10T10:55:22.841Z</time></trkpt><trkpt lat="45.0041576" lon="8.0613158"><ele>198.0</ele><time>2026-04-10T10:55:24.841Z</time></trkpt><trkpt lat="45.0042711" lon="8.0613504"><ele>198.0</ele><time>2026-04-10T10:55:26.842Z</time></trkpt><trkpt lat="45.0043343" lon="8.0613643"><ele>198.0</ele><time>2026-04-10T10:55:27.841Z</time></trkpt><trkpt lat="45.0044467" lon="8.0613915"><ele>198.0</ele><time>2026-04-10T10:55:29.843Z</time></trkpt><trkpt lat="45.0045474" lon="8.0614076"><ele>198.0</ele><time>2026-04-10T10:55:31.841Z</time></trkpt><trkpt lat="45.0046166" lon="8.06145"><ele>198.0</ele><time>2026-04-10T10:55:33.843Z</time></trkpt><trkpt lat="45.004612" lon="8.061568"><ele>198.0</ele><time>2026-04-10T10:55:35.842Z</time></trkpt><trkpt lat="45.0045907" lon="8.0616842"><ele>198.0</ele><time>2026-04-10T10:55:37.842Z</time></trkpt><trkpt lat="45.0045654" lon="8.0618214"><ele>198.0</ele><time>2026-04-10T10:55:39.841Z</time></trkpt><trkpt lat="45.0045457" lon="8.0619518"><ele>197.0</ele><time>2026-04-10T10:55:41.842Z</time></trkpt><trkpt lat="45.004533" lon="8.0620924"><ele>196.0</ele><time>2026-04-10T10:55:43.843Z</time></trkpt><trkpt lat="45.0045133" lon="8.062241"><ele>195.0</ele><time>2026-04-10T10:55:45.841Z</time></trkpt><trkpt lat="45.0044888" lon="8.0623946"><ele>194.0</ele><time>2026-04-10T10:55:47.843Z</time></trkpt><trkpt lat="45.0044665" lon="8.0626649"><ele>193.85714285714286</ele><time>2026-04-10T10:55:50.842Z</time></trkpt><trkpt lat="45.0044666" lon="8.062755"><ele>193.71428571428572</ele><time>2026-04-10T10:55:51.842Z</time></trkpt><trkpt lat="45.0044628" lon="8.0628471"><ele>193.57142857142858</ele><time>2026-04-10T10:55:52.842Z</time></trkpt><trkpt lat="45.0044604" lon="8.062943"><ele>193.42857142857144</ele><time>2026-04-10T10:55:53.842Z</time></trkpt><trkpt lat="45.0044609" lon="8.0630409"><ele>193.28571428571428</ele><time>2026-04-10T10:55:54.841Z</time></trkpt><trkpt lat="45.0044706" lon="8.063129"><ele>193.14285714285717</ele><time>2026-04-10T10:55:55.842Z</time></trkpt><trkpt lat="45.0044744" lon="8.0632199"><ele>193.0</ele><time>2026-04-10T10:55:56.841Z</time></trkpt><trkpt lat="45.0044794" lon="8.0633105"><ele>192.99999999999997</ele><time>2026-04-10T10:55:57.842Z</time></trkpt><trkpt lat="45.0044891" lon="8.0633994"><ele>193.0</ele><time>2026-04-10T10:55:58.843Z</time></trkpt><trkpt lat="45.0044943" lon="8.0634909"><ele>193.0</ele><time>2026-04-10T10:55:59.841Z</time></trkpt><trkpt lat="45.0045034" lon="8.0635793"><ele>193.0</ele><time>2026-04-10T10:56:00.842Z</time></trkpt><trkpt lat="45.0045144" lon="8.0637482"><ele>192.99999999999997</ele><time>2026-04-10T10:56:02.842Z</time></trkpt><trkpt lat="45.0045238" lon="8.0639035"><ele>193.0</ele><time>2026-04-10T10:56:04.842Z</time></trkpt><trkpt lat="45.0045356" lon="8.064032"><ele>192.99999999999997</ele><time>2026-04-10T10:56:06.842Z</time></trkpt><trkpt lat="45.0045936" lon="8.0640865"><ele>193.0</ele><time>2026-04-10T10:56:08.842Z</time></trkpt><trkpt lat="45.0046406" lon="8.0640249"><ele>193.0</ele><time>2026-04-10T10:56:10.843Z</time></trkpt><trkpt lat="45.0046817" lon="8.063906"><ele>193.0</ele><time>2026-04-10T10:56:12.842Z</time></trkpt><trkpt lat="45.004729" lon="8.0637806"><ele>192.99999999999997</ele><time>2026-04-10T10:56:14.842Z</time></trkpt><trkpt lat="45.00478" lon="8.0636661"><ele>193.0</ele><time>2026-04-10T10:56:16.842Z</time></trkpt><trkpt lat="45.0048358" lon="8.0635669"><ele>192.99999999999997</ele><time>2026-04-10T10:56:18.842Z</time></trkpt><trkpt lat="45.004905" lon="8.0634896"><ele>193.0</ele><time>2026-04-10T10:56:20.841Z</time></trkpt><trkpt lat="45.0049865" lon="8.0634467"><ele>193.0</ele><time>2026-04-10T10:56:22.841Z</time></trkpt><trkpt lat="45.0050601" lon="8.0634096"><ele>193.0</ele><time>2026-04-10T10:56:24.841Z</time></trkpt><trkpt lat="45.0051467" lon="8.0633804"><ele>192.99999999999997</ele><time>2026-04-10T10:56:26.843Z</time></trkpt><trkpt lat="45.0052401" lon="8.0633735"><ele>193.0</ele><time>2026-04-10T10:56:28.842Z</time></trkpt><trkpt lat="45.005327" lon="8.0633974"><ele>193.16666666666666</ele><time>2026-04-10T10:56:30.843Z</time></trkpt><trkpt lat="45.0054305" lon="8.0634351"><ele>193.33333333333331</ele><time>2026-04-10T10:56:33.841Z</time></trkpt><trkpt lat="45.0054979" lon="8.0634636"><ele>193.5</ele><time>2026-04-10T10:56:35.842Z</time></trkpt><trkpt lat="45.0055761" lon="8.0634847"><ele>193.66666666666669</ele><time>2026-04-10T10:56:37.843Z</time></trkpt><trkpt lat="45.005642" lon="8.063478"><ele>193.83333333333334</ele><time>2026-04-10T10:56:39.841Z</time></trkpt><trkpt lat="45.0057266" lon="8.0634637"><ele>194.0</ele><time>2026-04-10T10:56:41.841Z</time></trkpt><trkpt lat="45.0058261" lon="8.0634596"><ele>194.6</ele><time>2026-04-10T10:56:43.841Z</time></trkpt><trkpt lat="45.0059237" lon="8.0634521"><ele>195.2</ele><time>2026-04-10T10:56:45.842Z</time></trkpt><trkpt lat="45.0060254" lon="8.0634288"><ele>195.79999999999998</ele><time>2026-04-10T10:56:47.841Z</time></trkpt><trkpt lat="45.0061315" lon="8.0634316"><ele>196.39999999999998</ele><time>2026-04-10T10:56:49.842Z</time></trkpt><trkpt lat="45.0062407" lon="8.0634401"><ele>197.0</ele><time>2026-04-10T10:56:51.841Z</time></trkpt><trkpt lat="45.0063396" lon="8.0634548"><ele>197.0</ele><time>2026-04-10T10:56:53.841Z</time></trkpt><trkpt lat="45.0064855" lon="8.063501"><ele>197.0</ele><time>2026-04-10T10:56:56.842Z</time></trkpt><trkpt lat="45.0065727" lon="8.0635311"><ele>197.0</ele><time>2026-04-10T10:56:58.842Z</time></trkpt><trkpt lat="45.0066705" lon="8.0635681"><ele>197.0</ele><time>2026-04-10T10:57:00.841Z</time></trkpt><trkpt lat="45.0067665" lon="8.0635964"><ele>197.0</ele><time>2026-04-10T10:57:02.843Z</time></trkpt><trkpt lat="45.0068566" lon="8.063619"><ele>197.0</ele><time>2026-04-10T10:57:04.842Z</time></trkpt><trkpt lat="45.0069549" lon="8.0636401"><ele>197.0</ele><time>2026-04-10T10:57:06.841Z</time></trkpt><trkpt lat="45.0070567" lon="8.0636745"><ele>197.0</ele><time>2026-04-10T10:57:08.843Z</time></trkpt><trkpt lat="45.007154" lon="8.0637069"><ele>197.0</ele><time>2026-04-10T10:57:10.841Z</time></trkpt><trkpt lat="45.0072564" lon="8.0637494"><ele>197.0</ele><time>2026-04-10T10:57:12.841Z</time></trkpt><trkpt lat="45.0073561" lon="8.063798"><ele>197.0</ele><time>2026-04-10T10:57:14.842Z</time></trkpt><trkpt lat="45.0074481" lon="8.0638629"><ele>197.0</ele><time>2026-04-10T10:57:16.841Z</time></trkpt><trkpt lat="45.0075404" lon="8.0638943"><ele>197.0</ele><time>2026-04-10T10:57:18.841Z</time></trkpt><trkpt lat="45.0076238" lon="8.0639201"><ele>197.0</ele><time>2026-04-10T10:57:20.842Z</time></trkpt><trkpt lat="45.0077153" lon="8.0639632"><ele>197.0</ele><time>2026-04-10T10:57:22.841Z</time></trkpt><trkpt lat="45.0077964" lon="8.0639801"><ele>196.00000000000003</ele><time>2026-04-10T10:57:24.841Z</time></trkpt><trkpt lat="45.0078846" lon="8.063984"><ele>195.0</ele><time>2026-04-10T10:57:26.842Z</time></trkpt><trkpt lat="45.0079737" lon="8.0639531"><ele>194.0</ele><time>2026-04-10T10:57:28.841Z</time></trkpt><trkpt lat="45.0080672" lon="8.0639385"><ele>193.0</ele><time>2026-04-10T10:57:30.841Z</time></trkpt><trkpt lat="45.0081612" lon="8.0639572"><ele>192.0</ele><time>2026-04-10T10:57:32.842Z</time></trkpt><trkpt lat="45.0082342" lon="8.0639694"><ele>191.0</ele><time>2026-04-10T10:57:34.842Z</time></trkpt><trkpt lat="45.0083135" lon="8.0639845"><ele>191.16666666666666</ele><time>2026-04-10T10:57:37.842Z</time></trkpt><trkpt lat="45.0083989" lon="8.0640076"><ele>191.33333333333331</ele><time>2026-04-10T10:57:40.841Z</time></trkpt><trkpt lat="45.0084837" lon="8.0640264"><ele>191.5</ele><time>2026-04-10T10:57:43.841Z</time></trkpt><trkpt lat="45.0085512" lon="8.0640573"><ele>191.66666666666666</ele><time>2026-04-10T10:57:46.842Z</time></trkpt><trkpt lat="45.0086275" lon="8.0640736"><ele>191.83333333333334</ele><time>2026-04-10T10:57:49.842Z</time></trkpt><trkpt lat="45.0086942" lon="8.0640867"><ele>192.0</ele><time>2026-04-10T10:57:51.841Z</time></trkpt><trkpt lat="45.00877" lon="8.0641028"><ele>191.85714285714283</ele><time>2026-04-10T10:57:53.843Z</time></trkpt><trkpt lat="45.0088483" lon="8.0641246"><ele>191.71428571428572</ele><time>2026-04-10T10:57:55.842Z</time></trkpt><trkpt lat="45.0089249" lon="8.0641602"><ele>191.57142857142856</ele><time>2026-04-10T10:57:57.842Z</time></trkpt><trkpt lat="45.008994" lon="8.064195"><ele>191.42857142857142</ele><time>2026-04-10T10:57:59.843Z</time></trkpt><trkpt lat="45.0090577" lon="8.0642135"><ele>191.28571428571428</ele><time>2026-04-10T10:58:01.841Z</time></trkpt><trkpt lat="45.0091251" lon="8.0642221"><ele>191.14285714285714</ele><time>2026-04-10T10:58:03.841Z</time></trkpt><trkpt lat="45.0092002" lon="8.0642288"><ele>191.0</ele><time>2026-04-10T10:58:05.841Z</time></trkpt><trkpt lat="45.009308" lon="8.0642628"><ele>191.33333333333331</ele><time>2026-04-10T10:58:08.842Z</time></trkpt><trkpt lat="45.0093881" lon="8.0642717"><ele>191.66666666666666</ele><time>2026-04-10T10:58:10.841Z</time></trkpt><trkpt lat="45.0094758" lon="8.0642848"><ele>192.0</ele><time>2026-04-10T10:58:12.842Z</time></trkpt><trkpt lat="45.0095641" lon="8.0643019"><ele>192.33333333333331</ele><time>2026-04-10T10:58:14.841Z</time></trkpt><trkpt lat="45.009654" lon="8.0643161"><ele>192.66666666666666</ele><time>2026-04-10T10:58:16.842Z</time></trkpt><trkpt lat="45.0097421" lon="8.06433"><ele>193.0</ele><time>2026-04-10T10:58:18.842Z</time></trkpt><trkpt lat="45.0098288" lon="8.0643454"><ele>192.99999999999997</ele><time>2026-04-10T10:58:20.842Z</time></trkpt><trkpt lat="45.0099276" lon="8.06437"><ele>193.0</ele><time>2026-04-10T10:58:22.843Z</time></trkpt><trkpt lat="45.0100149" lon="8.0644011"><ele>193.0</ele><time>2026-04-10T10:58:24.842Z</time></trkpt><trkpt lat="45.0101051" lon="8.0644197"><ele>193.0</ele><time>2026-04-10T10:58:26.841Z</time></trkpt><trkpt lat="45.0101872" lon="8.0644283"><ele>192.99999999999997</ele><time>2026-04-10T10:58:28.841Z</time></trkpt><trkpt lat="45.0102659" lon="8.0644531"><ele>193.0</ele><time>2026-04-10T10:58:30.842Z</time></trkpt><trkpt lat="45.0103473" lon="8.0644897"><ele>193.16666666666666</ele><time>2026-04-10T10:58:32.841Z</time></trkpt><trkpt lat="45.0104195" lon="8.0645176"><ele>193.33333333333331</ele><time>2026-04-10T10:58:34.842Z</time></trkpt><trkpt lat="45.0105013" lon="8.0645452"><ele>193.5</ele><time>2026-04-10T10:58:36.842Z</time></trkpt><trkpt lat="45.0105833" lon="8.0645769"><ele>193.66666666666669</ele><time>2026-04-10T10:58:38.842Z</time></trkpt><trkpt lat="45.0106667" lon="8.0646048"><ele>193.83333333333334</ele><time>2026-04-10T10:58:40.841Z</time></trkpt><trkpt lat="45.0107478" lon="8.0646409"><ele>194.0</ele><time>2026-04-10T10:58:42.842Z</time></trkpt><trkpt lat="45.0108334" lon="8.064678"><ele>194.2</ele><time>2026-04-10T10:58:44.842Z</time></trkpt><trkpt lat="45.0109243" lon="8.0647097"><ele>194.39999999999998</ele><time>2026-04-10T10:58:46.841Z</time></trkpt><trkpt lat="45.0110146" lon="8.0647436"><ele>194.6</ele><time>2026-04-10T10:58:48.842Z</time></trkpt><trkpt lat="45.0111119" lon="8.0647797"><ele>194.8</ele><time>2026-04-10T10:58:50.841Z</time></trkpt><trkpt lat="45.0111996" lon="8.0648247"><ele>195.0</ele><time>2026-04-10T10:58:52.842Z</time></trkpt><trkpt lat="45.0112939" lon="8.064855"><ele>195.0</ele><time>2026-04-10T10:58:54.842Z</time></trkpt><trkpt lat="45.0113907" lon="8.0648865"><ele>195.0</ele><time>2026-04-10T10:58:56.842Z</time></trkpt><trkpt lat="45.0114845" lon="8.0649098"><ele>195.0</ele><time>2026-04-10T10:58:58.841Z</time></trkpt><trkpt lat="45.0115799" lon="8.064934"><ele>195.0</ele><time>2026-04-10T10:59:00.841Z</time></trkpt><trkpt lat="45.0116815" lon="8.0649708"><ele>195.0</ele><time>2026-04-10T10:59:02.841Z</time></trkpt><trkpt lat="45.0117806" lon="8.0650138"><ele>195.0</ele><time>2026-04-10T10:59:04.841Z</time></trkpt><trkpt lat="45.0118566" lon="8.0650368"><ele>195.0</ele><time>2026-04-10T10:59:06.841Z</time></trkpt><trkpt lat="45.0119403" lon="8.0650561"><ele>195.0</ele><time>2026-04-10T10:59:08.841Z</time></trkpt><trkpt lat="45.0120183" lon="8.0650994"><ele>195.0</ele><time>2026-04-10T10:59:10.842Z</time></trkpt><trkpt lat="45.0121042" lon="8.0651307"><ele>195.0</ele><time>2026-04-10T10:59:12.842Z</time></trkpt><trkpt lat="45.0121864" lon="8.0651618"><ele>195.0</ele><time>2026-04-10T10:59:14.841Z</time></trkpt><trkpt lat="45.0122789" lon="8.0652267"><ele>195.0</ele><time>2026-04-10T10:59:16.843Z</time></trkpt><trkpt lat="45.0123753" lon="8.0652896"><ele>195.0</ele><time>2026-04-10T10:59:18.843Z</time></trkpt><trkpt lat="45.0124776" lon="8.0653652"><ele>195.0</ele><time>2026-04-10T10:59:20.841Z</time></trkpt><trkpt lat="45.0125838" lon="8.0654432"><ele>195.0</ele><time>2026-04-10T10:59:22.842Z</time></trkpt><trkpt lat="45.0126875" lon="8.0655186"><ele>195.4</ele><time>2026-04-10T10:59:24.842Z</time></trkpt><trkpt lat="45.0127897" lon="8.0655996"><ele>195.8</ele><time>2026-04-10T10:59:26.842Z</time></trkpt><trkpt lat="45.0128927" lon="8.0656775"><ele>196.2</ele><time>2026-04-10T10:59:28.842Z</time></trkpt><trkpt lat="45.0129501" lon="8.0657148"><ele>196.6</ele><time>2026-04-10T10:59:29.841Z</time></trkpt><trkpt lat="45.0130553" lon="8.0657866"><ele>197.0</ele><time>2026-04-10T10:59:31.842Z</time></trkpt><trkpt lat="45.0131606" lon="8.0658629"><ele>197.75</ele><time>2026-04-10T10:59:33.841Z</time></trkpt><trkpt lat="45.0132732" lon="8.065913"><ele>198.5</ele><time>2026-04-10T10:59:35.841Z</time></trkpt><trkpt lat="45.013386" lon="8.0659758"><ele>199.25</ele><time>2026-04-10T10:59:37.843Z</time></trkpt><trkpt lat="45.0135006" lon="8.0660464"><ele>200.0</ele><time>2026-04-10T10:59:39.842Z</time></trkpt><trkpt lat="45.0136146" lon="8.0661217"><ele>200.0</ele><time>2026-04-10T10:59:41.842Z</time></trkpt><trkpt lat="45.0137295" lon="8.0661826"><ele>200.0</ele><time>2026-04-10T10:59:43.841Z</time></trkpt><trkpt lat="45.0138434" lon="8.0662526"><ele>200.0</ele><time>2026-04-10T10:59:45.843Z</time></trkpt><trkpt lat="45.0139565" lon="8.0663194"><ele>200.0</ele><time>2026-04-10T10:59:47.841Z</time></trkpt><trkpt lat="45.0140156" lon="8.0663523"><ele>200.0</ele><time>2026-04-10T10:59:48.842Z</time></trkpt><trkpt lat="45.0140754" lon="8.0663851"><ele>200.0</ele><time>2026-04-10T10:59:49.841Z</time></trkpt><trkpt lat="45.0141386" lon="8.0664213"><ele>200.0</ele><time>2026-04-10T10:59:50.843Z</time></trkpt><trkpt lat="45.0142002" lon="8.066452"><ele>200.0</ele><time>2026-04-10T10:59:51.842Z</time></trkpt><trkpt lat="45.0143174" lon="8.0665077"><ele>200.0</ele><time>2026-04-10T10:59:53.842Z</time></trkpt><trkpt lat="45.0144355" lon="8.0665662"><ele>200.0</ele><time>2026-04-10T10:59:55.842Z</time></trkpt><trkpt lat="45.0145594" lon="8.066619"><ele>199.6</ele><time>2026-04-10T10:59:57.842Z</time></trkpt><trkpt lat="45.0146224" lon="8.0666335"><ele>199.2</ele><time>2026-04-10T10:59:58.842Z</time></trkpt><trkpt lat="45.0146849" lon="8.066652"><ele>198.8</ele><time>2026-04-10T10:59:59.842Z</time></trkpt><trkpt lat="45.0148074" lon="8.0666871"><ele>198.4</ele><time>2026-04-10T11:00:01.842Z</time></trkpt><trkpt lat="45.0149239" lon="8.0667305"><ele>198.0</ele><time>2026-04-10T11:00:03.842Z</time></trkpt><trkpt lat="45.015045" lon="8.0667603"><ele>197.83333333333334</ele><time>2026-04-10T11:00:05.841Z</time></trkpt><trkpt lat="45.0151055" lon="8.0667867"><ele>197.66666666666669</ele><time>2026-04-10T11:00:06.843Z</time></trkpt><trkpt lat="45.0151682" lon="8.0668098"><ele>197.5</ele><time>2026-04-10T11:00:07.842Z</time></trkpt><trkpt lat="45.0152865" lon="8.0668552"><ele>197.33333333333334</ele><time>2026-04-10T11:00:09.842Z</time></trkpt><trkpt lat="45.0153503" lon="8.0668789"><ele>197.16666666666669</ele><time>2026-04-10T11:00:10.841Z</time></trkpt><trkpt lat="45.0154136" lon="8.0668975"><ele>197.0</ele><time>2026-04-10T11:00:11.841Z</time></trkpt><trkpt lat="45.0155318" lon="8.0669325"><ele>197.00000000000003</ele><time>2026-04-10T11:00:13.843Z</time></trkpt><trkpt lat="45.0156549" lon="8.0669861"><ele>197.0</ele><time>2026-04-10T11:00:15.842Z</time></trkpt><trkpt lat="45.0157177" lon="8.0670111"><ele>197.0</ele><time>2026-04-10T11:00:16.841Z</time></trkpt><trkpt lat="45.0157798" lon="8.0670338"><ele>197.0</ele><time>2026-04-10T11:00:17.841Z</time></trkpt><trkpt lat="45.015861" lon="8.0670693"><ele>197.00000000000003</ele><time>2026-04-10T11:00:19.841Z</time></trkpt><trkpt lat="45.015788" lon="8.0670277"><ele>197.0</ele><time>2026-04-10T11:00:29.842Z</time></trkpt><trkpt lat="45.0157026" lon="8.0669932"><ele>197.00000000000003</ele><time>2026-04-10T11:00:32.841Z</time></trkpt><trkpt lat="45.0156375" lon="8.0670053"><ele>197.0</ele><time>2026-04-10T11:00:34.841Z</time></trkpt><trkpt lat="45.0156026" lon="8.067088"><ele>197.0</ele><time>2026-04-10T11:00:36.841Z</time></trkpt><trkpt lat="45.0156058" lon="8.0672156"><ele>197.0</ele><time>2026-04-10T11:00:38.842Z</time></trkpt><trkpt lat="45.0156164" lon="8.0673707"><ele>197.00000000000003</ele><time>2026-04-10T11:00:40.842Z</time></trkpt><trkpt lat="45.0156102" lon="8.0675022"><ele>197.0</ele><time>2026-04-10T11:00:42.842Z</time></trkpt><trkpt lat="45.0156073" lon="8.0676329"><ele>197.2</ele><time>2026-04-10T11:00:44.841Z</time></trkpt><trkpt lat="45.0156" lon="8.0677726"><ele>197.39999999999998</ele><time>2026-04-10T11:00:46.842Z</time></trkpt><trkpt lat="45.0155927" lon="8.0679073"><ele>197.60000000000002</ele><time>2026-04-10T11:00:48.843Z</time></trkpt><trkpt lat="45.0155911" lon="8.0680493"><ele>197.8</ele><time>2026-04-10T11:00:50.842Z</time></trkpt><trkpt lat="45.0155821" lon="8.068192"><ele>198.0</ele><time>2026-04-10T11:00:52.842Z</time></trkpt><trkpt lat="45.0155756" lon="8.0683477"><ele>198.2</ele><time>2026-04-10T11:00:54.841Z</time></trkpt><trkpt lat="45.0155656" lon="8.068494"><ele>198.4</ele><time>2026-04-10T11:00:56.843Z</time></trkpt><trkpt lat="45.0155582" lon="8.0686465"><ele>198.6</ele><time>2026-04-10T11:00:58.842Z</time></trkpt><trkpt lat="45.0155526" lon="8.0687966"><ele>198.79999999999998</ele><time>2026-04-10T11:01:00.842Z</time></trkpt><trkpt lat="45.0155455" lon="8.0689477"><ele>199.0</ele><time>2026-04-10T11:01:02.841Z</time></trkpt><trkpt lat="45.0155479" lon="8.0690991"><ele>199.0</ele><time>2026-04-10T11:01:04.841Z</time></trkpt><trkpt lat="45.0155533" lon="8.0692573"><ele>199.0</ele><time>2026-04-10T11:01:06.842Z</time></trkpt><trkpt lat="45.0155662" lon="8.0694145"><ele>199.0</ele><time>2026-04-10T11:01:08.842Z</time></trkpt><trkpt lat="45.0155793" lon="8.0695642"><ele>199.0</ele><time>2026-04-10T11:01:10.841Z</time></trkpt><trkpt lat="45.015582" lon="8.0697238"><ele>199.0</ele><time>2026-04-10T11:01:12.841Z</time></trkpt><trkpt lat="45.0155936" lon="8.0698903"><ele>199.0</ele><time>2026-04-10T11:01:14.841Z</time></trkpt><trkpt lat="45.0156116" lon="8.0700534"><ele>199.0</ele><time>2026-04-10T11:01:16.841Z</time></trkpt><trkpt lat="45.0156263" lon="8.07021"><ele>199.0</ele><time>2026-04-10T11:01:18.841Z</time></trkpt><trkpt lat="45.015652" lon="8.0703601"><ele>199.0</ele><time>2026-04-10T11:01:20.841Z</time></trkpt><trkpt lat="45.0156867" lon="8.0705171"><ele>199.0</ele><time>2026-04-10T11:01:22.842Z</time></trkpt><trkpt lat="45.015723" lon="8.0706735"><ele>199.0</ele><time>2026-04-10T11:01:24.841Z</time></trkpt><trkpt lat="45.0157639" lon="8.0708265"><ele>199.0</ele><time>2026-04-10T11:01:26.842Z</time></trkpt><trkpt lat="45.015797" lon="8.0709724"><ele>199.0</ele><time>2026-04-10T11:01:28.842Z</time></trkpt><trkpt lat="45.0158093" lon="8.0711158"><ele>199.0</ele><time>2026-04-10T11:01:30.842Z</time></trkpt><trkpt lat="45.015804" lon="8.0712555"><ele>199.39999999999998</ele><time>2026-04-10T11:01:32.842Z</time></trkpt><trkpt lat="45.0157954" lon="8.0713981"><ele>199.8</ele><time>2026-04-10T11:01:34.842Z</time></trkpt><trkpt lat="45.0157847" lon="8.0715438"><ele>200.2</ele><time>2026-04-10T11:01:36.84Z</time></trkpt><trkpt lat="45.0157576" lon="8.0716784"><ele>200.60000000000002</ele><time>2026-04-10T11:01:38.841Z</time></trkpt><trkpt lat="45.0157216" lon="8.0718049"><ele>201.0</ele><time>2026-04-10T11:01:40.841Z</time></trkpt><trkpt lat="45.0156904" lon="8.071931"><ele>201.0</ele><time>2026-04-10T11:01:42.841Z</time></trkpt><trkpt lat="45.0156689" lon="8.0720499"><ele>201.0</ele><time>2026-04-10T11:01:44.842Z</time></trkpt><trkpt lat="45.015644" lon="8.0721678"><ele>201.0</ele><time>2026-04-10T11:01:46.842Z</time></trkpt><trkpt lat="45.0156185" lon="8.0722839"><ele>201.0</ele><time>2026-04-10T11:01:48.842Z</time></trkpt><trkpt lat="45.0155841" lon="8.0723907"><ele>201.0</ele><time>2026-04-10T11:01:50.841Z</time></trkpt><trkpt lat="45.0155482" lon="8.0725025"><ele>201.0</ele><time>2026-04-10T11:01:52.841Z</time></trkpt><trkpt lat="45.0155085" lon="8.0726079"><ele>201.16666666666666</ele><time>2026-04-10T11:01:54.842Z</time></trkpt><trkpt lat="45.015463" lon="8.0727123"><ele>201.33333333333331</ele><time>2026-04-10T11:01:56.842Z</time></trkpt><trkpt lat="45.0154112" lon="8.0728305"><ele>201.5</ele><time>2026-04-10T11:01:58.842Z</time></trkpt><trkpt lat="45.0153564" lon="8.0729343"><ele>201.66666666666666</ele><time>2026-04-10T11:02:00.841Z</time></trkpt><trkpt lat="45.0153116" lon="8.0730228"><ele>201.83333333333331</ele><time>2026-04-10T11:02:02.841Z</time></trkpt><trkpt lat="45.0152574" lon="8.0731142"><ele>202.0</ele><time>2026-04-10T11:02:04.841Z</time></trkpt><trkpt lat="45.015205" lon="8.0732101"><ele>202.0</ele><time>2026-04-10T11:02:06.843Z</time></trkpt><trkpt lat="45.015139" lon="8.0733175"><ele>202.0</ele><time>2026-04-10T11:02:08.842Z</time></trkpt><trkpt lat="45.0150845" lon="8.0734195"><ele>202.0</ele><time>2026-04-10T11:02:10.842Z</time></trkpt><trkpt lat="45.0150395" lon="8.0735397"><ele>202.0</ele><time>2026-04-10T11:02:12.841Z</time></trkpt><trkpt lat="45.0149871" lon="8.0736492"><ele>202.0</ele><time>2026-04-10T11:02:14.843Z</time></trkpt><trkpt lat="45.0149457" lon="8.0737493"><ele>202.33333333333331</ele><time>2026-04-10T11:02:16.841Z</time></trkpt><trkpt lat="45.0149095" lon="8.0738583"><ele>202.66666666666666</ele><time>2026-04-10T11:02:18.842Z</time></trkpt><trkpt lat="45.0148741" lon="8.0739663"><ele>203.0</ele><time>2026-04-10T11:02:20.843Z</time></trkpt><trkpt lat="45.0148351" lon="8.0740837"><ele>203.33333333333331</ele><time>2026-04-10T11:02:22.841Z</time></trkpt><trkpt lat="45.0147924" lon="8.0741919"><ele>203.66666666666666</ele><time>2026-04-10T11:02:24.843Z</time></trkpt><trkpt lat="45.0147535" lon="8.0743068"><ele>204.0</ele><time>2026-04-10T11:02:26.841Z</time></trkpt><trkpt lat="45.0147094" lon="8.0744177"><ele>204.16666666666666</ele><time>2026-04-10T11:02:28.843Z</time></trkpt><trkpt lat="45.0146653" lon="8.0745314"><ele>204.33333333333331</ele><time>2026-04-10T11:02:30.842Z</time></trkpt><trkpt lat="45.0146233" lon="8.0746296"><ele>204.5</ele><time>2026-04-10T11:02:32.842Z</time></trkpt><trkpt lat="45.0145915" lon="8.0747415"><ele>204.66666666666666</ele><time>2026-04-10T11:02:34.842Z</time></trkpt><trkpt lat="45.0145443" lon="8.07485"><ele>204.83333333333331</ele><time>2026-04-10T11:02:36.842Z</time></trkpt><trkpt lat="45.0145051" lon="8.0749611"><ele>205.0</ele><time>2026-04-10T11:02:38.841Z</time></trkpt><trkpt lat="45.0144599" lon="8.0750779"><ele>205.2</ele><time>2026-04-10T11:02:40.841Z</time></trkpt><trkpt lat="45.0144072" lon="8.0751895"><ele>205.4</ele><time>2026-04-10T11:02:42.842Z</time></trkpt><trkpt lat="45.0143807" lon="8.0753016"><ele>205.60000000000002</ele><time>2026-04-10T11:02:44.842Z</time></trkpt><trkpt lat="45.0143407" lon="8.075414"><ele>205.8</ele><time>2026-04-10T11:02:46.843Z</time></trkpt><trkpt lat="45.0143022" lon="8.0755288"><ele>206.0</ele><time>2026-04-10T11:02:48.841Z</time></trkpt><trkpt lat="45.0142624" lon="8.0756483"><ele>206.0</ele><time>2026-04-10T11:02:50.84Z</time></trkpt><trkpt lat="45.0142203" lon="8.0757672"><ele>206.0</ele><time>2026-04-10T11:02:52.842Z</time></trkpt><trkpt lat="45.0141814" lon="8.0758859"><ele>206.0</ele><time>2026-04-10T11:02:54.842Z</time></trkpt><trkpt lat="45.0141522" lon="8.0760066"><ele>206.0</ele><time>2026-04-10T11:02:56.841Z</time></trkpt><trkpt lat="45.014114" lon="8.0761273"><ele>206.0</ele><time>2026-04-10T11:02:58.841Z</time></trkpt><trkpt lat="45.0140797" lon="8.0762543"><ele>206.00000000000003</ele><time>2026-04-10T11:03:00.842Z</time></trkpt><trkpt lat="45.014057" lon="8.0763631"><ele>206.0</ele><time>2026-04-10T11:03:02.841Z</time></trkpt><trkpt lat="45.0140436" lon="8.0764665"><ele>206.0</ele><time>2026-04-10T11:03:04.841Z</time></trkpt><trkpt lat="45.0140312" lon="8.0765843"><ele>206.0</ele><time>2026-04-10T11:03:06.842Z</time></trkpt><trkpt lat="45.0140247" lon="8.0767047"><ele>206.00000000000003</ele><time>2026-04-10T11:03:08.841Z</time></trkpt><trkpt lat="45.0140287" lon="8.0768125"><ele>206.0</ele><time>2026-04-10T11:03:10.841Z</time></trkpt><trkpt lat="45.0140346" lon="8.0769061"><ele>206.33333333333334</ele><time>2026-04-10T11:03:40.842Z</time></trkpt><trkpt lat="45.0140175" lon="8.0770101"><ele>206.66666666666669</ele><time>2026-04-10T11:04:39.842Z</time></trkpt><trkpt lat="45.0140239" lon="8.0771247"><ele>207.0</ele><time>2026-04-10T11:04:43.841Z</time></trkpt><trkpt lat="45.0140326" lon="8.0772292"><ele>207.33333333333331</ele><time>2026-04-10T11:04:46.841Z</time></trkpt><trkpt lat="45.0140356" lon="8.0773511"><ele>207.66666666666666</ele><time>2026-04-10T11:04:49.841Z</time></trkpt><trkpt lat="45.014017" lon="8.0774551"><ele>208.0</ele><time>2026-04-10T11:04:52.842Z</time></trkpt><trkpt lat="45.0139741" lon="8.0775482"><ele>208.0</ele><time>2026-04-10T11:04:55.842Z</time></trkpt><trkpt lat="45.013908" lon="8.0776354"><ele>208.0</ele><time>2026-04-10T11:04:58.841Z</time></trkpt><trkpt lat="45.0138593" lon="8.0776929"><ele>208.0</ele><time>2026-04-10T11:05:00.842Z</time></trkpt><trkpt lat="45.0138125" lon="8.0777741"><ele>208.0</ele><time>2026-04-10T11:05:03.842Z</time></trkpt><trkpt lat="45.0137566" lon="8.0778178"><ele>208.0</ele><time>2026-04-10T11:05:16.841Z</time></trkpt><trkpt lat="45.0137096" lon="8.0778793"><ele>208.0</ele><time>2026-04-10T11:05:19.841Z</time></trkpt><trkpt lat="45.0136554" lon="8.0779301"><ele>208.0</ele><time>2026-04-10T11:05:21.842Z</time></trkpt><trkpt lat="45.0136008" lon="8.0779918"><ele>207.99999999999997</ele><time>2026-04-10T11:05:23.842Z</time></trkpt><trkpt lat="45.0135449" lon="8.0780667"><ele>208.0</ele><time>2026-04-10T11:05:25.842Z</time></trkpt><trkpt lat="45.0134861" lon="8.0781424"><ele>208.0</ele><time>2026-04-10T11:05:27.842Z</time></trkpt><trkpt lat="45.0134275" lon="8.0782234"><ele>208.0</ele><time>2026-04-10T11:05:29.841Z</time></trkpt><trkpt lat="45.0133676" lon="8.0783029"><ele>207.99999999999997</ele><time>2026-04-10T11:05:31.843Z</time></trkpt><trkpt lat="45.0133117" lon="8.0783825"><ele>208.0</ele><time>2026-04-10T11:05:33.841Z</time></trkpt><trkpt lat="45.0132582" lon="8.0784647"><ele>208.8</ele><time>2026-04-10T11:05:35.841Z</time></trkpt><trkpt lat="45.0131978" lon="8.0785493"><ele>209.60000000000002</ele><time>2026-04-10T11:05:37.842Z</time></trkpt><trkpt lat="45.0131237" lon="8.0786363"><ele>210.39999999999998</ele><time>2026-04-10T11:05:39.842Z</time></trkpt><trkpt lat="45.0130563" lon="8.0787162"><ele>211.2</ele><time>2026-04-10T11:05:41.842Z</time></trkpt><trkpt lat="45.0129901" lon="8.0788008"><ele>212.0</ele><time>2026-04-10T11:05:43.842Z</time></trkpt><trkpt lat="45.0129166" lon="8.0788819"><ele>212.00000000000003</ele><time>2026-04-10T11:05:45.841Z</time></trkpt><trkpt lat="45.0128462" lon="8.0789675"><ele>212.0</ele><time>2026-04-10T11:05:47.842Z</time></trkpt><trkpt lat="45.0127727" lon="8.079036"><ele>212.0</ele><time>2026-04-10T11:05:49.842Z</time></trkpt><trkpt lat="45.012696" lon="8.079101"><ele>212.0</ele><time>2026-04-10T11:05:51.842Z</time></trkpt><trkpt lat="45.0126374" lon="8.0791613"><ele>212.00000000000003</ele><time>2026-04-10T11:05:53.842Z</time></trkpt><trkpt lat="45.0125771" lon="8.0792078"><ele>212.0</ele><time>2026-04-10T11:05:55.841Z</time></trkpt><trkpt lat="45.0125083" lon="8.0792617"><ele>212.57142857142858</ele><time>2026-04-10T11:05:57.841Z</time></trkpt><trkpt lat="45.0124469" lon="8.0793089"><ele>213.14285714285714</ele><time>2026-04-10T11:05:59.841Z</time></trkpt><trkpt lat="45.0123855" lon="8.07936"><ele>213.71428571428572</ele><time>2026-04-10T11:06:01.841Z</time></trkpt><trkpt lat="45.0123219" lon="8.0794102"><ele>214.28571428571428</ele><time>2026-04-10T11:06:03.841Z</time></trkpt><trkpt lat="45.0122607" lon="8.079459"><ele>214.85714285714283</ele><time>2026-04-10T11:06:05.842Z</time></trkpt><trkpt lat="45.0121966" lon="8.0795117"><ele>215.42857142857142</ele><time>2026-04-10T11:06:07.841Z</time></trkpt><trkpt lat="45.0121404" lon="8.0795728"><ele>216.0</ele><time>2026-04-10T11:06:09.841Z</time></trkpt><trkpt lat="45.0120829" lon="8.0796382"><ele>216.0</ele><time>2026-04-10T11:06:11.842Z</time></trkpt><trkpt lat="45.0120272" lon="8.0797053"><ele>216.0</ele><time>2026-04-10T11:06:13.842Z</time></trkpt><trkpt lat="45.0119764" lon="8.0797631"><ele>216.0</ele><time>2026-04-10T11:06:15.843Z</time></trkpt><trkpt lat="45.0119306" lon="8.0798254"><ele>216.0</ele><time>2026-04-10T11:06:17.841Z</time></trkpt><trkpt lat="45.0118703" lon="8.0799134"><ele>216.0</ele><time>2026-04-10T11:06:20.841Z</time></trkpt><trkpt lat="45.0117991" lon="8.079992"><ele>216.0</ele><time>2026-04-10T11:06:23.842Z</time></trkpt><trkpt lat="45.0117429" lon="8.0800678"><ele>216.83333333333334</ele><time>2026-04-10T11:06:26.842Z</time></trkpt><trkpt lat="45.0116768" lon="8.0801472"><ele>217.66666666666669</ele><time>2026-04-10T11:06:29.843Z</time></trkpt><trkpt lat="45.0116176" lon="8.0802017"><ele>218.5</ele><time>2026-04-10T11:06:31.841Z</time></trkpt><trkpt lat="45.0115617" lon="8.0802518"><ele>219.33333333333334</ele><time>2026-04-10T11:06:33.84Z</time></trkpt><trkpt lat="45.0114782" lon="8.0803144"><ele>220.16666666666669</ele><time>2026-04-10T11:06:36.842Z</time></trkpt><trkpt lat="45.0114227" lon="8.0803644"><ele>221.0</ele><time>2026-04-10T11:06:38.841Z</time></trkpt><trkpt lat="45.0113646" lon="8.0804097"><ele>221.00000000000003</ele><time>2026-04-10T11:06:40.842Z</time></trkpt><trkpt lat="45.0113099" lon="8.080454"><ele>221.0</ele><time>2026-04-10T11:06:42.841Z</time></trkpt><trkpt lat="45.0112292" lon="8.0805177"><ele>221.0</ele><time>2026-04-10T11:06:45.84Z</time></trkpt><trkpt lat="45.0111754" lon="8.0805642"><ele>221.0</ele><time>2026-04-10T11:06:47.841Z</time></trkpt><trkpt lat="45.011121" lon="8.0806111"><ele>221.00000000000003</ele><time>2026-04-10T11:06:49.84Z</time></trkpt><trkpt lat="45.0110516" lon="8.080698"><ele>221.0</ele><time>2026-04-10T11:06:52.841Z</time></trkpt><trkpt lat="45.0109923" lon="8.080789"><ele>222.00000000000003</ele><time>2026-04-10T11:06:55.841Z</time></trkpt><trkpt lat="45.0109543" lon="8.0808675"><ele>223.0</ele><time>2026-04-10T11:06:57.841Z</time></trkpt><trkpt lat="45.010914" lon="8.0809746"><ele>224.0</ele><time>2026-04-10T11:07:00.84Z</time></trkpt><trkpt lat="45.0108763" lon="8.0810965"><ele>225.0</ele><time>2026-04-10T11:07:03.841Z</time></trkpt><trkpt lat="45.0108427" lon="8.0812114"><ele>226.00000000000003</ele><time>2026-04-10T11:07:06.841Z</time></trkpt><trkpt lat="45.0108076" lon="8.0813129"><ele>227.0</ele><time>2026-04-10T11:07:09.841Z</time></trkpt><trkpt lat="45.0107681" lon="8.081405"><ele>227.0</ele><time>2026-04-10T11:07:12.842Z</time></trkpt><trkpt lat="45.0107248" lon="8.0815016"><ele>227.00000000000003</ele><time>2026-04-10T11:07:15.84Z</time></trkpt><trkpt lat="45.0106787" lon="8.0815949"><ele>227.0</ele><time>2026-04-10T11:07:18.841Z</time></trkpt><trkpt lat="45.0106407" lon="8.0816882"><ele>227.0</ele><time>2026-04-10T11:07:21.842Z</time></trkpt><trkpt lat="45.0105981" lon="8.0817777"><ele>227.00000000000003</ele><time>2026-04-10T11:07:24.842Z</time></trkpt><trkpt lat="45.0105693" lon="8.0818592"><ele>227.0</ele><time>2026-04-10T11:07:27.841Z</time></trkpt><trkpt lat="45.0105329" lon="8.0819357"><ele>227.0</ele><time>2026-04-10T11:07:30.84Z</time></trkpt><trkpt lat="45.0104975" lon="8.0820132"><ele>228.2857142857143</ele><time>2026-04-10T11:07:33.842Z</time></trkpt><trkpt lat="45.010461" lon="8.082091"><ele>229.5714285714286</ele><time>2026-04-10T11:07:36.841Z</time></trkpt><trkpt lat="45.0104091" lon="8.0821701"><ele>230.85714285714286</ele><time>2026-04-10T11:07:39.841Z</time></trkpt><trkpt lat="45.010351" lon="8.0822379"><ele>232.14285714285717</ele><time>2026-04-10T11:07:42.841Z</time></trkpt><trkpt lat="45.0102968" lon="8.0822978"><ele>233.42857142857144</ele><time>2026-04-10T11:07:45.842Z</time></trkpt><trkpt lat="45.0102431" lon="8.0823665"><ele>234.71428571428572</ele><time>2026-04-10T11:07:48.841Z</time></trkpt><trkpt lat="45.0101962" lon="8.0824296"><ele>236.0</ele><time>2026-04-10T11:07:51.841Z</time></trkpt><trkpt lat="45.0101462" lon="8.0824934"><ele>236.14285714285714</ele><time>2026-04-10T11:07:54.841Z</time></trkpt><trkpt lat="45.0100954" lon="8.0825524"><ele>236.28571428571428</ele><time>2026-04-10T11:07:57.841Z</time></trkpt><trkpt lat="45.0100347" lon="8.0826016"><ele>236.42857142857142</ele><time>2026-04-10T11:08:00.84Z</time></trkpt><trkpt lat="45.0099853" lon="8.0826715"><ele>236.57142857142856</ele><time>2026-04-10T11:08:03.84Z</time></trkpt><trkpt lat="45.0099276" lon="8.0827529"><ele>236.71428571428572</ele><time>2026-04-10T11:08:06.841Z</time></trkpt><trkpt lat="45.0098766" lon="8.0828295"><ele>236.85714285714283</ele><time>2026-04-10T11:08:09.841Z</time></trkpt><trkpt lat="45.0098293" lon="8.0829125"><ele>236.99999999999997</ele><time>2026-04-10T11:08:12.843Z</time></trkpt><trkpt lat="45.0097925" lon="8.0830071"><ele>236.99999999999997</ele><time>2026-04-10T11:08:15.84Z</time></trkpt><trkpt lat="45.0097447" lon="8.0830931"><ele>237.0</ele><time>2026-04-10T11:08:18.841Z</time></trkpt><trkpt lat="45.0096986" lon="8.0831705"><ele>236.99999999999997</ele><time>2026-04-10T11:08:21.841Z</time></trkpt><trkpt lat="45.0096635" lon="8.0832514"><ele>236.99999999999997</ele><time>2026-04-10T11:08:24.842Z</time></trkpt><trkpt lat="45.009634" lon="8.0833469"><ele>237.0</ele><time>2026-04-10T11:08:27.841Z</time></trkpt><trkpt lat="45.0096169" lon="8.0834338"><ele>236.99999999999997</ele><time>2026-04-10T11:08:30.841Z</time></trkpt><trkpt lat="45.00961" lon="8.0835301"><ele>236.99999999999997</ele><time>2026-04-10T11:08:33.841Z</time></trkpt><trkpt lat="45.0096158" lon="8.0836307"><ele>237.85714285714283</ele><time>2026-04-10T11:08:36.842Z</time></trkpt><trkpt lat="45.0096189" lon="8.0837411"><ele>238.71428571428572</ele><time>2026-04-10T11:08:39.842Z</time></trkpt><trkpt lat="45.0096222" lon="8.0838453"><ele>239.57142857142856</ele><time>2026-04-10T11:08:42.841Z</time></trkpt><trkpt lat="45.0096077" lon="8.0839494"><ele>240.42857142857142</ele><time>2026-04-10T11:08:45.84Z</time></trkpt><trkpt lat="45.0095904" lon="8.0840519"><ele>241.28571428571428</ele><time>2026-04-10T11:08:48.84Z</time></trkpt><trkpt lat="45.0095653" lon="8.0841422"><ele>242.14285714285714</ele><time>2026-04-10T11:08:51.842Z</time></trkpt><trkpt lat="45.0095405" lon="8.0842389"><ele>243.0</ele><time>2026-04-10T11:08:54.841Z</time></trkpt><trkpt lat="45.0095172" lon="8.0843328"><ele>244.42857142857142</ele><time>2026-04-10T11:08:57.84Z</time></trkpt><trkpt lat="45.0094946" lon="8.084418"><ele>245.8571428571429</ele><time>2026-04-10T11:09:00.841Z</time></trkpt><trkpt lat="45.0094758" lon="8.084521"><ele>247.2857142857143</ele><time>2026-04-10T11:09:04.841Z</time></trkpt><trkpt lat="45.0094577" lon="8.0846338"><ele>248.71428571428572</ele><time>2026-04-10T11:09:08.841Z</time></trkpt><trkpt lat="45.0094236" lon="8.0847361"><ele>250.14285714285717</ele><time>2026-04-10T11:09:12.841Z</time></trkpt><trkpt lat="45.0093862" lon="8.0848115"><ele>251.5714285714286</ele><time>2026-04-10T11:09:16.841Z</time></trkpt><trkpt lat="45.0093505" lon="8.0849043"><ele>253.00000000000003</ele><time>2026-04-10T11:09:20.841Z</time></trkpt><trkpt lat="45.00931" lon="8.0849982"><ele>255.5714285714286</ele><time>2026-04-10T11:09:24.843Z</time></trkpt><trkpt lat="45.0092863" lon="8.0851063"><ele>258.14285714285717</ele><time>2026-04-10T11:09:28.84Z</time></trkpt><trkpt lat="45.0093123" lon="8.085196"><ele>260.7142857142857</ele><time>2026-04-10T11:09:31.842Z</time></trkpt><trkpt lat="45.0093508" lon="8.0852718"><ele>263.28571428571433</ele><time>2026-04-10T11:09:34.841Z</time></trkpt><trkpt lat="45.0094006" lon="8.0853534"><ele>265.8571428571429</ele><time>2026-04-10T11:09:38.842Z</time></trkpt><trkpt lat="45.0094419" lon="8.0854436"><ele>268.42857142857144</ele><time>2026-04-10T11:09:42.841Z</time></trkpt><trkpt lat="45.0094747" lon="8.0855395"><ele>271.0</ele><time>2026-04-10T11:09:46.841Z</time></trkpt><trkpt lat="45.0095071" lon="8.0856257"><ele>271.0</ele><time>2026-04-10T11:09:49.842Z</time></trkpt><trkpt lat="45.0095237" lon="8.0857185"><ele>271.0</ele><time>2026-04-10T11:09:52.841Z</time></trkpt><trkpt lat="45.0095607" lon="8.0858305"><ele>271.0</ele><time>2026-04-10T11:09:55.843Z</time></trkpt><trkpt lat="45.0096043" lon="8.0859447"><ele>271.0</ele><time>2026-04-10T11:09:58.84Z</time></trkpt><trkpt lat="45.0096474" lon="8.0860237"><ele>271.0</ele><time>2026-04-10T11:10:00.842Z</time></trkpt><trkpt lat="45.0097045" lon="8.0860976"><ele>271.0</ele><time>2026-04-10T11:10:02.841Z</time></trkpt><trkpt lat="45.0097757" lon="8.0861499"><ele>271.40000000000003</ele><time>2026-04-10T11:10:04.84Z</time></trkpt><trkpt lat="45.0098528" lon="8.0861862"><ele>271.8</ele><time>2026-04-10T11:10:06.842Z</time></trkpt><trkpt lat="45.0099432" lon="8.0862113"><ele>272.20000000000005</ele><time>2026-04-10T11:10:08.84Z</time></trkpt><trkpt lat="45.0100378" lon="8.0862046"><ele>272.6</ele><time>2026-04-10T11:10:10.841Z</time></trkpt><trkpt lat="45.0101397" lon="8.0862018"><ele>273.0</ele><time>2026-04-10T11:10:12.841Z</time></trkpt><trkpt lat="45.0102378" lon="8.0861929"><ele>273.0</ele><time>2026-04-10T11:10:14.841Z</time></trkpt><trkpt lat="45.0103547" lon="8.0861729"><ele>273.0</ele><time>2026-04-10T11:10:16.842Z</time></trkpt><trkpt lat="45.0104646" lon="8.086167"><ele>273.0</ele><time>2026-04-10T11:10:18.842Z</time></trkpt><trkpt lat="45.0105786" lon="8.0861649"><ele>273.0</ele><time>2026-04-10T11:10:20.842Z</time></trkpt><trkpt lat="45.0106578" lon="8.0861476"><ele>273.0</ele><time>2026-04-10T11:10:22.84Z</time></trkpt><trkpt lat="45.0106064" lon="8.0860895"><ele>273.0</ele><time>2026-04-10T11:10:28.842Z</time></trkpt><trkpt lat="45.0105322" lon="8.0860963"><ele>273.0</ele><time>2026-04-10T11:10:30.842Z</time></trkpt><trkpt lat="45.0104541" lon="8.0861028"><ele>273.0</ele><time>2026-04-10T11:10:32.84Z</time></trkpt><trkpt lat="45.0103704" lon="8.0861156"><ele>273.0</ele><time>2026-04-10T11:10:34.841Z</time></trkpt><trkpt lat="45.0102812" lon="8.0861295"><ele>273.0</ele><time>2026-04-10T11:10:36.84Z</time></trkpt><trkpt lat="45.0101928" lon="8.086123"><ele>273.0</ele><time>2026-04-10T11:10:38.841Z</time></trkpt><trkpt lat="45.0100937" lon="8.086136"><ele>273.0</ele><time>2026-04-10T11:10:40.842Z</time></trkpt><trkpt lat="45.009997" lon="8.0861276"><ele>273.0</ele><time>2026-04-10T11:10:42.841Z</time></trkpt><trkpt lat="45.0099058" lon="8.0861216"><ele>273.0</ele><time>2026-04-10T11:10:44.84Z</time></trkpt><trkpt lat="45.009819" lon="8.0861015"><ele>273.0</ele><time>2026-04-10T11:10:46.842Z</time></trkpt><trkpt lat="45.0097437" lon="8.0860835"><ele>273.0</ele><time>2026-04-10T11:10:48.842Z</time></trkpt><trkpt lat="45.0097115" lon="8.0861644"><ele>273.0</ele><time>2026-04-10T11:10:53.841Z</time></trkpt><trkpt lat="45.0097784" lon="8.0862177"><ele>273.0</ele><time>2026-04-10T11:10:57.841Z</time></trkpt><trkpt lat="45.0098383" lon="8.0862632"><ele>273.0</ele><time>2026-04-10T11:11:00.84Z</time></trkpt><trkpt lat="45.0098999" lon="8.0862973"><ele>273.0</ele><time>2026-04-10T11:11:02.841Z</time></trkpt><trkpt lat="45.009979" lon="8.0863123"><ele>273.0</ele><time>2026-04-10T11:11:04.841Z</time></trkpt><trkpt lat="45.0100783" lon="8.0863006"><ele>273.0</ele><time>2026-04-10T11:11:06.841Z</time></trkpt><trkpt lat="45.0101891" lon="8.0862929"><ele>273.0</ele><time>2026-04-10T11:11:08.842Z</time></trkpt><trkpt lat="45.0102794" lon="8.0862949"><ele>273.0</ele><time>2026-04-10T11:11:10.84Z</time></trkpt><trkpt lat="45.0103768" lon="8.0863105"><ele>273.0</ele><time>2026-04-10T11:11:12.84Z</time></trkpt><trkpt lat="45.0104714" lon="8.0863341"><ele>273.0</ele><time>2026-04-10T11:11:14.84Z</time></trkpt><trkpt lat="45.0105383" lon="8.0863893"><ele>273.0</ele><time>2026-04-10T11:11:16.842Z</time></trkpt><trkpt lat="45.0105698" lon="8.0864668"><ele>273.0</ele><time>2026-04-10T11:11:18.84Z</time></trkpt><trkpt lat="45.0105349" lon="8.0865651"><ele>273.0</ele><time>2026-04-10T11:11:20.842Z</time></trkpt><trkpt lat="45.0104662" lon="8.0866547"><ele>269.8333333333333</ele><time>2026-04-10T11:11:22.842Z</time></trkpt><trkpt lat="45.0103976" lon="8.0867225"><ele>266.6666666666667</ele><time>2026-04-10T11:11:24.841Z</time></trkpt><trkpt lat="45.0103325" lon="8.0867351"><ele>263.5</ele><time>2026-04-10T11:11:26.841Z</time></trkpt><trkpt lat="45.010254" lon="8.0867151"><ele>260.33333333333337</ele><time>2026-04-10T11:11:28.842Z</time></trkpt><trkpt lat="45.0101771" lon="8.0866782"><ele>257.1666666666667</ele><time>2026-04-10T11:11:30.843Z</time></trkpt><trkpt lat="45.010092" lon="8.0866544"><ele>254.0</ele><time>2026-04-10T11:11:32.841Z</time></trkpt><trkpt lat="45.0100075" lon="8.0866474"><ele>256.33333333333337</ele><time>2026-04-10T11:11:34.842Z</time></trkpt><trkpt lat="45.0099261" lon="8.0866441"><ele>258.6666666666667</ele><time>2026-04-10T11:11:36.841Z</time></trkpt><trkpt lat="45.0098445" lon="8.0866546"><ele>261.0</ele><time>2026-04-10T11:11:38.842Z</time></trkpt><trkpt lat="45.0097602" lon="8.0866592"><ele>263.3333333333333</ele><time>2026-04-10T11:11:40.841Z</time></trkpt><trkpt lat="45.0096815" lon="8.086685"><ele>265.66666666666663</ele><time>2026-04-10T11:11:42.841Z</time></trkpt><trkpt lat="45.0096011" lon="8.0867167"><ele>268.0</ele><time>2026-04-10T11:11:44.841Z</time></trkpt><trkpt lat="45.0095226" lon="8.08675"><ele>268.0</ele><time>2026-04-10T11:11:46.84Z</time></trkpt><trkpt lat="45.0094521" lon="8.0867872"><ele>268.0</ele><time>2026-04-10T11:11:48.841Z</time></trkpt><trkpt lat="45.0093812" lon="8.0868389"><ele>268.0</ele><time>2026-04-10T11:11:50.84Z</time></trkpt><trkpt lat="45.0093103" lon="8.0869036"><ele>268.0</ele><time>2026-04-10T11:11:52.841Z</time></trkpt><trkpt lat="45.0092299" lon="8.0869895"><ele>268.0</ele><time>2026-04-10T11:11:54.841Z</time></trkpt><trkpt lat="45.0091459" lon="8.0870781"><ele>268.0</ele><time>2026-04-10T11:11:56.841Z</time></trkpt><trkpt lat="45.0090973" lon="8.0871505"><ele>269.5</ele><time>2026-04-10T11:11:57.842Z</time></trkpt><trkpt lat="45.0089965" lon="8.087243"><ele>271.0</ele><time>2026-04-10T11:11:59.842Z</time></trkpt><trkpt lat="45.0089358" lon="8.0872942"><ele>272.5</ele><time>2026-04-10T11:12:00.841Z</time></trkpt><trkpt lat="45.0088774" lon="8.0873303"><ele>274.0</ele><time>2026-04-10T11:12:01.842Z</time></trkpt><trkpt lat="45.0088269" lon="8.0873915"><ele>275.5</ele><time>2026-04-10T11:12:02.841Z</time></trkpt><trkpt lat="45.0087577" lon="8.0874814"><ele>277.0</ele><time>2026-04-10T11:12:03.84Z</time></trkpt><trkpt lat="45.0087018" lon="8.0875275"><ele>277.0</ele><time>2026-04-10T11:12:04.842Z</time></trkpt><trkpt lat="45.0086473" lon="8.0876017"><ele>277.0</ele><time>2026-04-10T11:12:05.84Z</time></trkpt><trkpt lat="45.0085875" lon="8.0876683"><ele>277.0</ele><time>2026-04-10T11:12:06.84Z</time></trkpt><trkpt lat="45.0085015" lon="8.0877049"><ele>277.0</ele><time>2026-04-10T11:12:08.84Z</time></trkpt><trkpt lat="45.0084573" lon="8.0877857"><ele>277.0</ele><time>2026-04-10T11:12:09.842Z</time></trkpt><trkpt lat="45.0083944" lon="8.0878261"><ele>277.0</ele><time>2026-04-10T11:12:10.84Z</time></trkpt><trkpt lat="45.0083195" lon="8.0878335"><ele>278.6</ele><time>2026-04-10T11:12:11.842Z</time></trkpt><trkpt lat="45.0082102" lon="8.087927"><ele>280.2</ele><time>2026-04-10T11:12:13.84Z</time></trkpt><trkpt lat="45.0081353" lon="8.0880213"><ele>281.8</ele><time>2026-04-10T11:12:15.842Z</time></trkpt><trkpt lat="45.0080456" lon="8.0880656"><ele>283.4</ele><time>2026-04-10T11:12:17.841Z</time></trkpt><trkpt lat="45.0079285" lon="8.0880918"><ele>285.0</ele><time>2026-04-10T11:12:21.841Z</time></trkpt><trkpt lat="45.007855" lon="8.0881094"><ele>285.0</ele><time>2026-04-10T11:12:23.841Z</time></trkpt><trkpt lat="45.0077748" lon="8.0881046"><ele>285.0</ele><time>2026-04-10T11:12:25.841Z</time></trkpt><trkpt lat="45.0076984" lon="8.0881184"><ele>285.0</ele><time>2026-04-10T11:12:27.842Z</time></trkpt><trkpt lat="45.0076208" lon="8.0881236"><ele>285.0</ele><time>2026-04-10T11:12:29.84Z</time></trkpt><trkpt lat="45.0075419" lon="8.0881166"><ele>285.0</ele><time>2026-04-10T11:12:31.84Z</time></trkpt><trkpt lat="45.0074537" lon="8.0881164"><ele>285.0</ele><time>2026-04-10T11:12:33.84Z</time></trkpt><trkpt lat="45.0073653" lon="8.0881222"><ele>283.2</ele><time>2026-04-10T11:12:35.842Z</time></trkpt><trkpt lat="45.0072829" lon="8.088152"><ele>281.4</ele><time>2026-04-10T11:12:37.841Z</time></trkpt><trkpt lat="45.0072008" lon="8.0881944"><ele>279.6</ele><time>2026-04-10T11:12:39.84Z</time></trkpt><trkpt lat="45.0071033" lon="8.0882425"><ele>277.8</ele><time>2026-04-10T11:12:41.841Z</time></trkpt><trkpt lat="45.0070068" lon="8.0882908"><ele>276.0</ele><time>2026-04-10T11:12:43.84Z</time></trkpt><trkpt lat="45.0069194" lon="8.0883455"><ele>276.2</ele><time>2026-04-10T11:12:45.842Z</time></trkpt><trkpt lat="45.006823" lon="8.0883981"><ele>276.40000000000003</ele><time>2026-04-10T11:12:47.84Z</time></trkpt><trkpt lat="45.0067229" lon="8.0884522"><ele>276.6</ele><time>2026-04-10T11:12:49.841Z</time></trkpt><trkpt lat="45.0066314" lon="8.0885197"><ele>276.8</ele><time>2026-04-10T11:12:51.841Z</time></trkpt><trkpt lat="45.0065381" lon="8.0885967"><ele>277.0</ele><time>2026-04-10T11:12:53.841Z</time></trkpt><trkpt lat="45.006473" lon="8.0886423"><ele>277.0</ele><time>2026-04-10T11:12:54.84Z</time></trkpt><trkpt lat="45.0064148" lon="8.0886806"><ele>277.0</ele><time>2026-04-10T11:12:56.841Z</time></trkpt><trkpt lat="45.0063357" lon="8.0887748"><ele>277.0</ele><time>2026-04-10T11:12:58.841Z</time></trkpt><trkpt lat="45.0062788" lon="8.0888306"><ele>277.0</ele><time>2026-04-10T11:12:59.84Z</time></trkpt><trkpt lat="45.0061795" lon="8.0888431"><ele>277.0</ele><time>2026-04-10T11:13:01.841Z</time></trkpt><trkpt lat="45.0060956" lon="8.0888006"><ele>277.0</ele><time>2026-04-10T11:13:03.84Z</time></trkpt><trkpt lat="45.0060288" lon="8.0887724"><ele>277.0</ele><time>2026-04-10T11:13:05.841Z</time></trkpt><trkpt lat="45.0059713" lon="8.0887348"><ele>277.0</ele><time>2026-04-10T11:13:07.84Z</time></trkpt><trkpt lat="45.0059572" lon="8.0886437"><ele>277.0</ele><time>2026-04-10T11:13:10.841Z</time></trkpt><trkpt lat="45.005894" lon="8.08858"><ele>277.0</ele><time>2026-04-10T11:13:13.843Z</time></trkpt><trkpt lat="45.005823" lon="8.088574"><ele>277.0</ele><time>2026-04-10T11:13:16.842Z</time></trkpt><trkpt lat="45.0057492" lon="8.0885284"><ele>277.0</ele><time>2026-04-10T11:13:19.841Z</time></trkpt><trkpt lat="45.0056785" lon="8.0884427"><ele>276.16666666666663</ele><time>2026-04-10T11:13:22.841Z</time></trkpt><trkpt lat="45.0056223" lon="8.0883759"><ele>275.3333333333333</ele><time>2026-04-10T11:13:24.84Z</time></trkpt><trkpt lat="45.0055602" lon="8.0883103"><ele>274.5</ele><time>2026-04-10T11:13:26.841Z</time></trkpt><trkpt lat="45.0054993" lon="8.0882705"><ele>273.6666666666667</ele><time>2026-04-10T11:13:28.841Z</time></trkpt><trkpt lat="45.0054224" lon="8.0882363"><ele>272.83333333333337</ele><time>2026-04-10T11:13:30.841Z</time></trkpt><trkpt lat="45.0053382" lon="8.0881934"><ele>272.0</ele><time>2026-04-10T11:13:32.841Z</time></trkpt><trkpt lat="45.0052495" lon="8.0881486"><ele>272.0</ele><time>2026-04-10T11:13:34.84Z</time></trkpt><trkpt lat="45.0051627" lon="8.0881025"><ele>272.0</ele><time>2026-04-10T11:13:36.841Z</time></trkpt><trkpt lat="45.005085" lon="8.0880514"><ele>272.0</ele><time>2026-04-10T11:13:38.841Z</time></trkpt><trkpt lat="45.0049988" lon="8.0879708"><ele>272.0</ele><time>2026-04-10T11:13:40.841Z</time></trkpt><trkpt lat="45.0049231" lon="8.0878746"><ele>272.0</ele><time>2026-04-10T11:13:42.841Z</time></trkpt><trkpt lat="45.004852" lon="8.0877778"><ele>273.2</ele><time>2026-04-10T11:13:44.842Z</time></trkpt><trkpt lat="45.0048125" lon="8.0876411"><ele>274.4</ele><time>2026-04-10T11:13:47.84Z</time></trkpt><trkpt lat="45.0047964" lon="8.0875526"><ele>275.6</ele><time>2026-04-10T11:13:48.841Z</time></trkpt><trkpt lat="45.0047286" lon="8.0874123"><ele>276.8</ele><time>2026-04-10T11:13:50.842Z</time></trkpt><trkpt lat="45.0046976" lon="8.0873082"><ele>278.0</ele><time>2026-04-10T11:13:52.841Z</time></trkpt><trkpt lat="45.0046189" lon="8.0872213"><ele>278.0</ele><time>2026-04-10T11:13:54.842Z</time></trkpt><trkpt lat="45.0045393" lon="8.0871768"><ele>278.0</ele><time>2026-04-10T11:13:56.843Z</time></trkpt><trkpt lat="45.0044458" lon="8.087139"><ele>278.0</ele><time>2026-04-10T11:13:58.841Z</time></trkpt><trkpt lat="45.0043538" lon="8.0871151"><ele>278.0</ele><time>2026-04-10T11:14:00.841Z</time></trkpt><trkpt lat="45.004249" lon="8.0871082"><ele>278.0</ele><time>2026-04-10T11:14:02.842Z</time></trkpt><trkpt lat="45.0041637" lon="8.0870952"><ele>279.83333333333337</ele><time>2026-04-10T11:14:04.842Z</time></trkpt><trkpt lat="45.0040977" lon="8.0870798"><ele>281.6666666666667</ele><time>2026-04-10T11:14:06.842Z</time></trkpt><trkpt lat="45.0040265" lon="8.0870606"><ele>283.5</ele><time>2026-04-10T11:14:08.841Z</time></trkpt><trkpt lat="45.0039434" lon="8.0870295"><ele>285.3333333333333</ele><time>2026-04-10T11:14:10.842Z</time></trkpt><trkpt lat="45.0038449" lon="8.0870069"><ele>287.16666666666663</ele><time>2026-04-10T11:14:12.841Z</time></trkpt><trkpt lat="45.0037703" lon="8.0870228"><ele>289.0</ele><time>2026-04-10T11:14:14.841Z</time></trkpt><trkpt lat="45.0036792" lon="8.0870398"><ele>289.0</ele><time>2026-04-10T11:14:16.842Z</time></trkpt><trkpt lat="45.0036112" lon="8.0870648"><ele>289.0</ele><time>2026-04-10T11:14:18.841Z</time></trkpt><trkpt lat="45.0035304" lon="8.0871244"><ele>289.0</ele><time>2026-04-10T11:14:21.841Z</time></trkpt><trkpt lat="45.0034518" lon="8.0871971"><ele>289.0</ele><time>2026-04-10T11:14:24.841Z</time></trkpt><trkpt lat="45.0033925" lon="8.0872647"><ele>289.0</ele><time>2026-04-10T11:14:27.842Z</time></trkpt><trkpt lat="45.0033418" lon="8.0873392"><ele>289.0</ele><time>2026-04-10T11:14:30.84Z</time></trkpt><trkpt lat="45.0032915" lon="8.087417"><ele>288.8333333333333</ele><time>2026-04-10T11:14:34.841Z</time></trkpt><trkpt lat="45.0032981" lon="8.0875333"><ele>288.66666666666663</ele><time>2026-04-10T11:14:38.841Z</time></trkpt><trkpt lat="45.0033568" lon="8.0876382"><ele>288.5</ele><time>2026-04-10T11:14:41.841Z</time></trkpt><trkpt lat="45.0033946" lon="8.0877099"><ele>288.3333333333333</ele><time>2026-04-10T11:14:43.841Z</time></trkpt><trkpt lat="45.0034502" lon="8.0878172"><ele>288.1666666666667</ele><time>2026-04-10T11:14:46.841Z</time></trkpt><trkpt lat="45.0035078" lon="8.0879218"><ele>288.0</ele><time>2026-04-10T11:14:49.841Z</time></trkpt><trkpt lat="45.0035414" lon="8.087999"><ele>288.00000000000006</ele><time>2026-04-10T11:14:51.841Z</time></trkpt><trkpt lat="45.0035761" lon="8.0880766"><ele>288.0</ele><time>2026-04-10T11:14:53.84Z</time></trkpt><trkpt lat="45.0036145" lon="8.0881567"><ele>288.0</ele><time>2026-04-10T11:14:55.842Z</time></trkpt><trkpt lat="45.00365" lon="8.08824"><ele>288.0</ele><time>2026-04-10T11:14:57.841Z</time></trkpt><trkpt lat="45.0036848" lon="8.0883279"><ele>288.0</ele><time>2026-04-10T11:14:59.84Z</time></trkpt><trkpt lat="45.0037106" lon="8.0884239"><ele>288.00000000000006</ele><time>2026-04-10T11:15:01.841Z</time></trkpt><trkpt lat="45.0037305" lon="8.0885246"><ele>288.0</ele><time>2026-04-10T11:15:03.841Z</time></trkpt><trkpt lat="45.003732" lon="8.0886305"><ele>287.5</ele><time>2026-04-10T11:15:05.843Z</time></trkpt><trkpt lat="45.0037072" lon="8.088739"><ele>287.0</ele><time>2026-04-10T11:15:07.841Z</time></trkpt><trkpt lat="45.0036658" lon="8.0888432"><ele>286.5</ele><time>2026-04-10T11:15:09.841Z</time></trkpt><trkpt lat="45.0036079" lon="8.0889249"><ele>286.0</ele><time>2026-04-10T11:15:11.84Z</time></trkpt><trkpt lat="45.0035454" lon="8.0889861"><ele>285.5</ele><time>2026-04-10T11:15:13.841Z</time></trkpt><trkpt lat="45.0034793" lon="8.0890322"><ele>285.0</ele><time>2026-04-10T11:15:15.842Z</time></trkpt><trkpt lat="45.0034149" lon="8.0890794"><ele>285.7142857142857</ele><time>2026-04-10T11:15:17.84Z</time></trkpt><trkpt lat="45.0033486" lon="8.0891237"><ele>286.42857142857144</ele><time>2026-04-10T11:15:19.84Z</time></trkpt><trkpt lat="45.0032794" lon="8.0891719"><ele>287.14285714285717</ele><time>2026-04-10T11:15:21.842Z</time></trkpt><trkpt lat="45.0032162" lon="8.0892265"><ele>287.8571428571429</ele><time>2026-04-10T11:15:23.841Z</time></trkpt><trkpt lat="45.003153" lon="8.089281"><ele>288.5714285714286</ele><time>2026-04-10T11:15:25.841Z</time></trkpt><trkpt lat="45.0030933" lon="8.0893358"><ele>289.2857142857143</ele><time>2026-04-10T11:15:27.842Z</time></trkpt><trkpt lat="45.0030451" lon="8.0893985"><ele>290.0</ele><time>2026-04-10T11:15:29.842Z</time></trkpt><trkpt lat="45.0030041" lon="8.0894685"><ele>290.0</ele><time>2026-04-10T11:15:31.84Z</time></trkpt><trkpt lat="45.0029716" lon="8.089562"><ele>290.0</ele><time>2026-04-10T11:15:33.84Z</time></trkpt><trkpt lat="45.0029515" lon="8.0896646"><ele>290.0</ele><time>2026-04-10T11:15:35.841Z</time></trkpt><trkpt lat="45.0029443" lon="8.0897687"><ele>290.0</ele><time>2026-04-10T11:15:37.841Z</time></trkpt><trkpt lat="45.0029528" lon="8.0898776"><ele>290.0</ele><time>2026-04-10T11:15:39.842Z</time></trkpt><trkpt lat="45.0029759" lon="8.0899924"><ele>290.0</ele><time>2026-04-10T11:15:41.84Z</time></trkpt><trkpt lat="45.0029967" lon="8.0901118"><ele>288.75</ele><time>2026-04-10T11:15:43.84Z</time></trkpt><trkpt lat="45.0030209" lon="8.0903252"><ele>287.5</ele><time>2026-04-10T11:15:46.841Z</time></trkpt><trkpt lat="45.0030121" lon="8.0904897"><ele>286.25</ele><time>2026-04-10T11:15:48.842Z</time></trkpt><trkpt lat="45.0029721" lon="8.0906532"><ele>285.0</ele><time>2026-04-10T11:15:50.842Z</time></trkpt><trkpt lat="45.0029459" lon="8.0907411"><ele>284.7142857142857</ele><time>2026-04-10T11:15:51.841Z</time></trkpt><trkpt lat="45.0029141" lon="8.0908192"><ele>284.42857142857144</ele><time>2026-04-10T11:15:52.842Z</time></trkpt><trkpt lat="45.0028723" lon="8.0908951"><ele>284.14285714285717</ele><time>2026-04-10T11:15:53.842Z</time></trkpt><trkpt lat="45.0028299" lon="8.09097"><ele>283.8571428571429</ele><time>2026-04-10T11:15:54.84Z</time></trkpt><trkpt lat="45.0027817" lon="8.0910455"><ele>283.5714285714286</ele><time>2026-04-10T11:15:55.841Z</time></trkpt><trkpt lat="45.0027315" lon="8.0911225"><ele>283.2857142857143</ele><time>2026-04-10T11:15:56.841Z</time></trkpt><trkpt lat="45.0026858" lon="8.0911945"><ele>283.0</ele><time>2026-04-10T11:15:57.842Z</time></trkpt><trkpt lat="45.0025982" lon="8.0913185"><ele>283.0</ele><time>2026-04-10T11:15:59.842Z</time></trkpt><trkpt lat="45.0025449" lon="8.0913822"><ele>283.0</ele><time>2026-04-10T11:16:00.84Z</time></trkpt><trkpt lat="45.0024822" lon="8.0914339"><ele>283.0</ele><time>2026-04-10T11:16:01.841Z</time></trkpt><trkpt lat="45.0024113" lon="8.0914724"><ele>283.0</ele><time>2026-04-10T11:16:02.841Z</time></trkpt><trkpt lat="45.0023466" lon="8.0914934"><ele>283.0</ele><time>2026-04-10T11:16:03.842Z</time></trkpt><trkpt lat="45.0022682" lon="8.0915113"><ele>283.0</ele><time>2026-04-10T11:16:04.841Z</time></trkpt><trkpt lat="45.0021973" lon="8.0915197"><ele>283.0</ele><time>2026-04-10T11:16:05.841Z</time></trkpt><trkpt lat="45.0021319" lon="8.0915218"><ele>280.8333333333333</ele><time>2026-04-10T11:16:06.841Z</time></trkpt><trkpt lat="45.0020598" lon="8.0915237"><ele>278.66666666666663</ele><time>2026-04-10T11:16:07.841Z</time></trkpt><trkpt lat="45.0019837" lon="8.0915344"><ele>276.5</ele><time>2026-04-10T11:16:08.841Z</time></trkpt><trkpt lat="45.0019045" lon="8.0915369"><ele>274.3333333333333</ele><time>2026-04-10T11:16:09.841Z</time></trkpt><trkpt lat="45.001827" lon="8.0915356"><ele>272.1666666666667</ele><time>2026-04-10T11:16:10.841Z</time></trkpt><trkpt lat="45.0017472" lon="8.0915384"><ele>270.0</ele><time>2026-04-10T11:16:11.841Z</time></trkpt><trkpt lat="45.0016669" lon="8.0915444"><ele>269.1666666666667</ele><time>2026-04-10T11:16:12.841Z</time></trkpt><trkpt lat="45.0015862" lon="8.0915508"><ele>268.3333333333333</ele><time>2026-04-10T11:16:13.841Z</time></trkpt><trkpt lat="45.001507" lon="8.0915522"><ele>267.5</ele><time>2026-04-10T11:16:14.84Z</time></trkpt><trkpt lat="45.0014327" lon="8.0915711"><ele>266.66666666666663</ele><time>2026-04-10T11:16:15.84Z</time></trkpt><trkpt lat="45.0013506" lon="8.091586"><ele>265.8333333333333</ele><time>2026-04-10T11:16:16.841Z</time></trkpt><trkpt lat="45.0012726" lon="8.0916155"><ele>265.0</ele><time>2026-04-10T11:16:17.841Z</time></trkpt><trkpt lat="45.0011935" lon="8.0916523"><ele>269.0</ele><time>2026-04-10T11:16:18.84Z</time></trkpt><trkpt lat="45.0011236" lon="8.0916954"><ele>273.0</ele><time>2026-04-10T11:16:19.841Z</time></trkpt><trkpt lat="45.0010416" lon="8.0917366"><ele>277.0</ele><time>2026-04-10T11:16:20.841Z</time></trkpt><trkpt lat="45.0009664" lon="8.0917781"><ele>281.0</ele><time>2026-04-10T11:16:21.841Z</time></trkpt><trkpt lat="45.0008862" lon="8.09182"><ele>285.0</ele><time>2026-04-10T11:16:22.841Z</time></trkpt><trkpt lat="45.000805" lon="8.0918625"><ele>289.0</ele><time>2026-04-10T11:16:23.842Z</time></trkpt><trkpt lat="45.0007324" lon="8.0919038"><ele>289.2</ele><time>2026-04-10T11:16:24.84Z</time></trkpt><trkpt lat="45.0006525" lon="8.091953"><ele>289.4</ele><time>2026-04-10T11:16:25.84Z</time></trkpt><trkpt lat="45.0005771" lon="8.0919909"><ele>289.6</ele><time>2026-04-10T11:16:26.841Z</time></trkpt><trkpt lat="45.0005055" lon="8.0920307"><ele>289.8</ele><time>2026-04-10T11:16:27.84Z</time></trkpt><trkpt lat="45.0004335" lon="8.092081"><ele>290.0</ele><time>2026-04-10T11:16:28.841Z</time></trkpt><trkpt lat="45.0002958" lon="8.0921791"><ele>290.0</ele><time>2026-04-10T11:16:30.841Z</time></trkpt><trkpt lat="45.0002355" lon="8.0922367"><ele>290.0</ele><time>2026-04-10T11:16:31.841Z</time></trkpt><trkpt lat="45.0001703" lon="8.0922955"><ele>290.0</ele><time>2026-04-10T11:16:32.843Z</time></trkpt><trkpt lat="45.0001087" lon="8.0923604"><ele>290.0</ele><time>2026-04-10T11:16:33.84Z</time></trkpt><trkpt lat="45.0000432" lon="8.0924407"><ele>290.0</ele><time>2026-04-10T11:16:34.842Z</time></trkpt><trkpt lat="44.9999878" lon="8.092516"><ele>290.0</ele><time>2026-04-10T11:16:35.841Z</time></trkpt><trkpt lat="44.9999376" lon="8.0925896"><ele>290.0</ele><time>2026-04-10T11:16:36.841Z</time></trkpt><trkpt lat="44.9998887" lon="8.0926636"><ele>290.0</ele><time>2026-04-10T11:16:37.841Z</time></trkpt><trkpt lat="44.9998348" lon="8.0927131"><ele>290.0</ele><time>2026-04-10T11:16:38.841Z</time></trkpt><trkpt lat="44.999779" lon="8.092768"><ele>290.0</ele><time>2026-04-10T11:16:39.84Z</time></trkpt><trkpt lat="44.9997135" lon="8.0928015"><ele>290.0</ele><time>2026-04-10T11:16:40.84Z</time></trkpt><trkpt lat="44.9996496" lon="8.0928182"><ele>290.0</ele><time>2026-04-10T11:16:41.84Z</time></trkpt><trkpt lat="44.9995848" lon="8.0928161"><ele>290.0</ele><time>2026-04-10T11:16:42.842Z</time></trkpt><trkpt lat="44.9994716" lon="8.092785"><ele>290.0</ele><time>2026-04-10T11:16:44.842Z</time></trkpt><trkpt lat="44.9993661" lon="8.0927631"><ele>290.0</ele><time>2026-04-10T11:16:46.841Z</time></trkpt><trkpt lat="44.9992667" lon="8.0927272"><ele>290.0</ele><time>2026-04-10T11:16:48.84Z</time></trkpt><trkpt lat="44.9991739" lon="8.0927158"><ele>290.0</ele><time>2026-04-10T11:16:50.841Z</time></trkpt><trkpt lat="44.9990791" lon="8.0927097"><ele>290.0</ele><time>2026-04-10T11:16:52.842Z</time></trkpt><trkpt lat="44.9989863" lon="8.0926911"><ele>290.83333333333337</ele><time>2026-04-10T11:16:54.841Z</time></trkpt><trkpt lat="44.998901" lon="8.0926848"><ele>291.6666666666667</ele><time>2026-04-10T11:16:56.841Z</time></trkpt><trkpt lat="44.9988104" lon="8.0926881"><ele>292.5</ele><time>2026-04-10T11:16:58.842Z</time></trkpt><trkpt lat="44.9987327" lon="8.0927054"><ele>293.3333333333333</ele><time>2026-04-10T11:17:00.84Z</time></trkpt><trkpt lat="44.998682" lon="8.0927582"><ele>294.16666666666663</ele><time>2026-04-10T11:17:02.84Z</time></trkpt><trkpt lat="44.9986258" lon="8.0928032"><ele>295.0</ele><time>2026-04-10T11:17:04.841Z</time></trkpt><trkpt lat="44.9985661" lon="8.0928722"><ele>295.0</ele><time>2026-04-10T11:17:06.84Z</time></trkpt><trkpt lat="44.9985038" lon="8.0929563"><ele>295.0</ele><time>2026-04-10T11:17:08.841Z</time></trkpt><trkpt lat="44.998444" lon="8.0930346"><ele>295.0</ele><time>2026-04-10T11:17:10.84Z</time></trkpt><trkpt lat="44.9983845" lon="8.0931024"><ele>295.0</ele><time>2026-04-10T11:17:12.841Z</time></trkpt><trkpt lat="44.9983054" lon="8.0931489"><ele>295.0</ele><time>2026-04-10T11:17:14.842Z</time></trkpt><trkpt lat="44.9982238" lon="8.0931656"><ele>295.0</ele><time>2026-04-10T11:17:16.84Z</time></trkpt><trkpt lat="44.9981465" lon="8.0931487"><ele>295.7142857142857</ele><time>2026-04-10T11:17:18.842Z</time></trkpt><trkpt lat="44.9980807" lon="8.0931066"><ele>296.42857142857144</ele><time>2026-04-10T11:17:20.84Z</time></trkpt><trkpt lat="44.9980209" lon="8.0930552"><ele>297.1428571428571</ele><time>2026-04-10T11:17:22.841Z</time></trkpt><trkpt lat="44.9979682" lon="8.0929871"><ele>297.8571428571429</ele><time>2026-04-10T11:17:24.842Z</time></trkpt><trkpt lat="44.9979121" lon="8.0929194"><ele>298.57142857142856</ele><time>2026-04-10T11:17:26.84Z</time></trkpt><trkpt lat="44.9978565" lon="8.0928573"><ele>299.2857142857143</ele><time>2026-04-10T11:17:28.84Z</time></trkpt><trkpt lat="44.9977941" lon="8.0928042"><ele>300.0</ele><time>2026-04-10T11:17:30.841Z</time></trkpt><trkpt lat="44.997741" lon="8.0927436"><ele>299.99999999999994</ele><time>2026-04-10T11:17:32.841Z</time></trkpt><trkpt lat="44.9976881" lon="8.0926795"><ele>300.0</ele><time>2026-04-10T11:17:34.841Z</time></trkpt><trkpt lat="44.9976351" lon="8.0926191"><ele>300.0</ele><time>2026-04-10T11:17:36.841Z</time></trkpt><trkpt lat="44.9975803" lon="8.0925602"><ele>300.0</ele><time>2026-04-10T11:17:38.84Z</time></trkpt><trkpt lat="44.997524" lon="8.0924967"><ele>300.0</ele><time>2026-04-10T11:17:40.841Z</time></trkpt><trkpt lat="44.9974672" lon="8.0924305"><ele>299.99999999999994</ele><time>2026-04-10T11:17:42.84Z</time></trkpt><trkpt lat="44.9974085" lon="8.0923655"><ele>300.0</ele><time>2026-04-10T11:17:44.841Z</time></trkpt><trkpt lat="44.9973531" lon="8.0923027"><ele>299.57142857142856</ele><time>2026-04-10T11:17:46.842Z</time></trkpt><trkpt lat="44.9972859" lon="8.0922308"><ele>299.1428571428571</ele><time>2026-04-10T11:17:49.842Z</time></trkpt><trkpt lat="44.9972182" lon="8.0921492"><ele>298.7142857142857</ele><time>2026-04-10T11:17:52.841Z</time></trkpt><trkpt lat="44.9971734" lon="8.0920821"><ele>298.2857142857143</ele><time>2026-04-10T11:17:54.841Z</time></trkpt><trkpt lat="44.9971242" lon="8.0920146"><ele>297.8571428571429</ele><time>2026-04-10T11:17:56.841Z</time></trkpt><trkpt lat="44.9970784" lon="8.0919403"><ele>297.42857142857144</ele><time>2026-04-10T11:17:58.84Z</time></trkpt><trkpt lat="44.9970313" lon="8.0918644"><ele>297.0</ele><time>2026-04-10T11:18:00.841Z</time></trkpt><trkpt lat="44.9969875" lon="8.0917904"><ele>297.0</ele><time>2026-04-10T11:18:02.841Z</time></trkpt><trkpt lat="44.9969428" lon="8.0917141"><ele>297.0</ele><time>2026-04-10T11:18:04.841Z</time></trkpt><trkpt lat="44.9968975" lon="8.0916037"><ele>297.0</ele><time>2026-04-10T11:18:07.841Z</time></trkpt><trkpt lat="44.9968577" lon="8.0914985"><ele>297.0</ele><time>2026-04-10T11:18:10.841Z</time></trkpt><trkpt lat="44.996826" lon="8.0914196"><ele>297.0</ele><time>2026-04-10T11:18:12.84Z</time></trkpt><trkpt lat="44.996792" lon="8.091326"><ele>297.0</ele><time>2026-04-10T11:18:15.84Z</time></trkpt><trkpt lat="44.9967987" lon="8.0914317"><ele>297.0</ele><time>2026-04-10T11:18:37.841Z</time></trkpt><trkpt lat="44.9968378" lon="8.0915158"><ele>297.0</ele><time>2026-04-10T11:18:39.841Z</time></trkpt><trkpt lat="44.9968743" lon="8.0916048"><ele>297.0</ele><time>2026-04-10T11:18:41.841Z</time></trkpt><trkpt lat="44.9969139" lon="8.0917005"><ele>297.0</ele><time>2026-04-10T11:18:43.84Z</time></trkpt><trkpt lat="44.9969625" lon="8.0917952"><ele>297.0</ele><time>2026-04-10T11:18:45.841Z</time></trkpt><trkpt lat="44.9970163" lon="8.0918946"><ele>297.0</ele><time>2026-04-10T11:18:47.84Z</time></trkpt><trkpt lat="44.9970693" lon="8.0919997"><ele>297.0</ele><time>2026-04-10T11:18:49.841Z</time></trkpt><trkpt lat="44.9971498" lon="8.0921029"><ele>297.0</ele><time>2026-04-10T11:18:51.841Z</time></trkpt><trkpt lat="44.9972595" lon="8.0921955"><ele>297.0</ele><time>2026-04-10T11:18:53.841Z</time></trkpt><trkpt lat="44.9973172" lon="8.0922332"><ele>297.0</ele><time>2026-04-10T11:18:54.84Z</time></trkpt><trkpt lat="44.997442" lon="8.0922871"><ele>297.0</ele><time>2026-04-10T11:18:56.84Z</time></trkpt><trkpt lat="44.9975315" lon="8.0923515"><ele>298.6666666666667</ele><time>2026-04-10T11:18:58.84Z</time></trkpt><trkpt lat="44.9976105" lon="8.0923796"><ele>300.3333333333333</ele><time>2026-04-10T11:19:00.84Z</time></trkpt><trkpt lat="44.9976953" lon="8.0923967"><ele>302.0</ele><time>2026-04-10T11:19:02.841Z</time></trkpt><trkpt lat="44.9977793" lon="8.0924212"><ele>303.66666666666663</ele><time>2026-04-10T11:19:04.842Z</time></trkpt><trkpt lat="44.9978688" lon="8.0924222"><ele>305.3333333333333</ele><time>2026-04-10T11:19:06.84Z</time></trkpt><trkpt lat="44.9979523" lon="8.0924224"><ele>307.0</ele><time>2026-04-10T11:19:08.84Z</time></trkpt><trkpt lat="44.9980157" lon="8.0923994"><ele>306.99999999999994</ele><time>2026-04-10T11:19:10.84Z</time></trkpt><trkpt lat="44.9980823" lon="8.0923557"><ele>307.0</ele><time>2026-04-10T11:19:13.84Z</time></trkpt><trkpt lat="44.9981307" lon="8.0922811"><ele>307.0</ele><time>2026-04-10T11:19:16.841Z</time></trkpt><trkpt lat="44.9981785" lon="8.092189"><ele>307.0</ele><time>2026-04-10T11:19:19.842Z</time></trkpt><trkpt lat="44.9982353" lon="8.0921083"><ele>307.0</ele><time>2026-04-10T11:19:22.841Z</time></trkpt><trkpt lat="44.9982876" lon="8.0920346"><ele>306.99999999999994</ele><time>2026-04-10T11:19:25.841Z</time></trkpt><trkpt lat="44.9983048" lon="8.0919439"><ele>307.0</ele><time>2026-04-10T11:19:30.84Z</time></trkpt><trkpt lat="44.9983668" lon="8.0918677"><ele>307.4285714285714</ele><time>2026-04-10T11:19:34.842Z</time></trkpt><trkpt lat="44.9984169" lon="8.0918047"><ele>307.85714285714283</ele><time>2026-04-10T11:19:37.841Z</time></trkpt><trkpt lat="44.9984682" lon="8.0917443"><ele>308.2857142857143</ele><time>2026-04-10T11:19:40.84Z</time></trkpt><trkpt lat="44.9985419" lon="8.0917834"><ele>308.71428571428567</ele><time>2026-04-10T11:19:44.841Z</time></trkpt><trkpt lat="44.9985869" lon="8.0918667"><ele>309.1428571428571</ele><time>2026-04-10T11:19:47.841Z</time></trkpt><trkpt lat="44.9986461" lon="8.0919127"><ele>309.57142857142856</ele><time>2026-04-10T11:19:51.841Z</time></trkpt><trkpt lat="44.998657" lon="8.0918249"><ele>310.0</ele><time>2026-04-10T11:19:54.84Z</time></trkpt><trkpt lat="44.998588" lon="8.0917687"><ele>310.0</ele><time>2026-04-10T11:19:57.842Z</time></trkpt><trkpt lat="44.9984987" lon="8.091742"><ele>310.0</ele><time>2026-04-10T11:20:00.84Z</time></trkpt><trkpt lat="44.998426" lon="8.0918218"><ele>310.0</ele><time>2026-04-10T11:20:02.842Z</time></trkpt><trkpt lat="44.9983486" lon="8.0919502"><ele>310.0</ele><time>2026-04-10T11:20:04.841Z</time></trkpt><trkpt lat="44.9983016" lon="8.0920174"><ele>310.0</ele><time>2026-04-10T11:20:05.841Z</time></trkpt><trkpt lat="44.99825" lon="8.0920892"><ele>310.0</ele><time>2026-04-10T11:20:06.84Z</time></trkpt><trkpt lat="44.9981989" lon="8.0921797"><ele>309.57142857142856</ele><time>2026-04-10T11:20:07.839Z</time></trkpt><trkpt lat="44.9981578" lon="8.0922598"><ele>309.1428571428571</ele><time>2026-04-10T11:20:08.84Z</time></trkpt><trkpt lat="44.9981076" lon="8.0923255"><ele>308.71428571428567</ele><time>2026-04-10T11:20:09.84Z</time></trkpt><trkpt lat="44.998059" lon="8.0923876"><ele>308.2857142857143</ele><time>2026-04-10T11:20:10.84Z</time></trkpt><trkpt lat="44.9979972" lon="8.0924188"><ele>307.85714285714283</ele><time>2026-04-10T11:20:11.841Z</time></trkpt><trkpt lat="44.9979163" lon="8.0924283"><ele>307.4285714285714</ele><time>2026-04-10T11:20:12.841Z</time></trkpt><trkpt lat="44.9978449" lon="8.0924206"><ele>307.0</ele><time>2026-04-10T11:20:13.841Z</time></trkpt><trkpt lat="44.9977707" lon="8.0924053"><ele>307.0</ele><time>2026-04-10T11:20:14.84Z</time></trkpt><trkpt lat="44.9976944" lon="8.0923888"><ele>307.0</ele><time>2026-04-10T11:20:15.84Z</time></trkpt><trkpt lat="44.997549" lon="8.0923192"><ele>307.0</ele><time>2026-04-10T11:20:17.841Z</time></trkpt><trkpt lat="44.9974817" lon="8.0922779"><ele>307.0</ele><time>2026-04-10T11:20:18.84Z</time></trkpt><trkpt lat="44.9974166" lon="8.0922363"><ele>307.0</ele><time>2026-04-10T11:20:19.84Z</time></trkpt><trkpt lat="44.9973505" lon="8.0922004"><ele>307.0</ele><time>2026-04-10T11:20:20.84Z</time></trkpt><trkpt lat="44.9972329" lon="8.0921458"><ele>305.0</ele><time>2026-04-10T11:20:22.841Z</time></trkpt><trkpt lat="44.997149" lon="8.0920454"><ele>303.0</ele><time>2026-04-10T11:20:24.841Z</time></trkpt><trkpt lat="44.99709" lon="8.0919509"><ele>301.0</ele><time>2026-04-10T11:20:26.84Z</time></trkpt><trkpt lat="44.9970251" lon="8.0918639"><ele>299.0</ele><time>2026-04-10T11:20:28.839Z</time></trkpt><trkpt lat="44.9969618" lon="8.0917688"><ele>297.0</ele><time>2026-04-10T11:20:30.839Z</time></trkpt><trkpt lat="44.9968999" lon="8.0916465"><ele>297.2</ele><time>2026-04-10T11:20:32.841Z</time></trkpt><trkpt lat="44.9968506" lon="8.0915343"><ele>297.4</ele><time>2026-04-10T11:20:34.841Z</time></trkpt><trkpt lat="44.9968133" lon="8.0914208"><ele>297.6</ele><time>2026-04-10T11:20:36.84Z</time></trkpt><trkpt lat="44.9967377" lon="8.0912283"><ele>297.8</ele><time>2026-04-10T11:20:39.842Z</time></trkpt><trkpt lat="44.9966723" lon="8.0911129"><ele>298.0</ele><time>2026-04-10T11:20:41.841Z</time></trkpt><trkpt lat="44.9965971" lon="8.0910217"><ele>298.0</ele><time>2026-04-10T11:20:43.84Z</time></trkpt><trkpt lat="44.996515" lon="8.090931"><ele>298.0</ele><time>2026-04-10T11:20:45.84Z</time></trkpt><trkpt lat="44.9964214" lon="8.0908676"><ele>298.0</ele><time>2026-04-10T11:20:47.841Z</time></trkpt><trkpt lat="44.9963249" lon="8.0908574"><ele>298.0</ele><time>2026-04-10T11:20:49.841Z</time></trkpt><trkpt lat="44.9962178" lon="8.0908688"><ele>298.0</ele><time>2026-04-10T11:20:51.841Z</time></trkpt><trkpt lat="44.9961052" lon="8.090909"><ele>298.0</ele><time>2026-04-10T11:20:53.841Z</time></trkpt><trkpt lat="44.9960414" lon="8.0909216"><ele>298.0</ele><time>2026-04-10T11:20:54.841Z</time></trkpt><trkpt lat="44.9959174" lon="8.0909521"><ele>298.0</ele><time>2026-04-10T11:20:56.84Z</time></trkpt><trkpt lat="44.9957971" lon="8.0909785"><ele>298.0</ele><time>2026-04-10T11:20:58.841Z</time></trkpt><trkpt lat="44.9956811" lon="8.0909894"><ele>298.0</ele><time>2026-04-10T11:21:00.84Z</time></trkpt><trkpt lat="44.9955758" lon="8.0910173"><ele>298.0</ele><time>2026-04-10T11:21:02.84Z</time></trkpt><trkpt lat="44.9954549" lon="8.0910241"><ele>298.0</ele><time>2026-04-10T11:21:04.841Z</time></trkpt><trkpt lat="44.9953353" lon="8.0910162"><ele>298.0</ele><time>2026-04-10T11:21:06.841Z</time></trkpt><trkpt lat="44.9952137" lon="8.0910095"><ele>298.0</ele><time>2026-04-10T11:21:08.842Z</time></trkpt><trkpt lat="44.995094" lon="8.0909771"><ele>299.0</ele><time>2026-04-10T11:21:10.842Z</time></trkpt><trkpt lat="44.9949782" lon="8.0909239"><ele>300.0</ele><time>2026-04-10T11:21:12.841Z</time></trkpt><trkpt lat="44.9948543" lon="8.0908937"><ele>301.0</ele><time>2026-04-10T11:21:14.842Z</time></trkpt><trkpt lat="44.9947344" lon="8.0908686"><ele>302.0</ele><time>2026-04-10T11:21:16.84Z</time></trkpt><trkpt lat="44.9946713" lon="8.0908497"><ele>303.0</ele><time>2026-04-10T11:21:17.841Z</time></trkpt><trkpt lat="44.9946067" lon="8.0908343"><ele>303.0</ele><time>2026-04-10T11:21:18.842Z</time></trkpt><trkpt lat="44.9945442" lon="8.0908215"><ele>303.0</ele><time>2026-04-10T11:21:19.84Z</time></trkpt><trkpt lat="44.9944161" lon="8.0908184"><ele>303.0</ele><time>2026-04-10T11:21:21.842Z</time></trkpt><trkpt lat="44.9943489" lon="8.0908166"><ele>303.0</ele><time>2026-04-10T11:21:22.841Z</time></trkpt><trkpt lat="44.9942846" lon="8.0908134"><ele>303.0</ele><time>2026-04-10T11:21:23.839Z</time></trkpt><trkpt lat="44.9942216" lon="8.0908255"><ele>303.0</ele><time>2026-04-10T11:21:24.84Z</time></trkpt><trkpt lat="44.9941569" lon="8.0908305"><ele>303.14285714285717</ele><time>2026-04-10T11:21:25.842Z</time></trkpt><trkpt lat="44.9940926" lon="8.0908346"><ele>303.2857142857143</ele><time>2026-04-10T11:21:26.84Z</time></trkpt><trkpt lat="44.9940265" lon="8.090838"><ele>303.42857142857144</ele><time>2026-04-10T11:21:27.841Z</time></trkpt><trkpt lat="44.9939566" lon="8.0908412"><ele>303.57142857142856</ele><time>2026-04-10T11:21:28.839Z</time></trkpt><trkpt lat="44.9938918" lon="8.090848"><ele>303.7142857142857</ele><time>2026-04-10T11:21:29.84Z</time></trkpt><trkpt lat="44.9938221" lon="8.0908536"><ele>303.85714285714283</ele><time>2026-04-10T11:21:30.84Z</time></trkpt><trkpt lat="44.9937529" lon="8.0908601"><ele>304.0</ele><time>2026-04-10T11:21:31.84Z</time></trkpt><trkpt lat="44.9936808" lon="8.0908622"><ele>304.0</ele><time>2026-04-10T11:21:32.841Z</time></trkpt><trkpt lat="44.9936139" lon="8.0908733"><ele>304.0</ele><time>2026-04-10T11:21:33.841Z</time></trkpt><trkpt lat="44.9935418" lon="8.09087"><ele>304.0</ele><time>2026-04-10T11:21:34.842Z</time></trkpt><trkpt lat="44.9934684" lon="8.0908739"><ele>304.0</ele><time>2026-04-10T11:21:35.84Z</time></trkpt><trkpt lat="44.9933989" lon="8.0908768"><ele>304.0</ele><time>2026-04-10T11:21:36.841Z</time></trkpt><trkpt lat="44.993325" lon="8.0908808"><ele>304.0</ele><time>2026-04-10T11:21:37.84Z</time></trkpt><trkpt lat="44.9932519" lon="8.0908843"><ele>304.0</ele><time>2026-04-10T11:21:38.842Z</time></trkpt><trkpt lat="44.9931768" lon="8.0908879"><ele>303.2857142857143</ele><time>2026-04-10T11:21:39.84Z</time></trkpt><trkpt lat="44.9930951" lon="8.0908889"><ele>302.5714285714286</ele><time>2026-04-10T11:21:40.842Z</time></trkpt><trkpt lat="44.9930163" lon="8.0908978"><ele>301.8571428571429</ele><time>2026-04-10T11:21:41.839Z</time></trkpt><trkpt lat="44.9929464" lon="8.0909063"><ele>301.1428571428571</ele><time>2026-04-10T11:21:42.842Z</time></trkpt><trkpt lat="44.9928842" lon="8.0909206"><ele>300.42857142857144</ele><time>2026-04-10T11:21:43.84Z</time></trkpt><trkpt lat="44.9928168" lon="8.0909273"><ele>299.7142857142857</ele><time>2026-04-10T11:21:44.842Z</time></trkpt><trkpt lat="44.9927437" lon="8.0909274"><ele>299.0</ele><time>2026-04-10T11:21:45.84Z</time></trkpt><trkpt lat="44.9926634" lon="8.0909267"><ele>299.0</ele><time>2026-04-10T11:21:46.84Z</time></trkpt><trkpt lat="44.9925829" lon="8.0909278"><ele>299.0</ele><time>2026-04-10T11:21:47.84Z</time></trkpt><trkpt lat="44.9924969" lon="8.0909348"><ele>299.0</ele><time>2026-04-10T11:21:48.84Z</time></trkpt><trkpt lat="44.9924172" lon="8.0909471"><ele>299.0</ele><time>2026-04-10T11:21:49.839Z</time></trkpt><trkpt lat="44.9923331" lon="8.0909497"><ele>299.0</ele><time>2026-04-10T11:21:50.84Z</time></trkpt><trkpt lat="44.9922517" lon="8.0909602"><ele>299.0</ele><time>2026-04-10T11:21:51.84Z</time></trkpt><trkpt lat="44.9921706" lon="8.0909713"><ele>298.5</ele><time>2026-04-10T11:21:52.842Z</time></trkpt><trkpt lat="44.9920909" lon="8.0909717"><ele>298.0</ele><time>2026-04-10T11:21:53.84Z</time></trkpt><trkpt lat="44.9920068" lon="8.090975"><ele>297.5</ele><time>2026-04-10T11:21:54.84Z</time></trkpt><trkpt lat="44.9919307" lon="8.0909813"><ele>297.0</ele><time>2026-04-10T11:21:55.841Z</time></trkpt><trkpt lat="44.9918552" lon="8.0909795"><ele>296.5</ele><time>2026-04-10T11:21:56.84Z</time></trkpt><trkpt lat="44.9917881" lon="8.0909744"><ele>296.0</ele><time>2026-04-10T11:21:57.841Z</time></trkpt><trkpt lat="44.9917172" lon="8.0909757"><ele>296.2</ele><time>2026-04-10T11:21:58.841Z</time></trkpt><trkpt lat="44.991602" lon="8.0909457"><ele>296.40000000000003</ele><time>2026-04-10T11:22:00.84Z</time></trkpt><trkpt lat="44.9915051" lon="8.0908967"><ele>296.6</ele><time>2026-04-10T11:22:02.841Z</time></trkpt><trkpt lat="44.991413" lon="8.0908257"><ele>296.8</ele><time>2026-04-10T11:22:04.841Z</time></trkpt><trkpt lat="44.9913246" lon="8.0907486"><ele>297.0</ele><time>2026-04-10T11:22:06.842Z</time></trkpt><trkpt lat="44.9912381" lon="8.0906693"><ele>296.6</ele><time>2026-04-10T11:22:08.842Z</time></trkpt><trkpt lat="44.9911544" lon="8.0905867"><ele>296.2</ele><time>2026-04-10T11:22:10.841Z</time></trkpt><trkpt lat="44.9910756" lon="8.0905129"><ele>295.8</ele><time>2026-04-10T11:22:12.841Z</time></trkpt><trkpt lat="44.9909974" lon="8.0904384"><ele>295.4</ele><time>2026-04-10T11:22:14.84Z</time></trkpt><trkpt lat="44.9909182" lon="8.0904006"><ele>295.0</ele><time>2026-04-10T11:22:16.84Z</time></trkpt><trkpt lat="44.9908341" lon="8.0904063"><ele>295.0</ele><time>2026-04-10T11:22:18.842Z</time></trkpt><trkpt lat="44.9907684" lon="8.090398"><ele>295.0</ele><time>2026-04-10T11:22:21.841Z</time></trkpt><trkpt lat="44.9906966" lon="8.0904885"><ele>295.0</ele><time>2026-04-10T11:22:24.841Z</time></trkpt><trkpt lat="44.9906382" lon="8.0905639"><ele>295.0</ele><time>2026-04-10T11:22:26.841Z</time></trkpt><trkpt lat="44.9905498" lon="8.0906467"><ele>295.0</ele><time>2026-04-10T11:22:28.84Z</time></trkpt><trkpt lat="44.9904532" lon="8.0907239"><ele>296.16666666666663</ele><time>2026-04-10T11:22:30.841Z</time></trkpt><trkpt lat="44.9903652" lon="8.0908027"><ele>297.3333333333333</ele><time>2026-04-10T11:22:32.841Z</time></trkpt><trkpt lat="44.9902923" lon="8.0908589"><ele>298.5</ele><time>2026-04-10T11:22:34.841Z</time></trkpt><trkpt lat="44.9902496" lon="8.090951"><ele>299.6666666666667</ele><time>2026-04-10T11:22:37.842Z</time></trkpt><trkpt lat="44.9903069" lon="8.0910009"><ele>300.83333333333337</ele><time>2026-04-10T11:23:00.842Z</time></trkpt><trkpt lat="44.990238" lon="8.0910451"><ele>302.0</ele><time>2026-04-10T11:23:20.84Z</time></trkpt><trkpt lat="44.9901667" lon="8.0910953"><ele>302.0</ele><time>2026-04-10T11:23:27.841Z</time></trkpt><trkpt lat="44.990104" lon="8.0910548"><ele>302.0</ele><time>2026-04-10T11:23:29.841Z</time></trkpt><trkpt lat="44.9900129" lon="8.0910354"><ele>302.0</ele><time>2026-04-10T11:23:31.841Z</time></trkpt><trkpt lat="44.9899237" lon="8.0910847"><ele>302.0</ele><time>2026-04-10T11:23:33.84Z</time></trkpt><trkpt lat="44.9898235" lon="8.0911438"><ele>302.0</ele><time>2026-04-10T11:23:35.84Z</time></trkpt><trkpt lat="44.989737" lon="8.0912027"><ele>300.8571428571429</ele><time>2026-04-10T11:23:37.84Z</time></trkpt><trkpt lat="44.989665" lon="8.091239"><ele>299.7142857142857</ele><time>2026-04-10T11:23:39.841Z</time></trkpt><trkpt lat="44.9895991" lon="8.0912164"><ele>298.57142857142856</ele><time>2026-04-10T11:23:40.84Z</time></trkpt><trkpt lat="44.9895379" lon="8.0912442"><ele>297.42857142857144</ele><time>2026-04-10T11:23:42.84Z</time></trkpt><trkpt lat="44.9895055" lon="8.0911583"><ele>296.2857142857143</ele><time>2026-04-10T11:24:59.841Z</time></trkpt><trkpt lat="44.9894319" lon="8.0911489"><ele>295.14285714285717</ele><time>2026-04-10T11:25:01.841Z</time></trkpt><trkpt lat="44.9893394" lon="8.0911451"><ele>294.0</ele><time>2026-04-10T11:25:03.839Z</time></trkpt><trkpt lat="44.9892492" lon="8.0911243"><ele>293.59999999999997</ele><time>2026-04-10T11:25:05.841Z</time></trkpt><trkpt lat="44.9891583" lon="8.0910863"><ele>293.2</ele><time>2026-04-10T11:25:07.841Z</time></trkpt><trkpt lat="44.9890631" lon="8.091039"><ele>292.79999999999995</ele><time>2026-04-10T11:25:09.842Z</time></trkpt><trkpt lat="44.988962" lon="8.0909952"><ele>292.4</ele><time>2026-04-10T11:25:11.84Z</time></trkpt><trkpt lat="44.9888502" lon="8.0909745"><ele>292.0</ele><time>2026-04-10T11:25:13.841Z</time></trkpt><trkpt lat="44.9887442" lon="8.0909304"><ele>292.0</ele><time>2026-04-10T11:25:15.841Z</time></trkpt><trkpt lat="44.9886415" lon="8.0908951"><ele>292.0</ele><time>2026-04-10T11:25:17.84Z</time></trkpt><trkpt lat="44.9885525" lon="8.0908639"><ele>292.0</ele><time>2026-04-10T11:25:19.842Z</time></trkpt><trkpt lat="44.9884654" lon="8.0908704"><ele>292.0</ele><time>2026-04-10T11:25:21.841Z</time></trkpt><trkpt lat="44.9883808" lon="8.0908587"><ele>292.0</ele><time>2026-04-10T11:25:23.842Z</time></trkpt><trkpt lat="44.9882944" lon="8.0908264"><ele>292.8333333333333</ele><time>2026-04-10T11:25:25.841Z</time></trkpt><trkpt lat="44.988209" lon="8.090804"><ele>293.66666666666663</ele><time>2026-04-10T11:25:27.84Z</time></trkpt><trkpt lat="44.9880953" lon="8.0907937"><ele>294.5</ele><time>2026-04-10T11:25:29.84Z</time></trkpt><trkpt lat="44.9880288" lon="8.0907861"><ele>295.3333333333333</ele><time>2026-04-10T11:25:30.84Z</time></trkpt><trkpt lat="44.9879527" lon="8.0907663"><ele>296.1666666666667</ele><time>2026-04-10T11:25:31.841Z</time></trkpt><trkpt lat="44.9878723" lon="8.0907532"><ele>297.0</ele><time>2026-04-10T11:25:32.84Z</time></trkpt><trkpt lat="44.9877887" lon="8.0907165"><ele>295.8</ele><time>2026-04-10T11:25:33.839Z</time></trkpt><trkpt lat="44.9877093" lon="8.0906849"><ele>294.6</ele><time>2026-04-10T11:25:34.84Z</time></trkpt><trkpt lat="44.9876297" lon="8.0906428"><ele>293.40000000000003</ele><time>2026-04-10T11:25:35.841Z</time></trkpt><trkpt lat="44.9875494" lon="8.0905848"><ele>292.2</ele><time>2026-04-10T11:25:36.839Z</time></trkpt><trkpt lat="44.9874665" lon="8.0905098"><ele>291.0</ele><time>2026-04-10T11:25:37.84Z</time></trkpt><trkpt lat="44.9873828" lon="8.0904423"><ele>291.0</ele><time>2026-04-10T11:25:38.84Z</time></trkpt><trkpt lat="44.9872993" lon="8.0903534"><ele>291.0</ele><time>2026-04-10T11:25:39.841Z</time></trkpt><trkpt lat="44.9871533" lon="8.090164"><ele>291.0</ele><time>2026-04-10T11:25:41.84Z</time></trkpt><trkpt lat="44.9870865" lon="8.0900635"><ele>291.0</ele><time>2026-04-10T11:25:42.841Z</time></trkpt><trkpt lat="44.9870276" lon="8.0899548"><ele>288.2</ele><time>2026-04-10T11:25:43.84Z</time></trkpt><trkpt lat="44.9869655" lon="8.0898502"><ele>285.40000000000003</ele><time>2026-04-10T11:25:44.841Z</time></trkpt><trkpt lat="44.9869082" lon="8.0897333"><ele>282.6</ele><time>2026-04-10T11:25:45.84Z</time></trkpt><trkpt lat="44.9868511" lon="8.0896177"><ele>279.8</ele><time>2026-04-10T11:25:46.841Z</time></trkpt><trkpt lat="44.9867956" lon="8.0895246"><ele>277.0</ele><time>2026-04-10T11:25:47.84Z</time></trkpt><trkpt lat="44.9867451" lon="8.0894377"><ele>277.8</ele><time>2026-04-10T11:25:48.841Z</time></trkpt><trkpt lat="44.9866629" lon="8.0893135"><ele>278.6</ele><time>2026-04-10T11:25:50.84Z</time></trkpt><trkpt lat="44.9866124" lon="8.0892599"><ele>279.40000000000003</ele><time>2026-04-10T11:25:51.841Z</time></trkpt><trkpt lat="44.9864909" lon="8.0891878"><ele>280.2</ele><time>2026-04-10T11:25:53.841Z</time></trkpt><trkpt lat="44.986418" lon="8.0891568"><ele>281.0</ele><time>2026-04-10T11:25:54.84Z</time></trkpt><trkpt lat="44.9863443" lon="8.0891404"><ele>281.0</ele><time>2026-04-10T11:25:55.839Z</time></trkpt><trkpt lat="44.9862653" lon="8.0891312"><ele>281.0</ele><time>2026-04-10T11:25:56.841Z</time></trkpt><trkpt lat="44.9861853" lon="8.0891228"><ele>281.0</ele><time>2026-04-10T11:25:57.84Z</time></trkpt><trkpt lat="44.986097" lon="8.0891156"><ele>281.0</ele><time>2026-04-10T11:25:58.841Z</time></trkpt><trkpt lat="44.9860039" lon="8.0890988"><ele>281.0</ele><time>2026-04-10T11:25:59.839Z</time></trkpt><trkpt lat="44.9859094" lon="8.0890786"><ele>281.0</ele><time>2026-04-10T11:26:00.839Z</time></trkpt><trkpt lat="44.9858133" lon="8.0890429"><ele>282.40000000000003</ele><time>2026-04-10T11:26:01.84Z</time></trkpt><trkpt lat="44.9857151" lon="8.0889938"><ele>283.8</ele><time>2026-04-10T11:26:02.839Z</time></trkpt><trkpt lat="44.985616" lon="8.0889211"><ele>285.20000000000005</ele><time>2026-04-10T11:26:03.84Z</time></trkpt><trkpt lat="44.9855186" lon="8.0888453"><ele>286.6</ele><time>2026-04-10T11:26:04.839Z</time></trkpt><trkpt lat="44.9854196" lon="8.0887706"><ele>288.0</ele><time>2026-04-10T11:26:05.84Z</time></trkpt><trkpt lat="44.9853167" lon="8.0886818"><ele>288.0</ele><time>2026-04-10T11:26:06.841Z</time></trkpt><trkpt lat="44.9852175" lon="8.0885838"><ele>288.0</ele><time>2026-04-10T11:26:07.841Z</time></trkpt><trkpt lat="44.9851169" lon="8.0884865"><ele>288.0</ele><time>2026-04-10T11:26:08.84Z</time></trkpt><trkpt lat="44.9850152" lon="8.0883879"><ele>288.0</ele><time>2026-04-10T11:26:09.841Z</time></trkpt><trkpt lat="44.9849194" lon="8.0882767"><ele>285.5</ele><time>2026-04-10T11:26:10.841Z</time></trkpt><trkpt lat="44.984824" lon="8.0881698"><ele>283.0</ele><time>2026-04-10T11:26:11.84Z</time></trkpt><trkpt lat="44.9847312" lon="8.0880619"><ele>280.5</ele><time>2026-04-10T11:26:12.84Z</time></trkpt><trkpt lat="44.9846392" lon="8.087954"><ele>278.0</ele><time>2026-04-10T11:26:13.84Z</time></trkpt><trkpt lat="44.9845403" lon="8.0878634"><ele>278.0</ele><time>2026-04-10T11:26:14.84Z</time></trkpt><trkpt lat="44.9844302" lon="8.0877916"><ele>278.0</ele><time>2026-04-10T11:26:15.84Z</time></trkpt><trkpt lat="44.9843203" lon="8.0877335"><ele>278.0</ele><time>2026-04-10T11:26:16.84Z</time></trkpt><trkpt lat="44.9842047" lon="8.0877018"><ele>278.0</ele><time>2026-04-10T11:26:17.842Z</time></trkpt><trkpt lat="44.9840949" lon="8.087698"><ele>274.8</ele><time>2026-04-10T11:26:18.841Z</time></trkpt><trkpt lat="44.98398" lon="8.0877029"><ele>271.6</ele><time>2026-04-10T11:26:19.841Z</time></trkpt><trkpt lat="44.9838746" lon="8.0877298"><ele>268.4</ele><time>2026-04-10T11:26:20.841Z</time></trkpt><trkpt lat="44.9837769" lon="8.087754"><ele>265.2</ele><time>2026-04-10T11:26:21.84Z</time></trkpt><trkpt lat="44.9836794" lon="8.0877653"><ele>262.0</ele><time>2026-04-10T11:26:22.841Z</time></trkpt><trkpt lat="44.9835937" lon="8.0877915"><ele>262.0</ele><time>2026-04-10T11:26:23.841Z</time></trkpt><trkpt lat="44.9835126" lon="8.087811"><ele>262.0</ele><time>2026-04-10T11:26:24.841Z</time></trkpt><trkpt lat="44.9834332" lon="8.0878226"><ele>262.0</ele><time>2026-04-10T11:26:25.84Z</time></trkpt><trkpt lat="44.9833624" lon="8.0878433"><ele>262.0</ele><time>2026-04-10T11:26:26.841Z</time></trkpt><trkpt lat="44.9832896" lon="8.0878628"><ele>262.0</ele><time>2026-04-10T11:26:27.841Z</time></trkpt><trkpt lat="44.9832259" lon="8.0878819"><ele>262.0</ele><time>2026-04-10T11:26:28.84Z</time></trkpt><trkpt lat="44.9831625" lon="8.0879001"><ele>262.0</ele><time>2026-04-10T11:26:29.841Z</time></trkpt><trkpt lat="44.9830996" lon="8.087918"><ele>263.5</ele><time>2026-04-10T11:26:30.839Z</time></trkpt><trkpt lat="44.9829796" lon="8.087932"><ele>265.0</ele><time>2026-04-10T11:26:32.841Z</time></trkpt><trkpt lat="44.9828644" lon="8.0879244"><ele>266.5</ele><time>2026-04-10T11:26:34.839Z</time></trkpt><trkpt lat="44.9827585" lon="8.0878938"><ele>268.0</ele><time>2026-04-10T11:26:36.841Z</time></trkpt><trkpt lat="44.9826553" lon="8.0878505"><ele>268.0</ele><time>2026-04-10T11:26:38.839Z</time></trkpt><trkpt lat="44.9825612" lon="8.0877794"><ele>268.0</ele><time>2026-04-10T11:26:40.84Z</time></trkpt><trkpt lat="44.9824684" lon="8.0877285"><ele>268.0</ele><time>2026-04-10T11:26:42.839Z</time></trkpt><trkpt lat="44.9823726" lon="8.0876658"><ele>268.0</ele><time>2026-04-10T11:26:44.84Z</time></trkpt><trkpt lat="44.9822691" lon="8.0876076"><ele>268.0</ele><time>2026-04-10T11:26:46.839Z</time></trkpt><trkpt lat="44.9821682" lon="8.0875587"><ele>269.0</ele><time>2026-04-10T11:26:48.84Z</time></trkpt><trkpt lat="44.9820717" lon="8.0875093"><ele>270.0</ele><time>2026-04-10T11:26:50.84Z</time></trkpt><trkpt lat="44.9819629" lon="8.087458"><ele>271.0</ele><time>2026-04-10T11:26:52.841Z</time></trkpt><trkpt lat="44.981852" lon="8.0873969"><ele>272.0</ele><time>2026-04-10T11:26:54.84Z</time></trkpt><trkpt lat="44.9817438" lon="8.0873443"><ele>268.8</ele><time>2026-04-10T11:26:56.84Z</time></trkpt><trkpt lat="44.9816347" lon="8.0872973"><ele>265.6</ele><time>2026-04-10T11:26:58.84Z</time></trkpt><trkpt lat="44.9815288" lon="8.0872502"><ele>262.40000000000003</ele><time>2026-04-10T11:27:00.841Z</time></trkpt><trkpt lat="44.9814269" lon="8.0872076"><ele>259.2</ele><time>2026-04-10T11:27:02.84Z</time></trkpt><trkpt lat="44.9813246" lon="8.0871657"><ele>256.0</ele><time>2026-04-10T11:27:04.839Z</time></trkpt><trkpt lat="44.9812155" lon="8.0871265"><ele>256.0</ele><time>2026-04-10T11:27:06.84Z</time></trkpt><trkpt lat="44.9811204" lon="8.08711"><ele>256.0</ele><time>2026-04-10T11:27:08.842Z</time></trkpt><trkpt lat="44.981011" lon="8.087075"><ele>256.0</ele><time>2026-04-10T11:27:10.839Z</time></trkpt><trkpt lat="44.9809039" lon="8.0870378"><ele>256.0</ele><time>2026-04-10T11:27:12.84Z</time></trkpt><trkpt lat="44.9808186" lon="8.08696"><ele>256.0</ele><time>2026-04-10T11:27:14.839Z</time></trkpt><trkpt lat="44.9807576" lon="8.0868717"><ele>258.3333333333333</ele><time>2026-04-10T11:27:16.841Z</time></trkpt><trkpt lat="44.9807034" lon="8.0868023"><ele>260.66666666666663</ele><time>2026-04-10T11:27:18.84Z</time></trkpt><trkpt lat="44.9806295" lon="8.0867138"><ele>263.0</ele><time>2026-04-10T11:27:21.84Z</time></trkpt><trkpt lat="44.9806082" lon="8.0866123"><ele>265.3333333333333</ele><time>2026-04-10T11:27:23.839Z</time></trkpt><trkpt lat="44.9805859" lon="8.0864865"><ele>267.6666666666667</ele><time>2026-04-10T11:27:25.841Z</time></trkpt><trkpt lat="44.9805767" lon="8.0863743"><ele>270.0</ele><time>2026-04-10T11:27:27.84Z</time></trkpt><trkpt lat="44.9805612" lon="8.0862783"><ele>270.0</ele><time>2026-04-10T11:27:29.839Z</time></trkpt><trkpt lat="44.9805564" lon="8.0861483"><ele>270.0</ele><time>2026-04-10T11:27:31.84Z</time></trkpt><trkpt lat="44.9805523" lon="8.0859921"><ele>270.0</ele><time>2026-04-10T11:27:33.84Z</time></trkpt><trkpt lat="44.980556" lon="8.0858989"><ele>270.0</ele><time>2026-04-10T11:27:34.84Z</time></trkpt><trkpt lat="44.9805619" lon="8.0858102"><ele>270.0</ele><time>2026-04-10T11:27:35.842Z</time></trkpt><trkpt lat="44.980568" lon="8.0857078"><ele>270.0</ele><time>2026-04-10T11:27:36.84Z</time></trkpt><trkpt lat="44.9805682" lon="8.0856051"><ele>269.1666666666667</ele><time>2026-04-10T11:27:37.841Z</time></trkpt><trkpt lat="44.9805686" lon="8.0854971"><ele>268.3333333333333</ele><time>2026-04-10T11:27:38.84Z</time></trkpt><trkpt lat="44.9805691" lon="8.0853936"><ele>267.5</ele><time>2026-04-10T11:27:39.84Z</time></trkpt><trkpt lat="44.9805756" lon="8.0852861"><ele>266.66666666666663</ele><time>2026-04-10T11:27:40.841Z</time></trkpt><trkpt lat="44.9805715" lon="8.0851751"><ele>265.8333333333333</ele><time>2026-04-10T11:27:41.84Z</time></trkpt><trkpt lat="44.9805599" lon="8.0850528"><ele>265.0</ele><time>2026-04-10T11:27:42.841Z</time></trkpt><trkpt lat="44.980542" lon="8.0849456"><ele>265.16666666666663</ele><time>2026-04-10T11:27:43.84Z</time></trkpt><trkpt lat="44.9805108" lon="8.0848477"><ele>265.3333333333333</ele><time>2026-04-10T11:27:44.84Z</time></trkpt><trkpt lat="44.9804717" lon="8.0847456"><ele>265.5</ele><time>2026-04-10T11:27:45.841Z</time></trkpt><trkpt lat="44.980428" lon="8.0846565"><ele>265.6666666666667</ele><time>2026-04-10T11:27:46.84Z</time></trkpt><trkpt lat="44.98039" lon="8.0845709"><ele>265.83333333333337</ele><time>2026-04-10T11:27:47.84Z</time></trkpt><trkpt lat="44.9803413" lon="8.0844899"><ele>266.0</ele><time>2026-04-10T11:27:48.84Z</time></trkpt><trkpt lat="44.9802934" lon="8.0844086"><ele>266.0</ele><time>2026-04-10T11:27:49.841Z</time></trkpt><trkpt lat="44.9802408" lon="8.0843325"><ele>266.0</ele><time>2026-04-10T11:27:50.84Z</time></trkpt><trkpt lat="44.9801939" lon="8.0842606"><ele>266.0</ele><time>2026-04-10T11:27:51.84Z</time></trkpt><trkpt lat="44.9801404" lon="8.0841877"><ele>266.0</ele><time>2026-04-10T11:27:52.84Z</time></trkpt><trkpt lat="44.9800916" lon="8.0841149"><ele>266.0</ele><time>2026-04-10T11:27:53.84Z</time></trkpt><trkpt lat="44.980047" lon="8.0840491"><ele>266.0</ele><time>2026-04-10T11:27:54.84Z</time></trkpt><trkpt lat="44.9800092" lon="8.083969"><ele>266.0</ele><time>2026-04-10T11:27:55.841Z</time></trkpt><trkpt lat="44.9799703" lon="8.0838817"><ele>267.2857142857143</ele><time>2026-04-10T11:27:56.841Z</time></trkpt><trkpt lat="44.9799263" lon="8.0838037"><ele>268.57142857142856</ele><time>2026-04-10T11:27:57.839Z</time></trkpt><trkpt lat="44.9798807" lon="8.0837357"><ele>269.8571428571429</ele><time>2026-04-10T11:27:58.839Z</time></trkpt><trkpt lat="44.9798309" lon="8.0836644"><ele>271.1428571428571</ele><time>2026-04-10T11:27:59.841Z</time></trkpt><trkpt lat="44.9797833" lon="8.0835795"><ele>272.42857142857144</ele><time>2026-04-10T11:28:00.84Z</time></trkpt><trkpt lat="44.979728" lon="8.0835109"><ele>273.7142857142857</ele><time>2026-04-10T11:28:01.84Z</time></trkpt><trkpt lat="44.9796699" lon="8.0834437"><ele>275.0</ele><time>2026-04-10T11:28:02.84Z</time></trkpt><trkpt lat="44.9796146" lon="8.0833761"><ele>275.0</ele><time>2026-04-10T11:28:03.84Z</time></trkpt><trkpt lat="44.9795555" lon="8.0833187"><ele>275.0</ele><time>2026-04-10T11:28:04.841Z</time></trkpt><trkpt lat="44.9794946" lon="8.0832654"><ele>275.0</ele><time>2026-04-10T11:28:05.84Z</time></trkpt><trkpt lat="44.9794317" lon="8.0832158"><ele>275.0</ele><time>2026-04-10T11:28:06.84Z</time></trkpt><trkpt lat="44.9793681" lon="8.0831643"><ele>275.0</ele><time>2026-04-10T11:28:07.84Z</time></trkpt><trkpt lat="44.9793113" lon="8.0831239"><ele>275.0</ele><time>2026-04-10T11:28:08.841Z</time></trkpt><trkpt lat="44.979217" lon="8.0830419"><ele>273.6666666666667</ele><time>2026-04-10T11:28:10.841Z</time></trkpt><trkpt lat="44.9791606" lon="8.0829903"><ele>272.33333333333337</ele><time>2026-04-10T11:28:11.84Z</time></trkpt><trkpt lat="44.9790991" lon="8.0829333"><ele>271.0</ele><time>2026-04-10T11:28:12.839Z</time></trkpt><trkpt lat="44.9790371" lon="8.0828763"><ele>269.6666666666667</ele><time>2026-04-10T11:28:13.84Z</time></trkpt><trkpt lat="44.978972" lon="8.0828125"><ele>268.3333333333333</ele><time>2026-04-10T11:28:14.841Z</time></trkpt><trkpt lat="44.978901" lon="8.0827416"><ele>267.0</ele><time>2026-04-10T11:28:15.84Z</time></trkpt><trkpt lat="44.9788266" lon="8.0826739"><ele>267.0</ele><time>2026-04-10T11:28:16.839Z</time></trkpt><trkpt lat="44.9787489" lon="8.0826029"><ele>267.0</ele><time>2026-04-10T11:28:17.842Z</time></trkpt><trkpt lat="44.978668" lon="8.082508"><ele>267.0</ele><time>2026-04-10T11:28:18.839Z</time></trkpt><trkpt lat="44.9785908" lon="8.0824347"><ele>267.0</ele><time>2026-04-10T11:28:19.84Z</time></trkpt><trkpt lat="44.9785076" lon="8.0823549"><ele>267.0</ele><time>2026-04-10T11:28:20.84Z</time></trkpt><trkpt lat="44.9784239" lon="8.0822817"><ele>265.0</ele><time>2026-04-10T11:28:21.84Z</time></trkpt><trkpt lat="44.9783347" lon="8.0822039"><ele>263.0</ele><time>2026-04-10T11:28:22.84Z</time></trkpt><trkpt lat="44.9782589" lon="8.0821509"><ele>261.0</ele><time>2026-04-10T11:28:23.841Z</time></trkpt><trkpt lat="44.9781783" lon="8.0820838"><ele>259.0</ele><time>2026-04-10T11:28:24.84Z</time></trkpt><trkpt lat="44.9781076" lon="8.0820128"><ele>257.0</ele><time>2026-04-10T11:28:25.839Z</time></trkpt><trkpt lat="44.9780352" lon="8.0819433"><ele>257.0</ele><time>2026-04-10T11:28:26.84Z</time></trkpt><trkpt lat="44.9779699" lon="8.0818811"><ele>257.0</ele><time>2026-04-10T11:28:27.841Z</time></trkpt><trkpt lat="44.9779055" lon="8.0818242"><ele>257.0</ele><time>2026-04-10T11:28:28.84Z</time></trkpt><trkpt lat="44.9778444" lon="8.0817766"><ele>257.0</ele><time>2026-04-10T11:28:29.84Z</time></trkpt><trkpt lat="44.9777839" lon="8.0817373"><ele>257.0</ele><time>2026-04-10T11:28:30.84Z</time></trkpt><trkpt lat="44.9777234" lon="8.0816941"><ele>257.0</ele><time>2026-04-10T11:28:31.84Z</time></trkpt><trkpt lat="44.9776604" lon="8.0816487"><ele>257.0</ele><time>2026-04-10T11:28:32.839Z</time></trkpt><trkpt lat="44.9776002" lon="8.0816036"><ele>258.2</ele><time>2026-04-10T11:28:33.84Z</time></trkpt><trkpt lat="44.9775037" lon="8.0815292"><ele>259.4</ele><time>2026-04-10T11:28:35.839Z</time></trkpt><trkpt lat="44.9774367" lon="8.0814641"><ele>260.6</ele><time>2026-04-10T11:28:37.839Z</time></trkpt><trkpt lat="44.9773505" lon="8.0813996"><ele>261.8</ele><time>2026-04-10T11:28:39.839Z</time></trkpt><trkpt lat="44.97727" lon="8.0813437"><ele>263.0</ele><time>2026-04-10T11:28:41.839Z</time></trkpt><trkpt lat="44.9771914" lon="8.0812941"><ele>263.0</ele><time>2026-04-10T11:28:43.84Z</time></trkpt><trkpt lat="44.9771156" lon="8.08128"><ele>263.0</ele><time>2026-04-10T11:28:45.841Z</time></trkpt><trkpt lat="44.9770322" lon="8.0812888"><ele>263.0</ele><time>2026-04-10T11:28:47.84Z</time></trkpt><trkpt lat="44.9769437" lon="8.0813301"><ele>263.0</ele><time>2026-04-10T11:28:49.839Z</time></trkpt><trkpt lat="44.9768632" lon="8.0813918"><ele>263.0</ele><time>2026-04-10T11:28:51.84Z</time></trkpt><trkpt lat="44.9767771" lon="8.0814657"><ele>263.0</ele><time>2026-04-10T11:28:53.84Z</time></trkpt><trkpt lat="44.976729" lon="8.0815318"><ele>264.8</ele><time>2026-04-10T11:28:54.841Z</time></trkpt><trkpt lat="44.9766288" lon="8.0816264"><ele>266.6</ele><time>2026-04-10T11:28:56.839Z</time></trkpt><trkpt lat="44.9765246" lon="8.0817488"><ele>268.4</ele><time>2026-04-10T11:28:58.839Z</time></trkpt><trkpt lat="44.9764678" lon="8.0818136"><ele>270.2</ele><time>2026-04-10T11:28:59.84Z</time></trkpt><trkpt lat="44.9763997" lon="8.0818703"><ele>272.0</ele><time>2026-04-10T11:29:00.84Z</time></trkpt><trkpt lat="44.9763287" lon="8.081917"><ele>272.0</ele><time>2026-04-10T11:29:01.84Z</time></trkpt><trkpt lat="44.976257" lon="8.0819625"><ele>272.0</ele><time>2026-04-10T11:29:02.841Z</time></trkpt><trkpt lat="44.9761796" lon="8.0819972"><ele>272.0</ele><time>2026-04-10T11:29:03.84Z</time></trkpt><trkpt lat="44.9761045" lon="8.0820332"><ele>272.0</ele><time>2026-04-10T11:29:04.84Z</time></trkpt><trkpt lat="44.9760244" lon="8.0820636"><ele>272.0</ele><time>2026-04-10T11:29:05.84Z</time></trkpt><trkpt lat="44.9759453" lon="8.0820774"><ele>272.0</ele><time>2026-04-10T11:29:06.839Z</time></trkpt><trkpt lat="44.9758667" lon="8.0820941"><ele>269.33333333333337</ele><time>2026-04-10T11:29:07.84Z</time></trkpt><trkpt lat="44.9757921" lon="8.0821069"><ele>266.6666666666667</ele><time>2026-04-10T11:29:08.841Z</time></trkpt><trkpt lat="44.9756825" lon="8.0821085"><ele>264.0</ele><time>2026-04-10T11:29:10.839Z</time></trkpt><trkpt lat="44.9755626" lon="8.082074"><ele>261.3333333333333</ele><time>2026-04-10T11:29:12.841Z</time></trkpt><trkpt lat="44.9754984" lon="8.082052"><ele>258.66666666666663</ele><time>2026-04-10T11:29:13.84Z</time></trkpt><trkpt lat="44.9754359" lon="8.0820302"><ele>256.0</ele><time>2026-04-10T11:29:14.841Z</time></trkpt><trkpt lat="44.9753696" lon="8.0820092"><ele>255.99999999999997</ele><time>2026-04-10T11:29:15.839Z</time></trkpt><trkpt lat="44.9753004" lon="8.081989"><ele>256.0</ele><time>2026-04-10T11:29:16.84Z</time></trkpt><trkpt lat="44.9752329" lon="8.0819603"><ele>256.0</ele><time>2026-04-10T11:29:17.84Z</time></trkpt><trkpt lat="44.9751694" lon="8.0819375"><ele>256.0</ele><time>2026-04-10T11:29:18.84Z</time></trkpt><trkpt lat="44.9750533" lon="8.081915"><ele>255.99999999999997</ele><time>2026-04-10T11:29:20.84Z</time></trkpt><trkpt lat="44.9749413" lon="8.081888"><ele>256.0</ele><time>2026-04-10T11:29:22.839Z</time></trkpt><trkpt lat="44.9748328" lon="8.0818467"><ele>256.66666666666663</ele><time>2026-04-10T11:29:24.841Z</time></trkpt><trkpt lat="44.9747659" lon="8.0817989"><ele>257.3333333333333</ele><time>2026-04-10T11:29:25.839Z</time></trkpt><trkpt lat="44.9747014" lon="8.0817246"><ele>258.0</ele><time>2026-04-10T11:29:26.839Z</time></trkpt><trkpt lat="44.9746339" lon="8.0816521"><ele>258.6666666666667</ele><time>2026-04-10T11:29:27.841Z</time></trkpt><trkpt lat="44.9745805" lon="8.0815815"><ele>259.33333333333337</ele><time>2026-04-10T11:29:28.84Z</time></trkpt><trkpt lat="44.974526" lon="8.0815316"><ele>260.0</ele><time>2026-04-10T11:29:29.84Z</time></trkpt><trkpt lat="44.9744487" lon="8.0814216"><ele>259.8</ele><time>2026-04-10T11:29:31.84Z</time></trkpt><trkpt lat="44.9743781" lon="8.0813469"><ele>259.6</ele><time>2026-04-10T11:29:33.84Z</time></trkpt><trkpt lat="44.9743081" lon="8.0813393"><ele>259.4</ele><time>2026-04-10T11:29:35.839Z</time></trkpt><trkpt lat="44.9742393" lon="8.0814177"><ele>259.2</ele><time>2026-04-10T11:29:37.84Z</time></trkpt><trkpt lat="44.97416" lon="8.0815073"><ele>259.0</ele><time>2026-04-10T11:29:39.839Z</time></trkpt><trkpt lat="44.9740731" lon="8.0817085"><ele>259.0</ele><time>2026-04-10T11:29:42.839Z</time></trkpt><trkpt lat="44.973993" lon="8.0818393"><ele>259.0</ele><time>2026-04-10T11:29:44.84Z</time></trkpt><trkpt lat="44.9739404" lon="8.0819098"><ele>259.0</ele><time>2026-04-10T11:29:45.84Z</time></trkpt><trkpt lat="44.9738338" lon="8.0820178"><ele>259.0</ele><time>2026-04-10T11:29:47.84Z</time></trkpt><trkpt lat="44.9737675" lon="8.0820575"><ele>259.0</ele><time>2026-04-10T11:29:48.839Z</time></trkpt><trkpt lat="44.9736463" lon="8.0820929"><ele>259.0</ele><time>2026-04-10T11:29:50.841Z</time></trkpt><trkpt lat="44.9735388" lon="8.0820765"><ele>259.0</ele><time>2026-04-10T11:29:52.839Z</time></trkpt><trkpt lat="44.9734209" lon="8.0820907"><ele>259.0</ele><time>2026-04-10T11:29:54.84Z</time></trkpt><trkpt lat="44.9733378" lon="8.0820864"><ele>259.0</ele><time>2026-04-10T11:29:55.84Z</time></trkpt><trkpt lat="44.9732652" lon="8.0821024"><ele>259.0</ele><time>2026-04-10T11:29:56.841Z</time></trkpt><trkpt lat="44.9731937" lon="8.0821265"><ele>255.79999999999998</ele><time>2026-04-10T11:29:57.84Z</time></trkpt><trkpt lat="44.9731219" lon="8.0821631"><ele>252.59999999999997</ele><time>2026-04-10T11:29:58.84Z</time></trkpt><trkpt lat="44.9730072" lon="8.0822147"><ele>249.4</ele><time>2026-04-10T11:30:00.841Z</time></trkpt><trkpt lat="44.9729432" lon="8.0821998"><ele>246.2</ele><time>2026-04-10T11:30:01.839Z</time></trkpt><trkpt lat="44.9728255" lon="8.0821385"><ele>243.0</ele><time>2026-04-10T11:30:03.84Z</time></trkpt><trkpt lat="44.9727631" lon="8.0821065"><ele>243.0</ele><time>2026-04-10T11:30:04.841Z</time></trkpt><trkpt lat="44.9726925" lon="8.0820836"><ele>243.0</ele><time>2026-04-10T11:30:05.842Z</time></trkpt><trkpt lat="44.9726268" lon="8.0820638"><ele>243.0</ele><time>2026-04-10T11:30:06.841Z</time></trkpt><trkpt lat="44.9725612" lon="8.0820504"><ele>243.0</ele><time>2026-04-10T11:30:07.84Z</time></trkpt><trkpt lat="44.9724905" lon="8.082032"><ele>243.0</ele><time>2026-04-10T11:30:08.84Z</time></trkpt><trkpt lat="44.9724004" lon="8.081996"><ele>243.0</ele><time>2026-04-10T11:30:09.841Z</time></trkpt><trkpt lat="44.9723288" lon="8.0820315"><ele>243.0</ele><time>2026-04-10T11:30:10.839Z</time></trkpt><trkpt lat="44.9722229" lon="8.0820807"><ele>244.8</ele><time>2026-04-10T11:30:12.84Z</time></trkpt><trkpt lat="44.9721225" lon="8.0821638"><ele>246.60000000000002</ele><time>2026-04-10T11:30:14.841Z</time></trkpt><trkpt lat="44.9720476" lon="8.0822516"><ele>248.39999999999998</ele><time>2026-04-10T11:30:16.839Z</time></trkpt><trkpt lat="44.971967" lon="8.0822999"><ele>250.2</ele><time>2026-04-10T11:30:18.84Z</time></trkpt><trkpt lat="44.9718867" lon="8.0823424"><ele>252.0</ele><time>2026-04-10T11:30:20.841Z</time></trkpt><trkpt lat="44.971821" lon="8.082346"><ele>252.0</ele><time>2026-04-10T11:30:22.839Z</time></trkpt><trkpt lat="44.9717423" lon="8.0823139"><ele>252.0</ele><time>2026-04-10T11:30:24.841Z</time></trkpt><trkpt lat="44.97165" lon="8.082309"><ele>252.0</ele><time>2026-04-10T11:30:26.839Z</time></trkpt><trkpt lat="44.9715836" lon="8.0823128"><ele>252.0</ele><time>2026-04-10T11:30:28.842Z</time></trkpt><trkpt lat="44.9714844" lon="8.0823281"><ele>252.0</ele><time>2026-04-10T11:30:30.84Z</time></trkpt><trkpt lat="44.9713747" lon="8.0823522"><ele>251.5</ele><time>2026-04-10T11:30:32.84Z</time></trkpt><trkpt lat="44.9712647" lon="8.0823488"><ele>251.0</ele><time>2026-04-10T11:30:34.839Z</time></trkpt><trkpt lat="44.9711349" lon="8.0823478"><ele>250.5</ele><time>2026-04-10T11:30:36.84Z</time></trkpt><trkpt lat="44.97103" lon="8.0823413"><ele>250.0</ele><time>2026-04-10T11:30:38.84Z</time></trkpt><trkpt lat="44.9709143" lon="8.0823409"><ele>249.2</ele><time>2026-04-10T11:30:40.84Z</time></trkpt><trkpt lat="44.970799" lon="8.0823606"><ele>248.4</ele><time>2026-04-10T11:30:42.841Z</time></trkpt><trkpt lat="44.970734" lon="8.0823521"><ele>247.60000000000002</ele><time>2026-04-10T11:30:43.841Z</time></trkpt><trkpt lat="44.9706242" lon="8.0823368"><ele>246.8</ele><time>2026-04-10T11:30:45.839Z</time></trkpt><trkpt lat="44.9705197" lon="8.0823486"><ele>246.0</ele><time>2026-04-10T11:30:47.84Z</time></trkpt><trkpt lat="44.9704215" lon="8.082348"><ele>246.0</ele><time>2026-04-10T11:30:49.839Z</time></trkpt><trkpt lat="44.970309" lon="8.0823082"><ele>246.00000000000003</ele><time>2026-04-10T11:30:51.84Z</time></trkpt><trkpt lat="44.9702376" lon="8.0823005"><ele>246.00000000000003</ele><time>2026-04-10T11:30:53.841Z</time></trkpt><trkpt lat="44.9701743" lon="8.0823038"><ele>246.0</ele><time>2026-04-10T11:30:54.84Z</time></trkpt><trkpt lat="44.9700661" lon="8.0823361"><ele>246.0</ele><time>2026-04-10T11:30:56.839Z</time></trkpt><trkpt lat="44.9699544" lon="8.08236"><ele>246.66666666666666</ele><time>2026-04-10T11:30:58.84Z</time></trkpt><trkpt lat="44.9698918" lon="8.082402"><ele>247.33333333333331</ele><time>2026-04-10T11:30:59.84Z</time></trkpt><trkpt lat="44.9697954" lon="8.0824667"><ele>248.0</ele><time>2026-04-10T11:31:01.841Z</time></trkpt><trkpt lat="44.9696815" lon="8.0825516"><ele>248.66666666666666</ele><time>2026-04-10T11:31:03.84Z</time></trkpt><trkpt lat="44.9696169" lon="8.0825918"><ele>249.33333333333331</ele><time>2026-04-10T11:31:04.841Z</time></trkpt><trkpt lat="44.9695537" lon="8.0826106"><ele>250.0</ele><time>2026-04-10T11:31:05.84Z</time></trkpt><trkpt lat="44.9694893" lon="8.0826538"><ele>249.99999999999997</ele><time>2026-04-10T11:31:06.841Z</time></trkpt><trkpt lat="44.9694255" lon="8.0826905"><ele>250.0</ele><time>2026-04-10T11:31:07.84Z</time></trkpt><trkpt lat="44.9693552" lon="8.0827184"><ele>250.0</ele><time>2026-04-10T11:31:08.841Z</time></trkpt><trkpt lat="44.9692855" lon="8.0827465"><ele>250.0</ele><time>2026-04-10T11:31:09.84Z</time></trkpt><trkpt lat="44.9692179" lon="8.0827704"><ele>249.99999999999997</ele><time>2026-04-10T11:31:10.839Z</time></trkpt><trkpt lat="44.969152" lon="8.0828069"><ele>250.0</ele><time>2026-04-10T11:31:11.841Z</time></trkpt><trkpt lat="44.9690446" lon="8.0828876"><ele>249.2</ele><time>2026-04-10T11:31:13.84Z</time></trkpt><trkpt lat="44.9689291" lon="8.0829467"><ele>248.4</ele><time>2026-04-10T11:31:15.84Z</time></trkpt><trkpt lat="44.9688601" lon="8.0829767"><ele>247.60000000000002</ele><time>2026-04-10T11:31:16.841Z</time></trkpt><trkpt lat="44.9687328" lon="8.0830262"><ele>246.8</ele><time>2026-04-10T11:31:18.839Z</time></trkpt><trkpt lat="44.9686689" lon="8.0830384"><ele>246.0</ele><time>2026-04-10T11:31:19.839Z</time></trkpt><trkpt lat="44.9686022" lon="8.0830511"><ele>246.0</ele><time>2026-04-10T11:31:20.841Z</time></trkpt><trkpt lat="44.9685381" lon="8.0830363"><ele>246.00000000000003</ele><time>2026-04-10T11:31:21.84Z</time></trkpt><trkpt lat="44.9684203" lon="8.0829956"><ele>246.00000000000003</ele><time>2026-04-10T11:31:23.84Z</time></trkpt><trkpt lat="44.9683027" lon="8.0829778"><ele>246.0</ele><time>2026-04-10T11:31:25.84Z</time></trkpt><trkpt lat="44.9682313" lon="8.082954"><ele>246.0</ele><time>2026-04-10T11:31:26.84Z</time></trkpt><trkpt lat="44.9681605" lon="8.082937"><ele>245.4</ele><time>2026-04-10T11:31:27.839Z</time></trkpt><trkpt lat="44.96806" lon="8.0829963"><ele>244.8</ele><time>2026-04-10T11:31:29.839Z</time></trkpt><trkpt lat="44.9679715" lon="8.0830432"><ele>244.20000000000002</ele><time>2026-04-10T11:31:31.84Z</time></trkpt><trkpt lat="44.9678827" lon="8.0830829"><ele>243.60000000000002</ele><time>2026-04-10T11:31:33.84Z</time></trkpt><trkpt lat="44.967789" lon="8.0831224"><ele>243.0</ele><time>2026-04-10T11:31:35.84Z</time></trkpt><trkpt lat="44.9676926" lon="8.0831771"><ele>243.0</ele><time>2026-04-10T11:31:37.839Z</time></trkpt><trkpt lat="44.9675926" lon="8.0832495"><ele>243.0</ele><time>2026-04-10T11:31:39.84Z</time></trkpt><trkpt lat="44.9675066" lon="8.0833235"><ele>243.0</ele><time>2026-04-10T11:31:41.839Z</time></trkpt><trkpt lat="44.9674134" lon="8.0834214"><ele>243.0</ele><time>2026-04-10T11:31:43.84Z</time></trkpt><trkpt lat="44.9673136" lon="8.0835202"><ele>243.71428571428572</ele><time>2026-04-10T11:31:45.841Z</time></trkpt><trkpt lat="44.967255" lon="8.0835614"><ele>244.42857142857144</ele><time>2026-04-10T11:31:46.84Z</time></trkpt><trkpt lat="44.9671975" lon="8.0836178"><ele>245.14285714285717</ele><time>2026-04-10T11:31:47.84Z</time></trkpt><trkpt lat="44.9671512" lon="8.0836802"><ele>245.85714285714286</ele><time>2026-04-10T11:31:48.84Z</time></trkpt><trkpt lat="44.9671056" lon="8.0837462"><ele>246.5714285714286</ele><time>2026-04-10T11:31:49.839Z</time></trkpt><trkpt lat="44.9670573" lon="8.0838085"><ele>247.2857142857143</ele><time>2026-04-10T11:31:50.84Z</time></trkpt><trkpt lat="44.9670017" lon="8.0838573"><ele>248.0</ele><time>2026-04-10T11:31:51.84Z</time></trkpt><trkpt lat="44.9669471" lon="8.0839219"><ele>248.0</ele><time>2026-04-10T11:31:52.839Z</time></trkpt><trkpt lat="44.9668436" lon="8.084028"><ele>248.0</ele><time>2026-04-10T11:31:54.84Z</time></trkpt><trkpt lat="44.9667474" lon="8.0841012"><ele>248.0</ele><time>2026-04-10T11:31:56.84Z</time></trkpt><trkpt lat="44.9666856" lon="8.084123"><ele>248.0</ele><time>2026-04-10T11:31:57.839Z</time></trkpt><trkpt lat="44.9666214" lon="8.0841587"><ele>248.0</ele><time>2026-04-10T11:31:58.84Z</time></trkpt><trkpt lat="44.9665455" lon="8.0841963"><ele>247.16666666666669</ele><time>2026-04-10T11:31:59.84Z</time></trkpt><trkpt lat="44.9664744" lon="8.0842163"><ele>246.33333333333334</ele><time>2026-04-10T11:32:00.841Z</time></trkpt><trkpt lat="44.9664064" lon="8.0842354"><ele>245.5</ele><time>2026-04-10T11:32:01.84Z</time></trkpt><trkpt lat="44.966334" lon="8.0842646"><ele>244.66666666666669</ele><time>2026-04-10T11:32:02.842Z</time></trkpt><trkpt lat="44.9662705" lon="8.0842742"><ele>243.83333333333334</ele><time>2026-04-10T11:32:03.84Z</time></trkpt><trkpt lat="44.9662058" lon="8.084281"><ele>243.0</ele><time>2026-04-10T11:32:04.84Z</time></trkpt><trkpt lat="44.966096" lon="8.0843052"><ele>243.0</ele><time>2026-04-10T11:32:06.839Z</time></trkpt><trkpt lat="44.9660029" lon="8.0843614"><ele>243.0</ele><time>2026-04-10T11:32:08.841Z</time></trkpt><trkpt lat="44.9659242" lon="8.0844089"><ele>243.0</ele><time>2026-04-10T11:32:10.839Z</time></trkpt><trkpt lat="44.9658636" lon="8.0844563"><ele>243.0</ele><time>2026-04-10T11:32:13.84Z</time></trkpt><trkpt lat="44.9657831" lon="8.084454"><ele>243.0</ele><time>2026-04-10T11:32:16.84Z</time></trkpt><trkpt lat="44.9657004" lon="8.084466"><ele>243.0</ele><time>2026-04-10T11:32:19.841Z</time></trkpt><trkpt lat="44.9656284" lon="8.0844661"><ele>243.60000000000002</ele><time>2026-04-10T11:32:21.84Z</time></trkpt><trkpt lat="44.9655467" lon="8.0844649"><ele>244.20000000000002</ele><time>2026-04-10T11:32:23.84Z</time></trkpt><trkpt lat="44.9654827" lon="8.0844418"><ele>244.8</ele><time>2026-04-10T11:32:24.841Z</time></trkpt><trkpt lat="44.9653682" lon="8.0843934"><ele>245.4</ele><time>2026-04-10T11:32:26.84Z</time></trkpt><trkpt lat="44.965264" lon="8.0843532"><ele>246.0</ele><time>2026-04-10T11:32:28.84Z</time></trkpt><trkpt lat="44.9651465" lon="8.084334"><ele>245.4</ele><time>2026-04-10T11:32:30.84Z</time></trkpt><trkpt lat="44.9650235" lon="8.0843516"><ele>244.8</ele><time>2026-04-10T11:32:32.839Z</time></trkpt><trkpt lat="44.9649124" lon="8.0843992"><ele>244.20000000000002</ele><time>2026-04-10T11:32:34.839Z</time></trkpt><trkpt lat="44.9648063" lon="8.0844613"><ele>243.60000000000002</ele><time>2026-04-10T11:32:36.84Z</time></trkpt><trkpt lat="44.9647474" lon="8.0844968"><ele>243.0</ele><time>2026-04-10T11:32:37.84Z</time></trkpt><trkpt lat="44.9646897" lon="8.0845931"><ele>243.0</ele><time>2026-04-10T11:32:39.84Z</time></trkpt><trkpt lat="44.9646371" lon="8.0846439"><ele>243.0</ele><time>2026-04-10T11:32:40.84Z</time></trkpt><trkpt lat="44.9645518" lon="8.0847752"><ele>243.0</ele><time>2026-04-10T11:32:42.84Z</time></trkpt><trkpt lat="44.9645049" lon="8.0848478"><ele>243.0</ele><time>2026-04-10T11:32:43.84Z</time></trkpt><trkpt lat="44.9644584" lon="8.0849275"><ele>243.0</ele><time>2026-04-10T11:32:44.839Z</time></trkpt><trkpt lat="44.9643543" lon="8.0850435"><ele>243.4</ele><time>2026-04-10T11:32:46.839Z</time></trkpt><trkpt lat="44.9642988" lon="8.0851031"><ele>243.8</ele><time>2026-04-10T11:32:47.84Z</time></trkpt><trkpt lat="44.9642297" lon="8.0851289"><ele>244.2</ele><time>2026-04-10T11:32:48.839Z</time></trkpt><trkpt lat="44.9641684" lon="8.0851529"><ele>244.6</ele><time>2026-04-10T11:32:49.84Z</time></trkpt><trkpt lat="44.964046" lon="8.0851887"><ele>245.0</ele><time>2026-04-10T11:32:51.839Z</time></trkpt><trkpt lat="44.963924" lon="8.0851661"><ele>244.0</ele><time>2026-04-10T11:32:53.839Z</time></trkpt><trkpt lat="44.963806" lon="8.0851516"><ele>243.0</ele><time>2026-04-10T11:32:55.839Z</time></trkpt><trkpt lat="44.9637016" lon="8.085092"><ele>242.0</ele><time>2026-04-10T11:32:57.841Z</time></trkpt><trkpt lat="44.9635968" lon="8.0850156"><ele>241.0</ele><time>2026-04-10T11:32:59.839Z</time></trkpt><trkpt lat="44.9634954" lon="8.0849178"><ele>241.0</ele><time>2026-04-10T11:33:01.84Z</time></trkpt><trkpt lat="44.9634415" lon="8.0848698"><ele>241.00000000000003</ele><time>2026-04-10T11:33:02.84Z</time></trkpt><trkpt lat="44.9633836" lon="8.0848251"><ele>241.00000000000003</ele><time>2026-04-10T11:33:03.839Z</time></trkpt><trkpt lat="44.9632853" lon="8.0847319"><ele>241.0</ele><time>2026-04-10T11:33:05.839Z</time></trkpt><trkpt lat="44.9631882" lon="8.0846411"><ele>241.0</ele><time>2026-04-10T11:33:07.841Z</time></trkpt><trkpt lat="44.9630966" lon="8.0845347"><ele>241.0</ele><time>2026-04-10T11:33:09.84Z</time></trkpt><trkpt lat="44.9630077" lon="8.0844251"><ele>241.00000000000003</ele><time>2026-04-10T11:33:11.839Z</time></trkpt><trkpt lat="44.962936" lon="8.0843136"><ele>241.00000000000003</ele><time>2026-04-10T11:33:13.84Z</time></trkpt><trkpt lat="44.9628711" lon="8.0841536"><ele>241.0</ele><time>2026-04-10T11:33:15.84Z</time></trkpt><trkpt lat="44.9628354" lon="8.0840723"><ele>241.0</ele><time>2026-04-10T11:33:16.839Z</time></trkpt><trkpt lat="44.9628117" lon="8.0839867"><ele>239.83333333333331</ele><time>2026-04-10T11:33:17.84Z</time></trkpt><trkpt lat="44.9627787" lon="8.0838917"><ele>238.66666666666666</ele><time>2026-04-10T11:33:18.84Z</time></trkpt><trkpt lat="44.9627352" lon="8.083735"><ele>237.5</ele><time>2026-04-10T11:33:20.84Z</time></trkpt><trkpt lat="44.9626833" lon="8.0836676"><ele>236.33333333333331</ele><time>2026-04-10T11:33:21.84Z</time></trkpt><trkpt lat="44.9626351" lon="8.0836078"><ele>235.16666666666666</ele><time>2026-04-10T11:33:22.839Z</time></trkpt><trkpt lat="44.9625222" lon="8.0835705"><ele>234.0</ele><time>2026-04-10T11:33:24.84Z</time></trkpt><trkpt lat="44.962408" lon="8.0835543"><ele>233.25</ele><time>2026-04-10T11:33:26.84Z</time></trkpt><trkpt lat="44.9622425" lon="8.0835199"><ele>232.5</ele><time>2026-04-10T11:33:29.84Z</time></trkpt><trkpt lat="44.9621805" lon="8.0834996"><ele>231.75</ele><time>2026-04-10T11:33:30.841Z</time></trkpt><trkpt lat="44.9620652" lon="8.0834427"><ele>231.0</ele><time>2026-04-10T11:33:32.839Z</time></trkpt><trkpt lat="44.9619519" lon="8.0833783"><ele>231.0</ele><time>2026-04-10T11:33:34.839Z</time></trkpt><trkpt lat="44.9618422" lon="8.083292"><ele>231.00000000000003</ele><time>2026-04-10T11:33:36.839Z</time></trkpt><trkpt lat="44.9617854" lon="8.0832424"><ele>231.00000000000003</ele><time>2026-04-10T11:33:37.84Z</time></trkpt><trkpt lat="44.9617305" lon="8.0831912"><ele>231.0</ele><time>2026-04-10T11:33:38.84Z</time></trkpt><trkpt lat="44.9616422" lon="8.0831166"><ele>231.0</ele><time>2026-04-10T11:33:40.841Z</time></trkpt><trkpt lat="44.9615567" lon="8.083015"><ele>230.60000000000002</ele><time>2026-04-10T11:33:42.839Z</time></trkpt><trkpt lat="44.9614901" lon="8.0829358"><ele>230.20000000000002</ele><time>2026-04-10T11:33:44.84Z</time></trkpt><trkpt lat="44.9614449" lon="8.0828363"><ele>229.79999999999998</ele><time>2026-04-10T11:33:46.84Z</time></trkpt><trkpt lat="44.961424" lon="8.0827218"><ele>229.39999999999998</ele><time>2026-04-10T11:33:48.839Z</time></trkpt><trkpt lat="44.9614365" lon="8.082591"><ele>229.0</ele><time>2026-04-10T11:33:50.839Z</time></trkpt><trkpt lat="44.9614683" lon="8.0824472"><ele>228.6</ele><time>2026-04-10T11:33:52.84Z</time></trkpt><trkpt lat="44.9614738" lon="8.0823098"><ele>228.2</ele><time>2026-04-10T11:33:54.839Z</time></trkpt><trkpt lat="44.9614513" lon="8.0821793"><ele>227.79999999999998</ele><time>2026-04-10T11:33:56.84Z</time></trkpt><trkpt lat="44.9614125" lon="8.0820685"><ele>227.39999999999998</ele><time>2026-04-10T11:33:58.84Z</time></trkpt><trkpt lat="44.9613625" lon="8.0819622"><ele>227.0</ele><time>2026-04-10T11:34:00.84Z</time></trkpt><trkpt lat="44.9613005" lon="8.081882"><ele>227.0</ele><time>2026-04-10T11:34:02.839Z</time></trkpt><trkpt lat="44.9611958" lon="8.0817898"><ele>227.0</ele><time>2026-04-10T11:34:05.84Z</time></trkpt><trkpt lat="44.9611367" lon="8.081747"><ele>227.0</ele><time>2026-04-10T11:34:07.84Z</time></trkpt><trkpt lat="44.9610494" lon="8.0816893"><ele>227.0</ele><time>2026-04-10T11:34:09.84Z</time></trkpt><trkpt lat="44.9609592" lon="8.0816277"><ele>227.0</ele><time>2026-04-10T11:34:11.839Z</time></trkpt><trkpt lat="44.9608797" lon="8.0815911"><ele>227.0</ele><time>2026-04-10T11:34:13.839Z</time></trkpt><trkpt lat="44.9608289" lon="8.0816617"><ele>227.0</ele><time>2026-04-10T11:34:16.84Z</time></trkpt><trkpt lat="44.9608635" lon="8.0817788"><ele>227.0</ele><time>2026-04-10T11:34:18.841Z</time></trkpt><trkpt lat="44.9609069" lon="8.08192"><ele>227.0</ele><time>2026-04-10T11:34:20.84Z</time></trkpt><trkpt lat="44.9609502" lon="8.0820738"><ele>227.0</ele><time>2026-04-10T11:34:22.839Z</time></trkpt><trkpt lat="44.9609664" lon="8.082169"><ele>227.00000000000003</ele><time>2026-04-10T11:34:23.841Z</time></trkpt><trkpt lat="44.9609817" lon="8.0822558"><ele>227.0</ele><time>2026-04-10T11:34:24.84Z</time></trkpt><trkpt lat="44.9610001" lon="8.0824119"><ele>227.0</ele><time>2026-04-10T11:34:26.839Z</time></trkpt><trkpt lat="44.9609959" lon="8.0825032"><ele>227.0</ele><time>2026-04-10T11:34:27.84Z</time></trkpt><trkpt lat="44.9609859" lon="8.0826072"><ele>227.00000000000003</ele><time>2026-04-10T11:34:29.84Z</time></trkpt><trkpt lat="44.9609453" lon="8.0826758"><ele>227.0</ele><time>2026-04-10T11:34:31.84Z</time></trkpt><trkpt lat="44.9608234" lon="8.0826511"><ele>227.33333333333334</ele><time>2026-04-10T11:34:34.84Z</time></trkpt><trkpt lat="44.960763" lon="8.082623"><ele>227.66666666666669</ele><time>2026-04-10T11:34:37.84Z</time></trkpt><trkpt lat="44.9607646" lon="8.0827359"><ele>228.0</ele><time>2026-04-10T11:34:41.84Z</time></trkpt><trkpt lat="44.9608121" lon="8.0828382"><ele>228.33333333333331</ele><time>2026-04-10T11:34:44.839Z</time></trkpt><trkpt lat="44.9608525" lon="8.082936"><ele>228.66666666666666</ele><time>2026-04-10T11:34:46.839Z</time></trkpt><trkpt lat="44.9609023" lon="8.0830668"><ele>229.0</ele><time>2026-04-10T11:34:48.84Z</time></trkpt><trkpt lat="44.9609651" lon="8.0831968"><ele>227.83333333333331</ele><time>2026-04-10T11:34:50.84Z</time></trkpt><trkpt lat="44.9610277" lon="8.0833128"><ele>226.66666666666666</ele><time>2026-04-10T11:34:52.84Z</time></trkpt><trkpt lat="44.9610878" lon="8.0834065"><ele>225.5</ele><time>2026-04-10T11:34:54.839Z</time></trkpt><trkpt lat="44.9611432" lon="8.0834986"><ele>224.33333333333331</ele><time>2026-04-10T11:34:56.839Z</time></trkpt><trkpt lat="44.9612018" lon="8.0835958"><ele>223.16666666666666</ele><time>2026-04-10T11:34:58.839Z</time></trkpt><trkpt lat="44.9612556" lon="8.0836791"><ele>222.0</ele><time>2026-04-10T11:35:00.839Z</time></trkpt><trkpt lat="44.9613033" lon="8.0837687"><ele>222.0</ele><time>2026-04-10T11:35:02.841Z</time></trkpt><trkpt lat="44.9613583" lon="8.0838462"><ele>222.0</ele><time>2026-04-10T11:35:04.84Z</time></trkpt><trkpt lat="44.961416" lon="8.0839262"><ele>222.0</ele><time>2026-04-10T11:35:06.84Z</time></trkpt><trkpt lat="44.9614755" lon="8.0840103"><ele>222.0</ele><time>2026-04-10T11:35:08.841Z</time></trkpt><trkpt lat="44.961549" lon="8.0840842"><ele>222.0</ele><time>2026-04-10T11:35:10.84Z</time></trkpt><trkpt lat="44.9616169" lon="8.0841696"><ele>222.0</ele><time>2026-04-10T11:35:12.84Z</time></trkpt><trkpt lat="44.9616937" lon="8.0842641"><ele>222.66666666666666</ele><time>2026-04-10T11:35:14.84Z</time></trkpt><trkpt lat="44.9617485" lon="8.0843557"><ele>223.33333333333331</ele><time>2026-04-10T11:35:16.839Z</time></trkpt><trkpt lat="44.9618087" lon="8.0844366"><ele>224.0</ele><time>2026-04-10T11:35:18.84Z</time></trkpt><trkpt lat="44.9618781" lon="8.0845338"><ele>224.66666666666666</ele><time>2026-04-10T11:35:20.839Z</time></trkpt><trkpt lat="44.9619361" lon="8.0846308"><ele>225.33333333333331</ele><time>2026-04-10T11:35:22.84Z</time></trkpt><trkpt lat="44.9620051" lon="8.0847185"><ele>226.0</ele><time>2026-04-10T11:35:24.84Z</time></trkpt><trkpt lat="44.9620586" lon="8.084792"><ele>226.0</ele><time>2026-04-10T11:35:26.84Z</time></trkpt><trkpt lat="44.9621248" lon="8.0848854"><ele>226.00000000000003</ele><time>2026-04-10T11:35:28.841Z</time></trkpt><trkpt lat="44.9621881" lon="8.084989"><ele>226.00000000000003</ele><time>2026-04-10T11:35:30.838Z</time></trkpt><trkpt lat="44.9622438" lon="8.0850958"><ele>226.0</ele><time>2026-04-10T11:35:32.84Z</time></trkpt><trkpt lat="44.9623049" lon="8.0851973"><ele>226.0</ele><time>2026-04-10T11:35:34.84Z</time></trkpt><trkpt lat="44.9623677" lon="8.0853126"><ele>225.60000000000002</ele><time>2026-04-10T11:35:36.841Z</time></trkpt><trkpt lat="44.9624204" lon="8.0853901"><ele>225.20000000000002</ele><time>2026-04-10T11:35:38.84Z</time></trkpt><trkpt lat="44.9624665" lon="8.0854938"><ele>224.79999999999998</ele><time>2026-04-10T11:35:40.84Z</time></trkpt><trkpt lat="44.9625015" lon="8.0856186"><ele>224.39999999999998</ele><time>2026-04-10T11:35:42.84Z</time></trkpt><trkpt lat="44.9625389" lon="8.085757"><ele>224.0</ele><time>2026-04-10T11:35:44.84Z</time></trkpt><trkpt lat="44.9625386" lon="8.0858839"><ele>222.83333333333334</ele><time>2026-04-10T11:35:46.84Z</time></trkpt><trkpt lat="44.9625201" lon="8.0859833"><ele>221.66666666666669</ele><time>2026-04-10T11:35:48.839Z</time></trkpt><trkpt lat="44.9625032" lon="8.0860721"><ele>220.5</ele><time>2026-04-10T11:35:50.839Z</time></trkpt><trkpt lat="44.9624943" lon="8.0861666"><ele>219.33333333333331</ele><time>2026-04-10T11:35:52.839Z</time></trkpt><trkpt lat="44.9624735" lon="8.0862895"><ele>218.16666666666666</ele><time>2026-04-10T11:35:55.839Z</time></trkpt><trkpt lat="44.9624592" lon="8.0864036"><ele>217.0</ele><time>2026-04-10T11:35:58.84Z</time></trkpt><trkpt lat="44.9624443" lon="8.0865234"><ele>218.83333333333331</ele><time>2026-04-10T11:36:01.84Z</time></trkpt><trkpt lat="44.9624192" lon="8.0866449"><ele>220.66666666666666</ele><time>2026-04-10T11:36:04.839Z</time></trkpt><trkpt lat="44.9624042" lon="8.0867651"><ele>222.5</ele><time>2026-04-10T11:36:07.84Z</time></trkpt><trkpt lat="44.9624015" lon="8.0868848"><ele>224.33333333333331</ele><time>2026-04-10T11:36:10.839Z</time></trkpt><trkpt lat="44.9623748" lon="8.0869668"><ele>226.16666666666666</ele><time>2026-04-10T11:36:13.839Z</time></trkpt><trkpt lat="44.9623258" lon="8.0870626"><ele>228.0</ele><time>2026-04-10T11:36:16.841Z</time></trkpt><trkpt lat="44.9623082" lon="8.0871697"><ele>228.0</ele><time>2026-04-10T11:36:19.841Z</time></trkpt><trkpt lat="44.9622841" lon="8.0872558"><ele>227.99999999999997</ele><time>2026-04-10T11:36:21.839Z</time></trkpt><trkpt lat="44.962257" lon="8.0873668"><ele>228.0</ele><time>2026-04-10T11:36:25.839Z</time></trkpt><trkpt lat="44.9622447" lon="8.0874596"><ele>228.0</ele><time>2026-04-10T11:36:28.839Z</time></trkpt><trkpt lat="44.9622397" lon="8.0875571"><ele>227.99999999999997</ele><time>2026-04-10T11:36:31.84Z</time></trkpt><trkpt lat="44.9622281" lon="8.0876505"><ele>228.0</ele><time>2026-04-10T11:36:34.839Z</time></trkpt><trkpt lat="44.9622265" lon="8.0877706"><ele>228.0</ele><time>2026-04-10T11:36:38.84Z</time></trkpt><trkpt lat="44.9622095" lon="8.0878811"><ele>229.42857142857142</ele><time>2026-04-10T11:36:42.84Z</time></trkpt><trkpt lat="44.9622039" lon="8.0879725"><ele>230.85714285714283</ele><time>2026-04-10T11:36:45.839Z</time></trkpt><trkpt lat="44.9621925" lon="8.088077"><ele>232.28571428571428</ele><time>2026-04-10T11:36:48.84Z</time></trkpt><trkpt lat="44.9621861" lon="8.088179"><ele>233.71428571428572</ele><time>2026-04-10T11:36:51.84Z</time></trkpt><trkpt lat="44.9621906" lon="8.0882802"><ele>235.14285714285714</ele><time>2026-04-10T11:36:54.839Z</time></trkpt><trkpt lat="44.9621965" lon="8.0883959"><ele>236.57142857142856</ele><time>2026-04-10T11:36:58.839Z</time></trkpt><trkpt lat="44.9622157" lon="8.0884928"><ele>238.0</ele><time>2026-04-10T11:37:01.839Z</time></trkpt><trkpt lat="44.9622558" lon="8.0886208"><ele>238.66666666666666</ele><time>2026-04-10T11:37:04.841Z</time></trkpt><trkpt lat="44.9623086" lon="8.0887266"><ele>239.33333333333331</ele><time>2026-04-10T11:37:06.841Z</time></trkpt><trkpt lat="44.9623791" lon="8.0888737"><ele>240.0</ele><time>2026-04-10T11:37:08.839Z</time></trkpt><trkpt lat="44.9624083" lon="8.0889571"><ele>240.66666666666669</ele><time>2026-04-10T11:37:09.839Z</time></trkpt><trkpt lat="44.96244" lon="8.0890504"><ele>241.33333333333334</ele><time>2026-04-10T11:37:10.84Z</time></trkpt><trkpt lat="44.962464" lon="8.0891642"><ele>242.0</ele><time>2026-04-10T11:37:11.84Z</time></trkpt><trkpt lat="44.9624651" lon="8.0892889"><ele>239.8</ele><time>2026-04-10T11:37:12.839Z</time></trkpt><trkpt lat="44.9624465" lon="8.0894225"><ele>237.6</ele><time>2026-04-10T11:37:13.839Z</time></trkpt><trkpt lat="44.96241" lon="8.0895523"><ele>235.40000000000003</ele><time>2026-04-10T11:37:14.839Z</time></trkpt><trkpt lat="44.9623642" lon="8.0896942"><ele>233.20000000000002</ele><time>2026-04-10T11:37:15.839Z</time></trkpt><trkpt lat="44.9623158" lon="8.0898398"><ele>231.0</ele><time>2026-04-10T11:37:16.84Z</time></trkpt><trkpt lat="44.9622847" lon="8.0899888"><ele>228.0</ele><time>2026-04-10T11:37:17.84Z</time></trkpt><trkpt lat="44.9622609" lon="8.0901548"><ele>225.0</ele><time>2026-04-10T11:37:18.84Z</time></trkpt><trkpt lat="44.9622517" lon="8.0903159"><ele>222.0</ele><time>2026-04-10T11:37:19.84Z</time></trkpt><trkpt lat="44.9622789" lon="8.0904719"><ele>219.0</ele><time>2026-04-10T11:37:20.839Z</time></trkpt><trkpt lat="44.9623316" lon="8.090625"><ele>218.2</ele><time>2026-04-10T11:37:21.84Z</time></trkpt><trkpt lat="44.9623891" lon="8.0907609"><ele>217.39999999999998</ele><time>2026-04-10T11:37:22.84Z</time></trkpt><trkpt lat="44.9624484" lon="8.0908925"><ele>216.6</ele><time>2026-04-10T11:37:23.839Z</time></trkpt><trkpt lat="44.9625116" lon="8.0910118"><ele>215.8</ele><time>2026-04-10T11:37:24.841Z</time></trkpt><trkpt lat="44.9625795" lon="8.0911216"><ele>215.0</ele><time>2026-04-10T11:37:25.841Z</time></trkpt><trkpt lat="44.9626432" lon="8.0912254"><ele>215.0</ele><time>2026-04-10T11:37:26.84Z</time></trkpt><trkpt lat="44.9626915" lon="8.0913191"><ele>215.0</ele><time>2026-04-10T11:37:27.84Z</time></trkpt><trkpt lat="44.9627315" lon="8.0913949"><ele>215.0</ele><time>2026-04-10T11:37:28.839Z</time></trkpt><trkpt lat="44.9627738" lon="8.0915141"><ele>215.0</ele><time>2026-04-10T11:37:30.839Z</time></trkpt><trkpt lat="44.9627554" lon="8.0916194"><ele>215.0</ele><time>2026-04-10T11:37:32.839Z</time></trkpt><trkpt lat="44.9626318" lon="8.0917547"><ele>214.6</ele><time>2026-04-10T11:37:35.839Z</time></trkpt><trkpt lat="44.9625427" lon="8.091875"><ele>214.2</ele><time>2026-04-10T11:37:37.839Z</time></trkpt><trkpt lat="44.9625001" lon="8.0919417"><ele>213.8</ele><time>2026-04-10T11:37:38.84Z</time></trkpt><trkpt lat="44.9624175" lon="8.0920747"><ele>213.4</ele><time>2026-04-10T11:37:40.838Z</time></trkpt><trkpt lat="44.9623769" lon="8.0921429"><ele>213.0</ele><time>2026-04-10T11:37:41.838Z</time></trkpt><trkpt lat="44.9622855" lon="8.0922599"><ele>213.0</ele><time>2026-04-10T11:37:43.838Z</time></trkpt><trkpt lat="44.9622412" lon="8.0923238"><ele>213.0</ele><time>2026-04-10T11:37:44.839Z</time></trkpt><trkpt lat="44.9621625" lon="8.0924574"><ele>213.0</ele><time>2026-04-10T11:37:46.84Z</time></trkpt><trkpt lat="44.9621129" lon="8.0925139"><ele>213.0</ele><time>2026-04-10T11:37:47.84Z</time></trkpt><trkpt lat="44.9620436" lon="8.0926422"><ele>213.0</ele><time>2026-04-10T11:37:49.84Z</time></trkpt><trkpt lat="44.9619952" lon="8.0927051"><ele>213.0</ele><time>2026-04-10T11:37:50.84Z</time></trkpt><trkpt lat="44.9619481" lon="8.0927711"><ele>213.2</ele><time>2026-04-10T11:37:51.839Z</time></trkpt><trkpt lat="44.9619026" lon="8.0928355"><ele>213.4</ele><time>2026-04-10T11:37:52.84Z</time></trkpt><trkpt lat="44.9618187" lon="8.0929698"><ele>213.59999999999997</ele><time>2026-04-10T11:37:54.84Z</time></trkpt><trkpt lat="44.9617374" lon="8.0930843"><ele>213.79999999999998</ele><time>2026-04-10T11:37:56.838Z</time></trkpt><trkpt lat="44.9616473" lon="8.0931978"><ele>214.0</ele><time>2026-04-10T11:37:58.838Z</time></trkpt><trkpt lat="44.9615619" lon="8.0933057"><ele>213.14285714285717</ele><time>2026-04-10T11:38:00.84Z</time></trkpt><trkpt lat="44.9615141" lon="8.0933664"><ele>212.28571428571428</ele><time>2026-04-10T11:38:01.839Z</time></trkpt><trkpt lat="44.9614625" lon="8.0934293"><ele>211.42857142857144</ele><time>2026-04-10T11:38:02.84Z</time></trkpt><trkpt lat="44.9614127" lon="8.0934982"><ele>210.57142857142858</ele><time>2026-04-10T11:38:03.84Z</time></trkpt><trkpt lat="44.9613635" lon="8.0935597"><ele>209.71428571428572</ele><time>2026-04-10T11:38:04.838Z</time></trkpt><trkpt lat="44.9613165" lon="8.0936237"><ele>208.85714285714286</ele><time>2026-04-10T11:38:05.839Z</time></trkpt><trkpt lat="44.9612729" lon="8.0936947"><ele>208.0</ele><time>2026-04-10T11:38:06.838Z</time></trkpt><trkpt lat="44.9612259" lon="8.0937641"><ele>208.0</ele><time>2026-04-10T11:38:07.84Z</time></trkpt><trkpt lat="44.9611763" lon="8.0938355"><ele>208.0</ele><time>2026-04-10T11:38:08.84Z</time></trkpt><trkpt lat="44.9611227" lon="8.0939046"><ele>208.0</ele><time>2026-04-10T11:38:09.84Z</time></trkpt><trkpt lat="44.9610788" lon="8.0939797"><ele>208.0</ele><time>2026-04-10T11:38:10.84Z</time></trkpt><trkpt lat="44.96104" lon="8.0940573"><ele>208.0</ele><time>2026-04-10T11:38:11.841Z</time></trkpt><trkpt lat="44.9609989" lon="8.0941344"><ele>208.0</ele><time>2026-04-10T11:38:12.838Z</time></trkpt><trkpt lat="44.960956" lon="8.0942147"><ele>208.0</ele><time>2026-04-10T11:38:13.839Z</time></trkpt><trkpt lat="44.9609132" lon="8.0942855"><ele>208.66666666666666</ele><time>2026-04-10T11:38:14.839Z</time></trkpt><trkpt lat="44.960872" lon="8.0943637"><ele>209.33333333333331</ele><time>2026-04-10T11:38:15.839Z</time></trkpt><trkpt lat="44.9608305" lon="8.0944421"><ele>210.0</ele><time>2026-04-10T11:38:16.838Z</time></trkpt><trkpt lat="44.9607414" lon="8.0945821"><ele>210.66666666666669</ele><time>2026-04-10T11:38:18.84Z</time></trkpt><trkpt lat="44.9606942" lon="8.0946529"><ele>211.33333333333334</ele><time>2026-04-10T11:38:19.84Z</time></trkpt><trkpt lat="44.9606541" lon="8.094725"><ele>212.0</ele><time>2026-04-10T11:38:20.84Z</time></trkpt><trkpt lat="44.9605676" lon="8.0948397"><ele>212.00000000000003</ele><time>2026-04-10T11:38:22.84Z</time></trkpt><trkpt lat="44.9605004" lon="8.094987"><ele>212.0</ele><time>2026-04-10T11:38:24.84Z</time></trkpt><trkpt lat="44.9604687" lon="8.0950716"><ele>212.0</ele><time>2026-04-10T11:38:25.84Z</time></trkpt><trkpt lat="44.9604407" lon="8.0951634"><ele>212.0</ele><time>2026-04-10T11:38:26.839Z</time></trkpt><trkpt lat="44.9604092" lon="8.0952443"><ele>212.00000000000003</ele><time>2026-04-10T11:38:27.839Z</time></trkpt><trkpt lat="44.9603832" lon="8.0953275"><ele>212.0</ele><time>2026-04-10T11:38:28.838Z</time></trkpt><trkpt lat="44.9603578" lon="8.0954188"><ele>212.0</ele><time>2026-04-10T11:38:29.84Z</time></trkpt><trkpt lat="44.9603252" lon="8.095502"><ele>212.0</ele><time>2026-04-10T11:38:30.84Z</time></trkpt><trkpt lat="44.9602875" lon="8.0955823"><ele>212.0</ele><time>2026-04-10T11:38:31.839Z</time></trkpt><trkpt lat="44.9602556" lon="8.0956599"><ele>212.0</ele><time>2026-04-10T11:38:32.84Z</time></trkpt><trkpt lat="44.9602265" lon="8.095752"><ele>212.0</ele><time>2026-04-10T11:38:33.84Z</time></trkpt><trkpt lat="44.9601872" lon="8.0958413"><ele>212.0</ele><time>2026-04-10T11:38:34.839Z</time></trkpt><trkpt lat="44.9601584" lon="8.0959323"><ele>212.0</ele><time>2026-04-10T11:38:35.84Z</time></trkpt><trkpt lat="44.9601219" lon="8.0960223"><ele>211.71428571428572</ele><time>2026-04-10T11:38:36.839Z</time></trkpt><trkpt lat="44.9600783" lon="8.0961163"><ele>211.42857142857142</ele><time>2026-04-10T11:38:37.841Z</time></trkpt><trkpt lat="44.9600323" lon="8.0961998"><ele>211.14285714285714</ele><time>2026-04-10T11:38:38.839Z</time></trkpt><trkpt lat="44.959986" lon="8.0962847"><ele>210.85714285714286</ele><time>2026-04-10T11:38:39.841Z</time></trkpt><trkpt lat="44.9599369" lon="8.0963666"><ele>210.57142857142856</ele><time>2026-04-10T11:38:40.839Z</time></trkpt><trkpt lat="44.9599002" lon="8.0964517"><ele>210.28571428571428</ele><time>2026-04-10T11:38:41.838Z</time></trkpt><trkpt lat="44.9598424" lon="8.0965119"><ele>210.0</ele><time>2026-04-10T11:38:42.839Z</time></trkpt><trkpt lat="44.9597922" lon="8.0965711"><ele>210.14285714285714</ele><time>2026-04-10T11:38:43.839Z</time></trkpt><trkpt lat="44.9597414" lon="8.0966398"><ele>210.28571428571428</ele><time>2026-04-10T11:38:44.84Z</time></trkpt><trkpt lat="44.959693" lon="8.0967053"><ele>210.42857142857144</ele><time>2026-04-10T11:38:45.84Z</time></trkpt><trkpt lat="44.9596463" lon="8.0967737"><ele>210.57142857142856</ele><time>2026-04-10T11:38:46.84Z</time></trkpt><trkpt lat="44.9595959" lon="8.0968336"><ele>210.71428571428572</ele><time>2026-04-10T11:38:47.84Z</time></trkpt><trkpt lat="44.9595459" lon="8.0969024"><ele>210.85714285714286</ele><time>2026-04-10T11:38:48.839Z</time></trkpt><trkpt lat="44.959495" lon="8.0969635"><ele>211.0</ele><time>2026-04-10T11:38:49.84Z</time></trkpt><trkpt lat="44.9594472" lon="8.0970374"><ele>211.0</ele><time>2026-04-10T11:38:50.84Z</time></trkpt><trkpt lat="44.9593968" lon="8.0970994"><ele>211.0</ele><time>2026-04-10T11:38:51.84Z</time></trkpt><trkpt lat="44.9593445" lon="8.0971611"><ele>211.0</ele><time>2026-04-10T11:38:52.839Z</time></trkpt><trkpt lat="44.9592992" lon="8.0972362"><ele>211.0</ele><time>2026-04-10T11:38:53.84Z</time></trkpt><trkpt lat="44.9592526" lon="8.0973105"><ele>211.0</ele><time>2026-04-10T11:38:54.839Z</time></trkpt><trkpt lat="44.9592078" lon="8.0973885"><ele>211.0</ele><time>2026-04-10T11:38:55.84Z</time></trkpt><trkpt lat="44.9591701" lon="8.0974742"><ele>211.0</ele><time>2026-04-10T11:38:56.839Z</time></trkpt><trkpt lat="44.9591363" lon="8.0975511"><ele>210.85714285714286</ele><time>2026-04-10T11:38:57.84Z</time></trkpt><trkpt lat="44.9591003" lon="8.0976335"><ele>210.71428571428572</ele><time>2026-04-10T11:38:58.84Z</time></trkpt><trkpt lat="44.959056" lon="8.0977217"><ele>210.57142857142856</ele><time>2026-04-10T11:38:59.84Z</time></trkpt><trkpt lat="44.9590111" lon="8.0978013"><ele>210.42857142857144</ele><time>2026-04-10T11:39:00.84Z</time></trkpt><trkpt lat="44.9589636" lon="8.0978739"><ele>210.28571428571428</ele><time>2026-04-10T11:39:01.839Z</time></trkpt><trkpt lat="44.9589212" lon="8.0979538"><ele>210.14285714285714</ele><time>2026-04-10T11:39:02.839Z</time></trkpt><trkpt lat="44.9588752" lon="8.0980284"><ele>210.0</ele><time>2026-04-10T11:39:03.84Z</time></trkpt><trkpt lat="44.9588334" lon="8.0981019"><ele>210.0</ele><time>2026-04-10T11:39:04.839Z</time></trkpt><trkpt lat="44.9587898" lon="8.0981719"><ele>210.0</ele><time>2026-04-10T11:39:05.838Z</time></trkpt><trkpt lat="44.9587577" lon="8.098252"><ele>210.0</ele><time>2026-04-10T11:39:06.839Z</time></trkpt><trkpt lat="44.9587243" lon="8.0983434"><ele>210.0</ele><time>2026-04-10T11:39:07.839Z</time></trkpt><trkpt lat="44.9586864" lon="8.0984193"><ele>210.0</ele><time>2026-04-10T11:39:08.84Z</time></trkpt><trkpt lat="44.9586124" lon="8.0985467"><ele>210.0</ele><time>2026-04-10T11:39:10.841Z</time></trkpt><trkpt lat="44.9585597" lon="8.0987036"><ele>210.2</ele><time>2026-04-10T11:39:12.839Z</time></trkpt><trkpt lat="44.9585023" lon="8.0988454"><ele>210.4</ele><time>2026-04-10T11:39:14.84Z</time></trkpt><trkpt lat="44.9584592" lon="8.0989219"><ele>210.60000000000002</ele><time>2026-04-10T11:39:15.838Z</time></trkpt><trkpt lat="44.9584097" lon="8.0990931"><ele>210.8</ele><time>2026-04-10T11:39:17.839Z</time></trkpt><trkpt lat="44.9583665" lon="8.0992589"><ele>211.0</ele><time>2026-04-10T11:39:19.84Z</time></trkpt><trkpt lat="44.9583456" lon="8.099347"><ele>210.42857142857144</ele><time>2026-04-10T11:39:20.839Z</time></trkpt><trkpt lat="44.9583275" lon="8.0994406"><ele>209.85714285714286</ele><time>2026-04-10T11:39:21.839Z</time></trkpt><trkpt lat="44.9583015" lon="8.0995421"><ele>209.28571428571428</ele><time>2026-04-10T11:39:22.84Z</time></trkpt><trkpt lat="44.9582709" lon="8.0996363"><ele>208.71428571428572</ele><time>2026-04-10T11:39:23.838Z</time></trkpt><trkpt lat="44.95825" lon="8.0997284"><ele>208.14285714285714</ele><time>2026-04-10T11:39:24.838Z</time></trkpt><trkpt lat="44.9582196" lon="8.0998159"><ele>207.57142857142858</ele><time>2026-04-10T11:39:25.838Z</time></trkpt><trkpt lat="44.9581973" lon="8.0999053"><ele>207.0</ele><time>2026-04-10T11:39:26.84Z</time></trkpt><trkpt lat="44.9581596" lon="8.0999857"><ele>207.0</ele><time>2026-04-10T11:39:27.838Z</time></trkpt><trkpt lat="44.9581211" lon="8.1000705"><ele>207.0</ele><time>2026-04-10T11:39:28.839Z</time></trkpt><trkpt lat="44.9580917" lon="8.1001631"><ele>207.0</ele><time>2026-04-10T11:39:29.84Z</time></trkpt><trkpt lat="44.9580538" lon="8.1003355"><ele>207.0</ele><time>2026-04-10T11:39:31.839Z</time></trkpt><trkpt lat="44.9580549" lon="8.1004285"><ele>207.0</ele><time>2026-04-10T11:39:32.839Z</time></trkpt><trkpt lat="44.9580505" lon="8.1005277"><ele>207.0</ele><time>2026-04-10T11:39:33.84Z</time></trkpt><trkpt lat="44.9580518" lon="8.1006442"><ele>207.5</ele><time>2026-04-10T11:39:34.838Z</time></trkpt><trkpt lat="44.9580638" lon="8.1007533"><ele>208.0</ele><time>2026-04-10T11:39:35.839Z</time></trkpt><trkpt lat="44.958075" lon="8.1008503"><ele>208.5</ele><time>2026-04-10T11:39:36.839Z</time></trkpt><trkpt lat="44.9580822" lon="8.1009461"><ele>209.0</ele><time>2026-04-10T11:39:37.839Z</time></trkpt><trkpt lat="44.9580709" lon="8.1010354"><ele>209.5</ele><time>2026-04-10T11:39:38.839Z</time></trkpt><trkpt lat="44.9580215" lon="8.1011932"><ele>210.0</ele><time>2026-04-10T11:39:40.839Z</time></trkpt><trkpt lat="44.9579938" lon="8.1013051"><ele>210.0</ele><time>2026-04-10T11:39:41.838Z</time></trkpt><trkpt lat="44.9579718" lon="8.1014042"><ele>210.0</ele><time>2026-04-10T11:39:42.839Z</time></trkpt><trkpt lat="44.9579582" lon="8.1015063"><ele>210.0</ele><time>2026-04-10T11:39:43.84Z</time></trkpt><trkpt lat="44.957951" lon="8.1017098"><ele>210.0</ele><time>2026-04-10T11:39:45.838Z</time></trkpt><trkpt lat="44.9579558" lon="8.1018213"><ele>210.0</ele><time>2026-04-10T11:39:46.839Z</time></trkpt><trkpt lat="44.9579416" lon="8.1019207"><ele>210.0</ele><time>2026-04-10T11:39:47.84Z</time></trkpt><trkpt lat="44.9579116" lon="8.1020087"><ele>209.85714285714286</ele><time>2026-04-10T11:39:48.839Z</time></trkpt><trkpt lat="44.9578772" lon="8.1020952"><ele>209.71428571428572</ele><time>2026-04-10T11:39:49.84Z</time></trkpt><trkpt lat="44.9578453" lon="8.1021889"><ele>209.57142857142856</ele><time>2026-04-10T11:39:50.839Z</time></trkpt><trkpt lat="44.9578183" lon="8.1022816"><ele>209.42857142857144</ele><time>2026-04-10T11:39:51.839Z</time></trkpt><trkpt lat="44.9577885" lon="8.1023737"><ele>209.28571428571428</ele><time>2026-04-10T11:39:52.839Z</time></trkpt><trkpt lat="44.9577621" lon="8.1024613"><ele>209.14285714285714</ele><time>2026-04-10T11:39:53.839Z</time></trkpt><trkpt lat="44.9577351" lon="8.1025444"><ele>209.0</ele><time>2026-04-10T11:39:54.84Z</time></trkpt><trkpt lat="44.957675" lon="8.1026942"><ele>208.16666666666669</ele><time>2026-04-10T11:39:56.839Z</time></trkpt><trkpt lat="44.9576469" lon="8.1027744"><ele>207.33333333333334</ele><time>2026-04-10T11:39:57.839Z</time></trkpt><trkpt lat="44.9576333" lon="8.1028643"><ele>206.5</ele><time>2026-04-10T11:39:58.839Z</time></trkpt><trkpt lat="44.9575917" lon="8.1030266"><ele>205.66666666666669</ele><time>2026-04-10T11:40:00.84Z</time></trkpt><trkpt lat="44.9575664" lon="8.103109"><ele>204.83333333333334</ele><time>2026-04-10T11:40:01.839Z</time></trkpt><trkpt lat="44.9575198" lon="8.1032629"><ele>204.0</ele><time>2026-04-10T11:40:03.839Z</time></trkpt><trkpt lat="44.957491" lon="8.1033436"><ele>203.83333333333334</ele><time>2026-04-10T11:40:04.838Z</time></trkpt><trkpt lat="44.9574507" lon="8.103413"><ele>203.66666666666669</ele><time>2026-04-10T11:40:05.838Z</time></trkpt><trkpt lat="44.9573721" lon="8.1035427"><ele>203.5</ele><time>2026-04-10T11:40:07.84Z</time></trkpt><trkpt lat="44.9573242" lon="8.1036151"><ele>203.33333333333334</ele><time>2026-04-10T11:40:08.84Z</time></trkpt><trkpt lat="44.9572684" lon="8.1036764"><ele>203.16666666666669</ele><time>2026-04-10T11:40:09.839Z</time></trkpt><trkpt lat="44.9572109" lon="8.1037365"><ele>203.0</ele><time>2026-04-10T11:40:10.84Z</time></trkpt><trkpt lat="44.957154" lon="8.1037965"><ele>203.00000000000003</ele><time>2026-04-10T11:40:11.839Z</time></trkpt><trkpt lat="44.9570906" lon="8.1038604"><ele>203.0</ele><time>2026-04-10T11:40:12.841Z</time></trkpt><trkpt lat="44.9570337" lon="8.1039235"><ele>203.0</ele><time>2026-04-10T11:40:13.839Z</time></trkpt><trkpt lat="44.9569794" lon="8.1039923"><ele>203.0</ele><time>2026-04-10T11:40:14.841Z</time></trkpt><trkpt lat="44.9569337" lon="8.1040618"><ele>203.00000000000003</ele><time>2026-04-10T11:40:15.838Z</time></trkpt><trkpt lat="44.956881" lon="8.1041252"><ele>203.0</ele><time>2026-04-10T11:40:16.841Z</time></trkpt><trkpt lat="44.9567858" lon="8.1042358"><ele>202.50000000000003</ele><time>2026-04-10T11:40:18.838Z</time></trkpt><trkpt lat="44.9566836" lon="8.1043502"><ele>202.0</ele><time>2026-04-10T11:40:20.838Z</time></trkpt><trkpt lat="44.956643" lon="8.1044295"><ele>201.5</ele><time>2026-04-10T11:40:21.838Z</time></trkpt><trkpt lat="44.9565961" lon="8.104503"><ele>201.0</ele><time>2026-04-10T11:40:22.839Z</time></trkpt><trkpt lat="44.9565346" lon="8.1045735"><ele>200.50000000000003</ele><time>2026-04-10T11:40:23.84Z</time></trkpt><trkpt lat="44.9564786" lon="8.1046344"><ele>200.0</ele><time>2026-04-10T11:40:24.84Z</time></trkpt><trkpt lat="44.9564198" lon="8.1047045"><ele>200.00000000000003</ele><time>2026-04-10T11:40:25.838Z</time></trkpt><trkpt lat="44.9563664" lon="8.1047756"><ele>200.0</ele><time>2026-04-10T11:40:26.838Z</time></trkpt><trkpt lat="44.956315" lon="8.104844"><ele>200.0</ele><time>2026-04-10T11:40:27.84Z</time></trkpt><trkpt lat="44.9562639" lon="8.1049236"><ele>200.0</ele><time>2026-04-10T11:40:28.838Z</time></trkpt><trkpt lat="44.9562113" lon="8.1049959"><ele>200.0</ele><time>2026-04-10T11:40:29.839Z</time></trkpt><trkpt lat="44.9561586" lon="8.1050714"><ele>200.00000000000003</ele><time>2026-04-10T11:40:30.839Z</time></trkpt><trkpt lat="44.9561108" lon="8.1051301"><ele>200.0</ele><time>2026-04-10T11:40:31.838Z</time></trkpt><trkpt lat="44.9560744" lon="8.1052124"><ele>200.66666666666669</ele><time>2026-04-10T11:40:32.839Z</time></trkpt><trkpt lat="44.9560323" lon="8.1052931"><ele>201.33333333333334</ele><time>2026-04-10T11:40:33.839Z</time></trkpt><trkpt lat="44.955985" lon="8.1053702"><ele>202.0</ele><time>2026-04-10T11:40:34.839Z</time></trkpt><trkpt lat="44.955956" lon="8.1054568"><ele>202.66666666666669</ele><time>2026-04-10T11:40:35.839Z</time></trkpt><trkpt lat="44.9559261" lon="8.1056273"><ele>203.33333333333334</ele><time>2026-04-10T11:40:37.84Z</time></trkpt><trkpt lat="44.9559057" lon="8.1057128"><ele>204.0</ele><time>2026-04-10T11:40:38.839Z</time></trkpt><trkpt lat="44.9558823" lon="8.1058764"><ele>203.14285714285714</ele><time>2026-04-10T11:40:40.839Z</time></trkpt><trkpt lat="44.9558592" lon="8.1060491"><ele>202.28571428571428</ele><time>2026-04-10T11:40:42.84Z</time></trkpt><trkpt lat="44.9558463" lon="8.1061362"><ele>201.42857142857144</ele><time>2026-04-10T11:40:43.841Z</time></trkpt><trkpt lat="44.9558373" lon="8.1062257"><ele>200.57142857142856</ele><time>2026-04-10T11:40:44.84Z</time></trkpt><trkpt lat="44.9558259" lon="8.1063196"><ele>199.7142857142857</ele><time>2026-04-10T11:40:45.839Z</time></trkpt><trkpt lat="44.9558227" lon="8.1064118"><ele>198.85714285714286</ele><time>2026-04-10T11:40:46.839Z</time></trkpt><trkpt lat="44.9558183" lon="8.1065016"><ele>198.0</ele><time>2026-04-10T11:40:47.84Z</time></trkpt><trkpt lat="44.9558136" lon="8.1065978"><ele>198.0</ele><time>2026-04-10T11:40:48.84Z</time></trkpt><trkpt lat="44.9558319" lon="8.106761"><ele>198.0</ele><time>2026-04-10T11:40:50.84Z</time></trkpt><trkpt lat="44.9558876" lon="8.1068869"><ele>198.0</ele><time>2026-04-10T11:40:52.839Z</time></trkpt><trkpt lat="44.9559681" lon="8.1070062"><ele>198.0</ele><time>2026-04-10T11:40:54.84Z</time></trkpt><trkpt lat="44.9560212" lon="8.1071123"><ele>198.0</ele><time>2026-04-10T11:40:56.838Z</time></trkpt><trkpt lat="44.9559989" lon="8.1072281"><ele>198.0</ele><time>2026-04-10T11:40:59.839Z</time></trkpt><trkpt lat="44.9559425" lon="8.1072799"><ele>198.0</ele><time>2026-04-10T11:41:01.84Z</time></trkpt><trkpt lat="44.9558642" lon="8.1073347"><ele>198.0</ele><time>2026-04-10T11:41:03.839Z</time></trkpt><trkpt lat="44.9557257" lon="8.1074222"><ele>198.0</ele><time>2026-04-10T11:41:06.84Z</time></trkpt><trkpt lat="44.9556408" lon="8.1074988"><ele>198.0</ele><time>2026-04-10T11:41:08.839Z</time></trkpt><trkpt lat="44.9555532" lon="8.1075666"><ele>199.0</ele><time>2026-04-10T11:41:10.84Z</time></trkpt><trkpt lat="44.955453" lon="8.1076592"><ele>200.0</ele><time>2026-04-10T11:41:12.839Z</time></trkpt><trkpt lat="44.9553492" lon="8.1077124"><ele>201.0</ele><time>2026-04-10T11:41:14.84Z</time></trkpt><trkpt lat="44.955227" lon="8.1077571"><ele>202.0</ele><time>2026-04-10T11:41:16.838Z</time></trkpt><trkpt lat="44.9551316" lon="8.1078431"><ele>202.0</ele><time>2026-04-10T11:41:18.839Z</time></trkpt><trkpt lat="44.9550712" lon="8.1078847"><ele>202.0</ele><time>2026-04-10T11:41:19.839Z</time></trkpt><trkpt lat="44.9550123" lon="8.1079259"><ele>202.0</ele><time>2026-04-10T11:41:20.838Z</time></trkpt><trkpt lat="44.9549491" lon="8.1079644"><ele>202.0</ele><time>2026-04-10T11:41:21.839Z</time></trkpt><trkpt lat="44.9548896" lon="8.1080163"><ele>202.0</ele><time>2026-04-10T11:41:22.839Z</time></trkpt><trkpt lat="44.9548259" lon="8.1080716"><ele>202.0</ele><time>2026-04-10T11:41:23.839Z</time></trkpt><trkpt lat="44.9547593" lon="8.1081161"><ele>202.0</ele><time>2026-04-10T11:41:24.839Z</time></trkpt><trkpt lat="44.9546883" lon="8.1081652"><ele>201.33333333333331</ele><time>2026-04-10T11:41:25.839Z</time></trkpt><trkpt lat="44.9546079" lon="8.1082075"><ele>200.66666666666666</ele><time>2026-04-10T11:41:26.84Z</time></trkpt><trkpt lat="44.9545421" lon="8.1082756"><ele>200.0</ele><time>2026-04-10T11:41:27.84Z</time></trkpt><trkpt lat="44.954472" lon="8.1083236"><ele>199.33333333333331</ele><time>2026-04-10T11:41:28.84Z</time></trkpt><trkpt lat="44.9543958" lon="8.1083789"><ele>198.66666666666666</ele><time>2026-04-10T11:41:29.84Z</time></trkpt><trkpt lat="44.9543252" lon="8.1084095"><ele>198.0</ele><time>2026-04-10T11:41:30.84Z</time></trkpt><trkpt lat="44.9542539" lon="8.1084583"><ele>198.14285714285714</ele><time>2026-04-10T11:41:31.839Z</time></trkpt><trkpt lat="44.9541849" lon="8.1085045"><ele>198.28571428571428</ele><time>2026-04-10T11:41:32.839Z</time></trkpt><trkpt lat="44.9541242" lon="8.1085612"><ele>198.42857142857142</ele><time>2026-04-10T11:41:33.84Z</time></trkpt><trkpt lat="44.9540821" lon="8.1086389"><ele>198.57142857142856</ele><time>2026-04-10T11:41:34.841Z</time></trkpt><trkpt lat="44.9540427" lon="8.1087212"><ele>198.71428571428572</ele><time>2026-04-10T11:41:35.84Z</time></trkpt><trkpt lat="44.9539987" lon="8.1088008"><ele>198.85714285714283</ele><time>2026-04-10T11:41:36.838Z</time></trkpt><trkpt lat="44.9539517" lon="8.1088816"><ele>199.0</ele><time>2026-04-10T11:41:37.839Z</time></trkpt><trkpt lat="44.953896" lon="8.108953"><ele>198.99999999999997</ele><time>2026-04-10T11:41:38.839Z</time></trkpt><trkpt lat="44.9538331" lon="8.1090127"><ele>199.0</ele><time>2026-04-10T11:41:39.839Z</time></trkpt><trkpt lat="44.9537614" lon="8.1090649"><ele>199.0</ele><time>2026-04-10T11:41:40.84Z</time></trkpt><trkpt lat="44.9536884" lon="8.1091161"><ele>199.0</ele><time>2026-04-10T11:41:41.839Z</time></trkpt><trkpt lat="44.9536134" lon="8.1091644"><ele>198.99999999999997</ele><time>2026-04-10T11:41:42.84Z</time></trkpt><trkpt lat="44.9535347" lon="8.1092237"><ele>199.0</ele><time>2026-04-10T11:41:43.84Z</time></trkpt><trkpt lat="44.9534528" lon="8.109283"><ele>198.79999999999998</ele><time>2026-04-10T11:41:44.838Z</time></trkpt><trkpt lat="44.953381" lon="8.1093416"><ele>198.6</ele><time>2026-04-10T11:41:45.839Z</time></trkpt><trkpt lat="44.953307" lon="8.1093747"><ele>198.4</ele><time>2026-04-10T11:41:46.84Z</time></trkpt><trkpt lat="44.9532228" lon="8.1094366"><ele>198.2</ele><time>2026-04-10T11:41:47.839Z</time></trkpt><trkpt lat="44.9530714" lon="8.1095482"><ele>198.0</ele><time>2026-04-10T11:41:49.838Z</time></trkpt><trkpt lat="44.9529927" lon="8.1095957"><ele>198.0</ele><time>2026-04-10T11:41:50.839Z</time></trkpt><trkpt lat="44.9529202" lon="8.1096514"><ele>198.0</ele><time>2026-04-10T11:41:51.841Z</time></trkpt><trkpt lat="44.952842" lon="8.1097038"><ele>198.0</ele><time>2026-04-10T11:41:52.839Z</time></trkpt><trkpt lat="44.9527608" lon="8.1097483"><ele>198.0</ele><time>2026-04-10T11:41:53.84Z</time></trkpt><trkpt lat="44.9526724" lon="8.1097737"><ele>198.0</ele><time>2026-04-10T11:41:54.839Z</time></trkpt><trkpt lat="44.9525871" lon="8.1097789"><ele>198.0</ele><time>2026-04-10T11:41:55.841Z</time></trkpt><trkpt lat="44.9525005" lon="8.1098132"><ele>197.33333333333334</ele><time>2026-04-10T11:41:56.839Z</time></trkpt><trkpt lat="44.9524106" lon="8.1098374"><ele>196.66666666666669</ele><time>2026-04-10T11:41:57.838Z</time></trkpt><trkpt lat="44.9523207" lon="8.1098539"><ele>196.0</ele><time>2026-04-10T11:41:58.84Z</time></trkpt><trkpt lat="44.9522352" lon="8.1098698"><ele>195.33333333333334</ele><time>2026-04-10T11:41:59.839Z</time></trkpt><trkpt lat="44.9521425" lon="8.1099011"><ele>194.66666666666669</ele><time>2026-04-10T11:42:00.839Z</time></trkpt><trkpt lat="44.952069" lon="8.1099252"><ele>194.0</ele><time>2026-04-10T11:42:01.838Z</time></trkpt><trkpt lat="44.9519868" lon="8.1099675"><ele>194.50000000000003</ele><time>2026-04-10T11:42:02.84Z</time></trkpt><trkpt lat="44.951898" lon="8.1100233"><ele>195.0</ele><time>2026-04-10T11:42:03.84Z</time></trkpt><trkpt lat="44.9518227" lon="8.1100999"><ele>195.5</ele><time>2026-04-10T11:42:04.838Z</time></trkpt><trkpt lat="44.9517551" lon="8.1101595"><ele>196.0</ele><time>2026-04-10T11:42:05.84Z</time></trkpt><trkpt lat="44.9516887" lon="8.1102154"><ele>196.50000000000003</ele><time>2026-04-10T11:42:06.838Z</time></trkpt><trkpt lat="44.9516423" lon="8.1102935"><ele>197.0</ele><time>2026-04-10T11:42:07.839Z</time></trkpt><trkpt lat="44.9515786" lon="8.1103493"><ele>197.00000000000003</ele><time>2026-04-10T11:42:08.838Z</time></trkpt><trkpt lat="44.9515198" lon="8.1104067"><ele>197.0</ele><time>2026-04-10T11:42:09.839Z</time></trkpt><trkpt lat="44.9514528" lon="8.1104664"><ele>197.0</ele><time>2026-04-10T11:42:10.839Z</time></trkpt><trkpt lat="44.9513913" lon="8.1105281"><ele>197.0</ele><time>2026-04-10T11:42:11.839Z</time></trkpt><trkpt lat="44.9513299" lon="8.1105896"><ele>197.00000000000003</ele><time>2026-04-10T11:42:12.84Z</time></trkpt><trkpt lat="44.9512745" lon="8.1106592"><ele>197.0</ele><time>2026-04-10T11:42:13.839Z</time></trkpt><trkpt lat="44.9512083" lon="8.1107202"><ele>196.66666666666669</ele><time>2026-04-10T11:42:14.84Z</time></trkpt><trkpt lat="44.9511449" lon="8.110782"><ele>196.33333333333334</ele><time>2026-04-10T11:42:15.84Z</time></trkpt><trkpt lat="44.9510781" lon="8.1108406"><ele>196.0</ele><time>2026-04-10T11:42:16.839Z</time></trkpt><trkpt lat="44.9510209" lon="8.1109024"><ele>195.66666666666669</ele><time>2026-04-10T11:42:17.84Z</time></trkpt><trkpt lat="44.9509515" lon="8.1109476"><ele>195.33333333333334</ele><time>2026-04-10T11:42:18.84Z</time></trkpt><trkpt lat="44.9508618" lon="8.111053"><ele>195.0</ele><time>2026-04-10T11:42:20.839Z</time></trkpt><trkpt lat="44.9508456" lon="8.1111835"><ele>197.0</ele><time>2026-04-10T11:42:22.841Z</time></trkpt><trkpt lat="44.9508988" lon="8.1113158"><ele>199.0</ele><time>2026-04-10T11:42:24.839Z</time></trkpt><trkpt lat="44.950971" lon="8.1114341"><ele>201.0</ele><time>2026-04-10T11:42:26.84Z</time></trkpt><trkpt lat="44.9510428" lon="8.1115653"><ele>203.0</ele><time>2026-04-10T11:42:28.839Z</time></trkpt><trkpt lat="44.951116" lon="8.1116905"><ele>204.0</ele><time>2026-04-10T11:42:30.839Z</time></trkpt><trkpt lat="44.9511863" lon="8.1118214"><ele>205.0</ele><time>2026-04-10T11:42:32.839Z</time></trkpt><trkpt lat="44.9512526" lon="8.1119463"><ele>206.0</ele><time>2026-04-10T11:42:34.838Z</time></trkpt><trkpt lat="44.9513241" lon="8.1120618"><ele>207.0</ele><time>2026-04-10T11:42:36.841Z</time></trkpt><trkpt lat="44.9513783" lon="8.1121884"><ele>208.0</ele><time>2026-04-10T11:42:38.84Z</time></trkpt><trkpt lat="44.9514324" lon="8.1123288"><ele>206.8</ele><time>2026-04-10T11:42:40.84Z</time></trkpt><trkpt lat="44.9514865" lon="8.1124494"><ele>205.60000000000002</ele><time>2026-04-10T11:42:42.839Z</time></trkpt><trkpt lat="44.9515444" lon="8.1125782"><ele>204.39999999999998</ele><time>2026-04-10T11:42:44.838Z</time></trkpt><trkpt lat="44.9516001" lon="8.1127106"><ele>203.2</ele><time>2026-04-10T11:42:46.839Z</time></trkpt><trkpt lat="44.9516637" lon="8.1128358"><ele>202.0</ele><time>2026-04-10T11:42:48.839Z</time></trkpt><trkpt lat="44.9517304" lon="8.1129598"><ele>205.5</ele><time>2026-04-10T11:42:50.839Z</time></trkpt><trkpt lat="44.9517986" lon="8.1130925"><ele>209.0</ele><time>2026-04-10T11:42:52.839Z</time></trkpt><trkpt lat="44.9518645" lon="8.1132212"><ele>212.5</ele><time>2026-04-10T11:42:54.84Z</time></trkpt><trkpt lat="44.9519324" lon="8.113362"><ele>216.0</ele><time>2026-04-10T11:42:56.84Z</time></trkpt><trkpt lat="44.9520166" lon="8.1134906"><ele>216.0</ele><time>2026-04-10T11:42:58.838Z</time></trkpt><trkpt lat="44.9520943" lon="8.1136247"><ele>216.0</ele><time>2026-04-10T11:43:00.838Z</time></trkpt><trkpt lat="44.9521701" lon="8.1137487"><ele>216.0</ele><time>2026-04-10T11:43:02.839Z</time></trkpt><trkpt lat="44.9522557" lon="8.1138681"><ele>216.0</ele><time>2026-04-10T11:43:04.839Z</time></trkpt><trkpt lat="44.9523347" lon="8.1139832"><ele>217.0</ele><time>2026-04-10T11:43:06.838Z</time></trkpt><trkpt lat="44.9523993" lon="8.1140913"><ele>218.00000000000003</ele><time>2026-04-10T11:43:08.839Z</time></trkpt><trkpt lat="44.952452" lon="8.114202"><ele>219.00000000000003</ele><time>2026-04-10T11:43:10.839Z</time></trkpt><trkpt lat="44.9524901" lon="8.1143143"><ele>220.0</ele><time>2026-04-10T11:43:12.841Z</time></trkpt><trkpt lat="44.9525359" lon="8.1144283"><ele>221.0</ele><time>2026-04-10T11:43:14.84Z</time></trkpt><trkpt lat="44.952584" lon="8.1145614"><ele>221.0</ele><time>2026-04-10T11:43:16.839Z</time></trkpt><trkpt lat="44.9526237" lon="8.11469"><ele>221.00000000000003</ele><time>2026-04-10T11:43:18.838Z</time></trkpt><trkpt lat="44.9526746" lon="8.1148089"><ele>221.00000000000003</ele><time>2026-04-10T11:43:20.84Z</time></trkpt><trkpt lat="44.9527178" lon="8.1149337"><ele>221.0</ele><time>2026-04-10T11:43:22.838Z</time></trkpt><trkpt lat="44.9527527" lon="8.1150769"><ele>221.0</ele><time>2026-04-10T11:43:24.839Z</time></trkpt><trkpt lat="44.9527852" lon="8.1152118"><ele>218.8</ele><time>2026-04-10T11:43:26.84Z</time></trkpt><trkpt lat="44.9528094" lon="8.1153536"><ele>216.60000000000002</ele><time>2026-04-10T11:43:28.84Z</time></trkpt><trkpt lat="44.9528312" lon="8.1154969"><ele>214.4</ele><time>2026-04-10T11:43:30.838Z</time></trkpt><trkpt lat="44.9528156" lon="8.1156343"><ele>212.2</ele><time>2026-04-10T11:43:32.839Z</time></trkpt><trkpt lat="44.9527979" lon="8.1157711"><ele>210.0</ele><time>2026-04-10T11:43:34.84Z</time></trkpt><trkpt lat="44.9527815" lon="8.1158848"><ele>209.83333333333334</ele><time>2026-04-10T11:43:36.84Z</time></trkpt><trkpt lat="44.9527884" lon="8.1160364"><ele>209.66666666666669</ele><time>2026-04-10T11:43:38.84Z</time></trkpt><trkpt lat="44.9527935" lon="8.1161707"><ele>209.5</ele><time>2026-04-10T11:43:40.84Z</time></trkpt><trkpt lat="44.9528242" lon="8.1163064"><ele>209.33333333333334</ele><time>2026-04-10T11:43:42.84Z</time></trkpt><trkpt lat="44.9528505" lon="8.1163881"><ele>209.16666666666669</ele><time>2026-04-10T11:43:43.839Z</time></trkpt><trkpt lat="44.9528673" lon="8.1165016"><ele>209.0</ele><time>2026-04-10T11:43:45.839Z</time></trkpt><trkpt lat="44.9528757" lon="8.1166909"><ele>211.50000000000003</ele><time>2026-04-10T11:43:48.84Z</time></trkpt><trkpt lat="44.952861" lon="8.1168166"><ele>214.0</ele><time>2026-04-10T11:43:50.838Z</time></trkpt><trkpt lat="44.9528704" lon="8.1169346"><ele>216.5</ele><time>2026-04-10T11:43:52.84Z</time></trkpt><trkpt lat="44.9528562" lon="8.1170523"><ele>219.0</ele><time>2026-04-10T11:43:54.839Z</time></trkpt><trkpt lat="44.9528333" lon="8.1171728"><ele>221.50000000000003</ele><time>2026-04-10T11:43:56.839Z</time></trkpt><trkpt lat="44.9528109" lon="8.1172998"><ele>224.0</ele><time>2026-04-10T11:43:58.838Z</time></trkpt><trkpt lat="44.9527935" lon="8.117418"><ele>224.66666666666669</ele><time>2026-04-10T11:44:00.839Z</time></trkpt><trkpt lat="44.9527801" lon="8.1175252"><ele>225.33333333333334</ele><time>2026-04-10T11:44:02.839Z</time></trkpt><trkpt lat="44.9528078" lon="8.1176346"><ele>226.0</ele><time>2026-04-10T11:44:05.84Z</time></trkpt><trkpt lat="44.9528348" lon="8.1177826"><ele>226.66666666666669</ele><time>2026-04-10T11:44:08.84Z</time></trkpt><trkpt lat="44.9528421" lon="8.1178723"><ele>227.33333333333334</ele><time>2026-04-10T11:44:10.839Z</time></trkpt><trkpt lat="44.952846" lon="8.1179661"><ele>228.0</ele><time>2026-04-10T11:44:12.838Z</time></trkpt><trkpt lat="44.9528635" lon="8.11806"><ele>228.0</ele><time>2026-04-10T11:44:14.839Z</time></trkpt><trkpt lat="44.9528952" lon="8.1181529"><ele>227.99999999999997</ele><time>2026-04-10T11:44:16.838Z</time></trkpt><trkpt lat="44.9529317" lon="8.1182413"><ele>228.0</ele><time>2026-04-10T11:44:18.838Z</time></trkpt><trkpt lat="44.9529734" lon="8.118324"><ele>228.0</ele><time>2026-04-10T11:44:20.839Z</time></trkpt><trkpt lat="44.9530177" lon="8.1184008"><ele>227.99999999999997</ele><time>2026-04-10T11:44:22.839Z</time></trkpt><trkpt lat="44.9530615" lon="8.1184801"><ele>228.0</ele><time>2026-04-10T11:44:24.84Z</time></trkpt><trkpt lat="44.9531003" lon="8.1185691"><ele>228.0</ele><time>2026-04-10T11:44:26.838Z</time></trkpt><trkpt lat="44.9531329" lon="8.1186681"><ele>228.0</ele><time>2026-04-10T11:44:28.839Z</time></trkpt><trkpt lat="44.953154" lon="8.118755"><ele>227.99999999999997</ele><time>2026-04-10T11:44:30.839Z</time></trkpt><trkpt lat="44.953178" lon="8.1188397"><ele>228.0</ele><time>2026-04-10T11:44:32.838Z</time></trkpt><trkpt lat="44.9532114" lon="8.118919"><ele>228.0</ele><time>2026-04-10T11:44:34.84Z</time></trkpt><trkpt lat="44.9532458" lon="8.1189953"><ele>227.99999999999997</ele><time>2026-04-10T11:44:36.839Z</time></trkpt><trkpt lat="44.9532878" lon="8.1190709"><ele>228.0</ele><time>2026-04-10T11:44:38.839Z</time></trkpt><trkpt lat="44.9533279" lon="8.1191502"><ele>228.0</ele><time>2026-04-10T11:44:40.839Z</time></trkpt><trkpt lat="44.9533679" lon="8.1192331"><ele>228.0</ele><time>2026-04-10T11:44:42.839Z</time></trkpt><trkpt lat="44.9534115" lon="8.1193344"><ele>228.0</ele><time>2026-04-10T11:44:44.839Z</time></trkpt><trkpt lat="44.9534793" lon="8.1193663"><ele>228.0</ele><time>2026-04-10T11:44:46.839Z</time></trkpt><trkpt lat="44.9535408" lon="8.1194856"><ele>228.0</ele><time>2026-04-10T11:44:48.838Z</time></trkpt><trkpt lat="44.9536225" lon="8.1194785"><ele>228.0</ele><time>2026-04-10T11:44:50.84Z</time></trkpt><trkpt lat="44.9536834" lon="8.1195091"><ele>228.0</ele><time>2026-04-10T11:44:53.838Z</time></trkpt><trkpt lat="44.9537612" lon="8.1195035"><ele>228.0</ele><time>2026-04-10T11:44:56.839Z</time></trkpt><trkpt lat="44.9537431" lon="8.1196196"><ele>227.99999999999997</ele><time>2026-04-10T11:45:03.839Z</time></trkpt><trkpt lat="44.9536894" lon="8.1196684"><ele>228.0</ele><time>2026-04-10T11:45:05.839Z</time></trkpt><trkpt lat="44.9536286" lon="8.1197316"><ele>228.0</ele><time>2026-04-10T11:45:07.839Z</time></trkpt><trkpt lat="44.9535695" lon="8.1197689"><ele>227.99999999999997</ele><time>2026-04-10T11:45:09.839Z</time></trkpt><trkpt lat="44.9535047" lon="8.1198184"><ele>228.0</ele><time>2026-04-10T11:45:11.839Z</time></trkpt><trkpt lat="44.9534422" lon="8.1198637"><ele>228.0</ele><time>2026-04-10T11:45:13.839Z</time></trkpt><trkpt lat="44.9533774" lon="8.1198828"><ele>228.0</ele><time>2026-04-10T11:45:15.84Z</time></trkpt><trkpt lat="44.9533095" lon="8.1198863"><ele>227.99999999999997</ele><time>2026-04-10T11:45:17.839Z</time></trkpt><trkpt lat="44.9532442" lon="8.1198805"><ele>228.0</ele><time>2026-04-10T11:45:19.839Z</time></trkpt><trkpt lat="44.9531495" lon="8.119871"><ele>228.0</ele><time>2026-04-10T11:45:22.838Z</time></trkpt><trkpt lat="44.953086" lon="8.1198499"><ele>227.99999999999997</ele><time>2026-04-10T11:45:24.841Z</time></trkpt><trkpt lat="44.9530173" lon="8.1198194"><ele>228.0</ele><time>2026-04-10T11:45:26.839Z</time></trkpt><trkpt lat="44.9529565" lon="8.1197901"><ele>228.0</ele><time>2026-04-10T11:45:28.839Z</time></trkpt><trkpt lat="44.9528969" lon="8.1197558"><ele>228.0</ele><time>2026-04-10T11:45:30.839Z</time></trkpt><trkpt lat="44.9528173" lon="8.1197127"><ele>228.0</ele><time>2026-04-10T11:45:33.839Z</time></trkpt><trkpt lat="44.9527392" lon="8.1196327"><ele>228.0</ele><time>2026-04-10T11:45:36.838Z</time></trkpt><trkpt lat="44.9526706" lon="8.1195538"><ele>228.0</ele><time>2026-04-10T11:45:39.839Z</time></trkpt><trkpt lat="44.9526113" lon="8.1194757"><ele>228.0</ele><time>2026-04-10T11:45:42.84Z</time></trkpt><trkpt lat="44.9525529" lon="8.1194364"><ele>228.0</ele><time>2026-04-10T11:45:44.84Z</time></trkpt><trkpt lat="44.9524894" lon="8.1194034"><ele>228.7142857142857</ele><time>2026-04-10T11:45:46.84Z</time></trkpt><trkpt lat="44.952421" lon="8.1194226"><ele>229.4285714285714</ele><time>2026-04-10T11:45:48.84Z</time></trkpt><trkpt lat="44.9523683" lon="8.1194941"><ele>230.14285714285714</ele><time>2026-04-10T11:45:51.839Z</time></trkpt><trkpt lat="44.9523372" lon="8.1195905"><ele>230.85714285714283</ele><time>2026-04-10T11:45:55.841Z</time></trkpt><trkpt lat="44.9523089" lon="8.1196709"><ele>231.57142857142856</ele><time>2026-04-10T11:45:59.839Z</time></trkpt><trkpt lat="44.9522929" lon="8.1197738"><ele>232.28571428571428</ele><time>2026-04-10T11:46:03.839Z</time></trkpt><trkpt lat="44.9522805" lon="8.1198642"><ele>233.0</ele><time>2026-04-10T11:46:07.84Z</time></trkpt><trkpt lat="44.9522582" lon="8.1199595"><ele>234.28571428571428</ele><time>2026-04-10T11:46:13.838Z</time></trkpt><trkpt lat="44.9522557" lon="8.1200496"><ele>235.57142857142856</ele><time>2026-04-10T11:46:17.839Z</time></trkpt><trkpt lat="44.9522551" lon="8.1201521"><ele>236.85714285714283</ele><time>2026-04-10T11:46:21.839Z</time></trkpt><trkpt lat="44.9522579" lon="8.1202663"><ele>238.14285714285714</ele><time>2026-04-10T11:46:25.839Z</time></trkpt><trkpt lat="44.9522554" lon="8.1203575"><ele>239.4285714285714</ele><time>2026-04-10T11:46:29.84Z</time></trkpt><trkpt lat="44.9522558" lon="8.1204723"><ele>240.7142857142857</ele><time>2026-04-10T11:46:33.838Z</time></trkpt><trkpt lat="44.9522404" lon="8.1205784"><ele>242.0</ele><time>2026-04-10T11:46:37.838Z</time></trkpt><trkpt lat="44.9522335" lon="8.1206741"><ele>241.14285714285714</ele><time>2026-04-10T11:46:41.84Z</time></trkpt><trkpt lat="44.9522006" lon="8.1207573"><ele>240.28571428571428</ele><time>2026-04-10T11:47:04.838Z</time></trkpt><trkpt lat="44.9521705" lon="8.1208774"><ele>239.42857142857142</ele><time>2026-04-10T11:47:09.84Z</time></trkpt><trkpt lat="44.9521468" lon="8.1209717"><ele>238.57142857142856</ele><time>2026-04-10T11:47:12.838Z</time></trkpt><trkpt lat="44.9521182" lon="8.1210578"><ele>237.71428571428572</ele><time>2026-04-10T11:47:15.839Z</time></trkpt><trkpt lat="44.9520727" lon="8.1211245"><ele>236.85714285714283</ele><time>2026-04-10T11:47:18.839Z</time></trkpt><trkpt lat="44.9520321" lon="8.1212094"><ele>236.0</ele><time>2026-04-10T11:47:21.84Z</time></trkpt><trkpt lat="44.9519851" lon="8.1212944"><ele>236.00000000000003</ele><time>2026-04-10T11:47:24.84Z</time></trkpt><trkpt lat="44.9519418" lon="8.1213663"><ele>236.0</ele><time>2026-04-10T11:47:27.839Z</time></trkpt><trkpt lat="44.9518972" lon="8.1214334"><ele>236.0</ele><time>2026-04-10T11:47:30.839Z</time></trkpt><trkpt lat="44.9518481" lon="8.1215318"><ele>236.0</ele><time>2026-04-10T11:48:22.839Z</time></trkpt><trkpt lat="44.9517917" lon="8.1216213"><ele>236.00000000000003</ele><time>2026-04-10T11:48:25.84Z</time></trkpt><trkpt lat="44.9517403" lon="8.1216849"><ele>236.0</ele><time>2026-04-10T11:48:27.839Z</time></trkpt><trkpt lat="44.9516733" lon="8.1217583"><ele>237.4</ele><time>2026-04-10T11:48:29.838Z</time></trkpt><trkpt lat="44.9516003" lon="8.1218277"><ele>238.8</ele><time>2026-04-10T11:48:31.839Z</time></trkpt><trkpt lat="44.9515182" lon="8.1218814"><ele>240.20000000000002</ele><time>2026-04-10T11:48:33.84Z</time></trkpt><trkpt lat="44.9514155" lon="8.1218963"><ele>241.60000000000002</ele><time>2026-04-10T11:48:35.838Z</time></trkpt><trkpt lat="44.9513214" lon="8.1219062"><ele>243.0</ele><time>2026-04-10T11:48:37.84Z</time></trkpt><trkpt lat="44.9512282" lon="8.1219111"><ele>243.0</ele><time>2026-04-10T11:48:39.839Z</time></trkpt><trkpt lat="44.9511384" lon="8.1218656"><ele>243.0</ele><time>2026-04-10T11:48:41.839Z</time></trkpt><trkpt lat="44.9510453" lon="8.1217853"><ele>243.0</ele><time>2026-04-10T11:48:43.839Z</time></trkpt><trkpt lat="44.9509826" lon="8.1216809"><ele>243.0</ele><time>2026-04-10T11:48:45.838Z</time></trkpt><trkpt lat="44.9509106" lon="8.1215988"><ele>243.0</ele><time>2026-04-10T11:48:47.838Z</time></trkpt><trkpt lat="44.9508404" lon="8.1215407"><ele>244.83333333333334</ele><time>2026-04-10T11:48:49.838Z</time></trkpt><trkpt lat="44.9507901" lon="8.1214053"><ele>246.66666666666669</ele><time>2026-04-10T11:48:52.839Z</time></trkpt><trkpt lat="44.9507563" lon="8.1212831"><ele>248.5</ele><time>2026-04-10T11:48:55.839Z</time></trkpt><trkpt lat="44.9507119" lon="8.1211913"><ele>250.33333333333334</ele><time>2026-04-10T11:48:57.84Z</time></trkpt><trkpt lat="44.9506886" lon="8.1210734"><ele>252.16666666666669</ele><time>2026-04-10T11:49:00.839Z</time></trkpt><trkpt lat="44.950677" lon="8.1209802"><ele>254.0</ele><time>2026-04-10T11:49:02.839Z</time></trkpt><trkpt lat="44.9507099" lon="8.1208067"><ele>252.42857142857144</ele><time>2026-04-10T11:49:06.839Z</time></trkpt><trkpt lat="44.9507065" lon="8.1207001"><ele>250.85714285714283</ele><time>2026-04-10T11:49:08.839Z</time></trkpt><trkpt lat="44.9506888" lon="8.1205997"><ele>249.28571428571428</ele><time>2026-04-10T11:49:10.839Z</time></trkpt><trkpt lat="44.9506401" lon="8.1205312"><ele>247.71428571428572</ele><time>2026-04-10T11:49:12.838Z</time></trkpt><trkpt lat="44.9505871" lon="8.1204631"><ele>246.14285714285717</ele><time>2026-04-10T11:49:14.838Z</time></trkpt><trkpt lat="44.950532" lon="8.120403"><ele>244.57142857142856</ele><time>2026-04-10T11:49:16.839Z</time></trkpt><trkpt lat="44.9504598" lon="8.1203534"><ele>243.0</ele><time>2026-04-10T11:49:18.838Z</time></trkpt><trkpt lat="44.9503826" lon="8.1203391"><ele>243.0</ele><time>2026-04-10T11:49:20.839Z</time></trkpt><trkpt lat="44.9503139" lon="8.1203416"><ele>243.0</ele><time>2026-04-10T11:49:22.838Z</time></trkpt><trkpt lat="44.9502436" lon="8.1203219"><ele>243.0</ele><time>2026-04-10T11:49:24.839Z</time></trkpt><trkpt lat="44.9501829" lon="8.1202573"><ele>243.0</ele><time>2026-04-10T11:49:26.839Z</time></trkpt><trkpt lat="44.950134" lon="8.1201708"><ele>243.0</ele><time>2026-04-10T11:49:28.839Z</time></trkpt><trkpt lat="44.9500896" lon="8.120069"><ele>243.0</ele><time>2026-04-10T11:49:31.839Z</time></trkpt><trkpt lat="44.9500497" lon="8.1199653"><ele>245.0</ele><time>2026-04-10T11:49:34.838Z</time></trkpt><trkpt lat="44.9499743" lon="8.119962"><ele>247.0</ele><time>2026-04-10T11:49:39.839Z</time></trkpt><trkpt lat="44.9499392" lon="8.1200432"><ele>249.0</ele><time>2026-04-10T11:49:42.839Z</time></trkpt><trkpt lat="44.9499246" lon="8.1201369"><ele>251.0</ele><time>2026-04-10T11:49:45.838Z</time></trkpt><trkpt lat="44.949918" lon="8.1202368"><ele>253.0</ele><time>2026-04-10T11:49:48.838Z</time></trkpt><trkpt lat="44.9499111" lon="8.1203406"><ele>255.0</ele><time>2026-04-10T11:49:52.84Z</time></trkpt><trkpt lat="44.9499062" lon="8.1204478"><ele>257.0</ele><time>2026-04-10T11:49:56.839Z</time></trkpt><trkpt lat="44.9498882" lon="8.1205581"><ele>257.0</ele><time>2026-04-10T11:49:59.839Z</time></trkpt><trkpt lat="44.9498417" lon="8.1206546"><ele>257.0</ele><time>2026-04-10T11:50:02.839Z</time></trkpt><trkpt lat="44.9497776" lon="8.1207596"><ele>257.0</ele><time>2026-04-10T11:50:05.84Z</time></trkpt><trkpt lat="44.9497015" lon="8.120872"><ele>257.0</ele><time>2026-04-10T11:50:07.839Z</time></trkpt><trkpt lat="44.9496242" lon="8.1209907"><ele>257.0</ele><time>2026-04-10T11:50:09.839Z</time></trkpt><trkpt lat="44.9495585" lon="8.1211068"><ele>258.2</ele><time>2026-04-10T11:50:11.838Z</time></trkpt><trkpt lat="44.9494761" lon="8.1212145"><ele>259.4</ele><time>2026-04-10T11:50:13.839Z</time></trkpt><trkpt lat="44.9493885" lon="8.121317"><ele>260.6</ele><time>2026-04-10T11:50:15.839Z</time></trkpt><trkpt lat="44.9493022" lon="8.121414"><ele>261.8</ele><time>2026-04-10T11:50:17.839Z</time></trkpt><trkpt lat="44.9492423" lon="8.1214937"><ele>263.0</ele><time>2026-04-10T11:50:19.839Z</time></trkpt><trkpt lat="44.9491683" lon="8.1215782"><ele>263.0</ele><time>2026-04-10T11:50:21.838Z</time></trkpt><trkpt lat="44.9490673" lon="8.1216542"><ele>263.0</ele><time>2026-04-10T11:50:23.839Z</time></trkpt><trkpt lat="44.9489496" lon="8.1217123"><ele>263.0</ele><time>2026-04-10T11:50:25.839Z</time></trkpt><trkpt lat="44.9488848" lon="8.1217524"><ele>263.0</ele><time>2026-04-10T11:50:26.838Z</time></trkpt><trkpt lat="44.9488196" lon="8.1218011"><ele>263.0</ele><time>2026-04-10T11:50:27.839Z</time></trkpt><trkpt lat="44.9487596" lon="8.1218421"><ele>263.0</ele><time>2026-04-10T11:50:28.838Z</time></trkpt><trkpt lat="44.9486902" lon="8.121864"><ele>263.0</ele><time>2026-04-10T11:50:29.839Z</time></trkpt><trkpt lat="44.9486195" lon="8.121909"><ele>263.0</ele><time>2026-04-10T11:50:30.839Z</time></trkpt><trkpt lat="44.9485666" lon="8.1219675"><ele>263.0</ele><time>2026-04-10T11:50:31.838Z</time></trkpt><trkpt lat="44.9485124" lon="8.1220208"><ele>263.0</ele><time>2026-04-10T11:50:32.838Z</time></trkpt><trkpt lat="44.9484583" lon="8.1220705"><ele>263.0</ele><time>2026-04-10T11:50:33.839Z</time></trkpt><trkpt lat="44.9484031" lon="8.1221329"><ele>263.0</ele><time>2026-04-10T11:50:34.838Z</time></trkpt><trkpt lat="44.948345" lon="8.1221901"><ele>262.4</ele><time>2026-04-10T11:50:35.839Z</time></trkpt><trkpt lat="44.9482905" lon="8.1222384"><ele>261.8</ele><time>2026-04-10T11:50:36.839Z</time></trkpt><trkpt lat="44.948236" lon="8.1222836"><ele>261.2</ele><time>2026-04-10T11:50:37.838Z</time></trkpt><trkpt lat="44.9481409" lon="8.1223839"><ele>260.6</ele><time>2026-04-10T11:50:39.839Z</time></trkpt><trkpt lat="44.9480386" lon="8.1224532"><ele>260.0</ele><time>2026-04-10T11:50:41.84Z</time></trkpt><trkpt lat="44.9479375" lon="8.1224682"><ele>260.0</ele><time>2026-04-10T11:50:43.838Z</time></trkpt><trkpt lat="44.9478644" lon="8.1224869"><ele>260.0</ele><time>2026-04-10T11:50:44.839Z</time></trkpt><trkpt lat="44.9477978" lon="8.1224798"><ele>260.0</ele><time>2026-04-10T11:50:45.839Z</time></trkpt><trkpt lat="44.9477266" lon="8.1224824"><ele>260.0</ele><time>2026-04-10T11:50:46.839Z</time></trkpt><trkpt lat="44.9476086" lon="8.1225025"><ele>260.0</ele><time>2026-04-10T11:50:48.839Z</time></trkpt><trkpt lat="44.9475264" lon="8.1225245"><ele>260.0</ele><time>2026-04-10T11:50:50.839Z</time></trkpt><trkpt lat="44.947408" lon="8.1225579"><ele>259.2</ele><time>2026-04-10T11:50:52.839Z</time></trkpt><trkpt lat="44.9473238" lon="8.1226064"><ele>258.4</ele><time>2026-04-10T11:50:54.838Z</time></trkpt><trkpt lat="44.9472299" lon="8.1226551"><ele>257.6</ele><time>2026-04-10T11:50:56.838Z</time></trkpt><trkpt lat="44.9471136" lon="8.1226758"><ele>256.8</ele><time>2026-04-10T11:50:58.839Z</time></trkpt><trkpt lat="44.9470026" lon="8.1226512"><ele>256.0</ele><time>2026-04-10T11:51:00.839Z</time></trkpt><trkpt lat="44.9469397" lon="8.1226462"><ele>255.99999999999997</ele><time>2026-04-10T11:51:01.838Z</time></trkpt><trkpt lat="44.9468721" lon="8.1226314"><ele>256.0</ele><time>2026-04-10T11:51:02.839Z</time></trkpt><trkpt lat="44.9467591" lon="8.1225997"><ele>256.0</ele><time>2026-04-10T11:51:04.838Z</time></trkpt><trkpt lat="44.9466943" lon="8.1225778"><ele>256.0</ele><time>2026-04-10T11:51:05.839Z</time></trkpt><trkpt lat="44.9466263" lon="8.1225971"><ele>255.99999999999997</ele><time>2026-04-10T11:51:06.839Z</time></trkpt><trkpt lat="44.9465552" lon="8.1226104"><ele>256.0</ele><time>2026-04-10T11:51:07.839Z</time></trkpt><trkpt lat="44.9464912" lon="8.1226032"><ele>255.4</ele><time>2026-04-10T11:51:08.838Z</time></trkpt><trkpt lat="44.9463777" lon="8.1225453"><ele>254.8</ele><time>2026-04-10T11:51:10.838Z</time></trkpt><trkpt lat="44.9462601" lon="8.1225268"><ele>254.20000000000002</ele><time>2026-04-10T11:51:12.84Z</time></trkpt><trkpt lat="44.9461682" lon="8.1225777"><ele>253.60000000000002</ele><time>2026-04-10T11:51:14.839Z</time></trkpt><trkpt lat="44.9460832" lon="8.1226739"><ele>253.0</ele><time>2026-04-10T11:51:16.838Z</time></trkpt><trkpt lat="44.9460247" lon="8.1228118"><ele>253.0</ele><time>2026-04-10T11:51:18.839Z</time></trkpt><trkpt lat="44.9460104" lon="8.1229922"><ele>253.0</ele><time>2026-04-10T11:51:20.839Z</time></trkpt><trkpt lat="44.9459989" lon="8.1230797"><ele>253.0</ele><time>2026-04-10T11:51:21.838Z</time></trkpt><trkpt lat="44.9459489" lon="8.1232329"><ele>253.0</ele><time>2026-04-10T11:51:23.839Z</time></trkpt><trkpt lat="44.9459078" lon="8.1233114"><ele>253.0</ele><time>2026-04-10T11:51:24.838Z</time></trkpt><trkpt lat="44.9458475" lon="8.1233955"><ele>252.99999999999997</ele><time>2026-04-10T11:51:25.839Z</time></trkpt><trkpt lat="44.9457985" lon="8.123467"><ele>253.0</ele><time>2026-04-10T11:51:26.837Z</time></trkpt><trkpt lat="44.9457355" lon="8.1235472"><ele>253.0</ele><time>2026-04-10T11:51:27.838Z</time></trkpt><trkpt lat="44.9456748" lon="8.1236082"><ele>253.0</ele><time>2026-04-10T11:51:28.838Z</time></trkpt><trkpt lat="44.9455832" lon="8.1237043"><ele>252.99999999999997</ele><time>2026-04-10T11:51:30.838Z</time></trkpt><trkpt lat="44.9454844" lon="8.123735"><ele>253.0</ele><time>2026-04-10T11:51:32.839Z</time></trkpt><trkpt lat="44.9453843" lon="8.1236988"><ele>253.0</ele><time>2026-04-10T11:51:34.839Z</time></trkpt><trkpt lat="44.9452916" lon="8.1236531"><ele>253.0</ele><time>2026-04-10T11:51:36.837Z</time></trkpt><trkpt lat="44.9451815" lon="8.1236111"><ele>253.0</ele><time>2026-04-10T11:51:38.839Z</time></trkpt><trkpt lat="44.9451137" lon="8.1236168"><ele>253.0</ele><time>2026-04-10T11:51:39.839Z</time></trkpt><trkpt lat="44.944994" lon="8.1236356"><ele>253.0</ele><time>2026-04-10T11:51:41.837Z</time></trkpt><trkpt lat="44.9449354" lon="8.1236699"><ele>252.33333333333331</ele><time>2026-04-10T11:51:42.838Z</time></trkpt><trkpt lat="44.9448729" lon="8.1237081"><ele>251.66666666666666</ele><time>2026-04-10T11:51:43.838Z</time></trkpt><trkpt lat="44.9448145" lon="8.1237487"><ele>251.0</ele><time>2026-04-10T11:51:44.839Z</time></trkpt><trkpt lat="44.944704" lon="8.1238338"><ele>250.33333333333331</ele><time>2026-04-10T11:51:46.838Z</time></trkpt><trkpt lat="44.9446407" lon="8.1238465"><ele>249.66666666666666</ele><time>2026-04-10T11:51:47.838Z</time></trkpt><trkpt lat="44.9445717" lon="8.1238673"><ele>249.0</ele><time>2026-04-10T11:51:48.839Z</time></trkpt><trkpt lat="44.9444486" lon="8.1238852"><ele>249.0</ele><time>2026-04-10T11:51:50.838Z</time></trkpt><trkpt lat="44.9443283" lon="8.1238968"><ele>248.99999999999997</ele><time>2026-04-10T11:51:52.838Z</time></trkpt><trkpt lat="44.9442106" lon="8.1239139"><ele>248.99999999999997</ele><time>2026-04-10T11:51:54.838Z</time></trkpt><trkpt lat="44.9440996" lon="8.1239118"><ele>249.0</ele><time>2026-04-10T11:51:56.84Z</time></trkpt><trkpt lat="44.9440065" lon="8.1239462"><ele>249.0</ele><time>2026-04-10T11:51:58.839Z</time></trkpt><trkpt lat="44.9439365" lon="8.1239661"><ele>249.16666666666666</ele><time>2026-04-10T11:52:00.839Z</time></trkpt><trkpt lat="44.943847" lon="8.1239776"><ele>249.33333333333331</ele><time>2026-04-10T11:52:03.838Z</time></trkpt><trkpt lat="44.9437836" lon="8.1239993"><ele>249.5</ele><time>2026-04-10T11:52:05.839Z</time></trkpt><trkpt lat="44.9436996" lon="8.1240405"><ele>249.66666666666666</ele><time>2026-04-10T11:52:08.838Z</time></trkpt><trkpt lat="44.9436321" lon="8.124089"><ele>249.83333333333331</ele><time>2026-04-10T11:52:11.84Z</time></trkpt><trkpt lat="44.9435576" lon="8.1241249"><ele>250.0</ele><time>2026-04-10T11:52:14.839Z</time></trkpt><trkpt lat="44.9434782" lon="8.1241657"><ele>249.33333333333331</ele><time>2026-04-10T11:52:18.837Z</time></trkpt><trkpt lat="44.9434139" lon="8.1242064"><ele>248.66666666666666</ele><time>2026-04-10T11:52:22.839Z</time></trkpt><trkpt lat="44.9433433" lon="8.1242613"><ele>248.0</ele><time>2026-04-10T11:52:25.839Z</time></trkpt><trkpt lat="44.9432835" lon="8.1243112"><ele>247.33333333333331</ele><time>2026-04-10T11:52:27.838Z</time></trkpt><trkpt lat="44.9432175" lon="8.1243639"><ele>246.66666666666666</ele><time>2026-04-10T11:52:29.838Z</time></trkpt><trkpt lat="44.9431531" lon="8.1244209"><ele>246.0</ele><time>2026-04-10T11:52:31.838Z</time></trkpt><trkpt lat="44.9430795" lon="8.1244698"><ele>247.5</ele><time>2026-04-10T11:52:33.839Z</time></trkpt><trkpt lat="44.9430003" lon="8.1245121"><ele>249.0</ele><time>2026-04-10T11:52:35.838Z</time></trkpt><trkpt lat="44.9429217" lon="8.1245536"><ele>250.5</ele><time>2026-04-10T11:52:37.839Z</time></trkpt><trkpt lat="44.9428485" lon="8.1245962"><ele>252.0</ele><time>2026-04-10T11:52:39.839Z</time></trkpt><trkpt lat="44.9427846" lon="8.1246557"><ele>253.5</ele><time>2026-04-10T11:52:41.838Z</time></trkpt><trkpt lat="44.9427261" lon="8.1247481"><ele>255.0</ele><time>2026-04-10T11:52:43.839Z</time></trkpt><trkpt lat="44.9426528" lon="8.1248563"><ele>254.5</ele><time>2026-04-10T11:52:45.838Z</time></trkpt><trkpt lat="44.942568" lon="8.1249766"><ele>254.0</ele><time>2026-04-10T11:52:47.838Z</time></trkpt><trkpt lat="44.9425275" lon="8.125048"><ele>253.5</ele><time>2026-04-10T11:52:48.838Z</time></trkpt><trkpt lat="44.9424811" lon="8.1251148"><ele>253.0</ele><time>2026-04-10T11:52:49.84Z</time></trkpt><trkpt lat="44.9424294" lon="8.1251875"><ele>252.5</ele><time>2026-04-10T11:52:50.838Z</time></trkpt><trkpt lat="44.9423747" lon="8.1252584"><ele>252.0</ele><time>2026-04-10T11:52:51.838Z</time></trkpt><trkpt lat="44.9423172" lon="8.1253231"><ele>252.0</ele><time>2026-04-10T11:52:52.838Z</time></trkpt><trkpt lat="44.9422578" lon="8.1253778"><ele>252.0</ele><time>2026-04-10T11:52:53.839Z</time></trkpt><trkpt lat="44.9421898" lon="8.1254329"><ele>252.0</ele><time>2026-04-10T11:52:54.839Z</time></trkpt><trkpt lat="44.9421227" lon="8.1254888"><ele>252.0</ele><time>2026-04-10T11:52:55.84Z</time></trkpt><trkpt lat="44.9420566" lon="8.125542"><ele>252.0</ele><time>2026-04-10T11:52:56.838Z</time></trkpt><trkpt lat="44.9419855" lon="8.1255922"><ele>252.0</ele><time>2026-04-10T11:52:57.838Z</time></trkpt><trkpt lat="44.941917" lon="8.1256483"><ele>252.0</ele><time>2026-04-10T11:52:58.84Z</time></trkpt><trkpt lat="44.9418501" lon="8.1256963"><ele>252.0</ele><time>2026-04-10T11:52:59.839Z</time></trkpt><trkpt lat="44.9417787" lon="8.1257503"><ele>252.0</ele><time>2026-04-10T11:53:00.838Z</time></trkpt><trkpt lat="44.941701" lon="8.1257897"><ele>252.0</ele><time>2026-04-10T11:53:01.838Z</time></trkpt><trkpt lat="44.9416252" lon="8.1258284"><ele>252.0</ele><time>2026-04-10T11:53:02.839Z</time></trkpt><trkpt lat="44.9415526" lon="8.1258591"><ele>252.0</ele><time>2026-04-10T11:53:03.839Z</time></trkpt><trkpt lat="44.9414798" lon="8.1258844"><ele>252.16666666666666</ele><time>2026-04-10T11:53:04.839Z</time></trkpt><trkpt lat="44.9414142" lon="8.1259147"><ele>252.33333333333331</ele><time>2026-04-10T11:53:05.837Z</time></trkpt><trkpt lat="44.9413428" lon="8.1259484"><ele>252.5</ele><time>2026-04-10T11:53:06.837Z</time></trkpt><trkpt lat="44.9412726" lon="8.1259785"><ele>252.66666666666666</ele><time>2026-04-10T11:53:07.839Z</time></trkpt><trkpt lat="44.941205" lon="8.1260053"><ele>252.83333333333331</ele><time>2026-04-10T11:53:08.838Z</time></trkpt><trkpt lat="44.9411468" lon="8.1260459"><ele>253.0</ele><time>2026-04-10T11:53:09.838Z</time></trkpt><trkpt lat="44.941041" lon="8.1261004"><ele>253.0</ele><time>2026-04-10T11:53:11.84Z</time></trkpt><trkpt lat="44.9409239" lon="8.1261445"><ele>253.0</ele><time>2026-04-10T11:53:13.839Z</time></trkpt><trkpt lat="44.9408269" lon="8.1261887"><ele>253.0</ele><time>2026-04-10T11:53:15.839Z</time></trkpt><trkpt lat="44.9407391" lon="8.1262295"><ele>253.0</ele><time>2026-04-10T11:53:17.839Z</time></trkpt><trkpt lat="44.9406684" lon="8.1262852"><ele>253.0</ele><time>2026-04-10T11:53:19.839Z</time></trkpt><trkpt lat="44.9406043" lon="8.12633"><ele>253.16666666666666</ele><time>2026-04-10T11:53:21.839Z</time></trkpt><trkpt lat="44.9405413" lon="8.1263875"><ele>253.33333333333331</ele><time>2026-04-10T11:53:23.838Z</time></trkpt><trkpt lat="44.9404686" lon="8.126472"><ele>253.5</ele><time>2026-04-10T11:53:25.838Z</time></trkpt><trkpt lat="44.9404039" lon="8.1265618"><ele>253.66666666666669</ele><time>2026-04-10T11:53:27.838Z</time></trkpt><trkpt lat="44.9403401" lon="8.1266956"><ele>253.83333333333334</ele><time>2026-04-10T11:53:29.839Z</time></trkpt><trkpt lat="44.940319" lon="8.126781"><ele>254.0</ele><time>2026-04-10T11:53:30.838Z</time></trkpt><trkpt lat="44.9402769" lon="8.1269381"><ele>253.00000000000003</ele><time>2026-04-10T11:53:32.838Z</time></trkpt><trkpt lat="44.9402379" lon="8.127097"><ele>252.0</ele><time>2026-04-10T11:53:34.84Z</time></trkpt><trkpt lat="44.9402008" lon="8.1271709"><ele>251.0</ele><time>2026-04-10T11:53:35.839Z</time></trkpt><trkpt lat="44.9401771" lon="8.1272566"><ele>250.0</ele><time>2026-04-10T11:53:36.838Z</time></trkpt><trkpt lat="44.9401499" lon="8.1273381"><ele>249.00000000000003</ele><time>2026-04-10T11:53:37.839Z</time></trkpt><trkpt lat="44.940108" lon="8.1274995"><ele>248.0</ele><time>2026-04-10T11:53:39.84Z</time></trkpt><trkpt lat="44.9400583" lon="8.1276319"><ele>248.8</ele><time>2026-04-10T11:53:41.838Z</time></trkpt><trkpt lat="44.9399904" lon="8.1277704"><ele>249.60000000000002</ele><time>2026-04-10T11:53:43.839Z</time></trkpt><trkpt lat="44.9399433" lon="8.1278344"><ele>250.39999999999998</ele><time>2026-04-10T11:53:44.839Z</time></trkpt><trkpt lat="44.939873" lon="8.1279113"><ele>251.2</ele><time>2026-04-10T11:53:46.84Z</time></trkpt><trkpt lat="44.9398092" lon="8.1279896"><ele>252.0</ele><time>2026-04-10T11:53:48.839Z</time></trkpt><trkpt lat="44.9397301" lon="8.1280594"><ele>252.0</ele><time>2026-04-10T11:53:50.839Z</time></trkpt><trkpt lat="44.9396423" lon="8.1281285"><ele>252.0</ele><time>2026-04-10T11:53:53.839Z</time></trkpt><trkpt lat="44.9395785" lon="8.1282345"><ele>252.0</ele><time>2026-04-10T11:53:55.838Z</time></trkpt><trkpt lat="44.9395116" lon="8.1283683"><ele>252.0</ele><time>2026-04-10T11:53:57.838Z</time></trkpt><trkpt lat="44.9394562" lon="8.1285268"><ele>252.0</ele><time>2026-04-10T11:53:59.84Z</time></trkpt><trkpt lat="44.9394167" lon="8.1286898"><ele>252.16666666666666</ele><time>2026-04-10T11:54:01.839Z</time></trkpt><trkpt lat="44.9393812" lon="8.1287734"><ele>252.33333333333331</ele><time>2026-04-10T11:54:02.838Z</time></trkpt><trkpt lat="44.939337" lon="8.128848"><ele>252.5</ele><time>2026-04-10T11:54:03.838Z</time></trkpt><trkpt lat="44.9392836" lon="8.1289019"><ele>252.66666666666666</ele><time>2026-04-10T11:54:04.839Z</time></trkpt><trkpt lat="44.9391713" lon="8.1289791"><ele>252.83333333333331</ele><time>2026-04-10T11:54:06.838Z</time></trkpt><trkpt lat="44.9391159" lon="8.1290282"><ele>253.0</ele><time>2026-04-10T11:54:07.84Z</time></trkpt><trkpt lat="44.9390043" lon="8.1291353"><ele>252.71428571428575</ele><time>2026-04-10T11:54:09.838Z</time></trkpt><trkpt lat="44.9389483" lon="8.1291872"><ele>252.42857142857144</ele><time>2026-04-10T11:54:10.839Z</time></trkpt><trkpt lat="44.9388867" lon="8.1292528"><ele>252.14285714285714</ele><time>2026-04-10T11:54:11.838Z</time></trkpt><trkpt lat="44.9388241" lon="8.1293024"><ele>251.85714285714286</ele><time>2026-04-10T11:54:12.838Z</time></trkpt><trkpt lat="44.9387632" lon="8.1293562"><ele>251.57142857142856</ele><time>2026-04-10T11:54:13.838Z</time></trkpt><trkpt lat="44.9387011" lon="8.1294252"><ele>251.28571428571425</ele><time>2026-04-10T11:54:14.838Z</time></trkpt><trkpt lat="44.938655" lon="8.1295001"><ele>250.99999999999997</ele><time>2026-04-10T11:54:15.838Z</time></trkpt><trkpt lat="44.9386065" lon="8.1295693"><ele>250.99999999999997</ele><time>2026-04-10T11:54:16.839Z</time></trkpt><trkpt lat="44.9385595" lon="8.1296573"><ele>251.0</ele><time>2026-04-10T11:54:17.837Z</time></trkpt><trkpt lat="44.9385252" lon="8.129741"><ele>250.99999999999997</ele><time>2026-04-10T11:54:18.838Z</time></trkpt><trkpt lat="44.9384943" lon="8.1298398"><ele>250.99999999999997</ele><time>2026-04-10T11:54:19.839Z</time></trkpt><trkpt lat="44.9384684" lon="8.1299283"><ele>251.0</ele><time>2026-04-10T11:54:20.838Z</time></trkpt><trkpt lat="44.9384389" lon="8.1300212"><ele>250.99999999999997</ele><time>2026-04-10T11:54:21.839Z</time></trkpt><trkpt lat="44.9384113" lon="8.13011"><ele>250.99999999999997</ele><time>2026-04-10T11:54:22.839Z</time></trkpt><trkpt lat="44.9383808" lon="8.130193"><ele>251.4</ele><time>2026-04-10T11:54:23.837Z</time></trkpt><trkpt lat="44.9383627" lon="8.1302801"><ele>251.8</ele><time>2026-04-10T11:54:24.838Z</time></trkpt><trkpt lat="44.938312" lon="8.1304352"><ele>252.20000000000002</ele><time>2026-04-10T11:54:26.838Z</time></trkpt><trkpt lat="44.938246" lon="8.1305314"><ele>252.60000000000002</ele><time>2026-04-10T11:54:28.838Z</time></trkpt><trkpt lat="44.9381703" lon="8.1306213"><ele>253.0</ele><time>2026-04-10T11:54:30.838Z</time></trkpt><trkpt lat="44.9381046" lon="8.1307005"><ele>253.25</ele><time>2026-04-10T11:54:32.839Z</time></trkpt><trkpt lat="44.9380483" lon="8.1308235"><ele>253.5</ele><time>2026-04-10T11:54:34.838Z</time></trkpt><trkpt lat="44.9379911" lon="8.1309662"><ele>253.75</ele><time>2026-04-10T11:54:36.839Z</time></trkpt><trkpt lat="44.9379387" lon="8.1311212"><ele>254.0</ele><time>2026-04-10T11:54:38.839Z</time></trkpt><trkpt lat="44.937888" lon="8.1312681"><ele>254.00000000000003</ele><time>2026-04-10T11:54:40.839Z</time></trkpt><trkpt lat="44.9378707" lon="8.131362"><ele>254.0</ele><time>2026-04-10T11:54:41.839Z</time></trkpt><trkpt lat="44.9378581" lon="8.1314549"><ele>254.0</ele><time>2026-04-10T11:54:42.839Z</time></trkpt><trkpt lat="44.9378357" lon="8.1315394"><ele>254.0</ele><time>2026-04-10T11:54:43.839Z</time></trkpt><trkpt lat="44.9378013" lon="8.1316761"><ele>254.00000000000003</ele><time>2026-04-10T11:54:45.839Z</time></trkpt><trkpt lat="44.9377683" lon="8.1318215"><ele>254.0</ele><time>2026-04-10T11:54:47.837Z</time></trkpt><trkpt lat="44.9377242" lon="8.1319522"><ele>252.50000000000003</ele><time>2026-04-10T11:54:49.838Z</time></trkpt><trkpt lat="44.9376862" lon="8.1320855"><ele>251.0</ele><time>2026-04-10T11:54:51.839Z</time></trkpt><trkpt lat="44.9376265" lon="8.1322283"><ele>249.5</ele><time>2026-04-10T11:54:53.838Z</time></trkpt><trkpt lat="44.9375909" lon="8.1323079"><ele>248.0</ele><time>2026-04-10T11:54:54.837Z</time></trkpt><trkpt lat="44.9375519" lon="8.1323924"><ele>246.50000000000003</ele><time>2026-04-10T11:54:55.839Z</time></trkpt><trkpt lat="44.937507" lon="8.1324683"><ele>245.0</ele><time>2026-04-10T11:54:56.838Z</time></trkpt><trkpt lat="44.9374612" lon="8.1325501"><ele>244.83333333333334</ele><time>2026-04-10T11:54:57.839Z</time></trkpt><trkpt lat="44.9374169" lon="8.1326405"><ele>244.66666666666669</ele><time>2026-04-10T11:54:58.838Z</time></trkpt><trkpt lat="44.9373754" lon="8.1327404"><ele>244.5</ele><time>2026-04-10T11:54:59.839Z</time></trkpt><trkpt lat="44.9373505" lon="8.1328532"><ele>244.33333333333331</ele><time>2026-04-10T11:55:00.839Z</time></trkpt><trkpt lat="44.9373452" lon="8.1329749"><ele>244.16666666666666</ele><time>2026-04-10T11:55:01.838Z</time></trkpt><trkpt lat="44.9373388" lon="8.1330847"><ele>244.0</ele><time>2026-04-10T11:55:02.839Z</time></trkpt><trkpt lat="44.9373267" lon="8.1331764"><ele>242.49999999999997</ele><time>2026-04-10T11:55:03.839Z</time></trkpt><trkpt lat="44.9372992" lon="8.1332628"><ele>241.0</ele><time>2026-04-10T11:55:04.837Z</time></trkpt><trkpt lat="44.9372348" lon="8.13333"><ele>239.5</ele><time>2026-04-10T11:55:05.838Z</time></trkpt><trkpt lat="44.9371728" lon="8.133404"><ele>238.0</ele><time>2026-04-10T11:55:06.838Z</time></trkpt><trkpt lat="44.9371051" lon="8.1334753"><ele>236.49999999999997</ele><time>2026-04-10T11:55:07.837Z</time></trkpt><trkpt lat="44.937032" lon="8.1335565"><ele>235.0</ele><time>2026-04-10T11:55:08.838Z</time></trkpt><trkpt lat="44.9369444" lon="8.1336332"><ele>235.0</ele><time>2026-04-10T11:55:09.839Z</time></trkpt><trkpt lat="44.9368625" lon="8.1336916"><ele>235.0</ele><time>2026-04-10T11:55:10.839Z</time></trkpt><trkpt lat="44.9367764" lon="8.1337637"><ele>235.0</ele><time>2026-04-10T11:55:11.838Z</time></trkpt><trkpt lat="44.936684" lon="8.1338271"><ele>235.0</ele><time>2026-04-10T11:55:12.839Z</time></trkpt><trkpt lat="44.9365824" lon="8.1338811"><ele>235.0</ele><time>2026-04-10T11:55:13.838Z</time></trkpt><trkpt lat="44.9364792" lon="8.1339283"><ele>234.2</ele><time>2026-04-10T11:55:14.838Z</time></trkpt><trkpt lat="44.9363773" lon="8.1339685"><ele>233.4</ele><time>2026-04-10T11:55:15.839Z</time></trkpt><trkpt lat="44.9362732" lon="8.1340106"><ele>232.60000000000002</ele><time>2026-04-10T11:55:16.839Z</time></trkpt><trkpt lat="44.9361624" lon="8.1340634"><ele>231.8</ele><time>2026-04-10T11:55:17.839Z</time></trkpt><trkpt lat="44.9360664" lon="8.134118"><ele>231.0</ele><time>2026-04-10T11:55:18.838Z</time></trkpt><trkpt lat="44.9359744" lon="8.1341767"><ele>230.83333333333334</ele><time>2026-04-10T11:55:19.838Z</time></trkpt><trkpt lat="44.9358837" lon="8.1342366"><ele>230.66666666666669</ele><time>2026-04-10T11:55:20.838Z</time></trkpt><trkpt lat="44.9358012" lon="8.1342908"><ele>230.5</ele><time>2026-04-10T11:55:21.839Z</time></trkpt><trkpt lat="44.9357351" lon="8.1343378"><ele>230.33333333333334</ele><time>2026-04-10T11:55:22.84Z</time></trkpt><trkpt lat="44.9356691" lon="8.1343714"><ele>230.16666666666669</ele><time>2026-04-10T11:55:23.838Z</time></trkpt><trkpt lat="44.9356057" lon="8.1343946"><ele>230.0</ele><time>2026-04-10T11:55:24.839Z</time></trkpt><trkpt lat="44.9355452" lon="8.1344202"><ele>230.0</ele><time>2026-04-10T11:55:25.839Z</time></trkpt><trkpt lat="44.9354285" lon="8.134458"><ele>230.0</ele><time>2026-04-10T11:55:27.839Z</time></trkpt><trkpt lat="44.9353096" lon="8.134483"><ele>230.0</ele><time>2026-04-10T11:55:29.839Z</time></trkpt><trkpt lat="44.935187" lon="8.1344862"><ele>230.0</ele><time>2026-04-10T11:55:31.838Z</time></trkpt><trkpt lat="44.9351236" lon="8.134471"><ele>230.0</ele><time>2026-04-10T11:55:32.838Z</time></trkpt><trkpt lat="44.9349983" lon="8.1344049"><ele>230.4285714285714</ele><time>2026-04-10T11:55:34.838Z</time></trkpt><trkpt lat="44.934933" lon="8.1343689"><ele>230.85714285714283</ele><time>2026-04-10T11:55:35.838Z</time></trkpt><trkpt lat="44.9348646" lon="8.1343371"><ele>231.28571428571428</ele><time>2026-04-10T11:55:36.838Z</time></trkpt><trkpt lat="44.934799" lon="8.1343153"><ele>231.7142857142857</ele><time>2026-04-10T11:55:37.838Z</time></trkpt><trkpt lat="44.934724" lon="8.1343035"><ele>232.1428571428571</ele><time>2026-04-10T11:55:38.839Z</time></trkpt><trkpt lat="44.9346608" lon="8.1343163"><ele>232.57142857142858</ele><time>2026-04-10T11:55:39.838Z</time></trkpt><trkpt lat="44.9345994" lon="8.134336"><ele>233.0</ele><time>2026-04-10T11:55:40.837Z</time></trkpt><trkpt lat="44.9345407" lon="8.1343832"><ele>233.00000000000003</ele><time>2026-04-10T11:55:41.838Z</time></trkpt><trkpt lat="44.9344651" lon="8.134474"><ele>233.0</ele><time>2026-04-10T11:55:43.839Z</time></trkpt><trkpt lat="44.9344081" lon="8.1345825"><ele>233.0</ele><time>2026-04-10T11:55:45.839Z</time></trkpt><trkpt lat="44.9343543" lon="8.1346406"><ele>233.0</ele><time>2026-04-10T11:55:47.838Z</time></trkpt><trkpt lat="44.9342849" lon="8.1347371"><ele>233.00000000000003</ele><time>2026-04-10T11:55:49.838Z</time></trkpt><trkpt lat="44.9342279" lon="8.134833"><ele>233.0</ele><time>2026-04-10T11:55:51.838Z</time></trkpt><trkpt lat="44.9341643" lon="8.1349028"><ele>234.0</ele><time>2026-04-10T11:55:53.838Z</time></trkpt><trkpt lat="44.934112" lon="8.1349709"><ele>235.0</ele><time>2026-04-10T11:55:56.839Z</time></trkpt><trkpt lat="44.9340312" lon="8.1351119"><ele>236.0</ele><time>2026-04-10T11:55:58.84Z</time></trkpt><trkpt lat="44.933969" lon="8.1352095"><ele>237.0</ele><time>2026-04-10T11:55:59.839Z</time></trkpt><trkpt lat="44.9339229" lon="8.135345"><ele>238.0</ele><time>2026-04-10T11:56:01.84Z</time></trkpt><trkpt lat="44.9338958" lon="8.1355009"><ele>238.0</ele><time>2026-04-10T11:56:03.84Z</time></trkpt><trkpt lat="44.9338776" lon="8.1356499"><ele>238.0</ele><time>2026-04-10T11:56:05.838Z</time></trkpt><trkpt lat="44.9338264" lon="8.1358056"><ele>238.0</ele><time>2026-04-10T11:56:07.839Z</time></trkpt><trkpt lat="44.933788" lon="8.1359608"><ele>238.0</ele><time>2026-04-10T11:56:09.838Z</time></trkpt><trkpt lat="44.9337656" lon="8.1361238"><ele>236.25</ele><time>2026-04-10T11:56:11.838Z</time></trkpt><trkpt lat="44.9337551" lon="8.1362971"><ele>234.5</ele><time>2026-04-10T11:56:13.84Z</time></trkpt><trkpt lat="44.9337995" lon="8.1364658"><ele>232.75</ele><time>2026-04-10T11:56:15.839Z</time></trkpt><trkpt lat="44.9338676" lon="8.1366266"><ele>231.0</ele><time>2026-04-10T11:56:17.838Z</time></trkpt><trkpt lat="44.9339133" lon="8.1367169"><ele>230.85714285714286</ele><time>2026-04-10T11:56:18.838Z</time></trkpt><trkpt lat="44.9339422" lon="8.1368069"><ele>230.71428571428572</ele><time>2026-04-10T11:56:19.838Z</time></trkpt><trkpt lat="44.9339622" lon="8.1369127"><ele>230.57142857142856</ele><time>2026-04-10T11:56:20.839Z</time></trkpt><trkpt lat="44.9339676" lon="8.1370164"><ele>230.42857142857142</ele><time>2026-04-10T11:56:21.837Z</time></trkpt><trkpt lat="44.9339774" lon="8.1371157"><ele>230.28571428571428</ele><time>2026-04-10T11:56:22.838Z</time></trkpt><trkpt lat="44.9340039" lon="8.1372144"><ele>230.1428571428571</ele><time>2026-04-10T11:56:23.837Z</time></trkpt><trkpt lat="44.9340426" lon="8.1373044"><ele>229.99999999999997</ele><time>2026-04-10T11:56:24.84Z</time></trkpt><trkpt lat="44.9340977" lon="8.1373886"><ele>230.33333333333334</ele><time>2026-04-10T11:56:25.839Z</time></trkpt><trkpt lat="44.9341583" lon="8.1374549"><ele>230.66666666666669</ele><time>2026-04-10T11:56:26.838Z</time></trkpt><trkpt lat="44.9342218" lon="8.1375131"><ele>231.0</ele><time>2026-04-10T11:56:27.839Z</time></trkpt><trkpt lat="44.9342848" lon="8.1375824"><ele>231.33333333333331</ele><time>2026-04-10T11:56:28.839Z</time></trkpt><trkpt lat="44.934343" lon="8.1376783"><ele>231.66666666666666</ele><time>2026-04-10T11:56:29.839Z</time></trkpt><trkpt lat="44.9343923" lon="8.1377622"><ele>232.0</ele><time>2026-04-10T11:56:30.84Z</time></trkpt><trkpt lat="44.9344337" lon="8.1378389"><ele>229.99999999999997</ele><time>2026-04-10T11:56:31.838Z</time></trkpt><trkpt lat="44.9344591" lon="8.1379384"><ele>228.0</ele><time>2026-04-10T11:56:32.839Z</time></trkpt><trkpt lat="44.934474" lon="8.1380459"><ele>226.0</ele><time>2026-04-10T11:56:33.839Z</time></trkpt><trkpt lat="44.9344709" lon="8.1381726"><ele>224.0</ele><time>2026-04-10T11:56:34.838Z</time></trkpt><trkpt lat="44.9344704" lon="8.138309"><ele>221.99999999999997</ele><time>2026-04-10T11:56:35.838Z</time></trkpt><trkpt lat="44.9344687" lon="8.1384475"><ele>220.0</ele><time>2026-04-10T11:56:36.838Z</time></trkpt><trkpt lat="44.9344741" lon="8.1385821"><ele>219.99999999999997</ele><time>2026-04-10T11:56:37.838Z</time></trkpt><trkpt lat="44.934482" lon="8.1387121"><ele>220.0</ele><time>2026-04-10T11:56:38.839Z</time></trkpt><trkpt lat="44.9345004" lon="8.1388288"><ele>220.0</ele><time>2026-04-10T11:56:39.839Z</time></trkpt><trkpt lat="44.9345183" lon="8.1389439"><ele>220.0</ele><time>2026-04-10T11:56:40.838Z</time></trkpt><trkpt lat="44.9345357" lon="8.1390475"><ele>219.99999999999997</ele><time>2026-04-10T11:56:41.837Z</time></trkpt><trkpt lat="44.9345521" lon="8.139134"><ele>220.0</ele><time>2026-04-10T11:56:42.839Z</time></trkpt><trkpt lat="44.9345829" lon="8.1392778"><ele>220.66666666666666</ele><time>2026-04-10T11:56:44.839Z</time></trkpt><trkpt lat="44.9346018" lon="8.1394665"><ele>221.33333333333331</ele><time>2026-04-10T11:56:47.838Z</time></trkpt><trkpt lat="44.9346026" lon="8.139564"><ele>222.0</ele><time>2026-04-10T11:56:49.838Z</time></trkpt><trkpt lat="44.9346127" lon="8.1396763"><ele>222.66666666666669</ele><time>2026-04-10T11:56:51.838Z</time></trkpt><trkpt lat="44.9346211" lon="8.1397774"><ele>223.33333333333334</ele><time>2026-04-10T11:56:53.838Z</time></trkpt><trkpt lat="44.9346212" lon="8.1398947"><ele>224.0</ele><time>2026-04-10T11:56:55.838Z</time></trkpt><trkpt lat="44.9346165" lon="8.1400146"><ele>224.2</ele><time>2026-04-10T11:56:57.838Z</time></trkpt><trkpt lat="44.9346041" lon="8.1401377"><ele>224.39999999999998</ele><time>2026-04-10T11:56:59.837Z</time></trkpt><trkpt lat="44.9345753" lon="8.1402623"><ele>224.6</ele><time>2026-04-10T11:57:01.838Z</time></trkpt><trkpt lat="44.9345325" lon="8.1403862"><ele>224.8</ele><time>2026-04-10T11:57:03.839Z</time></trkpt><trkpt lat="44.9344777" lon="8.1405203"><ele>225.0</ele><time>2026-04-10T11:57:05.838Z</time></trkpt><trkpt lat="44.9344422" lon="8.1405971"><ele>225.0</ele><time>2026-04-10T11:57:06.838Z</time></trkpt><trkpt lat="44.9343987" lon="8.1406831"><ele>225.0</ele><time>2026-04-10T11:57:07.838Z</time></trkpt><trkpt lat="44.9343306" lon="8.1407701"><ele>225.0</ele><time>2026-04-10T11:57:08.837Z</time></trkpt><trkpt lat="44.9342745" lon="8.1408576"><ele>225.0</ele><time>2026-04-10T11:57:09.838Z</time></trkpt><trkpt lat="44.9342083" lon="8.140947"><ele>225.0</ele><time>2026-04-10T11:57:10.838Z</time></trkpt><trkpt lat="44.9341385" lon="8.141034"><ele>225.0</ele><time>2026-04-10T11:57:11.838Z</time></trkpt><trkpt lat="44.9340661" lon="8.1411169"><ele>225.6</ele><time>2026-04-10T11:57:12.839Z</time></trkpt><trkpt lat="44.9339915" lon="8.1411995"><ele>226.2</ele><time>2026-04-10T11:57:13.837Z</time></trkpt><trkpt lat="44.9339187" lon="8.1412869"><ele>226.8</ele><time>2026-04-10T11:57:14.837Z</time></trkpt><trkpt lat="44.9338426" lon="8.1413708"><ele>227.4</ele><time>2026-04-10T11:57:15.838Z</time></trkpt><trkpt lat="44.9337585" lon="8.1414676"><ele>228.0</ele><time>2026-04-10T11:57:16.837Z</time></trkpt><trkpt lat="44.9336922" lon="8.1416072"><ele>226.60000000000002</ele><time>2026-04-10T11:57:17.838Z</time></trkpt><trkpt lat="44.9336164" lon="8.141697"><ele>225.20000000000002</ele><time>2026-04-10T11:57:18.838Z</time></trkpt><trkpt lat="44.9335513" lon="8.1417729"><ele>223.8</ele><time>2026-04-10T11:57:19.838Z</time></trkpt><trkpt lat="44.9334737" lon="8.1418642"><ele>222.4</ele><time>2026-04-10T11:57:20.839Z</time></trkpt><trkpt lat="44.933408" lon="8.1419671"><ele>221.0</ele><time>2026-04-10T11:57:21.837Z</time></trkpt><trkpt lat="44.9333618" lon="8.1420852"><ele>221.0</ele><time>2026-04-10T11:57:22.838Z</time></trkpt><trkpt lat="44.9333222" lon="8.1422229"><ele>221.00000000000003</ele><time>2026-04-10T11:57:23.838Z</time></trkpt><trkpt lat="44.9332902" lon="8.1423576"><ele>221.00000000000003</ele><time>2026-04-10T11:57:24.838Z</time></trkpt><trkpt lat="44.9332447" lon="8.1424923"><ele>221.0</ele><time>2026-04-10T11:57:25.838Z</time></trkpt><trkpt lat="44.9332075" lon="8.1425956"><ele>221.0</ele><time>2026-04-10T11:57:26.839Z</time></trkpt><trkpt lat="44.9331566" lon="8.1427403"><ele>220.33333333333334</ele><time>2026-04-10T11:57:27.838Z</time></trkpt><trkpt lat="44.9331011" lon="8.1428246"><ele>219.66666666666669</ele><time>2026-04-10T11:57:28.838Z</time></trkpt><trkpt lat="44.9330522" lon="8.1429072"><ele>219.0</ele><time>2026-04-10T11:57:29.839Z</time></trkpt><trkpt lat="44.9329854" lon="8.1429962"><ele>218.33333333333331</ele><time>2026-04-10T11:57:30.838Z</time></trkpt><trkpt lat="44.9329355" lon="8.1430987"><ele>217.66666666666666</ele><time>2026-04-10T11:57:31.839Z</time></trkpt><trkpt lat="44.9328996" lon="8.1432052"><ele>217.0</ele><time>2026-04-10T11:57:32.838Z</time></trkpt><trkpt lat="44.932861" lon="8.1433162"><ele>216.49999999999997</ele><time>2026-04-10T11:57:33.838Z</time></trkpt><trkpt lat="44.9328369" lon="8.1434277"><ele>216.0</ele><time>2026-04-10T11:57:34.838Z</time></trkpt><trkpt lat="44.9328205" lon="8.1435326"><ele>215.5</ele><time>2026-04-10T11:57:35.839Z</time></trkpt><trkpt lat="44.9327933" lon="8.1436176"><ele>215.0</ele><time>2026-04-10T11:57:36.839Z</time></trkpt><trkpt lat="44.9327606" lon="8.1437258"><ele>214.49999999999997</ele><time>2026-04-10T11:57:37.838Z</time></trkpt><trkpt lat="44.9327395" lon="8.1438358"><ele>214.0</ele><time>2026-04-10T11:57:38.838Z</time></trkpt><trkpt lat="44.9326792" lon="8.1439206"><ele>214.0</ele><time>2026-04-10T11:57:39.84Z</time></trkpt><trkpt lat="44.9325945" lon="8.1440109"><ele>213.99999999999997</ele><time>2026-04-10T11:57:40.838Z</time></trkpt><trkpt lat="44.9325351" lon="8.1440791"><ele>213.99999999999997</ele><time>2026-04-10T11:57:41.838Z</time></trkpt><trkpt lat="44.9324645" lon="8.1441558"><ele>214.0</ele><time>2026-04-10T11:57:42.838Z</time></trkpt><trkpt lat="44.9323856" lon="8.1442359"><ele>214.0</ele><time>2026-04-10T11:57:43.838Z</time></trkpt><trkpt lat="44.9323135" lon="8.1443104"><ele>214.33333333333331</ele><time>2026-04-10T11:57:44.839Z</time></trkpt><trkpt lat="44.9322445" lon="8.1443778"><ele>214.66666666666666</ele><time>2026-04-10T11:57:45.837Z</time></trkpt><trkpt lat="44.9321713" lon="8.1444363"><ele>215.0</ele><time>2026-04-10T11:57:46.84Z</time></trkpt><trkpt lat="44.9321166" lon="8.1445059"><ele>215.33333333333331</ele><time>2026-04-10T11:57:47.838Z</time></trkpt><trkpt lat="44.9320574" lon="8.1445805"><ele>215.66666666666666</ele><time>2026-04-10T11:57:48.838Z</time></trkpt><trkpt lat="44.9320146" lon="8.1446669"><ele>216.0</ele><time>2026-04-10T11:57:49.84Z</time></trkpt><trkpt lat="44.9319802" lon="8.1447487"><ele>214.25</ele><time>2026-04-10T11:57:50.839Z</time></trkpt><trkpt lat="44.9319464" lon="8.1449153"><ele>212.5</ele><time>2026-04-10T11:57:52.837Z</time></trkpt><trkpt lat="44.9319061" lon="8.1450738"><ele>210.75</ele><time>2026-04-10T11:57:54.838Z</time></trkpt><trkpt lat="44.9318807" lon="8.145233"><ele>209.0</ele><time>2026-04-10T11:57:56.839Z</time></trkpt><trkpt lat="44.9318581" lon="8.1454094"><ele>209.00000000000003</ele><time>2026-04-10T11:57:58.838Z</time></trkpt><trkpt lat="44.9318352" lon="8.1455061"><ele>209.0</ele><time>2026-04-10T11:57:59.837Z</time></trkpt><trkpt lat="44.931824" lon="8.1456134"><ele>209.0</ele><time>2026-04-10T11:58:00.84Z</time></trkpt><trkpt lat="44.9318158" lon="8.1457353"><ele>209.0</ele><time>2026-04-10T11:58:01.838Z</time></trkpt><trkpt lat="44.9318256" lon="8.1458618"><ele>209.00000000000003</ele><time>2026-04-10T11:58:02.839Z</time></trkpt><trkpt lat="44.9318396" lon="8.1460008"><ele>209.0</ele><time>2026-04-10T11:58:03.838Z</time></trkpt><trkpt lat="44.9318607" lon="8.1461426"><ele>209.25</ele><time>2026-04-10T11:58:04.839Z</time></trkpt><trkpt lat="44.9318759" lon="8.1462957"><ele>209.5</ele><time>2026-04-10T11:58:05.837Z</time></trkpt><trkpt lat="44.9318953" lon="8.1464517"><ele>209.75</ele><time>2026-04-10T11:58:06.838Z</time></trkpt><trkpt lat="44.9319177" lon="8.1466132"><ele>210.0</ele><time>2026-04-10T11:58:07.838Z</time></trkpt><trkpt lat="44.9319475" lon="8.146781"><ele>207.75</ele><time>2026-04-10T11:58:08.838Z</time></trkpt><trkpt lat="44.9319584" lon="8.1469647"><ele>205.5</ele><time>2026-04-10T11:58:09.838Z</time></trkpt><trkpt lat="44.9319682" lon="8.1471352"><ele>203.25</ele><time>2026-04-10T11:58:10.837Z</time></trkpt><trkpt lat="44.9319519" lon="8.1473099"><ele>201.0</ele><time>2026-04-10T11:58:11.838Z</time></trkpt><trkpt lat="44.9319317" lon="8.1474869"><ele>201.66666666666666</ele><time>2026-04-10T11:58:12.838Z</time></trkpt><trkpt lat="44.9319013" lon="8.1476296"><ele>202.33333333333331</ele><time>2026-04-10T11:58:13.839Z</time></trkpt><trkpt lat="44.9318615" lon="8.1477594"><ele>203.0</ele><time>2026-04-10T11:58:14.838Z</time></trkpt><trkpt lat="44.9318133" lon="8.1478432"><ele>203.66666666666666</ele><time>2026-04-10T11:58:15.839Z</time></trkpt><trkpt lat="44.931782" lon="8.1479306"><ele>204.33333333333331</ele><time>2026-04-10T11:58:16.839Z</time></trkpt><trkpt lat="44.9317225" lon="8.1480395"><ele>205.0</ele><time>2026-04-10T11:58:17.837Z</time></trkpt><trkpt lat="44.9316772" lon="8.1481256"><ele>204.99999999999997</ele><time>2026-04-10T11:58:18.839Z</time></trkpt><trkpt lat="44.931641" lon="8.1482004"><ele>205.0</ele><time>2026-04-10T11:58:19.838Z</time></trkpt><trkpt lat="44.9316086" lon="8.1482844"><ele>205.0</ele><time>2026-04-10T11:58:20.84Z</time></trkpt><trkpt lat="44.9315136" lon="8.1484221"><ele>205.0</ele><time>2026-04-10T11:58:22.837Z</time></trkpt><trkpt lat="44.9314569" lon="8.1484939"><ele>204.99999999999997</ele><time>2026-04-10T11:58:23.838Z</time></trkpt><trkpt lat="44.9314022" lon="8.1485714"><ele>205.0</ele><time>2026-04-10T11:58:24.839Z</time></trkpt><trkpt lat="44.9313499" lon="8.1486484"><ele>204.16666666666666</ele><time>2026-04-10T11:58:25.838Z</time></trkpt><trkpt lat="44.9312976" lon="8.1487441"><ele>203.33333333333331</ele><time>2026-04-10T11:58:26.838Z</time></trkpt><trkpt lat="44.9312414" lon="8.1488417"><ele>202.5</ele><time>2026-04-10T11:58:27.838Z</time></trkpt><trkpt lat="44.931202" lon="8.1489453"><ele>201.66666666666669</ele><time>2026-04-10T11:58:28.839Z</time></trkpt><trkpt lat="44.9311676" lon="8.1490588"><ele>200.83333333333334</ele><time>2026-04-10T11:58:29.839Z</time></trkpt><trkpt lat="44.9311394" lon="8.1491695"><ele>200.0</ele><time>2026-04-10T11:58:30.837Z</time></trkpt><trkpt lat="44.9311172" lon="8.1492644"><ele>200.00000000000003</ele><time>2026-04-10T11:58:31.839Z</time></trkpt><trkpt lat="44.9310977" lon="8.1493633"><ele>200.0</ele><time>2026-04-10T11:58:32.837Z</time></trkpt><trkpt lat="44.9310878" lon="8.1494624"><ele>200.0</ele><time>2026-04-10T11:58:33.838Z</time></trkpt><trkpt lat="44.9310719" lon="8.1495738"><ele>200.0</ele><time>2026-04-10T11:58:34.839Z</time></trkpt><trkpt lat="44.9310628" lon="8.1496863"><ele>200.00000000000003</ele><time>2026-04-10T11:58:35.838Z</time></trkpt><trkpt lat="44.9310571" lon="8.1497907"><ele>200.0</ele><time>2026-04-10T11:58:36.838Z</time></trkpt><trkpt lat="44.9310437" lon="8.1499013"><ele>197.83333333333334</ele><time>2026-04-10T11:58:37.839Z</time></trkpt><trkpt lat="44.931032" lon="8.1500171"><ele>195.66666666666669</ele><time>2026-04-10T11:58:38.837Z</time></trkpt><trkpt lat="44.9310065" lon="8.1501319"><ele>193.5</ele><time>2026-04-10T11:58:39.839Z</time></trkpt><trkpt lat="44.9309922" lon="8.1502524"><ele>191.33333333333334</ele><time>2026-04-10T11:58:40.838Z</time></trkpt><trkpt lat="44.9309842" lon="8.150367"><ele>189.16666666666669</ele><time>2026-04-10T11:58:41.838Z</time></trkpt><trkpt lat="44.9309759" lon="8.1504825"><ele>187.0</ele><time>2026-04-10T11:58:42.838Z</time></trkpt><trkpt lat="44.9309599" lon="8.1506041"><ele>189.0</ele><time>2026-04-10T11:58:43.839Z</time></trkpt><trkpt lat="44.9309356" lon="8.1507141"><ele>191.0</ele><time>2026-04-10T11:58:44.838Z</time></trkpt><trkpt lat="44.9309277" lon="8.1508155"><ele>193.0</ele><time>2026-04-10T11:58:45.837Z</time></trkpt><trkpt lat="44.9308942" lon="8.1509033"><ele>195.0</ele><time>2026-04-10T11:58:46.838Z</time></trkpt><trkpt lat="44.930866" lon="8.1510075"><ele>196.99999999999997</ele><time>2026-04-10T11:58:47.838Z</time></trkpt><trkpt lat="44.9308416" lon="8.151113"><ele>199.0</ele><time>2026-04-10T11:58:48.838Z</time></trkpt><trkpt lat="44.9308195" lon="8.1512077"><ele>201.16666666666666</ele><time>2026-04-10T11:58:49.839Z</time></trkpt><trkpt lat="44.9308" lon="8.1513101"><ele>203.33333333333331</ele><time>2026-04-10T11:58:50.839Z</time></trkpt><trkpt lat="44.9307847" lon="8.1514343"><ele>205.5</ele><time>2026-04-10T11:58:51.838Z</time></trkpt><trkpt lat="44.9307825" lon="8.1515505"><ele>207.66666666666669</ele><time>2026-04-10T11:58:52.84Z</time></trkpt><trkpt lat="44.930757" lon="8.1516423"><ele>209.83333333333334</ele><time>2026-04-10T11:58:53.839Z</time></trkpt><trkpt lat="44.9307517" lon="8.1517399"><ele>212.0</ele><time>2026-04-10T11:58:54.838Z</time></trkpt><trkpt lat="44.9307412" lon="8.1518446"><ele>212.33333333333334</ele><time>2026-04-10T11:58:55.838Z</time></trkpt><trkpt lat="44.9307426" lon="8.1519417"><ele>212.66666666666669</ele><time>2026-04-10T11:58:56.838Z</time></trkpt><trkpt lat="44.9307656" lon="8.1520959"><ele>213.0</ele><time>2026-04-10T11:58:58.838Z</time></trkpt><trkpt lat="44.9307738" lon="8.1521954"><ele>213.33333333333331</ele><time>2026-04-10T11:58:59.838Z</time></trkpt><trkpt lat="44.9308251" lon="8.1523359"><ele>213.66666666666666</ele><time>2026-04-10T11:59:01.837Z</time></trkpt><trkpt lat="44.9308893" lon="8.152416"><ele>214.0</ele><time>2026-04-10T11:59:03.839Z</time></trkpt><trkpt lat="44.9309575" lon="8.1525143"><ele>213.2</ele><time>2026-04-10T11:59:05.839Z</time></trkpt><trkpt lat="44.9310098" lon="8.1526309"><ele>212.39999999999998</ele><time>2026-04-10T11:59:07.839Z</time></trkpt><trkpt lat="44.9310888" lon="8.1527214"><ele>211.6</ele><time>2026-04-10T11:59:09.839Z</time></trkpt><trkpt lat="44.9311549" lon="8.1528221"><ele>210.8</ele><time>2026-04-10T11:59:11.839Z</time></trkpt><trkpt lat="44.931195" lon="8.1529051"><ele>210.0</ele><time>2026-04-10T11:59:13.839Z</time></trkpt><trkpt lat="44.9311934" lon="8.1530338"><ele>210.0</ele><time>2026-04-10T11:59:15.837Z</time></trkpt><trkpt lat="44.9311787" lon="8.1531262"><ele>210.0</ele><time>2026-04-10T11:59:16.837Z</time></trkpt><trkpt lat="44.9311422" lon="8.1532815"><ele>210.0</ele><time>2026-04-10T11:59:18.839Z</time></trkpt><trkpt lat="44.9311074" lon="8.1534321"><ele>210.0</ele><time>2026-04-10T11:59:20.839Z</time></trkpt><trkpt lat="44.9310839" lon="8.1535748"><ele>210.0</ele><time>2026-04-10T11:59:22.839Z</time></trkpt><trkpt lat="44.9310727" lon="8.1537261"><ele>209.5</ele><time>2026-04-10T11:59:24.838Z</time></trkpt><trkpt lat="44.9310452" lon="8.1538823"><ele>209.0</ele><time>2026-04-10T11:59:26.837Z</time></trkpt><trkpt lat="44.9310245" lon="8.1539669"><ele>208.5</ele><time>2026-04-10T11:59:27.838Z</time></trkpt><trkpt lat="44.9309896" lon="8.1541149"><ele>208.0</ele><time>2026-04-10T11:59:29.838Z</time></trkpt><trkpt lat="44.9309659" lon="8.1542054"><ele>207.5</ele><time>2026-04-10T11:59:30.838Z</time></trkpt><trkpt lat="44.9309411" lon="8.1542874"><ele>207.0</ele><time>2026-04-10T11:59:31.838Z</time></trkpt><trkpt lat="44.9308926" lon="8.154462"><ele>207.66666666666666</ele><time>2026-04-10T11:59:33.838Z</time></trkpt><trkpt lat="44.9308618" lon="8.1545547"><ele>208.33333333333331</ele><time>2026-04-10T11:59:34.837Z</time></trkpt><trkpt lat="44.9308382" lon="8.1546578"><ele>209.0</ele><time>2026-04-10T11:59:35.839Z</time></trkpt><trkpt lat="44.9307934" lon="8.1547588"><ele>209.66666666666666</ele><time>2026-04-10T11:59:36.838Z</time></trkpt><trkpt lat="44.9307464" lon="8.1548514"><ele>210.33333333333331</ele><time>2026-04-10T11:59:37.838Z</time></trkpt><trkpt lat="44.9306994" lon="8.1549473"><ele>211.0</ele><time>2026-04-10T11:59:38.838Z</time></trkpt><trkpt lat="44.9306498" lon="8.1550448"><ele>210.99999999999997</ele><time>2026-04-10T11:59:39.839Z</time></trkpt><trkpt lat="44.9306081" lon="8.155147"><ele>211.0</ele><time>2026-04-10T11:59:40.839Z</time></trkpt><trkpt lat="44.9305794" lon="8.1552616"><ele>211.0</ele><time>2026-04-10T11:59:41.838Z</time></trkpt><trkpt lat="44.9305458" lon="8.1553768"><ele>211.0</ele><time>2026-04-10T11:59:42.838Z</time></trkpt><trkpt lat="44.9305144" lon="8.1554974"><ele>210.99999999999997</ele><time>2026-04-10T11:59:43.838Z</time></trkpt><trkpt lat="44.9304798" lon="8.1556113"><ele>211.0</ele><time>2026-04-10T11:59:44.838Z</time></trkpt><trkpt lat="44.9304397" lon="8.1557241"><ele>210.0</ele><time>2026-04-10T11:59:45.84Z</time></trkpt><trkpt lat="44.9304102" lon="8.155831"><ele>209.0</ele><time>2026-04-10T11:59:46.839Z</time></trkpt><trkpt lat="44.9303904" lon="8.1559401"><ele>208.0</ele><time>2026-04-10T11:59:47.84Z</time></trkpt><trkpt lat="44.9303837" lon="8.1560514"><ele>207.0</ele><time>2026-04-10T11:59:48.838Z</time></trkpt><trkpt lat="44.9303904" lon="8.1561538"><ele>206.0</ele><time>2026-04-10T11:59:49.838Z</time></trkpt><trkpt lat="44.9304118" lon="8.156242"><ele>205.0</ele><time>2026-04-10T11:59:50.837Z</time></trkpt><trkpt lat="44.9304243" lon="8.1563372"><ele>204.0</ele><time>2026-04-10T11:59:51.838Z</time></trkpt><trkpt lat="44.93044" lon="8.1564242"><ele>204.39999999999998</ele><time>2026-04-10T11:59:52.838Z</time></trkpt><trkpt lat="44.9304799" lon="8.1565894"><ele>204.8</ele><time>2026-04-10T11:59:54.838Z</time></trkpt><trkpt lat="44.9305066" lon="8.156765"><ele>205.2</ele><time>2026-04-10T11:59:56.837Z</time></trkpt><trkpt lat="44.9305098" lon="8.1568678"><ele>205.60000000000002</ele><time>2026-04-10T11:59:57.838Z</time></trkpt><trkpt lat="44.9305076" lon="8.1569641"><ele>206.0</ele><time>2026-04-10T11:59:58.838Z</time></trkpt><trkpt lat="44.9304902" lon="8.1570596"><ele>206.0</ele><time>2026-04-10T11:59:59.839Z</time></trkpt><trkpt lat="44.9304648" lon="8.1571623"><ele>206.0</ele><time>2026-04-10T12:00:00.838Z</time></trkpt><trkpt lat="44.9304258" lon="8.157258"><ele>206.0</ele><time>2026-04-10T12:00:01.837Z</time></trkpt><trkpt lat="44.9303169" lon="8.1573916"><ele>206.0</ele><time>2026-04-10T12:00:03.838Z</time></trkpt><trkpt lat="44.9302622" lon="8.1574808"><ele>206.0</ele><time>2026-04-10T12:00:04.838Z</time></trkpt><trkpt lat="44.9302103" lon="8.1575816"><ele>206.0</ele><time>2026-04-10T12:00:05.838Z</time></trkpt><trkpt lat="44.930148" lon="8.1576686"><ele>206.0</ele><time>2026-04-10T12:00:06.839Z</time></trkpt><trkpt lat="44.9300911" lon="8.1577737"><ele>206.0</ele><time>2026-04-10T12:00:07.838Z</time></trkpt><trkpt lat="44.9300191" lon="8.1578568"><ele>206.0</ele><time>2026-04-10T12:00:08.837Z</time></trkpt><trkpt lat="44.9299503" lon="8.1579344"><ele>206.0</ele><time>2026-04-10T12:00:09.837Z</time></trkpt><trkpt lat="44.9298932" lon="8.158028"><ele>205.83333333333334</ele><time>2026-04-10T12:00:10.838Z</time></trkpt><trkpt lat="44.9298233" lon="8.1581013"><ele>205.66666666666669</ele><time>2026-04-10T12:00:11.839Z</time></trkpt><trkpt lat="44.9297555" lon="8.1581781"><ele>205.5</ele><time>2026-04-10T12:00:12.837Z</time></trkpt><trkpt lat="44.9296962" lon="8.1582706"><ele>205.33333333333331</ele><time>2026-04-10T12:00:13.838Z</time></trkpt><trkpt lat="44.9296343" lon="8.1583558"><ele>205.16666666666666</ele><time>2026-04-10T12:00:14.838Z</time></trkpt><trkpt lat="44.9295721" lon="8.1584367"><ele>205.0</ele><time>2026-04-10T12:00:15.838Z</time></trkpt><trkpt lat="44.9295124" lon="8.1583687"><ele>205.0</ele><time>2026-04-10T12:00:16.84Z</time></trkpt><trkpt lat="44.9294547" lon="8.1584126"><ele>205.0</ele><time>2026-04-10T12:00:17.837Z</time></trkpt><trkpt lat="44.9293449" lon="8.1585323"><ele>205.0</ele><time>2026-04-10T12:00:18.839Z</time></trkpt><trkpt lat="44.9292609" lon="8.1585878"><ele>205.0</ele><time>2026-04-10T12:00:19.839Z</time></trkpt><trkpt lat="44.92918" lon="8.1586422"><ele>205.0</ele><time>2026-04-10T12:00:20.838Z</time></trkpt><trkpt lat="44.9291057" lon="8.1586953"><ele>204.99999999999997</ele><time>2026-04-10T12:00:21.837Z</time></trkpt><trkpt lat="44.9290431" lon="8.1587623"><ele>205.0</ele><time>2026-04-10T12:00:22.838Z</time></trkpt><trkpt lat="44.9289727" lon="8.158843"><ele>205.0</ele><time>2026-04-10T12:00:23.838Z</time></trkpt><trkpt lat="44.9289145" lon="8.1589331"><ele>205.0</ele><time>2026-04-10T12:00:24.838Z</time></trkpt><trkpt lat="44.9288643" lon="8.1590318"><ele>204.99999999999997</ele><time>2026-04-10T12:00:25.837Z</time></trkpt><trkpt lat="44.9288318" lon="8.1591182"><ele>205.0</ele><time>2026-04-10T12:00:26.839Z</time></trkpt><trkpt lat="44.9288051" lon="8.1592005"><ele>204.4</ele><time>2026-04-10T12:00:27.838Z</time></trkpt><trkpt lat="44.9287676" lon="8.1592833"><ele>203.8</ele><time>2026-04-10T12:00:28.837Z</time></trkpt><trkpt lat="44.9287293" lon="8.1593693"><ele>203.2</ele><time>2026-04-10T12:00:29.837Z</time></trkpt><trkpt lat="44.9286775" lon="8.1594462"><ele>202.6</ele><time>2026-04-10T12:00:30.839Z</time></trkpt><trkpt lat="44.9286315" lon="8.1595215"><ele>202.0</ele><time>2026-04-10T12:00:31.838Z</time></trkpt><trkpt lat="44.9285325" lon="8.1597363"><ele>201.99999999999997</ele><time>2026-04-10T12:00:34.839Z</time></trkpt><trkpt lat="44.9284915" lon="8.1598091"><ele>202.0</ele><time>2026-04-10T12:00:35.839Z</time></trkpt><trkpt lat="44.928445" lon="8.1598793"><ele>202.0</ele><time>2026-04-10T12:00:36.838Z</time></trkpt><trkpt lat="44.9284012" lon="8.159946"><ele>202.0</ele><time>2026-04-10T12:00:37.837Z</time></trkpt><trkpt lat="44.9283505" lon="8.1600143"><ele>201.99999999999997</ele><time>2026-04-10T12:00:38.839Z</time></trkpt><trkpt lat="44.9282641" lon="8.1601291"><ele>202.0</ele><time>2026-04-10T12:00:40.838Z</time></trkpt><trkpt lat="44.9282141" lon="8.1601913"><ele>202.99999999999997</ele><time>2026-04-10T12:00:42.838Z</time></trkpt><trkpt lat="44.9281248" lon="8.1601526"><ele>204.0</ele><time>2026-04-10T12:00:44.838Z</time></trkpt><trkpt lat="44.928041" lon="8.1601329"><ele>205.0</ele><time>2026-04-10T12:00:47.837Z</time></trkpt><trkpt lat="44.9280796" lon="8.1600554"><ele>206.0</ele><time>2026-04-10T12:01:24.838Z</time></trkpt><trkpt lat="44.9280043" lon="8.1601191"><ele>206.99999999999997</ele><time>2026-04-10T12:02:07.837Z</time></trkpt><trkpt lat="44.9279173" lon="8.1601472"><ele>208.0</ele><time>2026-04-10T12:02:09.837Z</time></trkpt><trkpt lat="44.9278397" lon="8.1602089"><ele>208.0</ele><time>2026-04-10T12:02:11.837Z</time></trkpt><trkpt lat="44.9277747" lon="8.1603356"><ele>208.0</ele><time>2026-04-10T12:02:13.838Z</time></trkpt><trkpt lat="44.9277329" lon="8.1604595"><ele>208.0</ele><time>2026-04-10T12:02:15.839Z</time></trkpt><trkpt lat="44.9277008" lon="8.1605755"><ele>208.0</ele><time>2026-04-10T12:02:17.838Z</time></trkpt><trkpt lat="44.9276584" lon="8.160689"><ele>208.0</ele><time>2026-04-10T12:02:19.84Z</time></trkpt><trkpt lat="44.9276132" lon="8.1608135"><ele>207.33333333333331</ele><time>2026-04-10T12:02:21.838Z</time></trkpt><trkpt lat="44.9275548" lon="8.1608775"><ele>206.66666666666666</ele><time>2026-04-10T12:02:22.839Z</time></trkpt><trkpt lat="44.9274501" lon="8.1609525"><ele>206.0</ele><time>2026-04-10T12:02:24.838Z</time></trkpt><trkpt lat="44.9274031" lon="8.1610143"><ele>205.33333333333331</ele><time>2026-04-10T12:02:25.838Z</time></trkpt><trkpt lat="44.9273554" lon="8.1610913"><ele>204.66666666666666</ele><time>2026-04-10T12:02:26.838Z</time></trkpt><trkpt lat="44.9273237" lon="8.1611823"><ele>204.0</ele><time>2026-04-10T12:02:27.838Z</time></trkpt><trkpt lat="44.9272984" lon="8.1612891"><ele>204.0</ele><time>2026-04-10T12:02:28.837Z</time></trkpt><trkpt lat="44.9272895" lon="8.1613962"><ele>204.0</ele><time>2026-04-10T12:02:29.838Z</time></trkpt><trkpt lat="44.9272918" lon="8.1615153"><ele>204.0</ele><time>2026-04-10T12:02:30.838Z</time></trkpt><trkpt lat="44.9273047" lon="8.1616409"><ele>204.0</ele><time>2026-04-10T12:02:31.838Z</time></trkpt><trkpt lat="44.9273115" lon="8.1617688"><ele>204.0</ele><time>2026-04-10T12:02:32.839Z</time></trkpt><trkpt lat="44.9273156" lon="8.1619064"><ele>204.0</ele><time>2026-04-10T12:02:33.838Z</time></trkpt><trkpt lat="44.9273201" lon="8.162053"><ele>204.0</ele><time>2026-04-10T12:02:34.838Z</time></trkpt><trkpt lat="44.9273351" lon="8.1622074"><ele>204.0</ele><time>2026-04-10T12:02:35.839Z</time></trkpt><trkpt lat="44.9273427" lon="8.1623404"><ele>204.0</ele><time>2026-04-10T12:02:36.837Z</time></trkpt><trkpt lat="44.9273484" lon="8.162467"><ele>204.0</ele><time>2026-04-10T12:02:37.839Z</time></trkpt><trkpt lat="44.9273567" lon="8.1625805"><ele>204.0</ele><time>2026-04-10T12:02:38.837Z</time></trkpt><trkpt lat="44.9273617" lon="8.1626817"><ele>204.0</ele><time>2026-04-10T12:02:39.84Z</time></trkpt><trkpt lat="44.9273642" lon="8.1628453"><ele>201.6</ele><time>2026-04-10T12:02:41.838Z</time></trkpt><trkpt lat="44.9273481" lon="8.1630164"><ele>199.2</ele><time>2026-04-10T12:02:43.838Z</time></trkpt><trkpt lat="44.9273056" lon="8.1630997"><ele>196.79999999999998</ele><time>2026-04-10T12:02:44.84Z</time></trkpt><trkpt lat="44.9272425" lon="8.1631733"><ele>194.39999999999998</ele><time>2026-04-10T12:02:45.837Z</time></trkpt><trkpt lat="44.927156" lon="8.1632119"><ele>192.0</ele><time>2026-04-10T12:02:46.838Z</time></trkpt><trkpt lat="44.9270656" lon="8.1632257"><ele>189.6</ele><time>2026-04-10T12:02:47.838Z</time></trkpt><trkpt lat="44.9269765" lon="8.1632507"><ele>187.2</ele><time>2026-04-10T12:02:48.837Z</time></trkpt><trkpt lat="44.9268891" lon="8.1632893"><ele>184.8</ele><time>2026-04-10T12:02:49.837Z</time></trkpt><trkpt lat="44.926808" lon="8.1633478"><ele>182.4</ele><time>2026-04-10T12:02:50.838Z</time></trkpt><trkpt lat="44.926723" lon="8.1634223"><ele>180.0</ele><time>2026-04-10T12:02:51.839Z</time></trkpt><trkpt lat="44.9266494" lon="8.1635218"><ele>180.0</ele><time>2026-04-10T12:02:52.839Z</time></trkpt><trkpt lat="44.9265718" lon="8.1636235"><ele>180.0</ele><time>2026-04-10T12:02:53.838Z</time></trkpt><trkpt lat="44.9265009" lon="8.163731"><ele>180.0</ele><time>2026-04-10T12:02:54.837Z</time></trkpt><trkpt lat="44.9264116" lon="8.1638141"><ele>180.0</ele><time>2026-04-10T12:02:55.839Z</time></trkpt><trkpt lat="44.9263088" lon="8.1638874"><ele>180.0</ele><time>2026-04-10T12:02:56.838Z</time></trkpt><trkpt lat="44.9262136" lon="8.1639598"><ele>178.6</ele><time>2026-04-10T12:02:57.838Z</time></trkpt><trkpt lat="44.9261132" lon="8.1640309"><ele>177.2</ele><time>2026-04-10T12:02:58.838Z</time></trkpt><trkpt lat="44.9260145" lon="8.1641098"><ele>175.8</ele><time>2026-04-10T12:02:59.839Z</time></trkpt><trkpt lat="44.925925" lon="8.1641893"><ele>174.4</ele><time>2026-04-10T12:03:00.838Z</time></trkpt><trkpt lat="44.9258406" lon="8.164276"><ele>173.0</ele><time>2026-04-10T12:03:01.838Z</time></trkpt><trkpt lat="44.9257491" lon="8.1643719"><ele>173.0</ele><time>2026-04-10T12:03:02.838Z</time></trkpt><trkpt lat="44.925658" lon="8.1644258"><ele>173.0</ele><time>2026-04-10T12:03:03.838Z</time></trkpt><trkpt lat="44.9255634" lon="8.1644977"><ele>173.0</ele><time>2026-04-10T12:03:04.838Z</time></trkpt><trkpt lat="44.9254668" lon="8.1645759"><ele>173.0</ele><time>2026-04-10T12:03:05.838Z</time></trkpt><trkpt lat="44.9253706" lon="8.1646306"><ele>173.0</ele><time>2026-04-10T12:03:06.837Z</time></trkpt><trkpt lat="44.9252901" lon="8.1646903"><ele>173.0</ele><time>2026-04-10T12:03:07.838Z</time></trkpt><trkpt lat="44.9252057" lon="8.1647672"><ele>173.0</ele><time>2026-04-10T12:03:08.839Z</time></trkpt><trkpt lat="44.9251334" lon="8.1648416"><ele>173.0</ele><time>2026-04-10T12:03:09.838Z</time></trkpt><trkpt lat="44.9250819" lon="8.1649104"><ele>173.0</ele><time>2026-04-10T12:03:10.84Z</time></trkpt><trkpt lat="44.9250481" lon="8.1649947"><ele>173.0</ele><time>2026-04-10T12:03:11.838Z</time></trkpt><trkpt lat="44.9250343" lon="8.1650867"><ele>173.0</ele><time>2026-04-10T12:03:12.839Z</time></trkpt><trkpt lat="44.9250416" lon="8.1651791"><ele>171.85714285714286</ele><time>2026-04-10T12:03:13.837Z</time></trkpt><trkpt lat="44.9250703" lon="8.1652635"><ele>170.71428571428572</ele><time>2026-04-10T12:03:14.838Z</time></trkpt><trkpt lat="44.9251273" lon="8.1653326"><ele>169.57142857142858</ele><time>2026-04-10T12:03:15.838Z</time></trkpt><trkpt lat="44.925197" lon="8.1653687"><ele>168.42857142857144</ele><time>2026-04-10T12:03:16.838Z</time></trkpt><trkpt lat="44.9252678" lon="8.1653613"><ele>167.28571428571428</ele><time>2026-04-10T12:03:17.838Z</time></trkpt><trkpt lat="44.9253346" lon="8.1653208"><ele>166.14285714285717</ele><time>2026-04-10T12:03:18.837Z</time></trkpt><trkpt lat="44.9253943" lon="8.1652608"><ele>165.0</ele><time>2026-04-10T12:03:19.839Z</time></trkpt><trkpt lat="44.9254533" lon="8.1651935"><ele>165.0</ele><time>2026-04-10T12:03:20.838Z</time></trkpt><trkpt lat="44.9255156" lon="8.165127"><ele>165.0</ele><time>2026-04-10T12:03:21.838Z</time></trkpt><trkpt lat="44.925584" lon="8.1650661"><ele>165.0</ele><time>2026-04-10T12:03:22.838Z</time></trkpt><trkpt lat="44.9256608" lon="8.1650176"><ele>165.0</ele><time>2026-04-10T12:03:23.839Z</time></trkpt><trkpt lat="44.9257459" lon="8.1649839"><ele>165.0</ele><time>2026-04-10T12:03:24.838Z</time></trkpt><trkpt lat="44.9258319" lon="8.1649682"><ele>165.0</ele><time>2026-04-10T12:03:25.838Z</time></trkpt><trkpt lat="44.9259233" lon="8.1649724"><ele>164.8</ele><time>2026-04-10T12:03:26.837Z</time></trkpt><trkpt lat="44.9260192" lon="8.1649902"><ele>164.6</ele><time>2026-04-10T12:03:27.838Z</time></trkpt><trkpt lat="44.9261082" lon="8.1650211"><ele>164.39999999999998</ele><time>2026-04-10T12:03:28.838Z</time></trkpt><trkpt lat="44.9261912" lon="8.1650629"><ele>164.2</ele><time>2026-04-10T12:03:29.837Z</time></trkpt><trkpt lat="44.9262746" lon="8.1651153"><ele>164.0</ele><time>2026-04-10T12:03:30.837Z</time></trkpt><trkpt lat="44.9263513" lon="8.1651771"><ele>164.0</ele><time>2026-04-10T12:03:31.839Z</time></trkpt><trkpt lat="44.9264191" lon="8.1652514"><ele>164.0</ele><time>2026-04-10T12:03:32.838Z</time></trkpt><trkpt lat="44.9264751" lon="8.1653416"><ele>164.0</ele><time>2026-04-10T12:03:33.839Z</time></trkpt><trkpt lat="44.9265182" lon="8.1654484"><ele>164.0</ele><time>2026-04-10T12:03:34.838Z</time></trkpt><trkpt lat="44.9265511" lon="8.1655683"><ele>164.0</ele><time>2026-04-10T12:03:35.838Z</time></trkpt><trkpt lat="44.9265615" lon="8.1656988"><ele>164.0</ele><time>2026-04-10T12:03:36.838Z</time></trkpt><trkpt lat="44.9265546" lon="8.1658296"><ele>161.79999999999998</ele><time>2026-04-10T12:03:37.837Z</time></trkpt><trkpt lat="44.9265346" lon="8.1659615"><ele>159.6</ele><time>2026-04-10T12:03:38.838Z</time></trkpt><trkpt lat="44.9265035" lon="8.1660846"><ele>157.4</ele><time>2026-04-10T12:03:39.837Z</time></trkpt><trkpt lat="44.9264667" lon="8.1662165"><ele>155.2</ele><time>2026-04-10T12:03:40.837Z</time></trkpt><trkpt lat="44.9264353" lon="8.1663448"><ele>153.0</ele><time>2026-04-10T12:03:41.837Z</time></trkpt><trkpt lat="44.9264013" lon="8.1664727"><ele>151.6</ele><time>2026-04-10T12:03:42.839Z</time></trkpt><trkpt lat="44.9263708" lon="8.1665809"><ele>150.20000000000002</ele><time>2026-04-10T12:03:43.838Z</time></trkpt><trkpt lat="44.9263328" lon="8.1667081"><ele>148.8</ele><time>2026-04-10T12:03:44.838Z</time></trkpt><trkpt lat="44.9262934" lon="8.1668322"><ele>147.4</ele><time>2026-04-10T12:03:45.838Z</time></trkpt><trkpt lat="44.9262546" lon="8.1669578"><ele>146.0</ele><time>2026-04-10T12:03:46.838Z</time></trkpt><trkpt lat="44.9262212" lon="8.1670957"><ele>146.0</ele><time>2026-04-10T12:03:47.839Z</time></trkpt><trkpt lat="44.926199" lon="8.1672309"><ele>146.0</ele><time>2026-04-10T12:03:48.837Z</time></trkpt><trkpt lat="44.9261902" lon="8.1673772"><ele>146.0</ele><time>2026-04-10T12:03:49.838Z</time></trkpt><trkpt lat="44.9261906" lon="8.1675154"><ele>146.0</ele><time>2026-04-10T12:03:50.837Z</time></trkpt><trkpt lat="44.926208" lon="8.1676557"><ele>146.0</ele><time>2026-04-10T12:03:51.839Z</time></trkpt><trkpt lat="44.9262315" lon="8.1677901"><ele>145.33333333333331</ele><time>2026-04-10T12:03:52.839Z</time></trkpt><trkpt lat="44.9262666" lon="8.1679128"><ele>144.66666666666666</ele><time>2026-04-10T12:03:53.838Z</time></trkpt><trkpt lat="44.9262937" lon="8.1680208"><ele>144.0</ele><time>2026-04-10T12:03:54.838Z</time></trkpt><trkpt lat="44.9263179" lon="8.1681171"><ele>143.33333333333334</ele><time>2026-04-10T12:03:55.838Z</time></trkpt><trkpt lat="44.9263415" lon="8.168207"><ele>142.66666666666669</ele><time>2026-04-10T12:03:56.838Z</time></trkpt><trkpt lat="44.9263687" lon="8.1683459"><ele>142.0</ele><time>2026-04-10T12:03:58.839Z</time></trkpt><trkpt lat="44.9263639" lon="8.1684538"><ele>141.4</ele><time>2026-04-10T12:04:00.839Z</time></trkpt><trkpt lat="44.9263086" lon="8.1685405"><ele>140.79999999999998</ele><time>2026-04-10T12:04:02.838Z</time></trkpt><trkpt lat="44.9262412" lon="8.1685964"><ele>140.2</ele><time>2026-04-10T12:04:04.837Z</time></trkpt><trkpt lat="44.9261626" lon="8.1686746"><ele>139.6</ele><time>2026-04-10T12:04:06.838Z</time></trkpt><trkpt lat="44.9260832" lon="8.1687569"><ele>139.0</ele><time>2026-04-10T12:04:08.839Z</time></trkpt><trkpt lat="44.9259958" lon="8.1688332"><ele>139.0</ele><time>2026-04-10T12:04:10.837Z</time></trkpt><trkpt lat="44.925913" lon="8.1689045"><ele>139.0</ele><time>2026-04-10T12:04:12.837Z</time></trkpt><trkpt lat="44.925821" lon="8.1689692"><ele>139.0</ele><time>2026-04-10T12:04:14.838Z</time></trkpt><trkpt lat="44.925741" lon="8.1690419"><ele>139.0</ele><time>2026-04-10T12:04:16.839Z</time></trkpt><trkpt lat="44.9256662" lon="8.1691091"><ele>139.0</ele><time>2026-04-10T12:04:18.838Z</time></trkpt><trkpt lat="44.9255903" lon="8.1691656"><ele>138.71428571428572</ele><time>2026-04-10T12:04:20.837Z</time></trkpt><trkpt lat="44.9255297" lon="8.16921"><ele>138.42857142857144</ele><time>2026-04-10T12:04:22.837Z</time></trkpt><trkpt lat="44.9254728" lon="8.1692875"><ele>138.14285714285717</ele><time>2026-04-10T12:04:24.839Z</time></trkpt><trkpt lat="44.9254118" lon="8.1693423"><ele>137.85714285714286</ele><time>2026-04-10T12:04:26.837Z</time></trkpt><trkpt lat="44.9253447" lon="8.1694015"><ele>137.57142857142858</ele><time>2026-04-10T12:04:28.837Z</time></trkpt><trkpt lat="44.925288" lon="8.1694581"><ele>137.2857142857143</ele><time>2026-04-10T12:04:30.837Z</time></trkpt><trkpt lat="44.9252612" lon="8.1695417"><ele>137.0</ele><time>2026-04-10T12:04:33.837Z</time></trkpt><trkpt lat="44.9253328" lon="8.1695247"><ele>137.0</ele><time>2026-04-10T12:04:37.838Z</time></trkpt><trkpt lat="44.9253884" lon="8.1694581"><ele>137.0</ele><time>2026-04-10T12:06:15.838Z</time></trkpt><trkpt lat="44.9254493" lon="8.1693941"><ele>137.0</ele><time>2026-04-10T12:06:18.838Z</time></trkpt><trkpt lat="44.9255308" lon="8.1693171"><ele>137.0</ele><time>2026-04-10T12:06:21.839Z</time></trkpt><trkpt lat="44.9255958" lon="8.1692567"><ele>137.0</ele><time>2026-04-10T12:06:23.837Z</time></trkpt><trkpt lat="44.9256663" lon="8.1691912"><ele>137.0</ele><time>2026-04-10T12:06:25.839Z</time></trkpt><trkpt lat="44.9257434" lon="8.1691153"><ele>137.0</ele><time>2026-04-10T12:06:27.838Z</time></trkpt><trkpt lat="44.9258286" lon="8.1690475"><ele>137.0</ele><time>2026-04-10T12:06:29.837Z</time></trkpt><trkpt lat="44.9259179" lon="8.1689701"><ele>137.0</ele><time>2026-04-10T12:06:31.838Z</time></trkpt><trkpt lat="44.9260136" lon="8.1689017"><ele>137.0</ele><time>2026-04-10T12:06:33.838Z</time></trkpt><trkpt lat="44.9261086" lon="8.168825"><ele>137.0</ele><time>2026-04-10T12:06:35.839Z</time></trkpt><trkpt lat="44.9261993" lon="8.1687407"><ele>137.4</ele><time>2026-04-10T12:06:37.838Z</time></trkpt><trkpt lat="44.9262859" lon="8.1686534"><ele>137.79999999999998</ele><time>2026-04-10T12:06:39.837Z</time></trkpt><trkpt lat="44.9263845" lon="8.1685677"><ele>138.2</ele><time>2026-04-10T12:06:41.839Z</time></trkpt><trkpt lat="44.9264778" lon="8.1684757"><ele>138.6</ele><time>2026-04-10T12:06:43.838Z</time></trkpt><trkpt lat="44.9265712" lon="8.1683943"><ele>139.0</ele><time>2026-04-10T12:06:45.838Z</time></trkpt><trkpt lat="44.9266698" lon="8.1683086"><ele>139.5</ele><time>2026-04-10T12:06:47.838Z</time></trkpt><trkpt lat="44.9267666" lon="8.168221"><ele>140.0</ele><time>2026-04-10T12:06:49.838Z</time></trkpt><trkpt lat="44.9268665" lon="8.168137"><ele>140.5</ele><time>2026-04-10T12:06:51.837Z</time></trkpt><trkpt lat="44.9269666" lon="8.1680491"><ele>141.0</ele><time>2026-04-10T12:06:53.836Z</time></trkpt><trkpt lat="44.9270687" lon="8.1679646"><ele>141.0</ele><time>2026-04-10T12:06:55.837Z</time></trkpt><trkpt lat="44.9271644" lon="8.1678688"><ele>141.0</ele><time>2026-04-10T12:06:57.838Z</time></trkpt><trkpt lat="44.9272567" lon="8.1677769"><ele>141.0</ele><time>2026-04-10T12:06:59.837Z</time></trkpt><trkpt lat="44.9273515" lon="8.1676921"><ele>141.0</ele><time>2026-04-10T12:07:01.837Z</time></trkpt><trkpt lat="44.9274436" lon="8.1676081"><ele>141.0</ele><time>2026-04-10T12:07:03.837Z</time></trkpt><trkpt lat="44.9275289" lon="8.1675179"><ele>141.0</ele><time>2026-04-10T12:07:05.837Z</time></trkpt><trkpt lat="44.9276011" lon="8.1674443"><ele>141.0</ele><time>2026-04-10T12:07:07.837Z</time></trkpt><trkpt lat="44.9276611" lon="8.167413"><ele>141.0</ele><time>2026-04-10T12:07:09.838Z</time></trkpt><trkpt lat="44.9277191" lon="8.1674553"><ele>141.0</ele><time>2026-04-10T12:08:35.837Z</time></trkpt><trkpt lat="44.9277593" lon="8.1675303"><ele>141.0</ele><time>2026-04-10T12:08:37.837Z</time></trkpt><trkpt lat="44.9278062" lon="8.1676204"><ele>140.6</ele><time>2026-04-10T12:08:39.838Z</time></trkpt><trkpt lat="44.9278719" lon="8.16773"><ele>140.2</ele><time>2026-04-10T12:08:41.838Z</time></trkpt><trkpt lat="44.9279092" lon="8.1678143"><ele>139.8</ele><time>2026-04-10T12:08:43.838Z</time></trkpt><trkpt lat="44.927964" lon="8.1678847"><ele>139.4</ele><time>2026-04-10T12:08:45.838Z</time></trkpt><trkpt lat="44.9280308" lon="8.1680007"><ele>139.0</ele><time>2026-04-10T12:08:47.837Z</time></trkpt><trkpt lat="44.9280958" lon="8.1681138"><ele>138.6</ele><time>2026-04-10T12:08:49.839Z</time></trkpt><trkpt lat="44.9281631" lon="8.1682367"><ele>138.2</ele><time>2026-04-10T12:08:51.837Z</time></trkpt><trkpt lat="44.9282389" lon="8.1683456"><ele>137.79999999999998</ele><time>2026-04-10T12:08:53.838Z</time></trkpt><trkpt lat="44.9283136" lon="8.168458"><ele>137.4</ele><time>2026-04-10T12:08:55.838Z</time></trkpt><trkpt lat="44.9283794" lon="8.1685788"><ele>137.0</ele><time>2026-04-10T12:08:57.837Z</time></trkpt><trkpt lat="44.9284529" lon="8.1687193"><ele>137.0</ele><time>2026-04-10T12:08:59.838Z</time></trkpt><trkpt lat="44.9285356" lon="8.1688437"><ele>137.0</ele><time>2026-04-10T12:09:01.836Z</time></trkpt><trkpt lat="44.9286009" lon="8.1689742"><ele>137.0</ele><time>2026-04-10T12:09:03.838Z</time></trkpt><trkpt lat="44.9286685" lon="8.1690983"><ele>137.0</ele><time>2026-04-10T12:09:05.838Z</time></trkpt><trkpt lat="44.9287319" lon="8.1692162"><ele>137.0</ele><time>2026-04-10T12:09:07.836Z</time></trkpt><trkpt lat="44.9288002" lon="8.1693182"><ele>137.0</ele><time>2026-04-10T12:09:09.838Z</time></trkpt><trkpt lat="44.9288586" lon="8.1694228"><ele>137.0</ele><time>2026-04-10T12:09:11.838Z</time></trkpt><trkpt lat="44.9289174" lon="8.1695503"><ele>137.0</ele><time>2026-04-10T12:09:13.838Z</time></trkpt><trkpt lat="44.928984" lon="8.1696803"><ele>137.0</ele><time>2026-04-10T12:09:15.839Z</time></trkpt><trkpt lat="44.9290508" lon="8.1697995"><ele>136.5</ele><time>2026-04-10T12:09:17.836Z</time></trkpt><trkpt lat="44.9291131" lon="8.1699146"><ele>136.0</ele><time>2026-04-10T12:09:19.837Z</time></trkpt><trkpt lat="44.9291454" lon="8.170021"><ele>135.5</ele><time>2026-04-10T12:09:21.836Z</time></trkpt><trkpt lat="44.9291357" lon="8.1701229"><ele>135.0</ele><time>2026-04-10T12:09:23.838Z</time></trkpt><trkpt lat="44.9290932" lon="8.1702136"><ele>134.5</ele><time>2026-04-10T12:09:25.838Z</time></trkpt><trkpt lat="44.9290498" lon="8.1703086"><ele>134.0</ele><time>2026-04-10T12:09:27.837Z</time></trkpt><trkpt lat="44.9290113" lon="8.170409"><ele>134.0</ele><time>2026-04-10T12:09:29.838Z</time></trkpt><trkpt lat="44.9289694" lon="8.1705053"><ele>134.0</ele><time>2026-04-10T12:09:31.838Z</time></trkpt><trkpt lat="44.9290137" lon="8.1704183"><ele>134.0</ele><time>2026-04-10T12:09:39.837Z</time></trkpt><trkpt lat="44.9290439" lon="8.170329"><ele>134.0</ele><time>2026-04-10T12:09:41.836Z</time></trkpt><trkpt lat="44.9290904" lon="8.1702401"><ele>134.0</ele><time>2026-04-10T12:09:43.837Z</time></trkpt><trkpt lat="44.9291389" lon="8.1701438"><ele>134.0</ele><time>2026-04-10T12:09:45.839Z</time></trkpt><trkpt lat="44.9291942" lon="8.1700705"><ele>134.0</ele><time>2026-04-10T12:09:47.838Z</time></trkpt><trkpt lat="44.9292611" lon="8.1700908"><ele>134.0</ele><time>2026-04-10T12:09:49.838Z</time></trkpt><trkpt lat="44.9293129" lon="8.1701927"><ele>134.0</ele><time>2026-04-10T12:09:51.837Z</time></trkpt><trkpt lat="44.9293652" lon="8.1703042"><ele>134.0</ele><time>2026-04-10T12:09:53.837Z</time></trkpt><trkpt lat="44.9294224" lon="8.1704287"><ele>134.0</ele><time>2026-04-10T12:09:55.836Z</time></trkpt><trkpt lat="44.9294865" lon="8.1705362"><ele>134.0</ele><time>2026-04-10T12:09:57.837Z</time></trkpt><trkpt lat="44.9295457" lon="8.1706327"><ele>134.0</ele><time>2026-04-10T12:09:59.838Z</time></trkpt><trkpt lat="44.9296046" lon="8.1707457"><ele>134.0</ele><time>2026-04-10T12:10:01.837Z</time></trkpt><trkpt lat="44.9296647" lon="8.1708577"><ele>134.0</ele><time>2026-04-10T12:10:03.839Z</time></trkpt><trkpt lat="44.929729" lon="8.1709592"><ele>134.0</ele><time>2026-04-10T12:10:05.838Z</time></trkpt><trkpt lat="44.9297893" lon="8.1710691"><ele>134.33333333333331</ele><time>2026-04-10T12:10:07.836Z</time></trkpt><trkpt lat="44.9298523" lon="8.1711809"><ele>134.66666666666666</ele><time>2026-04-10T12:10:09.837Z</time></trkpt><trkpt lat="44.9299155" lon="8.1712765"><ele>135.0</ele><time>2026-04-10T12:10:11.838Z</time></trkpt><trkpt lat="44.9299694" lon="8.1713826"><ele>135.33333333333334</ele><time>2026-04-10T12:10:13.838Z</time></trkpt><trkpt lat="44.9299728" lon="8.171474"><ele>135.66666666666669</ele><time>2026-04-10T12:10:15.837Z</time></trkpt><trkpt lat="44.9299397" lon="8.1715742"><ele>136.0</ele><time>2026-04-10T12:10:20.839Z</time></trkpt><trkpt lat="44.929872" lon="8.1716249"><ele>136.7142857142857</ele><time>2026-04-10T12:10:24.837Z</time></trkpt><trkpt lat="44.929804" lon="8.1716553"><ele>137.42857142857142</ele><time>2026-04-10T12:10:28.837Z</time></trkpt><trkpt lat="44.9298067" lon="8.1717672"><ele>138.14285714285714</ele><time>2026-04-10T12:10:32.838Z</time></trkpt><trkpt lat="44.9298373" lon="8.1718471"><ele>138.85714285714283</ele><time>2026-04-10T12:10:35.836Z</time></trkpt><trkpt lat="44.929813" lon="8.171933"><ele>139.57142857142856</ele><time>2026-04-10T12:10:44.837Z</time></trkpt><trkpt lat="44.9297582" lon="8.1719823"><ele>140.28571428571428</ele><time>2026-04-10T12:11:02.839Z</time></trkpt><trkpt lat="44.9297047" lon="8.1720368"><ele>141.0</ele><time>2026-04-10T12:11:07.838Z</time></trkpt><trkpt lat="44.9297699" lon="8.1720119"><ele>141.0</ele><time>2026-04-10T12:11:16.839Z</time></trkpt><trkpt lat="44.9298102" lon="8.1719394"><ele>141.0</ele><time>2026-04-10T12:11:21.838Z</time></trkpt><trkpt lat="44.929837" lon="8.1718487"><ele>141.0</ele><time>2026-04-10T12:11:27.836Z</time></trkpt><trkpt lat="44.9297878" lon="8.1717869"><ele>141.0</ele><time>2026-04-10T12:11:31.837Z</time></trkpt><trkpt lat="44.9297195" lon="8.1717668"><ele>141.0</ele><time>2026-04-10T12:11:37.836Z</time></trkpt><trkpt lat="44.9296867" lon="8.1718488"><ele>141.0</ele><time>2026-04-10T12:11:43.837Z</time></trkpt><trkpt lat="44.9296403" lon="8.1719134"><ele>141.0</ele><time>2026-04-10T12:11:51.837Z</time></trkpt><trkpt lat="44.9295754" lon="8.1719158"><ele>141.0</ele><time>2026-04-10T12:12:08.837Z</time></trkpt><trkpt lat="44.9296475" lon="8.1719103"><ele>141.0</ele><time>2026-04-10T12:12:18.836Z</time></trkpt><trkpt lat="44.9296962" lon="8.1718496"><ele>141.0</ele><time>2026-04-10T12:12:21.837Z</time></trkpt><trkpt lat="44.9297461" lon="8.171759"><ele>141.0</ele><time>2026-04-10T12:12:25.838Z</time></trkpt><trkpt lat="44.9298059" lon="8.1716736"><ele>141.0</ele><time>2026-04-10T12:12:28.836Z</time></trkpt><trkpt lat="44.9298587" lon="8.1716193"><ele>141.0</ele><time>2026-04-10T12:12:30.836Z</time></trkpt><trkpt lat="44.9299258" lon="8.1715813"><ele>141.0</ele><time>2026-04-10T12:12:32.837Z</time></trkpt><trkpt lat="44.9299715" lon="8.1715172"><ele>140.16666666666666</ele><time>2026-04-10T12:12:34.839Z</time></trkpt><trkpt lat="44.9299612" lon="8.171396"><ele>139.33333333333334</ele><time>2026-04-10T12:12:36.837Z</time></trkpt><trkpt lat="44.9299036" lon="8.1712645"><ele>138.5</ele><time>2026-04-10T12:12:38.837Z</time></trkpt><trkpt lat="44.9298264" lon="8.171153"><ele>137.66666666666669</ele><time>2026-04-10T12:12:40.837Z</time></trkpt><trkpt lat="44.9297828" lon="8.171088"><ele>136.83333333333334</ele><time>2026-04-10T12:12:41.836Z</time></trkpt><trkpt lat="44.929741" lon="8.1710213"><ele>136.0</ele><time>2026-04-10T12:12:42.837Z</time></trkpt><trkpt lat="44.9296744" lon="8.1708847"><ele>135.99999999999997</ele><time>2026-04-10T12:12:44.836Z</time></trkpt><trkpt lat="44.9296358" lon="8.1708133"><ele>136.0</ele><time>2026-04-10T12:12:45.837Z</time></trkpt><trkpt lat="44.9295959" lon="8.1707412"><ele>136.0</ele><time>2026-04-10T12:12:46.837Z</time></trkpt><trkpt lat="44.9295597" lon="8.1706682"><ele>136.0</ele><time>2026-04-10T12:12:47.839Z</time></trkpt><trkpt lat="44.9295197" lon="8.1705938"><ele>136.0</ele><time>2026-04-10T12:12:48.838Z</time></trkpt><trkpt lat="44.9294786" lon="8.1705258"><ele>135.99999999999997</ele><time>2026-04-10T12:12:49.836Z</time></trkpt><trkpt lat="44.929407" lon="8.170395"><ele>136.0</ele><time>2026-04-10T12:12:51.837Z</time></trkpt><trkpt lat="44.9293319" lon="8.1702639"><ele>135.6</ele><time>2026-04-10T12:12:53.837Z</time></trkpt><trkpt lat="44.9292646" lon="8.1701407"><ele>135.2</ele><time>2026-04-10T12:12:55.837Z</time></trkpt><trkpt lat="44.9291824" lon="8.1700842"><ele>134.8</ele><time>2026-04-10T12:12:57.837Z</time></trkpt><trkpt lat="44.9291171" lon="8.1701949"><ele>134.4</ele><time>2026-04-10T12:12:59.837Z</time></trkpt><trkpt lat="44.9290684" lon="8.1703289"><ele>134.0</ele><time>2026-04-10T12:13:01.837Z</time></trkpt><trkpt lat="44.9290369" lon="8.1704098"><ele>134.0</ele><time>2026-04-10T12:13:02.836Z</time></trkpt><trkpt lat="44.9290055" lon="8.1704873"><ele>134.0</ele><time>2026-04-10T12:13:03.838Z</time></trkpt><trkpt lat="44.9289347" lon="8.1706328"><ele>134.0</ele><time>2026-04-10T12:13:05.837Z</time></trkpt><trkpt lat="44.9289024" lon="8.1707171"><ele>134.0</ele><time>2026-04-10T12:13:06.837Z</time></trkpt><trkpt lat="44.9288682" lon="8.1707945"><ele>134.0</ele><time>2026-04-10T12:13:07.837Z</time></trkpt><trkpt lat="44.9288375" lon="8.1708751"><ele>134.0</ele><time>2026-04-10T12:13:08.837Z</time></trkpt><trkpt lat="44.9287838" lon="8.1710235"><ele>134.0</ele><time>2026-04-10T12:13:10.837Z</time></trkpt><trkpt lat="44.9287275" lon="8.1711739"><ele>134.0</ele><time>2026-04-10T12:13:12.837Z</time></trkpt><trkpt lat="44.9286925" lon="8.1712519"><ele>134.0</ele><time>2026-04-10T12:13:13.837Z</time></trkpt><trkpt lat="44.9286625" lon="8.1713343"><ele>134.0</ele><time>2026-04-10T12:13:14.837Z</time></trkpt><trkpt lat="44.9286294" lon="8.1714103"><ele>134.0</ele><time>2026-04-10T12:13:15.838Z</time></trkpt><trkpt lat="44.9285715" lon="8.1715649"><ele>134.0</ele><time>2026-04-10T12:13:17.836Z</time></trkpt><trkpt lat="44.9285411" lon="8.1716446"><ele>134.0</ele><time>2026-04-10T12:13:18.837Z</time></trkpt><trkpt lat="44.928509" lon="8.1717217"><ele>134.0</ele><time>2026-04-10T12:13:19.837Z</time></trkpt><trkpt lat="44.9284755" lon="8.1718018"><ele>134.0</ele><time>2026-04-10T12:13:20.836Z</time></trkpt><trkpt lat="44.928415" lon="8.1719621"><ele>134.0</ele><time>2026-04-10T12:13:22.836Z</time></trkpt><trkpt lat="44.9283845" lon="8.1720433"><ele>134.0</ele><time>2026-04-10T12:13:23.837Z</time></trkpt><trkpt lat="44.9283193" lon="8.172195"><ele>134.0</ele><time>2026-04-10T12:13:25.839Z</time></trkpt><trkpt lat="44.9282914" lon="8.1722784"><ele>134.5</ele><time>2026-04-10T12:13:26.837Z</time></trkpt><trkpt lat="44.9282603" lon="8.1723613"><ele>135.0</ele><time>2026-04-10T12:13:27.837Z</time></trkpt><trkpt lat="44.9282306" lon="8.1724408"><ele>135.5</ele><time>2026-04-10T12:13:28.837Z</time></trkpt><trkpt lat="44.9281995" lon="8.1725219"><ele>136.0</ele><time>2026-04-10T12:13:29.836Z</time></trkpt><trkpt lat="44.9281689" lon="8.1726046"><ele>136.5</ele><time>2026-04-10T12:13:30.837Z</time></trkpt><trkpt lat="44.9280977" lon="8.1727545"><ele>137.0</ele><time>2026-04-10T12:13:32.837Z</time></trkpt><trkpt lat="44.9280635" lon="8.1728337"><ele>137.0</ele><time>2026-04-10T12:13:33.836Z</time></trkpt><trkpt lat="44.9279934" lon="8.1729696"><ele>137.0</ele><time>2026-04-10T12:13:35.837Z</time></trkpt><trkpt lat="44.9279058" lon="8.1730915"><ele>137.0</ele><time>2026-04-10T12:13:37.836Z</time></trkpt><trkpt lat="44.9278443" lon="8.1731404"><ele>137.0</ele><time>2026-04-10T12:13:38.838Z</time></trkpt><trkpt lat="44.9277842" lon="8.173177"><ele>137.0</ele><time>2026-04-10T12:13:39.837Z</time></trkpt><trkpt lat="44.9277184" lon="8.1731829"><ele>137.0</ele><time>2026-04-10T12:13:40.838Z</time></trkpt><trkpt lat="44.9276503" lon="8.1731608"><ele>137.00000000000003</ele><time>2026-04-10T12:13:41.837Z</time></trkpt><trkpt lat="44.9275891" lon="8.1731339"><ele>137.0</ele><time>2026-04-10T12:13:42.837Z</time></trkpt><trkpt lat="44.9275339" lon="8.1730868"><ele>137.0</ele><time>2026-04-10T12:13:43.837Z</time></trkpt><trkpt lat="44.9274727" lon="8.1730326"><ele>137.0</ele><time>2026-04-10T12:13:44.837Z</time></trkpt><trkpt lat="44.9274176" lon="8.1729716"><ele>137.0</ele><time>2026-04-10T12:13:45.836Z</time></trkpt><trkpt lat="44.927363" lon="8.1729265"><ele>137.00000000000003</ele><time>2026-04-10T12:13:46.837Z</time></trkpt><trkpt lat="44.9272991" lon="8.1728892"><ele>137.0</ele><time>2026-04-10T12:13:47.836Z</time></trkpt><trkpt lat="44.9272301" lon="8.1728887"><ele>136.83333333333331</ele><time>2026-04-10T12:13:48.837Z</time></trkpt><trkpt lat="44.9271589" lon="8.1729131"><ele>136.66666666666666</ele><time>2026-04-10T12:13:49.837Z</time></trkpt><trkpt lat="44.9270972" lon="8.1729635"><ele>136.5</ele><time>2026-04-10T12:13:50.838Z</time></trkpt><trkpt lat="44.9270383" lon="8.1730322"><ele>136.33333333333334</ele><time>2026-04-10T12:13:51.838Z</time></trkpt><trkpt lat="44.9269401" lon="8.1731537"><ele>136.16666666666669</ele><time>2026-04-10T12:13:53.837Z</time></trkpt><trkpt lat="44.9268855" lon="8.1732238"><ele>136.0</ele><time>2026-04-10T12:13:54.837Z</time></trkpt><trkpt lat="44.9268289" lon="8.1732913"><ele>135.99999999999997</ele><time>2026-04-10T12:13:55.838Z</time></trkpt><trkpt lat="44.9267883" lon="8.1733639"><ele>136.0</ele><time>2026-04-10T12:13:56.838Z</time></trkpt><trkpt lat="44.9267396" lon="8.1734355"><ele>136.0</ele><time>2026-04-10T12:13:57.838Z</time></trkpt><trkpt lat="44.9266909" lon="8.1735078"><ele>136.0</ele><time>2026-04-10T12:13:58.837Z</time></trkpt><trkpt lat="44.926646" lon="8.1735886"><ele>136.0</ele><time>2026-04-10T12:13:59.837Z</time></trkpt><trkpt lat="44.9265976" lon="8.1736574"><ele>135.99999999999997</ele><time>2026-04-10T12:14:00.837Z</time></trkpt><trkpt lat="44.9265464" lon="8.1737321"><ele>136.0</ele><time>2026-04-10T12:14:01.837Z</time></trkpt><trkpt lat="44.9265023" lon="8.1738072"><ele>136.0</ele><time>2026-04-10T12:14:02.837Z</time></trkpt><trkpt lat="44.9264577" lon="8.173884"><ele>136.0</ele><time>2026-04-10T12:14:03.837Z</time></trkpt><trkpt lat="44.9264053" lon="8.1739538"><ele>136.0</ele><time>2026-04-10T12:14:04.837Z</time></trkpt><trkpt lat="44.9263013" lon="8.1740696"><ele>136.0</ele><time>2026-04-10T12:14:06.837Z</time></trkpt><trkpt lat="44.9262421" lon="8.1741259"><ele>136.0</ele><time>2026-04-10T12:14:07.837Z</time></trkpt><trkpt lat="44.9261818" lon="8.1741772"><ele>136.0</ele><time>2026-04-10T12:14:08.837Z</time></trkpt><trkpt lat="44.9261171" lon="8.1742251"><ele>135.99999999999997</ele><time>2026-04-10T12:14:09.837Z</time></trkpt><trkpt lat="44.9260556" lon="8.174271"><ele>136.0</ele><time>2026-04-10T12:14:10.838Z</time></trkpt><trkpt lat="44.9259925" lon="8.1743166"><ele>136.0</ele><time>2026-04-10T12:14:11.837Z</time></trkpt><trkpt lat="44.92593" lon="8.174366"><ele>136.0</ele><time>2026-04-10T12:14:12.836Z</time></trkpt><trkpt lat="44.9258679" lon="8.1744113"><ele>136.0</ele><time>2026-04-10T12:14:13.837Z</time></trkpt><trkpt lat="44.9258111" lon="8.1744566"><ele>135.99999999999997</ele><time>2026-04-10T12:14:14.837Z</time></trkpt><trkpt lat="44.9257569" lon="8.174519"><ele>136.0</ele><time>2026-04-10T12:14:15.837Z</time></trkpt><trkpt lat="44.9257027" lon="8.1745798"><ele>135.7142857142857</ele><time>2026-04-10T12:14:16.837Z</time></trkpt><trkpt lat="44.9256572" lon="8.1746533"><ele>135.42857142857142</ele><time>2026-04-10T12:14:17.836Z</time></trkpt><trkpt lat="44.9256144" lon="8.1747279"><ele>135.14285714285714</ele><time>2026-04-10T12:14:18.837Z</time></trkpt><trkpt lat="44.9255729" lon="8.1748026"><ele>134.85714285714283</ele><time>2026-04-10T12:14:19.838Z</time></trkpt><trkpt lat="44.925533" lon="8.1748762"><ele>134.57142857142856</ele><time>2026-04-10T12:14:20.837Z</time></trkpt><trkpt lat="44.9254972" lon="8.1749532"><ele>134.28571428571428</ele><time>2026-04-10T12:14:21.836Z</time></trkpt><trkpt lat="44.9254649" lon="8.1750446"><ele>134.0</ele><time>2026-04-10T12:14:22.837Z</time></trkpt><trkpt lat="44.9254385" lon="8.1751325"><ele>134.0</ele><time>2026-04-10T12:14:23.837Z</time></trkpt><trkpt lat="44.9254101" lon="8.1752156"><ele>134.0</ele><time>2026-04-10T12:14:24.837Z</time></trkpt><trkpt lat="44.9253844" lon="8.1753001"><ele>134.0</ele><time>2026-04-10T12:14:25.837Z</time></trkpt><trkpt lat="44.9253647" lon="8.1753891"><ele>134.0</ele><time>2026-04-10T12:14:26.836Z</time></trkpt><trkpt lat="44.9253496" lon="8.1754832"><ele>134.0</ele><time>2026-04-10T12:14:27.837Z</time></trkpt><trkpt lat="44.9253362" lon="8.1755773"><ele>134.0</ele><time>2026-04-10T12:14:28.838Z</time></trkpt><trkpt lat="44.9253232" lon="8.175681"><ele>134.0</ele><time>2026-04-10T12:14:29.837Z</time></trkpt><trkpt lat="44.9253104" lon="8.1757702"><ele>134.16666666666666</ele><time>2026-04-10T12:14:30.836Z</time></trkpt><trkpt lat="44.9252992" lon="8.1758602"><ele>134.33333333333331</ele><time>2026-04-10T12:14:31.836Z</time></trkpt><trkpt lat="44.925289" lon="8.1759675"><ele>134.5</ele><time>2026-04-10T12:14:32.837Z</time></trkpt><trkpt lat="44.925264" lon="8.1760627"><ele>134.66666666666666</ele><time>2026-04-10T12:14:33.837Z</time></trkpt><trkpt lat="44.9252466" lon="8.176165"><ele>134.83333333333334</ele><time>2026-04-10T12:14:34.837Z</time></trkpt><trkpt lat="44.9252174" lon="8.1762529"><ele>135.0</ele><time>2026-04-10T12:14:35.837Z</time></trkpt><trkpt lat="44.9251576" lon="8.1764119"><ele>135.0</ele><time>2026-04-10T12:14:37.838Z</time></trkpt><trkpt lat="44.9251282" lon="8.1765068"><ele>135.0</ele><time>2026-04-10T12:14:38.838Z</time></trkpt><trkpt lat="44.9250853" lon="8.1765789"><ele>135.0</ele><time>2026-04-10T12:14:39.836Z</time></trkpt><trkpt lat="44.925048" lon="8.1766562"><ele>135.0</ele><time>2026-04-10T12:14:40.837Z</time></trkpt><trkpt lat="44.9250045" lon="8.1767286"><ele>135.0</ele><time>2026-04-10T12:14:41.836Z</time></trkpt><trkpt lat="44.9249646" lon="8.1768071"><ele>135.0</ele><time>2026-04-10T12:14:42.837Z</time></trkpt><trkpt lat="44.9249279" lon="8.1768865"><ele>135.0</ele><time>2026-04-10T12:14:43.836Z</time></trkpt><trkpt lat="44.9248796" lon="8.1769571"><ele>134.83333333333334</ele><time>2026-04-10T12:14:44.836Z</time></trkpt><trkpt lat="44.9248301" lon="8.1770183"><ele>134.66666666666666</ele><time>2026-04-10T12:14:45.838Z</time></trkpt><trkpt lat="44.9247771" lon="8.1770817"><ele>134.5</ele><time>2026-04-10T12:14:46.836Z</time></trkpt><trkpt lat="44.9247233" lon="8.1771516"><ele>134.33333333333331</ele><time>2026-04-10T12:14:47.837Z</time></trkpt><trkpt lat="44.9246609" lon="8.1772134"><ele>134.16666666666666</ele><time>2026-04-10T12:14:48.836Z</time></trkpt><trkpt lat="44.9246072" lon="8.1772725"><ele>134.0</ele><time>2026-04-10T12:14:49.838Z</time></trkpt><trkpt lat="44.9245011" lon="8.1773811"><ele>134.0</ele><time>2026-04-10T12:14:51.837Z</time></trkpt><trkpt lat="44.9244451" lon="8.177439"><ele>134.0</ele><time>2026-04-10T12:14:52.837Z</time></trkpt><trkpt lat="44.9243893" lon="8.1775036"><ele>134.0</ele><time>2026-04-10T12:14:53.837Z</time></trkpt><trkpt lat="44.924334" lon="8.1775626"><ele>134.0</ele><time>2026-04-10T12:14:54.837Z</time></trkpt><trkpt lat="44.9242765" lon="8.1776229"><ele>134.0</ele><time>2026-04-10T12:14:55.836Z</time></trkpt><trkpt lat="44.9241718" lon="8.1777392"><ele>134.0</ele><time>2026-04-10T12:14:57.836Z</time></trkpt><trkpt lat="44.9241113" lon="8.1778107"><ele>134.0</ele><time>2026-04-10T12:14:58.837Z</time></trkpt><trkpt lat="44.9240526" lon="8.1778776"><ele>134.0</ele><time>2026-04-10T12:14:59.836Z</time></trkpt><trkpt lat="44.9239952" lon="8.1779379"><ele>134.0</ele><time>2026-04-10T12:15:00.836Z</time></trkpt><trkpt lat="44.9239354" lon="8.1780039"><ele>134.0</ele><time>2026-04-10T12:15:01.836Z</time></trkpt><trkpt lat="44.9238785" lon="8.178071"><ele>134.0</ele><time>2026-04-10T12:15:02.837Z</time></trkpt><trkpt lat="44.9238124" lon="8.1781366"><ele>134.0</ele><time>2026-04-10T12:15:03.836Z</time></trkpt><trkpt lat="44.9237454" lon="8.1781968"><ele>134.0</ele><time>2026-04-10T12:15:04.838Z</time></trkpt><trkpt lat="44.923681" lon="8.178257"><ele>134.0</ele><time>2026-04-10T12:15:05.837Z</time></trkpt><trkpt lat="44.9236224" lon="8.1782974"><ele>134.0</ele><time>2026-04-10T12:15:06.837Z</time></trkpt><trkpt lat="44.9235507" lon="8.1783321"><ele>134.0</ele><time>2026-04-10T12:15:07.836Z</time></trkpt><trkpt lat="44.9234831" lon="8.1783619"><ele>134.0</ele><time>2026-04-10T12:15:08.837Z</time></trkpt><trkpt lat="44.9234115" lon="8.178406"><ele>134.0</ele><time>2026-04-10T12:15:09.837Z</time></trkpt><trkpt lat="44.9233404" lon="8.1784428"><ele>134.0</ele><time>2026-04-10T12:15:10.837Z</time></trkpt><trkpt lat="44.9232716" lon="8.1784813"><ele>134.0</ele><time>2026-04-10T12:15:11.837Z</time></trkpt><trkpt lat="44.9232041" lon="8.1785182"><ele>134.0</ele><time>2026-04-10T12:15:12.837Z</time></trkpt><trkpt lat="44.9231335" lon="8.1785599"><ele>134.0</ele><time>2026-04-10T12:15:13.837Z</time></trkpt><trkpt lat="44.9230653" lon="8.1785904"><ele>134.0</ele><time>2026-04-10T12:15:14.837Z</time></trkpt><trkpt lat="44.9229988" lon="8.1786253"><ele>134.0</ele><time>2026-04-10T12:15:15.837Z</time></trkpt><trkpt lat="44.9229355" lon="8.1786608"><ele>134.0</ele><time>2026-04-10T12:15:16.836Z</time></trkpt><trkpt lat="44.9228642" lon="8.1786963"><ele>134.0</ele><time>2026-04-10T12:15:17.836Z</time></trkpt><trkpt lat="44.9227979" lon="8.1787296"><ele>134.0</ele><time>2026-04-10T12:15:18.837Z</time></trkpt><trkpt lat="44.9227213" lon="8.1787587"><ele>134.0</ele><time>2026-04-10T12:15:19.837Z</time></trkpt><trkpt lat="44.9226483" lon="8.1787842"><ele>134.0</ele><time>2026-04-10T12:15:20.836Z</time></trkpt><trkpt lat="44.9225731" lon="8.1788045"><ele>134.0</ele><time>2026-04-10T12:15:21.836Z</time></trkpt><trkpt lat="44.9224994" lon="8.1788306"><ele>134.0</ele><time>2026-04-10T12:15:22.837Z</time></trkpt><trkpt lat="44.9224288" lon="8.1788493"><ele>134.0</ele><time>2026-04-10T12:15:23.836Z</time></trkpt><trkpt lat="44.9223559" lon="8.1788689"><ele>133.33333333333331</ele><time>2026-04-10T12:15:24.837Z</time></trkpt><trkpt lat="44.9222865" lon="8.1789019"><ele>132.66666666666666</ele><time>2026-04-10T12:15:25.836Z</time></trkpt><trkpt lat="44.9222168" lon="8.1789297"><ele>132.0</ele><time>2026-04-10T12:15:26.837Z</time></trkpt><trkpt lat="44.9221494" lon="8.1789654"><ele>131.33333333333334</ele><time>2026-04-10T12:15:27.837Z</time></trkpt><trkpt lat="44.9220736" lon="8.1789971"><ele>130.66666666666669</ele><time>2026-04-10T12:15:28.837Z</time></trkpt><trkpt lat="44.9220045" lon="8.1790313"><ele>130.0</ele><time>2026-04-10T12:15:29.838Z</time></trkpt><trkpt lat="44.9219315" lon="8.1790812"><ele>130.14285714285717</ele><time>2026-04-10T12:15:30.837Z</time></trkpt><trkpt lat="44.9218643" lon="8.1791282"><ele>130.28571428571428</ele><time>2026-04-10T12:15:31.837Z</time></trkpt><trkpt lat="44.9217942" lon="8.1791606"><ele>130.42857142857144</ele><time>2026-04-10T12:15:32.836Z</time></trkpt><trkpt lat="44.9217249" lon="8.179182"><ele>130.57142857142858</ele><time>2026-04-10T12:15:33.836Z</time></trkpt><trkpt lat="44.9216489" lon="8.1792092"><ele>130.71428571428572</ele><time>2026-04-10T12:15:34.837Z</time></trkpt><trkpt lat="44.9215768" lon="8.1792339"><ele>130.85714285714286</ele><time>2026-04-10T12:15:35.837Z</time></trkpt><trkpt lat="44.9215094" lon="8.1792775"><ele>131.0</ele><time>2026-04-10T12:15:36.837Z</time></trkpt><trkpt lat="44.9214294" lon="8.1793014"><ele>131.0</ele><time>2026-04-10T12:15:37.836Z</time></trkpt><trkpt lat="44.9213471" lon="8.1793295"><ele>131.0</ele><time>2026-04-10T12:15:38.836Z</time></trkpt><trkpt lat="44.9212705" lon="8.1793616"><ele>131.0</ele><time>2026-04-10T12:15:39.836Z</time></trkpt><trkpt lat="44.9211889" lon="8.1793981"><ele>131.0</ele><time>2026-04-10T12:15:40.837Z</time></trkpt><trkpt lat="44.921109" lon="8.1794319"><ele>131.0</ele><time>2026-04-10T12:15:41.836Z</time></trkpt><trkpt lat="44.9210333" lon="8.179476"><ele>131.0</ele><time>2026-04-10T12:15:42.836Z</time></trkpt><trkpt lat="44.920955" lon="8.1795135"><ele>130.66666666666666</ele><time>2026-04-10T12:15:43.837Z</time></trkpt><trkpt lat="44.9208851" lon="8.1795491"><ele>130.33333333333331</ele><time>2026-04-10T12:15:44.837Z</time></trkpt><trkpt lat="44.9208048" lon="8.1795848"><ele>130.0</ele><time>2026-04-10T12:15:45.836Z</time></trkpt><trkpt lat="44.9207279" lon="8.1796252"><ele>129.66666666666666</ele><time>2026-04-10T12:15:46.838Z</time></trkpt><trkpt lat="44.9206452" lon="8.1796598"><ele>129.33333333333334</ele><time>2026-04-10T12:15:47.837Z</time></trkpt><trkpt lat="44.9205679" lon="8.1796966"><ele>129.0</ele><time>2026-04-10T12:15:48.836Z</time></trkpt><trkpt lat="44.9204866" lon="8.1797295"><ele>129.0</ele><time>2026-04-10T12:15:49.837Z</time></trkpt><trkpt lat="44.9204022" lon="8.179767"><ele>129.0</ele><time>2026-04-10T12:15:50.837Z</time></trkpt><trkpt lat="44.9203214" lon="8.1797994"><ele>129.0</ele><time>2026-04-10T12:15:51.837Z</time></trkpt><trkpt lat="44.9202439" lon="8.1798316"><ele>129.0</ele><time>2026-04-10T12:15:52.837Z</time></trkpt><trkpt lat="44.920164" lon="8.1798626"><ele>129.0</ele><time>2026-04-10T12:15:53.837Z</time></trkpt><trkpt lat="44.9200865" lon="8.1798963"><ele>129.0</ele><time>2026-04-10T12:15:54.836Z</time></trkpt><trkpt lat="44.9200038" lon="8.1799405"><ele>129.5</ele><time>2026-04-10T12:15:55.836Z</time></trkpt><trkpt lat="44.9199296" lon="8.1799709"><ele>130.0</ele><time>2026-04-10T12:15:56.837Z</time></trkpt><trkpt lat="44.9198513" lon="8.1800047"><ele>130.5</ele><time>2026-04-10T12:15:57.837Z</time></trkpt><trkpt lat="44.9197776" lon="8.1800376"><ele>131.0</ele><time>2026-04-10T12:15:58.837Z</time></trkpt><trkpt lat="44.9196963" lon="8.180075"><ele>131.5</ele><time>2026-04-10T12:15:59.836Z</time></trkpt><trkpt lat="44.9196225" lon="8.1801071"><ele>132.0</ele><time>2026-04-10T12:16:00.836Z</time></trkpt><trkpt lat="44.9195452" lon="8.1801437"><ele>132.0</ele><time>2026-04-10T12:16:01.836Z</time></trkpt><trkpt lat="44.9194646" lon="8.1801876"><ele>132.0</ele><time>2026-04-10T12:16:02.838Z</time></trkpt><trkpt lat="44.9193922" lon="8.1802343"><ele>132.0</ele><time>2026-04-10T12:16:03.836Z</time></trkpt><trkpt lat="44.9193165" lon="8.1802797"><ele>132.0</ele><time>2026-04-10T12:16:04.837Z</time></trkpt><trkpt lat="44.9192421" lon="8.1803311"><ele>132.0</ele><time>2026-04-10T12:16:05.837Z</time></trkpt><trkpt lat="44.9191661" lon="8.1803757"><ele>132.0</ele><time>2026-04-10T12:16:06.836Z</time></trkpt><trkpt lat="44.9190827" lon="8.1804168"><ele>131.66666666666666</ele><time>2026-04-10T12:16:07.838Z</time></trkpt><trkpt lat="44.919005" lon="8.1804503"><ele>131.33333333333334</ele><time>2026-04-10T12:16:08.837Z</time></trkpt><trkpt lat="44.918928" lon="8.1804893"><ele>131.0</ele><time>2026-04-10T12:16:09.837Z</time></trkpt><trkpt lat="44.9188471" lon="8.1805386"><ele>130.66666666666669</ele><time>2026-04-10T12:16:10.836Z</time></trkpt><trkpt lat="44.9187697" lon="8.1805695"><ele>130.33333333333334</ele><time>2026-04-10T12:16:11.836Z</time></trkpt><trkpt lat="44.918688" lon="8.1806117"><ele>130.0</ele><time>2026-04-10T12:16:12.837Z</time></trkpt><trkpt lat="44.9186123" lon="8.1806534"><ele>130.16666666666669</ele><time>2026-04-10T12:16:13.837Z</time></trkpt><trkpt lat="44.9185301" lon="8.1806999"><ele>130.33333333333334</ele><time>2026-04-10T12:16:14.836Z</time></trkpt><trkpt lat="44.9184515" lon="8.1807428"><ele>130.5</ele><time>2026-04-10T12:16:15.836Z</time></trkpt><trkpt lat="44.9183716" lon="8.1807858"><ele>130.66666666666666</ele><time>2026-04-10T12:16:16.837Z</time></trkpt><trkpt lat="44.9182942" lon="8.1808262"><ele>130.83333333333331</ele><time>2026-04-10T12:16:17.836Z</time></trkpt><trkpt lat="44.9182114" lon="8.1808771"><ele>131.0</ele><time>2026-04-10T12:16:18.836Z</time></trkpt><trkpt lat="44.9181373" lon="8.1809145"><ele>131.0</ele><time>2026-04-10T12:16:19.836Z</time></trkpt><trkpt lat="44.9180623" lon="8.1809515"><ele>131.0</ele><time>2026-04-10T12:16:20.836Z</time></trkpt><trkpt lat="44.9179817" lon="8.1809925"><ele>131.0</ele><time>2026-04-10T12:16:21.837Z</time></trkpt><trkpt lat="44.9179067" lon="8.1810404"><ele>131.0</ele><time>2026-04-10T12:16:22.836Z</time></trkpt><trkpt lat="44.9178256" lon="8.1810822"><ele>131.0</ele><time>2026-04-10T12:16:23.836Z</time></trkpt><trkpt lat="44.9177491" lon="8.1811307"><ele>131.0</ele><time>2026-04-10T12:16:24.837Z</time></trkpt><trkpt lat="44.9176717" lon="8.1811814"><ele>131.0</ele><time>2026-04-10T12:16:25.837Z</time></trkpt><trkpt lat="44.9175965" lon="8.1812177"><ele>131.0</ele><time>2026-04-10T12:16:26.838Z</time></trkpt><trkpt lat="44.9175282" lon="8.1812649"><ele>131.0</ele><time>2026-04-10T12:16:27.836Z</time></trkpt><trkpt lat="44.9174537" lon="8.1813018"><ele>131.0</ele><time>2026-04-10T12:16:28.836Z</time></trkpt><trkpt lat="44.9173805" lon="8.181353"><ele>131.0</ele><time>2026-04-10T12:16:29.836Z</time></trkpt><trkpt lat="44.9173077" lon="8.1814053"><ele>131.0</ele><time>2026-04-10T12:16:30.836Z</time></trkpt><trkpt lat="44.9172306" lon="8.1814401"><ele>131.0</ele><time>2026-04-10T12:16:31.836Z</time></trkpt><trkpt lat="44.9171532" lon="8.1814869"><ele>131.0</ele><time>2026-04-10T12:16:32.837Z</time></trkpt><trkpt lat="44.917079" lon="8.1815279"><ele>131.0</ele><time>2026-04-10T12:16:33.837Z</time></trkpt><trkpt lat="44.9169939" lon="8.1815693"><ele>131.0</ele><time>2026-04-10T12:16:34.837Z</time></trkpt><trkpt lat="44.9169151" lon="8.1816032"><ele>131.0</ele><time>2026-04-10T12:16:35.836Z</time></trkpt><trkpt lat="44.9168366" lon="8.1816336"><ele>131.0</ele><time>2026-04-10T12:16:36.837Z</time></trkpt><trkpt lat="44.91676" lon="8.1816768"><ele>130.83333333333331</ele><time>2026-04-10T12:16:37.837Z</time></trkpt><trkpt lat="44.9166819" lon="8.181709"><ele>130.66666666666666</ele><time>2026-04-10T12:16:38.837Z</time></trkpt><trkpt lat="44.9166048" lon="8.181742"><ele>130.5</ele><time>2026-04-10T12:16:39.836Z</time></trkpt><trkpt lat="44.9165247" lon="8.1817798"><ele>130.33333333333334</ele><time>2026-04-10T12:16:40.838Z</time></trkpt><trkpt lat="44.9164497" lon="8.1818159"><ele>130.16666666666669</ele><time>2026-04-10T12:16:41.836Z</time></trkpt><trkpt lat="44.9163777" lon="8.1818521"><ele>130.0</ele><time>2026-04-10T12:16:42.836Z</time></trkpt><trkpt lat="44.9163105" lon="8.1818945"><ele>130.0</ele><time>2026-04-10T12:16:43.837Z</time></trkpt><trkpt lat="44.9162449" lon="8.1819207"><ele>130.0</ele><time>2026-04-10T12:16:44.836Z</time></trkpt><trkpt lat="44.9161719" lon="8.1819438"><ele>130.0</ele><time>2026-04-10T12:16:45.836Z</time></trkpt><trkpt lat="44.9160859" lon="8.1819735"><ele>130.0</ele><time>2026-04-10T12:16:46.836Z</time></trkpt><trkpt lat="44.916006" lon="8.1820138"><ele>130.0</ele><time>2026-04-10T12:16:47.837Z</time></trkpt><trkpt lat="44.9159243" lon="8.1820521"><ele>130.0</ele><time>2026-04-10T12:16:48.836Z</time></trkpt><trkpt lat="44.9158479" lon="8.1820673"><ele>129.83333333333334</ele><time>2026-04-10T12:16:49.837Z</time></trkpt><trkpt lat="44.9157679" lon="8.1820853"><ele>129.66666666666669</ele><time>2026-04-10T12:16:50.836Z</time></trkpt><trkpt lat="44.9156858" lon="8.1821175"><ele>129.5</ele><time>2026-04-10T12:16:51.835Z</time></trkpt><trkpt lat="44.9156075" lon="8.18215"><ele>129.33333333333334</ele><time>2026-04-10T12:16:52.837Z</time></trkpt><trkpt lat="44.9155266" lon="8.1821859"><ele>129.16666666666666</ele><time>2026-04-10T12:16:53.837Z</time></trkpt><trkpt lat="44.9154421" lon="8.1822132"><ele>129.0</ele><time>2026-04-10T12:16:54.837Z</time></trkpt><trkpt lat="44.9153597" lon="8.1822328"><ele>129.0</ele><time>2026-04-10T12:16:55.837Z</time></trkpt><trkpt lat="44.9152775" lon="8.1822586"><ele>129.0</ele><time>2026-04-10T12:16:56.836Z</time></trkpt><trkpt lat="44.9151949" lon="8.1822772"><ele>129.0</ele><time>2026-04-10T12:16:57.837Z</time></trkpt><trkpt lat="44.9151076" lon="8.1822986"><ele>129.0</ele><time>2026-04-10T12:16:58.837Z</time></trkpt><trkpt lat="44.9150253" lon="8.1823171"><ele>129.0</ele><time>2026-04-10T12:16:59.837Z</time></trkpt><trkpt lat="44.9149406" lon="8.18233"><ele>129.0</ele><time>2026-04-10T12:17:00.838Z</time></trkpt><trkpt lat="44.914855" lon="8.1823351"><ele>129.16666666666666</ele><time>2026-04-10T12:17:01.837Z</time></trkpt><trkpt lat="44.9147668" lon="8.1823262"><ele>129.33333333333334</ele><time>2026-04-10T12:17:02.837Z</time></trkpt><trkpt lat="44.9146809" lon="8.1823379"><ele>129.5</ele><time>2026-04-10T12:17:03.837Z</time></trkpt><trkpt lat="44.914602" lon="8.1823363"><ele>129.66666666666669</ele><time>2026-04-10T12:17:04.837Z</time></trkpt><trkpt lat="44.914516" lon="8.1823402"><ele>129.83333333333334</ele><time>2026-04-10T12:17:05.836Z</time></trkpt><trkpt lat="44.9144404" lon="8.1823411"><ele>130.0</ele><time>2026-04-10T12:17:06.837Z</time></trkpt><trkpt lat="44.9143633" lon="8.1823439"><ele>130.0</ele><time>2026-04-10T12:17:07.835Z</time></trkpt><trkpt lat="44.9142789" lon="8.1823313"><ele>130.0</ele><time>2026-04-10T12:17:08.838Z</time></trkpt><trkpt lat="44.9142054" lon="8.1823059"><ele>130.0</ele><time>2026-04-10T12:17:09.838Z</time></trkpt><trkpt lat="44.9141298" lon="8.1822889"><ele>130.0</ele><time>2026-04-10T12:17:10.837Z</time></trkpt><trkpt lat="44.9140555" lon="8.1822867"><ele>130.0</ele><time>2026-04-10T12:17:11.836Z</time></trkpt><trkpt lat="44.9139737" lon="8.1822732"><ele>130.0</ele><time>2026-04-10T12:17:12.838Z</time></trkpt><trkpt lat="44.913896" lon="8.1822513"><ele>129.66666666666669</ele><time>2026-04-10T12:17:13.837Z</time></trkpt><trkpt lat="44.9138211" lon="8.1822337"><ele>129.33333333333334</ele><time>2026-04-10T12:17:14.836Z</time></trkpt><trkpt lat="44.913743" lon="8.182216"><ele>129.0</ele><time>2026-04-10T12:17:15.837Z</time></trkpt><trkpt lat="44.9136651" lon="8.1821956"><ele>128.66666666666666</ele><time>2026-04-10T12:17:16.836Z</time></trkpt><trkpt lat="44.9135871" lon="8.182172"><ele>128.33333333333331</ele><time>2026-04-10T12:17:17.836Z</time></trkpt><trkpt lat="44.9135119" lon="8.1821519"><ele>128.0</ele><time>2026-04-10T12:17:18.837Z</time></trkpt><trkpt lat="44.9134351" lon="8.1821348"><ele>128.20000000000002</ele><time>2026-04-10T12:17:19.836Z</time></trkpt><trkpt lat="44.9133624" lon="8.1821174"><ele>128.4</ele><time>2026-04-10T12:17:20.837Z</time></trkpt><trkpt lat="44.9132829" lon="8.1820952"><ele>128.60000000000002</ele><time>2026-04-10T12:17:21.836Z</time></trkpt><trkpt lat="44.9131272" lon="8.182036"><ele>128.8</ele><time>2026-04-10T12:17:23.838Z</time></trkpt><trkpt lat="44.9130549" lon="8.1820122"><ele>129.0</ele><time>2026-04-10T12:17:24.837Z</time></trkpt><trkpt lat="44.9129799" lon="8.1820017"><ele>128.99999999999997</ele><time>2026-04-10T12:17:25.836Z</time></trkpt><trkpt lat="44.9129082" lon="8.1819774"><ele>129.0</ele><time>2026-04-10T12:17:26.838Z</time></trkpt><trkpt lat="44.9128429" lon="8.1819551"><ele>129.0</ele><time>2026-04-10T12:17:27.838Z</time></trkpt><trkpt lat="44.9127771" lon="8.1819381"><ele>129.0</ele><time>2026-04-10T12:17:28.837Z</time></trkpt><trkpt lat="44.9127016" lon="8.1819205"><ele>129.0</ele><time>2026-04-10T12:17:29.837Z</time></trkpt><trkpt lat="44.9126276" lon="8.1819069"><ele>128.99999999999997</ele><time>2026-04-10T12:17:30.838Z</time></trkpt><trkpt lat="44.9125506" lon="8.1818819"><ele>129.0</ele><time>2026-04-10T12:17:31.836Z</time></trkpt><trkpt lat="44.912479" lon="8.1818597"><ele>128.99999999999997</ele><time>2026-04-10T12:17:32.836Z</time></trkpt><trkpt lat="44.912406" lon="8.1818371"><ele>129.0</ele><time>2026-04-10T12:17:33.836Z</time></trkpt><trkpt lat="44.9123329" lon="8.1818223"><ele>129.0</ele><time>2026-04-10T12:17:34.836Z</time></trkpt><trkpt lat="44.9122618" lon="8.1818091"><ele>129.0</ele><time>2026-04-10T12:17:35.837Z</time></trkpt><trkpt lat="44.9121922" lon="8.1818172"><ele>129.0</ele><time>2026-04-10T12:17:36.837Z</time></trkpt><trkpt lat="44.9121134" lon="8.1818228"><ele>128.99999999999997</ele><time>2026-04-10T12:17:37.836Z</time></trkpt><trkpt lat="44.9120414" lon="8.1818217"><ele>129.0</ele><time>2026-04-10T12:17:38.836Z</time></trkpt><trkpt lat="44.9119628" lon="8.1818271"><ele>129.0</ele><time>2026-04-10T12:17:39.837Z</time></trkpt><trkpt lat="44.9118866" lon="8.1818337"><ele>129.0</ele><time>2026-04-10T12:17:40.836Z</time></trkpt><trkpt lat="44.9118132" lon="8.1818453"><ele>129.0</ele><time>2026-04-10T12:17:41.837Z</time></trkpt><trkpt lat="44.9117374" lon="8.1818566"><ele>129.0</ele><time>2026-04-10T12:17:42.836Z</time></trkpt><trkpt lat="44.9116619" lon="8.1818753"><ele>129.0</ele><time>2026-04-10T12:17:43.837Z</time></trkpt><trkpt lat="44.9115979" lon="8.1818984"><ele>129.0</ele><time>2026-04-10T12:17:44.836Z</time></trkpt><trkpt lat="44.9115141" lon="8.181924"><ele>129.5</ele><time>2026-04-10T12:17:45.836Z</time></trkpt><trkpt lat="44.9114401" lon="8.181949"><ele>130.0</ele><time>2026-04-10T12:17:46.837Z</time></trkpt><trkpt lat="44.9113054" lon="8.1820194"><ele>130.5</ele><time>2026-04-10T12:17:48.836Z</time></trkpt><trkpt lat="44.9112366" lon="8.1820628"><ele>131.0</ele><time>2026-04-10T12:17:49.837Z</time></trkpt><trkpt lat="44.9111734" lon="8.1821021"><ele>131.5</ele><time>2026-04-10T12:17:50.837Z</time></trkpt><trkpt lat="44.9111075" lon="8.1821359"><ele>132.0</ele><time>2026-04-10T12:17:51.837Z</time></trkpt><trkpt lat="44.911044" lon="8.1821848"><ele>132.0</ele><time>2026-04-10T12:17:52.835Z</time></trkpt><trkpt lat="44.9109824" lon="8.1822345"><ele>132.0</ele><time>2026-04-10T12:17:53.837Z</time></trkpt><trkpt lat="44.9108543" lon="8.1822934"><ele>132.0</ele><time>2026-04-10T12:17:55.836Z</time></trkpt><trkpt lat="44.9107869" lon="8.182337"><ele>132.0</ele><time>2026-04-10T12:17:56.836Z</time></trkpt><trkpt lat="44.9107244" lon="8.1823771"><ele>132.0</ele><time>2026-04-10T12:17:57.837Z</time></trkpt><trkpt lat="44.9106622" lon="8.1824125"><ele>132.0</ele><time>2026-04-10T12:17:58.837Z</time></trkpt><trkpt lat="44.9105982" lon="8.1824535"><ele>131.85714285714286</ele><time>2026-04-10T12:17:59.838Z</time></trkpt><trkpt lat="44.9105283" lon="8.1824837"><ele>131.71428571428572</ele><time>2026-04-10T12:18:00.836Z</time></trkpt><trkpt lat="44.910461" lon="8.1825195"><ele>131.57142857142858</ele><time>2026-04-10T12:18:01.838Z</time></trkpt><trkpt lat="44.910395" lon="8.1825511"><ele>131.42857142857144</ele><time>2026-04-10T12:18:02.837Z</time></trkpt><trkpt lat="44.9103284" lon="8.1825801"><ele>131.2857142857143</ele><time>2026-04-10T12:18:03.835Z</time></trkpt><trkpt lat="44.910259" lon="8.1826088"><ele>131.14285714285714</ele><time>2026-04-10T12:18:04.837Z</time></trkpt><trkpt lat="44.9101915" lon="8.1826407"><ele>131.0</ele><time>2026-04-10T12:18:05.836Z</time></trkpt><trkpt lat="44.9101225" lon="8.1826694"><ele>130.85714285714286</ele><time>2026-04-10T12:18:06.837Z</time></trkpt><trkpt lat="44.9100527" lon="8.1827046"><ele>130.71428571428572</ele><time>2026-04-10T12:18:07.837Z</time></trkpt><trkpt lat="44.9099813" lon="8.1827281"><ele>130.57142857142858</ele><time>2026-04-10T12:18:08.837Z</time></trkpt><trkpt lat="44.9099051" lon="8.1827517"><ele>130.42857142857144</ele><time>2026-04-10T12:18:09.837Z</time></trkpt><trkpt lat="44.9098389" lon="8.1827882"><ele>130.28571428571428</ele><time>2026-04-10T12:18:10.835Z</time></trkpt><trkpt lat="44.9097766" lon="8.1828175"><ele>130.14285714285717</ele><time>2026-04-10T12:18:11.836Z</time></trkpt><trkpt lat="44.9097093" lon="8.1828389"><ele>130.0</ele><time>2026-04-10T12:18:12.837Z</time></trkpt><trkpt lat="44.909642" lon="8.1828687"><ele>130.0</ele><time>2026-04-10T12:18:13.836Z</time></trkpt><trkpt lat="44.9095763" lon="8.1829014"><ele>130.0</ele><time>2026-04-10T12:18:14.836Z</time></trkpt><trkpt lat="44.9095044" lon="8.1829273"><ele>130.0</ele><time>2026-04-10T12:18:15.837Z</time></trkpt><trkpt lat="44.9094411" lon="8.1829503"><ele>130.0</ele><time>2026-04-10T12:18:16.836Z</time></trkpt><trkpt lat="44.909379" lon="8.1829766"><ele>130.0</ele><time>2026-04-10T12:18:17.836Z</time></trkpt><trkpt lat="44.9093206" lon="8.1830159"><ele>130.0</ele><time>2026-04-10T12:18:18.836Z</time></trkpt><trkpt lat="44.9092035" lon="8.1830632"><ele>130.0</ele><time>2026-04-10T12:18:20.836Z</time></trkpt><trkpt lat="44.9090919" lon="8.1831004"><ele>130.0</ele><time>2026-04-10T12:18:22.838Z</time></trkpt><trkpt lat="44.9090036" lon="8.1831285"><ele>130.0</ele><time>2026-04-10T12:18:24.836Z</time></trkpt><trkpt lat="44.9089385" lon="8.1831528"><ele>130.0</ele><time>2026-04-10T12:18:26.838Z</time></trkpt><trkpt lat="44.9088763" lon="8.1831302"><ele>130.0</ele><time>2026-04-10T12:18:29.837Z</time></trkpt><trkpt lat="44.9087985" lon="8.1832548"><ele>129.85714285714286</ele><time>2026-04-10T12:18:33.836Z</time></trkpt><trkpt lat="44.9088164" lon="8.1833555"><ele>129.71428571428572</ele><time>2026-04-10T12:18:35.836Z</time></trkpt><trkpt lat="44.9088587" lon="8.1834466"><ele>129.57142857142856</ele><time>2026-04-10T12:18:37.836Z</time></trkpt><trkpt lat="44.9088791" lon="8.183533"><ele>129.42857142857144</ele><time>2026-04-10T12:18:40.836Z</time></trkpt><trkpt lat="44.9089277" lon="8.1836362"><ele>129.28571428571428</ele><time>2026-04-10T12:18:50.835Z</time></trkpt><trkpt lat="44.908963" lon="8.183717"><ele>129.14285714285714</ele><time>2026-04-10T12:18:52.837Z</time></trkpt><trkpt lat="44.9090071" lon="8.1837983"><ele>129.0</ele><time>2026-04-10T12:18:54.837Z</time></trkpt><trkpt lat="44.9090597" lon="8.1838793"><ele>128.99999999999997</ele><time>2026-04-10T12:18:56.836Z</time></trkpt><trkpt lat="44.9091088" lon="8.1839577"><ele>129.0</ele><time>2026-04-10T12:18:58.836Z</time></trkpt><trkpt lat="44.9091561" lon="8.1840286"><ele>129.0</ele><time>2026-04-10T12:19:00.835Z</time></trkpt><trkpt lat="44.9092068" lon="8.1841055"><ele>129.0</ele><time>2026-04-10T12:19:02.837Z</time></trkpt><trkpt lat="44.9092561" lon="8.1841831"><ele>129.0</ele><time>2026-04-10T12:19:04.836Z</time></trkpt><trkpt lat="44.9092976" lon="8.1842651"><ele>128.99999999999997</ele><time>2026-04-10T12:19:06.837Z</time></trkpt><trkpt lat="44.9093264" lon="8.1843623"><ele>129.0</ele><time>2026-04-10T12:19:08.836Z</time></trkpt><trkpt lat="44.9093459" lon="8.1844652"><ele>129.6</ele><time>2026-04-10T12:19:10.838Z</time></trkpt><trkpt lat="44.9093476" lon="8.1845859"><ele>130.2</ele><time>2026-04-10T12:19:12.835Z</time></trkpt><trkpt lat="44.9093225" lon="8.1847025"><ele>130.79999999999998</ele><time>2026-04-10T12:19:14.836Z</time></trkpt><trkpt lat="44.9092643" lon="8.1848228"><ele>131.4</ele><time>2026-04-10T12:19:16.836Z</time></trkpt><trkpt lat="44.9092015" lon="8.1849538"><ele>132.0</ele><time>2026-04-10T12:19:18.835Z</time></trkpt><trkpt lat="44.9091463" lon="8.185081"><ele>132.6</ele><time>2026-04-10T12:19:20.836Z</time></trkpt><trkpt lat="44.9090915" lon="8.1852092"><ele>133.2</ele><time>2026-04-10T12:19:22.836Z</time></trkpt><trkpt lat="44.9090337" lon="8.185343"><ele>133.8</ele><time>2026-04-10T12:19:24.836Z</time></trkpt><trkpt lat="44.9089773" lon="8.1854814"><ele>134.4</ele><time>2026-04-10T12:19:26.835Z</time></trkpt><trkpt lat="44.9089402" lon="8.1855673"><ele>135.0</ele><time>2026-04-10T12:19:27.835Z</time></trkpt><trkpt lat="44.9088876" lon="8.1856916"><ele>135.8</ele><time>2026-04-10T12:19:29.835Z</time></trkpt><trkpt lat="44.9088387" lon="8.1858164"><ele>136.6</ele><time>2026-04-10T12:19:31.835Z</time></trkpt><trkpt lat="44.9088071" lon="8.1859638"><ele>137.4</ele><time>2026-04-10T12:19:33.835Z</time></trkpt><trkpt lat="44.9087991" lon="8.1861367"><ele>138.2</ele><time>2026-04-10T12:19:35.835Z</time></trkpt><trkpt lat="44.9087998" lon="8.1862985"><ele>139.0</ele><time>2026-04-10T12:19:37.837Z</time></trkpt><trkpt lat="44.9088098" lon="8.1864401"><ele>139.33333333333334</ele><time>2026-04-10T12:19:39.836Z</time></trkpt><trkpt lat="44.9088075" lon="8.1865743"><ele>139.66666666666669</ele><time>2026-04-10T12:19:41.835Z</time></trkpt><trkpt lat="44.9087999" lon="8.186688"><ele>140.0</ele><time>2026-04-10T12:19:43.837Z</time></trkpt><trkpt lat="44.9088006" lon="8.1868161"><ele>140.33333333333334</ele><time>2026-04-10T12:19:46.836Z</time></trkpt><trkpt lat="44.9088005" lon="8.1869268"><ele>140.66666666666666</ele><time>2026-04-10T12:19:49.837Z</time></trkpt><trkpt lat="44.9088349" lon="8.1870169"><ele>141.0</ele><time>2026-04-10T12:19:53.836Z</time></trkpt><trkpt lat="44.9088721" lon="8.1869273"><ele>141.0</ele><time>2026-04-10T12:19:56.837Z</time></trkpt><trkpt lat="44.9088645" lon="8.1868329"><ele>141.0</ele><time>2026-04-10T12:19:58.836Z</time></trkpt><trkpt lat="44.9088599" lon="8.1867327"><ele>141.0</ele><time>2026-04-10T12:20:00.836Z</time></trkpt><trkpt lat="44.9088609" lon="8.1866305"><ele>141.0</ele><time>2026-04-10T12:20:02.836Z</time></trkpt><trkpt lat="44.9088507" lon="8.1865093"><ele>141.0</ele><time>2026-04-10T12:20:05.838Z</time></trkpt><trkpt lat="44.9088459" lon="8.1863675"><ele>141.0</ele><time>2026-04-10T12:20:08.836Z</time></trkpt><trkpt lat="44.9088457" lon="8.1862527"><ele>140.6</ele><time>2026-04-10T12:20:10.836Z</time></trkpt><trkpt lat="44.9088588" lon="8.1861023"><ele>140.2</ele><time>2026-04-10T12:20:12.836Z</time></trkpt><trkpt lat="44.908889" lon="8.1859609"><ele>139.8</ele><time>2026-04-10T12:20:14.836Z</time></trkpt><trkpt lat="44.9089315" lon="8.1858005"><ele>139.4</ele><time>2026-04-10T12:20:16.836Z</time></trkpt><trkpt lat="44.9089796" lon="8.1856707"><ele>139.0</ele><time>2026-04-10T12:20:18.836Z</time></trkpt><trkpt lat="44.9090079" lon="8.1855897"><ele>139.0</ele><time>2026-04-10T12:20:19.837Z</time></trkpt><trkpt lat="44.9090685" lon="8.1854581"><ele>139.0</ele><time>2026-04-10T12:20:21.835Z</time></trkpt><trkpt lat="44.9091215" lon="8.1853116"><ele>139.0</ele><time>2026-04-10T12:20:23.837Z</time></trkpt><trkpt lat="44.9091508" lon="8.1852301"><ele>139.0</ele><time>2026-04-10T12:20:24.837Z</time></trkpt><trkpt lat="44.909217" lon="8.1850968"><ele>139.0</ele><time>2026-04-10T12:20:26.836Z</time></trkpt><trkpt lat="44.9092766" lon="8.1849524"><ele>137.6</ele><time>2026-04-10T12:20:28.837Z</time></trkpt><trkpt lat="44.9093419" lon="8.184813"><ele>136.2</ele><time>2026-04-10T12:20:30.836Z</time></trkpt><trkpt lat="44.9093927" lon="8.1846709"><ele>134.79999999999998</ele><time>2026-04-10T12:20:32.837Z</time></trkpt><trkpt lat="44.9094053" lon="8.1845798"><ele>133.4</ele><time>2026-04-10T12:20:33.837Z</time></trkpt><trkpt lat="44.9094145" lon="8.1844898"><ele>132.0</ele><time>2026-04-10T12:20:34.838Z</time></trkpt><trkpt lat="44.909399" lon="8.1843238"><ele>132.0</ele><time>2026-04-10T12:20:36.835Z</time></trkpt><trkpt lat="44.9093735" lon="8.1842375"><ele>132.0</ele><time>2026-04-10T12:20:37.837Z</time></trkpt><trkpt lat="44.9093153" lon="8.1841195"><ele>132.0</ele><time>2026-04-10T12:20:39.837Z</time></trkpt><trkpt lat="44.9092714" lon="8.184051"><ele>132.0</ele><time>2026-04-10T12:20:41.838Z</time></trkpt><trkpt lat="44.9092033" lon="8.1839624"><ele>132.0</ele><time>2026-04-10T12:20:44.836Z</time></trkpt><trkpt lat="44.9091567" lon="8.1838961"><ele>132.0</ele><time>2026-04-10T12:20:46.835Z</time></trkpt><trkpt lat="44.9090934" lon="8.1838726"><ele>131.5</ele><time>2026-04-10T12:20:50.836Z</time></trkpt><trkpt lat="44.9091251" lon="8.1839518"><ele>131.0</ele><time>2026-04-10T12:20:54.836Z</time></trkpt><trkpt lat="44.9090694" lon="8.1838842"><ele>130.5</ele><time>2026-04-10T12:21:06.836Z</time></trkpt><trkpt lat="44.909021" lon="8.1838013"><ele>130.0</ele><time>2026-04-10T12:21:08.836Z</time></trkpt><trkpt lat="44.9089574" lon="8.1837405"><ele>129.5</ele><time>2026-04-10T12:21:11.836Z</time></trkpt><trkpt lat="44.9089544" lon="8.1838577"><ele>129.0</ele><time>2026-04-10T12:21:14.837Z</time></trkpt><trkpt lat="44.9089994" lon="8.1839519"><ele>129.4</ele><time>2026-04-10T12:21:16.837Z</time></trkpt><trkpt lat="44.9090448" lon="8.1840734"><ele>129.8</ele><time>2026-04-10T12:21:18.836Z</time></trkpt><trkpt lat="44.9090874" lon="8.1841981"><ele>130.2</ele><time>2026-04-10T12:21:20.837Z</time></trkpt><trkpt lat="44.9091322" lon="8.1843237"><ele>130.6</ele><time>2026-04-10T12:21:22.837Z</time></trkpt><trkpt lat="44.90918" lon="8.1844563"><ele>131.0</ele><time>2026-04-10T12:21:24.837Z</time></trkpt><trkpt lat="44.9092365" lon="8.1845884"><ele>131.0</ele><time>2026-04-10T12:21:26.836Z</time></trkpt><trkpt lat="44.9092691" lon="8.1846894"><ele>131.0</ele><time>2026-04-10T12:21:28.836Z</time></trkpt><trkpt lat="44.9092297" lon="8.1847598"><ele>131.0</ele><time>2026-04-10T12:21:30.836Z</time></trkpt><trkpt lat="44.9091562" lon="8.1848066"><ele>131.0</ele><time>2026-04-10T12:21:32.836Z</time></trkpt><trkpt lat="44.9090868" lon="8.184858"><ele>131.0</ele><time>2026-04-10T12:21:34.835Z</time></trkpt><trkpt lat="44.9090372" lon="8.1849677"><ele>131.0</ele><time>2026-04-10T12:21:37.837Z</time></trkpt><trkpt lat="44.9089838" lon="8.1850406"><ele>131.8</ele><time>2026-04-10T12:21:39.838Z</time></trkpt><trkpt lat="44.9089034" lon="8.1851308"><ele>132.6</ele><time>2026-04-10T12:21:41.837Z</time></trkpt><trkpt lat="44.908824" lon="8.1852203"><ele>133.4</ele><time>2026-04-10T12:21:43.835Z</time></trkpt><trkpt lat="44.908738" lon="8.1853333"><ele>134.2</ele><time>2026-04-10T12:21:45.837Z</time></trkpt><trkpt lat="44.9086595" lon="8.1854454"><ele>135.0</ele><time>2026-04-10T12:21:47.837Z</time></trkpt><trkpt lat="44.908582" lon="8.1855593"><ele>135.0</ele><time>2026-04-10T12:21:49.837Z</time></trkpt><trkpt lat="44.9085079" lon="8.1856269"><ele>135.0</ele><time>2026-04-10T12:21:51.836Z</time></trkpt><trkpt lat="44.9084244" lon="8.1857121"><ele>135.0</ele><time>2026-04-10T12:21:53.837Z</time></trkpt><trkpt lat="44.9083536" lon="8.1857871"><ele>135.0</ele><time>2026-04-10T12:21:55.835Z</time></trkpt><trkpt lat="44.90825" lon="8.1858467"><ele>135.0</ele><time>2026-04-10T12:21:57.837Z</time></trkpt><trkpt lat="44.9081885" lon="8.1859402"><ele>134.8</ele><time>2026-04-10T12:21:59.838Z</time></trkpt><trkpt lat="44.9081898" lon="8.1860946"><ele>134.6</ele><time>2026-04-10T12:22:01.837Z</time></trkpt><trkpt lat="44.9081783" lon="8.1862386"><ele>134.4</ele><time>2026-04-10T12:22:03.838Z</time></trkpt><trkpt lat="44.9081662" lon="8.186401"><ele>134.2</ele><time>2026-04-10T12:22:05.836Z</time></trkpt><trkpt lat="44.908152" lon="8.1864881"><ele>134.0</ele><time>2026-04-10T12:22:06.837Z</time></trkpt><trkpt lat="44.9081188" lon="8.1866555"><ele>134.0</ele><time>2026-04-10T12:22:08.837Z</time></trkpt><trkpt lat="44.9081028" lon="8.1868045"><ele>134.0</ele><time>2026-04-10T12:22:10.836Z</time></trkpt><trkpt lat="44.9081341" lon="8.1869663"><ele>134.0</ele><time>2026-04-10T12:22:12.836Z</time></trkpt><trkpt lat="44.9081761" lon="8.1871172"><ele>134.0</ele><time>2026-04-10T12:22:14.837Z</time></trkpt><trkpt lat="44.9082158" lon="8.1872553"><ele>134.0</ele><time>2026-04-10T12:22:16.835Z</time></trkpt><trkpt lat="44.9082421" lon="8.1874143"><ele>134.0</ele><time>2026-04-10T12:22:18.836Z</time></trkpt><trkpt lat="44.9082743" lon="8.1875806"><ele>134.0</ele><time>2026-04-10T12:22:20.837Z</time></trkpt><trkpt lat="44.9083112" lon="8.1877229"><ele>134.0</ele><time>2026-04-10T12:22:22.836Z</time></trkpt><trkpt lat="44.9083055" lon="8.1878629"><ele>134.0</ele><time>2026-04-10T12:22:24.836Z</time></trkpt><trkpt lat="44.9083123" lon="8.1880217"><ele>134.0</ele><time>2026-04-10T12:22:26.837Z</time></trkpt><trkpt lat="44.9083166" lon="8.1881591"><ele>133.5</ele><time>2026-04-10T12:22:28.837Z</time></trkpt><trkpt lat="44.9083232" lon="8.1882842"><ele>133.0</ele><time>2026-04-10T12:22:30.835Z</time></trkpt><trkpt lat="44.9083007" lon="8.1883924"><ele>132.5</ele><time>2026-04-10T12:22:32.836Z</time></trkpt><trkpt lat="44.9082482" lon="8.1884635"><ele>132.0</ele><time>2026-04-10T12:22:34.837Z</time></trkpt><trkpt lat="44.908165" lon="8.1884673"><ele>131.5</ele><time>2026-04-10T12:22:36.836Z</time></trkpt><trkpt lat="44.9080775" lon="8.1884964"><ele>131.0</ele><time>2026-04-10T12:22:38.835Z</time></trkpt><trkpt lat="44.9079803" lon="8.1885253"><ele>131.0</ele><time>2026-04-10T12:22:40.836Z</time></trkpt><trkpt lat="44.9079059" lon="8.1885773"><ele>131.0</ele><time>2026-04-10T12:22:42.838Z</time></trkpt><trkpt lat="44.9078337" lon="8.188585"><ele>131.0</ele><time>2026-04-10T12:22:43.837Z</time></trkpt><trkpt lat="44.907727" lon="8.1886565"><ele>131.0</ele><time>2026-04-10T12:22:45.835Z</time></trkpt><trkpt lat="44.9076374" lon="8.188722"><ele>131.0</ele><time>2026-04-10T12:22:47.836Z</time></trkpt><trkpt lat="44.9075555" lon="8.1887936"><ele>131.16666666666666</ele><time>2026-04-10T12:22:49.837Z</time></trkpt><trkpt lat="44.907489" lon="8.1888032"><ele>131.33333333333331</ele><time>2026-04-10T12:22:50.835Z</time></trkpt><trkpt lat="44.9074124" lon="8.188827"><ele>131.5</ele><time>2026-04-10T12:22:52.835Z</time></trkpt><trkpt lat="44.9073394" lon="8.1888092"><ele>131.66666666666666</ele><time>2026-04-10T12:22:54.836Z</time></trkpt><trkpt lat="44.9072545" lon="8.1888646"><ele>131.83333333333334</ele><time>2026-04-10T12:23:31.836Z</time></trkpt><trkpt lat="44.9072197" lon="8.1889464"><ele>132.0</ele><time>2026-04-10T12:23:41.838Z</time></trkpt><trkpt lat="44.9071441" lon="8.1890072"><ele>132.0</ele><time>2026-04-10T12:26:58.836Z</time></trkpt><trkpt lat="44.907211" lon="8.189002"><ele>132.0</ele><time>2026-04-10T12:43:26.757Z</time></trkpt><trkpt lat="44.9072539" lon="8.1889167"><ele>132.0</ele><time>2026-04-10T12:43:34.833Z</time></trkpt><trkpt lat="44.9073314" lon="8.1889143"><ele>132.0</ele><time>2026-04-10T12:45:18.832Z</time></trkpt><trkpt lat="44.9073539" lon="8.1889994"><ele>132.0</ele><time>2026-04-10T12:45:25.833Z</time></trkpt><trkpt lat="44.9073688" lon="8.1890881"><ele>132.0</ele><time>2026-04-10T12:45:28.832Z</time></trkpt><trkpt lat="44.907461" lon="8.1891496"><ele>132.0</ele><time>2026-04-10T12:45:31.832Z</time></trkpt><trkpt lat="44.9074989" lon="8.1892544"><ele>132.0</ele><time>2026-04-10T12:45:33.832Z</time></trkpt><trkpt lat="44.9075224" lon="8.1893524"><ele>132.0</ele><time>2026-04-10T12:45:35.832Z</time></trkpt><trkpt lat="44.9075396" lon="8.1894684"><ele>132.0</ele><time>2026-04-10T12:45:37.832Z</time></trkpt><trkpt lat="44.9075602" lon="8.1895689"><ele>132.0</ele><time>2026-04-10T12:45:39.832Z</time></trkpt><trkpt lat="44.9075723" lon="8.1896777"><ele>132.0</ele><time>2026-04-10T12:45:41.833Z</time></trkpt><trkpt lat="44.9075804" lon="8.1898029"><ele>132.0</ele><time>2026-04-10T12:45:43.832Z</time></trkpt><trkpt lat="44.9075869" lon="8.1899143"><ele>132.0</ele><time>2026-04-10T12:45:45.833Z</time></trkpt><trkpt lat="44.9075842" lon="8.1900414"><ele>132.0</ele><time>2026-04-10T12:45:47.833Z</time></trkpt><trkpt lat="44.9075763" lon="8.1901784"><ele>132.0</ele><time>2026-04-10T12:45:49.832Z</time></trkpt><trkpt lat="44.9075708" lon="8.1903044"><ele>132.0</ele><time>2026-04-10T12:45:51.831Z</time></trkpt><trkpt lat="44.90755" lon="8.1904381"><ele>132.0</ele><time>2026-04-10T12:45:53.833Z</time></trkpt><trkpt lat="44.9075135" lon="8.1905456"><ele>131.79999999999998</ele><time>2026-04-10T12:45:55.833Z</time></trkpt><trkpt lat="44.9074772" lon="8.1906871"><ele>131.6</ele><time>2026-04-10T12:45:57.833Z</time></trkpt><trkpt lat="44.9073877" lon="8.1907769"><ele>131.39999999999998</ele><time>2026-04-10T12:45:59.833Z</time></trkpt><trkpt lat="44.9073319" lon="8.1908368"><ele>131.2</ele><time>2026-04-10T12:46:00.834Z</time></trkpt><trkpt lat="44.907257" lon="8.1909291"><ele>131.0</ele><time>2026-04-10T12:46:02.832Z</time></trkpt><trkpt lat="44.9072285" lon="8.1910643"><ele>131.0</ele><time>2026-04-10T12:46:04.834Z</time></trkpt><trkpt lat="44.9072214" lon="8.1912063"><ele>131.0</ele><time>2026-04-10T12:46:06.832Z</time></trkpt><trkpt lat="44.9071987" lon="8.1912928"><ele>131.0</ele><time>2026-04-10T12:46:07.831Z</time></trkpt><trkpt lat="44.9071535" lon="8.1914418"><ele>131.0</ele><time>2026-04-10T12:46:09.833Z</time></trkpt><trkpt lat="44.9070958" lon="8.191534"><ele>131.0</ele><time>2026-04-10T12:46:11.833Z</time></trkpt><trkpt lat="44.9070415" lon="8.191672"><ele>130.5</ele><time>2026-04-10T12:46:13.832Z</time></trkpt><trkpt lat="44.9069863" lon="8.1918282"><ele>130.0</ele><time>2026-04-10T12:46:15.832Z</time></trkpt><trkpt lat="44.9069259" lon="8.1919701"><ele>129.5</ele><time>2026-04-10T12:46:17.834Z</time></trkpt><trkpt lat="44.9068641" lon="8.1920961"><ele>129.0</ele><time>2026-04-10T12:46:19.832Z</time></trkpt><trkpt lat="44.9068119" lon="8.1922249"><ele>129.0</ele><time>2026-04-10T12:46:21.832Z</time></trkpt><trkpt lat="44.9067665" lon="8.1923809"><ele>129.0</ele><time>2026-04-10T12:46:23.832Z</time></trkpt><trkpt lat="44.9067096" lon="8.1925209"><ele>129.0</ele><time>2026-04-10T12:46:25.833Z</time></trkpt><trkpt lat="44.906689" lon="8.1926219"><ele>129.0</ele><time>2026-04-10T12:46:26.833Z</time></trkpt><trkpt lat="44.9066174" lon="8.1926998"><ele>129.0</ele><time>2026-04-10T12:46:28.832Z</time></trkpt><trkpt lat="44.9065457" lon="8.1928234"><ele>129.5</ele><time>2026-04-10T12:46:30.833Z</time></trkpt><trkpt lat="44.9064789" lon="8.1929503"><ele>130.0</ele><time>2026-04-10T12:46:32.832Z</time></trkpt><trkpt lat="44.9064234" lon="8.1931007"><ele>130.5</ele><time>2026-04-10T12:46:34.833Z</time></trkpt><trkpt lat="44.9063646" lon="8.1932247"><ele>131.0</ele><time>2026-04-10T12:46:36.833Z</time></trkpt><trkpt lat="44.9062968" lon="8.1933588"><ele>131.66666666666666</ele><time>2026-04-10T12:46:38.831Z</time></trkpt><trkpt lat="44.9062594" lon="8.1934309"><ele>132.33333333333331</ele><time>2026-04-10T12:46:39.833Z</time></trkpt><trkpt lat="44.9062179" lon="8.1935398"><ele>133.0</ele><time>2026-04-10T12:46:41.832Z</time></trkpt><trkpt lat="44.9061678" lon="8.193672"><ele>133.66666666666666</ele><time>2026-04-10T12:46:43.833Z</time></trkpt><trkpt lat="44.9061163" lon="8.1937886"><ele>134.33333333333334</ele><time>2026-04-10T12:46:45.831Z</time></trkpt><trkpt lat="44.9060892" lon="8.1938705"><ele>135.0</ele><time>2026-04-10T12:46:46.833Z</time></trkpt><trkpt lat="44.9060237" lon="8.193974"><ele>135.57142857142856</ele><time>2026-04-10T12:46:48.832Z</time></trkpt><trkpt lat="44.9059771" lon="8.1940557"><ele>136.14285714285714</ele><time>2026-04-10T12:46:50.833Z</time></trkpt><trkpt lat="44.9059449" lon="8.1941324"><ele>136.71428571428572</ele><time>2026-04-10T12:46:52.832Z</time></trkpt><trkpt lat="44.9059038" lon="8.1942006"><ele>137.28571428571428</ele><time>2026-04-10T12:46:54.832Z</time></trkpt><trkpt lat="44.9058514" lon="8.1943087"><ele>137.85714285714286</ele><time>2026-04-10T12:46:57.832Z</time></trkpt><trkpt lat="44.9058166" lon="8.1943895"><ele>138.42857142857142</ele><time>2026-04-10T12:46:59.832Z</time></trkpt><trkpt lat="44.9057796" lon="8.1944813"><ele>139.0</ele><time>2026-04-10T12:47:01.832Z</time></trkpt><trkpt lat="44.9057451" lon="8.194562"><ele>139.16666666666669</ele><time>2026-04-10T12:47:03.834Z</time></trkpt><trkpt lat="44.9056874" lon="8.1946631"><ele>139.33333333333334</ele><time>2026-04-10T12:47:06.834Z</time></trkpt><trkpt lat="44.9056416" lon="8.1947783"><ele>139.5</ele><time>2026-04-10T12:47:09.833Z</time></trkpt><trkpt lat="44.9056282" lon="8.1948785"><ele>139.66666666666666</ele><time>2026-04-10T12:47:11.833Z</time></trkpt><trkpt lat="44.9055888" lon="8.194979"><ele>139.83333333333331</ele><time>2026-04-10T12:47:13.833Z</time></trkpt><trkpt lat="44.9055433" lon="8.1950599"><ele>140.0</ele><time>2026-04-10T12:47:15.833Z</time></trkpt><trkpt lat="44.9054986" lon="8.19514"><ele>140.5</ele><time>2026-04-10T12:47:17.833Z</time></trkpt><trkpt lat="44.9054596" lon="8.1952338"><ele>141.0</ele><time>2026-04-10T12:47:19.833Z</time></trkpt><trkpt lat="44.9054221" lon="8.1953166"><ele>141.5</ele><time>2026-04-10T12:47:21.832Z</time></trkpt><trkpt lat="44.9053724" lon="8.195397"><ele>142.0</ele><time>2026-04-10T12:47:23.833Z</time></trkpt><trkpt lat="44.9053233" lon="8.1954886"><ele>142.5</ele><time>2026-04-10T12:47:25.833Z</time></trkpt><trkpt lat="44.9052841" lon="8.1956333"><ele>143.0</ele><time>2026-04-10T12:47:27.832Z</time></trkpt><trkpt lat="44.9052578" lon="8.1957391"><ele>143.5</ele><time>2026-04-10T12:47:29.834Z</time></trkpt><trkpt lat="44.9052272" lon="8.1958209"><ele>144.0</ele><time>2026-04-10T12:47:31.832Z</time></trkpt><trkpt lat="44.9051844" lon="8.1959302"><ele>144.5</ele><time>2026-04-10T12:47:33.832Z</time></trkpt><trkpt lat="44.9051495" lon="8.1960461"><ele>145.0</ele><time>2026-04-10T12:47:35.832Z</time></trkpt><trkpt lat="44.9051215" lon="8.1961454"><ele>145.5</ele><time>2026-04-10T12:47:37.833Z</time></trkpt><trkpt lat="44.9050972" lon="8.1962331"><ele>146.0</ele><time>2026-04-10T12:47:39.833Z</time></trkpt><trkpt lat="44.9050832" lon="8.1963365"><ele>146.0</ele><time>2026-04-10T12:47:40.832Z</time></trkpt><trkpt lat="44.9050391" lon="8.1964088"><ele>146.0</ele><time>2026-04-10T12:47:43.832Z</time></trkpt><trkpt lat="44.9049997" lon="8.196497"><ele>146.0</ele><time>2026-04-10T12:47:46.833Z</time></trkpt><trkpt lat="44.9049588" lon="8.1966053"><ele>146.0</ele><time>2026-04-10T12:47:49.832Z</time></trkpt><trkpt lat="44.9049474" lon="8.196702"><ele>146.0</ele><time>2026-04-10T12:47:51.833Z</time></trkpt><trkpt lat="44.9049556" lon="8.196792"><ele>146.0</ele><time>2026-04-10T12:47:53.833Z</time></trkpt><trkpt lat="44.9049292" lon="8.196918"><ele>146.0</ele><time>2026-04-10T12:47:56.831Z</time></trkpt><trkpt lat="44.9048913" lon="8.1970314"><ele>146.0</ele><time>2026-04-10T12:47:59.832Z</time></trkpt><trkpt lat="44.904869" lon="8.1971169"><ele>146.0</ele><time>2026-04-10T12:48:01.832Z</time></trkpt><trkpt lat="44.9048474" lon="8.1972053"><ele>146.0</ele><time>2026-04-10T12:48:03.832Z</time></trkpt><trkpt lat="44.9048101" lon="8.1973258"><ele>146.0</ele><time>2026-04-10T12:48:06.832Z</time></trkpt><trkpt lat="44.9047834" lon="8.1974437"><ele>146.0</ele><time>2026-04-10T12:48:09.832Z</time></trkpt><trkpt lat="44.90476" lon="8.1975338"><ele>146.14285714285714</ele><time>2026-04-10T12:48:11.832Z</time></trkpt><trkpt lat="44.9047419" lon="8.1976275"><ele>146.28571428571428</ele><time>2026-04-10T12:48:13.831Z</time></trkpt><trkpt lat="44.9047164" lon="8.1977244"><ele>146.42857142857144</ele><time>2026-04-10T12:48:15.831Z</time></trkpt><trkpt lat="44.9046886" lon="8.1978099"><ele>146.57142857142856</ele><time>2026-04-10T12:48:17.832Z</time></trkpt><trkpt lat="44.9046585" lon="8.1979268"><ele>146.71428571428572</ele><time>2026-04-10T12:48:20.832Z</time></trkpt><trkpt lat="44.9046338" lon="8.1980223"><ele>146.85714285714286</ele><time>2026-04-10T12:48:22.832Z</time></trkpt><trkpt lat="44.9046046" lon="8.1981119"><ele>147.0</ele><time>2026-04-10T12:48:24.832Z</time></trkpt><trkpt lat="44.9045773" lon="8.1982003"><ele>147.66666666666666</ele><time>2026-04-10T12:48:26.831Z</time></trkpt><trkpt lat="44.904548" lon="8.1982901"><ele>148.33333333333334</ele><time>2026-04-10T12:48:28.832Z</time></trkpt><trkpt lat="44.9045122" lon="8.1983784"><ele>149.0</ele><time>2026-04-10T12:48:30.833Z</time></trkpt><trkpt lat="44.9044675" lon="8.1984659"><ele>149.66666666666669</ele><time>2026-04-10T12:48:32.833Z</time></trkpt><trkpt lat="44.9044259" lon="8.1985402"><ele>150.33333333333334</ele><time>2026-04-10T12:48:34.833Z</time></trkpt><trkpt lat="44.9043719" lon="8.1986255"><ele>151.0</ele><time>2026-04-10T12:48:36.831Z</time></trkpt><trkpt lat="44.9042977" lon="8.1986893"><ele>150.8</ele><time>2026-04-10T12:48:38.831Z</time></trkpt><trkpt lat="44.9042324" lon="8.198787"><ele>150.6</ele><time>2026-04-10T12:48:40.831Z</time></trkpt><trkpt lat="44.9041573" lon="8.1988818"><ele>150.4</ele><time>2026-04-10T12:48:42.831Z</time></trkpt><trkpt lat="44.9040844" lon="8.1989491"><ele>150.2</ele><time>2026-04-10T12:48:44.831Z</time></trkpt><trkpt lat="44.9040096" lon="8.1989992"><ele>150.0</ele><time>2026-04-10T12:48:46.831Z</time></trkpt><trkpt lat="44.9039186" lon="8.19904"><ele>150.0</ele><time>2026-04-10T12:48:48.833Z</time></trkpt><trkpt lat="44.9038349" lon="8.1991038"><ele>150.0</ele><time>2026-04-10T12:48:50.832Z</time></trkpt><trkpt lat="44.903777" lon="8.1991945"><ele>150.0</ele><time>2026-04-10T12:48:52.83Z</time></trkpt><trkpt lat="44.9036984" lon="8.1992861"><ele>150.0</ele><time>2026-04-10T12:48:54.831Z</time></trkpt><trkpt lat="44.9036128" lon="8.1993609"><ele>150.0</ele><time>2026-04-10T12:48:56.832Z</time></trkpt><trkpt lat="44.9035223" lon="8.1994154"><ele>150.0</ele><time>2026-04-10T12:48:58.832Z</time></trkpt><trkpt lat="44.9034341" lon="8.1994838"><ele>150.0</ele><time>2026-04-10T12:49:00.831Z</time></trkpt><trkpt lat="44.903332" lon="8.1995433"><ele>150.0</ele><time>2026-04-10T12:49:02.832Z</time></trkpt><trkpt lat="44.9032117" lon="8.1995706"><ele>150.0</ele><time>2026-04-10T12:49:04.831Z</time></trkpt><trkpt lat="44.9031507" lon="8.1996111"><ele>150.0</ele><time>2026-04-10T12:49:05.831Z</time></trkpt><trkpt lat="44.9030923" lon="8.1996503"><ele>150.0</ele><time>2026-04-10T12:49:06.83Z</time></trkpt><trkpt lat="44.9029675" lon="8.1997191"><ele>150.0</ele><time>2026-04-10T12:49:08.833Z</time></trkpt><trkpt lat="44.9028593" lon="8.1997741"><ele>150.0</ele><time>2026-04-10T12:49:10.832Z</time></trkpt><trkpt lat="44.9027631" lon="8.199815"><ele>150.0</ele><time>2026-04-10T12:49:12.83Z</time></trkpt><trkpt lat="44.9026371" lon="8.1998383"><ele>148.2</ele><time>2026-04-10T12:49:14.83Z</time></trkpt><trkpt lat="44.9025303" lon="8.1998691"><ele>146.4</ele><time>2026-04-10T12:49:16.833Z</time></trkpt><trkpt lat="44.9024686" lon="8.1998942"><ele>144.6</ele><time>2026-04-10T12:49:17.834Z</time></trkpt><trkpt lat="44.9023555" lon="8.1999227"><ele>142.8</ele><time>2026-04-10T12:49:19.831Z</time></trkpt><trkpt lat="44.9022135" lon="8.1999526"><ele>141.0</ele><time>2026-04-10T12:49:21.831Z</time></trkpt><trkpt lat="44.9021348" lon="8.1999776"><ele>141.0</ele><time>2026-04-10T12:49:22.833Z</time></trkpt><trkpt lat="44.9020107" lon="8.2000146"><ele>141.0</ele><time>2026-04-10T12:49:24.83Z</time></trkpt><trkpt lat="44.9018997" lon="8.200045"><ele>141.0</ele><time>2026-04-10T12:49:26.832Z</time></trkpt><trkpt lat="44.90178" lon="8.2000168"><ele>141.0</ele><time>2026-04-10T12:49:28.831Z</time></trkpt><trkpt lat="44.9016951" lon="8.2000142"><ele>141.0</ele><time>2026-04-10T12:49:30.831Z</time></trkpt><trkpt lat="44.9016458" lon="8.1999141"><ele>140.5</ele><time>2026-04-10T12:49:33.832Z</time></trkpt><trkpt lat="44.901624" lon="8.1998253"><ele>140.0</ele><time>2026-04-10T12:49:35.832Z</time></trkpt><trkpt lat="44.9015822" lon="8.1997488"><ele>139.5</ele><time>2026-04-10T12:49:39.832Z</time></trkpt><trkpt lat="44.9015509" lon="8.1996305"><ele>139.0</ele><time>2026-04-10T12:49:41.832Z</time></trkpt><trkpt lat="44.9015292" lon="8.199512"><ele>138.5</ele><time>2026-04-10T12:49:43.832Z</time></trkpt><trkpt lat="44.9014985" lon="8.1993901"><ele>138.0</ele><time>2026-04-10T12:49:45.831Z</time></trkpt><trkpt lat="44.9014766" lon="8.1992701"><ele>138.0</ele><time>2026-04-10T12:49:47.83Z</time></trkpt><trkpt lat="44.9014499" lon="8.1991456"><ele>138.0</ele><time>2026-04-10T12:49:49.831Z</time></trkpt><trkpt lat="44.9014352" lon="8.1990263"><ele>138.0</ele><time>2026-04-10T12:49:51.831Z</time></trkpt><trkpt lat="44.9014291" lon="8.1989181"><ele>138.0</ele><time>2026-04-10T12:49:53.831Z</time></trkpt><trkpt lat="44.9014359" lon="8.1988165"><ele>138.0</ele><time>2026-04-10T12:49:56.831Z</time></trkpt><trkpt lat="44.9014342" lon="8.1986868"><ele>138.0</ele><time>2026-04-10T12:50:00.83Z</time></trkpt><trkpt lat="44.9014259" lon="8.1985935"><ele>138.33333333333334</ele><time>2026-04-10T12:50:02.831Z</time></trkpt><trkpt lat="44.9014031" lon="8.1984995"><ele>138.66666666666666</ele><time>2026-04-10T12:50:04.831Z</time></trkpt><trkpt lat="44.9013833" lon="8.1984054"><ele>139.0</ele><time>2026-04-10T12:50:06.83Z</time></trkpt><trkpt lat="44.9013636" lon="8.1982813"><ele>139.33333333333331</ele><time>2026-04-10T12:50:09.83Z</time></trkpt><trkpt lat="44.901357" lon="8.1981921"><ele>139.66666666666666</ele><time>2026-04-10T12:50:11.832Z</time></trkpt><trkpt lat="44.901348" lon="8.1980777"><ele>140.0</ele><time>2026-04-10T12:50:13.831Z</time></trkpt><trkpt lat="44.9013384" lon="8.1979514"><ele>140.33333333333331</ele><time>2026-04-10T12:50:15.831Z</time></trkpt><trkpt lat="44.9013217" lon="8.1978192"><ele>140.66666666666666</ele><time>2026-04-10T12:50:17.831Z</time></trkpt><trkpt lat="44.9013038" lon="8.197697"><ele>141.0</ele><time>2026-04-10T12:50:19.832Z</time></trkpt><trkpt lat="44.9012891" lon="8.197581"><ele>141.33333333333334</ele><time>2026-04-10T12:50:21.83Z</time></trkpt><trkpt lat="44.9012729" lon="8.1974718"><ele>141.66666666666669</ele><time>2026-04-10T12:50:23.831Z</time></trkpt><trkpt lat="44.9012568" lon="8.1973764"><ele>142.0</ele><time>2026-04-10T12:50:25.831Z</time></trkpt><trkpt lat="44.9012349" lon="8.1972779"><ele>142.25</ele><time>2026-04-10T12:50:27.83Z</time></trkpt><trkpt lat="44.9012005" lon="8.19719"><ele>142.5</ele><time>2026-04-10T12:50:29.83Z</time></trkpt><trkpt lat="44.9011636" lon="8.197105"><ele>142.75</ele><time>2026-04-10T12:50:31.831Z</time></trkpt><trkpt lat="44.9009865" lon="8.1968539"><ele>143.0</ele><time>2026-04-10T12:50:38.831Z</time></trkpt><trkpt lat="44.9009169" lon="8.1968403"><ele>142.7142857142857</ele><time>2026-04-10T12:50:40.831Z</time></trkpt><trkpt lat="44.9008602" lon="8.1969044"><ele>142.42857142857142</ele><time>2026-04-10T12:50:42.831Z</time></trkpt><trkpt lat="44.9008119" lon="8.1970389"><ele>142.14285714285714</ele><time>2026-04-10T12:50:43.831Z</time></trkpt><trkpt lat="44.9007741" lon="8.1971143"><ele>141.85714285714283</ele><time>2026-04-10T12:50:44.831Z</time></trkpt><trkpt lat="44.9007172" lon="8.1971554"><ele>141.57142857142856</ele><time>2026-04-10T12:50:45.832Z</time></trkpt><trkpt lat="44.9006751" lon="8.1972336"><ele>141.28571428571428</ele><time>2026-04-10T12:50:46.83Z</time></trkpt><trkpt lat="44.900647" lon="8.1971491"><ele>141.0</ele><time>2026-04-10T12:50:50.831Z</time></trkpt><trkpt lat="44.9004193" lon="8.1972944"><ele>141.0</ele><time>2026-04-10T12:51:05.832Z</time></trkpt><trkpt lat="44.9003511" lon="8.1974046"><ele>141.0</ele><time>2026-04-10T12:51:07.83Z</time></trkpt><trkpt lat="44.9003171" lon="8.1975034"><ele>141.0</ele><time>2026-04-10T12:51:10.83Z</time></trkpt><trkpt lat="44.9003242" lon="8.1976387"><ele>141.0</ele><time>2026-04-10T12:51:13.832Z</time></trkpt><trkpt lat="44.9003412" lon="8.197725"><ele>141.0</ele><time>2026-04-10T12:51:15.831Z</time></trkpt><trkpt lat="44.9003677" lon="8.197862"><ele>141.0</ele><time>2026-04-10T12:51:19.83Z</time></trkpt><trkpt lat="44.9003729" lon="8.1979552"><ele>141.0</ele><time>2026-04-10T12:51:22.83Z</time></trkpt><trkpt lat="44.9003954" lon="8.1980724"><ele>141.0</ele><time>2026-04-10T12:51:25.83Z</time></trkpt><trkpt lat="44.9004295" lon="8.1981943"><ele>141.0</ele><time>2026-04-10T12:51:28.831Z</time></trkpt><trkpt lat="44.9004676" lon="8.1983071"><ele>141.0</ele><time>2026-04-10T12:51:31.83Z</time></trkpt><trkpt lat="44.9005129" lon="8.1984184"><ele>141.0</ele><time>2026-04-10T12:51:34.831Z</time></trkpt><trkpt lat="44.9005616" lon="8.1984818"><ele>141.0</ele><time>2026-04-10T12:51:36.831Z</time></trkpt><trkpt lat="44.9006126" lon="8.1985493"><ele>140.66666666666666</ele><time>2026-04-10T12:51:38.83Z</time></trkpt><trkpt lat="44.9006836" lon="8.1986288"><ele>140.33333333333334</ele><time>2026-04-10T12:51:41.831Z</time></trkpt><trkpt lat="44.9007152" lon="8.198751"><ele>140.0</ele><time>2026-04-10T12:51:44.831Z</time></trkpt><trkpt lat="44.9007313" lon="8.1988494"><ele>139.66666666666669</ele><time>2026-04-10T12:51:47.83Z</time></trkpt><trkpt lat="44.9007487" lon="8.1989493"><ele>139.33333333333334</ele><time>2026-04-10T12:51:50.831Z</time></trkpt><trkpt lat="44.9007775" lon="8.1990578"><ele>139.0</ele><time>2026-04-10T12:51:53.834Z</time></trkpt><trkpt lat="44.9008" lon="8.1991815"><ele>138.83333333333334</ele><time>2026-04-10T12:51:56.831Z</time></trkpt><trkpt lat="44.9007549" lon="8.1992625"><ele>138.66666666666669</ele><time>2026-04-10T12:51:59.831Z</time></trkpt><trkpt lat="44.9006712" lon="8.1992968"><ele>138.5</ele><time>2026-04-10T12:52:02.832Z</time></trkpt><trkpt lat="44.9005933" lon="8.1993214"><ele>138.33333333333334</ele><time>2026-04-10T12:52:04.832Z</time></trkpt><trkpt lat="44.9005193" lon="8.1993255"><ele>138.16666666666666</ele><time>2026-04-10T12:52:06.832Z</time></trkpt><trkpt lat="44.9004395" lon="8.1993493"><ele>138.0</ele><time>2026-04-10T12:52:09.833Z</time></trkpt><trkpt lat="44.9003788" lon="8.1993856"><ele>138.0</ele><time>2026-04-10T12:52:11.833Z</time></trkpt><trkpt lat="44.9003132" lon="8.1994118"><ele>138.0</ele><time>2026-04-10T12:52:13.832Z</time></trkpt><trkpt lat="44.9002469" lon="8.1994171"><ele>138.0</ele><time>2026-04-10T12:52:15.832Z</time></trkpt><trkpt lat="44.900184" lon="8.1994559"><ele>138.0</ele><time>2026-04-10T12:52:17.832Z</time></trkpt><trkpt lat="44.9001038" lon="8.1995048"><ele>138.0</ele><time>2026-04-10T12:52:20.831Z</time></trkpt><trkpt lat="44.9000353" lon="8.1995611"><ele>138.0</ele><time>2026-04-10T12:52:23.83Z</time></trkpt><trkpt lat="44.9000272" lon="8.1996602"><ele>138.0</ele><time>2026-04-10T12:52:25.83Z</time></trkpt><trkpt lat="44.9000526" lon="8.1997672"><ele>138.0</ele><time>2026-04-10T12:52:27.831Z</time></trkpt><trkpt lat="44.9000739" lon="8.199885"><ele>138.0</ele><time>2026-04-10T12:52:29.83Z</time></trkpt><trkpt lat="44.9000971" lon="8.2000039"><ele>138.0</ele><time>2026-04-10T12:52:31.83Z</time></trkpt><trkpt lat="44.9001097" lon="8.2001115"><ele>138.0</ele><time>2026-04-10T12:52:33.832Z</time></trkpt><trkpt lat="44.9001208" lon="8.2002314"><ele>138.0</ele><time>2026-04-10T12:52:36.83Z</time></trkpt><trkpt lat="44.9001461" lon="8.2003286"><ele>138.0</ele><time>2026-04-10T12:52:41.83Z</time></trkpt><trkpt lat="44.9001719" lon="8.2004375"><ele>138.0</ele><time>2026-04-10T12:52:45.831Z</time></trkpt><trkpt lat="44.9001892" lon="8.2005231"><ele>138.0</ele><time>2026-04-10T12:52:48.832Z</time></trkpt><trkpt lat="44.9002031" lon="8.2006364"><ele>138.0</ele><time>2026-04-10T12:52:52.831Z</time></trkpt><trkpt lat="44.9002078" lon="8.2007547"><ele>138.0</ele><time>2026-04-10T12:52:55.831Z</time></trkpt><trkpt lat="44.9002235" lon="8.2008781"><ele>138.0</ele><time>2026-04-10T12:52:57.832Z</time></trkpt><trkpt lat="44.9002692" lon="8.2009793"><ele>138.0</ele><time>2026-04-10T12:52:59.831Z</time></trkpt><trkpt lat="44.9002967" lon="8.2010768"><ele>138.4</ele><time>2026-04-10T12:53:01.831Z</time></trkpt><trkpt lat="44.9003117" lon="8.2012167"><ele>138.8</ele><time>2026-04-10T12:53:03.83Z</time></trkpt><trkpt lat="44.9003052" lon="8.2013313"><ele>139.2</ele><time>2026-04-10T12:53:05.83Z</time></trkpt><trkpt lat="44.9003027" lon="8.2014533"><ele>139.6</ele><time>2026-04-10T12:53:07.831Z</time></trkpt><trkpt lat="44.900296" lon="8.2015788"><ele>140.0</ele><time>2026-04-10T12:53:09.831Z</time></trkpt><trkpt lat="44.9002825" lon="8.2017111"><ele>139.2</ele><time>2026-04-10T12:53:11.831Z</time></trkpt><trkpt lat="44.9002795" lon="8.2018444"><ele>138.4</ele><time>2026-04-10T12:53:13.831Z</time></trkpt><trkpt lat="44.900292" lon="8.2019737"><ele>137.6</ele><time>2026-04-10T12:53:15.83Z</time></trkpt><trkpt lat="44.9003203" lon="8.2020804"><ele>136.8</ele><time>2026-04-10T12:53:17.83Z</time></trkpt><trkpt lat="44.9003595" lon="8.2021982"><ele>136.0</ele><time>2026-04-10T12:53:19.832Z</time></trkpt><trkpt lat="44.9004462" lon="8.2023055"><ele>135.4</ele><time>2026-04-10T12:53:20.831Z</time></trkpt><trkpt lat="44.9004883" lon="8.2024123"><ele>134.8</ele><time>2026-04-10T12:53:22.831Z</time></trkpt><trkpt lat="44.9005376" lon="8.2025094"><ele>134.20000000000002</ele><time>2026-04-10T12:53:24.83Z</time></trkpt><trkpt lat="44.9005931" lon="8.2026568"><ele>133.6</ele><time>2026-04-10T12:53:26.832Z</time></trkpt><trkpt lat="44.900607" lon="8.202798"><ele>133.0</ele><time>2026-04-10T12:53:28.831Z</time></trkpt><trkpt lat="44.9005995" lon="8.202933"><ele>133.0</ele><time>2026-04-10T12:53:30.83Z</time></trkpt><trkpt lat="44.9006102" lon="8.2030466"><ele>133.0</ele><time>2026-04-10T12:53:32.831Z</time></trkpt><trkpt lat="44.9005693" lon="8.2031501"><ele>133.0</ele><time>2026-04-10T12:53:34.831Z</time></trkpt><trkpt lat="44.9005288" lon="8.203254"><ele>133.0</ele><time>2026-04-10T12:53:36.831Z</time></trkpt><trkpt lat="44.9004429" lon="8.2033119"><ele>133.0</ele><time>2026-04-10T12:53:39.831Z</time></trkpt><trkpt lat="44.9003654" lon="8.2033393"><ele>133.0</ele><time>2026-04-10T12:53:41.831Z</time></trkpt><trkpt lat="44.9003059" lon="8.203392"><ele>132.83333333333334</ele><time>2026-04-10T12:53:44.83Z</time></trkpt><trkpt lat="44.9002147" lon="8.203413"><ele>132.66666666666669</ele><time>2026-04-10T12:53:47.83Z</time></trkpt><trkpt lat="44.9001415" lon="8.2034337"><ele>132.5</ele><time>2026-04-10T12:53:49.831Z</time></trkpt><trkpt lat="44.9000792" lon="8.20347"><ele>132.33333333333334</ele><time>2026-04-10T12:53:51.831Z</time></trkpt><trkpt lat="44.900019" lon="8.2035204"><ele>132.16666666666666</ele><time>2026-04-10T12:53:54.831Z</time></trkpt><trkpt lat="44.8999548" lon="8.2035816"><ele>132.0</ele><time>2026-04-10T12:54:07.831Z</time></trkpt><trkpt lat="44.8999111" lon="8.2034713"><ele>132.14285714285714</ele><time>2026-04-10T12:54:12.831Z</time></trkpt><trkpt lat="44.8998934" lon="8.2033666"><ele>132.28571428571428</ele><time>2026-04-10T12:54:15.83Z</time></trkpt><trkpt lat="44.899874" lon="8.2032792"><ele>132.42857142857144</ele><time>2026-04-10T12:54:17.83Z</time></trkpt><trkpt lat="44.8998654" lon="8.2031734"><ele>132.57142857142856</ele><time>2026-04-10T12:54:20.83Z</time></trkpt><trkpt lat="44.8998833" lon="8.2030616"><ele>132.71428571428572</ele><time>2026-04-10T12:54:25.831Z</time></trkpt><trkpt lat="44.8998965" lon="8.2029658"><ele>132.85714285714286</ele><time>2026-04-10T12:54:28.83Z</time></trkpt><trkpt lat="44.8998784" lon="8.2028664"><ele>133.0</ele><time>2026-04-10T12:54:30.83Z</time></trkpt><trkpt lat="44.8998533" lon="8.2027446"><ele>133.0</ele><time>2026-04-10T12:54:32.831Z</time></trkpt><trkpt lat="44.8998204" lon="8.2026298"><ele>133.0</ele><time>2026-04-10T12:54:34.83Z</time></trkpt><trkpt lat="44.8997916" lon="8.2025296"><ele>133.0</ele><time>2026-04-10T12:54:36.831Z</time></trkpt><trkpt lat="44.8997579" lon="8.2024305"><ele>133.0</ele><time>2026-04-10T12:54:38.831Z</time></trkpt><trkpt lat="44.8997258" lon="8.2023356"><ele>133.0</ele><time>2026-04-10T12:54:40.83Z</time></trkpt><trkpt lat="44.8996897" lon="8.2022371"><ele>133.0</ele><time>2026-04-10T12:54:42.83Z</time></trkpt><trkpt lat="44.8996535" lon="8.2021094"><ele>133.5</ele><time>2026-04-10T12:54:45.831Z</time></trkpt><trkpt lat="44.8996143" lon="8.2019891"><ele>134.0</ele><time>2026-04-10T12:54:47.831Z</time></trkpt><trkpt lat="44.8995901" lon="8.2019018"><ele>134.5</ele><time>2026-04-10T12:54:49.83Z</time></trkpt><trkpt lat="44.8995678" lon="8.2018075"><ele>135.0</ele><time>2026-04-10T12:54:51.831Z</time></trkpt><trkpt lat="44.8995597" lon="8.2016912"><ele>135.5</ele><time>2026-04-10T12:54:54.831Z</time></trkpt><trkpt lat="44.8995453" lon="8.2015782"><ele>136.0</ele><time>2026-04-10T12:54:57.83Z</time></trkpt><trkpt lat="44.8995237" lon="8.2014523"><ele>136.0</ele><time>2026-04-10T12:55:00.831Z</time></trkpt><trkpt lat="44.8995073" lon="8.2013273"><ele>136.0</ele><time>2026-04-10T12:55:03.831Z</time></trkpt><trkpt lat="44.8994971" lon="8.2012382"><ele>136.0</ele><time>2026-04-10T12:55:05.831Z</time></trkpt><trkpt lat="44.8994986" lon="8.201364"><ele>136.0</ele><time>2026-04-10T12:55:15.83Z</time></trkpt><trkpt lat="44.8995004" lon="8.2014538"><ele>136.0</ele><time>2026-04-10T12:55:17.829Z</time></trkpt><trkpt lat="44.8994523" lon="8.2015561"><ele>136.0</ele><time>2026-04-10T12:55:20.829Z</time></trkpt><trkpt lat="44.8993741" lon="8.2016031"><ele>135.99999999999997</ele><time>2026-04-10T12:55:23.829Z</time></trkpt><trkpt lat="44.8993075" lon="8.2016079"><ele>136.0</ele><time>2026-04-10T12:55:25.83Z</time></trkpt><trkpt lat="44.8992324" lon="8.2016348"><ele>136.0</ele><time>2026-04-10T12:55:27.831Z</time></trkpt><trkpt lat="44.8991724" lon="8.2016856"><ele>136.0</ele><time>2026-04-10T12:55:29.83Z</time></trkpt><trkpt lat="44.8991402" lon="8.2017816"><ele>136.0</ele><time>2026-04-10T12:55:31.831Z</time></trkpt><trkpt lat="44.8991218" lon="8.2018941"><ele>135.99999999999997</ele><time>2026-04-10T12:55:38.83Z</time></trkpt><trkpt lat="44.8990623" lon="8.201951"><ele>136.0</ele><time>2026-04-10T12:55:41.83Z</time></trkpt><trkpt lat="44.8989807" lon="8.2019831"><ele>135.85714285714283</ele><time>2026-04-10T12:55:44.83Z</time></trkpt><trkpt lat="44.8989052" lon="8.2020072"><ele>135.71428571428572</ele><time>2026-04-10T12:55:47.831Z</time></trkpt><trkpt lat="44.8988291" lon="8.2020388"><ele>135.57142857142856</ele><time>2026-04-10T12:55:52.831Z</time></trkpt><trkpt lat="44.8987686" lon="8.202066"><ele>135.42857142857142</ele><time>2026-04-10T12:55:54.831Z</time></trkpt><trkpt lat="44.8987026" lon="8.2021"><ele>135.28571428571428</ele><time>2026-04-10T12:55:57.831Z</time></trkpt><trkpt lat="44.8986284" lon="8.202135"><ele>135.14285714285714</ele><time>2026-04-10T12:55:59.83Z</time></trkpt><trkpt lat="44.8985622" lon="8.2021651"><ele>135.0</ele><time>2026-04-10T12:56:01.83Z</time></trkpt><trkpt lat="44.8984768" lon="8.2021972"><ele>134.66666666666666</ele><time>2026-04-10T12:56:03.83Z</time></trkpt><trkpt lat="44.8984058" lon="8.2022148"><ele>134.33333333333334</ele><time>2026-04-10T12:56:05.831Z</time></trkpt><trkpt lat="44.8983392" lon="8.2022413"><ele>134.0</ele><time>2026-04-10T12:56:09.83Z</time></trkpt><trkpt lat="44.8982453" lon="8.2022762"><ele>133.66666666666669</ele><time>2026-04-10T12:56:12.831Z</time></trkpt><trkpt lat="44.8981685" lon="8.2023057"><ele>133.33333333333334</ele><time>2026-04-10T12:56:14.83Z</time></trkpt><trkpt lat="44.8980993" lon="8.2023333"><ele>133.0</ele><time>2026-04-10T12:56:16.83Z</time></trkpt><trkpt lat="44.8980139" lon="8.20237"><ele>132.6</ele><time>2026-04-10T12:56:18.831Z</time></trkpt><trkpt lat="44.8979245" lon="8.2024163"><ele>132.20000000000002</ele><time>2026-04-10T12:56:20.83Z</time></trkpt><trkpt lat="44.8978214" lon="8.20245"><ele>131.8</ele><time>2026-04-10T12:56:22.831Z</time></trkpt><trkpt lat="44.8977397" lon="8.2024729"><ele>131.4</ele><time>2026-04-10T12:56:24.831Z</time></trkpt><trkpt lat="44.8976361" lon="8.2025247"><ele>131.0</ele><time>2026-04-10T12:56:26.831Z</time></trkpt><trkpt lat="44.897564" lon="8.2025677"><ele>131.0</ele><time>2026-04-10T12:56:28.831Z</time></trkpt><trkpt lat="44.897514" lon="8.2026578"><ele>131.0</ele><time>2026-04-10T12:56:31.832Z</time></trkpt><trkpt lat="44.8975425" lon="8.202754"><ele>131.0</ele><time>2026-04-10T12:56:34.832Z</time></trkpt><trkpt lat="44.8975726" lon="8.2028419"><ele>131.0</ele><time>2026-04-10T12:56:36.832Z</time></trkpt><trkpt lat="44.8976118" lon="8.2029311"><ele>131.0</ele><time>2026-04-10T12:56:38.83Z</time></trkpt><trkpt lat="44.8976564" lon="8.2030177"><ele>131.0</ele><time>2026-04-10T12:56:40.831Z</time></trkpt><trkpt lat="44.8977069" lon="8.2031049"><ele>131.0</ele><time>2026-04-10T12:56:42.831Z</time></trkpt><trkpt lat="44.897764" lon="8.203184"><ele>131.0</ele><time>2026-04-10T12:56:44.832Z</time></trkpt><trkpt lat="44.8978281" lon="8.2032505"><ele>131.0</ele><time>2026-04-10T12:56:46.831Z</time></trkpt><trkpt lat="44.8978747" lon="8.2033155"><ele>131.0</ele><time>2026-04-10T12:56:48.83Z</time></trkpt><trkpt lat="44.8979348" lon="8.203399"><ele>131.0</ele><time>2026-04-10T12:56:51.831Z</time></trkpt><trkpt lat="44.8979948" lon="8.2034571"><ele>131.0</ele><time>2026-04-10T12:56:53.83Z</time></trkpt><trkpt lat="44.8980621" lon="8.2035145"><ele>131.0</ele><time>2026-04-10T12:56:55.83Z</time></trkpt><trkpt lat="44.8981288" lon="8.2035896"><ele>131.0</ele><time>2026-04-10T12:56:57.831Z</time></trkpt><trkpt lat="44.8982018" lon="8.2036648"><ele>131.0</ele><time>2026-04-10T12:56:59.831Z</time></trkpt><trkpt lat="44.8982887" lon="8.2037222"><ele>131.0</ele><time>2026-04-10T12:57:01.832Z</time></trkpt><trkpt lat="44.8983731" lon="8.2037576"><ele>131.0</ele><time>2026-04-10T12:57:03.832Z</time></trkpt><trkpt lat="44.8984188" lon="8.2038201"><ele>131.0</ele><time>2026-04-10T12:57:05.831Z</time></trkpt><trkpt lat="44.898438" lon="8.2039293"><ele>131.0</ele><time>2026-04-10T12:57:08.83Z</time></trkpt><trkpt lat="44.8984121" lon="8.2040298"><ele>131.0</ele><time>2026-04-10T12:57:11.831Z</time></trkpt><trkpt lat="44.8983651" lon="8.2041265"><ele>131.0</ele><time>2026-04-10T12:57:14.831Z</time></trkpt><trkpt lat="44.8983713" lon="8.2042153"><ele>131.0</ele><time>2026-04-10T12:57:17.83Z</time></trkpt><trkpt lat="44.8983975" lon="8.2043145"><ele>131.0</ele><time>2026-04-10T12:57:20.831Z</time></trkpt><trkpt lat="44.8984191" lon="8.2043992"><ele>131.0</ele><time>2026-04-10T12:57:22.831Z</time></trkpt><trkpt lat="44.898416" lon="8.2045309"><ele>130.66666666666666</ele><time>2026-04-10T12:57:25.832Z</time></trkpt><trkpt lat="44.8983584" lon="8.2046152"><ele>130.33333333333331</ele><time>2026-04-10T12:57:29.832Z</time></trkpt><trkpt lat="44.89828" lon="8.2046482"><ele>130.0</ele><time>2026-04-10T12:57:33.831Z</time></trkpt><trkpt lat="44.8982182" lon="8.2046808"><ele>129.66666666666666</ele><time>2026-04-10T12:57:35.83Z</time></trkpt><trkpt lat="44.8981556" lon="8.2047161"><ele>129.33333333333334</ele><time>2026-04-10T12:57:37.83Z</time></trkpt><trkpt lat="44.8980883" lon="8.2047498"><ele>129.0</ele><time>2026-04-10T12:57:40.831Z</time></trkpt><trkpt lat="44.8979955" lon="8.2048107"><ele>128.0</ele><time>2026-04-10T12:57:43.831Z</time></trkpt><trkpt lat="44.8978892" lon="8.2048883"><ele>127.0</ele><time>2026-04-10T12:57:45.83Z</time></trkpt><trkpt lat="44.8978316" lon="8.2049331"><ele>126.0</ele><time>2026-04-10T12:57:46.831Z</time></trkpt><trkpt lat="44.897707" lon="8.2050488"><ele>125.0</ele><time>2026-04-10T12:57:47.83Z</time></trkpt><trkpt lat="44.8976126" lon="8.2051833"><ele>124.99999999999999</ele><time>2026-04-10T12:57:49.83Z</time></trkpt><trkpt lat="44.8975642" lon="8.2052702"><ele>125.0</ele><time>2026-04-10T12:57:50.83Z</time></trkpt><trkpt lat="44.8974918" lon="8.2053627"><ele>125.0</ele><time>2026-04-10T12:57:52.83Z</time></trkpt><trkpt lat="44.8974215" lon="8.2054185"><ele>125.0</ele><time>2026-04-10T12:57:53.83Z</time></trkpt><trkpt lat="44.8973564" lon="8.2055271"><ele>124.99999999999999</ele><time>2026-04-10T12:57:57.831Z</time></trkpt><trkpt lat="44.8972997" lon="8.2056092"><ele>125.0</ele><time>2026-04-10T12:57:59.83Z</time></trkpt><trkpt lat="44.8972222" lon="8.2057021"><ele>124.83333333333333</ele><time>2026-04-10T12:58:01.831Z</time></trkpt><trkpt lat="44.8971492" lon="8.205779"><ele>124.66666666666666</ele><time>2026-04-10T12:58:03.831Z</time></trkpt><trkpt lat="44.8970722" lon="8.2058136"><ele>124.5</ele><time>2026-04-10T12:58:05.83Z</time></trkpt><trkpt lat="44.8970099" lon="8.2058876"><ele>124.33333333333334</ele><time>2026-04-10T12:58:07.83Z</time></trkpt><trkpt lat="44.8969565" lon="8.2059529"><ele>124.16666666666667</ele><time>2026-04-10T12:58:08.831Z</time></trkpt><trkpt lat="44.8969074" lon="8.2061027"><ele>124.0</ele><time>2026-04-10T12:58:11.83Z</time></trkpt><trkpt lat="44.8968664" lon="8.206181"><ele>124.0</ele><time>2026-04-10T12:58:12.83Z</time></trkpt><trkpt lat="44.8968144" lon="8.2062771"><ele>124.0</ele><time>2026-04-10T12:58:14.832Z</time></trkpt><trkpt lat="44.8967692" lon="8.2063983"><ele>124.0</ele><time>2026-04-10T12:58:16.83Z</time></trkpt><trkpt lat="44.8966965" lon="8.2065198"><ele>124.0</ele><time>2026-04-10T12:58:18.829Z</time></trkpt><trkpt lat="44.8966395" lon="8.2066292"><ele>124.0</ele><time>2026-04-10T12:58:20.83Z</time></trkpt><trkpt lat="44.8965965" lon="8.2067079"><ele>123.83333333333334</ele><time>2026-04-10T12:58:22.83Z</time></trkpt><trkpt lat="44.8965224" lon="8.2067942"><ele>123.66666666666667</ele><time>2026-04-10T12:58:24.83Z</time></trkpt><trkpt lat="44.8964793" lon="8.2068792"><ele>123.5</ele><time>2026-04-10T12:58:26.831Z</time></trkpt><trkpt lat="44.8965053" lon="8.2069605"><ele>123.33333333333334</ele><time>2026-04-10T12:58:28.829Z</time></trkpt><trkpt lat="44.8965411" lon="8.2070532"><ele>123.16666666666667</ele><time>2026-04-10T12:58:30.831Z</time></trkpt><trkpt lat="44.8965808" lon="8.2071492"><ele>123.0</ele><time>2026-04-10T12:58:32.83Z</time></trkpt><trkpt lat="44.8966259" lon="8.2072406"><ele>122.66666666666667</ele><time>2026-04-10T12:58:34.83Z</time></trkpt><trkpt lat="44.8966437" lon="8.2073573"><ele>122.33333333333334</ele><time>2026-04-10T12:58:37.829Z</time></trkpt><trkpt lat="44.8965551" lon="8.2074209"><ele>122.0</ele><time>2026-04-10T12:58:40.829Z</time></trkpt><trkpt lat="44.8964837" lon="8.2074628"><ele>121.66666666666667</ele><time>2026-04-10T12:58:42.831Z</time></trkpt><trkpt lat="44.8964132" lon="8.2074929"><ele>121.33333333333334</ele><time>2026-04-10T12:58:44.83Z</time></trkpt><trkpt lat="44.8963491" lon="8.2074542"><ele>121.0</ele><time>2026-04-10T12:58:47.83Z</time></trkpt><trkpt lat="44.8962965" lon="8.2073824"><ele>121.00000000000001</ele><time>2026-04-10T13:00:22.83Z</time></trkpt><trkpt lat="44.8962363" lon="8.2073015"><ele>121.0</ele><time>2026-04-10T13:00:25.83Z</time></trkpt><trkpt lat="44.8961474" lon="8.2072979"><ele>121.0</ele><time>2026-04-10T13:00:28.83Z</time></trkpt><trkpt lat="44.8960835" lon="8.2073456"><ele>121.0</ele><time>2026-04-10T13:00:30.83Z</time></trkpt><trkpt lat="44.8960381" lon="8.2074221"><ele>121.00000000000001</ele><time>2026-04-10T13:00:32.83Z</time></trkpt><trkpt lat="44.8960342" lon="8.2075212"><ele>121.0</ele><time>2026-04-10T13:00:34.83Z</time></trkpt><trkpt lat="44.8960647" lon="8.2076251"><ele>121.00000000000001</ele><time>2026-04-10T13:00:36.83Z</time></trkpt><trkpt lat="44.8961025" lon="8.2077254"><ele>121.0</ele><time>2026-04-10T13:00:38.831Z</time></trkpt><trkpt lat="44.8961499" lon="8.2078226"><ele>121.0</ele><time>2026-04-10T13:00:40.831Z</time></trkpt><trkpt lat="44.8962045" lon="8.2079143"><ele>121.0</ele><time>2026-04-10T13:00:42.831Z</time></trkpt><trkpt lat="44.8962425" lon="8.2080219"><ele>121.00000000000001</ele><time>2026-04-10T13:00:44.829Z</time></trkpt><trkpt lat="44.8962722" lon="8.2081322"><ele>121.0</ele><time>2026-04-10T13:00:46.83Z</time></trkpt><trkpt lat="44.8962948" lon="8.2082476"><ele>120.19999999999999</ele><time>2026-04-10T13:00:48.829Z</time></trkpt><trkpt lat="44.8963111" lon="8.2083695"><ele>119.39999999999999</ele><time>2026-04-10T13:00:50.829Z</time></trkpt><trkpt lat="44.8963296" lon="8.2084897"><ele>118.6</ele><time>2026-04-10T13:00:52.829Z</time></trkpt><trkpt lat="44.8963565" lon="8.2086347"><ele>117.8</ele><time>2026-04-10T13:00:54.829Z</time></trkpt><trkpt lat="44.8963738" lon="8.2087661"><ele>117.0</ele><time>2026-04-10T13:00:56.828Z</time></trkpt><trkpt lat="44.8963893" lon="8.2088823"><ele>117.0</ele><time>2026-04-10T13:00:58.83Z</time></trkpt><trkpt lat="44.8964135" lon="8.2090024"><ele>117.0</ele><time>2026-04-10T13:01:00.829Z</time></trkpt><trkpt lat="44.8964286" lon="8.2091191"><ele>117.0</ele><time>2026-04-10T13:01:02.83Z</time></trkpt><trkpt lat="44.8964256" lon="8.2092307"><ele>117.0</ele><time>2026-04-10T13:01:04.83Z</time></trkpt><trkpt lat="44.8963851" lon="8.2093518"><ele>117.0</ele><time>2026-04-10T13:01:06.83Z</time></trkpt><trkpt lat="44.8963003" lon="8.2094165"><ele>117.0</ele><time>2026-04-10T13:01:08.829Z</time></trkpt><trkpt lat="44.8962127" lon="8.2094511"><ele>117.0</ele><time>2026-04-10T13:01:10.828Z</time></trkpt><trkpt lat="44.8961202" lon="8.2094709"><ele>116.99999999999999</ele><time>2026-04-10T13:01:12.83Z</time></trkpt><trkpt lat="44.8960358" lon="8.2094827"><ele>116.99999999999999</ele><time>2026-04-10T13:01:14.831Z</time></trkpt><trkpt lat="44.8959514" lon="8.2095053"><ele>117.0</ele><time>2026-04-10T13:01:16.83Z</time></trkpt><trkpt lat="44.8958573" lon="8.2095271"><ele>117.0</ele><time>2026-04-10T13:01:18.83Z</time></trkpt><trkpt lat="44.8957668" lon="8.2095498"><ele>117.6</ele><time>2026-04-10T13:01:20.829Z</time></trkpt><trkpt lat="44.8956804" lon="8.2095633"><ele>118.19999999999999</ele><time>2026-04-10T13:01:22.831Z</time></trkpt><trkpt lat="44.8955854" lon="8.2095865"><ele>118.8</ele><time>2026-04-10T13:01:24.829Z</time></trkpt><trkpt lat="44.8954932" lon="8.2096062"><ele>119.4</ele><time>2026-04-10T13:01:26.831Z</time></trkpt><trkpt lat="44.8953966" lon="8.2096371"><ele>120.0</ele><time>2026-04-10T13:01:28.829Z</time></trkpt><trkpt lat="44.8952928" lon="8.2096578"><ele>120.0</ele><time>2026-04-10T13:01:30.83Z</time></trkpt><trkpt lat="44.8951911" lon="8.2096823"><ele>120.0</ele><time>2026-04-10T13:01:32.83Z</time></trkpt><trkpt lat="44.8950875" lon="8.2097191"><ele>120.0</ele><time>2026-04-10T13:01:34.829Z</time></trkpt><trkpt lat="44.8949704" lon="8.2097573"><ele>120.0</ele><time>2026-04-10T13:01:36.831Z</time></trkpt><trkpt lat="44.8948445" lon="8.2097757"><ele>119.71428571428572</ele><time>2026-04-10T13:01:38.829Z</time></trkpt><trkpt lat="44.8947787" lon="8.209786"><ele>119.42857142857142</ele><time>2026-04-10T13:01:39.829Z</time></trkpt><trkpt lat="44.8947113" lon="8.2098064"><ele>119.14285714285714</ele><time>2026-04-10T13:01:40.828Z</time></trkpt><trkpt lat="44.894645" lon="8.2098269"><ele>118.85714285714286</ele><time>2026-04-10T13:01:41.829Z</time></trkpt><trkpt lat="44.8945773" lon="8.2098464"><ele>118.57142857142858</ele><time>2026-04-10T13:01:42.83Z</time></trkpt><trkpt lat="44.8945057" lon="8.209869"><ele>118.28571428571428</ele><time>2026-04-10T13:01:43.829Z</time></trkpt><trkpt lat="44.8944361" lon="8.2098948"><ele>118.0</ele><time>2026-04-10T13:01:44.829Z</time></trkpt><trkpt lat="44.8943552" lon="8.209919"><ele>118.00000000000001</ele><time>2026-04-10T13:01:45.83Z</time></trkpt><trkpt lat="44.89429" lon="8.2099334"><ele>118.0</ele><time>2026-04-10T13:01:46.829Z</time></trkpt><trkpt lat="44.894216" lon="8.2099531"><ele>118.0</ele><time>2026-04-10T13:01:47.829Z</time></trkpt><trkpt lat="44.8941405" lon="8.2099732"><ele>118.0</ele><time>2026-04-10T13:01:48.83Z</time></trkpt><trkpt lat="44.8940729" lon="8.2099831"><ele>118.00000000000001</ele><time>2026-04-10T13:01:49.83Z</time></trkpt><trkpt lat="44.8939838" lon="8.2100291"><ele>118.0</ele><time>2026-04-10T13:01:50.829Z</time></trkpt><trkpt lat="44.8939073" lon="8.2100557"><ele>118.16666666666667</ele><time>2026-04-10T13:01:51.829Z</time></trkpt><trkpt lat="44.893827" lon="8.2100867"><ele>118.33333333333334</ele><time>2026-04-10T13:01:52.829Z</time></trkpt><trkpt lat="44.8937504" lon="8.2101102"><ele>118.5</ele><time>2026-04-10T13:01:53.83Z</time></trkpt><trkpt lat="44.8936682" lon="8.2101303"><ele>118.66666666666666</ele><time>2026-04-10T13:01:54.83Z</time></trkpt><trkpt lat="44.8935954" lon="8.210162"><ele>118.83333333333333</ele><time>2026-04-10T13:01:55.829Z</time></trkpt><trkpt lat="44.8935245" lon="8.210182"><ele>119.0</ele><time>2026-04-10T13:01:56.829Z</time></trkpt><trkpt lat="44.8934546" lon="8.2102053"><ele>119.16666666666666</ele><time>2026-04-10T13:01:57.828Z</time></trkpt><trkpt lat="44.8933762" lon="8.2102221"><ele>119.33333333333333</ele><time>2026-04-10T13:01:58.83Z</time></trkpt><trkpt lat="44.8933034" lon="8.2102211"><ele>119.5</ele><time>2026-04-10T13:01:59.828Z</time></trkpt><trkpt lat="44.8932365" lon="8.2102268"><ele>119.66666666666666</ele><time>2026-04-10T13:02:00.83Z</time></trkpt><trkpt lat="44.8931761" lon="8.2102528"><ele>119.83333333333333</ele><time>2026-04-10T13:02:01.829Z</time></trkpt><trkpt lat="44.8930515" lon="8.2102905"><ele>120.0</ele><time>2026-04-10T13:02:03.831Z</time></trkpt><trkpt lat="44.8929846" lon="8.2103097"><ele>120.0</ele><time>2026-04-10T13:02:04.83Z</time></trkpt><trkpt lat="44.8928706" lon="8.2103323"><ele>120.0</ele><time>2026-04-10T13:02:06.829Z</time></trkpt><trkpt lat="44.8928023" lon="8.2103298"><ele>120.0</ele><time>2026-04-10T13:02:07.83Z</time></trkpt><trkpt lat="44.8926873" lon="8.2103642"><ele>120.0</ele><time>2026-04-10T13:02:09.829Z</time></trkpt><trkpt lat="44.8925729" lon="8.2103905"><ele>120.0</ele><time>2026-04-10T13:02:11.83Z</time></trkpt><trkpt lat="44.8924794" lon="8.2104186"><ele>119.83333333333333</ele><time>2026-04-10T13:02:13.83Z</time></trkpt><trkpt lat="44.8923908" lon="8.2104379"><ele>119.66666666666666</ele><time>2026-04-10T13:02:15.828Z</time></trkpt><trkpt lat="44.8923252" lon="8.2104114"><ele>119.5</ele><time>2026-04-10T13:02:19.829Z</time></trkpt><trkpt lat="44.8922463" lon="8.2103737"><ele>119.33333333333333</ele><time>2026-04-10T13:02:23.829Z</time></trkpt><trkpt lat="44.8921468" lon="8.2103808"><ele>119.16666666666666</ele><time>2026-04-10T13:02:26.828Z</time></trkpt><trkpt lat="44.8920642" lon="8.210442"><ele>119.0</ele><time>2026-04-10T13:02:28.829Z</time></trkpt><trkpt lat="44.8919785" lon="8.2105029"><ele>119.0</ele><time>2026-04-10T13:02:30.83Z</time></trkpt><trkpt lat="44.8918862" lon="8.2105232"><ele>119.0</ele><time>2026-04-10T13:02:32.83Z</time></trkpt><trkpt lat="44.8917825" lon="8.2105487"><ele>119.0</ele><time>2026-04-10T13:02:34.829Z</time></trkpt><trkpt lat="44.8916704" lon="8.2105758"><ele>119.0</ele><time>2026-04-10T13:02:36.83Z</time></trkpt><trkpt lat="44.8915597" lon="8.2105968"><ele>119.0</ele><time>2026-04-10T13:02:38.83Z</time></trkpt><trkpt lat="44.891457" lon="8.2106301"><ele>119.0</ele><time>2026-04-10T13:02:40.829Z</time></trkpt><trkpt lat="44.8913671" lon="8.2106263"><ele>119.0</ele><time>2026-04-10T13:02:42.83Z</time></trkpt><trkpt lat="44.8912648" lon="8.2106461"><ele>119.0</ele><time>2026-04-10T13:02:44.828Z</time></trkpt><trkpt lat="44.8911509" lon="8.2106811"><ele>119.0</ele><time>2026-04-10T13:02:46.83Z</time></trkpt><trkpt lat="44.891046" lon="8.2107038"><ele>119.0</ele><time>2026-04-10T13:02:48.83Z</time></trkpt><trkpt lat="44.8909277" lon="8.2107528"><ele>119.0</ele><time>2026-04-10T13:02:50.829Z</time></trkpt><trkpt lat="44.8908196" lon="8.2107791"><ele>119.0</ele><time>2026-04-10T13:02:52.828Z</time></trkpt><trkpt lat="44.89071" lon="8.2108072"><ele>119.0</ele><time>2026-04-10T13:02:54.83Z</time></trkpt><trkpt lat="44.8905993" lon="8.2108143"><ele>119.0</ele><time>2026-04-10T13:02:56.829Z</time></trkpt><trkpt lat="44.8904868" lon="8.2108369"><ele>119.0</ele><time>2026-04-10T13:02:58.829Z</time></trkpt><trkpt lat="44.8903778" lon="8.2108595"><ele>119.0</ele><time>2026-04-10T13:03:00.83Z</time></trkpt><trkpt lat="44.8902707" lon="8.2108938"><ele>119.0</ele><time>2026-04-10T13:03:02.829Z</time></trkpt><trkpt lat="44.8901567" lon="8.2109207"><ele>119.0</ele><time>2026-04-10T13:03:04.829Z</time></trkpt><trkpt lat="44.8900634" lon="8.2109337"><ele>119.0</ele><time>2026-04-10T13:03:06.831Z</time></trkpt><trkpt lat="44.8899609" lon="8.2109544"><ele>119.0</ele><time>2026-04-10T13:03:08.829Z</time></trkpt><trkpt lat="44.8898993" lon="8.2109821"><ele>118.6</ele><time>2026-04-10T13:03:09.831Z</time></trkpt><trkpt lat="44.8897906" lon="8.2110046"><ele>118.2</ele><time>2026-04-10T13:03:11.828Z</time></trkpt><trkpt lat="44.8897249" lon="8.2110353"><ele>117.79999999999998</ele><time>2026-04-10T13:03:12.829Z</time></trkpt><trkpt lat="44.8896602" lon="8.2110516"><ele>117.39999999999999</ele><time>2026-04-10T13:03:13.83Z</time></trkpt><trkpt lat="44.8895512" lon="8.2110729"><ele>117.0</ele><time>2026-04-10T13:03:15.828Z</time></trkpt><trkpt lat="44.8894349" lon="8.2110963"><ele>117.0</ele><time>2026-04-10T13:03:17.829Z</time></trkpt><trkpt lat="44.889315" lon="8.2111248"><ele>116.99999999999999</ele><time>2026-04-10T13:03:19.831Z</time></trkpt><trkpt lat="44.8892013" lon="8.2111487"><ele>116.99999999999999</ele><time>2026-04-10T13:03:21.828Z</time></trkpt><trkpt lat="44.8891386" lon="8.2111697"><ele>117.0</ele><time>2026-04-10T13:03:22.829Z</time></trkpt><trkpt lat="44.8890726" lon="8.2111757"><ele>117.0</ele><time>2026-04-10T13:03:23.828Z</time></trkpt><trkpt lat="44.8889603" lon="8.211214"><ele>117.0</ele><time>2026-04-10T13:03:25.83Z</time></trkpt><trkpt lat="44.8888911" lon="8.2112303"><ele>117.0</ele><time>2026-04-10T13:03:26.829Z</time></trkpt><trkpt lat="44.88883" lon="8.2112555"><ele>117.0</ele><time>2026-04-10T13:03:27.828Z</time></trkpt><trkpt lat="44.8887187" lon="8.2112815"><ele>117.0</ele><time>2026-04-10T13:03:29.829Z</time></trkpt><trkpt lat="44.8886173" lon="8.2113095"><ele>117.0</ele><time>2026-04-10T13:03:31.828Z</time></trkpt><trkpt lat="44.8885344" lon="8.2113302"><ele>117.0</ele><time>2026-04-10T13:03:32.829Z</time></trkpt><trkpt lat="44.888466" lon="8.2113512"><ele>117.39999999999999</ele><time>2026-04-10T13:03:33.829Z</time></trkpt><trkpt lat="44.8884036" lon="8.2113856"><ele>117.79999999999998</ele><time>2026-04-10T13:03:34.829Z</time></trkpt><trkpt lat="44.8883305" lon="8.2114194"><ele>118.2</ele><time>2026-04-10T13:03:35.83Z</time></trkpt><trkpt lat="44.8882327" lon="8.211416"><ele>118.6</ele><time>2026-04-10T13:03:37.829Z</time></trkpt><trkpt lat="44.8881311" lon="8.2114352"><ele>119.0</ele><time>2026-04-10T13:03:39.829Z</time></trkpt><trkpt lat="44.8880256" lon="8.2114639"><ele>119.0</ele><time>2026-04-10T13:03:41.831Z</time></trkpt><trkpt lat="44.8879278" lon="8.2114741"><ele>119.0</ele><time>2026-04-10T13:03:43.829Z</time></trkpt><trkpt lat="44.8878444" lon="8.2114645"><ele>119.0</ele><time>2026-04-10T13:03:45.829Z</time></trkpt><trkpt lat="44.8877281" lon="8.2114833"><ele>119.0</ele><time>2026-04-10T13:03:47.83Z</time></trkpt><trkpt lat="44.8876202" lon="8.211514"><ele>119.0</ele><time>2026-04-10T13:03:49.83Z</time></trkpt><trkpt lat="44.8875018" lon="8.2115619"><ele>118.2</ele><time>2026-04-10T13:03:51.829Z</time></trkpt><trkpt lat="44.8873916" lon="8.2115645"><ele>117.4</ele><time>2026-04-10T13:03:53.829Z</time></trkpt><trkpt lat="44.8873252" lon="8.2115762"><ele>116.6</ele><time>2026-04-10T13:03:54.828Z</time></trkpt><trkpt lat="44.8872325" lon="8.2116082"><ele>115.8</ele><time>2026-04-10T13:03:56.829Z</time></trkpt><trkpt lat="44.8871135" lon="8.2116384"><ele>115.0</ele><time>2026-04-10T13:03:58.831Z</time></trkpt><trkpt lat="44.8870069" lon="8.2116329"><ele>115.0</ele><time>2026-04-10T13:04:00.83Z</time></trkpt><trkpt lat="44.8869212" lon="8.211549"><ele>115.0</ele><time>2026-04-10T13:04:02.83Z</time></trkpt><trkpt lat="44.8868241" lon="8.2115679"><ele>115.0</ele><time>2026-04-10T13:04:04.83Z</time></trkpt><trkpt lat="44.8867358" lon="8.2116616"><ele>115.0</ele><time>2026-04-10T13:04:06.831Z</time></trkpt><trkpt lat="44.8866477" lon="8.2117513"><ele>115.0</ele><time>2026-04-10T13:04:08.829Z</time></trkpt><trkpt lat="44.8865405" lon="8.2117972"><ele>115.0</ele><time>2026-04-10T13:04:10.829Z</time></trkpt><trkpt lat="44.8864231" lon="8.2118318"><ele>115.0</ele><time>2026-04-10T13:04:12.828Z</time></trkpt><trkpt lat="44.8863083" lon="8.2118527"><ele>115.0</ele><time>2026-04-10T13:04:14.83Z</time></trkpt><trkpt lat="44.8861934" lon="8.2118882"><ele>115.0</ele><time>2026-04-10T13:04:16.828Z</time></trkpt><trkpt lat="44.8860785" lon="8.2119258"><ele>115.0</ele><time>2026-04-10T13:04:18.83Z</time></trkpt><trkpt lat="44.8859687" lon="8.211968"><ele>115.0</ele><time>2026-04-10T13:04:20.83Z</time></trkpt><trkpt lat="44.8858547" lon="8.2120085"><ele>115.0</ele><time>2026-04-10T13:04:22.829Z</time></trkpt><trkpt lat="44.8857441" lon="8.212029"><ele>115.0</ele><time>2026-04-10T13:04:24.828Z</time></trkpt><trkpt lat="44.8856326" lon="8.2120472"><ele>114.6</ele><time>2026-04-10T13:04:26.829Z</time></trkpt><trkpt lat="44.8855212" lon="8.2120668"><ele>114.2</ele><time>2026-04-10T13:04:28.829Z</time></trkpt><trkpt lat="44.8854095" lon="8.2120889"><ele>113.80000000000001</ele><time>2026-04-10T13:04:30.829Z</time></trkpt><trkpt lat="44.8853439" lon="8.2121031"><ele>113.4</ele><time>2026-04-10T13:04:31.829Z</time></trkpt><trkpt lat="44.8852332" lon="8.2121236"><ele>113.0</ele><time>2026-04-10T13:04:33.83Z</time></trkpt><trkpt lat="44.8851678" lon="8.2121345"><ele>112.2</ele><time>2026-04-10T13:04:34.829Z</time></trkpt><trkpt lat="44.8850445" lon="8.2121688"><ele>111.4</ele><time>2026-04-10T13:04:36.83Z</time></trkpt><trkpt lat="44.8849816" lon="8.2121859"><ele>110.60000000000001</ele><time>2026-04-10T13:04:37.83Z</time></trkpt><trkpt lat="44.8848662" lon="8.2122122"><ele>109.80000000000001</ele><time>2026-04-10T13:04:39.831Z</time></trkpt><trkpt lat="44.8848041" lon="8.2122282"><ele>109.0</ele><time>2026-04-10T13:04:40.829Z</time></trkpt><trkpt lat="44.8846894" lon="8.2122579"><ele>109.00000000000001</ele><time>2026-04-10T13:04:42.828Z</time></trkpt><trkpt lat="44.8846265" lon="8.2122752"><ele>109.0</ele><time>2026-04-10T13:04:43.828Z</time></trkpt><trkpt lat="44.8845606" lon="8.2122866"><ele>109.0</ele><time>2026-04-10T13:04:44.829Z</time></trkpt><trkpt lat="44.8844452" lon="8.2123279"><ele>109.0</ele><time>2026-04-10T13:04:46.83Z</time></trkpt><trkpt lat="44.8843796" lon="8.2123455"><ele>109.00000000000001</ele><time>2026-04-10T13:04:47.83Z</time></trkpt><trkpt lat="44.8842606" lon="8.2123647"><ele>109.0</ele><time>2026-04-10T13:04:49.83Z</time></trkpt><trkpt lat="44.8841403" lon="8.2124054"><ele>109.80000000000001</ele><time>2026-04-10T13:04:51.829Z</time></trkpt><trkpt lat="44.8840761" lon="8.2124211"><ele>110.60000000000001</ele><time>2026-04-10T13:04:52.828Z</time></trkpt><trkpt lat="44.8839666" lon="8.2124591"><ele>111.4</ele><time>2026-04-10T13:04:54.828Z</time></trkpt><trkpt lat="44.8839051" lon="8.2124852"><ele>112.2</ele><time>2026-04-10T13:04:55.83Z</time></trkpt><trkpt lat="44.8837866" lon="8.2125236"><ele>113.0</ele><time>2026-04-10T13:04:57.83Z</time></trkpt><trkpt lat="44.8836774" lon="8.2125571"><ele>113.0</ele><time>2026-04-10T13:04:59.83Z</time></trkpt><trkpt lat="44.8835921" lon="8.212588"><ele>113.00000000000001</ele><time>2026-04-10T13:05:01.83Z</time></trkpt><trkpt lat="44.8835418" lon="8.2126887"><ele>113.00000000000001</ele><time>2026-04-10T13:05:03.829Z</time></trkpt><trkpt lat="44.883527" lon="8.2128381"><ele>113.0</ele><time>2026-04-10T13:05:05.83Z</time></trkpt><trkpt lat="44.8835132" lon="8.2130141"><ele>113.0</ele><time>2026-04-10T13:05:07.83Z</time></trkpt><trkpt lat="44.8835116" lon="8.213107"><ele>113.16666666666666</ele><time>2026-04-10T13:05:08.829Z</time></trkpt><trkpt lat="44.8835205" lon="8.2131983"><ele>113.33333333333333</ele><time>2026-04-10T13:05:09.829Z</time></trkpt><trkpt lat="44.8835301" lon="8.2132925"><ele>113.5</ele><time>2026-04-10T13:05:10.829Z</time></trkpt><trkpt lat="44.8835406" lon="8.2133871"><ele>113.66666666666666</ele><time>2026-04-10T13:05:11.829Z</time></trkpt><trkpt lat="44.8835318" lon="8.2135637"><ele>113.83333333333333</ele><time>2026-04-10T13:05:13.829Z</time></trkpt><trkpt lat="44.8835168" lon="8.2136563"><ele>114.0</ele><time>2026-04-10T13:05:14.828Z</time></trkpt><trkpt lat="44.8835045" lon="8.2137551"><ele>114.0</ele><time>2026-04-10T13:05:15.828Z</time></trkpt><trkpt lat="44.8834844" lon="8.213921"><ele>114.0</ele><time>2026-04-10T13:05:17.829Z</time></trkpt><trkpt lat="44.8834779" lon="8.2140203"><ele>114.0</ele><time>2026-04-10T13:05:18.829Z</time></trkpt><trkpt lat="44.8834746" lon="8.2141916"><ele>114.0</ele><time>2026-04-10T13:05:20.828Z</time></trkpt><trkpt lat="44.8834753" lon="8.2143457"><ele>114.0</ele><time>2026-04-10T13:05:22.829Z</time></trkpt><trkpt lat="44.8834844" lon="8.2144369"><ele>114.0</ele><time>2026-04-10T13:05:23.83Z</time></trkpt><trkpt lat="44.8834907" lon="8.2145287"><ele>114.0</ele><time>2026-04-10T13:05:24.828Z</time></trkpt><trkpt lat="44.8835129" lon="8.2147035"><ele>114.0</ele><time>2026-04-10T13:05:26.828Z</time></trkpt><trkpt lat="44.8835312" lon="8.2148854"><ele>114.0</ele><time>2026-04-10T13:05:28.829Z</time></trkpt><trkpt lat="44.8835386" lon="8.2149756"><ele>114.0</ele><time>2026-04-10T13:05:29.829Z</time></trkpt><trkpt lat="44.8835473" lon="8.2150682"><ele>113.80000000000001</ele><time>2026-04-10T13:05:30.829Z</time></trkpt><trkpt lat="44.8835432" lon="8.2152483"><ele>113.60000000000001</ele><time>2026-04-10T13:05:32.828Z</time></trkpt><trkpt lat="44.8835168" lon="8.2154077"><ele>113.4</ele><time>2026-04-10T13:05:34.828Z</time></trkpt><trkpt lat="44.8835018" lon="8.2154947"><ele>113.2</ele><time>2026-04-10T13:05:35.829Z</time></trkpt><trkpt lat="44.8834739" lon="8.2156612"><ele>113.0</ele><time>2026-04-10T13:05:37.829Z</time></trkpt><trkpt lat="44.8834602" lon="8.2158376"><ele>113.0</ele><time>2026-04-10T13:05:39.828Z</time></trkpt><trkpt lat="44.8834511" lon="8.2160087"><ele>113.00000000000001</ele><time>2026-04-10T13:05:41.829Z</time></trkpt><trkpt lat="44.8834486" lon="8.2161087"><ele>113.00000000000001</ele><time>2026-04-10T13:05:42.828Z</time></trkpt><trkpt lat="44.8834367" lon="8.2162925"><ele>113.0</ele><time>2026-04-10T13:05:44.83Z</time></trkpt><trkpt lat="44.8834287" lon="8.2163827"><ele>113.0</ele><time>2026-04-10T13:05:45.829Z</time></trkpt><trkpt lat="44.8834233" lon="8.2164785"><ele>113.4</ele><time>2026-04-10T13:05:46.829Z</time></trkpt><trkpt lat="44.8834069" lon="8.2166528"><ele>113.80000000000001</ele><time>2026-04-10T13:05:48.828Z</time></trkpt><trkpt lat="44.8833758" lon="8.2168078"><ele>114.2</ele><time>2026-04-10T13:05:50.829Z</time></trkpt><trkpt lat="44.883325" lon="8.2169645"><ele>114.6</ele><time>2026-04-10T13:05:52.829Z</time></trkpt><trkpt lat="44.8832972" lon="8.2170444"><ele>115.0</ele><time>2026-04-10T13:05:53.828Z</time></trkpt><trkpt lat="44.8832357" lon="8.2171943"><ele>114.75</ele><time>2026-04-10T13:05:55.828Z</time></trkpt><trkpt lat="44.8831767" lon="8.2173483"><ele>114.5</ele><time>2026-04-10T13:05:57.829Z</time></trkpt><trkpt lat="44.8831172" lon="8.2175042"><ele>114.25</ele><time>2026-04-10T13:05:59.829Z</time></trkpt><trkpt lat="44.8830591" lon="8.2176584"><ele>114.0</ele><time>2026-04-10T13:06:01.828Z</time></trkpt><trkpt lat="44.8830102" lon="8.217817"><ele>114.0</ele><time>2026-04-10T13:06:03.83Z</time></trkpt><trkpt lat="44.8829846" lon="8.2178983"><ele>114.0</ele><time>2026-04-10T13:06:04.829Z</time></trkpt><trkpt lat="44.8829355" lon="8.2180568"><ele>114.0</ele><time>2026-04-10T13:06:06.829Z</time></trkpt><trkpt lat="44.8828917" lon="8.218222"><ele>114.0</ele><time>2026-04-10T13:06:08.83Z</time></trkpt><trkpt lat="44.8828496" lon="8.2183709"><ele>114.0</ele><time>2026-04-10T13:06:10.829Z</time></trkpt><trkpt lat="44.8828286" lon="8.2184564"><ele>114.25</ele><time>2026-04-10T13:06:11.828Z</time></trkpt><trkpt lat="44.8827872" lon="8.2186178"><ele>114.5</ele><time>2026-04-10T13:06:13.828Z</time></trkpt><trkpt lat="44.8827477" lon="8.2187741"><ele>114.75</ele><time>2026-04-10T13:06:15.83Z</time></trkpt><trkpt lat="44.882708" lon="8.2189187"><ele>115.0</ele><time>2026-04-10T13:06:17.829Z</time></trkpt><trkpt lat="44.8826609" lon="8.2190678"><ele>115.25</ele><time>2026-04-10T13:06:19.83Z</time></trkpt><trkpt lat="44.882611" lon="8.2192202"><ele>115.5</ele><time>2026-04-10T13:06:21.829Z</time></trkpt><trkpt lat="44.8825683" lon="8.2193751"><ele>115.75</ele><time>2026-04-10T13:06:23.829Z</time></trkpt><trkpt lat="44.8825179" lon="8.2195307"><ele>116.0</ele><time>2026-04-10T13:06:25.828Z</time></trkpt><trkpt lat="44.8824613" lon="8.2196822"><ele>116.4</ele><time>2026-04-10T13:06:27.829Z</time></trkpt><trkpt lat="44.8824152" lon="8.2198323"><ele>116.8</ele><time>2026-04-10T13:06:29.828Z</time></trkpt><trkpt lat="44.8823777" lon="8.2199842"><ele>117.20000000000002</ele><time>2026-04-10T13:06:31.829Z</time></trkpt><trkpt lat="44.8823421" lon="8.2201467"><ele>117.60000000000001</ele><time>2026-04-10T13:06:33.828Z</time></trkpt><trkpt lat="44.8823274" lon="8.2202366"><ele>118.0</ele><time>2026-04-10T13:06:34.829Z</time></trkpt><trkpt lat="44.8823193" lon="8.2204109"><ele>118.0</ele><time>2026-04-10T13:06:36.828Z</time></trkpt><trkpt lat="44.8823223" lon="8.2205757"><ele>118.0</ele><time>2026-04-10T13:06:38.828Z</time></trkpt><trkpt lat="44.882323" lon="8.2207497"><ele>118.0</ele><time>2026-04-10T13:06:40.829Z</time></trkpt><trkpt lat="44.882319" lon="8.220912"><ele>118.0</ele><time>2026-04-10T13:06:42.829Z</time></trkpt><trkpt lat="44.8823167" lon="8.2210773"><ele>118.0</ele><time>2026-04-10T13:06:44.829Z</time></trkpt><trkpt lat="44.8823059" lon="8.2212155"><ele>118.0</ele><time>2026-04-10T13:06:46.828Z</time></trkpt><trkpt lat="44.882297" lon="8.221384"><ele>118.0</ele><time>2026-04-10T13:06:48.829Z</time></trkpt><trkpt lat="44.8822823" lon="8.2215543"><ele>118.0</ele><time>2026-04-10T13:06:50.828Z</time></trkpt><trkpt lat="44.8822711" lon="8.2217229"><ele>117.75</ele><time>2026-04-10T13:06:52.829Z</time></trkpt><trkpt lat="44.8822622" lon="8.2218891"><ele>117.5</ele><time>2026-04-10T13:06:54.828Z</time></trkpt><trkpt lat="44.8822581" lon="8.2220631"><ele>117.25</ele><time>2026-04-10T13:06:56.829Z</time></trkpt><trkpt lat="44.8822514" lon="8.222233"><ele>117.0</ele><time>2026-04-10T13:06:58.829Z</time></trkpt><trkpt lat="44.8822457" lon="8.2223913"><ele>116.8</ele><time>2026-04-10T13:07:00.829Z</time></trkpt><trkpt lat="44.8822549" lon="8.2225549"><ele>116.6</ele><time>2026-04-10T13:07:02.828Z</time></trkpt><trkpt lat="44.8823225" lon="8.2226695"><ele>116.39999999999999</ele><time>2026-04-10T13:07:04.83Z</time></trkpt><trkpt lat="44.8824142" lon="8.2226971"><ele>116.19999999999999</ele><time>2026-04-10T13:07:06.827Z</time></trkpt><trkpt lat="44.8825085" lon="8.2226971"><ele>116.0</ele><time>2026-04-10T13:07:08.829Z</time></trkpt><trkpt lat="44.8825654" lon="8.2227923"><ele>116.0</ele><time>2026-04-10T13:07:10.828Z</time></trkpt><trkpt lat="44.8825688" lon="8.2229158"><ele>116.0</ele><time>2026-04-10T13:07:12.829Z</time></trkpt><trkpt lat="44.8825463" lon="8.2230511"><ele>116.0</ele><time>2026-04-10T13:07:14.829Z</time></trkpt><trkpt lat="44.8825423" lon="8.2231994"><ele>116.0</ele><time>2026-04-10T13:07:16.828Z</time></trkpt><trkpt lat="44.8825318" lon="8.2233449"><ele>116.0</ele><time>2026-04-10T13:07:18.829Z</time></trkpt><trkpt lat="44.8825133" lon="8.2234981"><ele>116.0</ele><time>2026-04-10T13:07:20.827Z</time></trkpt><trkpt lat="44.882496" lon="8.2236403"><ele>116.0</ele><time>2026-04-10T13:07:22.828Z</time></trkpt><trkpt lat="44.882467" lon="8.2238012"><ele>116.0</ele><time>2026-04-10T13:07:24.828Z</time></trkpt><trkpt lat="44.8824292" lon="8.223949"><ele>116.0</ele><time>2026-04-10T13:07:26.828Z</time></trkpt><trkpt lat="44.8823871" lon="8.2240908"><ele>116.0</ele><time>2026-04-10T13:07:28.829Z</time></trkpt><trkpt lat="44.8823418" lon="8.2242151"><ele>115.99999999999999</ele><time>2026-04-10T13:07:30.829Z</time></trkpt><trkpt lat="44.8822829" lon="8.2243155"><ele>116.0</ele><time>2026-04-10T13:07:32.83Z</time></trkpt><trkpt lat="44.8822209" lon="8.2244161"><ele>116.0</ele><time>2026-04-10T13:07:34.829Z</time></trkpt><trkpt lat="44.8821742" lon="8.2245003"><ele>116.0</ele><time>2026-04-10T13:07:36.829Z</time></trkpt><trkpt lat="44.8821287" lon="8.2246047"><ele>115.99999999999999</ele><time>2026-04-10T13:07:38.828Z</time></trkpt><trkpt lat="44.8820711" lon="8.2247059"><ele>116.0</ele><time>2026-04-10T13:07:40.828Z</time></trkpt><trkpt lat="44.8820169" lon="8.2248249"><ele>116.19999999999999</ele><time>2026-04-10T13:07:42.829Z</time></trkpt><trkpt lat="44.8819644" lon="8.2249326"><ele>116.39999999999999</ele><time>2026-04-10T13:07:44.829Z</time></trkpt><trkpt lat="44.8819002" lon="8.2250426"><ele>116.6</ele><time>2026-04-10T13:07:46.828Z</time></trkpt><trkpt lat="44.8818351" lon="8.2251468"><ele>116.8</ele><time>2026-04-10T13:07:48.828Z</time></trkpt><trkpt lat="44.8817702" lon="8.2252591"><ele>117.0</ele><time>2026-04-10T13:07:50.83Z</time></trkpt><trkpt lat="44.8817001" lon="8.2253716"><ele>117.0</ele><time>2026-04-10T13:07:52.827Z</time></trkpt><trkpt lat="44.8816376" lon="8.2254884"><ele>116.99999999999999</ele><time>2026-04-10T13:07:54.829Z</time></trkpt><trkpt lat="44.881576" lon="8.2255895"><ele>116.99999999999999</ele><time>2026-04-10T13:07:56.828Z</time></trkpt><trkpt lat="44.8815145" lon="8.2256993"><ele>117.0</ele><time>2026-04-10T13:07:58.829Z</time></trkpt><trkpt lat="44.8814484" lon="8.2258085"><ele>117.0</ele><time>2026-04-10T13:08:00.828Z</time></trkpt><trkpt lat="44.8813915" lon="8.2259152"><ele>117.0</ele><time>2026-04-10T13:08:02.829Z</time></trkpt><trkpt lat="44.8813376" lon="8.2260116"><ele>117.0</ele><time>2026-04-10T13:08:04.829Z</time></trkpt><trkpt lat="44.8813029" lon="8.2261125"><ele>117.0</ele><time>2026-04-10T13:08:06.828Z</time></trkpt><trkpt lat="44.8812645" lon="8.2262257"><ele>117.0</ele><time>2026-04-10T13:08:08.828Z</time></trkpt><trkpt lat="44.8812378" lon="8.2263419"><ele>117.0</ele><time>2026-04-10T13:08:10.828Z</time></trkpt><trkpt lat="44.8812283" lon="8.2264635"><ele>117.0</ele><time>2026-04-10T13:08:12.829Z</time></trkpt><trkpt lat="44.881216" lon="8.2265948"><ele>117.16666666666667</ele><time>2026-04-10T13:08:14.828Z</time></trkpt><trkpt lat="44.881207" lon="8.2267247"><ele>117.33333333333334</ele><time>2026-04-10T13:08:16.827Z</time></trkpt><trkpt lat="44.8811941" lon="8.2268591"><ele>117.5</ele><time>2026-04-10T13:08:18.829Z</time></trkpt><trkpt lat="44.8811871" lon="8.226974"><ele>117.66666666666667</ele><time>2026-04-10T13:08:20.828Z</time></trkpt><trkpt lat="44.8811723" lon="8.2270708"><ele>117.83333333333334</ele><time>2026-04-10T13:08:22.829Z</time></trkpt><trkpt lat="44.8811702" lon="8.2271668"><ele>118.0</ele><time>2026-04-10T13:09:30.828Z</time></trkpt><trkpt lat="44.881172" lon="8.2272758"><ele>117.80000000000001</ele><time>2026-04-10T13:09:33.828Z</time></trkpt><trkpt lat="44.8811617" lon="8.2274507"><ele>117.60000000000001</ele><time>2026-04-10T13:09:36.83Z</time></trkpt><trkpt lat="44.8811568" lon="8.2275846"><ele>117.39999999999999</ele><time>2026-04-10T13:09:38.83Z</time></trkpt><trkpt lat="44.8811512" lon="8.2277171"><ele>117.19999999999999</ele><time>2026-04-10T13:09:40.828Z</time></trkpt><trkpt lat="44.8811498" lon="8.2278632"><ele>117.0</ele><time>2026-04-10T13:09:42.828Z</time></trkpt><trkpt lat="44.8811422" lon="8.228021"><ele>117.0</ele><time>2026-04-10T13:09:44.828Z</time></trkpt><trkpt lat="44.8811266" lon="8.2281729"><ele>116.99999999999999</ele><time>2026-04-10T13:09:46.828Z</time></trkpt><trkpt lat="44.8811248" lon="8.2283107"><ele>116.99999999999999</ele><time>2026-04-10T13:09:48.828Z</time></trkpt><trkpt lat="44.8811341" lon="8.2284567"><ele>117.0</ele><time>2026-04-10T13:09:50.827Z</time></trkpt><trkpt lat="44.8811548" lon="8.2285975"><ele>117.0</ele><time>2026-04-10T13:09:52.829Z</time></trkpt><trkpt lat="44.8811955" lon="8.2287216"><ele>117.0</ele><time>2026-04-10T13:09:54.829Z</time></trkpt><trkpt lat="44.8812262" lon="8.2288363"><ele>117.0</ele><time>2026-04-10T13:09:56.828Z</time></trkpt><trkpt lat="44.8812431" lon="8.2289552"><ele>117.0</ele><time>2026-04-10T13:09:58.828Z</time></trkpt><trkpt lat="44.8812062" lon="8.229086"><ele>117.0</ele><time>2026-04-10T13:10:00.829Z</time></trkpt><trkpt lat="44.8811433" lon="8.2291741"><ele>117.0</ele><time>2026-04-10T13:10:02.827Z</time></trkpt><trkpt lat="44.8810768" lon="8.2292207"><ele>117.0</ele><time>2026-04-10T13:10:04.829Z</time></trkpt><trkpt lat="44.8810029" lon="8.2292508"><ele>117.39999999999999</ele><time>2026-04-10T13:10:06.829Z</time></trkpt><trkpt lat="44.8809063" lon="8.2292729"><ele>117.79999999999998</ele><time>2026-04-10T13:10:08.829Z</time></trkpt><trkpt lat="44.8807673" lon="8.229293"><ele>118.2</ele><time>2026-04-10T13:10:11.829Z</time></trkpt><trkpt lat="44.8806704" lon="8.2292944"><ele>118.6</ele><time>2026-04-10T13:10:13.829Z</time></trkpt><trkpt lat="44.8805875" lon="8.2292987"><ele>119.0</ele><time>2026-04-10T13:10:15.829Z</time></trkpt><trkpt lat="44.8804918" lon="8.2293165"><ele>119.0</ele><time>2026-04-10T13:10:17.827Z</time></trkpt><trkpt lat="44.8803957" lon="8.2293303"><ele>119.0</ele><time>2026-04-10T13:10:19.829Z</time></trkpt><trkpt lat="44.8803036" lon="8.2293407"><ele>119.0</ele><time>2026-04-10T13:10:21.829Z</time></trkpt><trkpt lat="44.8802128" lon="8.2293345"><ele>119.0</ele><time>2026-04-10T13:10:23.827Z</time></trkpt><trkpt lat="44.8801067" lon="8.2293434"><ele>119.0</ele><time>2026-04-10T13:10:25.829Z</time></trkpt><trkpt lat="44.8800022" lon="8.2293483"><ele>118.80000000000001</ele><time>2026-04-10T13:10:27.829Z</time></trkpt><trkpt lat="44.8799087" lon="8.2293586"><ele>118.60000000000001</ele><time>2026-04-10T13:10:29.828Z</time></trkpt><trkpt lat="44.8798168" lon="8.2293638"><ele>118.4</ele><time>2026-04-10T13:10:31.828Z</time></trkpt><trkpt lat="44.8797279" lon="8.2293792"><ele>118.2</ele><time>2026-04-10T13:10:33.828Z</time></trkpt><trkpt lat="44.8796346" lon="8.22939"><ele>118.0</ele><time>2026-04-10T13:10:35.828Z</time></trkpt><trkpt lat="44.8795288" lon="8.2294034"><ele>118.0</ele><time>2026-04-10T13:10:37.828Z</time></trkpt><trkpt lat="44.8794289" lon="8.2294219"><ele>118.00000000000001</ele><time>2026-04-10T13:10:39.827Z</time></trkpt><trkpt lat="44.8793278" lon="8.2294258"><ele>118.00000000000001</ele><time>2026-04-10T13:10:41.828Z</time></trkpt><trkpt lat="44.8792264" lon="8.2294296"><ele>118.0</ele><time>2026-04-10T13:10:43.827Z</time></trkpt><trkpt lat="44.8791197" lon="8.2294419"><ele>118.0</ele><time>2026-04-10T13:10:45.828Z</time></trkpt><trkpt lat="44.8790156" lon="8.2294537"><ele>118.4</ele><time>2026-04-10T13:10:47.827Z</time></trkpt><trkpt lat="44.8789093" lon="8.2294615"><ele>118.80000000000001</ele><time>2026-04-10T13:10:49.828Z</time></trkpt><trkpt lat="44.8788094" lon="8.2294746"><ele>119.2</ele><time>2026-04-10T13:10:51.828Z</time></trkpt><trkpt lat="44.8787026" lon="8.2294892"><ele>119.6</ele><time>2026-04-10T13:10:53.827Z</time></trkpt><trkpt lat="44.8785886" lon="8.2294956"><ele>120.0</ele><time>2026-04-10T13:10:55.828Z</time></trkpt><trkpt lat="44.8784913" lon="8.229505"><ele>120.16666666666667</ele><time>2026-04-10T13:10:57.827Z</time></trkpt><trkpt lat="44.8783874" lon="8.2295201"><ele>120.33333333333334</ele><time>2026-04-10T13:10:59.829Z</time></trkpt><trkpt lat="44.8782929" lon="8.2295278"><ele>120.5</ele><time>2026-04-10T13:11:01.828Z</time></trkpt><trkpt lat="44.8782211" lon="8.2295369"><ele>120.66666666666667</ele><time>2026-04-10T13:11:03.828Z</time></trkpt><trkpt lat="44.8781364" lon="8.2295474"><ele>120.83333333333334</ele><time>2026-04-10T13:11:05.828Z</time></trkpt><trkpt lat="44.878045" lon="8.2295565"><ele>121.0</ele><time>2026-04-10T13:11:07.827Z</time></trkpt><trkpt lat="44.8779527" lon="8.2295628"><ele>121.00000000000001</ele><time>2026-04-10T13:11:09.827Z</time></trkpt><trkpt lat="44.8778584" lon="8.2295795"><ele>121.0</ele><time>2026-04-10T13:11:11.828Z</time></trkpt><trkpt lat="44.8777684" lon="8.229586"><ele>121.0</ele><time>2026-04-10T13:11:13.827Z</time></trkpt><trkpt lat="44.8776813" lon="8.2296023"><ele>121.0</ele><time>2026-04-10T13:11:15.829Z</time></trkpt><trkpt lat="44.8775953" lon="8.2296248"><ele>121.00000000000001</ele><time>2026-04-10T13:11:17.829Z</time></trkpt><trkpt lat="44.8775353" lon="8.2296934"><ele>121.0</ele><time>2026-04-10T13:11:19.827Z</time></trkpt><trkpt lat="44.8774892" lon="8.2297991"><ele>121.6</ele><time>2026-04-10T13:11:21.828Z</time></trkpt><trkpt lat="44.8774202" lon="8.229896"><ele>122.19999999999999</ele><time>2026-04-10T13:11:23.829Z</time></trkpt><trkpt lat="44.8773469" lon="8.2299905"><ele>122.80000000000001</ele><time>2026-04-10T13:11:25.829Z</time></trkpt><trkpt lat="44.877276" lon="8.2301016"><ele>123.4</ele><time>2026-04-10T13:11:27.828Z</time></trkpt><trkpt lat="44.8772088" lon="8.2301932"><ele>124.0</ele><time>2026-04-10T13:11:29.828Z</time></trkpt><trkpt lat="44.8771429" lon="8.2303091"><ele>124.0</ele><time>2026-04-10T13:11:31.827Z</time></trkpt><trkpt lat="44.8770931" lon="8.2304363"><ele>124.0</ele><time>2026-04-10T13:11:33.827Z</time></trkpt><trkpt lat="44.8770584" lon="8.2305852"><ele>124.0</ele><time>2026-04-10T13:11:35.827Z</time></trkpt><trkpt lat="44.8770407" lon="8.2306728"><ele>124.0</ele><time>2026-04-10T13:11:36.827Z</time></trkpt><trkpt lat="44.8770083" lon="8.2308364"><ele>124.0</ele><time>2026-04-10T13:11:38.828Z</time></trkpt><trkpt lat="44.8769576" lon="8.2309788"><ele>124.4</ele><time>2026-04-10T13:11:40.828Z</time></trkpt><trkpt lat="44.8769002" lon="8.2311172"><ele>124.80000000000001</ele><time>2026-04-10T13:11:42.829Z</time></trkpt><trkpt lat="44.8768433" lon="8.2312649"><ele>125.19999999999999</ele><time>2026-04-10T13:11:44.827Z</time></trkpt><trkpt lat="44.8768052" lon="8.2313452"><ele>125.6</ele><time>2026-04-10T13:11:45.828Z</time></trkpt><trkpt lat="44.8767454" lon="8.231482"><ele>126.0</ele><time>2026-04-10T13:11:47.829Z</time></trkpt><trkpt lat="44.8766945" lon="8.2316144"><ele>126.0</ele><time>2026-04-10T13:11:49.827Z</time></trkpt><trkpt lat="44.8766429" lon="8.2317259"><ele>126.0</ele><time>2026-04-10T13:11:51.828Z</time></trkpt><trkpt lat="44.8766104" lon="8.2318183"><ele>126.0</ele><time>2026-04-10T13:11:53.828Z</time></trkpt><trkpt lat="44.8765749" lon="8.2319104"><ele>126.0</ele><time>2026-04-10T13:11:55.827Z</time></trkpt><trkpt lat="44.8764903" lon="8.2319766"><ele>126.0</ele><time>2026-04-10T13:11:57.828Z</time></trkpt><trkpt lat="44.876374" lon="8.2319562"><ele>126.0</ele><time>2026-04-10T13:11:59.828Z</time></trkpt><trkpt lat="44.8762576" lon="8.2319413"><ele>126.0</ele><time>2026-04-10T13:12:01.827Z</time></trkpt><trkpt lat="44.8761403" lon="8.2319364"><ele>126.0</ele><time>2026-04-10T13:12:03.829Z</time></trkpt><trkpt lat="44.8760238" lon="8.2319314"><ele>126.0</ele><time>2026-04-10T13:12:05.828Z</time></trkpt><trkpt lat="44.8759027" lon="8.2319294"><ele>126.0</ele><time>2026-04-10T13:12:07.828Z</time></trkpt><trkpt lat="44.8757835" lon="8.2319206"><ele>126.0</ele><time>2026-04-10T13:12:09.827Z</time></trkpt><trkpt lat="44.8756614" lon="8.2319111"><ele>126.0</ele><time>2026-04-10T13:12:11.828Z</time></trkpt><trkpt lat="44.8755443" lon="8.2319054"><ele>126.0</ele><time>2026-04-10T13:12:13.828Z</time></trkpt><trkpt lat="44.8754254" lon="8.2319117"><ele>126.0</ele><time>2026-04-10T13:12:15.828Z</time></trkpt><trkpt lat="44.8753032" lon="8.2319129"><ele>126.0</ele><time>2026-04-10T13:12:17.828Z</time></trkpt><trkpt lat="44.8751834" lon="8.2319248"><ele>126.0</ele><time>2026-04-10T13:12:19.828Z</time></trkpt><trkpt lat="44.8750604" lon="8.2319212"><ele>126.0</ele><time>2026-04-10T13:12:21.827Z</time></trkpt><trkpt lat="44.8749396" lon="8.2319283"><ele>126.75</ele><time>2026-04-10T13:12:23.828Z</time></trkpt><trkpt lat="44.8748165" lon="8.2319188"><ele>127.5</ele><time>2026-04-10T13:12:25.828Z</time></trkpt><trkpt lat="44.874696" lon="8.2319134"><ele>128.25</ele><time>2026-04-10T13:12:27.829Z</time></trkpt><trkpt lat="44.8745743" lon="8.2319137"><ele>129.0</ele><time>2026-04-10T13:12:29.829Z</time></trkpt><trkpt lat="44.8744557" lon="8.2319248"><ele>129.0</ele><time>2026-04-10T13:12:31.828Z</time></trkpt><trkpt lat="44.874334" lon="8.2319235"><ele>129.0</ele><time>2026-04-10T13:12:33.827Z</time></trkpt><trkpt lat="44.8742109" lon="8.2319209"><ele>129.0</ele><time>2026-04-10T13:12:35.828Z</time></trkpt><trkpt lat="44.8740901" lon="8.2319062"><ele>129.0</ele><time>2026-04-10T13:12:37.828Z</time></trkpt><trkpt lat="44.8739674" lon="8.2318799"><ele>129.0</ele><time>2026-04-10T13:12:39.828Z</time></trkpt><trkpt lat="44.8738452" lon="8.2318633"><ele>129.0</ele><time>2026-04-10T13:12:41.827Z</time></trkpt><trkpt lat="44.873725" lon="8.2318434"><ele>129.0</ele><time>2026-04-10T13:12:43.827Z</time></trkpt><trkpt lat="44.8736618" lon="8.2318347"><ele>129.0</ele><time>2026-04-10T13:12:44.828Z</time></trkpt><trkpt lat="44.8735453" lon="8.2318106"><ele>129.0</ele><time>2026-04-10T13:12:46.827Z</time></trkpt><trkpt lat="44.8734246" lon="8.2317843"><ele>129.0</ele><time>2026-04-10T13:12:48.829Z</time></trkpt><trkpt lat="44.8733577" lon="8.2317783"><ele>129.0</ele><time>2026-04-10T13:12:49.829Z</time></trkpt><trkpt lat="44.8732316" lon="8.2317579"><ele>129.0</ele><time>2026-04-10T13:12:51.829Z</time></trkpt><trkpt lat="44.8731107" lon="8.2317243"><ele>129.0</ele><time>2026-04-10T13:12:53.828Z</time></trkpt><trkpt lat="44.8729885" lon="8.2317224"><ele>129.0</ele><time>2026-04-10T13:12:55.827Z</time></trkpt><trkpt lat="44.8728652" lon="8.2317103"><ele>129.0</ele><time>2026-04-10T13:12:57.828Z</time></trkpt><trkpt lat="44.8727445" lon="8.231693"><ele>129.0</ele><time>2026-04-10T13:12:59.828Z</time></trkpt><trkpt lat="44.8726241" lon="8.2316745"><ele>129.0</ele><time>2026-04-10T13:13:01.828Z</time></trkpt><trkpt lat="44.8725083" lon="8.2316433"><ele>129.0</ele><time>2026-04-10T13:13:03.828Z</time></trkpt><trkpt lat="44.8723941" lon="8.2316114"><ele>128.75</ele><time>2026-04-10T13:13:05.828Z</time></trkpt><trkpt lat="44.8722734" lon="8.2315867"><ele>128.5</ele><time>2026-04-10T13:13:07.828Z</time></trkpt><trkpt lat="44.8721519" lon="8.2315741"><ele>128.25</ele><time>2026-04-10T13:13:09.828Z</time></trkpt><trkpt lat="44.8720265" lon="8.2315619"><ele>128.0</ele><time>2026-04-10T13:13:11.829Z</time></trkpt><trkpt lat="44.8719041" lon="8.23154"><ele>128.0</ele><time>2026-04-10T13:13:13.828Z</time></trkpt><trkpt lat="44.8717834" lon="8.231528"><ele>128.0</ele><time>2026-04-10T13:13:15.827Z</time></trkpt><trkpt lat="44.8716696" lon="8.2315158"><ele>128.0</ele><time>2026-04-10T13:13:17.828Z</time></trkpt><trkpt lat="44.8715465" lon="8.2314907"><ele>128.0</ele><time>2026-04-10T13:13:19.828Z</time></trkpt><trkpt lat="44.871427" lon="8.2314751"><ele>130.0</ele><time>2026-04-10T13:13:21.827Z</time></trkpt><trkpt lat="44.8713657" lon="8.2314535"><ele>132.0</ele><time>2026-04-10T13:13:22.827Z</time></trkpt><trkpt lat="44.8712494" lon="8.2314268"><ele>134.0</ele><time>2026-04-10T13:13:24.827Z</time></trkpt><trkpt lat="44.8711237" lon="8.2314043"><ele>136.0</ele><time>2026-04-10T13:13:26.827Z</time></trkpt><trkpt lat="44.871016" lon="8.2313777"><ele>138.0</ele><time>2026-04-10T13:13:28.827Z</time></trkpt><trkpt lat="44.8709003" lon="8.231359"><ele>138.20000000000002</ele><time>2026-04-10T13:13:30.827Z</time></trkpt><trkpt lat="44.8707918" lon="8.2313444"><ele>138.4</ele><time>2026-04-10T13:13:32.829Z</time></trkpt><trkpt lat="44.870691" lon="8.2313372"><ele>138.60000000000002</ele><time>2026-04-10T13:13:34.829Z</time></trkpt><trkpt lat="44.8705927" lon="8.2313195"><ele>138.8</ele><time>2026-04-10T13:13:36.827Z</time></trkpt><trkpt lat="44.8705028" lon="8.2313077"><ele>139.0</ele><time>2026-04-10T13:13:38.826Z</time></trkpt><trkpt lat="44.8704149" lon="8.2312857"><ele>139.0</ele><time>2026-04-10T13:13:40.828Z</time></trkpt><trkpt lat="44.8703291" lon="8.231262"><ele>139.0</ele><time>2026-04-10T13:13:42.828Z</time></trkpt><trkpt lat="44.870243" lon="8.2312441"><ele>139.0</ele><time>2026-04-10T13:13:44.829Z</time></trkpt><trkpt lat="44.8701413" lon="8.2312492"><ele>139.0</ele><time>2026-04-10T13:13:46.828Z</time></trkpt><trkpt lat="44.8700401" lon="8.2312314"><ele>139.0</ele><time>2026-04-10T13:13:48.827Z</time></trkpt><trkpt lat="44.8699246" lon="8.2312249"><ele>137.75</ele><time>2026-04-10T13:13:50.827Z</time></trkpt><trkpt lat="44.8698146" lon="8.2311968"><ele>136.5</ele><time>2026-04-10T13:13:52.827Z</time></trkpt><trkpt lat="44.8697035" lon="8.2311661"><ele>135.25</ele><time>2026-04-10T13:13:54.827Z</time></trkpt><trkpt lat="44.869591" lon="8.2311365"><ele>134.0</ele><time>2026-04-10T13:13:56.827Z</time></trkpt><trkpt lat="44.8694681" lon="8.2311173"><ele>134.0</ele><time>2026-04-10T13:13:58.828Z</time></trkpt><trkpt lat="44.8693534" lon="8.2311111"><ele>134.0</ele><time>2026-04-10T13:14:00.827Z</time></trkpt><trkpt lat="44.8692319" lon="8.2310969"><ele>134.0</ele><time>2026-04-10T13:14:02.827Z</time></trkpt><trkpt lat="44.8691036" lon="8.231107"><ele>134.0</ele><time>2026-04-10T13:14:04.827Z</time></trkpt><trkpt lat="44.8690396" lon="8.2311063"><ele>134.0</ele><time>2026-04-10T13:14:05.827Z</time></trkpt><trkpt lat="44.8689756" lon="8.2311159"><ele>134.0</ele><time>2026-04-10T13:14:06.829Z</time></trkpt><trkpt lat="44.868851" lon="8.2311319"><ele>134.0</ele><time>2026-04-10T13:14:08.827Z</time></trkpt><trkpt lat="44.8687876" lon="8.2311397"><ele>134.0</ele><time>2026-04-10T13:14:09.828Z</time></trkpt><trkpt lat="44.8687237" lon="8.2311492"><ele>134.0</ele><time>2026-04-10T13:14:10.828Z</time></trkpt><trkpt lat="44.8686573" lon="8.2311636"><ele>134.0</ele><time>2026-04-10T13:14:11.828Z</time></trkpt><trkpt lat="44.8685344" lon="8.2312026"><ele>134.0</ele><time>2026-04-10T13:14:13.828Z</time></trkpt><trkpt lat="44.8684685" lon="8.2312207"><ele>134.0</ele><time>2026-04-10T13:14:14.828Z</time></trkpt><trkpt lat="44.8684066" lon="8.2312374"><ele>134.0</ele><time>2026-04-10T13:14:15.828Z</time></trkpt><trkpt lat="44.8682766" lon="8.231247"><ele>134.0</ele><time>2026-04-10T13:14:17.827Z</time></trkpt><trkpt lat="44.8682122" lon="8.2312462"><ele>134.0</ele><time>2026-04-10T13:14:18.829Z</time></trkpt><trkpt lat="44.8680991" lon="8.2312022"><ele>134.0</ele><time>2026-04-10T13:14:20.827Z</time></trkpt><trkpt lat="44.8680337" lon="8.2311885"><ele>134.0</ele><time>2026-04-10T13:14:21.827Z</time></trkpt><trkpt lat="44.867971" lon="8.2311574"><ele>134.0</ele><time>2026-04-10T13:14:22.826Z</time></trkpt><trkpt lat="44.8679147" lon="8.2311171"><ele>134.0</ele><time>2026-04-10T13:14:23.827Z</time></trkpt><trkpt lat="44.8678557" lon="8.2310769"><ele>134.0</ele><time>2026-04-10T13:14:24.829Z</time></trkpt><trkpt lat="44.8677487" lon="8.2309946"><ele>134.0</ele><time>2026-04-10T13:14:26.829Z</time></trkpt><trkpt lat="44.8676434" lon="8.2308961"><ele>134.0</ele><time>2026-04-10T13:14:28.828Z</time></trkpt><trkpt lat="44.8675874" lon="8.2308531"><ele>134.0</ele><time>2026-04-10T13:14:29.828Z</time></trkpt><trkpt lat="44.8674823" lon="8.2307621"><ele>133.6</ele><time>2026-04-10T13:14:31.829Z</time></trkpt><trkpt lat="44.8673763" lon="8.230666"><ele>133.2</ele><time>2026-04-10T13:14:33.828Z</time></trkpt><trkpt lat="44.867323" lon="8.2306169"><ele>132.79999999999998</ele><time>2026-04-10T13:14:34.829Z</time></trkpt><trkpt lat="44.8672672" lon="8.2305577"><ele>132.4</ele><time>2026-04-10T13:14:35.828Z</time></trkpt><trkpt lat="44.8671504" lon="8.2304848"><ele>132.0</ele><time>2026-04-10T13:14:37.828Z</time></trkpt><trkpt lat="44.8670896" lon="8.2304471"><ele>132.4</ele><time>2026-04-10T13:14:38.828Z</time></trkpt><trkpt lat="44.8670246" lon="8.2304213"><ele>132.79999999999998</ele><time>2026-04-10T13:14:39.828Z</time></trkpt><trkpt lat="44.8669137" lon="8.2303862"><ele>133.2</ele><time>2026-04-10T13:14:41.827Z</time></trkpt><trkpt lat="44.8668148" lon="8.2303642"><ele>133.6</ele><time>2026-04-10T13:14:43.829Z</time></trkpt><trkpt lat="44.8667408" lon="8.2302995"><ele>134.0</ele><time>2026-04-10T13:14:45.828Z</time></trkpt><trkpt lat="44.8666944" lon="8.2301966"><ele>134.0</ele><time>2026-04-10T13:14:47.829Z</time></trkpt><trkpt lat="44.8666391" lon="8.2300718"><ele>134.0</ele><time>2026-04-10T13:14:49.828Z</time></trkpt><trkpt lat="44.8665843" lon="8.2299478"><ele>134.0</ele><time>2026-04-10T13:14:51.827Z</time></trkpt><trkpt lat="44.8665354" lon="8.2298241"><ele>134.0</ele><time>2026-04-10T13:14:53.828Z</time></trkpt><trkpt lat="44.8664722" lon="8.2296904"><ele>134.0</ele><time>2026-04-10T13:14:55.826Z</time></trkpt><trkpt lat="44.8664338" lon="8.2295577"><ele>135.0</ele><time>2026-04-10T13:14:57.828Z</time></trkpt><trkpt lat="44.8663865" lon="8.2294266"><ele>136.0</ele><time>2026-04-10T13:14:59.827Z</time></trkpt><trkpt lat="44.8663336" lon="8.2293107"><ele>137.0</ele><time>2026-04-10T13:15:01.828Z</time></trkpt><trkpt lat="44.8662797" lon="8.2292104"><ele>138.0</ele><time>2026-04-10T13:15:03.828Z</time></trkpt><trkpt lat="44.8662226" lon="8.2290924"><ele>139.0</ele><time>2026-04-10T13:15:05.827Z</time></trkpt><trkpt lat="44.8661661" lon="8.2289697"><ele>138.4</ele><time>2026-04-10T13:15:07.826Z</time></trkpt><trkpt lat="44.8661118" lon="8.2288495"><ele>137.8</ele><time>2026-04-10T13:15:09.828Z</time></trkpt><trkpt lat="44.8660485" lon="8.2287361"><ele>137.2</ele><time>2026-04-10T13:15:11.828Z</time></trkpt><trkpt lat="44.8659921" lon="8.2286219"><ele>136.6</ele><time>2026-04-10T13:15:13.828Z</time></trkpt><trkpt lat="44.8659595" lon="8.228545"><ele>136.0</ele><time>2026-04-10T13:15:14.827Z</time></trkpt><trkpt lat="44.8659028" lon="8.2284153"><ele>136.0</ele><time>2026-04-10T13:15:16.828Z</time></trkpt><trkpt lat="44.8658496" lon="8.2282781"><ele>136.0</ele><time>2026-04-10T13:15:18.828Z</time></trkpt><trkpt lat="44.8657852" lon="8.2281358"><ele>136.0</ele><time>2026-04-10T13:15:20.828Z</time></trkpt><trkpt lat="44.8657293" lon="8.228004"><ele>136.0</ele><time>2026-04-10T13:15:22.828Z</time></trkpt><trkpt lat="44.8656589" lon="8.2278489"><ele>137.2</ele><time>2026-04-10T13:15:24.827Z</time></trkpt><trkpt lat="44.8655977" lon="8.2277106"><ele>138.39999999999998</ele><time>2026-04-10T13:15:26.827Z</time></trkpt><trkpt lat="44.8655659" lon="8.2276323"><ele>139.6</ele><time>2026-04-10T13:15:27.827Z</time></trkpt><trkpt lat="44.8654998" lon="8.2274847"><ele>140.79999999999998</ele><time>2026-04-10T13:15:29.826Z</time></trkpt><trkpt lat="44.8654503" lon="8.2273226"><ele>142.0</ele><time>2026-04-10T13:15:31.826Z</time></trkpt><trkpt lat="44.8653977" lon="8.2271872"><ele>141.0</ele><time>2026-04-10T13:15:33.827Z</time></trkpt><trkpt lat="44.8653385" lon="8.2270517"><ele>140.0</ele><time>2026-04-10T13:15:35.827Z</time></trkpt><trkpt lat="44.865272" lon="8.2269007"><ele>139.0</ele><time>2026-04-10T13:15:37.827Z</time></trkpt><trkpt lat="44.865235" lon="8.2268246"><ele>138.0</ele><time>2026-04-10T13:15:38.829Z</time></trkpt><trkpt lat="44.8651993" lon="8.2267463"><ele>137.0</ele><time>2026-04-10T13:15:39.829Z</time></trkpt><trkpt lat="44.8651549" lon="8.2266812"><ele>136.0</ele><time>2026-04-10T13:15:40.828Z</time></trkpt><trkpt lat="44.8650748" lon="8.2265543"><ele>138.0</ele><time>2026-04-10T13:15:42.828Z</time></trkpt><trkpt lat="44.8650036" lon="8.2264389"><ele>140.0</ele><time>2026-04-10T13:15:44.827Z</time></trkpt><trkpt lat="44.8649286" lon="8.2263089"><ele>142.0</ele><time>2026-04-10T13:15:46.827Z</time></trkpt><trkpt lat="44.864855" lon="8.2261856"><ele>144.0</ele><time>2026-04-10T13:15:48.828Z</time></trkpt><trkpt lat="44.8647861" lon="8.2260615"><ele>144.0</ele><time>2026-04-10T13:15:50.828Z</time></trkpt><trkpt lat="44.8647084" lon="8.2259194"><ele>144.0</ele><time>2026-04-10T13:15:52.826Z</time></trkpt><trkpt lat="44.864664" lon="8.2258521"><ele>144.0</ele><time>2026-04-10T13:15:53.829Z</time></trkpt><trkpt lat="44.8646167" lon="8.2257811"><ele>144.0</ele><time>2026-04-10T13:15:54.826Z</time></trkpt><trkpt lat="44.8645433" lon="8.2256483"><ele>144.0</ele><time>2026-04-10T13:15:56.826Z</time></trkpt><trkpt lat="44.8644658" lon="8.22551"><ele>143.16666666666666</ele><time>2026-04-10T13:15:58.826Z</time></trkpt><trkpt lat="44.8644211" lon="8.2254397"><ele>142.33333333333334</ele><time>2026-04-10T13:15:59.826Z</time></trkpt><trkpt lat="44.8643812" lon="8.2253627"><ele>141.5</ele><time>2026-04-10T13:16:00.826Z</time></trkpt><trkpt lat="44.864329" lon="8.2252834"><ele>140.66666666666669</ele><time>2026-04-10T13:16:01.827Z</time></trkpt><trkpt lat="44.8642469" lon="8.2251591"><ele>139.83333333333334</ele><time>2026-04-10T13:16:03.829Z</time></trkpt><trkpt lat="44.8642047" lon="8.2250899"><ele>139.0</ele><time>2026-04-10T13:16:04.827Z</time></trkpt><trkpt lat="44.8641554" lon="8.2250134"><ele>139.0</ele><time>2026-04-10T13:16:05.829Z</time></trkpt><trkpt lat="44.8641111" lon="8.2249453"><ele>139.0</ele><time>2026-04-10T13:16:06.827Z</time></trkpt><trkpt lat="44.8639884" lon="8.2247677"><ele>139.0</ele><time>2026-04-10T13:16:09.827Z</time></trkpt><trkpt lat="44.8638959" lon="8.2246035"><ele>139.0</ele><time>2026-04-10T13:16:11.826Z</time></trkpt><trkpt lat="44.8638509" lon="8.2245285"><ele>139.83333333333334</ele><time>2026-04-10T13:16:12.827Z</time></trkpt><trkpt lat="44.863777" lon="8.2244026"><ele>140.66666666666669</ele><time>2026-04-10T13:16:14.828Z</time></trkpt><trkpt lat="44.8637325" lon="8.2243384"><ele>141.5</ele><time>2026-04-10T13:16:15.828Z</time></trkpt><trkpt lat="44.8636835" lon="8.224263"><ele>142.33333333333334</ele><time>2026-04-10T13:16:16.827Z</time></trkpt><trkpt lat="44.863641" lon="8.2241954"><ele>143.16666666666666</ele><time>2026-04-10T13:16:17.826Z</time></trkpt><trkpt lat="44.8635987" lon="8.2241159"><ele>144.0</ele><time>2026-04-10T13:16:18.828Z</time></trkpt><trkpt lat="44.8635289" lon="8.2239763"><ele>143.2857142857143</ele><time>2026-04-10T13:16:20.826Z</time></trkpt><trkpt lat="44.8634863" lon="8.2238909"><ele>142.57142857142858</ele><time>2026-04-10T13:16:21.827Z</time></trkpt><trkpt lat="44.8634398" lon="8.2238103"><ele>141.85714285714286</ele><time>2026-04-10T13:16:22.828Z</time></trkpt><trkpt lat="44.863382" lon="8.2237307"><ele>141.14285714285717</ele><time>2026-04-10T13:16:23.828Z</time></trkpt><trkpt lat="44.86333" lon="8.2236527"><ele>140.42857142857144</ele><time>2026-04-10T13:16:24.827Z</time></trkpt><trkpt lat="44.8632837" lon="8.2235913"><ele>139.71428571428572</ele><time>2026-04-10T13:16:25.826Z</time></trkpt><trkpt lat="44.8632305" lon="8.2235125"><ele>139.0</ele><time>2026-04-10T13:16:26.827Z</time></trkpt><trkpt lat="44.863131" lon="8.2233735"><ele>139.0</ele><time>2026-04-10T13:16:28.827Z</time></trkpt><trkpt lat="44.8630813" lon="8.2232875"><ele>139.0</ele><time>2026-04-10T13:16:29.828Z</time></trkpt><trkpt lat="44.8630349" lon="8.223206"><ele>139.0</ele><time>2026-04-10T13:16:30.827Z</time></trkpt><trkpt lat="44.8629848" lon="8.2231253"><ele>139.0</ele><time>2026-04-10T13:16:31.827Z</time></trkpt><trkpt lat="44.8629364" lon="8.2230434"><ele>139.0</ele><time>2026-04-10T13:16:32.826Z</time></trkpt><trkpt lat="44.8628922" lon="8.222957"><ele>139.0</ele><time>2026-04-10T13:16:33.827Z</time></trkpt><trkpt lat="44.8628451" lon="8.2228914"><ele>139.0</ele><time>2026-04-10T13:16:34.829Z</time></trkpt><trkpt lat="44.8627941" lon="8.2228128"><ele>139.0</ele><time>2026-04-10T13:16:35.827Z</time></trkpt><trkpt lat="44.8627521" lon="8.2227368"><ele>139.0</ele><time>2026-04-10T13:16:36.827Z</time></trkpt><trkpt lat="44.8627038" lon="8.2226682"><ele>139.0</ele><time>2026-04-10T13:16:37.826Z</time></trkpt><trkpt lat="44.8626604" lon="8.2225889"><ele>139.0</ele><time>2026-04-10T13:16:38.827Z</time></trkpt><trkpt lat="44.8626123" lon="8.2225152"><ele>139.0</ele><time>2026-04-10T13:16:39.827Z</time></trkpt><trkpt lat="44.8625624" lon="8.222431"><ele>139.0</ele><time>2026-04-10T13:16:40.827Z</time></trkpt><trkpt lat="44.8625182" lon="8.2223565"><ele>139.0</ele><time>2026-04-10T13:16:41.828Z</time></trkpt><trkpt lat="44.8624781" lon="8.2222735"><ele>139.8</ele><time>2026-04-10T13:16:42.827Z</time></trkpt><trkpt lat="44.8624316" lon="8.2222092"><ele>140.60000000000002</ele><time>2026-04-10T13:16:43.827Z</time></trkpt><trkpt lat="44.8623858" lon="8.2221414"><ele>141.4</ele><time>2026-04-10T13:16:44.827Z</time></trkpt><trkpt lat="44.862296" lon="8.2220215"><ele>142.20000000000002</ele><time>2026-04-10T13:16:46.828Z</time></trkpt><trkpt lat="44.8622034" lon="8.221893"><ele>143.0</ele><time>2026-04-10T13:16:48.826Z</time></trkpt><trkpt lat="44.8621548" lon="8.2218198"><ele>142.99999999999997</ele><time>2026-04-10T13:16:49.827Z</time></trkpt><trkpt lat="44.8621073" lon="8.2217451"><ele>143.0</ele><time>2026-04-10T13:16:50.828Z</time></trkpt><trkpt lat="44.8620642" lon="8.2216704"><ele>143.0</ele><time>2026-04-10T13:16:51.828Z</time></trkpt><trkpt lat="44.8620266" lon="8.2215916"><ele>143.0</ele><time>2026-04-10T13:16:52.827Z</time></trkpt><trkpt lat="44.861987" lon="8.2215068"><ele>143.0</ele><time>2026-04-10T13:16:53.827Z</time></trkpt><trkpt lat="44.8619448" lon="8.2214313"><ele>142.99999999999997</ele><time>2026-04-10T13:16:54.827Z</time></trkpt><trkpt lat="44.8618968" lon="8.2213585"><ele>143.0</ele><time>2026-04-10T13:16:55.828Z</time></trkpt><trkpt lat="44.861794" lon="8.2212649"><ele>142.66666666666666</ele><time>2026-04-10T13:16:57.828Z</time></trkpt><trkpt lat="44.8617442" lon="8.2212093"><ele>142.33333333333331</ele><time>2026-04-10T13:16:58.827Z</time></trkpt><trkpt lat="44.861645" lon="8.2211229"><ele>142.0</ele><time>2026-04-10T13:17:00.827Z</time></trkpt><trkpt lat="44.8615586" lon="8.2210428"><ele>141.66666666666666</ele><time>2026-04-10T13:17:02.827Z</time></trkpt><trkpt lat="44.8616224" lon="8.2210802"><ele>141.33333333333334</ele><time>2026-04-10T13:17:21.826Z</time></trkpt><trkpt lat="44.8616851" lon="8.2211355"><ele>141.0</ele><time>2026-04-10T13:17:24.827Z</time></trkpt><trkpt lat="44.8617446" lon="8.2211969"><ele>143.0</ele><time>2026-04-10T13:17:27.828Z</time></trkpt><trkpt lat="44.8618231" lon="8.2212729"><ele>145.0</ele><time>2026-04-10T13:17:30.828Z</time></trkpt><trkpt lat="44.8618789" lon="8.2213418"><ele>147.0</ele><time>2026-04-10T13:17:32.827Z</time></trkpt><trkpt lat="44.8619279" lon="8.2214155"><ele>149.0</ele><time>2026-04-10T13:17:34.828Z</time></trkpt><trkpt lat="44.8619976" lon="8.2214741"><ele>151.0</ele><time>2026-04-10T13:17:37.827Z</time></trkpt><trkpt lat="44.862073" lon="8.2213954"><ele>153.0</ele><time>2026-04-10T13:17:40.827Z</time></trkpt><trkpt lat="44.8621078" lon="8.2213147"><ele>153.0</ele><time>2026-04-10T13:17:42.828Z</time></trkpt><trkpt lat="44.8620715" lon="8.221204"><ele>153.0</ele><time>2026-04-10T13:17:45.827Z</time></trkpt><trkpt lat="44.8620191" lon="8.2211373"><ele>153.0</ele><time>2026-04-10T13:17:48.827Z</time></trkpt><trkpt lat="44.8619876" lon="8.22105"><ele>153.0</ele><time>2026-04-10T13:17:51.826Z</time></trkpt><trkpt lat="44.8619268" lon="8.2209905"><ele>153.0</ele><time>2026-04-10T13:17:54.829Z</time></trkpt><trkpt lat="44.8618727" lon="8.2209124"><ele>153.0</ele><time>2026-04-10T13:17:57.828Z</time></trkpt><trkpt lat="44.8618337" lon="8.2208412"><ele>153.0</ele><time>2026-04-10T13:17:59.826Z</time></trkpt><trkpt lat="44.861788" lon="8.2207617"><ele>151.5</ele><time>2026-04-10T13:18:01.828Z</time></trkpt><trkpt lat="44.8617386" lon="8.2206776"><ele>150.0</ele><time>2026-04-10T13:18:03.828Z</time></trkpt><trkpt lat="44.8616814" lon="8.2205895"><ele>148.5</ele><time>2026-04-10T13:18:05.828Z</time></trkpt><trkpt lat="44.861623" lon="8.2204791"><ele>147.0</ele><time>2026-04-10T13:18:07.827Z</time></trkpt><trkpt lat="44.8615665" lon="8.2203854"><ele>145.5</ele><time>2026-04-10T13:18:09.827Z</time></trkpt><trkpt lat="44.8615105" lon="8.2202962"><ele>144.0</ele><time>2026-04-10T13:18:11.828Z</time></trkpt><trkpt lat="44.8614523" lon="8.2202061"><ele>144.0</ele><time>2026-04-10T13:18:13.827Z</time></trkpt><trkpt lat="44.8613999" lon="8.2201057"><ele>144.0</ele><time>2026-04-10T13:18:15.827Z</time></trkpt><trkpt lat="44.8613394" lon="8.2200113"><ele>144.0</ele><time>2026-04-10T13:18:17.827Z</time></trkpt><trkpt lat="44.8612908" lon="8.2199232"><ele>144.0</ele><time>2026-04-10T13:18:19.826Z</time></trkpt><trkpt lat="44.8612271" lon="8.2198205"><ele>144.0</ele><time>2026-04-10T13:18:21.829Z</time></trkpt><trkpt lat="44.8611652" lon="8.2197187"><ele>144.0</ele><time>2026-04-10T13:18:23.828Z</time></trkpt><trkpt lat="44.8611045" lon="8.2196229"><ele>143.4</ele><time>2026-04-10T13:18:25.827Z</time></trkpt><trkpt lat="44.8610439" lon="8.2195197"><ele>142.8</ele><time>2026-04-10T13:18:27.827Z</time></trkpt><trkpt lat="44.860983" lon="8.2194085"><ele>142.2</ele><time>2026-04-10T13:18:29.827Z</time></trkpt><trkpt lat="44.8609289" lon="8.2193023"><ele>141.6</ele><time>2026-04-10T13:18:31.828Z</time></trkpt><trkpt lat="44.8608671" lon="8.2191898"><ele>141.0</ele><time>2026-04-10T13:18:33.827Z</time></trkpt><trkpt lat="44.8608114" lon="8.2190598"><ele>142.25</ele><time>2026-04-10T13:18:35.826Z</time></trkpt><trkpt lat="44.8607529" lon="8.2189302"><ele>143.5</ele><time>2026-04-10T13:18:37.827Z</time></trkpt><trkpt lat="44.8606986" lon="8.218798"><ele>144.75</ele><time>2026-04-10T13:18:39.827Z</time></trkpt><trkpt lat="44.8606375" lon="8.2186593"><ele>146.0</ele><time>2026-04-10T13:18:41.827Z</time></trkpt><trkpt lat="44.8605745" lon="8.2185179"><ele>146.0</ele><time>2026-04-10T13:18:43.827Z</time></trkpt><trkpt lat="44.8605307" lon="8.2183717"><ele>146.0</ele><time>2026-04-10T13:18:45.826Z</time></trkpt><trkpt lat="44.8604836" lon="8.2182249"><ele>146.0</ele><time>2026-04-10T13:18:47.827Z</time></trkpt><trkpt lat="44.8604453" lon="8.2180723"><ele>146.0</ele><time>2026-04-10T13:18:49.827Z</time></trkpt><trkpt lat="44.8604068" lon="8.217922"><ele>148.0</ele><time>2026-04-10T13:18:51.827Z</time></trkpt><trkpt lat="44.8603605" lon="8.2177678"><ele>150.0</ele><time>2026-04-10T13:18:53.826Z</time></trkpt><trkpt lat="44.8603215" lon="8.2176135"><ele>152.0</ele><time>2026-04-10T13:18:55.827Z</time></trkpt><trkpt lat="44.8602856" lon="8.2174581"><ele>154.0</ele><time>2026-04-10T13:18:57.829Z</time></trkpt><trkpt lat="44.8602555" lon="8.2173087"><ele>156.0</ele><time>2026-04-10T13:18:59.827Z</time></trkpt><trkpt lat="44.8602079" lon="8.2171537"><ele>158.0</ele><time>2026-04-10T13:19:01.827Z</time></trkpt><trkpt lat="44.8601641" lon="8.2169958"><ele>160.0</ele><time>2026-04-10T13:19:03.827Z</time></trkpt><trkpt lat="44.8601238" lon="8.2168365"><ele>162.0</ele><time>2026-04-10T13:19:05.827Z</time></trkpt><trkpt lat="44.8601033" lon="8.2167498"><ele>164.0</ele><time>2026-04-10T13:19:06.826Z</time></trkpt><trkpt lat="44.8600687" lon="8.2165937"><ele>161.99999999999997</ele><time>2026-04-10T13:19:08.828Z</time></trkpt><trkpt lat="44.8600457" lon="8.2165056"><ele>160.0</ele><time>2026-04-10T13:19:09.827Z</time></trkpt><trkpt lat="44.8600209" lon="8.2164182"><ele>158.0</ele><time>2026-04-10T13:19:10.827Z</time></trkpt><trkpt lat="44.8599973" lon="8.2163313"><ele>156.0</ele><time>2026-04-10T13:19:11.827Z</time></trkpt><trkpt lat="44.8599698" lon="8.2162487"><ele>154.0</ele><time>2026-04-10T13:19:12.827Z</time></trkpt><trkpt lat="44.8599561" lon="8.2161615"><ele>151.99999999999997</ele><time>2026-04-10T13:19:13.827Z</time></trkpt><trkpt lat="44.859917" lon="8.2160013"><ele>150.0</ele><time>2026-04-10T13:19:15.828Z</time></trkpt><trkpt lat="44.859893" lon="8.2159147"><ele>150.0</ele><time>2026-04-10T13:19:16.826Z</time></trkpt><trkpt lat="44.8598767" lon="8.2158264"><ele>150.0</ele><time>2026-04-10T13:19:17.826Z</time></trkpt><trkpt lat="44.8598512" lon="8.2157323"><ele>150.0</ele><time>2026-04-10T13:19:18.826Z</time></trkpt><trkpt lat="44.8598282" lon="8.2156293"><ele>150.0</ele><time>2026-04-10T13:19:19.828Z</time></trkpt><trkpt lat="44.8598101" lon="8.2155249"><ele>150.0</ele><time>2026-04-10T13:19:20.828Z</time></trkpt><trkpt lat="44.8597889" lon="8.2154145"><ele>150.0</ele><time>2026-04-10T13:19:21.828Z</time></trkpt><trkpt lat="44.8597547" lon="8.2153073"><ele>150.28571428571428</ele><time>2026-04-10T13:19:22.827Z</time></trkpt><trkpt lat="44.8597163" lon="8.2152025"><ele>150.57142857142856</ele><time>2026-04-10T13:19:23.827Z</time></trkpt><trkpt lat="44.8596852" lon="8.2151124"><ele>150.85714285714283</ele><time>2026-04-10T13:19:24.826Z</time></trkpt><trkpt lat="44.8596564" lon="8.2150243"><ele>151.14285714285714</ele><time>2026-04-10T13:19:25.827Z</time></trkpt><trkpt lat="44.8596311" lon="8.2149403"><ele>151.42857142857144</ele><time>2026-04-10T13:19:26.826Z</time></trkpt><trkpt lat="44.859605" lon="8.2148592"><ele>151.7142857142857</ele><time>2026-04-10T13:19:27.828Z</time></trkpt><trkpt lat="44.8595767" lon="8.2147779"><ele>152.0</ele><time>2026-04-10T13:19:28.827Z</time></trkpt><trkpt lat="44.8595159" lon="8.2146321"><ele>151.0</ele><time>2026-04-10T13:19:30.826Z</time></trkpt><trkpt lat="44.8594562" lon="8.2144863"><ele>150.0</ele><time>2026-04-10T13:19:32.828Z</time></trkpt><trkpt lat="44.8593974" lon="8.2143691"><ele>149.0</ele><time>2026-04-10T13:19:34.826Z</time></trkpt><trkpt lat="44.8593477" lon="8.2142573"><ele>148.0</ele><time>2026-04-10T13:19:36.828Z</time></trkpt><trkpt lat="44.8593095" lon="8.2141571"><ele>147.0</ele><time>2026-04-10T13:19:38.827Z</time></trkpt><trkpt lat="44.8592734" lon="8.2140648"><ele>147.5</ele><time>2026-04-10T13:19:40.827Z</time></trkpt><trkpt lat="44.8592315" lon="8.2139746"><ele>148.0</ele><time>2026-04-10T13:19:42.826Z</time></trkpt><trkpt lat="44.85919" lon="8.2138859"><ele>148.5</ele><time>2026-04-10T13:19:44.826Z</time></trkpt><trkpt lat="44.8591484" lon="8.2137853"><ele>149.0</ele><time>2026-04-10T13:19:46.828Z</time></trkpt><trkpt lat="44.8591077" lon="8.2136862"><ele>149.5</ele><time>2026-04-10T13:19:48.826Z</time></trkpt><trkpt lat="44.8590368" lon="8.2136061"><ele>150.0</ele><time>2026-04-10T13:19:50.826Z</time></trkpt><trkpt lat="44.8589951" lon="8.2134967"><ele>150.0</ele><time>2026-04-10T13:19:52.826Z</time></trkpt><trkpt lat="44.8589423" lon="8.2133667"><ele>150.0</ele><time>2026-04-10T13:19:54.827Z</time></trkpt><trkpt lat="44.8588883" lon="8.2132487"><ele>150.0</ele><time>2026-04-10T13:19:56.827Z</time></trkpt><trkpt lat="44.8588553" lon="8.2131078"><ele>150.0</ele><time>2026-04-10T13:19:58.828Z</time></trkpt><trkpt lat="44.8588459" lon="8.2129862"><ele>150.0</ele><time>2026-04-10T13:20:00.826Z</time></trkpt><trkpt lat="44.8588227" lon="8.2128612"><ele>150.0</ele><time>2026-04-10T13:20:02.827Z</time></trkpt><trkpt lat="44.8588093" lon="8.2127485"><ele>150.0</ele><time>2026-04-10T13:20:04.826Z</time></trkpt><trkpt lat="44.8588171" lon="8.2126103"><ele>150.0</ele><time>2026-04-10T13:20:06.827Z</time></trkpt><trkpt lat="44.8588115" lon="8.2124621"><ele>150.0</ele><time>2026-04-10T13:20:08.827Z</time></trkpt><trkpt lat="44.8587866" lon="8.212317"><ele>150.0</ele><time>2026-04-10T13:20:10.827Z</time></trkpt><trkpt lat="44.8587657" lon="8.2121622"><ele>149.8</ele><time>2026-04-10T13:20:12.828Z</time></trkpt><trkpt lat="44.8587599" lon="8.2120048"><ele>149.6</ele><time>2026-04-10T13:20:14.827Z</time></trkpt><trkpt lat="44.8587515" lon="8.2118448"><ele>149.4</ele><time>2026-04-10T13:20:16.826Z</time></trkpt><trkpt lat="44.8587627" lon="8.2116829"><ele>149.2</ele><time>2026-04-10T13:20:18.827Z</time></trkpt><trkpt lat="44.8587902" lon="8.2115395"><ele>149.0</ele><time>2026-04-10T13:20:20.826Z</time></trkpt><trkpt lat="44.8588118" lon="8.2114361"><ele>149.71428571428572</ele><time>2026-04-10T13:20:22.827Z</time></trkpt><trkpt lat="44.8587842" lon="8.2113554"><ele>150.42857142857142</ele><time>2026-04-10T13:20:26.826Z</time></trkpt><trkpt lat="44.8587214" lon="8.2113836"><ele>151.14285714285714</ele><time>2026-04-10T13:20:54.827Z</time></trkpt><trkpt lat="44.8586488" lon="8.2113763"><ele>151.85714285714286</ele><time>2026-04-10T13:20:57.827Z</time></trkpt><trkpt lat="44.8585577" lon="8.2113629"><ele>152.57142857142856</ele><time>2026-04-10T13:21:00.826Z</time></trkpt><trkpt lat="44.8584957" lon="8.2113463"><ele>153.28571428571428</ele><time>2026-04-10T13:21:02.826Z</time></trkpt><trkpt lat="44.8584159" lon="8.2113376"><ele>154.0</ele><time>2026-04-10T13:21:04.826Z</time></trkpt><trkpt lat="44.8583187" lon="8.2113316"><ele>154.85714285714286</ele><time>2026-04-10T13:21:06.827Z</time></trkpt><trkpt lat="44.8582033" lon="8.2113152"><ele>155.71428571428572</ele><time>2026-04-10T13:21:08.826Z</time></trkpt><trkpt lat="44.8581399" lon="8.2113025"><ele>156.57142857142856</ele><time>2026-04-10T13:21:09.827Z</time></trkpt><trkpt lat="44.8580753" lon="8.2112814"><ele>157.42857142857144</ele><time>2026-04-10T13:21:10.826Z</time></trkpt><trkpt lat="44.8580078" lon="8.2112667"><ele>158.28571428571428</ele><time>2026-04-10T13:21:11.826Z</time></trkpt><trkpt lat="44.8579412" lon="8.2112539"><ele>159.14285714285714</ele><time>2026-04-10T13:21:12.826Z</time></trkpt><trkpt lat="44.8578775" lon="8.2112344"><ele>160.0</ele><time>2026-04-10T13:21:13.827Z</time></trkpt><trkpt lat="44.8578095" lon="8.2112238"><ele>160.0</ele><time>2026-04-10T13:21:14.826Z</time></trkpt><trkpt lat="44.8577479" lon="8.2111903"><ele>160.0</ele><time>2026-04-10T13:21:15.827Z</time></trkpt><trkpt lat="44.8576421" lon="8.211139"><ele>160.0</ele><time>2026-04-10T13:21:17.828Z</time></trkpt><trkpt lat="44.8575329" lon="8.2110954"><ele>160.0</ele><time>2026-04-10T13:21:19.827Z</time></trkpt><trkpt lat="44.8574273" lon="8.2110311"><ele>160.0</ele><time>2026-04-10T13:21:21.827Z</time></trkpt><trkpt lat="44.8573251" lon="8.2109658"><ele>158.5</ele><time>2026-04-10T13:21:23.827Z</time></trkpt><trkpt lat="44.8572144" lon="8.2109015"><ele>157.0</ele><time>2026-04-10T13:21:25.827Z</time></trkpt><trkpt lat="44.8570972" lon="8.2108449"><ele>155.5</ele><time>2026-04-10T13:21:27.828Z</time></trkpt><trkpt lat="44.8569931" lon="8.2107825"><ele>154.0</ele><time>2026-04-10T13:21:29.825Z</time></trkpt><trkpt lat="44.8568842" lon="8.2107446"><ele>153.5</ele><time>2026-04-10T13:21:31.825Z</time></trkpt><trkpt lat="44.8567768" lon="8.210688"><ele>153.0</ele><time>2026-04-10T13:21:33.826Z</time></trkpt><trkpt lat="44.8566823" lon="8.2106021"><ele>152.5</ele><time>2026-04-10T13:21:35.826Z</time></trkpt><trkpt lat="44.8565902" lon="8.2104847"><ele>152.0</ele><time>2026-04-10T13:21:37.827Z</time></trkpt><trkpt lat="44.8565192" lon="8.2103616"><ele>152.0</ele><time>2026-04-10T13:21:39.826Z</time></trkpt><trkpt lat="44.8564435" lon="8.2102369"><ele>152.0</ele><time>2026-04-10T13:21:41.826Z</time></trkpt><trkpt lat="44.8563589" lon="8.2101162"><ele>152.0</ele><time>2026-04-10T13:21:43.826Z</time></trkpt><trkpt lat="44.8562668" lon="8.2100135"><ele>152.0</ele><time>2026-04-10T13:21:45.826Z</time></trkpt><trkpt lat="44.8561705" lon="8.2099099"><ele>152.0</ele><time>2026-04-10T13:21:47.828Z</time></trkpt><trkpt lat="44.8560823" lon="8.2098059"><ele>152.0</ele><time>2026-04-10T13:21:49.826Z</time></trkpt><trkpt lat="44.8560277" lon="8.2097608"><ele>152.0</ele><time>2026-04-10T13:21:50.827Z</time></trkpt><trkpt lat="44.8559225" lon="8.2096587"><ele>152.0</ele><time>2026-04-10T13:21:52.826Z</time></trkpt><trkpt lat="44.855831" lon="8.2095604"><ele>152.0</ele><time>2026-04-10T13:21:54.827Z</time></trkpt><trkpt lat="44.8557418" lon="8.209446"><ele>152.0</ele><time>2026-04-10T13:21:56.826Z</time></trkpt><trkpt lat="44.855654" lon="8.2093298"><ele>152.0</ele><time>2026-04-10T13:21:58.826Z</time></trkpt><trkpt lat="44.8555321" lon="8.2092539"><ele>152.0</ele><time>2026-04-10T13:22:00.826Z</time></trkpt><trkpt lat="44.8554222" lon="8.2091845"><ele>152.0</ele><time>2026-04-10T13:22:02.827Z</time></trkpt><trkpt lat="44.85536" lon="8.2091601"><ele>152.0</ele><time>2026-04-10T13:22:03.825Z</time></trkpt><trkpt lat="44.8552455" lon="8.2091025"><ele>152.0</ele><time>2026-04-10T13:22:05.826Z</time></trkpt><trkpt lat="44.855134" lon="8.2090359"><ele>152.0</ele><time>2026-04-10T13:22:07.827Z</time></trkpt><trkpt lat="44.855023" lon="8.2089924"><ele>152.0</ele><time>2026-04-10T13:22:09.826Z</time></trkpt><trkpt lat="44.8549212" lon="8.2089155"><ele>152.0</ele><time>2026-04-10T13:22:11.827Z</time></trkpt><trkpt lat="44.8548169" lon="8.2088299"><ele>155.0</ele><time>2026-04-10T13:22:13.827Z</time></trkpt><trkpt lat="44.8547202" lon="8.2087503"><ele>158.0</ele><time>2026-04-10T13:22:15.826Z</time></trkpt><trkpt lat="44.8546257" lon="8.2086551"><ele>161.0</ele><time>2026-04-10T13:22:17.827Z</time></trkpt><trkpt lat="44.8545221" lon="8.2085563"><ele>164.0</ele><time>2026-04-10T13:22:19.826Z</time></trkpt><trkpt lat="44.8544135" lon="8.2084741"><ele>164.0</ele><time>2026-04-10T13:22:21.827Z</time></trkpt><trkpt lat="44.8543259" lon="8.2083799"><ele>164.0</ele><time>2026-04-10T13:22:23.827Z</time></trkpt><trkpt lat="44.8542351" lon="8.208285"><ele>164.0</ele><time>2026-04-10T13:22:25.826Z</time></trkpt><trkpt lat="44.8541398" lon="8.2081839"><ele>164.0</ele><time>2026-04-10T13:22:27.825Z</time></trkpt><trkpt lat="44.8540487" lon="8.2080695"><ele>164.25</ele><time>2026-04-10T13:22:29.826Z</time></trkpt><trkpt lat="44.8539553" lon="8.2079781"><ele>164.5</ele><time>2026-04-10T13:22:31.826Z</time></trkpt><trkpt lat="44.8538576" lon="8.2078869"><ele>164.75</ele><time>2026-04-10T13:22:33.826Z</time></trkpt><trkpt lat="44.8537604" lon="8.2078039"><ele>165.0</ele><time>2026-04-10T13:22:35.826Z</time></trkpt><trkpt lat="44.853676" lon="8.2077103"><ele>165.0</ele><time>2026-04-10T13:22:37.825Z</time></trkpt><trkpt lat="44.8535819" lon="8.2076536"><ele>165.0</ele><time>2026-04-10T13:22:39.826Z</time></trkpt><trkpt lat="44.8534994" lon="8.207575"><ele>165.0</ele><time>2026-04-10T13:22:41.828Z</time></trkpt><trkpt lat="44.8534221" lon="8.2074951"><ele>165.0</ele><time>2026-04-10T13:22:43.828Z</time></trkpt><trkpt lat="44.8533462" lon="8.2074058"><ele>165.0</ele><time>2026-04-10T13:22:45.827Z</time></trkpt><trkpt lat="44.8532722" lon="8.207302"><ele>164.2</ele><time>2026-04-10T13:22:47.826Z</time></trkpt><trkpt lat="44.8532039" lon="8.2071905"><ele>163.4</ele><time>2026-04-10T13:22:49.827Z</time></trkpt><trkpt lat="44.8531446" lon="8.2070624"><ele>162.60000000000002</ele><time>2026-04-10T13:22:51.826Z</time></trkpt><trkpt lat="44.8530784" lon="8.2069335"><ele>161.8</ele><time>2026-04-10T13:22:53.827Z</time></trkpt><trkpt lat="44.8530088" lon="8.2068063"><ele>161.0</ele><time>2026-04-10T13:22:55.826Z</time></trkpt><trkpt lat="44.8529445" lon="8.2066953"><ele>161.0</ele><time>2026-04-10T13:22:57.827Z</time></trkpt><trkpt lat="44.8528728" lon="8.2066046"><ele>161.0</ele><time>2026-04-10T13:22:59.826Z</time></trkpt><trkpt lat="44.8527956" lon="8.2065293"><ele>161.0</ele><time>2026-04-10T13:23:01.826Z</time></trkpt><trkpt lat="44.8527256" lon="8.2064755"><ele>161.0</ele><time>2026-04-10T13:23:03.826Z</time></trkpt><trkpt lat="44.852658" lon="8.2064247"><ele>161.0</ele><time>2026-04-10T13:23:05.825Z</time></trkpt><trkpt lat="44.8525915" lon="8.2063817"><ele>161.0</ele><time>2026-04-10T13:23:07.827Z</time></trkpt><trkpt lat="44.8525214" lon="8.2063628"><ele>161.0</ele><time>2026-04-10T13:23:09.827Z</time></trkpt><trkpt lat="44.8524452" lon="8.2063293"><ele>161.0</ele><time>2026-04-10T13:23:11.826Z</time></trkpt><trkpt lat="44.8523698" lon="8.2062856"><ele>161.0</ele><time>2026-04-10T13:23:13.827Z</time></trkpt><trkpt lat="44.8523028" lon="8.2062342"><ele>161.0</ele><time>2026-04-10T13:23:15.826Z</time></trkpt><trkpt lat="44.8522434" lon="8.2061786"><ele>161.0</ele><time>2026-04-10T13:23:17.826Z</time></trkpt><trkpt lat="44.8521838" lon="8.2061199"><ele>161.0</ele><time>2026-04-10T13:23:19.825Z</time></trkpt><trkpt lat="44.8521196" lon="8.2060558"><ele>161.0</ele><time>2026-04-10T13:23:21.828Z</time></trkpt><trkpt lat="44.8520519" lon="8.2059856"><ele>161.0</ele><time>2026-04-10T13:23:23.827Z</time></trkpt><trkpt lat="44.8519898" lon="8.205919"><ele>161.0</ele><time>2026-04-10T13:23:25.825Z</time></trkpt><trkpt lat="44.8519314" lon="8.2058493"><ele>161.0</ele><time>2026-04-10T13:23:27.826Z</time></trkpt><trkpt lat="44.8518771" lon="8.2057792"><ele>161.0</ele><time>2026-04-10T13:23:29.827Z</time></trkpt><trkpt lat="44.8518199" lon="8.2057001"><ele>161.0</ele><time>2026-04-10T13:23:31.826Z</time></trkpt><trkpt lat="44.8517655" lon="8.2056125"><ele>161.4</ele><time>2026-04-10T13:23:33.827Z</time></trkpt><trkpt lat="44.8517145" lon="8.2055127"><ele>161.8</ele><time>2026-04-10T13:23:35.827Z</time></trkpt><trkpt lat="44.8516652" lon="8.2054039"><ele>162.20000000000002</ele><time>2026-04-10T13:23:37.827Z</time></trkpt><trkpt lat="44.8516077" lon="8.2052982"><ele>162.60000000000002</ele><time>2026-04-10T13:23:39.827Z</time></trkpt><trkpt lat="44.8515544" lon="8.2051873"><ele>163.0</ele><time>2026-04-10T13:23:41.826Z</time></trkpt><trkpt lat="44.8514973" lon="8.20507"><ele>163.0</ele><time>2026-04-10T13:23:43.826Z</time></trkpt><trkpt lat="44.851449" lon="8.2049536"><ele>163.0</ele><time>2026-04-10T13:23:45.826Z</time></trkpt><trkpt lat="44.8514054" lon="8.2048319"><ele>163.0</ele><time>2026-04-10T13:23:47.825Z</time></trkpt><trkpt lat="44.8513601" lon="8.2047057"><ele>163.0</ele><time>2026-04-10T13:23:49.827Z</time></trkpt><trkpt lat="44.8513166" lon="8.2045902"><ele>163.0</ele><time>2026-04-10T13:23:51.826Z</time></trkpt><trkpt lat="44.8512697" lon="8.2044677"><ele>164.4</ele><time>2026-04-10T13:23:53.827Z</time></trkpt><trkpt lat="44.851224" lon="8.2043398"><ele>165.8</ele><time>2026-04-10T13:23:55.827Z</time></trkpt><trkpt lat="44.8511706" lon="8.2042088"><ele>167.2</ele><time>2026-04-10T13:23:57.826Z</time></trkpt><trkpt lat="44.8511041" lon="8.2040786"><ele>168.6</ele><time>2026-04-10T13:23:59.827Z</time></trkpt><trkpt lat="44.8510293" lon="8.2039922"><ele>170.0</ele><time>2026-04-10T13:24:01.826Z</time></trkpt><trkpt lat="44.8509526" lon="8.2039519"><ele>170.33333333333331</ele><time>2026-04-10T13:24:03.826Z</time></trkpt><trkpt lat="44.8508493" lon="8.2039415"><ele>170.66666666666666</ele><time>2026-04-10T13:24:05.826Z</time></trkpt><trkpt lat="44.8507637" lon="8.2039671"><ele>171.0</ele><time>2026-04-10T13:24:07.827Z</time></trkpt><trkpt lat="44.8506714" lon="8.2040017"><ele>171.33333333333334</ele><time>2026-04-10T13:24:09.826Z</time></trkpt><trkpt lat="44.8506096" lon="8.2040191"><ele>171.66666666666669</ele><time>2026-04-10T13:24:12.825Z</time></trkpt><trkpt lat="44.8505317" lon="8.2040537"><ele>172.0</ele><time>2026-04-10T13:26:34.825Z</time></trkpt><trkpt lat="44.8504756" lon="8.2041048"><ele>170.0</ele><time>2026-04-10T13:26:36.826Z</time></trkpt><trkpt lat="44.8503936" lon="8.2041751"><ele>168.0</ele><time>2026-04-10T13:26:38.826Z</time></trkpt><trkpt lat="44.8503079" lon="8.2042398"><ele>166.0</ele><time>2026-04-10T13:26:40.826Z</time></trkpt><trkpt lat="44.850205" lon="8.2042838"><ele>164.0</ele><time>2026-04-10T13:26:42.825Z</time></trkpt><trkpt lat="44.8500931" lon="8.2043219"><ele>162.0</ele><time>2026-04-10T13:26:44.826Z</time></trkpt><trkpt lat="44.8499818" lon="8.2043269"><ele>162.0</ele><time>2026-04-10T13:26:46.826Z</time></trkpt><trkpt lat="44.8499162" lon="8.2043135"><ele>162.0</ele><time>2026-04-10T13:26:47.825Z</time></trkpt><trkpt lat="44.849794" lon="8.2042733"><ele>162.0</ele><time>2026-04-10T13:26:49.827Z</time></trkpt><trkpt lat="44.8496787" lon="8.2042382"><ele>162.0</ele><time>2026-04-10T13:26:51.825Z</time></trkpt><trkpt lat="44.8495669" lon="8.204181"><ele>162.0</ele><time>2026-04-10T13:26:53.826Z</time></trkpt><trkpt lat="44.8494551" lon="8.2041008"><ele>162.0</ele><time>2026-04-10T13:26:55.826Z</time></trkpt><trkpt lat="44.8494013" lon="8.2040488"><ele>162.0</ele><time>2026-04-10T13:26:56.825Z</time></trkpt><trkpt lat="44.8493034" lon="8.2039401"><ele>162.0</ele><time>2026-04-10T13:26:58.826Z</time></trkpt><trkpt lat="44.8492515" lon="8.2038869"><ele>162.0</ele><time>2026-04-10T13:26:59.825Z</time></trkpt><trkpt lat="44.8491991" lon="8.2038333"><ele>162.0</ele><time>2026-04-10T13:27:00.826Z</time></trkpt><trkpt lat="44.8491289" lon="8.2037056"><ele>162.0</ele><time>2026-04-10T13:27:02.825Z</time></trkpt><trkpt lat="44.8490574" lon="8.2036053"><ele>162.5</ele><time>2026-04-10T13:27:04.826Z</time></trkpt><trkpt lat="44.8489985" lon="8.2035152"><ele>163.0</ele><time>2026-04-10T13:27:06.826Z</time></trkpt><trkpt lat="44.8489415" lon="8.2034313"><ele>163.5</ele><time>2026-04-10T13:27:08.825Z</time></trkpt><trkpt lat="44.848893" lon="8.2033545"><ele>164.0</ele><time>2026-04-10T13:27:10.826Z</time></trkpt><trkpt lat="44.848833" lon="8.2032821"><ele>164.5</ele><time>2026-04-10T13:27:12.825Z</time></trkpt><trkpt lat="44.8487713" lon="8.2031918"><ele>165.0</ele><time>2026-04-10T13:27:14.826Z</time></trkpt><trkpt lat="44.8487156" lon="8.2030824"><ele>163.8</ele><time>2026-04-10T13:27:16.825Z</time></trkpt><trkpt lat="44.8486425" lon="8.2029775"><ele>162.6</ele><time>2026-04-10T13:27:18.826Z</time></trkpt><trkpt lat="44.8485644" lon="8.2028753"><ele>161.4</ele><time>2026-04-10T13:27:20.825Z</time></trkpt><trkpt lat="44.8485013" lon="8.2027469"><ele>160.2</ele><time>2026-04-10T13:27:22.825Z</time></trkpt><trkpt lat="44.848442" lon="8.2026046"><ele>159.0</ele><time>2026-04-10T13:27:24.826Z</time></trkpt><trkpt lat="44.8484119" lon="8.2025244"><ele>159.0</ele><time>2026-04-10T13:27:25.824Z</time></trkpt><trkpt lat="44.8483798" lon="8.2024439"><ele>159.0</ele><time>2026-04-10T13:27:26.826Z</time></trkpt><trkpt lat="44.8483418" lon="8.2023654"><ele>159.0</ele><time>2026-04-10T13:27:27.825Z</time></trkpt><trkpt lat="44.8483035" lon="8.2022889"><ele>159.0</ele><time>2026-04-10T13:27:28.826Z</time></trkpt><trkpt lat="44.8482704" lon="8.2022033"><ele>159.0</ele><time>2026-04-10T13:27:29.825Z</time></trkpt><trkpt lat="44.8482353" lon="8.2021232"><ele>159.0</ele><time>2026-04-10T13:27:30.827Z</time></trkpt><trkpt lat="44.8482006" lon="8.202047"><ele>159.0</ele><time>2026-04-10T13:27:31.826Z</time></trkpt><trkpt lat="44.8481336" lon="8.2018978"><ele>160.16666666666666</ele><time>2026-04-10T13:27:33.826Z</time></trkpt><trkpt lat="44.8480963" lon="8.2018247"><ele>161.33333333333334</ele><time>2026-04-10T13:27:34.826Z</time></trkpt><trkpt lat="44.8480617" lon="8.2017504"><ele>162.5</ele><time>2026-04-10T13:27:35.824Z</time></trkpt><trkpt lat="44.8480181" lon="8.2016832"><ele>163.66666666666669</ele><time>2026-04-10T13:27:36.825Z</time></trkpt><trkpt lat="44.8479429" lon="8.201558"><ele>164.83333333333334</ele><time>2026-04-10T13:27:38.827Z</time></trkpt><trkpt lat="44.8478673" lon="8.2014427"><ele>166.0</ele><time>2026-04-10T13:27:40.824Z</time></trkpt><trkpt lat="44.8478196" lon="8.201382"><ele>165.5</ele><time>2026-04-10T13:27:41.825Z</time></trkpt><trkpt lat="44.8477415" lon="8.2012814"><ele>165.0</ele><time>2026-04-10T13:27:43.826Z</time></trkpt><trkpt lat="44.8476507" lon="8.2011704"><ele>164.5</ele><time>2026-04-10T13:27:45.826Z</time></trkpt><trkpt lat="44.8475654" lon="8.2010628"><ele>164.0</ele><time>2026-04-10T13:27:47.825Z</time></trkpt><trkpt lat="44.8474939" lon="8.2009283"><ele>164.0</ele><time>2026-04-10T13:27:49.825Z</time></trkpt><trkpt lat="44.8474395" lon="8.2007822"><ele>164.0</ele><time>2026-04-10T13:27:51.825Z</time></trkpt><trkpt lat="44.8474098" lon="8.2007036"><ele>164.0</ele><time>2026-04-10T13:27:52.824Z</time></trkpt><trkpt lat="44.847359" lon="8.2005452"><ele>164.0</ele><time>2026-04-10T13:27:54.826Z</time></trkpt><trkpt lat="44.8473264" lon="8.2003802"><ele>164.0</ele><time>2026-04-10T13:27:56.825Z</time></trkpt><trkpt lat="44.8472836" lon="8.2002162"><ele>163.79999999999998</ele><time>2026-04-10T13:27:58.824Z</time></trkpt><trkpt lat="44.8472618" lon="8.2001206"><ele>163.6</ele><time>2026-04-10T13:27:59.825Z</time></trkpt><trkpt lat="44.8472106" lon="8.1999614"><ele>163.4</ele><time>2026-04-10T13:28:01.826Z</time></trkpt><trkpt lat="44.8471593" lon="8.1998065"><ele>163.2</ele><time>2026-04-10T13:28:03.825Z</time></trkpt><trkpt lat="44.8471243" lon="8.1996419"><ele>163.0</ele><time>2026-04-10T13:28:05.825Z</time></trkpt><trkpt lat="44.8470774" lon="8.199501"><ele>161.5</ele><time>2026-04-10T13:28:07.825Z</time></trkpt><trkpt lat="44.8470186" lon="8.1993609"><ele>160.0</ele><time>2026-04-10T13:28:09.825Z</time></trkpt><trkpt lat="44.8469583" lon="8.1992258"><ele>158.5</ele><time>2026-04-10T13:28:11.826Z</time></trkpt><trkpt lat="44.8468791" lon="8.1991201"><ele>157.0</ele><time>2026-04-10T13:28:13.825Z</time></trkpt><trkpt lat="44.846793" lon="8.1990062"><ele>155.25</ele><time>2026-04-10T13:28:15.826Z</time></trkpt><trkpt lat="44.8467042" lon="8.1989026"><ele>153.5</ele><time>2026-04-10T13:28:17.824Z</time></trkpt><trkpt lat="44.8466147" lon="8.1988215"><ele>151.75</ele><time>2026-04-10T13:28:19.825Z</time></trkpt><trkpt lat="44.8465108" lon="8.1987405"><ele>150.0</ele><time>2026-04-10T13:28:21.826Z</time></trkpt><trkpt lat="44.8464036" lon="8.1986941"><ele>150.0</ele><time>2026-04-10T13:28:23.826Z</time></trkpt><trkpt lat="44.8463075" lon="8.1986912"><ele>150.0</ele><time>2026-04-10T13:28:25.826Z</time></trkpt><trkpt lat="44.8462224" lon="8.1987389"><ele>150.0</ele><time>2026-04-10T13:28:27.824Z</time></trkpt><trkpt lat="44.8461427" lon="8.198811"><ele>150.0</ele><time>2026-04-10T13:28:29.826Z</time></trkpt><trkpt lat="44.8460756" lon="8.1988851"><ele>150.0</ele><time>2026-04-10T13:28:31.825Z</time></trkpt><trkpt lat="44.8460016" lon="8.1989775"><ele>152.4</ele><time>2026-04-10T13:28:33.825Z</time></trkpt><trkpt lat="44.8459256" lon="8.1990682"><ele>154.8</ele><time>2026-04-10T13:28:35.824Z</time></trkpt><trkpt lat="44.8458356" lon="8.1991439"><ele>157.2</ele><time>2026-04-10T13:28:37.825Z</time></trkpt><trkpt lat="44.8457538" lon="8.1992051"><ele>159.6</ele><time>2026-04-10T13:28:39.826Z</time></trkpt><trkpt lat="44.8456536" lon="8.199258"><ele>162.0</ele><time>2026-04-10T13:28:41.825Z</time></trkpt><trkpt lat="44.8455471" lon="8.1993201"><ele>162.0</ele><time>2026-04-10T13:28:43.825Z</time></trkpt><trkpt lat="44.845453" lon="8.1993824"><ele>162.0</ele><time>2026-04-10T13:28:45.825Z</time></trkpt><trkpt lat="44.845366" lon="8.1994298"><ele>162.0</ele><time>2026-04-10T13:28:47.825Z</time></trkpt><trkpt lat="44.8452723" lon="8.199485"><ele>162.0</ele><time>2026-04-10T13:28:49.826Z</time></trkpt><trkpt lat="44.8451799" lon="8.199539"><ele>162.0</ele><time>2026-04-10T13:28:51.825Z</time></trkpt><trkpt lat="44.8450928" lon="8.1996093"><ele>161.6</ele><time>2026-04-10T13:28:53.826Z</time></trkpt><trkpt lat="44.8450016" lon="8.1996853"><ele>161.2</ele><time>2026-04-10T13:28:55.824Z</time></trkpt><trkpt lat="44.8449197" lon="8.1997571"><ele>160.8</ele><time>2026-04-10T13:28:57.825Z</time></trkpt><trkpt lat="44.844844" lon="8.1998449"><ele>160.4</ele><time>2026-04-10T13:28:59.826Z</time></trkpt><trkpt lat="44.8447762" lon="8.1999265"><ele>160.0</ele><time>2026-04-10T13:29:01.826Z</time></trkpt><trkpt lat="44.8447127" lon="8.2000071"><ele>160.57142857142856</ele><time>2026-04-10T13:29:03.825Z</time></trkpt><trkpt lat="44.8446604" lon="8.2000754"><ele>161.14285714285714</ele><time>2026-04-10T13:29:05.826Z</time></trkpt><trkpt lat="44.8446011" lon="8.2001371"><ele>161.71428571428572</ele><time>2026-04-10T13:29:07.825Z</time></trkpt><trkpt lat="44.8445311" lon="8.200223"><ele>162.28571428571428</ele><time>2026-04-10T13:29:10.825Z</time></trkpt><trkpt lat="44.8444748" lon="8.2002843"><ele>162.85714285714286</ele><time>2026-04-10T13:29:12.824Z</time></trkpt><trkpt lat="44.8444192" lon="8.200349"><ele>163.42857142857142</ele><time>2026-04-10T13:29:14.824Z</time></trkpt><trkpt lat="44.8443681" lon="8.2004123"><ele>164.0</ele><time>2026-04-10T13:29:16.824Z</time></trkpt><trkpt lat="44.8443171" lon="8.2004794"><ele>164.42857142857142</ele><time>2026-04-10T13:29:18.826Z</time></trkpt><trkpt lat="44.844271" lon="8.2005505"><ele>164.85714285714286</ele><time>2026-04-10T13:29:20.825Z</time></trkpt><trkpt lat="44.8442299" lon="8.2006294"><ele>165.28571428571428</ele><time>2026-04-10T13:29:22.824Z</time></trkpt><trkpt lat="44.8441918" lon="8.2007096"><ele>165.71428571428572</ele><time>2026-04-10T13:29:24.825Z</time></trkpt><trkpt lat="44.8441501" lon="8.2007861"><ele>166.14285714285714</ele><time>2026-04-10T13:29:26.825Z</time></trkpt><trkpt lat="44.8441078" lon="8.2008566"><ele>166.57142857142856</ele><time>2026-04-10T13:29:28.825Z</time></trkpt><trkpt lat="44.8440526" lon="8.200956"><ele>167.0</ele><time>2026-04-10T13:29:31.826Z</time></trkpt><trkpt lat="44.844006" lon="8.2010658"><ele>167.5</ele><time>2026-04-10T13:29:34.824Z</time></trkpt><trkpt lat="44.8439603" lon="8.2011744"><ele>168.0</ele><time>2026-04-10T13:29:37.825Z</time></trkpt><trkpt lat="44.843918" lon="8.201294"><ele>168.5</ele><time>2026-04-10T13:29:40.824Z</time></trkpt><trkpt lat="44.8438829" lon="8.2014147"><ele>169.0</ele><time>2026-04-10T13:29:43.824Z</time></trkpt><trkpt lat="44.8438579" lon="8.2014975"><ele>169.5</ele><time>2026-04-10T13:29:45.825Z</time></trkpt><trkpt lat="44.8438171" lon="8.2016112"><ele>170.0</ele><time>2026-04-10T13:29:48.825Z</time></trkpt><trkpt lat="44.8437651" lon="8.201715"><ele>170.8</ele><time>2026-04-10T13:29:51.824Z</time></trkpt><trkpt lat="44.8436953" lon="8.2017963"><ele>171.6</ele><time>2026-04-10T13:29:54.825Z</time></trkpt><trkpt lat="44.843617" lon="8.2018668"><ele>172.39999999999998</ele><time>2026-04-10T13:29:57.825Z</time></trkpt><trkpt lat="44.8435362" lon="8.2019311"><ele>173.2</ele><time>2026-04-10T13:30:00.827Z</time></trkpt><trkpt lat="44.8434553" lon="8.2019862"><ele>174.0</ele><time>2026-04-10T13:30:03.825Z</time></trkpt><trkpt lat="44.8433702" lon="8.2020486"><ele>174.0</ele><time>2026-04-10T13:30:06.825Z</time></trkpt><trkpt lat="44.8433047" lon="8.2020848"><ele>174.0</ele><time>2026-04-10T13:30:08.824Z</time></trkpt><trkpt lat="44.8432456" lon="8.2021212"><ele>174.0</ele><time>2026-04-10T13:30:10.825Z</time></trkpt><trkpt lat="44.8431881" lon="8.2021577"><ele>174.0</ele><time>2026-04-10T13:30:12.824Z</time></trkpt><trkpt lat="44.8430715" lon="8.2022217"><ele>174.0</ele><time>2026-04-10T13:30:16.826Z</time></trkpt><trkpt lat="44.8430112" lon="8.2022492"><ele>174.0</ele><time>2026-04-10T13:30:18.826Z</time></trkpt><trkpt lat="44.8429492" lon="8.2022667"><ele>174.0</ele><time>2026-04-10T13:30:20.825Z</time></trkpt><trkpt lat="44.8428834" lon="8.2022842"><ele>174.0</ele><time>2026-04-10T13:30:22.826Z</time></trkpt><trkpt lat="44.8428212" lon="8.2022987"><ele>174.0</ele><time>2026-04-10T13:30:24.824Z</time></trkpt><trkpt lat="44.8427562" lon="8.2023248"><ele>174.0</ele><time>2026-04-10T13:30:26.825Z</time></trkpt><trkpt lat="44.8426975" lon="8.202358"><ele>174.0</ele><time>2026-04-10T13:30:28.824Z</time></trkpt><trkpt lat="44.8426375" lon="8.2024597"><ele>174.0</ele><time>2026-04-10T13:30:31.826Z</time></trkpt><trkpt lat="44.8426333" lon="8.2025505"><ele>174.0</ele><time>2026-04-10T13:30:33.825Z</time></trkpt><trkpt lat="44.8426634" lon="8.2026353"><ele>175.83333333333334</ele><time>2026-04-10T13:30:35.826Z</time></trkpt><trkpt lat="44.8427359" lon="8.2026941"><ele>177.66666666666666</ele><time>2026-04-10T13:30:37.825Z</time></trkpt><trkpt lat="44.8428176" lon="8.2027084"><ele>179.5</ele><time>2026-04-10T13:30:39.826Z</time></trkpt><trkpt lat="44.8428988" lon="8.2027013"><ele>181.33333333333331</ele><time>2026-04-10T13:30:41.826Z</time></trkpt><trkpt lat="44.8429733" lon="8.2026922"><ele>183.16666666666666</ele><time>2026-04-10T13:30:43.825Z</time></trkpt><trkpt lat="44.8430469" lon="8.202689"><ele>185.0</ele><time>2026-04-10T13:30:45.825Z</time></trkpt><trkpt lat="44.8431111" lon="8.2027088"><ele>184.99999999999997</ele><time>2026-04-10T13:30:47.826Z</time></trkpt><trkpt lat="44.8431699" lon="8.2027485"><ele>185.0</ele><time>2026-04-10T13:30:49.825Z</time></trkpt><trkpt lat="44.843224" lon="8.2027976"><ele>185.0</ele><time>2026-04-10T13:30:51.825Z</time></trkpt><trkpt lat="44.8432743" lon="8.2028543"><ele>185.0</ele><time>2026-04-10T13:30:53.825Z</time></trkpt><trkpt lat="44.8433329" lon="8.2029211"><ele>185.0</ele><time>2026-04-10T13:30:56.824Z</time></trkpt><trkpt lat="44.8433806" lon="8.2030083"><ele>184.99999999999997</ele><time>2026-04-10T13:30:59.825Z</time></trkpt><trkpt lat="44.8434138" lon="8.2030998"><ele>185.0</ele><time>2026-04-10T13:31:02.828Z</time></trkpt><trkpt lat="44.8434354" lon="8.2032111"><ele>186.83333333333331</ele><time>2026-04-10T13:31:05.826Z</time></trkpt><trkpt lat="44.8434427" lon="8.2033301"><ele>188.66666666666666</ele><time>2026-04-10T13:31:08.826Z</time></trkpt><trkpt lat="44.8434074" lon="8.2034447"><ele>190.5</ele><time>2026-04-10T13:31:11.826Z</time></trkpt><trkpt lat="44.843366" lon="8.2035187"><ele>192.33333333333331</ele><time>2026-04-10T13:31:13.826Z</time></trkpt><trkpt lat="44.8433207" lon="8.2035915"><ele>194.16666666666666</ele><time>2026-04-10T13:31:15.826Z</time></trkpt><trkpt lat="44.8432678" lon="8.2036745"><ele>196.0</ele><time>2026-04-10T13:31:17.827Z</time></trkpt><trkpt lat="44.8432165" lon="8.2037439"><ele>195.99999999999997</ele><time>2026-04-10T13:31:19.825Z</time></trkpt><trkpt lat="44.8431701" lon="8.2038116"><ele>196.0</ele><time>2026-04-10T13:31:21.827Z</time></trkpt><trkpt lat="44.8431298" lon="8.2038811"><ele>196.0</ele><time>2026-04-10T13:31:23.826Z</time></trkpt><trkpt lat="44.8430625" lon="8.2039512"><ele>196.0</ele><time>2026-04-10T13:31:26.827Z</time></trkpt><trkpt lat="44.8430008" lon="8.2040248"><ele>195.99999999999997</ele><time>2026-04-10T13:31:28.826Z</time></trkpt><trkpt lat="44.8429387" lon="8.2041168"><ele>196.0</ele><time>2026-04-10T13:31:30.824Z</time></trkpt><trkpt lat="44.8428657" lon="8.2042198"><ele>195.20000000000002</ele><time>2026-04-10T13:31:32.825Z</time></trkpt><trkpt lat="44.8427949" lon="8.204323"><ele>194.4</ele><time>2026-04-10T13:31:34.824Z</time></trkpt><trkpt lat="44.8427134" lon="8.2044399"><ele>193.6</ele><time>2026-04-10T13:31:36.825Z</time></trkpt><trkpt lat="44.8426314" lon="8.2045436"><ele>192.8</ele><time>2026-04-10T13:31:38.825Z</time></trkpt><trkpt lat="44.8425567" lon="8.2046207"><ele>192.0</ele><time>2026-04-10T13:31:40.825Z</time></trkpt><trkpt lat="44.8424918" lon="8.2047067"><ele>192.66666666666666</ele><time>2026-04-10T13:31:42.824Z</time></trkpt><trkpt lat="44.8424423" lon="8.2047846"><ele>193.33333333333331</ele><time>2026-04-10T13:31:44.824Z</time></trkpt><trkpt lat="44.8423632" lon="8.2048535"><ele>194.0</ele><time>2026-04-10T13:31:47.826Z</time></trkpt><trkpt lat="44.8423013" lon="8.2049126"><ele>194.66666666666666</ele><time>2026-04-10T13:31:49.825Z</time></trkpt><trkpt lat="44.8422458" lon="8.2049756"><ele>195.33333333333331</ele><time>2026-04-10T13:31:51.825Z</time></trkpt><trkpt lat="44.8421915" lon="8.2050485"><ele>196.0</ele><time>2026-04-10T13:31:53.825Z</time></trkpt><trkpt lat="44.8421211" lon="8.2051143"><ele>196.0</ele><time>2026-04-10T13:31:55.825Z</time></trkpt><trkpt lat="44.8420353" lon="8.2052011"><ele>196.0</ele><time>2026-04-10T13:31:57.824Z</time></trkpt><trkpt lat="44.8419518" lon="8.2052874"><ele>196.0</ele><time>2026-04-10T13:31:59.825Z</time></trkpt><trkpt lat="44.8418478" lon="8.205381"><ele>196.0</ele><time>2026-04-10T13:32:01.825Z</time></trkpt><trkpt lat="44.841735" lon="8.205452"><ele>195.66666666666666</ele><time>2026-04-10T13:32:03.825Z</time></trkpt><trkpt lat="44.8416177" lon="8.205513"><ele>195.33333333333331</ele><time>2026-04-10T13:32:05.825Z</time></trkpt><trkpt lat="44.8415572" lon="8.205554"><ele>195.0</ele><time>2026-04-10T13:32:06.825Z</time></trkpt><trkpt lat="44.8414968" lon="8.2055997"><ele>194.66666666666669</ele><time>2026-04-10T13:32:07.825Z</time></trkpt><trkpt lat="44.8414357" lon="8.2056526"><ele>194.33333333333334</ele><time>2026-04-10T13:32:08.824Z</time></trkpt><trkpt lat="44.8413535" lon="8.2057563"><ele>194.0</ele><time>2026-04-10T13:32:10.824Z</time></trkpt><trkpt lat="44.8412713" lon="8.205875"><ele>194.0</ele><time>2026-04-10T13:32:12.824Z</time></trkpt><trkpt lat="44.8411796" lon="8.2059845"><ele>194.0</ele><time>2026-04-10T13:32:14.825Z</time></trkpt><trkpt lat="44.8410941" lon="8.206094"><ele>194.0</ele><time>2026-04-10T13:32:16.825Z</time></trkpt><trkpt lat="44.8410168" lon="8.2061978"><ele>194.0</ele><time>2026-04-10T13:32:18.825Z</time></trkpt><trkpt lat="44.8409283" lon="8.2062941"><ele>194.33333333333334</ele><time>2026-04-10T13:32:20.826Z</time></trkpt><trkpt lat="44.8408393" lon="8.2063698"><ele>194.66666666666669</ele><time>2026-04-10T13:32:22.824Z</time></trkpt><trkpt lat="44.840754" lon="8.2064247"><ele>195.0</ele><time>2026-04-10T13:32:24.826Z</time></trkpt><trkpt lat="44.8406718" lon="8.2064603"><ele>195.33333333333331</ele><time>2026-04-10T13:32:26.825Z</time></trkpt><trkpt lat="44.8406068" lon="8.2064816"><ele>195.66666666666666</ele><time>2026-04-10T13:32:28.824Z</time></trkpt><trkpt lat="44.8405417" lon="8.2065019"><ele>196.0</ele><time>2026-04-10T13:32:30.825Z</time></trkpt><trkpt lat="44.8404703" lon="8.2065159"><ele>196.0</ele><time>2026-04-10T13:32:33.824Z</time></trkpt><trkpt lat="44.8404063" lon="8.2064926"><ele>196.0</ele><time>2026-04-10T13:32:36.824Z</time></trkpt><trkpt lat="44.8403322" lon="8.2064902"><ele>196.0</ele><time>2026-04-10T13:32:39.824Z</time></trkpt><trkpt lat="44.8402646" lon="8.2064959"><ele>196.0</ele><time>2026-04-10T13:32:42.825Z</time></trkpt><trkpt lat="44.840194" lon="8.2064915"><ele>196.0</ele><time>2026-04-10T13:32:46.825Z</time></trkpt><trkpt lat="44.8401283" lon="8.2064848"><ele>196.0</ele><time>2026-04-10T13:32:50.825Z</time></trkpt><trkpt lat="44.8400476" lon="8.2064955"><ele>196.0</ele><time>2026-04-10T13:32:54.825Z</time></trkpt><trkpt lat="44.8399816" lon="8.2065096"><ele>197.71428571428572</ele><time>2026-04-10T13:32:57.826Z</time></trkpt><trkpt lat="44.8399164" lon="8.2064948"><ele>199.42857142857144</ele><time>2026-04-10T13:33:00.826Z</time></trkpt><trkpt lat="44.8398506" lon="8.2064841"><ele>201.14285714285714</ele><time>2026-04-10T13:33:03.824Z</time></trkpt><trkpt lat="44.8397798" lon="8.2064623"><ele>202.85714285714286</ele><time>2026-04-10T13:33:07.826Z</time></trkpt><trkpt lat="44.8397002" lon="8.2064255"><ele>204.57142857142858</ele><time>2026-04-10T13:33:11.824Z</time></trkpt><trkpt lat="44.8396376" lon="8.2063931"><ele>206.28571428571428</ele><time>2026-04-10T13:33:14.824Z</time></trkpt><trkpt lat="44.8395739" lon="8.2063605"><ele>208.0</ele><time>2026-04-10T13:33:17.824Z</time></trkpt><trkpt lat="44.8394947" lon="8.2063306"><ele>210.0</ele><time>2026-04-10T13:33:21.824Z</time></trkpt><trkpt lat="44.8394313" lon="8.2063176"><ele>212.0</ele><time>2026-04-10T13:33:24.825Z</time></trkpt><trkpt lat="44.8393651" lon="8.2063061"><ele>214.0</ele><time>2026-04-10T13:33:27.826Z</time></trkpt><trkpt lat="44.8392896" lon="8.2062813"><ele>216.0</ele><time>2026-04-10T13:33:30.823Z</time></trkpt><trkpt lat="44.8392187" lon="8.2062586"><ele>218.0</ele><time>2026-04-10T13:33:33.825Z</time></trkpt><trkpt lat="44.8391527" lon="8.2062333"><ele>220.0</ele><time>2026-04-10T13:33:36.825Z</time></trkpt><trkpt lat="44.8390871" lon="8.2062189"><ele>222.0</ele><time>2026-04-10T13:33:39.824Z</time></trkpt><trkpt lat="44.8390155" lon="8.2062127"><ele>222.71428571428572</ele><time>2026-04-10T13:33:42.825Z</time></trkpt><trkpt lat="44.8389428" lon="8.2062069"><ele>223.42857142857144</ele><time>2026-04-10T13:33:45.826Z</time></trkpt><trkpt lat="44.8388687" lon="8.2062063"><ele>224.14285714285717</ele><time>2026-04-10T13:33:48.825Z</time></trkpt><trkpt lat="44.838799" lon="8.2062254"><ele>224.85714285714286</ele><time>2026-04-10T13:33:51.823Z</time></trkpt><trkpt lat="44.8387295" lon="8.2062371"><ele>225.5714285714286</ele><time>2026-04-10T13:33:54.824Z</time></trkpt><trkpt lat="44.83866" lon="8.2062351"><ele>226.2857142857143</ele><time>2026-04-10T13:33:57.826Z</time></trkpt><trkpt lat="44.8385947" lon="8.2062322"><ele>227.0</ele><time>2026-04-10T13:34:00.824Z</time></trkpt><trkpt lat="44.8385238" lon="8.2062356"><ele>227.85714285714286</ele><time>2026-04-10T13:34:03.825Z</time></trkpt><trkpt lat="44.8384491" lon="8.2062381"><ele>228.71428571428572</ele><time>2026-04-10T13:34:06.824Z</time></trkpt><trkpt lat="44.838376" lon="8.2062377"><ele>229.57142857142858</ele><time>2026-04-10T13:34:09.825Z</time></trkpt><trkpt lat="44.8383014" lon="8.2062345"><ele>230.42857142857144</ele><time>2026-04-10T13:34:12.825Z</time></trkpt><trkpt lat="44.8382301" lon="8.2062414"><ele>231.28571428571428</ele><time>2026-04-10T13:34:15.823Z</time></trkpt><trkpt lat="44.8381628" lon="8.2062579"><ele>232.14285714285717</ele><time>2026-04-10T13:34:18.823Z</time></trkpt><trkpt lat="44.8380795" lon="8.2062713"><ele>233.0</ele><time>2026-04-10T13:34:21.825Z</time></trkpt><trkpt lat="44.8380116" lon="8.2062774"><ele>233.00000000000003</ele><time>2026-04-10T13:34:23.824Z</time></trkpt><trkpt lat="44.8379392" lon="8.2062777"><ele>233.0</ele><time>2026-04-10T13:34:25.824Z</time></trkpt><trkpt lat="44.8378654" lon="8.2062678"><ele>233.0</ele><time>2026-04-10T13:34:27.825Z</time></trkpt><trkpt lat="44.8377928" lon="8.2062644"><ele>233.0</ele><time>2026-04-10T13:34:29.824Z</time></trkpt><trkpt lat="44.8377191" lon="8.2062626"><ele>233.00000000000003</ele><time>2026-04-10T13:34:31.825Z</time></trkpt><trkpt lat="44.8376393" lon="8.2062588"><ele>233.0</ele><time>2026-04-10T13:34:33.824Z</time></trkpt><trkpt lat="44.8375553" lon="8.2062575"><ele>233.16666666666669</ele><time>2026-04-10T13:34:35.824Z</time></trkpt><trkpt lat="44.8374721" lon="8.206259"><ele>233.33333333333334</ele><time>2026-04-10T13:34:37.825Z</time></trkpt><trkpt lat="44.8373929" lon="8.20631"><ele>233.5</ele><time>2026-04-10T13:34:39.825Z</time></trkpt><trkpt lat="44.8373374" lon="8.2063977"><ele>233.66666666666669</ele><time>2026-04-10T13:34:41.823Z</time></trkpt><trkpt lat="44.8373241" lon="8.2065204"><ele>233.83333333333334</ele><time>2026-04-10T13:34:43.823Z</time></trkpt><trkpt lat="44.8373284" lon="8.2066418"><ele>234.0</ele><time>2026-04-10T13:34:45.825Z</time></trkpt><trkpt lat="44.8373518" lon="8.2067541"><ele>232.0</ele><time>2026-04-10T13:34:47.824Z</time></trkpt><trkpt lat="44.8373718" lon="8.2068836"><ele>229.99999999999997</ele><time>2026-04-10T13:34:49.824Z</time></trkpt><trkpt lat="44.8374007" lon="8.2070107"><ele>227.99999999999997</ele><time>2026-04-10T13:34:51.825Z</time></trkpt><trkpt lat="44.8374174" lon="8.2071767"><ele>226.0</ele><time>2026-04-10T13:34:53.825Z</time></trkpt><trkpt lat="44.8374215" lon="8.2073221"><ele>224.0</ele><time>2026-04-10T13:34:55.825Z</time></trkpt><trkpt lat="44.8373936" lon="8.2074472"><ele>224.0</ele><time>2026-04-10T13:34:57.823Z</time></trkpt><trkpt lat="44.8373239" lon="8.2075145"><ele>223.99999999999997</ele><time>2026-04-10T13:34:59.825Z</time></trkpt><trkpt lat="44.8372368" lon="8.2075209"><ele>223.99999999999997</ele><time>2026-04-10T13:35:01.823Z</time></trkpt><trkpt lat="44.8371487" lon="8.2075013"><ele>224.0</ele><time>2026-04-10T13:35:03.824Z</time></trkpt><trkpt lat="44.8370519" lon="8.2074591"><ele>224.0</ele><time>2026-04-10T13:35:05.825Z</time></trkpt><trkpt lat="44.8369537" lon="8.2074132"><ele>224.0</ele><time>2026-04-10T13:35:07.824Z</time></trkpt><trkpt lat="44.8368599" lon="8.2073751"><ele>223.99999999999997</ele><time>2026-04-10T13:35:09.824Z</time></trkpt><trkpt lat="44.836761" lon="8.2073359"><ele>223.99999999999997</ele><time>2026-04-10T13:35:11.824Z</time></trkpt><trkpt lat="44.8366719" lon="8.20729"><ele>224.0</ele><time>2026-04-10T13:35:13.825Z</time></trkpt><trkpt lat="44.8365679" lon="8.2072559"><ele>224.0</ele><time>2026-04-10T13:35:15.825Z</time></trkpt><trkpt lat="44.8364731" lon="8.2072137"><ele>226.0</ele><time>2026-04-10T13:35:17.825Z</time></trkpt><trkpt lat="44.8363773" lon="8.2071705"><ele>227.99999999999997</ele><time>2026-04-10T13:35:19.824Z</time></trkpt><trkpt lat="44.8362829" lon="8.207133"><ele>229.99999999999997</ele><time>2026-04-10T13:35:21.824Z</time></trkpt><trkpt lat="44.8361943" lon="8.2070906"><ele>232.0</ele><time>2026-04-10T13:35:23.824Z</time></trkpt><trkpt lat="44.8361137" lon="8.2070512"><ele>234.0</ele><time>2026-04-10T13:35:25.823Z</time></trkpt><trkpt lat="44.8360317" lon="8.2070013"><ele>233.2</ele><time>2026-04-10T13:35:27.825Z</time></trkpt><trkpt lat="44.8359525" lon="8.2069573"><ele>232.39999999999998</ele><time>2026-04-10T13:35:29.823Z</time></trkpt><trkpt lat="44.8358406" lon="8.2068769"><ele>231.6</ele><time>2026-04-10T13:35:32.824Z</time></trkpt><trkpt lat="44.8357783" lon="8.2068555"><ele>230.8</ele><time>2026-04-10T13:35:33.823Z</time></trkpt><trkpt lat="44.835687" lon="8.2067729"><ele>230.0</ele><time>2026-04-10T13:35:35.825Z</time></trkpt><trkpt lat="44.8355989" lon="8.2067046"><ele>230.0</ele><time>2026-04-10T13:35:37.824Z</time></trkpt><trkpt lat="44.8355064" lon="8.2066267"><ele>230.0</ele><time>2026-04-10T13:35:39.824Z</time></trkpt><trkpt lat="44.835424" lon="8.2065428"><ele>230.0</ele><time>2026-04-10T13:35:41.824Z</time></trkpt><trkpt lat="44.8352795" lon="8.2064031"><ele>230.0</ele><time>2026-04-10T13:35:44.824Z</time></trkpt><trkpt lat="44.8351862" lon="8.2063193"><ele>231.0</ele><time>2026-04-10T13:35:46.824Z</time></trkpt><trkpt lat="44.8350877" lon="8.2062266"><ele>232.0</ele><time>2026-04-10T13:35:48.825Z</time></trkpt><trkpt lat="44.8349955" lon="8.2061399"><ele>233.0</ele><time>2026-04-10T13:35:50.823Z</time></trkpt><trkpt lat="44.8348876" lon="8.2060692"><ele>234.0</ele><time>2026-04-10T13:35:52.824Z</time></trkpt><trkpt lat="44.8347772" lon="8.205998"><ele>234.0</ele><time>2026-04-10T13:35:54.823Z</time></trkpt><trkpt lat="44.8346621" lon="8.2059311"><ele>233.99999999999997</ele><time>2026-04-10T13:35:56.826Z</time></trkpt><trkpt lat="44.8345997" lon="8.2059108"><ele>233.99999999999997</ele><time>2026-04-10T13:35:57.824Z</time></trkpt><trkpt lat="44.8344901" lon="8.2058635"><ele>234.0</ele><time>2026-04-10T13:35:59.825Z</time></trkpt><trkpt lat="44.8343797" lon="8.2058182"><ele>234.0</ele><time>2026-04-10T13:36:01.825Z</time></trkpt><trkpt lat="44.8342611" lon="8.205765"><ele>232.39999999999998</ele><time>2026-04-10T13:36:03.825Z</time></trkpt><trkpt lat="44.8341426" lon="8.2057145"><ele>230.79999999999998</ele><time>2026-04-10T13:36:05.825Z</time></trkpt><trkpt lat="44.8340363" lon="8.2056461"><ele>229.20000000000002</ele><time>2026-04-10T13:36:07.825Z</time></trkpt><trkpt lat="44.8339407" lon="8.2055958"><ele>227.60000000000002</ele><time>2026-04-10T13:36:09.824Z</time></trkpt><trkpt lat="44.8338617" lon="8.2055536"><ele>226.0</ele><time>2026-04-10T13:36:11.825Z</time></trkpt><trkpt lat="44.833803" lon="8.2054829"><ele>225.99999999999997</ele><time>2026-04-10T13:36:14.824Z</time></trkpt><trkpt lat="44.8337801" lon="8.2053657"><ele>226.0</ele><time>2026-04-10T13:36:17.824Z</time></trkpt><trkpt lat="44.8338126" lon="8.2052599"><ele>226.0</ele><time>2026-04-10T13:36:50.823Z</time></trkpt><trkpt lat="44.8338544" lon="8.2051793"><ele>226.0</ele><time>2026-04-10T13:36:52.824Z</time></trkpt><trkpt lat="44.8339292" lon="8.2050871"><ele>225.99999999999997</ele><time>2026-04-10T13:36:54.824Z</time></trkpt><trkpt lat="44.8340104" lon="8.2049945"><ele>226.0</ele><time>2026-04-10T13:36:56.824Z</time></trkpt><trkpt lat="44.8341099" lon="8.2049114"><ele>226.0</ele><time>2026-04-10T13:36:58.826Z</time></trkpt><trkpt lat="44.8341961" lon="8.204825"><ele>226.00000000000003</ele><time>2026-04-10T13:37:00.824Z</time></trkpt><trkpt lat="44.8342744" lon="8.2047485"><ele>226.00000000000003</ele><time>2026-04-10T13:37:02.825Z</time></trkpt><trkpt lat="44.8343437" lon="8.2046696"><ele>226.0</ele><time>2026-04-10T13:37:04.824Z</time></trkpt><trkpt lat="44.8344237" lon="8.2045979"><ele>226.0</ele><time>2026-04-10T13:37:06.823Z</time></trkpt><trkpt lat="44.8345171" lon="8.2045074"><ele>225.99999999999997</ele><time>2026-04-10T13:37:08.824Z</time></trkpt><trkpt lat="44.8346151" lon="8.2044194"><ele>226.0</ele><time>2026-04-10T13:37:10.823Z</time></trkpt><trkpt lat="44.8346694" lon="8.2043637"><ele>226.0</ele><time>2026-04-10T13:37:11.824Z</time></trkpt><trkpt lat="44.8347198" lon="8.2043105"><ele>226.0</ele><time>2026-04-10T13:37:12.824Z</time></trkpt><trkpt lat="44.8347714" lon="8.2042539"><ele>225.99999999999997</ele><time>2026-04-10T13:37:13.825Z</time></trkpt><trkpt lat="44.834825" lon="8.2041967"><ele>226.0</ele><time>2026-04-10T13:37:14.823Z</time></trkpt><trkpt lat="44.8348835" lon="8.204135"><ele>225.99999999999997</ele><time>2026-04-10T13:37:15.823Z</time></trkpt><trkpt lat="44.8349395" lon="8.2040621"><ele>226.0</ele><time>2026-04-10T13:37:16.824Z</time></trkpt><trkpt lat="44.8349977" lon="8.2039962"><ele>226.0</ele><time>2026-04-10T13:37:17.823Z</time></trkpt><trkpt lat="44.8350628" lon="8.2039271"><ele>226.0</ele><time>2026-04-10T13:37:18.823Z</time></trkpt><trkpt lat="44.8351258" lon="8.2038578"><ele>225.99999999999997</ele><time>2026-04-10T13:37:19.824Z</time></trkpt><trkpt lat="44.8351892" lon="8.2037858"><ele>226.0</ele><time>2026-04-10T13:37:20.823Z</time></trkpt><trkpt lat="44.8352459" lon="8.2037095"><ele>226.33333333333331</ele><time>2026-04-10T13:37:21.823Z</time></trkpt><trkpt lat="44.8353062" lon="8.2036332"><ele>226.66666666666666</ele><time>2026-04-10T13:37:22.824Z</time></trkpt><trkpt lat="44.8353637" lon="8.2035564"><ele>227.0</ele><time>2026-04-10T13:37:23.824Z</time></trkpt><trkpt lat="44.8354167" lon="8.2034709"><ele>227.33333333333331</ele><time>2026-04-10T13:37:24.824Z</time></trkpt><trkpt lat="44.8354592" lon="8.2033835"><ele>227.66666666666666</ele><time>2026-04-10T13:37:25.823Z</time></trkpt><trkpt lat="44.8354928" lon="8.2032927"><ele>228.0</ele><time>2026-04-10T13:37:26.824Z</time></trkpt><trkpt lat="44.8355212" lon="8.2031993"><ele>227.85714285714283</ele><time>2026-04-10T13:37:27.824Z</time></trkpt><trkpt lat="44.8355444" lon="8.2031062"><ele>227.7142857142857</ele><time>2026-04-10T13:37:28.824Z</time></trkpt><trkpt lat="44.8355653" lon="8.20301"><ele>227.57142857142856</ele><time>2026-04-10T13:37:29.826Z</time></trkpt><trkpt lat="44.8355923" lon="8.2029075"><ele>227.42857142857144</ele><time>2026-04-10T13:37:30.824Z</time></trkpt><trkpt lat="44.8356061" lon="8.2028153"><ele>227.2857142857143</ele><time>2026-04-10T13:37:31.824Z</time></trkpt><trkpt lat="44.8356134" lon="8.2027254"><ele>227.14285714285717</ele><time>2026-04-10T13:37:32.825Z</time></trkpt><trkpt lat="44.8356274" lon="8.2026269"><ele>227.0</ele><time>2026-04-10T13:37:33.823Z</time></trkpt><trkpt lat="44.8356373" lon="8.2024571"><ele>226.8</ele><time>2026-04-10T13:37:35.824Z</time></trkpt><trkpt lat="44.835643" lon="8.2023037"><ele>226.6</ele><time>2026-04-10T13:37:37.823Z</time></trkpt><trkpt lat="44.8356436" lon="8.2021288"><ele>226.40000000000003</ele><time>2026-04-10T13:37:39.824Z</time></trkpt><trkpt lat="44.8356382" lon="8.2020363"><ele>226.20000000000002</ele><time>2026-04-10T13:37:40.824Z</time></trkpt><trkpt lat="44.8356227" lon="8.2018778"><ele>226.0</ele><time>2026-04-10T13:37:42.824Z</time></trkpt><trkpt lat="44.8356091" lon="8.2017904"><ele>226.0</ele><time>2026-04-10T13:37:43.823Z</time></trkpt><trkpt lat="44.8355924" lon="8.201606"><ele>226.00000000000003</ele><time>2026-04-10T13:37:45.824Z</time></trkpt><trkpt lat="44.835581" lon="8.201515"><ele>226.00000000000003</ele><time>2026-04-10T13:37:46.823Z</time></trkpt><trkpt lat="44.8355696" lon="8.2014253"><ele>226.0</ele><time>2026-04-10T13:37:47.824Z</time></trkpt><trkpt lat="44.8355615" lon="8.2013312"><ele>226.0</ele><time>2026-04-10T13:37:48.824Z</time></trkpt><trkpt lat="44.8355451" lon="8.2011548"><ele>226.20000000000002</ele><time>2026-04-10T13:37:50.823Z</time></trkpt><trkpt lat="44.8355268" lon="8.2009848"><ele>226.40000000000003</ele><time>2026-04-10T13:37:52.825Z</time></trkpt><trkpt lat="44.8355205" lon="8.2008947"><ele>226.6</ele><time>2026-04-10T13:37:53.823Z</time></trkpt><trkpt lat="44.8355174" lon="8.2007284"><ele>226.8</ele><time>2026-04-10T13:37:55.823Z</time></trkpt><trkpt lat="44.8355099" lon="8.2005624"><ele>227.0</ele><time>2026-04-10T13:37:57.824Z</time></trkpt><trkpt lat="44.8355247" lon="8.2004101"><ele>226.0</ele><time>2026-04-10T13:37:59.825Z</time></trkpt><trkpt lat="44.8355305" lon="8.2003115"><ele>225.0</ele><time>2026-04-10T13:38:01.825Z</time></trkpt><trkpt lat="44.8355497" lon="8.2001602"><ele>224.0</ele><time>2026-04-10T13:38:04.824Z</time></trkpt><trkpt lat="44.8355421" lon="8.2000334"><ele>223.0</ele><time>2026-04-10T13:38:06.823Z</time></trkpt><trkpt lat="44.835509" lon="8.1999039"><ele>222.0</ele><time>2026-04-10T13:38:08.824Z</time></trkpt><trkpt lat="44.835467" lon="8.1997676"><ele>221.0</ele><time>2026-04-10T13:38:10.823Z</time></trkpt><trkpt lat="44.835425" lon="8.1996238"><ele>220.0</ele><time>2026-04-10T13:38:12.824Z</time></trkpt><trkpt lat="44.8353978" lon="8.1994612"><ele>219.0</ele><time>2026-04-10T13:38:14.824Z</time></trkpt><trkpt lat="44.8353962" lon="8.1993657"><ele>218.0</ele><time>2026-04-10T13:38:15.824Z</time></trkpt><trkpt lat="44.8353751" lon="8.1992007"><ele>217.0</ele><time>2026-04-10T13:38:17.824Z</time></trkpt><trkpt lat="44.8353669" lon="8.1991055"><ele>215.6</ele><time>2026-04-10T13:38:18.824Z</time></trkpt><trkpt lat="44.8353364" lon="8.1989143"><ele>214.2</ele><time>2026-04-10T13:38:20.825Z</time></trkpt><trkpt lat="44.8353166" lon="8.1988112"><ele>212.8</ele><time>2026-04-10T13:38:21.823Z</time></trkpt><trkpt lat="44.8352945" lon="8.1987163"><ele>211.4</ele><time>2026-04-10T13:38:22.823Z</time></trkpt><trkpt lat="44.8352771" lon="8.1986217"><ele>210.0</ele><time>2026-04-10T13:38:23.823Z</time></trkpt><trkpt lat="44.8352339" lon="8.1984384"><ele>210.0</ele><time>2026-04-10T13:38:25.825Z</time></trkpt><trkpt lat="44.8352128" lon="8.1983509"><ele>210.0</ele><time>2026-04-10T13:38:26.824Z</time></trkpt><trkpt lat="44.8351934" lon="8.1982625"><ele>210.0</ele><time>2026-04-10T13:38:27.823Z</time></trkpt><trkpt lat="44.8351787" lon="8.198171"><ele>210.0</ele><time>2026-04-10T13:38:28.824Z</time></trkpt><trkpt lat="44.8351538" lon="8.198"><ele>210.0</ele><time>2026-04-10T13:38:30.823Z</time></trkpt><trkpt lat="44.8351398" lon="8.1979109"><ele>210.0</ele><time>2026-04-10T13:38:31.824Z</time></trkpt><trkpt lat="44.8351101" lon="8.1977388"><ele>212.4</ele><time>2026-04-10T13:38:33.824Z</time></trkpt><trkpt lat="44.8350642" lon="8.1975901"><ele>214.8</ele><time>2026-04-10T13:38:35.823Z</time></trkpt><trkpt lat="44.8350159" lon="8.1974452"><ele>217.2</ele><time>2026-04-10T13:38:37.824Z</time></trkpt><trkpt lat="44.8349941" lon="8.1972978"><ele>219.6</ele><time>2026-04-10T13:38:39.824Z</time></trkpt><trkpt lat="44.834958" lon="8.1971745"><ele>222.0</ele><time>2026-04-10T13:38:41.824Z</time></trkpt><trkpt lat="44.8349231" lon="8.1970551"><ele>222.0</ele><time>2026-04-10T13:38:43.823Z</time></trkpt><trkpt lat="44.8348963" lon="8.1969392"><ele>222.0</ele><time>2026-04-10T13:38:45.825Z</time></trkpt><trkpt lat="44.834852" lon="8.1968329"><ele>222.0</ele><time>2026-04-10T13:38:47.824Z</time></trkpt><trkpt lat="44.8348055" lon="8.1967311"><ele>222.0</ele><time>2026-04-10T13:38:49.825Z</time></trkpt><trkpt lat="44.8347602" lon="8.1966218"><ele>222.0</ele><time>2026-04-10T13:38:51.824Z</time></trkpt><trkpt lat="44.8347217" lon="8.1965271"><ele>222.0</ele><time>2026-04-10T13:38:53.824Z</time></trkpt><trkpt lat="44.8346928" lon="8.1964328"><ele>221.16666666666666</ele><time>2026-04-10T13:38:55.823Z</time></trkpt><trkpt lat="44.8346637" lon="8.196331"><ele>220.33333333333331</ele><time>2026-04-10T13:38:57.823Z</time></trkpt><trkpt lat="44.8346316" lon="8.1962353"><ele>219.5</ele><time>2026-04-10T13:38:59.825Z</time></trkpt><trkpt lat="44.8345896" lon="8.1961451"><ele>218.66666666666666</ele><time>2026-04-10T13:39:01.823Z</time></trkpt><trkpt lat="44.8345486" lon="8.1960516"><ele>217.83333333333331</ele><time>2026-04-10T13:39:03.824Z</time></trkpt><trkpt lat="44.834505" lon="8.1959617"><ele>217.0</ele><time>2026-04-10T13:39:05.824Z</time></trkpt><trkpt lat="44.8344523" lon="8.1958743"><ele>216.99999999999997</ele><time>2026-04-10T13:39:07.822Z</time></trkpt><trkpt lat="44.8343909" lon="8.1957876"><ele>217.0</ele><time>2026-04-10T13:39:09.823Z</time></trkpt><trkpt lat="44.8343286" lon="8.1956975"><ele>217.0</ele><time>2026-04-10T13:39:11.823Z</time></trkpt><trkpt lat="44.8342583" lon="8.1956137"><ele>217.0</ele><time>2026-04-10T13:39:13.824Z</time></trkpt><trkpt lat="44.8341966" lon="8.1955258"><ele>216.99999999999997</ele><time>2026-04-10T13:39:15.822Z</time></trkpt><trkpt lat="44.8341246" lon="8.195459"><ele>217.0</ele><time>2026-04-10T13:39:17.823Z</time></trkpt><trkpt lat="44.8340589" lon="8.1953985"><ele>218.66666666666666</ele><time>2026-04-10T13:39:19.824Z</time></trkpt><trkpt lat="44.8339966" lon="8.1953362"><ele>220.33333333333331</ele><time>2026-04-10T13:39:21.824Z</time></trkpt><trkpt lat="44.8339469" lon="8.1952627"><ele>222.0</ele><time>2026-04-10T13:39:23.824Z</time></trkpt><trkpt lat="44.8338998" lon="8.1951774"><ele>223.66666666666669</ele><time>2026-04-10T13:39:25.822Z</time></trkpt><trkpt lat="44.8338579" lon="8.1950809"><ele>225.33333333333334</ele><time>2026-04-10T13:39:27.823Z</time></trkpt><trkpt lat="44.8338125" lon="8.194979"><ele>227.0</ele><time>2026-04-10T13:39:29.823Z</time></trkpt><trkpt lat="44.8337662" lon="8.194865"><ele>225.75</ele><time>2026-04-10T13:39:31.824Z</time></trkpt><trkpt lat="44.8337107" lon="8.1947348"><ele>224.5</ele><time>2026-04-10T13:39:33.823Z</time></trkpt><trkpt lat="44.8336457" lon="8.194599"><ele>223.25</ele><time>2026-04-10T13:39:35.822Z</time></trkpt><trkpt lat="44.8335877" lon="8.1944492"><ele>222.0</ele><time>2026-04-10T13:39:37.823Z</time></trkpt><trkpt lat="44.8335293" lon="8.1942962"><ele>222.0</ele><time>2026-04-10T13:39:39.825Z</time></trkpt><trkpt lat="44.833506" lon="8.1942133"><ele>222.0</ele><time>2026-04-10T13:39:40.824Z</time></trkpt><trkpt lat="44.8334825" lon="8.1941273"><ele>222.0</ele><time>2026-04-10T13:39:41.824Z</time></trkpt><trkpt lat="44.8334623" lon="8.1940397"><ele>222.0</ele><time>2026-04-10T13:39:42.823Z</time></trkpt><trkpt lat="44.833437" lon="8.193944"><ele>222.0</ele><time>2026-04-10T13:39:43.824Z</time></trkpt><trkpt lat="44.8334122" lon="8.1938457"><ele>222.0</ele><time>2026-04-10T13:39:44.822Z</time></trkpt><trkpt lat="44.8333849" lon="8.1937319"><ele>222.0</ele><time>2026-04-10T13:39:45.824Z</time></trkpt><trkpt lat="44.8333656" lon="8.1936276"><ele>222.5</ele><time>2026-04-10T13:39:46.824Z</time></trkpt><trkpt lat="44.8333501" lon="8.1935195"><ele>223.0</ele><time>2026-04-10T13:39:47.823Z</time></trkpt><trkpt lat="44.8333302" lon="8.1934061"><ele>223.5</ele><time>2026-04-10T13:39:48.824Z</time></trkpt><trkpt lat="44.8333159" lon="8.193289"><ele>224.0</ele><time>2026-04-10T13:39:49.824Z</time></trkpt><trkpt lat="44.8333087" lon="8.1931694"><ele>224.5</ele><time>2026-04-10T13:39:50.823Z</time></trkpt><trkpt lat="44.8333019" lon="8.1930573"><ele>225.0</ele><time>2026-04-10T13:39:51.823Z</time></trkpt><trkpt lat="44.8332995" lon="8.1929404"><ele>225.66666666666666</ele><time>2026-04-10T13:39:52.823Z</time></trkpt><trkpt lat="44.833292" lon="8.1928363"><ele>226.33333333333331</ele><time>2026-04-10T13:39:53.822Z</time></trkpt><trkpt lat="44.8332838" lon="8.1927381"><ele>227.0</ele><time>2026-04-10T13:39:54.824Z</time></trkpt><trkpt lat="44.8332718" lon="8.192643"><ele>227.66666666666666</ele><time>2026-04-10T13:39:55.824Z</time></trkpt><trkpt lat="44.8332708" lon="8.1925529"><ele>228.33333333333331</ele><time>2026-04-10T13:39:56.824Z</time></trkpt><trkpt lat="44.8332603" lon="8.1923938"><ele>229.0</ele><time>2026-04-10T13:39:58.824Z</time></trkpt><trkpt lat="44.8332709" lon="8.1922494"><ele>230.2</ele><time>2026-04-10T13:40:00.823Z</time></trkpt><trkpt lat="44.8332811" lon="8.1921236"><ele>231.39999999999998</ele><time>2026-04-10T13:40:02.823Z</time></trkpt><trkpt lat="44.8333111" lon="8.1920097"><ele>232.6</ele><time>2026-04-10T13:40:04.823Z</time></trkpt><trkpt lat="44.8333544" lon="8.1918887"><ele>233.8</ele><time>2026-04-10T13:40:06.822Z</time></trkpt><trkpt lat="44.8334063" lon="8.1917608"><ele>235.0</ele><time>2026-04-10T13:40:08.824Z</time></trkpt><trkpt lat="44.8334607" lon="8.1916235"><ele>233.6</ele><time>2026-04-10T13:40:10.823Z</time></trkpt><trkpt lat="44.8335111" lon="8.1914917"><ele>232.2</ele><time>2026-04-10T13:40:12.823Z</time></trkpt><trkpt lat="44.8335727" lon="8.1913475"><ele>230.8</ele><time>2026-04-10T13:40:14.824Z</time></trkpt><trkpt lat="44.8336031" lon="8.1912115"><ele>229.4</ele><time>2026-04-10T13:40:16.823Z</time></trkpt><trkpt lat="44.8336335" lon="8.1910718"><ele>228.0</ele><time>2026-04-10T13:40:18.824Z</time></trkpt><trkpt lat="44.8336719" lon="8.1909168"><ele>228.0</ele><time>2026-04-10T13:40:20.822Z</time></trkpt><trkpt lat="44.8337099" lon="8.1907663"><ele>228.0</ele><time>2026-04-10T13:40:22.824Z</time></trkpt><trkpt lat="44.8337417" lon="8.1906077"><ele>228.0</ele><time>2026-04-10T13:40:24.823Z</time></trkpt><trkpt lat="44.8337624" lon="8.1905215"><ele>228.0</ele><time>2026-04-10T13:40:25.825Z</time></trkpt><trkpt lat="44.8337985" lon="8.1903748"><ele>228.0</ele><time>2026-04-10T13:40:27.822Z</time></trkpt><trkpt lat="44.8338179" lon="8.1902241"><ele>228.60000000000002</ele><time>2026-04-10T13:40:29.823Z</time></trkpt><trkpt lat="44.8338439" lon="8.1900618"><ele>229.20000000000002</ele><time>2026-04-10T13:40:31.823Z</time></trkpt><trkpt lat="44.8338648" lon="8.1899198"><ele>229.8</ele><time>2026-04-10T13:40:33.822Z</time></trkpt><trkpt lat="44.8338935" lon="8.1897671"><ele>230.4</ele><time>2026-04-10T13:40:35.824Z</time></trkpt><trkpt lat="44.8339128" lon="8.1896134"><ele>231.0</ele><time>2026-04-10T13:40:37.823Z</time></trkpt><trkpt lat="44.8339303" lon="8.189452"><ele>231.20000000000002</ele><time>2026-04-10T13:40:39.824Z</time></trkpt><trkpt lat="44.8339711" lon="8.1893106"><ele>231.40000000000003</ele><time>2026-04-10T13:40:41.823Z</time></trkpt><trkpt lat="44.8339813" lon="8.1891834"><ele>231.6</ele><time>2026-04-10T13:40:43.823Z</time></trkpt><trkpt lat="44.833979" lon="8.1890414"><ele>231.8</ele><time>2026-04-10T13:40:45.824Z</time></trkpt><trkpt lat="44.8339612" lon="8.188909"><ele>232.0</ele><time>2026-04-10T13:40:47.823Z</time></trkpt><trkpt lat="44.8339458" lon="8.1887702"><ele>232.49999999999997</ele><time>2026-04-10T13:40:49.822Z</time></trkpt><trkpt lat="44.8339062" lon="8.188636"><ele>233.0</ele><time>2026-04-10T13:40:51.824Z</time></trkpt><trkpt lat="44.8338547" lon="8.1885206"><ele>233.5</ele><time>2026-04-10T13:40:53.824Z</time></trkpt><trkpt lat="44.8338113" lon="8.1884207"><ele>234.0</ele><time>2026-04-10T13:40:55.823Z</time></trkpt><trkpt lat="44.8337547" lon="8.1883263"><ele>234.49999999999997</ele><time>2026-04-10T13:40:58.823Z</time></trkpt><trkpt lat="44.8337316" lon="8.1882262"><ele>235.0</ele><time>2026-04-10T13:41:01.823Z</time></trkpt><trkpt lat="44.8337276" lon="8.1881316"><ele>235.7142857142857</ele><time>2026-04-10T13:41:04.823Z</time></trkpt><trkpt lat="44.8337605" lon="8.1880215"><ele>236.4285714285714</ele><time>2026-04-10T13:41:08.824Z</time></trkpt><trkpt lat="44.8337796" lon="8.1879194"><ele>237.14285714285714</ele><time>2026-04-10T13:41:13.823Z</time></trkpt><trkpt lat="44.8337259" lon="8.1878428"><ele>237.85714285714283</ele><time>2026-04-10T13:41:17.825Z</time></trkpt><trkpt lat="44.83368" lon="8.1877677"><ele>238.57142857142856</ele><time>2026-04-10T13:41:21.823Z</time></trkpt><trkpt lat="44.8336349" lon="8.1876864"><ele>239.28571428571428</ele><time>2026-04-10T13:41:25.824Z</time></trkpt><trkpt lat="44.8335866" lon="8.1876212"><ele>240.0</ele><time>2026-04-10T13:41:28.822Z</time></trkpt><trkpt lat="44.8336083" lon="8.1875351"><ele>240.0</ele><time>2026-04-10T13:41:33.823Z</time></trkpt><trkpt lat="44.8335546" lon="8.1874658"><ele>240.0</ele><time>2026-04-10T13:42:31.822Z</time></trkpt><trkpt lat="44.8335685" lon="8.1873594"><ele>240.0</ele><time>2026-04-10T13:42:35.823Z</time></trkpt><trkpt lat="44.8335975" lon="8.1872568"><ele>240.0</ele><time>2026-04-10T13:42:38.823Z</time></trkpt><trkpt lat="44.8336066" lon="8.1871438"><ele>240.0</ele><time>2026-04-10T13:42:41.823Z</time></trkpt><trkpt lat="44.8335889" lon="8.1870417"><ele>240.0</ele><time>2026-04-10T13:42:44.823Z</time></trkpt><trkpt lat="44.8335607" lon="8.1869476"><ele>239.8</ele><time>2026-04-10T13:42:56.823Z</time></trkpt><trkpt lat="44.8335206" lon="8.1868492"><ele>239.6</ele><time>2026-04-10T13:43:00.823Z</time></trkpt><trkpt lat="44.8334693" lon="8.1867387"><ele>239.39999999999998</ele><time>2026-04-10T13:43:03.822Z</time></trkpt><trkpt lat="44.8334127" lon="8.1866241"><ele>239.2</ele><time>2026-04-10T13:43:05.823Z</time></trkpt><trkpt lat="44.8333727" lon="8.186497"><ele>239.0</ele><time>2026-04-10T13:43:07.823Z</time></trkpt><trkpt lat="44.833324" lon="8.1863685"><ele>238.39999999999998</ele><time>2026-04-10T13:43:09.822Z</time></trkpt><trkpt lat="44.833288" lon="8.1862786"><ele>237.79999999999998</ele><time>2026-04-10T13:43:10.823Z</time></trkpt><trkpt lat="44.8332421" lon="8.1861227"><ele>237.20000000000002</ele><time>2026-04-10T13:43:12.825Z</time></trkpt><trkpt lat="44.8332141" lon="8.1859772"><ele>236.60000000000002</ele><time>2026-04-10T13:43:14.824Z</time></trkpt><trkpt lat="44.8331854" lon="8.1858323"><ele>236.0</ele><time>2026-04-10T13:43:16.823Z</time></trkpt><trkpt lat="44.8331335" lon="8.1857052"><ele>236.00000000000003</ele><time>2026-04-10T13:43:18.824Z</time></trkpt><trkpt lat="44.8330538" lon="8.1856232"><ele>236.0</ele><time>2026-04-10T13:43:20.822Z</time></trkpt><trkpt lat="44.83296" lon="8.1856683"><ele>236.0</ele><time>2026-04-10T13:43:22.822Z</time></trkpt><trkpt lat="44.8328862" lon="8.185788"><ele>236.0</ele><time>2026-04-10T13:43:24.823Z</time></trkpt><trkpt lat="44.8328615" lon="8.1858705"><ele>236.00000000000003</ele><time>2026-04-10T13:43:25.823Z</time></trkpt><trkpt lat="44.8328453" lon="8.1859637"><ele>236.0</ele><time>2026-04-10T13:43:26.824Z</time></trkpt><trkpt lat="44.8328233" lon="8.1860659"><ele>236.00000000000003</ele><time>2026-04-10T13:43:27.825Z</time></trkpt><trkpt lat="44.8327918" lon="8.1861607"><ele>236.0</ele><time>2026-04-10T13:43:28.822Z</time></trkpt><trkpt lat="44.8327565" lon="8.1862605"><ele>236.0</ele><time>2026-04-10T13:43:29.822Z</time></trkpt><trkpt lat="44.8327254" lon="8.1863585"><ele>236.0</ele><time>2026-04-10T13:43:30.823Z</time></trkpt><trkpt lat="44.8327111" lon="8.1864534"><ele>236.00000000000003</ele><time>2026-04-10T13:43:31.823Z</time></trkpt><trkpt lat="44.8327212" lon="8.1866254"><ele>236.0</ele><time>2026-04-10T13:43:33.824Z</time></trkpt><trkpt lat="44.8327368" lon="8.1867518"><ele>237.20000000000002</ele><time>2026-04-10T13:43:35.824Z</time></trkpt><trkpt lat="44.832702" lon="8.1868307"><ele>238.40000000000003</ele><time>2026-04-10T13:43:37.823Z</time></trkpt><trkpt lat="44.8326379" lon="8.1868172"><ele>239.6</ele><time>2026-04-10T13:43:39.822Z</time></trkpt><trkpt lat="44.8326023" lon="8.1866773"><ele>240.8</ele><time>2026-04-10T13:43:41.823Z</time></trkpt><trkpt lat="44.8325773" lon="8.1865886"><ele>242.0</ele><time>2026-04-10T13:43:42.822Z</time></trkpt><trkpt lat="44.8325344" lon="8.1863867"><ele>238.33333333333334</ele><time>2026-04-10T13:43:44.822Z</time></trkpt><trkpt lat="44.8325079" lon="8.1862884"><ele>234.66666666666669</ele><time>2026-04-10T13:43:45.823Z</time></trkpt><trkpt lat="44.8324912" lon="8.1861666"><ele>231.0</ele><time>2026-04-10T13:43:46.823Z</time></trkpt><trkpt lat="44.8324771" lon="8.1860378"><ele>227.33333333333331</ele><time>2026-04-10T13:43:47.823Z</time></trkpt><trkpt lat="44.8324749" lon="8.1859115"><ele>223.66666666666666</ele><time>2026-04-10T13:43:48.823Z</time></trkpt><trkpt lat="44.8324663" lon="8.1857912"><ele>220.0</ele><time>2026-04-10T13:43:49.823Z</time></trkpt><trkpt lat="44.8324686" lon="8.1856802"><ele>218.0</ele><time>2026-04-10T13:43:50.823Z</time></trkpt><trkpt lat="44.8324755" lon="8.185458"><ele>216.0</ele><time>2026-04-10T13:43:52.824Z</time></trkpt><trkpt lat="44.832489" lon="8.1853408"><ele>214.0</ele><time>2026-04-10T13:43:53.822Z</time></trkpt><trkpt lat="44.8324971" lon="8.185235"><ele>212.0</ele><time>2026-04-10T13:43:54.823Z</time></trkpt><trkpt lat="44.8325158" lon="8.1850172"><ele>212.0</ele><time>2026-04-10T13:43:56.823Z</time></trkpt><trkpt lat="44.8325316" lon="8.1849191"><ele>212.0</ele><time>2026-04-10T13:43:57.822Z</time></trkpt><trkpt lat="44.8325497" lon="8.1847439"><ele>212.0</ele><time>2026-04-10T13:43:59.823Z</time></trkpt><trkpt lat="44.8325296" lon="8.1846045"><ele>212.0</ele><time>2026-04-10T13:44:01.822Z</time></trkpt><trkpt lat="44.8324397" lon="8.1846093"><ele>212.0</ele><time>2026-04-10T13:44:03.822Z</time></trkpt><trkpt lat="44.8323879" lon="8.184744"><ele>212.0</ele><time>2026-04-10T13:44:05.822Z</time></trkpt><trkpt lat="44.8323501" lon="8.1848655"><ele>212.0</ele><time>2026-04-10T13:44:07.824Z</time></trkpt><trkpt lat="44.8322691" lon="8.1848482"><ele>212.0</ele><time>2026-04-10T13:44:09.824Z</time></trkpt><trkpt lat="44.8322576" lon="8.1847002"><ele>212.0</ele><time>2026-04-10T13:44:11.824Z</time></trkpt><trkpt lat="44.8323198" lon="8.1844324"><ele>209.50000000000003</ele><time>2026-04-10T13:44:14.823Z</time></trkpt><trkpt lat="44.8323383" lon="8.1843308"><ele>207.0</ele><time>2026-04-10T13:44:15.824Z</time></trkpt><trkpt lat="44.8323475" lon="8.1842351"><ele>204.5</ele><time>2026-04-10T13:44:16.823Z</time></trkpt><trkpt lat="44.8323309" lon="8.1841479"><ele>202.0</ele><time>2026-04-10T13:44:17.823Z</time></trkpt><trkpt lat="44.8322223" lon="8.1840699"><ele>199.50000000000003</ele><time>2026-04-10T13:44:19.824Z</time></trkpt><trkpt lat="44.8321583" lon="8.1840804"><ele>197.0</ele><time>2026-04-10T13:44:20.822Z</time></trkpt><trkpt lat="44.8320926" lon="8.1841226"><ele>197.0</ele><time>2026-04-10T13:44:21.822Z</time></trkpt><trkpt lat="44.8320287" lon="8.1841522"><ele>197.0</ele><time>2026-04-10T13:44:22.823Z</time></trkpt><trkpt lat="44.8319544" lon="8.1841542"><ele>197.0</ele><time>2026-04-10T13:44:23.824Z</time></trkpt><trkpt lat="44.8318883" lon="8.1841298"><ele>197.0</ele><time>2026-04-10T13:44:24.823Z</time></trkpt><trkpt lat="44.8318236" lon="8.1840778"><ele>197.0</ele><time>2026-04-10T13:44:25.822Z</time></trkpt><trkpt lat="44.8317557" lon="8.1840095"><ele>197.0</ele><time>2026-04-10T13:44:26.824Z</time></trkpt><trkpt lat="44.8316927" lon="8.183938"><ele>197.0</ele><time>2026-04-10T13:44:27.822Z</time></trkpt><trkpt lat="44.8316394" lon="8.1838657"><ele>197.28571428571428</ele><time>2026-04-10T13:44:28.822Z</time></trkpt><trkpt lat="44.8315775" lon="8.1838189"><ele>197.57142857142858</ele><time>2026-04-10T13:44:29.824Z</time></trkpt><trkpt lat="44.8315098" lon="8.183794"><ele>197.85714285714283</ele><time>2026-04-10T13:44:30.823Z</time></trkpt><trkpt lat="44.8314372" lon="8.1838092"><ele>198.14285714285714</ele><time>2026-04-10T13:44:31.823Z</time></trkpt><trkpt lat="44.8313664" lon="8.1838465"><ele>198.42857142857142</ele><time>2026-04-10T13:44:32.823Z</time></trkpt><trkpt lat="44.8313013" lon="8.1839016"><ele>198.7142857142857</ele><time>2026-04-10T13:44:33.822Z</time></trkpt><trkpt lat="44.8312355" lon="8.1839675"><ele>199.0</ele><time>2026-04-10T13:44:34.823Z</time></trkpt><trkpt lat="44.8311714" lon="8.1840439"><ele>199.0</ele><time>2026-04-10T13:44:35.822Z</time></trkpt><trkpt lat="44.8311022" lon="8.1841158"><ele>199.0</ele><time>2026-04-10T13:44:36.822Z</time></trkpt><trkpt lat="44.83103" lon="8.1841867"><ele>199.0</ele><time>2026-04-10T13:44:37.823Z</time></trkpt><trkpt lat="44.8309531" lon="8.1842653"><ele>199.0</ele><time>2026-04-10T13:44:38.822Z</time></trkpt><trkpt lat="44.8308719" lon="8.1843425"><ele>199.0</ele><time>2026-04-10T13:44:39.823Z</time></trkpt><trkpt lat="44.8307865" lon="8.1844269"><ele>198.39999999999998</ele><time>2026-04-10T13:44:40.823Z</time></trkpt><trkpt lat="44.8307064" lon="8.1845157"><ele>197.8</ele><time>2026-04-10T13:44:41.822Z</time></trkpt><trkpt lat="44.8306201" lon="8.1846085"><ele>197.2</ele><time>2026-04-10T13:44:42.824Z</time></trkpt><trkpt lat="44.8305324" lon="8.1847013"><ele>196.60000000000002</ele><time>2026-04-10T13:44:43.822Z</time></trkpt><trkpt lat="44.8304438" lon="8.1847775"><ele>196.0</ele><time>2026-04-10T13:44:44.822Z</time></trkpt><trkpt lat="44.8303452" lon="8.1848543"><ele>193.5</ele><time>2026-04-10T13:44:45.823Z</time></trkpt><trkpt lat="44.8302334" lon="8.1849161"><ele>191.0</ele><time>2026-04-10T13:44:46.823Z</time></trkpt><trkpt lat="44.8301199" lon="8.1849568"><ele>188.5</ele><time>2026-04-10T13:44:47.824Z</time></trkpt><trkpt lat="44.8299911" lon="8.1849804"><ele>186.0</ele><time>2026-04-10T13:44:48.822Z</time></trkpt><trkpt lat="44.8298771" lon="8.1849891"><ele>185.25</ele><time>2026-04-10T13:44:49.822Z</time></trkpt><trkpt lat="44.8297551" lon="8.1849948"><ele>184.5</ele><time>2026-04-10T13:44:50.823Z</time></trkpt><trkpt lat="44.8296332" lon="8.1850141"><ele>183.75</ele><time>2026-04-10T13:44:51.822Z</time></trkpt><trkpt lat="44.8295174" lon="8.1850236"><ele>183.0</ele><time>2026-04-10T13:44:52.823Z</time></trkpt><trkpt lat="44.8294227" lon="8.1850414"><ele>183.0</ele><time>2026-04-10T13:44:53.822Z</time></trkpt><trkpt lat="44.8293189" lon="8.1850638"><ele>183.0</ele><time>2026-04-10T13:44:54.822Z</time></trkpt><trkpt lat="44.8292217" lon="8.1850915"><ele>183.0</ele><time>2026-04-10T13:44:55.822Z</time></trkpt><trkpt lat="44.8291324" lon="8.1851266"><ele>183.0</ele><time>2026-04-10T13:44:56.822Z</time></trkpt><trkpt lat="44.829045" lon="8.185181"><ele>183.0</ele><time>2026-04-10T13:44:57.822Z</time></trkpt><trkpt lat="44.828943" lon="8.1852721"><ele>181.8</ele><time>2026-04-10T13:44:58.822Z</time></trkpt><trkpt lat="44.8288613" lon="8.1853446"><ele>180.60000000000002</ele><time>2026-04-10T13:44:59.823Z</time></trkpt><trkpt lat="44.8287811" lon="8.1854067"><ele>179.39999999999998</ele><time>2026-04-10T13:45:00.823Z</time></trkpt><trkpt lat="44.8286917" lon="8.1854493"><ele>178.2</ele><time>2026-04-10T13:45:01.823Z</time></trkpt><trkpt lat="44.8285967" lon="8.1854616"><ele>177.0</ele><time>2026-04-10T13:45:02.823Z</time></trkpt><trkpt lat="44.828513" lon="8.1854492"><ele>175.83333333333334</ele><time>2026-04-10T13:45:03.822Z</time></trkpt><trkpt lat="44.8284312" lon="8.1854278"><ele>174.66666666666666</ele><time>2026-04-10T13:45:04.823Z</time></trkpt><trkpt lat="44.8283599" lon="8.1854037"><ele>173.5</ele><time>2026-04-10T13:45:05.823Z</time></trkpt><trkpt lat="44.8282905" lon="8.1853834"><ele>172.33333333333331</ele><time>2026-04-10T13:45:06.823Z</time></trkpt><trkpt lat="44.8281884" lon="8.185348"><ele>171.16666666666666</ele><time>2026-04-10T13:45:08.822Z</time></trkpt><trkpt lat="44.8281618" lon="8.1852136"><ele>170.0</ele><time>2026-04-10T13:45:11.822Z</time></trkpt><trkpt lat="44.828185" lon="8.1850983"><ele>170.0</ele><time>2026-04-10T13:45:13.823Z</time></trkpt><trkpt lat="44.8282109" lon="8.184977"><ele>170.0</ele><time>2026-04-10T13:45:15.822Z</time></trkpt><trkpt lat="44.8282396" lon="8.1848336"><ele>170.0</ele><time>2026-04-10T13:45:17.823Z</time></trkpt><trkpt lat="44.8282662" lon="8.1845824"><ele>170.0</ele><time>2026-04-10T13:45:20.823Z</time></trkpt><trkpt lat="44.8282738" lon="8.1844129"><ele>170.5</ele><time>2026-04-10T13:45:22.823Z</time></trkpt><trkpt lat="44.8282819" lon="8.1843124"><ele>171.0</ele><time>2026-04-10T13:45:23.824Z</time></trkpt><trkpt lat="44.8282784" lon="8.1841271"><ele>171.5</ele><time>2026-04-10T13:45:25.823Z</time></trkpt><trkpt lat="44.8282902" lon="8.1840329"><ele>172.0</ele><time>2026-04-10T13:45:26.822Z</time></trkpt><trkpt lat="44.8282888" lon="8.1839415"><ele>172.5</ele><time>2026-04-10T13:45:27.824Z</time></trkpt><trkpt lat="44.828291" lon="8.1838367"><ele>173.0</ele><time>2026-04-10T13:45:28.823Z</time></trkpt><trkpt lat="44.8283121" lon="8.1836639"><ele>173.0</ele><time>2026-04-10T13:45:30.823Z</time></trkpt><trkpt lat="44.8283134" lon="8.1835663"><ele>173.0</ele><time>2026-04-10T13:45:31.822Z</time></trkpt><trkpt lat="44.8283191" lon="8.1834706"><ele>173.0</ele><time>2026-04-10T13:45:32.823Z</time></trkpt><trkpt lat="44.8283184" lon="8.1833765"><ele>173.0</ele><time>2026-04-10T13:45:33.823Z</time></trkpt><trkpt lat="44.8283135" lon="8.1832832"><ele>173.0</ele><time>2026-04-10T13:45:34.823Z</time></trkpt><trkpt lat="44.8283169" lon="8.183191"><ele>173.0</ele><time>2026-04-10T13:45:35.823Z</time></trkpt><trkpt lat="44.8283254" lon="8.1831009"><ele>173.0</ele><time>2026-04-10T13:45:36.823Z</time></trkpt><trkpt lat="44.8283155" lon="8.1829345"><ele>172.57142857142856</ele><time>2026-04-10T13:45:38.823Z</time></trkpt><trkpt lat="44.8283102" lon="8.1828355"><ele>172.14285714285717</ele><time>2026-04-10T13:45:39.822Z</time></trkpt><trkpt lat="44.8283165" lon="8.1827399"><ele>171.71428571428572</ele><time>2026-04-10T13:45:40.821Z</time></trkpt><trkpt lat="44.8283176" lon="8.1826456"><ele>171.28571428571428</ele><time>2026-04-10T13:45:41.823Z</time></trkpt><trkpt lat="44.8283186" lon="8.1825439"><ele>170.85714285714283</ele><time>2026-04-10T13:45:42.822Z</time></trkpt><trkpt lat="44.8283187" lon="8.1824463"><ele>170.42857142857144</ele><time>2026-04-10T13:45:43.823Z</time></trkpt><trkpt lat="44.828327" lon="8.1823448"><ele>170.0</ele><time>2026-04-10T13:45:44.822Z</time></trkpt><trkpt lat="44.828335" lon="8.1822461"><ele>170.0</ele><time>2026-04-10T13:45:45.823Z</time></trkpt><trkpt lat="44.8283492" lon="8.1821453"><ele>170.0</ele><time>2026-04-10T13:45:46.822Z</time></trkpt><trkpt lat="44.8283656" lon="8.1820467"><ele>170.0</ele><time>2026-04-10T13:45:47.822Z</time></trkpt><trkpt lat="44.828385" lon="8.1819396"><ele>170.0</ele><time>2026-04-10T13:45:48.822Z</time></trkpt><trkpt lat="44.8283961" lon="8.1818382"><ele>170.0</ele><time>2026-04-10T13:45:49.822Z</time></trkpt><trkpt lat="44.8284218" lon="8.1817319"><ele>170.0</ele><time>2026-04-10T13:45:50.823Z</time></trkpt><trkpt lat="44.8284354" lon="8.1816308"><ele>170.0</ele><time>2026-04-10T13:45:51.822Z</time></trkpt><trkpt lat="44.828449" lon="8.1815362"><ele>170.16666666666666</ele><time>2026-04-10T13:45:52.823Z</time></trkpt><trkpt lat="44.8284668" lon="8.181435"><ele>170.33333333333331</ele><time>2026-04-10T13:45:53.824Z</time></trkpt><trkpt lat="44.828486" lon="8.1813419"><ele>170.5</ele><time>2026-04-10T13:45:54.822Z</time></trkpt><trkpt lat="44.8285077" lon="8.1812368"><ele>170.66666666666666</ele><time>2026-04-10T13:45:55.822Z</time></trkpt><trkpt lat="44.8285323" lon="8.1811343"><ele>170.83333333333334</ele><time>2026-04-10T13:45:56.823Z</time></trkpt><trkpt lat="44.8285522" lon="8.1810285"><ele>171.0</ele><time>2026-04-10T13:45:57.821Z</time></trkpt><trkpt lat="44.8285733" lon="8.1809214"><ele>170.66666666666666</ele><time>2026-04-10T13:45:58.822Z</time></trkpt><trkpt lat="44.8285913" lon="8.1808251"><ele>170.33333333333334</ele><time>2026-04-10T13:45:59.821Z</time></trkpt><trkpt lat="44.8286145" lon="8.1807208"><ele>170.0</ele><time>2026-04-10T13:46:00.821Z</time></trkpt><trkpt lat="44.8286389" lon="8.1806134"><ele>169.66666666666669</ele><time>2026-04-10T13:46:01.823Z</time></trkpt><trkpt lat="44.828664" lon="8.180497"><ele>169.33333333333334</ele><time>2026-04-10T13:46:02.823Z</time></trkpt><trkpt lat="44.8286849" lon="8.1803808"><ele>169.0</ele><time>2026-04-10T13:46:03.822Z</time></trkpt><trkpt lat="44.8287045" lon="8.1802601"><ele>169.0</ele><time>2026-04-10T13:46:04.822Z</time></trkpt><trkpt lat="44.828732" lon="8.1801327"><ele>169.0</ele><time>2026-04-10T13:46:05.823Z</time></trkpt><trkpt lat="44.8287527" lon="8.1800015"><ele>169.0</ele><time>2026-04-10T13:46:06.823Z</time></trkpt><trkpt lat="44.8287674" lon="8.1798706"><ele>169.0</ele><time>2026-04-10T13:46:07.823Z</time></trkpt><trkpt lat="44.828782" lon="8.1797397"><ele>169.0</ele><time>2026-04-10T13:46:08.823Z</time></trkpt><trkpt lat="44.8287905" lon="8.1796034"><ele>166.79999999999998</ele><time>2026-04-10T13:46:09.823Z</time></trkpt><trkpt lat="44.828784" lon="8.1794604"><ele>164.6</ele><time>2026-04-10T13:46:10.823Z</time></trkpt><trkpt lat="44.8287804" lon="8.1793148"><ele>162.4</ele><time>2026-04-10T13:46:11.823Z</time></trkpt><trkpt lat="44.8287665" lon="8.1791705"><ele>160.2</ele><time>2026-04-10T13:46:12.824Z</time></trkpt><trkpt lat="44.8287365" lon="8.1790356"><ele>158.0</ele><time>2026-04-10T13:46:13.823Z</time></trkpt><trkpt lat="44.8287036" lon="8.1788943"><ele>157.6</ele><time>2026-04-10T13:46:14.821Z</time></trkpt><trkpt lat="44.8286578" lon="8.1787606"><ele>157.20000000000002</ele><time>2026-04-10T13:46:15.822Z</time></trkpt><trkpt lat="44.8285889" lon="8.1786491"><ele>156.8</ele><time>2026-04-10T13:46:16.824Z</time></trkpt><trkpt lat="44.8285087" lon="8.178544"><ele>156.4</ele><time>2026-04-10T13:46:17.822Z</time></trkpt><trkpt lat="44.8284242" lon="8.1784481"><ele>156.0</ele><time>2026-04-10T13:46:18.822Z</time></trkpt><trkpt lat="44.8283308" lon="8.1783536"><ele>156.0</ele><time>2026-04-10T13:46:19.823Z</time></trkpt><trkpt lat="44.8282332" lon="8.1782736"><ele>156.0</ele><time>2026-04-10T13:46:20.823Z</time></trkpt><trkpt lat="44.8281367" lon="8.1782013"><ele>156.0</ele><time>2026-04-10T13:46:21.821Z</time></trkpt><trkpt lat="44.828039" lon="8.1781294"><ele>156.0</ele><time>2026-04-10T13:46:22.823Z</time></trkpt><trkpt lat="44.8279421" lon="8.1780456"><ele>156.0</ele><time>2026-04-10T13:46:23.823Z</time></trkpt><trkpt lat="44.827852" lon="8.17796"><ele>155.4</ele><time>2026-04-10T13:46:24.822Z</time></trkpt><trkpt lat="44.827767" lon="8.177866"><ele>154.8</ele><time>2026-04-10T13:46:25.821Z</time></trkpt><trkpt lat="44.8277034" lon="8.1777713"><ele>154.20000000000002</ele><time>2026-04-10T13:46:26.823Z</time></trkpt><trkpt lat="44.8276508" lon="8.1776854"><ele>153.6</ele><time>2026-04-10T13:46:27.823Z</time></trkpt><trkpt lat="44.8276055" lon="8.1775323"><ele>153.0</ele><time>2026-04-10T13:46:29.822Z</time></trkpt><trkpt lat="44.8276481" lon="8.1773951"><ele>150.66666666666666</ele><time>2026-04-10T13:46:31.823Z</time></trkpt><trkpt lat="44.8277694" lon="8.1773363"><ele>148.33333333333334</ele><time>2026-04-10T13:46:33.824Z</time></trkpt><trkpt lat="44.8278421" lon="8.1773143"><ele>146.0</ele><time>2026-04-10T13:46:34.824Z</time></trkpt><trkpt lat="44.827918" lon="8.1773107"><ele>143.66666666666669</ele><time>2026-04-10T13:46:35.823Z</time></trkpt><trkpt lat="44.8279955" lon="8.1773092"><ele>141.33333333333334</ele><time>2026-04-10T13:46:36.823Z</time></trkpt><trkpt lat="44.8280863" lon="8.1773008"><ele>139.0</ele><time>2026-04-10T13:46:37.823Z</time></trkpt><trkpt lat="44.8281705" lon="8.1773027"><ele>139.0</ele><time>2026-04-10T13:46:38.822Z</time></trkpt><trkpt lat="44.8282555" lon="8.1773229"><ele>139.0</ele><time>2026-04-10T13:46:39.823Z</time></trkpt><trkpt lat="44.8283446" lon="8.1773433"><ele>139.0</ele><time>2026-04-10T13:46:40.824Z</time></trkpt><trkpt lat="44.8284319" lon="8.1773811"><ele>139.0</ele><time>2026-04-10T13:46:41.823Z</time></trkpt><trkpt lat="44.8285117" lon="8.1774246"><ele>139.0</ele><time>2026-04-10T13:46:42.823Z</time></trkpt><trkpt lat="44.8286071" lon="8.1774679"><ele>139.0</ele><time>2026-04-10T13:46:44.823Z</time></trkpt><trkpt lat="44.8285971" lon="8.1773784"><ele>139.0</ele><time>2026-04-10T13:46:48.822Z</time></trkpt><trkpt lat="44.8285202" lon="8.1773338"><ele>139.0</ele><time>2026-04-10T13:46:51.822Z</time></trkpt><trkpt lat="44.8284338" lon="8.1772654"><ele>139.0</ele><time>2026-04-10T13:46:54.823Z</time></trkpt><trkpt lat="44.8283869" lon="8.1771512"><ele>139.0</ele><time>2026-04-10T13:46:56.823Z</time></trkpt><trkpt lat="44.828373" lon="8.1770606"><ele>139.0</ele><time>2026-04-10T13:46:57.822Z</time></trkpt><trkpt lat="44.8283446" lon="8.1769749"><ele>139.0</ele><time>2026-04-10T13:46:58.824Z</time></trkpt><trkpt lat="44.8283089" lon="8.176888"><ele>139.0</ele><time>2026-04-10T13:46:59.823Z</time></trkpt><trkpt lat="44.8282793" lon="8.176777"><ele>139.0</ele><time>2026-04-10T13:47:00.823Z</time></trkpt><trkpt lat="44.8282426" lon="8.1766555"><ele>139.0</ele><time>2026-04-10T13:47:01.823Z</time></trkpt><trkpt lat="44.8281984" lon="8.1765359"><ele>139.0</ele><time>2026-04-10T13:47:02.824Z</time></trkpt><trkpt lat="44.8281531" lon="8.1764134"><ele>139.0</ele><time>2026-04-10T13:47:03.823Z</time></trkpt><trkpt lat="44.8281157" lon="8.1763015"><ele>138.16666666666669</ele><time>2026-04-10T13:47:04.822Z</time></trkpt><trkpt lat="44.8280796" lon="8.1761811"><ele>137.33333333333334</ele><time>2026-04-10T13:47:05.823Z</time></trkpt><trkpt lat="44.8280465" lon="8.1760868"><ele>136.5</ele><time>2026-04-10T13:47:06.822Z</time></trkpt><trkpt lat="44.8280091" lon="8.1759434"><ele>135.66666666666666</ele><time>2026-04-10T13:47:08.823Z</time></trkpt><trkpt lat="44.8279867" lon="8.17584"><ele>134.83333333333331</ele><time>2026-04-10T13:47:10.822Z</time></trkpt><trkpt lat="44.8279393" lon="8.1757328"><ele>134.0</ele><time>2026-04-10T13:47:12.822Z</time></trkpt><trkpt lat="44.8278469" lon="8.1756356"><ele>133.8</ele><time>2026-04-10T13:47:14.822Z</time></trkpt><trkpt lat="44.8277477" lon="8.1755603"><ele>133.60000000000002</ele><time>2026-04-10T13:47:16.821Z</time></trkpt><trkpt lat="44.8276401" lon="8.175483"><ele>133.4</ele><time>2026-04-10T13:47:18.822Z</time></trkpt><trkpt lat="44.8275884" lon="8.1754258"><ele>133.20000000000002</ele><time>2026-04-10T13:47:19.823Z</time></trkpt><trkpt lat="44.8275205" lon="8.17528"><ele>133.0</ele><time>2026-04-10T13:47:21.823Z</time></trkpt><trkpt lat="44.8275023" lon="8.1751925"><ele>133.0</ele><time>2026-04-10T13:47:22.822Z</time></trkpt><trkpt lat="44.8274989" lon="8.1750841"><ele>133.0</ele><time>2026-04-10T13:47:23.822Z</time></trkpt><trkpt lat="44.827506" lon="8.1749835"><ele>133.0</ele><time>2026-04-10T13:47:24.823Z</time></trkpt><trkpt lat="44.827517" lon="8.1748798"><ele>133.0</ele><time>2026-04-10T13:47:25.822Z</time></trkpt><trkpt lat="44.8275272" lon="8.174774"><ele>133.0</ele><time>2026-04-10T13:47:26.823Z</time></trkpt><trkpt lat="44.8275369" lon="8.1746731"><ele>133.0</ele><time>2026-04-10T13:47:27.822Z</time></trkpt><trkpt lat="44.8275498" lon="8.1745687"><ele>133.0</ele><time>2026-04-10T13:47:28.821Z</time></trkpt><trkpt lat="44.8275682" lon="8.1743614"><ele>132.16666666666669</ele><time>2026-04-10T13:47:30.822Z</time></trkpt><trkpt lat="44.8275779" lon="8.1742586"><ele>131.33333333333334</ele><time>2026-04-10T13:47:31.823Z</time></trkpt><trkpt lat="44.8275948" lon="8.1741546"><ele>130.5</ele><time>2026-04-10T13:47:32.822Z</time></trkpt><trkpt lat="44.8276083" lon="8.1740541"><ele>129.66666666666666</ele><time>2026-04-10T13:47:33.821Z</time></trkpt><trkpt lat="44.8276304" lon="8.1739549"><ele>128.83333333333331</ele><time>2026-04-10T13:47:34.822Z</time></trkpt><trkpt lat="44.8276575" lon="8.173868"><ele>128.0</ele><time>2026-04-10T13:47:35.824Z</time></trkpt><trkpt lat="44.8276954" lon="8.1737094"><ele>127.83333333333333</ele><time>2026-04-10T13:47:37.821Z</time></trkpt><trkpt lat="44.8277184" lon="8.1736237"><ele>127.66666666666666</ele><time>2026-04-10T13:47:38.823Z</time></trkpt><trkpt lat="44.827749" lon="8.1735297"><ele>127.5</ele><time>2026-04-10T13:47:39.822Z</time></trkpt><trkpt lat="44.8277758" lon="8.1734405"><ele>127.33333333333334</ele><time>2026-04-10T13:47:40.822Z</time></trkpt><trkpt lat="44.827809" lon="8.1733367"><ele>127.16666666666667</ele><time>2026-04-10T13:47:41.823Z</time></trkpt><trkpt lat="44.8278637" lon="8.1731431"><ele>127.0</ele><time>2026-04-10T13:47:43.823Z</time></trkpt><trkpt lat="44.8278952" lon="8.173046"><ele>127.0</ele><time>2026-04-10T13:47:44.821Z</time></trkpt><trkpt lat="44.8279302" lon="8.1729508"><ele>126.99999999999999</ele><time>2026-04-10T13:47:45.821Z</time></trkpt><trkpt lat="44.8279954" lon="8.1727641"><ele>126.99999999999999</ele><time>2026-04-10T13:47:47.823Z</time></trkpt><trkpt lat="44.8280284" lon="8.172672"><ele>127.0</ele><time>2026-04-10T13:47:48.823Z</time></trkpt><trkpt lat="44.8280601" lon="8.1725731"><ele>127.0</ele><time>2026-04-10T13:47:49.823Z</time></trkpt><trkpt lat="44.8280934" lon="8.1724756"><ele>127.00000000000001</ele><time>2026-04-10T13:47:50.821Z</time></trkpt><trkpt lat="44.8281287" lon="8.1723798"><ele>127.0</ele><time>2026-04-10T13:47:51.823Z</time></trkpt><trkpt lat="44.8281645" lon="8.1722884"><ele>127.0</ele><time>2026-04-10T13:47:52.821Z</time></trkpt><trkpt lat="44.8281948" lon="8.1722061"><ele>127.0</ele><time>2026-04-10T13:47:53.821Z</time></trkpt><trkpt lat="44.8282435" lon="8.172061"><ele>127.00000000000001</ele><time>2026-04-10T13:47:55.823Z</time></trkpt><trkpt lat="44.8282859" lon="8.171952"><ele>127.0</ele><time>2026-04-10T13:47:57.822Z</time></trkpt><trkpt lat="44.8283364" lon="8.1718624"><ele>127.0</ele><time>2026-04-10T13:47:59.823Z</time></trkpt><trkpt lat="44.8283766" lon="8.1717545"><ele>126.99999999999999</ele><time>2026-04-10T13:48:01.822Z</time></trkpt><trkpt lat="44.8284234" lon="8.1716228"><ele>126.99999999999999</ele><time>2026-04-10T13:48:03.822Z</time></trkpt><trkpt lat="44.8284762" lon="8.1714738"><ele>127.0</ele><time>2026-04-10T13:48:05.821Z</time></trkpt><trkpt lat="44.8285251" lon="8.1713134"><ele>127.0</ele><time>2026-04-10T13:48:07.823Z</time></trkpt><trkpt lat="44.828548" lon="8.1712274"><ele>127.00000000000001</ele><time>2026-04-10T13:48:08.823Z</time></trkpt><trkpt lat="44.8285727" lon="8.171145"><ele>127.0</ele><time>2026-04-10T13:48:09.823Z</time></trkpt><trkpt lat="44.8285944" lon="8.1710571"><ele>127.0</ele><time>2026-04-10T13:48:10.823Z</time></trkpt><trkpt lat="44.8286155" lon="8.1709666"><ele>127.0</ele><time>2026-04-10T13:48:11.821Z</time></trkpt><trkpt lat="44.828644" lon="8.1707953"><ele>127.00000000000001</ele><time>2026-04-10T13:48:13.822Z</time></trkpt><trkpt lat="44.8286542" lon="8.1707039"><ele>127.0</ele><time>2026-04-10T13:48:14.822Z</time></trkpt><trkpt lat="44.8286575" lon="8.170528"><ele>127.00000000000001</ele><time>2026-04-10T13:48:16.821Z</time></trkpt><trkpt lat="44.8286613" lon="8.1704362"><ele>127.0</ele><time>2026-04-10T13:48:17.822Z</time></trkpt><trkpt lat="44.8286673" lon="8.170341"><ele>127.0</ele><time>2026-04-10T13:48:18.823Z</time></trkpt><trkpt lat="44.8286716" lon="8.1702497"><ele>127.0</ele><time>2026-04-10T13:48:19.822Z</time></trkpt><trkpt lat="44.8286818" lon="8.1701482"><ele>127.00000000000001</ele><time>2026-04-10T13:48:20.823Z</time></trkpt><trkpt lat="44.8286911" lon="8.1699783"><ele>127.0</ele><time>2026-04-10T13:48:22.823Z</time></trkpt><trkpt lat="44.8286987" lon="8.169885"><ele>127.0</ele><time>2026-04-10T13:48:23.822Z</time></trkpt><trkpt lat="44.8287052" lon="8.1697959"><ele>127.0</ele><time>2026-04-10T13:48:24.823Z</time></trkpt><trkpt lat="44.8287095" lon="8.1697061"><ele>127.0</ele><time>2026-04-10T13:48:25.822Z</time></trkpt><trkpt lat="44.8287144" lon="8.1696157"><ele>127.0</ele><time>2026-04-10T13:48:26.822Z</time></trkpt><trkpt lat="44.8287096" lon="8.1695225"><ele>127.0</ele><time>2026-04-10T13:48:27.823Z</time></trkpt><trkpt lat="44.8286982" lon="8.1694299"><ele>127.0</ele><time>2026-04-10T13:48:28.822Z</time></trkpt><trkpt lat="44.828674" lon="8.1693469"><ele>127.0</ele><time>2026-04-10T13:48:29.823Z</time></trkpt><trkpt lat="44.8286477" lon="8.1692638"><ele>127.0</ele><time>2026-04-10T13:48:30.822Z</time></trkpt><trkpt lat="44.8286201" lon="8.1691777"><ele>127.0</ele><time>2026-04-10T13:48:31.823Z</time></trkpt><trkpt lat="44.828588" lon="8.1690942"><ele>127.0</ele><time>2026-04-10T13:48:32.821Z</time></trkpt><trkpt lat="44.8285567" lon="8.1690116"><ele>127.0</ele><time>2026-04-10T13:48:33.823Z</time></trkpt><trkpt lat="44.828527" lon="8.1689295"><ele>127.0</ele><time>2026-04-10T13:48:34.821Z</time></trkpt><trkpt lat="44.8284929" lon="8.1688385"><ele>127.0</ele><time>2026-04-10T13:48:35.823Z</time></trkpt><trkpt lat="44.8284604" lon="8.1687548"><ele>127.0</ele><time>2026-04-10T13:48:36.822Z</time></trkpt><trkpt lat="44.8284306" lon="8.1686678"><ele>126.8</ele><time>2026-04-10T13:48:37.822Z</time></trkpt><trkpt lat="44.828399" lon="8.1685814"><ele>126.6</ele><time>2026-04-10T13:48:38.822Z</time></trkpt><trkpt lat="44.8283417" lon="8.1684287"><ele>126.39999999999999</ele><time>2026-04-10T13:48:40.822Z</time></trkpt><trkpt lat="44.8282877" lon="8.1682773"><ele>126.19999999999999</ele><time>2026-04-10T13:48:42.823Z</time></trkpt><trkpt lat="44.8282395" lon="8.1681434"><ele>126.0</ele><time>2026-04-10T13:48:44.823Z</time></trkpt><trkpt lat="44.8282073" lon="8.1680062"><ele>126.0</ele><time>2026-04-10T13:48:46.822Z</time></trkpt><trkpt lat="44.8281733" lon="8.1678742"><ele>126.0</ele><time>2026-04-10T13:48:48.824Z</time></trkpt><trkpt lat="44.8281619" lon="8.1677637"><ele>126.0</ele><time>2026-04-10T13:48:50.821Z</time></trkpt><trkpt lat="44.828171" lon="8.1676672"><ele>126.0</ele><time>2026-04-10T13:48:52.823Z</time></trkpt><trkpt lat="44.8281553" lon="8.167546"><ele>126.0</ele><time>2026-04-10T13:48:55.822Z</time></trkpt><trkpt lat="44.8280878" lon="8.1674679"><ele>126.0</ele><time>2026-04-10T13:48:58.823Z</time></trkpt><trkpt lat="44.8280452" lon="8.167372"><ele>126.0</ele><time>2026-04-10T13:49:00.822Z</time></trkpt><trkpt lat="44.8279989" lon="8.1672547"><ele>126.0</ele><time>2026-04-10T13:49:02.821Z</time></trkpt><trkpt lat="44.8279396" lon="8.1671206"><ele>126.0</ele><time>2026-04-10T13:49:04.823Z</time></trkpt><trkpt lat="44.8278816" lon="8.166991"><ele>126.0</ele><time>2026-04-10T13:49:06.823Z</time></trkpt><trkpt lat="44.8278423" lon="8.1669175"><ele>126.0</ele><time>2026-04-10T13:49:07.822Z</time></trkpt><trkpt lat="44.8277532" lon="8.1668111"><ele>126.0</ele><time>2026-04-10T13:49:09.821Z</time></trkpt><trkpt lat="44.8276533" lon="8.1667095"><ele>126.0</ele><time>2026-04-10T13:49:11.821Z</time></trkpt><trkpt lat="44.8275555" lon="8.1666162"><ele>126.0</ele><time>2026-04-10T13:49:13.821Z</time></trkpt><trkpt lat="44.827461" lon="8.1665411"><ele>126.0</ele><time>2026-04-10T13:49:15.822Z</time></trkpt><trkpt lat="44.8273592" lon="8.1664412"><ele>126.19999999999999</ele><time>2026-04-10T13:49:17.823Z</time></trkpt><trkpt lat="44.8273067" lon="8.1663831"><ele>126.39999999999999</ele><time>2026-04-10T13:49:18.821Z</time></trkpt><trkpt lat="44.8272042" lon="8.166283"><ele>126.6</ele><time>2026-04-10T13:49:20.822Z</time></trkpt><trkpt lat="44.8271452" lon="8.1662335"><ele>126.8</ele><time>2026-04-10T13:49:21.822Z</time></trkpt><trkpt lat="44.8270528" lon="8.1661199"><ele>127.0</ele><time>2026-04-10T13:49:23.821Z</time></trkpt><trkpt lat="44.8270077" lon="8.1660502"><ele>127.0</ele><time>2026-04-10T13:49:24.821Z</time></trkpt><trkpt lat="44.8269343" lon="8.1659324"><ele>126.99999999999999</ele><time>2026-04-10T13:49:26.821Z</time></trkpt><trkpt lat="44.826874" lon="8.1658159"><ele>126.99999999999999</ele><time>2026-04-10T13:49:28.823Z</time></trkpt><trkpt lat="44.8268071" lon="8.1657052"><ele>127.0</ele><time>2026-04-10T13:49:30.821Z</time></trkpt><trkpt lat="44.8267353" lon="8.1655865"><ele>127.0</ele><time>2026-04-10T13:49:32.823Z</time></trkpt><trkpt lat="44.8266809" lon="8.1654673"><ele>127.0</ele><time>2026-04-10T13:49:34.822Z</time></trkpt><trkpt lat="44.8266405" lon="8.165342"><ele>126.99999999999999</ele><time>2026-04-10T13:49:36.822Z</time></trkpt><trkpt lat="44.8265958" lon="8.165223"><ele>126.99999999999999</ele><time>2026-04-10T13:49:38.824Z</time></trkpt><trkpt lat="44.826555" lon="8.1650979"><ele>127.0</ele><time>2026-04-10T13:49:40.823Z</time></trkpt><trkpt lat="44.8265122" lon="8.1649679"><ele>127.0</ele><time>2026-04-10T13:49:42.824Z</time></trkpt><trkpt lat="44.8264794" lon="8.1648197"><ele>127.00000000000001</ele><time>2026-04-10T13:49:44.822Z</time></trkpt><trkpt lat="44.8264437" lon="8.1646569"><ele>127.0</ele><time>2026-04-10T13:49:46.821Z</time></trkpt><trkpt lat="44.8264289" lon="8.1645667"><ele>127.0</ele><time>2026-04-10T13:49:47.822Z</time></trkpt><trkpt lat="44.8264146" lon="8.1644772"><ele>127.0</ele><time>2026-04-10T13:49:48.823Z</time></trkpt><trkpt lat="44.8264049" lon="8.1643874"><ele>127.00000000000001</ele><time>2026-04-10T13:49:49.821Z</time></trkpt><trkpt lat="44.8263909" lon="8.1642106"><ele>127.0</ele><time>2026-04-10T13:49:51.824Z</time></trkpt><trkpt lat="44.8263787" lon="8.1640429"><ele>126.6</ele><time>2026-04-10T13:49:53.822Z</time></trkpt><trkpt lat="44.8263631" lon="8.1638753"><ele>126.19999999999999</ele><time>2026-04-10T13:49:55.821Z</time></trkpt><trkpt lat="44.8263489" lon="8.1637313"><ele>125.8</ele><time>2026-04-10T13:49:57.821Z</time></trkpt><trkpt lat="44.8263234" lon="8.1635796"><ele>125.4</ele><time>2026-04-10T13:49:59.822Z</time></trkpt><trkpt lat="44.8262993" lon="8.1634211"><ele>125.0</ele><time>2026-04-10T13:50:01.823Z</time></trkpt><trkpt lat="44.8262717" lon="8.1632749"><ele>125.0</ele><time>2026-04-10T13:50:03.821Z</time></trkpt><trkpt lat="44.8262498" lon="8.1631299"><ele>125.0</ele><time>2026-04-10T13:50:05.822Z</time></trkpt><trkpt lat="44.8262376" lon="8.1629795"><ele>125.0</ele><time>2026-04-10T13:50:07.822Z</time></trkpt><trkpt lat="44.8262304" lon="8.1628458"><ele>125.0</ele><time>2026-04-10T13:50:09.823Z</time></trkpt><trkpt lat="44.8262725" lon="8.1627453"><ele>125.0</ele><time>2026-04-10T13:50:11.823Z</time></trkpt><trkpt lat="44.8263426" lon="8.1626481"><ele>125.0</ele><time>2026-04-10T13:50:13.821Z</time></trkpt><trkpt lat="44.8264221" lon="8.1625593"><ele>125.0</ele><time>2026-04-10T13:50:15.822Z</time></trkpt><trkpt lat="44.8265102" lon="8.1624524"><ele>125.0</ele><time>2026-04-10T13:50:17.822Z</time></trkpt><trkpt lat="44.8265976" lon="8.1623475"><ele>125.0</ele><time>2026-04-10T13:50:19.821Z</time></trkpt><trkpt lat="44.8266874" lon="8.162247"><ele>125.0</ele><time>2026-04-10T13:50:21.821Z</time></trkpt><trkpt lat="44.8267789" lon="8.1621424"><ele>124.75</ele><time>2026-04-10T13:50:23.821Z</time></trkpt><trkpt lat="44.8268664" lon="8.1620301"><ele>124.5</ele><time>2026-04-10T13:50:25.823Z</time></trkpt><trkpt lat="44.8269544" lon="8.1619201"><ele>124.25</ele><time>2026-04-10T13:50:27.823Z</time></trkpt><trkpt lat="44.8270497" lon="8.1618113"><ele>124.0</ele><time>2026-04-10T13:50:29.822Z</time></trkpt><trkpt lat="44.8271408" lon="8.1616984"><ele>124.0</ele><time>2026-04-10T13:50:31.822Z</time></trkpt><trkpt lat="44.8272203" lon="8.1615814"><ele>124.0</ele><time>2026-04-10T13:50:33.822Z</time></trkpt><trkpt lat="44.8272686" lon="8.1614414"><ele>124.0</ele><time>2026-04-10T13:50:35.822Z</time></trkpt><trkpt lat="44.8272832" lon="8.1612997"><ele>124.0</ele><time>2026-04-10T13:50:37.821Z</time></trkpt><trkpt lat="44.8273319" lon="8.1611758"><ele>124.0</ele><time>2026-04-10T13:50:39.822Z</time></trkpt><trkpt lat="44.8274155" lon="8.1610645"><ele>124.0</ele><time>2026-04-10T13:50:41.821Z</time></trkpt><trkpt lat="44.8274938" lon="8.1609672"><ele>124.0</ele><time>2026-04-10T13:50:43.822Z</time></trkpt><trkpt lat="44.8275687" lon="8.1608608"><ele>124.0</ele><time>2026-04-10T13:50:45.822Z</time></trkpt><trkpt lat="44.8276481" lon="8.1607686"><ele>124.0</ele><time>2026-04-10T13:50:47.822Z</time></trkpt><trkpt lat="44.8276925" lon="8.1607016"><ele>124.0</ele><time>2026-04-10T13:50:48.822Z</time></trkpt><trkpt lat="44.8277783" lon="8.160589"><ele>124.0</ele><time>2026-04-10T13:50:50.823Z</time></trkpt><trkpt lat="44.8278599" lon="8.1604852"><ele>124.0</ele><time>2026-04-10T13:50:52.822Z</time></trkpt><trkpt lat="44.8279451" lon="8.1603767"><ele>124.0</ele><time>2026-04-10T13:50:54.822Z</time></trkpt><trkpt lat="44.8280252" lon="8.1602732"><ele>124.0</ele><time>2026-04-10T13:50:56.821Z</time></trkpt><trkpt lat="44.8280984" lon="8.1601796"><ele>124.0</ele><time>2026-04-10T13:50:58.821Z</time></trkpt><trkpt lat="44.8281825" lon="8.1600769"><ele>124.0</ele><time>2026-04-10T13:51:00.821Z</time></trkpt><trkpt lat="44.8282599" lon="8.1599719"><ele>124.0</ele><time>2026-04-10T13:51:02.822Z</time></trkpt><trkpt lat="44.8283261" lon="8.1598585"><ele>124.0</ele><time>2026-04-10T13:51:04.822Z</time></trkpt><trkpt lat="44.8283984" lon="8.1597919"><ele>124.0</ele><time>2026-04-10T13:51:06.822Z</time></trkpt><trkpt lat="44.8284733" lon="8.1598466"><ele>124.0</ele><time>2026-04-10T13:51:08.823Z</time></trkpt><trkpt lat="44.8285426" lon="8.1599611"><ele>124.0</ele><time>2026-04-10T13:51:10.822Z</time></trkpt><trkpt lat="44.828614" lon="8.1600775"><ele>124.0</ele><time>2026-04-10T13:51:12.822Z</time></trkpt><trkpt lat="44.8286848" lon="8.1602018"><ele>124.0</ele><time>2026-04-10T13:51:14.821Z</time></trkpt><trkpt lat="44.8287168" lon="8.1602791"><ele>124.0</ele><time>2026-04-10T13:51:15.822Z</time></trkpt><trkpt lat="44.8288026" lon="8.1603966"><ele>124.0</ele><time>2026-04-10T13:51:17.821Z</time></trkpt><trkpt lat="44.8288906" lon="8.1604993"><ele>124.0</ele><time>2026-04-10T13:51:19.822Z</time></trkpt><trkpt lat="44.8289957" lon="8.1605238"><ele>124.0</ele><time>2026-04-10T13:51:21.822Z</time></trkpt><trkpt lat="44.8290811" lon="8.1604754"><ele>124.0</ele><time>2026-04-10T13:51:23.821Z</time></trkpt><trkpt lat="44.8291405" lon="8.1603965"><ele>124.0</ele><time>2026-04-10T13:51:25.821Z</time></trkpt><trkpt lat="44.8292069" lon="8.1603328"><ele>124.0</ele><time>2026-04-10T13:51:27.825Z</time></trkpt><trkpt lat="44.8292769" lon="8.1602552"><ele>124.0</ele><time>2026-04-10T13:51:29.824Z</time></trkpt><trkpt lat="44.8293395" lon="8.1601928"><ele>124.00000000000001</ele><time>2026-04-10T13:51:32.823Z</time></trkpt><trkpt lat="44.8292952" lon="8.1601243"><ele>124.0</ele><time>2026-04-10T13:51:51.821Z</time></trkpt><trkpt lat="44.8292686" lon="8.1600378"><ele>124.0</ele><time>2026-04-10T13:51:56.822Z</time></trkpt><trkpt lat="44.8292531" lon="8.1599443"><ele>124.00000000000001</ele><time>2026-04-10T13:52:01.822Z</time></trkpt><trkpt lat="44.829242" lon="8.1598432"><ele>124.0</ele><time>2026-04-10T13:52:07.822Z</time></trkpt><trkpt lat="44.8292211" lon="8.1597498"><ele>124.0</ele><time>2026-04-10T13:52:34.821Z</time></trkpt><trkpt lat="44.8291815" lon="8.1596793"><ele>124.2</ele><time>2026-04-10T13:52:36.822Z</time></trkpt><trkpt lat="44.8291232" lon="8.1595857"><ele>124.4</ele><time>2026-04-10T13:52:38.822Z</time></trkpt><trkpt lat="44.8290559" lon="8.1594824"><ele>124.6</ele><time>2026-04-10T13:52:40.822Z</time></trkpt><trkpt lat="44.8289894" lon="8.1593787"><ele>124.8</ele><time>2026-04-10T13:52:42.822Z</time></trkpt><trkpt lat="44.8289312" lon="8.1592795"><ele>125.0</ele><time>2026-04-10T13:52:44.821Z</time></trkpt><trkpt lat="44.8288718" lon="8.1591725"><ele>125.0</ele><time>2026-04-10T13:52:46.821Z</time></trkpt><trkpt lat="44.828805" lon="8.1590565"><ele>125.0</ele><time>2026-04-10T13:52:48.821Z</time></trkpt><trkpt lat="44.8287349" lon="8.158941"><ele>125.0</ele><time>2026-04-10T13:52:50.822Z</time></trkpt><trkpt lat="44.8286641" lon="8.1588265"><ele>125.0</ele><time>2026-04-10T13:52:52.821Z</time></trkpt><trkpt lat="44.8286038" lon="8.1587101"><ele>125.0</ele><time>2026-04-10T13:52:54.82Z</time></trkpt><trkpt lat="44.8285372" lon="8.1586102"><ele>125.2</ele><time>2026-04-10T13:52:56.822Z</time></trkpt><trkpt lat="44.8284747" lon="8.158508"><ele>125.4</ele><time>2026-04-10T13:52:58.821Z</time></trkpt><trkpt lat="44.8284059" lon="8.1583977"><ele>125.6</ele><time>2026-04-10T13:53:00.822Z</time></trkpt><trkpt lat="44.8283247" lon="8.1582844"><ele>125.8</ele><time>2026-04-10T13:53:02.822Z</time></trkpt><trkpt lat="44.8282584" lon="8.1581663"><ele>126.0</ele><time>2026-04-10T13:53:04.822Z</time></trkpt><trkpt lat="44.8281864" lon="8.1580526"><ele>125.5</ele><time>2026-04-10T13:53:06.822Z</time></trkpt><trkpt lat="44.8281107" lon="8.1579311"><ele>125.0</ele><time>2026-04-10T13:53:08.822Z</time></trkpt><trkpt lat="44.8280323" lon="8.1577989"><ele>124.5</ele><time>2026-04-10T13:53:10.821Z</time></trkpt><trkpt lat="44.8279548" lon="8.1576718"><ele>124.0</ele><time>2026-04-10T13:53:12.821Z</time></trkpt><trkpt lat="44.8278731" lon="8.157545"><ele>124.0</ele><time>2026-04-10T13:53:14.822Z</time></trkpt><trkpt lat="44.8277957" lon="8.1574095"><ele>124.0</ele><time>2026-04-10T13:53:16.822Z</time></trkpt><trkpt lat="44.8277085" lon="8.1572774"><ele>124.0</ele><time>2026-04-10T13:53:18.821Z</time></trkpt><trkpt lat="44.8276659" lon="8.1572024"><ele>124.0</ele><time>2026-04-10T13:53:19.822Z</time></trkpt><trkpt lat="44.8275895" lon="8.1570642"><ele>124.0</ele><time>2026-04-10T13:53:21.821Z</time></trkpt><trkpt lat="44.8275114" lon="8.1569278"><ele>124.25</ele><time>2026-04-10T13:53:23.822Z</time></trkpt><trkpt lat="44.8274362" lon="8.1567955"><ele>124.5</ele><time>2026-04-10T13:53:25.821Z</time></trkpt><trkpt lat="44.8273488" lon="8.1566734"><ele>124.75</ele><time>2026-04-10T13:53:27.822Z</time></trkpt><trkpt lat="44.8272673" lon="8.156557"><ele>125.0</ele><time>2026-04-10T13:53:29.822Z</time></trkpt><trkpt lat="44.8271873" lon="8.1564229"><ele>125.2</ele><time>2026-04-10T13:53:31.822Z</time></trkpt><trkpt lat="44.8271052" lon="8.1562865"><ele>125.4</ele><time>2026-04-10T13:53:33.822Z</time></trkpt><trkpt lat="44.8270659" lon="8.1562117"><ele>125.6</ele><time>2026-04-10T13:53:34.822Z</time></trkpt><trkpt lat="44.8269897" lon="8.1560698"><ele>125.8</ele><time>2026-04-10T13:53:36.822Z</time></trkpt><trkpt lat="44.8269074" lon="8.1559338"><ele>126.0</ele><time>2026-04-10T13:53:38.822Z</time></trkpt><trkpt lat="44.8268198" lon="8.1558002"><ele>126.16666666666667</ele><time>2026-04-10T13:53:40.821Z</time></trkpt><trkpt lat="44.8267777" lon="8.1557316"><ele>126.33333333333334</ele><time>2026-04-10T13:53:41.822Z</time></trkpt><trkpt lat="44.8267324" lon="8.1556633"><ele>126.5</ele><time>2026-04-10T13:53:42.822Z</time></trkpt><trkpt lat="44.8266853" lon="8.1555979"><ele>126.66666666666667</ele><time>2026-04-10T13:53:43.822Z</time></trkpt><trkpt lat="44.8266423" lon="8.1555301"><ele>126.83333333333334</ele><time>2026-04-10T13:53:44.821Z</time></trkpt><trkpt lat="44.8265626" lon="8.1553872"><ele>127.0</ele><time>2026-04-10T13:53:46.822Z</time></trkpt><trkpt lat="44.82652" lon="8.155321"><ele>127.0</ele><time>2026-04-10T13:53:47.822Z</time></trkpt><trkpt lat="44.8264735" lon="8.1552573"><ele>126.99999999999999</ele><time>2026-04-10T13:53:48.821Z</time></trkpt><trkpt lat="44.8263844" lon="8.1551305"><ele>126.99999999999999</ele><time>2026-04-10T13:53:50.821Z</time></trkpt><trkpt lat="44.8263062" lon="8.1549893"><ele>127.0</ele><time>2026-04-10T13:53:52.821Z</time></trkpt><trkpt lat="44.8262653" lon="8.1549215"><ele>127.0</ele><time>2026-04-10T13:53:53.822Z</time></trkpt><trkpt lat="44.8261816" lon="8.1547773"><ele>126.8</ele><time>2026-04-10T13:53:55.822Z</time></trkpt><trkpt lat="44.8261399" lon="8.1547069"><ele>126.6</ele><time>2026-04-10T13:53:56.821Z</time></trkpt><trkpt lat="44.8260561" lon="8.1545729"><ele>126.39999999999999</ele><time>2026-04-10T13:53:58.822Z</time></trkpt><trkpt lat="44.8259811" lon="8.1544395"><ele>126.19999999999999</ele><time>2026-04-10T13:54:00.821Z</time></trkpt><trkpt lat="44.8258976" lon="8.1543157"><ele>126.0</ele><time>2026-04-10T13:54:02.822Z</time></trkpt><trkpt lat="44.8258243" lon="8.154198"><ele>126.0</ele><time>2026-04-10T13:54:04.822Z</time></trkpt><trkpt lat="44.8257427" lon="8.1540592"><ele>126.0</ele><time>2026-04-10T13:54:06.82Z</time></trkpt><trkpt lat="44.8256602" lon="8.1539249"><ele>126.0</ele><time>2026-04-10T13:54:08.821Z</time></trkpt><trkpt lat="44.8255781" lon="8.1537929"><ele>126.0</ele><time>2026-04-10T13:54:10.82Z</time></trkpt><trkpt lat="44.8254947" lon="8.1536546"><ele>126.0</ele><time>2026-04-10T13:54:12.823Z</time></trkpt><trkpt lat="44.8254562" lon="8.1535843"><ele>126.0</ele><time>2026-04-10T13:54:13.823Z</time></trkpt><trkpt lat="44.8254203" lon="8.1535095"><ele>126.0</ele><time>2026-04-10T13:54:14.821Z</time></trkpt><trkpt lat="44.8253771" lon="8.1534427"><ele>126.0</ele><time>2026-04-10T13:54:15.82Z</time></trkpt><trkpt lat="44.8253355" lon="8.1533742"><ele>126.0</ele><time>2026-04-10T13:54:16.822Z</time></trkpt><trkpt lat="44.8252952" lon="8.1533013"><ele>126.0</ele><time>2026-04-10T13:54:17.821Z</time></trkpt><trkpt lat="44.8252238" lon="8.1531665"><ele>126.0</ele><time>2026-04-10T13:54:19.821Z</time></trkpt><trkpt lat="44.8251827" lon="8.1530962"><ele>126.16666666666667</ele><time>2026-04-10T13:54:20.822Z</time></trkpt><trkpt lat="44.8251359" lon="8.1530243"><ele>126.33333333333334</ele><time>2026-04-10T13:54:21.82Z</time></trkpt><trkpt lat="44.8250892" lon="8.1529569"><ele>126.5</ele><time>2026-04-10T13:54:22.821Z</time></trkpt><trkpt lat="44.8250494" lon="8.152885"><ele>126.66666666666667</ele><time>2026-04-10T13:54:23.822Z</time></trkpt><trkpt lat="44.8249712" lon="8.1527508"><ele>126.83333333333334</ele><time>2026-04-10T13:54:25.823Z</time></trkpt><trkpt lat="44.8249297" lon="8.1526757"><ele>127.0</ele><time>2026-04-10T13:54:26.821Z</time></trkpt><trkpt lat="44.8248847" lon="8.1526115"><ele>127.0</ele><time>2026-04-10T13:54:27.821Z</time></trkpt><trkpt lat="44.8247805" lon="8.1524771"><ele>127.0</ele><time>2026-04-10T13:54:29.82Z</time></trkpt><trkpt lat="44.8247002" lon="8.1523413"><ele>127.0</ele><time>2026-04-10T13:54:31.822Z</time></trkpt><trkpt lat="44.8246209" lon="8.1522016"><ele>127.0</ele><time>2026-04-10T13:54:33.82Z</time></trkpt><trkpt lat="44.8245781" lon="8.1521363"><ele>127.0</ele><time>2026-04-10T13:54:34.823Z</time></trkpt><trkpt lat="44.8245342" lon="8.1520713"><ele>126.99999999999999</ele><time>2026-04-10T13:54:35.823Z</time></trkpt><trkpt lat="44.8244515" lon="8.1519386"><ele>126.99999999999999</ele><time>2026-04-10T13:54:37.822Z</time></trkpt><trkpt lat="44.8243704" lon="8.1517988"><ele>127.0</ele><time>2026-04-10T13:54:39.821Z</time></trkpt><trkpt lat="44.8243291" lon="8.1517277"><ele>127.0</ele><time>2026-04-10T13:54:40.823Z</time></trkpt><trkpt lat="44.8242851" lon="8.1516548"><ele>127.00000000000001</ele><time>2026-04-10T13:54:41.822Z</time></trkpt><trkpt lat="44.8242375" lon="8.151586"><ele>127.0</ele><time>2026-04-10T13:54:42.82Z</time></trkpt><trkpt lat="44.8241924" lon="8.1515127"><ele>127.0</ele><time>2026-04-10T13:54:43.821Z</time></trkpt><trkpt lat="44.8241497" lon="8.151441"><ele>127.0</ele><time>2026-04-10T13:54:44.82Z</time></trkpt><trkpt lat="44.8241086" lon="8.1513672"><ele>127.00000000000001</ele><time>2026-04-10T13:54:45.821Z</time></trkpt><trkpt lat="44.8240206" lon="8.1512365"><ele>127.0</ele><time>2026-04-10T13:54:47.822Z</time></trkpt><trkpt lat="44.8239796" lon="8.1511642"><ele>127.00000000000001</ele><time>2026-04-10T13:54:48.821Z</time></trkpt><trkpt lat="44.8239369" lon="8.1510902"><ele>127.0</ele><time>2026-04-10T13:54:49.821Z</time></trkpt><trkpt lat="44.8238607" lon="8.1509452"><ele>127.0</ele><time>2026-04-10T13:54:51.82Z</time></trkpt><trkpt lat="44.8238153" lon="8.1508717"><ele>127.0</ele><time>2026-04-10T13:54:52.82Z</time></trkpt><trkpt lat="44.823771" lon="8.1507958"><ele>127.00000000000001</ele><time>2026-04-10T13:54:53.821Z</time></trkpt><trkpt lat="44.8237224" lon="8.1507237"><ele>127.0</ele><time>2026-04-10T13:54:54.821Z</time></trkpt><trkpt lat="44.8236338" lon="8.1505847"><ele>127.0</ele><time>2026-04-10T13:54:56.821Z</time></trkpt><trkpt lat="44.8235932" lon="8.1505145"><ele>127.0</ele><time>2026-04-10T13:54:57.821Z</time></trkpt><trkpt lat="44.8235449" lon="8.1504407"><ele>127.0</ele><time>2026-04-10T13:54:58.822Z</time></trkpt><trkpt lat="44.8234992" lon="8.1503644"><ele>127.0</ele><time>2026-04-10T13:54:59.821Z</time></trkpt><trkpt lat="44.8234526" lon="8.1502864"><ele>127.0</ele><time>2026-04-10T13:55:00.821Z</time></trkpt><trkpt lat="44.8234105" lon="8.1502048"><ele>127.0</ele><time>2026-04-10T13:55:01.822Z</time></trkpt><trkpt lat="44.823363" lon="8.1501314"><ele>127.0</ele><time>2026-04-10T13:55:02.822Z</time></trkpt><trkpt lat="44.8233184" lon="8.1500656"><ele>127.0</ele><time>2026-04-10T13:55:03.821Z</time></trkpt><trkpt lat="44.8232737" lon="8.1499912"><ele>126.99999999999999</ele><time>2026-04-10T13:55:04.821Z</time></trkpt><trkpt lat="44.8231976" lon="8.1498608"><ele>126.99999999999999</ele><time>2026-04-10T13:55:06.821Z</time></trkpt><trkpt lat="44.823151" lon="8.1497807"><ele>127.0</ele><time>2026-04-10T13:55:07.822Z</time></trkpt><trkpt lat="44.823085" lon="8.1496538"><ele>127.0</ele><time>2026-04-10T13:55:09.82Z</time></trkpt><trkpt lat="44.8230132" lon="8.1495384"><ele>127.00000000000001</ele><time>2026-04-10T13:55:11.822Z</time></trkpt><trkpt lat="44.822967" lon="8.1494758"><ele>127.0</ele><time>2026-04-10T13:55:12.822Z</time></trkpt><trkpt lat="44.8229221" lon="8.1494074"><ele>127.0</ele><time>2026-04-10T13:55:13.821Z</time></trkpt><trkpt lat="44.8228813" lon="8.1493382"><ele>127.0</ele><time>2026-04-10T13:55:14.82Z</time></trkpt><trkpt lat="44.8228348" lon="8.1492527"><ele>127.00000000000001</ele><time>2026-04-10T13:55:15.821Z</time></trkpt><trkpt lat="44.8227908" lon="8.1491808"><ele>127.0</ele><time>2026-04-10T13:55:16.821Z</time></trkpt><trkpt lat="44.8227168" lon="8.149043"><ele>127.00000000000001</ele><time>2026-04-10T13:55:18.823Z</time></trkpt><trkpt lat="44.8226775" lon="8.1489624"><ele>127.0</ele><time>2026-04-10T13:55:19.82Z</time></trkpt><trkpt lat="44.8226397" lon="8.1488904"><ele>127.0</ele><time>2026-04-10T13:55:20.822Z</time></trkpt><trkpt lat="44.8225654" lon="8.1487494"><ele>127.0</ele><time>2026-04-10T13:55:22.821Z</time></trkpt><trkpt lat="44.8225257" lon="8.1486659"><ele>127.00000000000001</ele><time>2026-04-10T13:55:23.822Z</time></trkpt><trkpt lat="44.8224497" lon="8.1485398"><ele>127.0</ele><time>2026-04-10T13:55:25.822Z</time></trkpt><trkpt lat="44.8223738" lon="8.1484074"><ele>127.0</ele><time>2026-04-10T13:55:27.821Z</time></trkpt><trkpt lat="44.8222994" lon="8.1482786"><ele>127.0</ele><time>2026-04-10T13:55:29.822Z</time></trkpt><trkpt lat="44.8222211" lon="8.1481328"><ele>127.0</ele><time>2026-04-10T13:55:31.821Z</time></trkpt><trkpt lat="44.8221426" lon="8.1480007"><ele>127.0</ele><time>2026-04-10T13:55:33.821Z</time></trkpt><trkpt lat="44.8220657" lon="8.1478686"><ele>127.0</ele><time>2026-04-10T13:55:35.82Z</time></trkpt><trkpt lat="44.8220179" lon="8.1478083"><ele>127.0</ele><time>2026-04-10T13:55:36.821Z</time></trkpt><trkpt lat="44.8219052" lon="8.1477474"><ele>127.0</ele><time>2026-04-10T13:55:38.821Z</time></trkpt><trkpt lat="44.82184" lon="8.1477479"><ele>127.0</ele><time>2026-04-10T13:55:39.822Z</time></trkpt><trkpt lat="44.8217755" lon="8.1477677"><ele>127.0</ele><time>2026-04-10T13:55:40.822Z</time></trkpt><trkpt lat="44.8217129" lon="8.1477974"><ele>127.0</ele><time>2026-04-10T13:55:41.821Z</time></trkpt><trkpt lat="44.8216506" lon="8.1478336"><ele>127.0</ele><time>2026-04-10T13:55:42.82Z</time></trkpt><trkpt lat="44.8215909" lon="8.1478668"><ele>127.00000000000001</ele><time>2026-04-10T13:55:43.821Z</time></trkpt><trkpt lat="44.8214988" lon="8.1479036"><ele>127.0</ele><time>2026-04-10T13:55:45.821Z</time></trkpt><trkpt lat="44.8213569" lon="8.1479369"><ele>127.0</ele><time>2026-04-10T13:55:47.821Z</time></trkpt><trkpt lat="44.8212911" lon="8.1479415"><ele>127.0</ele><time>2026-04-10T13:55:48.822Z</time></trkpt><trkpt lat="44.8212239" lon="8.1479516"><ele>127.00000000000001</ele><time>2026-04-10T13:55:49.822Z</time></trkpt><trkpt lat="44.8211609" lon="8.1479514"><ele>127.0</ele><time>2026-04-10T13:55:50.822Z</time></trkpt><trkpt lat="44.8210983" lon="8.1479657"><ele>127.0</ele><time>2026-04-10T13:55:51.82Z</time></trkpt><trkpt lat="44.8209796" lon="8.1479879"><ele>126.99999999999999</ele><time>2026-04-10T13:55:53.821Z</time></trkpt><trkpt lat="44.8208632" lon="8.1480289"><ele>126.99999999999999</ele><time>2026-04-10T13:55:55.822Z</time></trkpt><trkpt lat="44.8207637" lon="8.1480319"><ele>127.0</ele><time>2026-04-10T13:55:57.821Z</time></trkpt><trkpt lat="44.8206614" lon="8.1480413"><ele>127.0</ele><time>2026-04-10T13:55:59.821Z</time></trkpt><trkpt lat="44.8205422" lon="8.1480442"><ele>127.00000000000001</ele><time>2026-04-10T13:56:01.821Z</time></trkpt><trkpt lat="44.820479" lon="8.1480561"><ele>127.0</ele><time>2026-04-10T13:56:02.822Z</time></trkpt><trkpt lat="44.8204122" lon="8.1480696"><ele>127.0</ele><time>2026-04-10T13:56:03.821Z</time></trkpt><trkpt lat="44.8203494" lon="8.148087"><ele>127.0</ele><time>2026-04-10T13:56:04.822Z</time></trkpt><trkpt lat="44.8202223" lon="8.1481094"><ele>127.00000000000001</ele><time>2026-04-10T13:56:06.821Z</time></trkpt><trkpt lat="44.8201594" lon="8.1481216"><ele>127.0</ele><time>2026-04-10T13:56:07.82Z</time></trkpt><trkpt lat="44.8200293" lon="8.1481408"><ele>127.14285714285714</ele><time>2026-04-10T13:56:09.821Z</time></trkpt><trkpt lat="44.8199616" lon="8.1481505"><ele>127.28571428571428</ele><time>2026-04-10T13:56:10.822Z</time></trkpt><trkpt lat="44.8198979" lon="8.1481578"><ele>127.42857142857142</ele><time>2026-04-10T13:56:11.821Z</time></trkpt><trkpt lat="44.8197818" lon="8.1481912"><ele>127.57142857142857</ele><time>2026-04-10T13:56:13.821Z</time></trkpt><trkpt lat="44.8197141" lon="8.1481965"><ele>127.7142857142857</ele><time>2026-04-10T13:56:14.823Z</time></trkpt><trkpt lat="44.8196518" lon="8.1482093"><ele>127.85714285714285</ele><time>2026-04-10T13:56:15.821Z</time></trkpt><trkpt lat="44.8195873" lon="8.1482187"><ele>128.0</ele><time>2026-04-10T13:56:16.821Z</time></trkpt><trkpt lat="44.8194724" lon="8.1482238"><ele>127.99999999999999</ele><time>2026-04-10T13:56:18.822Z</time></trkpt><trkpt lat="44.8194093" lon="8.1482352"><ele>128.0</ele><time>2026-04-10T13:56:19.82Z</time></trkpt><trkpt lat="44.8193456" lon="8.1482399"><ele>128.0</ele><time>2026-04-10T13:56:20.821Z</time></trkpt><trkpt lat="44.819218" lon="8.1482513"><ele>128.0</ele><time>2026-04-10T13:56:22.821Z</time></trkpt><trkpt lat="44.819096" lon="8.1482795"><ele>127.99999999999999</ele><time>2026-04-10T13:56:24.822Z</time></trkpt><trkpt lat="44.8190318" lon="8.1482913"><ele>128.0</ele><time>2026-04-10T13:56:25.82Z</time></trkpt><trkpt lat="44.818914" lon="8.1483144"><ele>127.83333333333333</ele><time>2026-04-10T13:56:27.822Z</time></trkpt><trkpt lat="44.8187912" lon="8.1483385"><ele>127.66666666666666</ele><time>2026-04-10T13:56:29.822Z</time></trkpt><trkpt lat="44.8187224" lon="8.148335"><ele>127.5</ele><time>2026-04-10T13:56:30.821Z</time></trkpt><trkpt lat="44.8186538" lon="8.1483217"><ele>127.33333333333334</ele><time>2026-04-10T13:56:31.821Z</time></trkpt><trkpt lat="44.818594" lon="8.1482896"><ele>127.16666666666667</ele><time>2026-04-10T13:56:32.82Z</time></trkpt><trkpt lat="44.8185382" lon="8.1482467"><ele>127.0</ele><time>2026-04-10T13:56:33.82Z</time></trkpt><trkpt lat="44.8184408" lon="8.1481544"><ele>127.00000000000001</ele><time>2026-04-10T13:56:35.822Z</time></trkpt><trkpt lat="44.8183811" lon="8.1480222"><ele>127.0</ele><time>2026-04-10T13:56:37.82Z</time></trkpt><trkpt lat="44.8183431" lon="8.1479473"><ele>127.0</ele><time>2026-04-10T13:56:38.821Z</time></trkpt><trkpt lat="44.8182655" lon="8.1478072"><ele>127.0</ele><time>2026-04-10T13:56:40.821Z</time></trkpt><trkpt lat="44.8182225" lon="8.1477282"><ele>127.00000000000001</ele><time>2026-04-10T13:56:41.821Z</time></trkpt><trkpt lat="44.81819" lon="8.1476519"><ele>127.0</ele><time>2026-04-10T13:56:42.822Z</time></trkpt><trkpt lat="44.8181452" lon="8.147578"><ele>127.0</ele><time>2026-04-10T13:56:43.821Z</time></trkpt><trkpt lat="44.8181041" lon="8.1475024"><ele>127.0</ele><time>2026-04-10T13:56:44.82Z</time></trkpt><trkpt lat="44.8180619" lon="8.1474273"><ele>127.0</ele><time>2026-04-10T13:56:45.82Z</time></trkpt><trkpt lat="44.8180205" lon="8.1473488"><ele>127.0</ele><time>2026-04-10T13:56:46.822Z</time></trkpt><trkpt lat="44.8179807" lon="8.1472725"><ele>127.0</ele><time>2026-04-10T13:56:47.822Z</time></trkpt><trkpt lat="44.8179487" lon="8.1471918"><ele>127.0</ele><time>2026-04-10T13:56:48.821Z</time></trkpt><trkpt lat="44.8179067" lon="8.1471191"><ele>127.0</ele><time>2026-04-10T13:56:49.822Z</time></trkpt><trkpt lat="44.8178697" lon="8.1470444"><ele>127.39999999999999</ele><time>2026-04-10T13:56:50.821Z</time></trkpt><trkpt lat="44.8177957" lon="8.1469075"><ele>127.79999999999998</ele><time>2026-04-10T13:56:52.822Z</time></trkpt><trkpt lat="44.8177207" lon="8.1467671"><ele>128.2</ele><time>2026-04-10T13:56:54.822Z</time></trkpt><trkpt lat="44.8176857" lon="8.1466745"><ele>128.6</ele><time>2026-04-10T13:56:55.82Z</time></trkpt><trkpt lat="44.8176177" lon="8.1465268"><ele>129.0</ele><time>2026-04-10T13:56:57.822Z</time></trkpt><trkpt lat="44.8175776" lon="8.1464555"><ele>129.0</ele><time>2026-04-10T13:56:58.82Z</time></trkpt><trkpt lat="44.817503" lon="8.1463197"><ele>129.0</ele><time>2026-04-10T13:57:00.82Z</time></trkpt><trkpt lat="44.8174348" lon="8.1461808"><ele>129.0</ele><time>2026-04-10T13:57:02.821Z</time></trkpt><trkpt lat="44.8173548" lon="8.1460416"><ele>129.0</ele><time>2026-04-10T13:57:04.821Z</time></trkpt><trkpt lat="44.8173173" lon="8.1459678"><ele>129.0</ele><time>2026-04-10T13:57:05.821Z</time></trkpt><trkpt lat="44.8172821" lon="8.1458924"><ele>128.99999999999997</ele><time>2026-04-10T13:57:06.822Z</time></trkpt><trkpt lat="44.8172428" lon="8.1458152"><ele>129.0</ele><time>2026-04-10T13:57:07.821Z</time></trkpt><trkpt lat="44.8172043" lon="8.1457391"><ele>129.0</ele><time>2026-04-10T13:57:08.821Z</time></trkpt><trkpt lat="44.8171701" lon="8.1456636"><ele>129.0</ele><time>2026-04-10T13:57:09.822Z</time></trkpt><trkpt lat="44.8171282" lon="8.1455935"><ele>129.0</ele><time>2026-04-10T13:57:10.822Z</time></trkpt><trkpt lat="44.8170881" lon="8.1455145"><ele>128.99999999999997</ele><time>2026-04-10T13:57:11.821Z</time></trkpt><trkpt lat="44.8170412" lon="8.1454381"><ele>129.0</ele><time>2026-04-10T13:57:12.821Z</time></trkpt><trkpt lat="44.8170059" lon="8.1453609"><ele>129.0</ele><time>2026-04-10T13:57:13.823Z</time></trkpt><trkpt lat="44.8169684" lon="8.1452887"><ele>129.0</ele><time>2026-04-10T13:57:14.82Z</time></trkpt><trkpt lat="44.8169354" lon="8.1452085"><ele>129.0</ele><time>2026-04-10T13:57:15.821Z</time></trkpt><trkpt lat="44.8168674" lon="8.1450706"><ele>129.0</ele><time>2026-04-10T13:57:17.821Z</time></trkpt><trkpt lat="44.8167951" lon="8.1449508"><ele>129.0</ele><time>2026-04-10T13:57:19.82Z</time></trkpt><trkpt lat="44.8167307" lon="8.1448346"><ele>129.0</ele><time>2026-04-10T13:57:21.822Z</time></trkpt><trkpt lat="44.8166672" lon="8.1447087"><ele>129.0</ele><time>2026-04-10T13:57:23.822Z</time></trkpt><trkpt lat="44.8166029" lon="8.1445804"><ele>129.0</ele><time>2026-04-10T13:57:25.821Z</time></trkpt><trkpt lat="44.8165471" lon="8.1444428"><ele>129.0</ele><time>2026-04-10T13:57:27.822Z</time></trkpt><trkpt lat="44.8165085" lon="8.1442874"><ele>129.0</ele><time>2026-04-10T13:57:29.822Z</time></trkpt><trkpt lat="44.8164691" lon="8.144128"><ele>129.0</ele><time>2026-04-10T13:57:31.822Z</time></trkpt><trkpt lat="44.8164508" lon="8.1440351"><ele>129.0</ele><time>2026-04-10T13:57:32.821Z</time></trkpt><trkpt lat="44.816428" lon="8.1439501"><ele>129.0</ele><time>2026-04-10T13:57:33.821Z</time></trkpt><trkpt lat="44.8163865" lon="8.1437816"><ele>129.0</ele><time>2026-04-10T13:57:35.821Z</time></trkpt><trkpt lat="44.8163557" lon="8.1436179"><ele>129.0</ele><time>2026-04-10T13:57:37.821Z</time></trkpt><trkpt lat="44.8163579" lon="8.1434443"><ele>129.0</ele><time>2026-04-10T13:57:39.822Z</time></trkpt><trkpt lat="44.8163814" lon="8.1432948"><ele>129.0</ele><time>2026-04-10T13:57:41.82Z</time></trkpt><trkpt lat="44.8164213" lon="8.1431595"><ele>129.0</ele><time>2026-04-10T13:57:43.821Z</time></trkpt><trkpt lat="44.816478" lon="8.1430126"><ele>128.8</ele><time>2026-04-10T13:57:45.821Z</time></trkpt><trkpt lat="44.816513" lon="8.1429378"><ele>128.60000000000002</ele><time>2026-04-10T13:57:46.821Z</time></trkpt><trkpt lat="44.8165727" lon="8.1427926"><ele>128.4</ele><time>2026-04-10T13:57:48.822Z</time></trkpt><trkpt lat="44.8166309" lon="8.1426485"><ele>128.20000000000002</ele><time>2026-04-10T13:57:50.821Z</time></trkpt><trkpt lat="44.8166972" lon="8.1425106"><ele>128.0</ele><time>2026-04-10T13:57:52.821Z</time></trkpt><trkpt lat="44.8167343" lon="8.1424225"><ele>128.0</ele><time>2026-04-10T13:57:53.821Z</time></trkpt><trkpt lat="44.8167973" lon="8.1422805"><ele>128.0</ele><time>2026-04-10T13:57:55.82Z</time></trkpt><trkpt lat="44.8168626" lon="8.1421466"><ele>128.0</ele><time>2026-04-10T13:57:57.821Z</time></trkpt><trkpt lat="44.8169124" lon="8.1420218"><ele>128.0</ele><time>2026-04-10T13:57:59.821Z</time></trkpt><trkpt lat="44.8169598" lon="8.1419087"><ele>128.0</ele><time>2026-04-10T13:58:01.82Z</time></trkpt><trkpt lat="44.8170076" lon="8.141795"><ele>128.0</ele><time>2026-04-10T13:58:03.82Z</time></trkpt><trkpt lat="44.8170682" lon="8.1416693"><ele>128.0</ele><time>2026-04-10T13:58:05.82Z</time></trkpt><trkpt lat="44.8171036" lon="8.14154"><ele>128.0</ele><time>2026-04-10T13:58:07.82Z</time></trkpt><trkpt lat="44.8171312" lon="8.1414"><ele>128.0</ele><time>2026-04-10T13:58:09.82Z</time></trkpt><trkpt lat="44.8171103" lon="8.1412777"><ele>128.0</ele><time>2026-04-10T13:58:11.821Z</time></trkpt><trkpt lat="44.8170251" lon="8.1410788"><ele>127.99999999999999</ele><time>2026-04-10T13:58:14.821Z</time></trkpt><trkpt lat="44.816975" lon="8.1409291"><ele>128.0</ele><time>2026-04-10T13:58:16.82Z</time></trkpt><trkpt lat="44.8169333" lon="8.1407738"><ele>128.0</ele><time>2026-04-10T13:58:18.82Z</time></trkpt><trkpt lat="44.8169077" lon="8.1406919"><ele>128.0</ele><time>2026-04-10T13:58:19.821Z</time></trkpt><trkpt lat="44.8168778" lon="8.1406098"><ele>127.99999999999999</ele><time>2026-04-10T13:58:20.821Z</time></trkpt><trkpt lat="44.8168557" lon="8.1405236"><ele>128.0</ele><time>2026-04-10T13:58:21.822Z</time></trkpt><trkpt lat="44.8168229" lon="8.1404374"><ele>128.16666666666666</ele><time>2026-04-10T13:58:22.82Z</time></trkpt><trkpt lat="44.8167965" lon="8.1403554"><ele>128.33333333333331</ele><time>2026-04-10T13:58:23.822Z</time></trkpt><trkpt lat="44.8167685" lon="8.1402744"><ele>128.5</ele><time>2026-04-10T13:58:24.822Z</time></trkpt><trkpt lat="44.8167162" lon="8.140118"><ele>128.66666666666666</ele><time>2026-04-10T13:58:26.82Z</time></trkpt><trkpt lat="44.8166885" lon="8.1400279"><ele>128.83333333333334</ele><time>2026-04-10T13:58:27.82Z</time></trkpt><trkpt lat="44.8166624" lon="8.1399423"><ele>129.0</ele><time>2026-04-10T13:58:28.82Z</time></trkpt><trkpt lat="44.8166303" lon="8.1398599"><ele>129.0</ele><time>2026-04-10T13:58:29.82Z</time></trkpt><trkpt lat="44.8165868" lon="8.1397"><ele>129.0</ele><time>2026-04-10T13:58:31.821Z</time></trkpt><trkpt lat="44.8165414" lon="8.1395558"><ele>129.0</ele><time>2026-04-10T13:58:33.822Z</time></trkpt><trkpt lat="44.8164982" lon="8.1394106"><ele>129.0</ele><time>2026-04-10T13:58:35.821Z</time></trkpt><trkpt lat="44.8164546" lon="8.1392723"><ele>129.0</ele><time>2026-04-10T13:58:37.821Z</time></trkpt><trkpt lat="44.8164188" lon="8.1391364"><ele>129.0</ele><time>2026-04-10T13:58:39.821Z</time></trkpt><trkpt lat="44.8163739" lon="8.1390023"><ele>129.0</ele><time>2026-04-10T13:58:41.821Z</time></trkpt><trkpt lat="44.8163309" lon="8.1388739"><ele>129.0</ele><time>2026-04-10T13:58:43.821Z</time></trkpt><trkpt lat="44.8162921" lon="8.1387632"><ele>129.0</ele><time>2026-04-10T13:58:45.82Z</time></trkpt><trkpt lat="44.816237" lon="8.1386634"><ele>129.0</ele><time>2026-04-10T13:58:47.821Z</time></trkpt><trkpt lat="44.8161527" lon="8.1385939"><ele>129.0</ele><time>2026-04-10T13:58:49.82Z</time></trkpt><trkpt lat="44.8160006" lon="8.1385361"><ele>129.0</ele><time>2026-04-10T13:58:52.82Z</time></trkpt><trkpt lat="44.815887" lon="8.1385171"><ele>129.0</ele><time>2026-04-10T13:58:54.822Z</time></trkpt><trkpt lat="44.8157709" lon="8.1385188"><ele>129.0</ele><time>2026-04-10T13:58:56.821Z</time></trkpt><trkpt lat="44.8156463" lon="8.1385223"><ele>129.0</ele><time>2026-04-10T13:58:58.823Z</time></trkpt><trkpt lat="44.8155211" lon="8.1385164"><ele>129.0</ele><time>2026-04-10T13:59:00.82Z</time></trkpt><trkpt lat="44.8154572" lon="8.1385197"><ele>129.0</ele><time>2026-04-10T13:59:01.82Z</time></trkpt><trkpt lat="44.815393" lon="8.1385246"><ele>129.0</ele><time>2026-04-10T13:59:02.821Z</time></trkpt><trkpt lat="44.8153277" lon="8.1385312"><ele>129.0</ele><time>2026-04-10T13:59:03.821Z</time></trkpt><trkpt lat="44.8151991" lon="8.1385252"><ele>129.0</ele><time>2026-04-10T13:59:05.821Z</time></trkpt><trkpt lat="44.8151358" lon="8.1385286"><ele>129.0</ele><time>2026-04-10T13:59:06.821Z</time></trkpt><trkpt lat="44.8150725" lon="8.1385214"><ele>129.0</ele><time>2026-04-10T13:59:07.821Z</time></trkpt><trkpt lat="44.8149532" lon="8.1384929"><ele>129.0</ele><time>2026-04-10T13:59:09.82Z</time></trkpt><trkpt lat="44.8148368" lon="8.1384372"><ele>129.0</ele><time>2026-04-10T13:59:11.82Z</time></trkpt><trkpt lat="44.8147429" lon="8.1383559"><ele>129.0</ele><time>2026-04-10T13:59:13.821Z</time></trkpt><trkpt lat="44.8146835" lon="8.1383197"><ele>129.0</ele><time>2026-04-10T13:59:14.821Z</time></trkpt><trkpt lat="44.8146267" lon="8.1382695"><ele>129.0</ele><time>2026-04-10T13:59:15.821Z</time></trkpt><trkpt lat="44.8145757" lon="8.1382163"><ele>129.0</ele><time>2026-04-10T13:59:16.82Z</time></trkpt><trkpt lat="44.8145151" lon="8.1381673"><ele>129.0</ele><time>2026-04-10T13:59:17.821Z</time></trkpt><trkpt lat="44.8144573" lon="8.1381169"><ele>129.0</ele><time>2026-04-10T13:59:18.821Z</time></trkpt><trkpt lat="44.814349" lon="8.1380232"><ele>129.14285714285714</ele><time>2026-04-10T13:59:20.821Z</time></trkpt><trkpt lat="44.8142899" lon="8.1379806"><ele>129.28571428571428</ele><time>2026-04-10T13:59:21.82Z</time></trkpt><trkpt lat="44.8142289" lon="8.1379304"><ele>129.42857142857144</ele><time>2026-04-10T13:59:22.821Z</time></trkpt><trkpt lat="44.8141681" lon="8.1378827"><ele>129.57142857142856</ele><time>2026-04-10T13:59:23.82Z</time></trkpt><trkpt lat="44.8141081" lon="8.1378315"><ele>129.71428571428572</ele><time>2026-04-10T13:59:24.821Z</time></trkpt><trkpt lat="44.8140509" lon="8.1377896"><ele>129.85714285714286</ele><time>2026-04-10T13:59:25.821Z</time></trkpt><trkpt lat="44.8139975" lon="8.1377323"><ele>130.0</ele><time>2026-04-10T13:59:26.821Z</time></trkpt><trkpt lat="44.8138858" lon="8.1376303"><ele>130.0</ele><time>2026-04-10T13:59:28.821Z</time></trkpt><trkpt lat="44.8138226" lon="8.1375771"><ele>130.0</ele><time>2026-04-10T13:59:29.821Z</time></trkpt><trkpt lat="44.8137181" lon="8.1374732"><ele>130.0</ele><time>2026-04-10T13:59:31.821Z</time></trkpt><trkpt lat="44.813661" lon="8.1374234"><ele>130.0</ele><time>2026-04-10T13:59:32.82Z</time></trkpt><trkpt lat="44.8136061" lon="8.1373562"><ele>130.0</ele><time>2026-04-10T13:59:33.821Z</time></trkpt><trkpt lat="44.813548" lon="8.1373066"><ele>130.0</ele><time>2026-04-10T13:59:34.822Z</time></trkpt><trkpt lat="44.8134965" lon="8.1372445"><ele>130.16666666666669</ele><time>2026-04-10T13:59:35.82Z</time></trkpt><trkpt lat="44.813441" lon="8.1371948"><ele>130.33333333333334</ele><time>2026-04-10T13:59:36.821Z</time></trkpt><trkpt lat="44.8133869" lon="8.1371456"><ele>130.5</ele><time>2026-04-10T13:59:37.82Z</time></trkpt><trkpt lat="44.8133291" lon="8.1370908"><ele>130.66666666666666</ele><time>2026-04-10T13:59:38.82Z</time></trkpt><trkpt lat="44.8132696" lon="8.137042"><ele>130.83333333333331</ele><time>2026-04-10T13:59:39.822Z</time></trkpt><trkpt lat="44.8132052" lon="8.1370011"><ele>131.0</ele><time>2026-04-10T13:59:40.82Z</time></trkpt><trkpt lat="44.8130903" lon="8.1369051"><ele>131.0</ele><time>2026-04-10T13:59:42.821Z</time></trkpt><trkpt lat="44.8129929" lon="8.1368076"><ele>131.0</ele><time>2026-04-10T13:59:44.821Z</time></trkpt><trkpt lat="44.8129358" lon="8.1367588"><ele>131.0</ele><time>2026-04-10T13:59:45.821Z</time></trkpt><trkpt lat="44.8128785" lon="8.1366922"><ele>131.0</ele><time>2026-04-10T13:59:46.821Z</time></trkpt><trkpt lat="44.8128209" lon="8.136646"><ele>131.0</ele><time>2026-04-10T13:59:47.82Z</time></trkpt><trkpt lat="44.8127545" lon="8.1365987"><ele>131.0</ele><time>2026-04-10T13:59:48.821Z</time></trkpt><trkpt lat="44.8126993" lon="8.136552"><ele>130.83333333333331</ele><time>2026-04-10T13:59:49.82Z</time></trkpt><trkpt lat="44.8125869" lon="8.1364627"><ele>130.66666666666666</ele><time>2026-04-10T13:59:51.82Z</time></trkpt><trkpt lat="44.8125306" lon="8.1364176"><ele>130.5</ele><time>2026-04-10T13:59:52.82Z</time></trkpt><trkpt lat="44.8124715" lon="8.1363758"><ele>130.33333333333334</ele><time>2026-04-10T13:59:53.822Z</time></trkpt><trkpt lat="44.8124109" lon="8.1363139"><ele>130.16666666666669</ele><time>2026-04-10T13:59:54.82Z</time></trkpt><trkpt lat="44.812344" lon="8.1362539"><ele>130.0</ele><time>2026-04-10T13:59:55.82Z</time></trkpt><trkpt lat="44.8122859" lon="8.1362135"><ele>130.0</ele><time>2026-04-10T13:59:56.821Z</time></trkpt><trkpt lat="44.8121755" lon="8.1361178"><ele>130.0</ele><time>2026-04-10T13:59:58.821Z</time></trkpt><trkpt lat="44.812113" lon="8.1360713"><ele>130.0</ele><time>2026-04-10T13:59:59.822Z</time></trkpt><trkpt lat="44.812047" lon="8.1360309"><ele>130.0</ele><time>2026-04-10T14:00:00.82Z</time></trkpt><trkpt lat="44.8119857" lon="8.1359794"><ele>130.0</ele><time>2026-04-10T14:00:01.821Z</time></trkpt><trkpt lat="44.8119218" lon="8.1359383"><ele>130.0</ele><time>2026-04-10T14:00:02.822Z</time></trkpt><trkpt lat="44.8118565" lon="8.1358893"><ele>130.00000000000003</ele><time>2026-04-10T14:00:03.82Z</time></trkpt><trkpt lat="44.811801" lon="8.1358418"><ele>130.0</ele><time>2026-04-10T14:00:04.821Z</time></trkpt><trkpt lat="44.8117392" lon="8.1358016"><ele>130.0</ele><time>2026-04-10T14:00:05.821Z</time></trkpt><trkpt lat="44.8116776" lon="8.1357636"><ele>130.0</ele><time>2026-04-10T14:00:06.821Z</time></trkpt><trkpt lat="44.811612" lon="8.1357307"><ele>130.0</ele><time>2026-04-10T14:00:07.821Z</time></trkpt><trkpt lat="44.8115488" lon="8.1356866"><ele>130.00000000000003</ele><time>2026-04-10T14:00:08.821Z</time></trkpt><trkpt lat="44.8114904" lon="8.1356479"><ele>130.0</ele><time>2026-04-10T14:00:09.82Z</time></trkpt><trkpt lat="44.8113722" lon="8.1355806"><ele>130.0</ele><time>2026-04-10T14:00:11.821Z</time></trkpt><trkpt lat="44.81131" lon="8.1355391"><ele>130.0</ele><time>2026-04-10T14:00:12.82Z</time></trkpt><trkpt lat="44.8111406" lon="8.1354263"><ele>130.0</ele><time>2026-04-10T14:00:15.82Z</time></trkpt><trkpt lat="44.8110316" lon="8.1353407"><ele>130.0</ele><time>2026-04-10T14:00:17.822Z</time></trkpt><trkpt lat="44.8109726" lon="8.1353017"><ele>130.0</ele><time>2026-04-10T14:00:18.821Z</time></trkpt><trkpt lat="44.8109062" lon="8.1352519"><ele>129.85714285714286</ele><time>2026-04-10T14:00:19.821Z</time></trkpt><trkpt lat="44.8108421" lon="8.1352149"><ele>129.71428571428572</ele><time>2026-04-10T14:00:20.82Z</time></trkpt><trkpt lat="44.8107776" lon="8.1351796"><ele>129.57142857142856</ele><time>2026-04-10T14:00:21.82Z</time></trkpt><trkpt lat="44.8107197" lon="8.1351379"><ele>129.42857142857144</ele><time>2026-04-10T14:00:22.82Z</time></trkpt><trkpt lat="44.8106532" lon="8.1351035"><ele>129.28571428571428</ele><time>2026-04-10T14:00:23.821Z</time></trkpt><trkpt lat="44.8105847" lon="8.1350651"><ele>129.14285714285714</ele><time>2026-04-10T14:00:24.82Z</time></trkpt><trkpt lat="44.8105184" lon="8.1350271"><ele>129.0</ele><time>2026-04-10T14:00:25.82Z</time></trkpt><trkpt lat="44.8104549" lon="8.1349952"><ele>128.99999999999997</ele><time>2026-04-10T14:00:26.82Z</time></trkpt><trkpt lat="44.8103933" lon="8.1349589"><ele>129.0</ele><time>2026-04-10T14:00:27.821Z</time></trkpt><trkpt lat="44.8103345" lon="8.1349143"><ele>129.0</ele><time>2026-04-10T14:00:28.82Z</time></trkpt><trkpt lat="44.8102746" lon="8.1348772"><ele>129.0</ele><time>2026-04-10T14:00:29.821Z</time></trkpt><trkpt lat="44.8102088" lon="8.1348449"><ele>129.0</ele><time>2026-04-10T14:00:30.821Z</time></trkpt><trkpt lat="44.8101459" lon="8.1348019"><ele>128.99999999999997</ele><time>2026-04-10T14:00:31.82Z</time></trkpt><trkpt lat="44.8100867" lon="8.1347674"><ele>129.0</ele><time>2026-04-10T14:00:32.821Z</time></trkpt><trkpt lat="44.8100211" lon="8.1347346"><ele>129.14285714285714</ele><time>2026-04-10T14:00:33.821Z</time></trkpt><trkpt lat="44.8099642" lon="8.1346946"><ele>129.28571428571428</ele><time>2026-04-10T14:00:34.822Z</time></trkpt><trkpt lat="44.8099043" lon="8.1346662"><ele>129.42857142857144</ele><time>2026-04-10T14:00:35.822Z</time></trkpt><trkpt lat="44.8098451" lon="8.1346297"><ele>129.57142857142856</ele><time>2026-04-10T14:00:36.82Z</time></trkpt><trkpt lat="44.8097864" lon="8.1345933"><ele>129.71428571428572</ele><time>2026-04-10T14:00:37.82Z</time></trkpt><trkpt lat="44.8097251" lon="8.1345658"><ele>129.85714285714286</ele><time>2026-04-10T14:00:38.82Z</time></trkpt><trkpt lat="44.8096609" lon="8.1345332"><ele>130.0</ele><time>2026-04-10T14:00:39.82Z</time></trkpt><trkpt lat="44.8095943" lon="8.1344932"><ele>130.00000000000003</ele><time>2026-04-10T14:00:40.82Z</time></trkpt><trkpt lat="44.8095328" lon="8.1344532"><ele>130.0</ele><time>2026-04-10T14:00:41.821Z</time></trkpt><trkpt lat="44.8094644" lon="8.1344168"><ele>130.0</ele><time>2026-04-10T14:00:42.82Z</time></trkpt><trkpt lat="44.8094008" lon="8.1343866"><ele>130.0</ele><time>2026-04-10T14:00:43.82Z</time></trkpt><trkpt lat="44.8093384" lon="8.1343533"><ele>130.0</ele><time>2026-04-10T14:00:44.822Z</time></trkpt><trkpt lat="44.8092697" lon="8.1343181"><ele>130.00000000000003</ele><time>2026-04-10T14:00:45.821Z</time></trkpt><trkpt lat="44.809202" lon="8.1342777"><ele>130.0</ele><time>2026-04-10T14:00:46.821Z</time></trkpt><trkpt lat="44.809141" lon="8.1342493"><ele>129.71428571428572</ele><time>2026-04-10T14:00:47.821Z</time></trkpt><trkpt lat="44.8090764" lon="8.1342113"><ele>129.42857142857144</ele><time>2026-04-10T14:00:48.821Z</time></trkpt><trkpt lat="44.8090084" lon="8.1341763"><ele>129.14285714285714</ele><time>2026-04-10T14:00:49.821Z</time></trkpt><trkpt lat="44.8089411" lon="8.1341399"><ele>128.85714285714286</ele><time>2026-04-10T14:00:50.821Z</time></trkpt><trkpt lat="44.8088704" lon="8.1341131"><ele>128.57142857142856</ele><time>2026-04-10T14:00:51.821Z</time></trkpt><trkpt lat="44.8088021" lon="8.134084"><ele>128.28571428571428</ele><time>2026-04-10T14:00:52.819Z</time></trkpt><trkpt lat="44.8087375" lon="8.1340498"><ele>128.0</ele><time>2026-04-10T14:00:53.822Z</time></trkpt><trkpt lat="44.8086698" lon="8.134019"><ele>128.0</ele><time>2026-04-10T14:00:54.821Z</time></trkpt><trkpt lat="44.8086071" lon="8.1339893"><ele>127.99999999999999</ele><time>2026-04-10T14:00:55.821Z</time></trkpt><trkpt lat="44.8085412" lon="8.1339652"><ele>128.0</ele><time>2026-04-10T14:00:56.82Z</time></trkpt><trkpt lat="44.8084729" lon="8.1339347"><ele>128.0</ele><time>2026-04-10T14:00:57.82Z</time></trkpt><trkpt lat="44.8084079" lon="8.1339027"><ele>127.99999999999999</ele><time>2026-04-10T14:00:58.822Z</time></trkpt><trkpt lat="44.8083414" lon="8.1338752"><ele>128.0</ele><time>2026-04-10T14:00:59.821Z</time></trkpt><trkpt lat="44.8082788" lon="8.1338393"><ele>128.0</ele><time>2026-04-10T14:01:00.822Z</time></trkpt><trkpt lat="44.8082128" lon="8.1338111"><ele>127.99999999999999</ele><time>2026-04-10T14:01:01.821Z</time></trkpt><trkpt lat="44.8081486" lon="8.1337871"><ele>128.0</ele><time>2026-04-10T14:01:02.819Z</time></trkpt><trkpt lat="44.8080879" lon="8.1337572"><ele>128.0</ele><time>2026-04-10T14:01:03.82Z</time></trkpt><trkpt lat="44.8080246" lon="8.1337272"><ele>128.0</ele><time>2026-04-10T14:01:04.82Z</time></trkpt><trkpt lat="44.8079079" lon="8.1336641"><ele>127.99999999999999</ele><time>2026-04-10T14:01:06.819Z</time></trkpt><trkpt lat="44.8077889" lon="8.1336037"><ele>128.0</ele><time>2026-04-10T14:01:08.821Z</time></trkpt><trkpt lat="44.8077276" lon="8.1335755"><ele>128.0</ele><time>2026-04-10T14:01:09.821Z</time></trkpt><trkpt lat="44.8076641" lon="8.1335369"><ele>127.99999999999999</ele><time>2026-04-10T14:01:10.819Z</time></trkpt><trkpt lat="44.8076076" lon="8.1334963"><ele>128.0</ele><time>2026-04-10T14:01:11.821Z</time></trkpt><trkpt lat="44.8075509" lon="8.1334539"><ele>128.0</ele><time>2026-04-10T14:01:12.821Z</time></trkpt><trkpt lat="44.8074848" lon="8.1334214"><ele>127.99999999999999</ele><time>2026-04-10T14:01:13.821Z</time></trkpt><trkpt lat="44.8074199" lon="8.1333917"><ele>128.0</ele><time>2026-04-10T14:01:14.819Z</time></trkpt><trkpt lat="44.8073563" lon="8.1333605"><ele>128.0</ele><time>2026-04-10T14:01:15.821Z</time></trkpt><trkpt lat="44.8072949" lon="8.1333294"><ele>128.16666666666666</ele><time>2026-04-10T14:01:16.821Z</time></trkpt><trkpt lat="44.8072331" lon="8.1333044"><ele>128.33333333333331</ele><time>2026-04-10T14:01:17.82Z</time></trkpt><trkpt lat="44.8071696" lon="8.1332718"><ele>128.5</ele><time>2026-04-10T14:01:18.821Z</time></trkpt><trkpt lat="44.8070519" lon="8.1332183"><ele>128.66666666666666</ele><time>2026-04-10T14:01:20.821Z</time></trkpt><trkpt lat="44.806988" lon="8.1331862"><ele>128.83333333333334</ele><time>2026-04-10T14:01:21.822Z</time></trkpt><trkpt lat="44.8069259" lon="8.1331584"><ele>129.0</ele><time>2026-04-10T14:01:22.821Z</time></trkpt><trkpt lat="44.8068015" lon="8.1331106"><ele>129.0</ele><time>2026-04-10T14:01:24.822Z</time></trkpt><trkpt lat="44.8066795" lon="8.1330598"><ele>129.0</ele><time>2026-04-10T14:01:26.82Z</time></trkpt><trkpt lat="44.806556" lon="8.1330027"><ele>129.0</ele><time>2026-04-10T14:01:28.821Z</time></trkpt><trkpt lat="44.806494" lon="8.1329744"><ele>129.0</ele><time>2026-04-10T14:01:29.82Z</time></trkpt><trkpt lat="44.8063766" lon="8.1329238"><ele>129.0</ele><time>2026-04-10T14:01:31.821Z</time></trkpt><trkpt lat="44.8063092" lon="8.1328959"><ele>129.0</ele><time>2026-04-10T14:01:32.821Z</time></trkpt><trkpt lat="44.8062427" lon="8.1328584"><ele>129.0</ele><time>2026-04-10T14:01:33.822Z</time></trkpt><trkpt lat="44.8061821" lon="8.1328296"><ele>129.0</ele><time>2026-04-10T14:01:34.82Z</time></trkpt><trkpt lat="44.8061184" lon="8.1328048"><ele>129.0</ele><time>2026-04-10T14:01:35.82Z</time></trkpt><trkpt lat="44.8060533" lon="8.1327767"><ele>129.0</ele><time>2026-04-10T14:01:36.821Z</time></trkpt><trkpt lat="44.805989" lon="8.1327477"><ele>129.0</ele><time>2026-04-10T14:01:37.82Z</time></trkpt><trkpt lat="44.8058699" lon="8.1326863"><ele>129.14285714285714</ele><time>2026-04-10T14:01:39.822Z</time></trkpt><trkpt lat="44.8058056" lon="8.1326614"><ele>129.28571428571428</ele><time>2026-04-10T14:01:40.821Z</time></trkpt><trkpt lat="44.8057429" lon="8.1326317"><ele>129.42857142857144</ele><time>2026-04-10T14:01:41.82Z</time></trkpt><trkpt lat="44.8056799" lon="8.1326017"><ele>129.57142857142856</ele><time>2026-04-10T14:01:42.82Z</time></trkpt><trkpt lat="44.8056169" lon="8.1325669"><ele>129.71428571428572</ele><time>2026-04-10T14:01:43.821Z</time></trkpt><trkpt lat="44.8055527" lon="8.1325342"><ele>129.85714285714286</ele><time>2026-04-10T14:01:44.822Z</time></trkpt><trkpt lat="44.8054921" lon="8.132504"><ele>130.0</ele><time>2026-04-10T14:01:45.82Z</time></trkpt><trkpt lat="44.8054305" lon="8.132477"><ele>130.00000000000003</ele><time>2026-04-10T14:01:46.82Z</time></trkpt><trkpt lat="44.8053651" lon="8.1324379"><ele>130.0</ele><time>2026-04-10T14:01:47.821Z</time></trkpt><trkpt lat="44.8053011" lon="8.1324104"><ele>130.0</ele><time>2026-04-10T14:01:48.821Z</time></trkpt><trkpt lat="44.8052394" lon="8.1323758"><ele>130.0</ele><time>2026-04-10T14:01:49.821Z</time></trkpt><trkpt lat="44.805175" lon="8.1323464"><ele>130.0</ele><time>2026-04-10T14:01:50.819Z</time></trkpt><trkpt lat="44.8051137" lon="8.1323167"><ele>130.00000000000003</ele><time>2026-04-10T14:01:51.821Z</time></trkpt><trkpt lat="44.8050515" lon="8.132286"><ele>130.0</ele><time>2026-04-10T14:01:52.821Z</time></trkpt><trkpt lat="44.8049258" lon="8.1322355"><ele>129.83333333333334</ele><time>2026-04-10T14:01:54.82Z</time></trkpt><trkpt lat="44.8048689" lon="8.1321952"><ele>129.66666666666669</ele><time>2026-04-10T14:01:55.821Z</time></trkpt><trkpt lat="44.8047442" lon="8.1321401"><ele>129.5</ele><time>2026-04-10T14:01:57.819Z</time></trkpt><trkpt lat="44.8046749" lon="8.1321136"><ele>129.33333333333334</ele><time>2026-04-10T14:01:58.82Z</time></trkpt><trkpt lat="44.8046069" lon="8.1320801"><ele>129.16666666666666</ele><time>2026-04-10T14:01:59.82Z</time></trkpt><trkpt lat="44.8045397" lon="8.1320467"><ele>129.0</ele><time>2026-04-10T14:02:00.82Z</time></trkpt><trkpt lat="44.8044725" lon="8.1320156"><ele>128.99999999999997</ele><time>2026-04-10T14:02:01.82Z</time></trkpt><trkpt lat="44.8044065" lon="8.1319867"><ele>129.0</ele><time>2026-04-10T14:02:02.82Z</time></trkpt><trkpt lat="44.8043454" lon="8.1319564"><ele>129.0</ele><time>2026-04-10T14:02:03.821Z</time></trkpt><trkpt lat="44.8042795" lon="8.131931"><ele>129.0</ele><time>2026-04-10T14:02:04.821Z</time></trkpt><trkpt lat="44.8042109" lon="8.1319075"><ele>129.0</ele><time>2026-04-10T14:02:05.82Z</time></trkpt><trkpt lat="44.8041466" lon="8.1318781"><ele>128.99999999999997</ele><time>2026-04-10T14:02:06.82Z</time></trkpt><trkpt lat="44.8040857" lon="8.1318453"><ele>129.0</ele><time>2026-04-10T14:02:07.821Z</time></trkpt><trkpt lat="44.8040218" lon="8.1318223"><ele>128.99999999999997</ele><time>2026-04-10T14:02:08.82Z</time></trkpt><trkpt lat="44.8039517" lon="8.131793"><ele>129.0</ele><time>2026-04-10T14:02:09.82Z</time></trkpt><trkpt lat="44.8038914" lon="8.1317622"><ele>129.0</ele><time>2026-04-10T14:02:10.822Z</time></trkpt><trkpt lat="44.8038285" lon="8.1317277"><ele>129.0</ele><time>2026-04-10T14:02:11.821Z</time></trkpt><trkpt lat="44.8037634" lon="8.1316987"><ele>129.0</ele><time>2026-04-10T14:02:12.821Z</time></trkpt><trkpt lat="44.803697" lon="8.131672"><ele>128.99999999999997</ele><time>2026-04-10T14:02:13.82Z</time></trkpt><trkpt lat="44.8036306" lon="8.131644"><ele>129.0</ele><time>2026-04-10T14:02:14.821Z</time></trkpt><trkpt lat="44.8035069" lon="8.1315875"><ele>128.99999999999997</ele><time>2026-04-10T14:02:16.821Z</time></trkpt><trkpt lat="44.8034426" lon="8.1315523"><ele>129.0</ele><time>2026-04-10T14:02:17.819Z</time></trkpt><trkpt lat="44.8033743" lon="8.131522"><ele>129.0</ele><time>2026-04-10T14:02:18.821Z</time></trkpt><trkpt lat="44.8033062" lon="8.1314879"><ele>129.0</ele><time>2026-04-10T14:02:19.82Z</time></trkpt><trkpt lat="44.8032424" lon="8.1314576"><ele>129.0</ele><time>2026-04-10T14:02:20.821Z</time></trkpt><trkpt lat="44.80318" lon="8.1314263"><ele>128.99999999999997</ele><time>2026-04-10T14:02:21.819Z</time></trkpt><trkpt lat="44.8031157" lon="8.1313976"><ele>129.0</ele><time>2026-04-10T14:02:22.82Z</time></trkpt><trkpt lat="44.8030524" lon="8.1313667"><ele>129.0</ele><time>2026-04-10T14:02:23.819Z</time></trkpt><trkpt lat="44.8029333" lon="8.1313103"><ele>129.0</ele><time>2026-04-10T14:02:25.82Z</time></trkpt><trkpt lat="44.8028267" lon="8.1312592"><ele>129.0</ele><time>2026-04-10T14:02:27.82Z</time></trkpt><trkpt lat="44.8027298" lon="8.1312102"><ele>129.0</ele><time>2026-04-10T14:02:29.82Z</time></trkpt><trkpt lat="44.802626" lon="8.1311812"><ele>129.0</ele><time>2026-04-10T14:02:31.821Z</time></trkpt><trkpt lat="44.8025175" lon="8.131167"><ele>129.25</ele><time>2026-04-10T14:02:33.82Z</time></trkpt><trkpt lat="44.8023974" lon="8.131153"><ele>129.5</ele><time>2026-04-10T14:02:35.82Z</time></trkpt><trkpt lat="44.8022807" lon="8.1311195"><ele>129.75</ele><time>2026-04-10T14:02:37.82Z</time></trkpt><trkpt lat="44.8021553" lon="8.131097"><ele>130.0</ele><time>2026-04-10T14:02:39.821Z</time></trkpt><trkpt lat="44.802033" lon="8.1310772"><ele>130.0</ele><time>2026-04-10T14:02:41.819Z</time></trkpt><trkpt lat="44.8019043" lon="8.1310742"><ele>130.0</ele><time>2026-04-10T14:02:43.821Z</time></trkpt><trkpt lat="44.8018409" lon="8.1310814"><ele>130.0</ele><time>2026-04-10T14:02:44.821Z</time></trkpt><trkpt lat="44.8017248" lon="8.1311064"><ele>130.0</ele><time>2026-04-10T14:02:46.819Z</time></trkpt><trkpt lat="44.8016245" lon="8.131169"><ele>130.0</ele><time>2026-04-10T14:02:48.821Z</time></trkpt><trkpt lat="44.801521" lon="8.131232"><ele>130.0</ele><time>2026-04-10T14:02:50.82Z</time></trkpt><trkpt lat="44.8014286" lon="8.1312732"><ele>130.0</ele><time>2026-04-10T14:02:52.82Z</time></trkpt><trkpt lat="44.8013205" lon="8.1313016"><ele>130.0</ele><time>2026-04-10T14:02:54.819Z</time></trkpt><trkpt lat="44.8012018" lon="8.1313051"><ele>130.0</ele><time>2026-04-10T14:02:56.82Z</time></trkpt><trkpt lat="44.8010906" lon="8.1312944"><ele>130.0</ele><time>2026-04-10T14:02:58.819Z</time></trkpt><trkpt lat="44.8009806" lon="8.1312726"><ele>130.0</ele><time>2026-04-10T14:03:00.82Z</time></trkpt><trkpt lat="44.8008729" lon="8.1312442"><ele>130.0</ele><time>2026-04-10T14:03:02.82Z</time></trkpt><trkpt lat="44.8007581" lon="8.1312114"><ele>130.0</ele><time>2026-04-10T14:03:04.82Z</time></trkpt><trkpt lat="44.8006373" lon="8.1311889"><ele>130.0</ele><time>2026-04-10T14:03:06.819Z</time></trkpt><trkpt lat="44.8005206" lon="8.1311646"><ele>130.0</ele><time>2026-04-10T14:03:08.821Z</time></trkpt><trkpt lat="44.8003971" lon="8.1311321"><ele>130.0</ele><time>2026-04-10T14:03:10.821Z</time></trkpt><trkpt lat="44.8002702" lon="8.131097"><ele>130.0</ele><time>2026-04-10T14:03:12.82Z</time></trkpt><trkpt lat="44.8002079" lon="8.1310654"><ele>130.0</ele><time>2026-04-10T14:03:13.819Z</time></trkpt><trkpt lat="44.8001442" lon="8.1310352"><ele>130.0</ele><time>2026-04-10T14:03:14.822Z</time></trkpt><trkpt lat="44.8000841" lon="8.1310051"><ele>129.8</ele><time>2026-04-10T14:03:15.821Z</time></trkpt><trkpt lat="44.8000193" lon="8.1309605"><ele>129.6</ele><time>2026-04-10T14:03:16.82Z</time></trkpt><trkpt lat="44.7999622" lon="8.1309096"><ele>129.4</ele><time>2026-04-10T14:03:17.821Z</time></trkpt><trkpt lat="44.7998424" lon="8.130831"><ele>129.2</ele><time>2026-04-10T14:03:19.82Z</time></trkpt><trkpt lat="44.7997211" lon="8.130766"><ele>129.0</ele><time>2026-04-10T14:03:21.819Z</time></trkpt><trkpt lat="44.7996579" lon="8.1307325"><ele>129.0</ele><time>2026-04-10T14:03:22.82Z</time></trkpt><trkpt lat="44.7995892" lon="8.1307049"><ele>129.0</ele><time>2026-04-10T14:03:23.823Z</time></trkpt><trkpt lat="44.7995159" lon="8.1306899"><ele>129.0</ele><time>2026-04-10T14:03:24.819Z</time></trkpt><trkpt lat="44.7993955" lon="8.1306612"><ele>129.0</ele><time>2026-04-10T14:03:26.821Z</time></trkpt><trkpt lat="44.7992749" lon="8.130635"><ele>129.0</ele><time>2026-04-10T14:03:28.821Z</time></trkpt><trkpt lat="44.7991558" lon="8.1306167"><ele>129.5</ele><time>2026-04-10T14:03:30.82Z</time></trkpt><trkpt lat="44.7990382" lon="8.1305969"><ele>130.0</ele><time>2026-04-10T14:03:32.82Z</time></trkpt><trkpt lat="44.7989219" lon="8.1305764"><ele>130.5</ele><time>2026-04-10T14:03:34.819Z</time></trkpt><trkpt lat="44.7988091" lon="8.1305611"><ele>131.0</ele><time>2026-04-10T14:03:36.82Z</time></trkpt><trkpt lat="44.7987001" lon="8.130533"><ele>131.0</ele><time>2026-04-10T14:03:38.82Z</time></trkpt><trkpt lat="44.7985919" lon="8.1305076"><ele>131.0</ele><time>2026-04-10T14:03:40.821Z</time></trkpt><trkpt lat="44.7984962" lon="8.1304751"><ele>131.0</ele><time>2026-04-10T14:03:42.82Z</time></trkpt><trkpt lat="44.7983997" lon="8.1304472"><ele>131.0</ele><time>2026-04-10T14:03:44.819Z</time></trkpt><trkpt lat="44.798303" lon="8.1303922"><ele>131.0</ele><time>2026-04-10T14:03:46.82Z</time></trkpt><trkpt lat="44.7981901" lon="8.1303358"><ele>131.0</ele><time>2026-04-10T14:03:48.82Z</time></trkpt><trkpt lat="44.798094" lon="8.1302706"><ele>131.0</ele><time>2026-04-10T14:03:50.82Z</time></trkpt><trkpt lat="44.7979949" lon="8.1301996"><ele>131.0</ele><time>2026-04-10T14:03:52.82Z</time></trkpt><trkpt lat="44.7978977" lon="8.1301296"><ele>131.0</ele><time>2026-04-10T14:03:54.82Z</time></trkpt><trkpt lat="44.7977943" lon="8.130087"><ele>131.0</ele><time>2026-04-10T14:03:56.822Z</time></trkpt><trkpt lat="44.7976929" lon="8.1300879"><ele>131.16666666666666</ele><time>2026-04-10T14:03:58.821Z</time></trkpt><trkpt lat="44.7976011" lon="8.130094"><ele>131.33333333333331</ele><time>2026-04-10T14:04:00.821Z</time></trkpt><trkpt lat="44.7975147" lon="8.1300456"><ele>131.5</ele><time>2026-04-10T14:04:02.82Z</time></trkpt><trkpt lat="44.7974323" lon="8.1299811"><ele>131.66666666666666</ele><time>2026-04-10T14:04:04.819Z</time></trkpt><trkpt lat="44.7973707" lon="8.1300172"><ele>131.83333333333334</ele><time>2026-04-10T14:04:07.819Z</time></trkpt><trkpt lat="44.7974164" lon="8.1300837"><ele>132.0</ele><time>2026-04-10T14:04:11.82Z</time></trkpt><trkpt lat="44.7974745" lon="8.1301567"><ele>132.0</ele><time>2026-04-10T14:04:14.82Z</time></trkpt><trkpt lat="44.7975398" lon="8.1302341"><ele>132.0</ele><time>2026-04-10T14:04:17.821Z</time></trkpt><trkpt lat="44.7975951" lon="8.1302976"><ele>132.0</ele><time>2026-04-10T14:04:19.819Z</time></trkpt><trkpt lat="44.7976612" lon="8.1303658"><ele>132.0</ele><time>2026-04-10T14:04:21.82Z</time></trkpt><trkpt lat="44.7977342" lon="8.1304405"><ele>132.0</ele><time>2026-04-10T14:04:23.821Z</time></trkpt><trkpt lat="44.7977996" lon="8.1305278"><ele>132.0</ele><time>2026-04-10T14:04:25.821Z</time></trkpt><trkpt lat="44.7978399" lon="8.1306307"><ele>132.0</ele><time>2026-04-10T14:04:27.821Z</time></trkpt><trkpt lat="44.7978574" lon="8.1307439"><ele>132.0</ele><time>2026-04-10T14:04:29.821Z</time></trkpt><trkpt lat="44.7978914" lon="8.1308422"><ele>132.0</ele><time>2026-04-10T14:04:32.82Z</time></trkpt><trkpt lat="44.7978559" lon="8.1309161"><ele>132.0</ele><time>2026-04-10T14:04:50.82Z</time></trkpt><trkpt lat="44.7978095" lon="8.1309871"><ele>132.0</ele><time>2026-04-10T14:07:06.819Z</time></trkpt><trkpt lat="44.7977885" lon="8.1311349"><ele>132.0</ele><time>2026-04-10T14:07:37.82Z</time></trkpt><trkpt lat="44.7977697" lon="8.1312294"><ele>132.0</ele><time>2026-04-10T14:07:40.819Z</time></trkpt><trkpt lat="44.7977197" lon="8.1313365"><ele>132.0</ele><time>2026-04-10T14:07:43.819Z</time></trkpt><trkpt lat="44.797678" lon="8.1314186"><ele>132.0</ele><time>2026-04-10T14:07:45.82Z</time></trkpt><trkpt lat="44.7976379" lon="8.1314902"><ele>132.0</ele><time>2026-04-10T14:07:50.819Z</time></trkpt><trkpt lat="44.7976025" lon="8.1315662"><ele>132.0</ele><time>2026-04-10T14:07:53.82Z</time></trkpt><trkpt lat="44.797527" lon="8.1316427"><ele>132.0</ele><time>2026-04-10T14:07:56.821Z</time></trkpt><trkpt lat="44.7974566" lon="8.1316874"><ele>132.2</ele><time>2026-04-10T14:07:58.819Z</time></trkpt><trkpt lat="44.7973759" lon="8.131727"><ele>132.39999999999998</ele><time>2026-04-10T14:08:00.82Z</time></trkpt><trkpt lat="44.7972865" lon="8.1317749"><ele>132.60000000000002</ele><time>2026-04-10T14:08:02.818Z</time></trkpt><trkpt lat="44.7971905" lon="8.1318344"><ele>132.8</ele><time>2026-04-10T14:08:04.818Z</time></trkpt><trkpt lat="44.7970876" lon="8.1318955"><ele>133.0</ele><time>2026-04-10T14:08:06.82Z</time></trkpt><trkpt lat="44.7969867" lon="8.1319473"><ele>133.0</ele><time>2026-04-10T14:08:08.82Z</time></trkpt><trkpt lat="44.796892" lon="8.1320096"><ele>133.0</ele><time>2026-04-10T14:08:10.819Z</time></trkpt><trkpt lat="44.7967971" lon="8.1320629"><ele>133.0</ele><time>2026-04-10T14:08:12.82Z</time></trkpt><trkpt lat="44.7966958" lon="8.1321232"><ele>133.0</ele><time>2026-04-10T14:08:14.819Z</time></trkpt><trkpt lat="44.796602" lon="8.1321684"><ele>133.0</ele><time>2026-04-10T14:08:16.82Z</time></trkpt><trkpt lat="44.7965087" lon="8.132218"><ele>132.75</ele><time>2026-04-10T14:08:18.819Z</time></trkpt><trkpt lat="44.7964019" lon="8.1322819"><ele>132.5</ele><time>2026-04-10T14:08:20.82Z</time></trkpt><trkpt lat="44.7962921" lon="8.13234"><ele>132.25</ele><time>2026-04-10T14:08:22.819Z</time></trkpt><trkpt lat="44.7961821" lon="8.1323918"><ele>132.0</ele><time>2026-04-10T14:08:24.818Z</time></trkpt><trkpt lat="44.7960738" lon="8.1324461"><ele>131.75</ele><time>2026-04-10T14:08:26.819Z</time></trkpt><trkpt lat="44.7959701" lon="8.1325073"><ele>131.5</ele><time>2026-04-10T14:08:28.818Z</time></trkpt><trkpt lat="44.7958651" lon="8.132559"><ele>131.25</ele><time>2026-04-10T14:08:30.82Z</time></trkpt><trkpt lat="44.7957564" lon="8.1326201"><ele>131.0</ele><time>2026-04-10T14:08:32.819Z</time></trkpt><trkpt lat="44.795646" lon="8.1326777"><ele>131.0</ele><time>2026-04-10T14:08:34.82Z</time></trkpt><trkpt lat="44.7955329" lon="8.1327386"><ele>131.0</ele><time>2026-04-10T14:08:36.821Z</time></trkpt><trkpt lat="44.7954195" lon="8.1327966"><ele>131.0</ele><time>2026-04-10T14:08:38.821Z</time></trkpt><trkpt lat="44.7953158" lon="8.1328599"><ele>131.0</ele><time>2026-04-10T14:08:40.819Z</time></trkpt><trkpt lat="44.7952585" lon="8.1329021"><ele>131.0</ele><time>2026-04-10T14:08:41.82Z</time></trkpt><trkpt lat="44.7951514" lon="8.1329606"><ele>131.33333333333331</ele><time>2026-04-10T14:08:43.818Z</time></trkpt><trkpt lat="44.795092" lon="8.1329958"><ele>131.66666666666666</ele><time>2026-04-10T14:08:44.821Z</time></trkpt><trkpt lat="44.7950272" lon="8.1330288"><ele>132.0</ele><time>2026-04-10T14:08:45.82Z</time></trkpt><trkpt lat="44.7949206" lon="8.1331027"><ele>132.33333333333334</ele><time>2026-04-10T14:08:47.821Z</time></trkpt><trkpt lat="44.794862" lon="8.1331362"><ele>132.66666666666669</ele><time>2026-04-10T14:08:48.819Z</time></trkpt><trkpt lat="44.7947488" lon="8.1331961"><ele>133.0</ele><time>2026-04-10T14:08:50.818Z</time></trkpt><trkpt lat="44.7946226" lon="8.1332704"><ele>133.0</ele><time>2026-04-10T14:08:52.819Z</time></trkpt><trkpt lat="44.7945609" lon="8.1333155"><ele>133.0</ele><time>2026-04-10T14:08:53.818Z</time></trkpt><trkpt lat="44.7944997" lon="8.1333505"><ele>133.0</ele><time>2026-04-10T14:08:54.82Z</time></trkpt><trkpt lat="44.7944395" lon="8.1333778"><ele>133.0</ele><time>2026-04-10T14:08:55.82Z</time></trkpt><trkpt lat="44.7943205" lon="8.1334568"><ele>133.0</ele><time>2026-04-10T14:08:57.819Z</time></trkpt><trkpt lat="44.7942005" lon="8.1335261"><ele>132.83333333333334</ele><time>2026-04-10T14:08:59.82Z</time></trkpt><trkpt lat="44.7941426" lon="8.1335684"><ele>132.66666666666669</ele><time>2026-04-10T14:09:00.819Z</time></trkpt><trkpt lat="44.7940366" lon="8.1336629"><ele>132.5</ele><time>2026-04-10T14:09:02.82Z</time></trkpt><trkpt lat="44.7939772" lon="8.133707"><ele>132.33333333333334</ele><time>2026-04-10T14:09:03.82Z</time></trkpt><trkpt lat="44.7939205" lon="8.1337516"><ele>132.16666666666666</ele><time>2026-04-10T14:09:04.819Z</time></trkpt><trkpt lat="44.7938148" lon="8.1338309"><ele>132.0</ele><time>2026-04-10T14:09:06.82Z</time></trkpt><trkpt lat="44.7937609" lon="8.1338831"><ele>132.0</ele><time>2026-04-10T14:09:07.819Z</time></trkpt><trkpt lat="44.7937019" lon="8.1339301"><ele>132.0</ele><time>2026-04-10T14:09:08.82Z</time></trkpt><trkpt lat="44.7935897" lon="8.1340194"><ele>132.0</ele><time>2026-04-10T14:09:10.819Z</time></trkpt><trkpt lat="44.7935347" lon="8.1340708"><ele>132.0</ele><time>2026-04-10T14:09:11.818Z</time></trkpt><trkpt lat="44.7934739" lon="8.1341215"><ele>132.0</ele><time>2026-04-10T14:09:12.819Z</time></trkpt><trkpt lat="44.7933688" lon="8.1342111"><ele>132.28571428571428</ele><time>2026-04-10T14:09:14.82Z</time></trkpt><trkpt lat="44.7933131" lon="8.1342601"><ele>132.57142857142858</ele><time>2026-04-10T14:09:15.819Z</time></trkpt><trkpt lat="44.793258" lon="8.1343076"><ele>132.85714285714286</ele><time>2026-04-10T14:09:16.82Z</time></trkpt><trkpt lat="44.7932019" lon="8.1343588"><ele>133.14285714285714</ele><time>2026-04-10T14:09:17.82Z</time></trkpt><trkpt lat="44.7931467" lon="8.1344085"><ele>133.42857142857142</ele><time>2026-04-10T14:09:18.819Z</time></trkpt><trkpt lat="44.7930875" lon="8.1344545"><ele>133.71428571428572</ele><time>2026-04-10T14:09:19.818Z</time></trkpt><trkpt lat="44.793028" lon="8.1345045"><ele>134.0</ele><time>2026-04-10T14:09:20.819Z</time></trkpt><trkpt lat="44.7929149" lon="8.1345998"><ele>134.0</ele><time>2026-04-10T14:09:22.82Z</time></trkpt><trkpt lat="44.7928589" lon="8.1346438"><ele>134.0</ele><time>2026-04-10T14:09:23.82Z</time></trkpt><trkpt lat="44.792801" lon="8.1346868"><ele>134.0</ele><time>2026-04-10T14:09:24.82Z</time></trkpt><trkpt lat="44.7927477" lon="8.134735"><ele>134.0</ele><time>2026-04-10T14:09:25.82Z</time></trkpt><trkpt lat="44.7926864" lon="8.1347795"><ele>134.0</ele><time>2026-04-10T14:09:26.819Z</time></trkpt><trkpt lat="44.7926266" lon="8.1348296"><ele>134.0</ele><time>2026-04-10T14:09:27.82Z</time></trkpt><trkpt lat="44.7925212" lon="8.134923"><ele>133.66666666666666</ele><time>2026-04-10T14:09:29.819Z</time></trkpt><trkpt lat="44.7924676" lon="8.1349717"><ele>133.33333333333331</ele><time>2026-04-10T14:09:30.821Z</time></trkpt><trkpt lat="44.7924084" lon="8.1350182"><ele>133.0</ele><time>2026-04-10T14:09:31.82Z</time></trkpt><trkpt lat="44.792349" lon="8.1350682"><ele>132.66666666666666</ele><time>2026-04-10T14:09:32.82Z</time></trkpt><trkpt lat="44.7922353" lon="8.1351588"><ele>132.33333333333334</ele><time>2026-04-10T14:09:34.82Z</time></trkpt><trkpt lat="44.7921787" lon="8.1352064"><ele>132.0</ele><time>2026-04-10T14:09:35.818Z</time></trkpt><trkpt lat="44.79212" lon="8.1352494"><ele>132.0</ele><time>2026-04-10T14:09:36.818Z</time></trkpt><trkpt lat="44.792064" lon="8.1352966"><ele>132.0</ele><time>2026-04-10T14:09:37.819Z</time></trkpt><trkpt lat="44.7920116" lon="8.1353477"><ele>132.0</ele><time>2026-04-10T14:09:38.819Z</time></trkpt><trkpt lat="44.7919537" lon="8.1353919"><ele>132.0</ele><time>2026-04-10T14:09:39.82Z</time></trkpt><trkpt lat="44.7918467" lon="8.1354842"><ele>132.0</ele><time>2026-04-10T14:09:41.82Z</time></trkpt><trkpt lat="44.7917936" lon="8.1355337"><ele>132.0</ele><time>2026-04-10T14:09:42.818Z</time></trkpt><trkpt lat="44.7916914" lon="8.1356231"><ele>132.2</ele><time>2026-04-10T14:09:44.819Z</time></trkpt><trkpt lat="44.7915868" lon="8.1357096"><ele>132.39999999999998</ele><time>2026-04-10T14:09:46.82Z</time></trkpt><trkpt lat="44.7915267" lon="8.1357579"><ele>132.60000000000002</ele><time>2026-04-10T14:09:47.818Z</time></trkpt><trkpt lat="44.7914723" lon="8.1358044"><ele>132.8</ele><time>2026-04-10T14:09:48.819Z</time></trkpt><trkpt lat="44.7913686" lon="8.1358914"><ele>133.0</ele><time>2026-04-10T14:09:50.818Z</time></trkpt><trkpt lat="44.7912789" lon="8.1359687"><ele>133.0</ele><time>2026-04-10T14:09:52.82Z</time></trkpt><trkpt lat="44.7911777" lon="8.1360576"><ele>133.0</ele><time>2026-04-10T14:09:54.819Z</time></trkpt><trkpt lat="44.7910681" lon="8.1361388"><ele>133.0</ele><time>2026-04-10T14:09:56.819Z</time></trkpt><trkpt lat="44.7909636" lon="8.1362276"><ele>133.0</ele><time>2026-04-10T14:09:58.82Z</time></trkpt><trkpt lat="44.7908513" lon="8.1363152"><ele>133.4</ele><time>2026-04-10T14:10:00.819Z</time></trkpt><trkpt lat="44.7907485" lon="8.1363938"><ele>133.8</ele><time>2026-04-10T14:10:02.82Z</time></trkpt><trkpt lat="44.7906924" lon="8.1364446"><ele>134.2</ele><time>2026-04-10T14:10:03.818Z</time></trkpt><trkpt lat="44.7906337" lon="8.1364909"><ele>134.6</ele><time>2026-04-10T14:10:04.818Z</time></trkpt><trkpt lat="44.7905213" lon="8.1365787"><ele>135.0</ele><time>2026-04-10T14:10:06.819Z</time></trkpt><trkpt lat="44.7904634" lon="8.1366346"><ele>135.16666666666666</ele><time>2026-04-10T14:10:07.818Z</time></trkpt><trkpt lat="44.7904071" lon="8.1366818"><ele>135.33333333333334</ele><time>2026-04-10T14:10:08.82Z</time></trkpt><trkpt lat="44.7903499" lon="8.1367287"><ele>135.5</ele><time>2026-04-10T14:10:09.82Z</time></trkpt><trkpt lat="44.7902922" lon="8.1367753"><ele>135.66666666666669</ele><time>2026-04-10T14:10:10.818Z</time></trkpt><trkpt lat="44.7901859" lon="8.1368697"><ele>135.83333333333334</ele><time>2026-04-10T14:10:12.82Z</time></trkpt><trkpt lat="44.7901257" lon="8.1369115"><ele>136.0</ele><time>2026-04-10T14:10:13.82Z</time></trkpt><trkpt lat="44.7900346" lon="8.1370093"><ele>136.0</ele><time>2026-04-10T14:10:15.818Z</time></trkpt><trkpt lat="44.7899399" lon="8.1370878"><ele>136.0</ele><time>2026-04-10T14:10:17.818Z</time></trkpt><trkpt lat="44.7898391" lon="8.1371621"><ele>136.0</ele><time>2026-04-10T14:10:19.819Z</time></trkpt><trkpt lat="44.7897296" lon="8.1372401"><ele>136.0</ele><time>2026-04-10T14:10:21.819Z</time></trkpt><trkpt lat="44.7896732" lon="8.1372851"><ele>136.0</ele><time>2026-04-10T14:10:22.819Z</time></trkpt><trkpt lat="44.7895777" lon="8.1373713"><ele>136.0</ele><time>2026-04-10T14:10:24.819Z</time></trkpt><trkpt lat="44.7894749" lon="8.1374716"><ele>136.0</ele><time>2026-04-10T14:10:26.818Z</time></trkpt><trkpt lat="44.7894203" lon="8.1375191"><ele>136.0</ele><time>2026-04-10T14:10:27.821Z</time></trkpt><trkpt lat="44.7893189" lon="8.1375981"><ele>136.0</ele><time>2026-04-10T14:10:29.819Z</time></trkpt><trkpt lat="44.7892189" lon="8.1376724"><ele>136.0</ele><time>2026-04-10T14:10:31.819Z</time></trkpt><trkpt lat="44.7891583" lon="8.1377147"><ele>136.0</ele><time>2026-04-10T14:10:32.819Z</time></trkpt><trkpt lat="44.7891014" lon="8.1377634"><ele>136.0</ele><time>2026-04-10T14:10:33.82Z</time></trkpt><trkpt lat="44.7890442" lon="8.1378093"><ele>136.0</ele><time>2026-04-10T14:10:34.82Z</time></trkpt><trkpt lat="44.7889845" lon="8.1378539"><ele>136.0</ele><time>2026-04-10T14:10:35.82Z</time></trkpt><trkpt lat="44.7888759" lon="8.137942"><ele>136.0</ele><time>2026-04-10T14:10:37.819Z</time></trkpt><trkpt lat="44.7888204" lon="8.137985"><ele>136.0</ele><time>2026-04-10T14:10:38.819Z</time></trkpt><trkpt lat="44.7887221" lon="8.1380827"><ele>136.0</ele><time>2026-04-10T14:10:40.818Z</time></trkpt><trkpt lat="44.7886156" lon="8.1381678"><ele>136.0</ele><time>2026-04-10T14:10:42.819Z</time></trkpt><trkpt lat="44.7885063" lon="8.1382549"><ele>136.0</ele><time>2026-04-10T14:10:44.82Z</time></trkpt><trkpt lat="44.7884429" lon="8.1382995"><ele>136.0</ele><time>2026-04-10T14:10:45.819Z</time></trkpt><trkpt lat="44.788338" lon="8.1383897"><ele>136.0</ele><time>2026-04-10T14:10:47.819Z</time></trkpt><trkpt lat="44.788279" lon="8.138424"><ele>136.14285714285714</ele><time>2026-04-10T14:10:48.82Z</time></trkpt><trkpt lat="44.7882167" lon="8.1384724"><ele>136.28571428571428</ele><time>2026-04-10T14:10:49.819Z</time></trkpt><trkpt lat="44.7881501" lon="8.1385161"><ele>136.42857142857144</ele><time>2026-04-10T14:10:50.819Z</time></trkpt><trkpt lat="44.7880895" lon="8.1385586"><ele>136.57142857142856</ele><time>2026-04-10T14:10:51.819Z</time></trkpt><trkpt lat="44.7880302" lon="8.1385981"><ele>136.71428571428572</ele><time>2026-04-10T14:10:52.818Z</time></trkpt><trkpt lat="44.787967" lon="8.138639"><ele>136.85714285714286</ele><time>2026-04-10T14:10:53.819Z</time></trkpt><trkpt lat="44.7879032" lon="8.1386775"><ele>137.0</ele><time>2026-04-10T14:10:54.819Z</time></trkpt><trkpt lat="44.7878446" lon="8.1387201"><ele>137.0</ele><time>2026-04-10T14:10:55.819Z</time></trkpt><trkpt lat="44.7877872" lon="8.1387658"><ele>137.0</ele><time>2026-04-10T14:10:56.819Z</time></trkpt><trkpt lat="44.7877295" lon="8.1388084"><ele>137.0</ele><time>2026-04-10T14:10:57.82Z</time></trkpt><trkpt lat="44.7876699" lon="8.1388505"><ele>137.0</ele><time>2026-04-10T14:10:58.818Z</time></trkpt><trkpt lat="44.7876027" lon="8.1388946"><ele>137.0</ele><time>2026-04-10T14:10:59.82Z</time></trkpt><trkpt lat="44.7874868" lon="8.138969"><ele>137.0</ele><time>2026-04-10T14:11:01.818Z</time></trkpt><trkpt lat="44.7874296" lon="8.1390122"><ele>137.00000000000003</ele><time>2026-04-10T14:11:02.82Z</time></trkpt><trkpt lat="44.7873689" lon="8.13904"><ele>137.0</ele><time>2026-04-10T14:11:03.819Z</time></trkpt><trkpt lat="44.7873054" lon="8.1390801"><ele>137.0</ele><time>2026-04-10T14:11:04.818Z</time></trkpt><trkpt lat="44.7872447" lon="8.1391278"><ele>137.0</ele><time>2026-04-10T14:11:05.819Z</time></trkpt><trkpt lat="44.7871791" lon="8.1391735"><ele>137.0</ele><time>2026-04-10T14:11:06.818Z</time></trkpt><trkpt lat="44.787117" lon="8.1392135"><ele>137.00000000000003</ele><time>2026-04-10T14:11:07.819Z</time></trkpt><trkpt lat="44.7870523" lon="8.1392481"><ele>137.0</ele><time>2026-04-10T14:11:08.818Z</time></trkpt><trkpt lat="44.7869926" lon="8.1392878"><ele>137.0</ele><time>2026-04-10T14:11:09.82Z</time></trkpt><trkpt lat="44.7868742" lon="8.139365"><ele>137.0</ele><time>2026-04-10T14:11:11.82Z</time></trkpt><trkpt lat="44.7868123" lon="8.1393955"><ele>137.0</ele><time>2026-04-10T14:11:12.819Z</time></trkpt><trkpt lat="44.7867493" lon="8.1394222"><ele>137.0</ele><time>2026-04-10T14:11:13.82Z</time></trkpt><trkpt lat="44.786685" lon="8.1394582"><ele>137.0</ele><time>2026-04-10T14:11:14.819Z</time></trkpt><trkpt lat="44.7866193" lon="8.1394856"><ele>137.0</ele><time>2026-04-10T14:11:15.82Z</time></trkpt><trkpt lat="44.7865538" lon="8.1395166"><ele>136.85714285714286</ele><time>2026-04-10T14:11:16.819Z</time></trkpt><trkpt lat="44.7864878" lon="8.139537"><ele>136.71428571428572</ele><time>2026-04-10T14:11:17.819Z</time></trkpt><trkpt lat="44.7864238" lon="8.1395653"><ele>136.57142857142856</ele><time>2026-04-10T14:11:18.82Z</time></trkpt><trkpt lat="44.7863549" lon="8.1395826"><ele>136.42857142857144</ele><time>2026-04-10T14:11:19.818Z</time></trkpt><trkpt lat="44.7862859" lon="8.1395998"><ele>136.28571428571428</ele><time>2026-04-10T14:11:20.819Z</time></trkpt><trkpt lat="44.7862174" lon="8.1396223"><ele>136.14285714285714</ele><time>2026-04-10T14:11:21.819Z</time></trkpt><trkpt lat="44.7861453" lon="8.139638"><ele>136.0</ele><time>2026-04-10T14:11:22.82Z</time></trkpt><trkpt lat="44.7860807" lon="8.1396474"><ele>136.0</ele><time>2026-04-10T14:11:23.818Z</time></trkpt><trkpt lat="44.7860189" lon="8.1396681"><ele>136.0</ele><time>2026-04-10T14:11:24.82Z</time></trkpt><trkpt lat="44.785906" lon="8.1396904"><ele>136.0</ele><time>2026-04-10T14:11:26.82Z</time></trkpt><trkpt lat="44.7857884" lon="8.139698"><ele>136.0</ele><time>2026-04-10T14:11:28.82Z</time></trkpt><trkpt lat="44.7856915" lon="8.1397001"><ele>136.0</ele><time>2026-04-10T14:11:30.819Z</time></trkpt><trkpt lat="44.78559" lon="8.1396916"><ele>136.0</ele><time>2026-04-10T14:11:32.82Z</time></trkpt><trkpt lat="44.7854815" lon="8.1396735"><ele>136.0</ele><time>2026-04-10T14:11:34.818Z</time></trkpt><trkpt lat="44.7853677" lon="8.1396689"><ele>136.0</ele><time>2026-04-10T14:11:36.819Z</time></trkpt><trkpt lat="44.7853049" lon="8.1396561"><ele>136.0</ele><time>2026-04-10T14:11:37.819Z</time></trkpt><trkpt lat="44.7852422" lon="8.1396413"><ele>136.0</ele><time>2026-04-10T14:11:38.819Z</time></trkpt><trkpt lat="44.785177" lon="8.1396366"><ele>136.0</ele><time>2026-04-10T14:11:39.819Z</time></trkpt><trkpt lat="44.7850508" lon="8.1396179"><ele>136.0</ele><time>2026-04-10T14:11:41.819Z</time></trkpt><trkpt lat="44.7849226" lon="8.1395896"><ele>136.0</ele><time>2026-04-10T14:11:43.819Z</time></trkpt><trkpt lat="44.7847956" lon="8.1395757"><ele>136.0</ele><time>2026-04-10T14:11:45.819Z</time></trkpt><trkpt lat="44.7846821" lon="8.1395168"><ele>136.0</ele><time>2026-04-10T14:11:47.818Z</time></trkpt><trkpt lat="44.784615" lon="8.1394872"><ele>136.0</ele><time>2026-04-10T14:11:48.819Z</time></trkpt><trkpt lat="44.784548" lon="8.1394702"><ele>135.99999999999997</ele><time>2026-04-10T14:11:49.82Z</time></trkpt><trkpt lat="44.7844859" lon="8.1394398"><ele>136.0</ele><time>2026-04-10T14:11:50.82Z</time></trkpt><trkpt lat="44.784423" lon="8.1394175"><ele>136.0</ele><time>2026-04-10T14:11:51.819Z</time></trkpt><trkpt lat="44.7843543" lon="8.139393"><ele>136.0</ele><time>2026-04-10T14:11:52.818Z</time></trkpt><trkpt lat="44.7842949" lon="8.1393621"><ele>136.0</ele><time>2026-04-10T14:11:53.818Z</time></trkpt><trkpt lat="44.7842224" lon="8.1393213"><ele>135.99999999999997</ele><time>2026-04-10T14:11:54.819Z</time></trkpt><trkpt lat="44.7841547" lon="8.1392922"><ele>136.0</ele><time>2026-04-10T14:11:55.82Z</time></trkpt><trkpt lat="44.7840975" lon="8.1392514"><ele>135.99999999999997</ele><time>2026-04-10T14:11:56.818Z</time></trkpt><trkpt lat="44.7840329" lon="8.1392116"><ele>136.0</ele><time>2026-04-10T14:11:57.819Z</time></trkpt><trkpt lat="44.7839746" lon="8.1391603"><ele>136.0</ele><time>2026-04-10T14:11:58.82Z</time></trkpt><trkpt lat="44.7839149" lon="8.1391102"><ele>136.0</ele><time>2026-04-10T14:11:59.819Z</time></trkpt><trkpt lat="44.7838592" lon="8.1390612"><ele>136.0</ele><time>2026-04-10T14:12:00.818Z</time></trkpt><trkpt lat="44.783794" lon="8.1390369"><ele>135.99999999999997</ele><time>2026-04-10T14:12:01.818Z</time></trkpt><trkpt lat="44.7837318" lon="8.1389915"><ele>136.0</ele><time>2026-04-10T14:12:02.819Z</time></trkpt><trkpt lat="44.7836699" lon="8.1389557"><ele>136.0</ele><time>2026-04-10T14:12:03.82Z</time></trkpt><trkpt lat="44.7836086" lon="8.1389176"><ele>136.0</ele><time>2026-04-10T14:12:04.818Z</time></trkpt><trkpt lat="44.7835477" lon="8.1388728"><ele>136.0</ele><time>2026-04-10T14:12:05.82Z</time></trkpt><trkpt lat="44.7834433" lon="8.1387841"><ele>136.0</ele><time>2026-04-10T14:12:07.819Z</time></trkpt><trkpt lat="44.7833865" lon="8.1387399"><ele>136.0</ele><time>2026-04-10T14:12:08.818Z</time></trkpt><trkpt lat="44.7832776" lon="8.13867"><ele>136.0</ele><time>2026-04-10T14:12:10.818Z</time></trkpt><trkpt lat="44.7832215" lon="8.1386281"><ele>136.28571428571428</ele><time>2026-04-10T14:12:11.818Z</time></trkpt><trkpt lat="44.7831622" lon="8.1385824"><ele>136.57142857142856</ele><time>2026-04-10T14:12:12.819Z</time></trkpt><trkpt lat="44.7831017" lon="8.1385495"><ele>136.85714285714286</ele><time>2026-04-10T14:12:13.819Z</time></trkpt><trkpt lat="44.783043" lon="8.1385104"><ele>137.14285714285714</ele><time>2026-04-10T14:12:14.818Z</time></trkpt><trkpt lat="44.7829841" lon="8.138476"><ele>137.42857142857144</ele><time>2026-04-10T14:12:15.819Z</time></trkpt><trkpt lat="44.7829245" lon="8.1384373"><ele>137.71428571428572</ele><time>2026-04-10T14:12:16.818Z</time></trkpt><trkpt lat="44.7828642" lon="8.1383957"><ele>138.0</ele><time>2026-04-10T14:12:17.819Z</time></trkpt><trkpt lat="44.7828042" lon="8.1383579"><ele>138.0</ele><time>2026-04-10T14:12:18.819Z</time></trkpt><trkpt lat="44.7827378" lon="8.1383146"><ele>138.0</ele><time>2026-04-10T14:12:19.819Z</time></trkpt><trkpt lat="44.7826759" lon="8.1382793"><ele>138.0</ele><time>2026-04-10T14:12:20.819Z</time></trkpt><trkpt lat="44.7826114" lon="8.1382454"><ele>138.0</ele><time>2026-04-10T14:12:21.819Z</time></trkpt><trkpt lat="44.7825556" lon="8.1381943"><ele>138.0</ele><time>2026-04-10T14:12:22.818Z</time></trkpt><trkpt lat="44.7824936" lon="8.138159"><ele>138.0</ele><time>2026-04-10T14:12:23.82Z</time></trkpt><trkpt lat="44.7824341" lon="8.1381212"><ele>138.0</ele><time>2026-04-10T14:12:24.818Z</time></trkpt><trkpt lat="44.7823736" lon="8.1380766"><ele>137.71428571428572</ele><time>2026-04-10T14:12:25.818Z</time></trkpt><trkpt lat="44.7823088" lon="8.1380327"><ele>137.42857142857144</ele><time>2026-04-10T14:12:26.819Z</time></trkpt><trkpt lat="44.7822464" lon="8.1379902"><ele>137.14285714285714</ele><time>2026-04-10T14:12:27.82Z</time></trkpt><trkpt lat="44.7821818" lon="8.1379483"><ele>136.85714285714286</ele><time>2026-04-10T14:12:28.819Z</time></trkpt><trkpt lat="44.7821191" lon="8.1379051"><ele>136.57142857142856</ele><time>2026-04-10T14:12:29.82Z</time></trkpt><trkpt lat="44.7820563" lon="8.1378741"><ele>136.28571428571428</ele><time>2026-04-10T14:12:30.819Z</time></trkpt><trkpt lat="44.7819981" lon="8.1378242"><ele>136.0</ele><time>2026-04-10T14:12:31.818Z</time></trkpt><trkpt lat="44.7819366" lon="8.1377878"><ele>136.2</ele><time>2026-04-10T14:12:32.82Z</time></trkpt><trkpt lat="44.7818248" lon="8.1377181"><ele>136.39999999999998</ele><time>2026-04-10T14:12:34.818Z</time></trkpt><trkpt lat="44.7817197" lon="8.1376502"><ele>136.6</ele><time>2026-04-10T14:12:36.82Z</time></trkpt><trkpt lat="44.7816223" lon="8.1375676"><ele>136.79999999999998</ele><time>2026-04-10T14:12:38.819Z</time></trkpt><trkpt lat="44.7815635" lon="8.1375353"><ele>137.0</ele><time>2026-04-10T14:12:39.818Z</time></trkpt><trkpt lat="44.7814541" lon="8.1374611"><ele>137.0</ele><time>2026-04-10T14:12:41.819Z</time></trkpt><trkpt lat="44.7813378" lon="8.1373961"><ele>137.0</ele><time>2026-04-10T14:12:43.817Z</time></trkpt><trkpt lat="44.7812415" lon="8.1373167"><ele>137.0</ele><time>2026-04-10T14:12:45.819Z</time></trkpt><trkpt lat="44.7811929" lon="8.1372536"><ele>137.0</ele><time>2026-04-10T14:12:46.82Z</time></trkpt><trkpt lat="44.7811101" lon="8.1371171"><ele>137.0</ele><time>2026-04-10T14:12:48.819Z</time></trkpt><trkpt lat="44.7810823" lon="8.1370276"><ele>136.6</ele><time>2026-04-10T14:12:49.819Z</time></trkpt><trkpt lat="44.7810591" lon="8.1369418"><ele>136.2</ele><time>2026-04-10T14:12:50.818Z</time></trkpt><trkpt lat="44.7810326" lon="8.1367734"><ele>135.8</ele><time>2026-04-10T14:12:52.819Z</time></trkpt><trkpt lat="44.7810095" lon="8.1365856"><ele>135.4</ele><time>2026-04-10T14:12:54.819Z</time></trkpt><trkpt lat="44.7809956" lon="8.1364974"><ele>135.0</ele><time>2026-04-10T14:12:55.818Z</time></trkpt><trkpt lat="44.7809841" lon="8.1364073"><ele>135.71428571428572</ele><time>2026-04-10T14:12:56.818Z</time></trkpt><trkpt lat="44.7809713" lon="8.1363183"><ele>136.42857142857142</ele><time>2026-04-10T14:12:57.818Z</time></trkpt><trkpt lat="44.7809614" lon="8.1362102"><ele>137.14285714285714</ele><time>2026-04-10T14:12:58.818Z</time></trkpt><trkpt lat="44.7809492" lon="8.1361046"><ele>137.85714285714286</ele><time>2026-04-10T14:12:59.818Z</time></trkpt><trkpt lat="44.7809396" lon="8.1360073"><ele>138.57142857142856</ele><time>2026-04-10T14:13:00.818Z</time></trkpt><trkpt lat="44.7809244" lon="8.1358985"><ele>139.28571428571428</ele><time>2026-04-10T14:13:01.818Z</time></trkpt><trkpt lat="44.780908" lon="8.1357978"><ele>140.0</ele><time>2026-04-10T14:13:02.819Z</time></trkpt><trkpt lat="44.7808964" lon="8.1356926"><ele>140.0</ele><time>2026-04-10T14:13:03.818Z</time></trkpt><trkpt lat="44.780885" lon="8.1355957"><ele>140.0</ele><time>2026-04-10T14:13:04.82Z</time></trkpt><trkpt lat="44.7808673" lon="8.1355008"><ele>140.0</ele><time>2026-04-10T14:13:05.818Z</time></trkpt><trkpt lat="44.7808559" lon="8.1353872"><ele>140.0</ele><time>2026-04-10T14:13:06.819Z</time></trkpt><trkpt lat="44.7808415" lon="8.1352866"><ele>140.0</ele><time>2026-04-10T14:13:07.818Z</time></trkpt><trkpt lat="44.7808344" lon="8.1351909"><ele>140.0</ele><time>2026-04-10T14:13:08.819Z</time></trkpt><trkpt lat="44.7808202" lon="8.1350993"><ele>140.0</ele><time>2026-04-10T14:13:09.818Z</time></trkpt><trkpt lat="44.7808086" lon="8.1350039"><ele>140.0</ele><time>2026-04-10T14:13:10.819Z</time></trkpt><trkpt lat="44.7807908" lon="8.1349073"><ele>140.0</ele><time>2026-04-10T14:13:11.82Z</time></trkpt><trkpt lat="44.7807709" lon="8.1348083"><ele>140.0</ele><time>2026-04-10T14:13:12.82Z</time></trkpt><trkpt lat="44.7807629" lon="8.1347133"><ele>140.0</ele><time>2026-04-10T14:13:13.819Z</time></trkpt><trkpt lat="44.7807511" lon="8.134616"><ele>140.0</ele><time>2026-04-10T14:13:14.818Z</time></trkpt><trkpt lat="44.7807377" lon="8.1345176"><ele>140.0</ele><time>2026-04-10T14:13:15.819Z</time></trkpt><trkpt lat="44.7807184" lon="8.1344206"><ele>140.0</ele><time>2026-04-10T14:13:16.82Z</time></trkpt><trkpt lat="44.7807076" lon="8.1343187"><ele>139.85714285714286</ele><time>2026-04-10T14:13:17.819Z</time></trkpt><trkpt lat="44.7806964" lon="8.1342192"><ele>139.71428571428572</ele><time>2026-04-10T14:13:18.819Z</time></trkpt><trkpt lat="44.7806797" lon="8.1341142"><ele>139.57142857142856</ele><time>2026-04-10T14:13:19.818Z</time></trkpt><trkpt lat="44.7806641" lon="8.1340187"><ele>139.42857142857144</ele><time>2026-04-10T14:13:20.819Z</time></trkpt><trkpt lat="44.7806583" lon="8.133919"><ele>139.28571428571428</ele><time>2026-04-10T14:13:21.819Z</time></trkpt><trkpt lat="44.7806486" lon="8.1338238"><ele>139.14285714285714</ele><time>2026-04-10T14:13:22.819Z</time></trkpt><trkpt lat="44.7806393" lon="8.1337274"><ele>139.0</ele><time>2026-04-10T14:13:23.819Z</time></trkpt><trkpt lat="44.780628" lon="8.1336276"><ele>138.71428571428572</ele><time>2026-04-10T14:13:24.819Z</time></trkpt><trkpt lat="44.7806132" lon="8.133533"><ele>138.42857142857144</ele><time>2026-04-10T14:13:25.818Z</time></trkpt><trkpt lat="44.7806021" lon="8.1334266"><ele>138.14285714285717</ele><time>2026-04-10T14:13:26.818Z</time></trkpt><trkpt lat="44.7805914" lon="8.1333286"><ele>137.85714285714286</ele><time>2026-04-10T14:13:27.819Z</time></trkpt><trkpt lat="44.7805733" lon="8.1332238"><ele>137.57142857142858</ele><time>2026-04-10T14:13:28.818Z</time></trkpt><trkpt lat="44.780558" lon="8.1331213"><ele>137.2857142857143</ele><time>2026-04-10T14:13:29.818Z</time></trkpt><trkpt lat="44.7805528" lon="8.1330217"><ele>137.0</ele><time>2026-04-10T14:13:30.818Z</time></trkpt><trkpt lat="44.7805384" lon="8.1329229"><ele>136.83333333333331</ele><time>2026-04-10T14:13:31.819Z</time></trkpt><trkpt lat="44.7805294" lon="8.1328053"><ele>136.66666666666666</ele><time>2026-04-10T14:13:32.82Z</time></trkpt><trkpt lat="44.7805153" lon="8.132708"><ele>136.5</ele><time>2026-04-10T14:13:33.818Z</time></trkpt><trkpt lat="44.7805035" lon="8.1325894"><ele>136.33333333333334</ele><time>2026-04-10T14:13:34.82Z</time></trkpt><trkpt lat="44.7804885" lon="8.1324862"><ele>136.16666666666669</ele><time>2026-04-10T14:13:35.819Z</time></trkpt><trkpt lat="44.7804803" lon="8.1323778"><ele>136.0</ele><time>2026-04-10T14:13:36.818Z</time></trkpt><trkpt lat="44.7804686" lon="8.1322879"><ele>136.0</ele><time>2026-04-10T14:13:37.819Z</time></trkpt><trkpt lat="44.7804596" lon="8.1321745"><ele>136.0</ele><time>2026-04-10T14:13:38.82Z</time></trkpt><trkpt lat="44.7804382" lon="8.1320858"><ele>136.0</ele><time>2026-04-10T14:13:39.82Z</time></trkpt><trkpt lat="44.7804212" lon="8.1319995"><ele>136.0</ele><time>2026-04-10T14:13:40.819Z</time></trkpt><trkpt lat="44.7804109" lon="8.1319077"><ele>136.0</ele><time>2026-04-10T14:13:41.818Z</time></trkpt><trkpt lat="44.7803967" lon="8.1317326"><ele>136.0</ele><time>2026-04-10T14:13:43.819Z</time></trkpt><trkpt lat="44.7803792" lon="8.1315634"><ele>136.2</ele><time>2026-04-10T14:13:45.819Z</time></trkpt><trkpt lat="44.7803585" lon="8.131397"><ele>136.39999999999998</ele><time>2026-04-10T14:13:47.818Z</time></trkpt><trkpt lat="44.7803577" lon="8.1312238"><ele>136.6</ele><time>2026-04-10T14:13:49.819Z</time></trkpt><trkpt lat="44.780359" lon="8.1311316"><ele>136.79999999999998</ele><time>2026-04-10T14:13:50.818Z</time></trkpt><trkpt lat="44.780368" lon="8.1309628"><ele>137.0</ele><time>2026-04-10T14:13:52.818Z</time></trkpt><trkpt lat="44.7803837" lon="8.130786"><ele>136.83333333333331</ele><time>2026-04-10T14:13:54.819Z</time></trkpt><trkpt lat="44.7803872" lon="8.130696"><ele>136.66666666666666</ele><time>2026-04-10T14:13:55.819Z</time></trkpt><trkpt lat="44.780397" lon="8.1306062"><ele>136.5</ele><time>2026-04-10T14:13:56.818Z</time></trkpt><trkpt lat="44.7804045" lon="8.1305166"><ele>136.33333333333334</ele><time>2026-04-10T14:13:57.818Z</time></trkpt><trkpt lat="44.7804193" lon="8.1304232"><ele>136.16666666666669</ele><time>2026-04-10T14:13:58.82Z</time></trkpt><trkpt lat="44.7804453" lon="8.1302636"><ele>136.0</ele><time>2026-04-10T14:14:00.82Z</time></trkpt><trkpt lat="44.7804841" lon="8.1301352"><ele>136.0</ele><time>2026-04-10T14:14:02.818Z</time></trkpt><trkpt lat="44.7805343" lon="8.1300074"><ele>136.0</ele><time>2026-04-10T14:14:04.819Z</time></trkpt><trkpt lat="44.7805731" lon="8.1298936"><ele>136.0</ele><time>2026-04-10T14:14:06.819Z</time></trkpt><trkpt lat="44.7805714" lon="8.1297732"><ele>136.0</ele><time>2026-04-10T14:14:08.817Z</time></trkpt><trkpt lat="44.7805333" lon="8.1296419"><ele>136.0</ele><time>2026-04-10T14:14:10.819Z</time></trkpt><trkpt lat="44.7804301" lon="8.1294661"><ele>136.6</ele><time>2026-04-10T14:14:13.818Z</time></trkpt><trkpt lat="44.7803489" lon="8.1293555"><ele>137.2</ele><time>2026-04-10T14:14:15.818Z</time></trkpt><trkpt lat="44.7802527" lon="8.129253"><ele>137.8</ele><time>2026-04-10T14:14:17.819Z</time></trkpt><trkpt lat="44.7801445" lon="8.1291726"><ele>138.4</ele><time>2026-04-10T14:14:19.817Z</time></trkpt><trkpt lat="44.780084" lon="8.1291394"><ele>139.0</ele><time>2026-04-10T14:14:20.819Z</time></trkpt><trkpt lat="44.7799592" lon="8.1290795"><ele>139.0</ele><time>2026-04-10T14:14:22.82Z</time></trkpt><trkpt lat="44.7798959" lon="8.1290613"><ele>139.0</ele><time>2026-04-10T14:14:23.817Z</time></trkpt><trkpt lat="44.7797843" lon="8.1290079"><ele>139.0</ele><time>2026-04-10T14:14:25.82Z</time></trkpt><trkpt lat="44.779723" lon="8.1289544"><ele>139.0</ele><time>2026-04-10T14:14:26.819Z</time></trkpt><trkpt lat="44.7796642" lon="8.128911"><ele>139.0</ele><time>2026-04-10T14:14:27.818Z</time></trkpt><trkpt lat="44.7796013" lon="8.1288811"><ele>139.0</ele><time>2026-04-10T14:14:28.818Z</time></trkpt><trkpt lat="44.7795288" lon="8.1288535"><ele>139.16666666666669</ele><time>2026-04-10T14:14:29.82Z</time></trkpt><trkpt lat="44.7794033" lon="8.1287987"><ele>139.33333333333334</ele><time>2026-04-10T14:14:31.818Z</time></trkpt><trkpt lat="44.7793288" lon="8.1287688"><ele>139.5</ele><time>2026-04-10T14:14:32.819Z</time></trkpt><trkpt lat="44.7792621" lon="8.1287392"><ele>139.66666666666666</ele><time>2026-04-10T14:14:33.818Z</time></trkpt><trkpt lat="44.7791915" lon="8.1287042"><ele>139.83333333333331</ele><time>2026-04-10T14:14:34.819Z</time></trkpt><trkpt lat="44.7791311" lon="8.1286696"><ele>140.0</ele><time>2026-04-10T14:14:35.82Z</time></trkpt><trkpt lat="44.7790663" lon="8.1286365"><ele>139.6</ele><time>2026-04-10T14:14:36.819Z</time></trkpt><trkpt lat="44.7789477" lon="8.1285759"><ele>139.2</ele><time>2026-04-10T14:14:38.818Z</time></trkpt><trkpt lat="44.7788842" lon="8.1285561"><ele>138.8</ele><time>2026-04-10T14:14:39.818Z</time></trkpt><trkpt lat="44.7787746" lon="8.1285054"><ele>138.4</ele><time>2026-04-10T14:14:41.818Z</time></trkpt><trkpt lat="44.7786743" lon="8.1284329"><ele>138.0</ele><time>2026-04-10T14:14:43.818Z</time></trkpt><trkpt lat="44.7785898" lon="8.1283481"><ele>138.0</ele><time>2026-04-10T14:14:45.819Z</time></trkpt><trkpt lat="44.7785356" lon="8.1283001"><ele>138.0</ele><time>2026-04-10T14:14:46.819Z</time></trkpt><trkpt lat="44.7784769" lon="8.1282557"><ele>138.0</ele><time>2026-04-10T14:14:47.818Z</time></trkpt><trkpt lat="44.7784121" lon="8.1282179"><ele>138.0</ele><time>2026-04-10T14:14:48.819Z</time></trkpt><trkpt lat="44.778347" lon="8.1281927"><ele>138.0</ele><time>2026-04-10T14:14:49.819Z</time></trkpt><trkpt lat="44.7782802" lon="8.1281655"><ele>138.0</ele><time>2026-04-10T14:14:50.819Z</time></trkpt><trkpt lat="44.7781626" lon="8.1281225"><ele>138.16666666666666</ele><time>2026-04-10T14:14:52.818Z</time></trkpt><trkpt lat="44.7780992" lon="8.1281108"><ele>138.33333333333334</ele><time>2026-04-10T14:14:53.818Z</time></trkpt><trkpt lat="44.7779826" lon="8.1280684"><ele>138.5</ele><time>2026-04-10T14:14:55.819Z</time></trkpt><trkpt lat="44.777916" lon="8.1280555"><ele>138.66666666666669</ele><time>2026-04-10T14:14:56.817Z</time></trkpt><trkpt lat="44.777854" lon="8.128034"><ele>138.83333333333334</ele><time>2026-04-10T14:14:57.818Z</time></trkpt><trkpt lat="44.7777844" lon="8.1280157"><ele>139.0</ele><time>2026-04-10T14:14:58.819Z</time></trkpt><trkpt lat="44.7777151" lon="8.1280113"><ele>138.85714285714286</ele><time>2026-04-10T14:14:59.818Z</time></trkpt><trkpt lat="44.7776445" lon="8.1280015"><ele>138.71428571428572</ele><time>2026-04-10T14:15:00.818Z</time></trkpt><trkpt lat="44.7775743" lon="8.1280093"><ele>138.57142857142858</ele><time>2026-04-10T14:15:01.819Z</time></trkpt><trkpt lat="44.7775068" lon="8.1280155"><ele>138.42857142857144</ele><time>2026-04-10T14:15:02.818Z</time></trkpt><trkpt lat="44.7774374" lon="8.1280228"><ele>138.2857142857143</ele><time>2026-04-10T14:15:03.818Z</time></trkpt><trkpt lat="44.777363" lon="8.128042"><ele>138.14285714285714</ele><time>2026-04-10T14:15:04.82Z</time></trkpt><trkpt lat="44.7772986" lon="8.1280758"><ele>138.0</ele><time>2026-04-10T14:15:05.818Z</time></trkpt><trkpt lat="44.7772222" lon="8.1280896"><ele>138.0</ele><time>2026-04-10T14:15:06.819Z</time></trkpt><trkpt lat="44.7771479" lon="8.1281054"><ele>138.0</ele><time>2026-04-10T14:15:07.819Z</time></trkpt><trkpt lat="44.7770778" lon="8.1281171"><ele>138.0</ele><time>2026-04-10T14:15:08.818Z</time></trkpt><trkpt lat="44.7770013" lon="8.128137"><ele>138.0</ele><time>2026-04-10T14:15:09.819Z</time></trkpt><trkpt lat="44.7769388" lon="8.1281593"><ele>138.0</ele><time>2026-04-10T14:15:10.819Z</time></trkpt><trkpt lat="44.776821" lon="8.1281937"><ele>138.0</ele><time>2026-04-10T14:15:12.819Z</time></trkpt><trkpt lat="44.7766986" lon="8.1282225"><ele>138.16666666666666</ele><time>2026-04-10T14:15:14.819Z</time></trkpt><trkpt lat="44.7765715" lon="8.128236"><ele>138.33333333333334</ele><time>2026-04-10T14:15:16.818Z</time></trkpt><trkpt lat="44.7765012" lon="8.12824"><ele>138.5</ele><time>2026-04-10T14:15:17.818Z</time></trkpt><trkpt lat="44.7764371" lon="8.1282306"><ele>138.66666666666669</ele><time>2026-04-10T14:15:18.819Z</time></trkpt><trkpt lat="44.7763687" lon="8.1282111"><ele>138.83333333333334</ele><time>2026-04-10T14:15:19.818Z</time></trkpt><trkpt lat="44.776304" lon="8.1281806"><ele>139.0</ele><time>2026-04-10T14:15:20.817Z</time></trkpt><trkpt lat="44.7762359" lon="8.1281533"><ele>139.0</ele><time>2026-04-10T14:15:21.817Z</time></trkpt><trkpt lat="44.7761713" lon="8.1281092"><ele>139.0</ele><time>2026-04-10T14:15:22.819Z</time></trkpt><trkpt lat="44.7761063" lon="8.1280694"><ele>139.0</ele><time>2026-04-10T14:15:23.818Z</time></trkpt><trkpt lat="44.7760449" lon="8.1280229"><ele>139.0</ele><time>2026-04-10T14:15:24.819Z</time></trkpt><trkpt lat="44.7759286" lon="8.1279161"><ele>139.0</ele><time>2026-04-10T14:15:26.818Z</time></trkpt><trkpt lat="44.7758711" lon="8.1278652"><ele>139.0</ele><time>2026-04-10T14:15:27.82Z</time></trkpt><trkpt lat="44.77582" lon="8.1278004"><ele>138.8</ele><time>2026-04-10T14:15:28.818Z</time></trkpt><trkpt lat="44.7757662" lon="8.127748"><ele>138.60000000000002</ele><time>2026-04-10T14:15:29.818Z</time></trkpt><trkpt lat="44.7757123" lon="8.1276957"><ele>138.4</ele><time>2026-04-10T14:15:30.819Z</time></trkpt><trkpt lat="44.7756064" lon="8.1276073"><ele>138.20000000000002</ele><time>2026-04-10T14:15:32.819Z</time></trkpt><trkpt lat="44.7755041" lon="8.1275023"><ele>138.0</ele><time>2026-04-10T14:15:34.819Z</time></trkpt><trkpt lat="44.7754022" lon="8.1274159"><ele>138.0</ele><time>2026-04-10T14:15:36.818Z</time></trkpt><trkpt lat="44.7753038" lon="8.1273176"><ele>138.0</ele><time>2026-04-10T14:15:38.818Z</time></trkpt><trkpt lat="44.7752019" lon="8.1272166"><ele>138.0</ele><time>2026-04-10T14:15:40.818Z</time></trkpt><trkpt lat="44.7751067" lon="8.127125"><ele>138.0</ele><time>2026-04-10T14:15:42.817Z</time></trkpt><trkpt lat="44.7750006" lon="8.127031"><ele>138.0</ele><time>2026-04-10T14:15:44.817Z</time></trkpt><trkpt lat="44.7749073" lon="8.1269315"><ele>138.0</ele><time>2026-04-10T14:15:46.82Z</time></trkpt><trkpt lat="44.7748007" lon="8.1268332"><ele>138.0</ele><time>2026-04-10T14:15:48.818Z</time></trkpt><trkpt lat="44.7747468" lon="8.1267865"><ele>138.0</ele><time>2026-04-10T14:15:49.82Z</time></trkpt><trkpt lat="44.7746425" lon="8.1266862"><ele>138.0</ele><time>2026-04-10T14:15:51.818Z</time></trkpt><trkpt lat="44.7745872" lon="8.1266364"><ele>138.0</ele><time>2026-04-10T14:15:52.819Z</time></trkpt><trkpt lat="44.7745359" lon="8.1265837"><ele>138.0</ele><time>2026-04-10T14:15:53.819Z</time></trkpt><trkpt lat="44.7744422" lon="8.1264941"><ele>138.0</ele><time>2026-04-10T14:15:55.817Z</time></trkpt><trkpt lat="44.7743623" lon="8.1264162"><ele>138.0</ele><time>2026-04-10T14:15:57.818Z</time></trkpt><trkpt lat="44.7742761" lon="8.1263367"><ele>138.0</ele><time>2026-04-10T14:15:59.817Z</time></trkpt><trkpt lat="44.774196" lon="8.1262626"><ele>137.6</ele><time>2026-04-10T14:16:01.819Z</time></trkpt><trkpt lat="44.7741079" lon="8.126182"><ele>137.20000000000002</ele><time>2026-04-10T14:16:03.819Z</time></trkpt><trkpt lat="44.7740127" lon="8.1260942"><ele>136.8</ele><time>2026-04-10T14:16:05.819Z</time></trkpt><trkpt lat="44.7739264" lon="8.1260192"><ele>136.4</ele><time>2026-04-10T14:16:07.818Z</time></trkpt><trkpt lat="44.7738458" lon="8.1259348"><ele>136.0</ele><time>2026-04-10T14:16:09.818Z</time></trkpt><trkpt lat="44.7737706" lon="8.1258453"><ele>136.0</ele><time>2026-04-10T14:16:11.818Z</time></trkpt><trkpt lat="44.7737223" lon="8.1257546"><ele>136.0</ele><time>2026-04-10T14:16:13.818Z</time></trkpt><trkpt lat="44.7736955" lon="8.125638"><ele>136.0</ele><time>2026-04-10T14:16:15.819Z</time></trkpt><trkpt lat="44.7736166" lon="8.1255117"><ele>136.0</ele><time>2026-04-10T14:16:17.818Z</time></trkpt><trkpt lat="44.7735347" lon="8.125384"><ele>136.0</ele><time>2026-04-10T14:16:19.819Z</time></trkpt><trkpt lat="44.7734654" lon="8.1252656"><ele>136.2</ele><time>2026-04-10T14:16:21.818Z</time></trkpt><trkpt lat="44.7733813" lon="8.1251421"><ele>136.39999999999998</ele><time>2026-04-10T14:16:23.818Z</time></trkpt><trkpt lat="44.7733337" lon="8.1250734"><ele>136.6</ele><time>2026-04-10T14:16:24.817Z</time></trkpt><trkpt lat="44.7732468" lon="8.1249419"><ele>136.79999999999998</ele><time>2026-04-10T14:16:26.818Z</time></trkpt><trkpt lat="44.7731992" lon="8.1248703"><ele>137.0</ele><time>2026-04-10T14:16:27.819Z</time></trkpt><trkpt lat="44.7731515" lon="8.1247941"><ele>137.00000000000003</ele><time>2026-04-10T14:16:28.819Z</time></trkpt><trkpt lat="44.7731031" lon="8.1247368"><ele>137.0</ele><time>2026-04-10T14:16:29.819Z</time></trkpt><trkpt lat="44.7730579" lon="8.1246679"><ele>137.0</ele><time>2026-04-10T14:16:30.819Z</time></trkpt><trkpt lat="44.7730031" lon="8.1245998"><ele>137.0</ele><time>2026-04-10T14:16:31.82Z</time></trkpt><trkpt lat="44.7729486" lon="8.1245323"><ele>137.0</ele><time>2026-04-10T14:16:32.818Z</time></trkpt><trkpt lat="44.772898" lon="8.1244652"><ele>137.00000000000003</ele><time>2026-04-10T14:16:33.819Z</time></trkpt><trkpt lat="44.772851" lon="8.1243884"><ele>137.0</ele><time>2026-04-10T14:16:34.82Z</time></trkpt><trkpt lat="44.7727962" lon="8.1243316"><ele>137.00000000000003</ele><time>2026-04-10T14:16:35.817Z</time></trkpt><trkpt lat="44.7727369" lon="8.1242715"><ele>137.0</ele><time>2026-04-10T14:16:36.819Z</time></trkpt><trkpt lat="44.7726765" lon="8.1242161"><ele>137.0</ele><time>2026-04-10T14:16:37.817Z</time></trkpt><trkpt lat="44.7726251" lon="8.1241504"><ele>137.0</ele><time>2026-04-10T14:16:38.818Z</time></trkpt><trkpt lat="44.7725642" lon="8.1240983"><ele>137.0</ele><time>2026-04-10T14:16:39.819Z</time></trkpt><trkpt lat="44.7725031" lon="8.124039"><ele>137.00000000000003</ele><time>2026-04-10T14:16:40.819Z</time></trkpt><trkpt lat="44.7724425" lon="8.1239873"><ele>137.0</ele><time>2026-04-10T14:16:41.819Z</time></trkpt><trkpt lat="44.7723847" lon="8.1239504"><ele>137.33333333333331</ele><time>2026-04-10T14:16:42.819Z</time></trkpt><trkpt lat="44.7723222" lon="8.1239007"><ele>137.66666666666666</ele><time>2026-04-10T14:16:43.818Z</time></trkpt><trkpt lat="44.7722641" lon="8.1238463"><ele>138.0</ele><time>2026-04-10T14:16:44.819Z</time></trkpt><trkpt lat="44.7722057" lon="8.1237855"><ele>138.33333333333334</ele><time>2026-04-10T14:16:45.818Z</time></trkpt><trkpt lat="44.7721533" lon="8.1237275"><ele>138.66666666666669</ele><time>2026-04-10T14:16:46.818Z</time></trkpt><trkpt lat="44.7720981" lon="8.1236768"><ele>139.0</ele><time>2026-04-10T14:16:47.818Z</time></trkpt><trkpt lat="44.7720086" lon="8.1235681"><ele>139.0</ele><time>2026-04-10T14:16:49.819Z</time></trkpt><trkpt lat="44.7719111" lon="8.123471"><ele>139.0</ele><time>2026-04-10T14:16:51.818Z</time></trkpt><trkpt lat="44.7718598" lon="8.1234103"><ele>139.0</ele><time>2026-04-10T14:16:52.819Z</time></trkpt><trkpt lat="44.7718101" lon="8.1233535"><ele>139.0</ele><time>2026-04-10T14:16:53.818Z</time></trkpt><trkpt lat="44.7717047" lon="8.1232504"><ele>139.0</ele><time>2026-04-10T14:16:55.819Z</time></trkpt><trkpt lat="44.7716508" lon="8.1231883"><ele>139.0</ele><time>2026-04-10T14:16:56.819Z</time></trkpt><trkpt lat="44.7715988" lon="8.1231249"><ele>139.33333333333334</ele><time>2026-04-10T14:16:57.818Z</time></trkpt><trkpt lat="44.771546" lon="8.1230641"><ele>139.66666666666669</ele><time>2026-04-10T14:16:58.818Z</time></trkpt><trkpt lat="44.7714948" lon="8.1230084"><ele>140.0</ele><time>2026-04-10T14:16:59.817Z</time></trkpt><trkpt lat="44.7714472" lon="8.1229482"><ele>140.33333333333334</ele><time>2026-04-10T14:17:00.819Z</time></trkpt><trkpt lat="44.7713556" lon="8.1228273"><ele>140.66666666666666</ele><time>2026-04-10T14:17:02.818Z</time></trkpt><trkpt lat="44.7712631" lon="8.1227165"><ele>141.0</ele><time>2026-04-10T14:17:04.818Z</time></trkpt><trkpt lat="44.7711767" lon="8.122601"><ele>141.0</ele><time>2026-04-10T14:17:06.818Z</time></trkpt><trkpt lat="44.7711253" lon="8.1225417"><ele>141.0</ele><time>2026-04-10T14:17:07.817Z</time></trkpt><trkpt lat="44.7710335" lon="8.1224304"><ele>141.0</ele><time>2026-04-10T14:17:09.819Z</time></trkpt><trkpt lat="44.7709795" lon="8.1223771"><ele>141.0</ele><time>2026-04-10T14:17:10.819Z</time></trkpt><trkpt lat="44.7709284" lon="8.122317"><ele>141.0</ele><time>2026-04-10T14:17:11.818Z</time></trkpt><trkpt lat="44.7708782" lon="8.1222626"><ele>141.0</ele><time>2026-04-10T14:17:12.817Z</time></trkpt><trkpt lat="44.7708321" lon="8.1222016"><ele>141.0</ele><time>2026-04-10T14:17:13.818Z</time></trkpt><trkpt lat="44.7707781" lon="8.1221364"><ele>140.6</ele><time>2026-04-10T14:17:14.818Z</time></trkpt><trkpt lat="44.7706694" lon="8.1220264"><ele>140.2</ele><time>2026-04-10T14:17:16.818Z</time></trkpt><trkpt lat="44.7706139" lon="8.1219701"><ele>139.8</ele><time>2026-04-10T14:17:17.819Z</time></trkpt><trkpt lat="44.7705654" lon="8.1219115"><ele>139.4</ele><time>2026-04-10T14:17:18.818Z</time></trkpt><trkpt lat="44.770457" lon="8.1217942"><ele>139.0</ele><time>2026-04-10T14:17:20.817Z</time></trkpt><trkpt lat="44.770408" lon="8.121731"><ele>139.0</ele><time>2026-04-10T14:17:21.819Z</time></trkpt><trkpt lat="44.7703618" lon="8.1216687"><ele>139.0</ele><time>2026-04-10T14:17:22.818Z</time></trkpt><trkpt lat="44.7702744" lon="8.1215675"><ele>139.0</ele><time>2026-04-10T14:17:24.819Z</time></trkpt><trkpt lat="44.7701829" lon="8.1214693"><ele>139.0</ele><time>2026-04-10T14:17:26.818Z</time></trkpt><trkpt lat="44.7701318" lon="8.1214127"><ele>139.0</ele><time>2026-04-10T14:17:27.817Z</time></trkpt><trkpt lat="44.7700821" lon="8.121358"><ele>139.0</ele><time>2026-04-10T14:17:28.817Z</time></trkpt><trkpt lat="44.7700312" lon="8.1213035"><ele>139.2</ele><time>2026-04-10T14:17:29.818Z</time></trkpt><trkpt lat="44.7699851" lon="8.1212397"><ele>139.4</ele><time>2026-04-10T14:17:30.817Z</time></trkpt><trkpt lat="44.7699394" lon="8.1211722"><ele>139.6</ele><time>2026-04-10T14:17:31.818Z</time></trkpt><trkpt lat="44.7698321" lon="8.1210751"><ele>139.8</ele><time>2026-04-10T14:17:33.818Z</time></trkpt><trkpt lat="44.7697758" lon="8.1210236"><ele>140.0</ele><time>2026-04-10T14:17:34.82Z</time></trkpt><trkpt lat="44.7696729" lon="8.1209222"><ele>140.0</ele><time>2026-04-10T14:17:36.818Z</time></trkpt><trkpt lat="44.769624" lon="8.1208608"><ele>140.0</ele><time>2026-04-10T14:17:37.819Z</time></trkpt><trkpt lat="44.7695752" lon="8.1208008"><ele>140.0</ele><time>2026-04-10T14:17:38.817Z</time></trkpt><trkpt lat="44.7695173" lon="8.1207462"><ele>140.0</ele><time>2026-04-10T14:17:39.818Z</time></trkpt><trkpt lat="44.7694642" lon="8.1206892"><ele>140.0</ele><time>2026-04-10T14:17:40.818Z</time></trkpt><trkpt lat="44.7694111" lon="8.1206324"><ele>140.0</ele><time>2026-04-10T14:17:41.818Z</time></trkpt><trkpt lat="44.7693575" lon="8.120573"><ele>140.0</ele><time>2026-04-10T14:17:42.818Z</time></trkpt><trkpt lat="44.7693065" lon="8.1205146"><ele>140.0</ele><time>2026-04-10T14:17:43.818Z</time></trkpt><trkpt lat="44.7692586" lon="8.1204518"><ele>140.0</ele><time>2026-04-10T14:17:44.819Z</time></trkpt><trkpt lat="44.7692106" lon="8.1203933"><ele>140.0</ele><time>2026-04-10T14:17:45.818Z</time></trkpt><trkpt lat="44.7691143" lon="8.1202892"><ele>140.0</ele><time>2026-04-10T14:17:47.818Z</time></trkpt><trkpt lat="44.7690179" lon="8.1201792"><ele>140.0</ele><time>2026-04-10T14:17:49.819Z</time></trkpt><trkpt lat="44.7689199" lon="8.1200847"><ele>140.0</ele><time>2026-04-10T14:17:51.819Z</time></trkpt><trkpt lat="44.7688666" lon="8.1200293"><ele>140.0</ele><time>2026-04-10T14:17:52.817Z</time></trkpt><trkpt lat="44.7687812" lon="8.1199208"><ele>140.0</ele><time>2026-04-10T14:17:54.818Z</time></trkpt><trkpt lat="44.7686925" lon="8.1198294"><ele>140.0</ele><time>2026-04-10T14:17:56.818Z</time></trkpt><trkpt lat="44.7686043" lon="8.119726"><ele>140.0</ele><time>2026-04-10T14:17:58.818Z</time></trkpt><trkpt lat="44.7685198" lon="8.1196257"><ele>140.0</ele><time>2026-04-10T14:18:00.818Z</time></trkpt><trkpt lat="44.7684648" lon="8.1195773"><ele>140.0</ele><time>2026-04-10T14:18:01.818Z</time></trkpt><trkpt lat="44.7683715" lon="8.1194617"><ele>140.0</ele><time>2026-04-10T14:18:03.818Z</time></trkpt><trkpt lat="44.7682803" lon="8.1193491"><ele>140.0</ele><time>2026-04-10T14:18:05.817Z</time></trkpt><trkpt lat="44.7682275" lon="8.1192979"><ele>140.0</ele><time>2026-04-10T14:18:06.818Z</time></trkpt><trkpt lat="44.7681814" lon="8.1192357"><ele>140.0</ele><time>2026-04-10T14:18:07.818Z</time></trkpt><trkpt lat="44.7680846" lon="8.1191297"><ele>140.0</ele><time>2026-04-10T14:18:09.819Z</time></trkpt><trkpt lat="44.7680302" lon="8.1190814"><ele>140.0</ele><time>2026-04-10T14:18:10.819Z</time></trkpt><trkpt lat="44.7679407" lon="8.1189705"><ele>140.0</ele><time>2026-04-10T14:18:12.818Z</time></trkpt><trkpt lat="44.7678564" lon="8.1188601"><ele>140.0</ele><time>2026-04-10T14:18:14.817Z</time></trkpt><trkpt lat="44.7677522" lon="8.118792"><ele>140.0</ele><time>2026-04-10T14:18:16.819Z</time></trkpt><trkpt lat="44.7676416" lon="8.1187697"><ele>140.0</ele><time>2026-04-10T14:18:18.819Z</time></trkpt><trkpt lat="44.7675749" lon="8.1187684"><ele>140.0</ele><time>2026-04-10T14:18:19.818Z</time></trkpt><trkpt lat="44.7674507" lon="8.118746"><ele>140.0</ele><time>2026-04-10T14:18:21.818Z</time></trkpt><trkpt lat="44.7673232" lon="8.1187173"><ele>140.0</ele><time>2026-04-10T14:18:23.817Z</time></trkpt><trkpt lat="44.7672514" lon="8.1187041"><ele>140.0</ele><time>2026-04-10T14:18:24.817Z</time></trkpt><trkpt lat="44.7671886" lon="8.1186864"><ele>140.0</ele><time>2026-04-10T14:18:25.818Z</time></trkpt><trkpt lat="44.7671229" lon="8.1186718"><ele>140.0</ele><time>2026-04-10T14:18:26.817Z</time></trkpt><trkpt lat="44.7670513" lon="8.1186547"><ele>140.0</ele><time>2026-04-10T14:18:27.818Z</time></trkpt><trkpt lat="44.7669839" lon="8.1186362"><ele>140.0</ele><time>2026-04-10T14:18:28.818Z</time></trkpt><trkpt lat="44.7669218" lon="8.1186206"><ele>140.0</ele><time>2026-04-10T14:18:29.817Z</time></trkpt><trkpt lat="44.7668533" lon="8.1186034"><ele>140.0</ele><time>2026-04-10T14:18:30.817Z</time></trkpt><trkpt lat="44.7667855" lon="8.1185828"><ele>140.0</ele><time>2026-04-10T14:18:31.819Z</time></trkpt><trkpt lat="44.7667169" lon="8.1185548"><ele>140.25</ele><time>2026-04-10T14:18:32.818Z</time></trkpt><trkpt lat="44.7665949" lon="8.1185176"><ele>140.5</ele><time>2026-04-10T14:18:34.818Z</time></trkpt><trkpt lat="44.7664756" lon="8.1184834"><ele>140.75</ele><time>2026-04-10T14:18:36.818Z</time></trkpt><trkpt lat="44.7663629" lon="8.1184585"><ele>141.0</ele><time>2026-04-10T14:18:38.819Z</time></trkpt><trkpt lat="44.7662488" lon="8.1184363"><ele>141.0</ele><time>2026-04-10T14:18:40.818Z</time></trkpt><trkpt lat="44.7661853" lon="8.1184226"><ele>141.0</ele><time>2026-04-10T14:18:41.819Z</time></trkpt><trkpt lat="44.7661169" lon="8.1184137"><ele>141.0</ele><time>2026-04-10T14:18:42.817Z</time></trkpt><trkpt lat="44.766047" lon="8.1184044"><ele>141.0</ele><time>2026-04-10T14:18:43.817Z</time></trkpt><trkpt lat="44.765983" lon="8.1184004"><ele>141.0</ele><time>2026-04-10T14:18:44.82Z</time></trkpt><trkpt lat="44.7658497" lon="8.1183808"><ele>141.0</ele><time>2026-04-10T14:18:46.818Z</time></trkpt><trkpt lat="44.7657863" lon="8.118372"><ele>141.0</ele><time>2026-04-10T14:18:47.819Z</time></trkpt><trkpt lat="44.7657202" lon="8.118344"><ele>141.0</ele><time>2026-04-10T14:18:48.818Z</time></trkpt><trkpt lat="44.765651" lon="8.1183198"><ele>141.0</ele><time>2026-04-10T14:18:49.817Z</time></trkpt><trkpt lat="44.7655834" lon="8.1182801"><ele>141.0</ele><time>2026-04-10T14:18:50.818Z</time></trkpt><trkpt lat="44.765465" lon="8.1182098"><ele>141.0</ele><time>2026-04-10T14:18:52.818Z</time></trkpt><trkpt lat="44.7654045" lon="8.1181688"><ele>141.0</ele><time>2026-04-10T14:18:53.818Z</time></trkpt><trkpt lat="44.7653464" lon="8.118117"><ele>140.85714285714286</ele><time>2026-04-10T14:18:54.819Z</time></trkpt><trkpt lat="44.7652964" lon="8.1180525"><ele>140.71428571428572</ele><time>2026-04-10T14:18:55.819Z</time></trkpt><trkpt lat="44.7652432" lon="8.1179923"><ele>140.57142857142856</ele><time>2026-04-10T14:18:56.817Z</time></trkpt><trkpt lat="44.7651888" lon="8.1179286"><ele>140.42857142857144</ele><time>2026-04-10T14:18:57.818Z</time></trkpt><trkpt lat="44.7651388" lon="8.1178606"><ele>140.28571428571428</ele><time>2026-04-10T14:18:58.817Z</time></trkpt><trkpt lat="44.7650802" lon="8.1178094"><ele>140.14285714285714</ele><time>2026-04-10T14:18:59.818Z</time></trkpt><trkpt lat="44.7650206" lon="8.1177661"><ele>140.0</ele><time>2026-04-10T14:19:00.818Z</time></trkpt><trkpt lat="44.7649035" lon="8.1176787"><ele>140.0</ele><time>2026-04-10T14:19:02.818Z</time></trkpt><trkpt lat="44.7648354" lon="8.117636"><ele>140.0</ele><time>2026-04-10T14:19:03.818Z</time></trkpt><trkpt lat="44.7647658" lon="8.1175909"><ele>140.0</ele><time>2026-04-10T14:19:04.817Z</time></trkpt><trkpt lat="44.7647049" lon="8.1175498"><ele>140.0</ele><time>2026-04-10T14:19:05.817Z</time></trkpt><trkpt lat="44.7646425" lon="8.1175052"><ele>140.0</ele><time>2026-04-10T14:19:06.817Z</time></trkpt><trkpt lat="44.764578" lon="8.1174578"><ele>140.0</ele><time>2026-04-10T14:19:07.818Z</time></trkpt><trkpt lat="44.7645102" lon="8.1174169"><ele>140.0</ele><time>2026-04-10T14:19:08.819Z</time></trkpt><trkpt lat="44.764444" lon="8.1173797"><ele>140.2</ele><time>2026-04-10T14:19:09.817Z</time></trkpt><trkpt lat="44.7643804" lon="8.1173406"><ele>140.4</ele><time>2026-04-10T14:19:10.818Z</time></trkpt><trkpt lat="44.7643118" lon="8.117308"><ele>140.6</ele><time>2026-04-10T14:19:11.819Z</time></trkpt><trkpt lat="44.7642317" lon="8.1172741"><ele>140.8</ele><time>2026-04-10T14:19:12.817Z</time></trkpt><trkpt lat="44.7641739" lon="8.117212"><ele>141.0</ele><time>2026-04-10T14:19:13.818Z</time></trkpt><trkpt lat="44.7640291" lon="8.1170814"><ele>141.0</ele><time>2026-04-10T14:19:16.819Z</time></trkpt><trkpt lat="44.7639844" lon="8.1169422"><ele>141.0</ele><time>2026-04-10T14:19:18.818Z</time></trkpt><trkpt lat="44.7639708" lon="8.116798"><ele>141.0</ele><time>2026-04-10T14:19:20.817Z</time></trkpt><trkpt lat="44.763981" lon="8.1166613"><ele>141.0</ele><time>2026-04-10T14:19:22.818Z</time></trkpt><trkpt lat="44.7639719" lon="8.1165251"><ele>141.0</ele><time>2026-04-10T14:19:24.819Z</time></trkpt><trkpt lat="44.7639901" lon="8.1163757"><ele>141.0</ele><time>2026-04-10T14:19:26.818Z</time></trkpt><trkpt lat="44.7639944" lon="8.1162344"><ele>141.0</ele><time>2026-04-10T14:19:28.819Z</time></trkpt><trkpt lat="44.7639829" lon="8.1160687"><ele>141.0</ele><time>2026-04-10T14:19:30.817Z</time></trkpt><trkpt lat="44.7639825" lon="8.1159022"><ele>141.0</ele><time>2026-04-10T14:19:32.818Z</time></trkpt><trkpt lat="44.7639776" lon="8.115732"><ele>140.8</ele><time>2026-04-10T14:19:34.818Z</time></trkpt><trkpt lat="44.7639776" lon="8.1155625"><ele>140.6</ele><time>2026-04-10T14:19:36.818Z</time></trkpt><trkpt lat="44.7639805" lon="8.1154672"><ele>140.4</ele><time>2026-04-10T14:19:37.818Z</time></trkpt><trkpt lat="44.7639811" lon="8.1152988"><ele>140.2</ele><time>2026-04-10T14:19:39.818Z</time></trkpt><trkpt lat="44.763985" lon="8.1152033"><ele>140.0</ele><time>2026-04-10T14:19:40.818Z</time></trkpt><trkpt lat="44.7639733" lon="8.1150404"><ele>139.5</ele><time>2026-04-10T14:19:42.817Z</time></trkpt><trkpt lat="44.763931" lon="8.1148844"><ele>139.0</ele><time>2026-04-10T14:19:44.819Z</time></trkpt><trkpt lat="44.7638497" lon="8.1147497"><ele>138.5</ele><time>2026-04-10T14:19:46.818Z</time></trkpt><trkpt lat="44.763801" lon="8.1146915"><ele>138.0</ele><time>2026-04-10T14:19:47.817Z</time></trkpt><trkpt lat="44.7637436" lon="8.1146437"><ele>137.5</ele><time>2026-04-10T14:19:48.817Z</time></trkpt><trkpt lat="44.7636816" lon="8.1146099"><ele>137.0</ele><time>2026-04-10T14:19:49.818Z</time></trkpt><trkpt lat="44.7636207" lon="8.1145682"><ele>137.0</ele><time>2026-04-10T14:19:50.818Z</time></trkpt><trkpt lat="44.7635586" lon="8.1145359"><ele>137.0</ele><time>2026-04-10T14:19:51.818Z</time></trkpt><trkpt lat="44.7634983" lon="8.1145054"><ele>137.0</ele><time>2026-04-10T14:19:52.819Z</time></trkpt><trkpt lat="44.7633969" lon="8.1144142"><ele>137.0</ele><time>2026-04-10T14:19:54.817Z</time></trkpt><trkpt lat="44.7632844" lon="8.11433"><ele>137.0</ele><time>2026-04-10T14:19:56.818Z</time></trkpt><trkpt lat="44.7632141" lon="8.1143009"><ele>137.57142857142858</ele><time>2026-04-10T14:19:57.819Z</time></trkpt><trkpt lat="44.7631511" lon="8.1142628"><ele>138.14285714285714</ele><time>2026-04-10T14:19:58.817Z</time></trkpt><trkpt lat="44.7630859" lon="8.1142173"><ele>138.71428571428572</ele><time>2026-04-10T14:19:59.818Z</time></trkpt><trkpt lat="44.7630245" lon="8.1141759"><ele>139.28571428571428</ele><time>2026-04-10T14:20:00.818Z</time></trkpt><trkpt lat="44.7629633" lon="8.1141427"><ele>139.85714285714286</ele><time>2026-04-10T14:20:01.818Z</time></trkpt><trkpt lat="44.7629009" lon="8.1141024"><ele>140.42857142857144</ele><time>2026-04-10T14:20:02.818Z</time></trkpt><trkpt lat="44.7628333" lon="8.1140667"><ele>141.0</ele><time>2026-04-10T14:20:03.818Z</time></trkpt><trkpt lat="44.7627732" lon="8.1140269"><ele>141.14285714285714</ele><time>2026-04-10T14:20:04.819Z</time></trkpt><trkpt lat="44.7627045" lon="8.1139881"><ele>141.28571428571428</ele><time>2026-04-10T14:20:05.817Z</time></trkpt><trkpt lat="44.7626406" lon="8.1139436"><ele>141.42857142857142</ele><time>2026-04-10T14:20:06.818Z</time></trkpt><trkpt lat="44.7625751" lon="8.1138974"><ele>141.57142857142856</ele><time>2026-04-10T14:20:07.817Z</time></trkpt><trkpt lat="44.7625169" lon="8.1138463"><ele>141.7142857142857</ele><time>2026-04-10T14:20:08.818Z</time></trkpt><trkpt lat="44.7624622" lon="8.1137949"><ele>141.85714285714286</ele><time>2026-04-10T14:20:09.817Z</time></trkpt><trkpt lat="44.7624017" lon="8.113756"><ele>142.0</ele><time>2026-04-10T14:20:10.818Z</time></trkpt><trkpt lat="44.76234" lon="8.1137181"><ele>142.14285714285714</ele><time>2026-04-10T14:20:11.817Z</time></trkpt><trkpt lat="44.7622805" lon="8.113672"><ele>142.28571428571428</ele><time>2026-04-10T14:20:12.819Z</time></trkpt><trkpt lat="44.7622189" lon="8.1136269"><ele>142.42857142857142</ele><time>2026-04-10T14:20:13.819Z</time></trkpt><trkpt lat="44.7621587" lon="8.1135836"><ele>142.57142857142856</ele><time>2026-04-10T14:20:14.817Z</time></trkpt><trkpt lat="44.7621019" lon="8.1135418"><ele>142.71428571428572</ele><time>2026-04-10T14:20:15.817Z</time></trkpt><trkpt lat="44.762046" lon="8.113499"><ele>142.85714285714283</ele><time>2026-04-10T14:20:16.818Z</time></trkpt><trkpt lat="44.7619449" lon="8.1134257"><ele>143.0</ele><time>2026-04-10T14:20:18.818Z</time></trkpt><trkpt lat="44.7618448" lon="8.1133597"><ele>142.75</ele><time>2026-04-10T14:20:20.817Z</time></trkpt><trkpt lat="44.7617453" lon="8.1132977"><ele>142.5</ele><time>2026-04-10T14:20:22.818Z</time></trkpt><trkpt lat="44.7616401" lon="8.1132131"><ele>142.25</ele><time>2026-04-10T14:20:24.817Z</time></trkpt><trkpt lat="44.7615413" lon="8.1131194"><ele>142.0</ele><time>2026-04-10T14:20:26.819Z</time></trkpt><trkpt lat="44.7614381" lon="8.1130591"><ele>142.0</ele><time>2026-04-10T14:20:28.818Z</time></trkpt><trkpt lat="44.7613789" lon="8.1130263"><ele>142.0</ele><time>2026-04-10T14:20:29.819Z</time></trkpt><trkpt lat="44.7612722" lon="8.1129501"><ele>142.0</ele><time>2026-04-10T14:20:31.818Z</time></trkpt><trkpt lat="44.7611657" lon="8.1128795"><ele>142.0</ele><time>2026-04-10T14:20:33.818Z</time></trkpt><trkpt lat="44.7610521" lon="8.1128176"><ele>142.0</ele><time>2026-04-10T14:20:35.82Z</time></trkpt><trkpt lat="44.7609387" lon="8.1127315"><ele>141.85714285714286</ele><time>2026-04-10T14:20:37.818Z</time></trkpt><trkpt lat="44.7608794" lon="8.112687"><ele>141.7142857142857</ele><time>2026-04-10T14:20:38.818Z</time></trkpt><trkpt lat="44.7608176" lon="8.1126413"><ele>141.57142857142856</ele><time>2026-04-10T14:20:39.817Z</time></trkpt><trkpt lat="44.7607552" lon="8.1126036"><ele>141.42857142857142</ele><time>2026-04-10T14:20:40.818Z</time></trkpt><trkpt lat="44.7606961" lon="8.1125501"><ele>141.28571428571428</ele><time>2026-04-10T14:20:41.817Z</time></trkpt><trkpt lat="44.760636" lon="8.112507"><ele>141.14285714285714</ele><time>2026-04-10T14:20:42.818Z</time></trkpt><trkpt lat="44.7605717" lon="8.1124599"><ele>141.0</ele><time>2026-04-10T14:20:43.818Z</time></trkpt><trkpt lat="44.7605071" lon="8.1124135"><ele>141.0</ele><time>2026-04-10T14:20:44.817Z</time></trkpt><trkpt lat="44.7604431" lon="8.1123697"><ele>141.0</ele><time>2026-04-10T14:20:45.818Z</time></trkpt><trkpt lat="44.760387" lon="8.1123197"><ele>141.0</ele><time>2026-04-10T14:20:46.819Z</time></trkpt><trkpt lat="44.7603404" lon="8.1122514"><ele>141.0</ele><time>2026-04-10T14:20:47.818Z</time></trkpt><trkpt lat="44.7602899" lon="8.1121779"><ele>141.0</ele><time>2026-04-10T14:20:48.818Z</time></trkpt><trkpt lat="44.7602455" lon="8.1121145"><ele>141.0</ele><time>2026-04-10T14:20:49.818Z</time></trkpt><trkpt lat="44.7601911" lon="8.1120507"><ele>141.0</ele><time>2026-04-10T14:20:50.817Z</time></trkpt><trkpt lat="44.7601407" lon="8.1119841"><ele>141.0</ele><time>2026-04-10T14:20:51.818Z</time></trkpt><trkpt lat="44.7600871" lon="8.1119212"><ele>141.0</ele><time>2026-04-10T14:20:52.818Z</time></trkpt><trkpt lat="44.7600335" lon="8.1118535"><ele>141.0</ele><time>2026-04-10T14:20:53.818Z</time></trkpt><trkpt lat="44.7599804" lon="8.1117842"><ele>141.0</ele><time>2026-04-10T14:20:54.817Z</time></trkpt><trkpt lat="44.7599248" lon="8.1117199"><ele>141.0</ele><time>2026-04-10T14:20:55.818Z</time></trkpt><trkpt lat="44.759871" lon="8.1116509"><ele>141.0</ele><time>2026-04-10T14:20:56.818Z</time></trkpt><trkpt lat="44.7598182" lon="8.1115782"><ele>141.0</ele><time>2026-04-10T14:20:57.819Z</time></trkpt><trkpt lat="44.759766" lon="8.1115104"><ele>141.0</ele><time>2026-04-10T14:20:58.817Z</time></trkpt><trkpt lat="44.7597162" lon="8.1114364"><ele>141.0</ele><time>2026-04-10T14:20:59.817Z</time></trkpt><trkpt lat="44.7596654" lon="8.1113703"><ele>141.0</ele><time>2026-04-10T14:21:00.819Z</time></trkpt><trkpt lat="44.7596185" lon="8.1112996"><ele>141.0</ele><time>2026-04-10T14:21:01.818Z</time></trkpt><trkpt lat="44.759572" lon="8.1112353"><ele>141.0</ele><time>2026-04-10T14:21:02.817Z</time></trkpt><trkpt lat="44.7595272" lon="8.1111676"><ele>141.0</ele><time>2026-04-10T14:21:03.818Z</time></trkpt><trkpt lat="44.759474" lon="8.1111049"><ele>141.0</ele><time>2026-04-10T14:21:04.817Z</time></trkpt><trkpt lat="44.7594234" lon="8.1110413"><ele>141.0</ele><time>2026-04-10T14:21:05.818Z</time></trkpt><trkpt lat="44.7593685" lon="8.1109793"><ele>141.0</ele><time>2026-04-10T14:21:06.818Z</time></trkpt><trkpt lat="44.7593154" lon="8.1109111"><ele>141.0</ele><time>2026-04-10T14:21:07.817Z</time></trkpt><trkpt lat="44.7592676" lon="8.1108437"><ele>141.0</ele><time>2026-04-10T14:21:08.818Z</time></trkpt><trkpt lat="44.7592188" lon="8.1107709"><ele>141.0</ele><time>2026-04-10T14:21:09.819Z</time></trkpt><trkpt lat="44.7591665" lon="8.1107031"><ele>141.0</ele><time>2026-04-10T14:21:10.818Z</time></trkpt><trkpt lat="44.7591155" lon="8.1106399"><ele>141.0</ele><time>2026-04-10T14:21:11.817Z</time></trkpt><trkpt lat="44.7590636" lon="8.1105759"><ele>141.16666666666666</ele><time>2026-04-10T14:21:12.817Z</time></trkpt><trkpt lat="44.7590127" lon="8.1105055"><ele>141.33333333333334</ele><time>2026-04-10T14:21:13.819Z</time></trkpt><trkpt lat="44.7589606" lon="8.1104388"><ele>141.5</ele><time>2026-04-10T14:21:14.817Z</time></trkpt><trkpt lat="44.7589064" lon="8.1103808"><ele>141.66666666666669</ele><time>2026-04-10T14:21:15.818Z</time></trkpt><trkpt lat="44.7588471" lon="8.1103312"><ele>141.83333333333334</ele><time>2026-04-10T14:21:16.817Z</time></trkpt><trkpt lat="44.7587913" lon="8.1102835"><ele>142.0</ele><time>2026-04-10T14:21:17.817Z</time></trkpt><trkpt lat="44.758696" lon="8.1101678"><ele>142.0</ele><time>2026-04-10T14:21:19.818Z</time></trkpt><trkpt lat="44.7585961" lon="8.1100896"><ele>142.0</ele><time>2026-04-10T14:21:21.819Z</time></trkpt><trkpt lat="44.7584991" lon="8.1100232"><ele>142.0</ele><time>2026-04-10T14:21:23.819Z</time></trkpt><trkpt lat="44.7584061" lon="8.1099506"><ele>142.0</ele><time>2026-04-10T14:21:25.818Z</time></trkpt><trkpt lat="44.7582935" lon="8.109902"><ele>142.0</ele><time>2026-04-10T14:21:27.818Z</time></trkpt><trkpt lat="44.7581732" lon="8.1098567"><ele>142.0</ele><time>2026-04-10T14:21:29.817Z</time></trkpt><trkpt lat="44.758109" lon="8.1098336"><ele>142.0</ele><time>2026-04-10T14:21:30.818Z</time></trkpt><trkpt lat="44.7580472" lon="8.1098104"><ele>142.0</ele><time>2026-04-10T14:21:31.817Z</time></trkpt><trkpt lat="44.7579788" lon="8.109786"><ele>142.0</ele><time>2026-04-10T14:21:32.818Z</time></trkpt><trkpt lat="44.7578546" lon="8.1097548"><ele>142.0</ele><time>2026-04-10T14:21:34.817Z</time></trkpt><trkpt lat="44.7577392" lon="8.1097272"><ele>142.0</ele><time>2026-04-10T14:21:36.817Z</time></trkpt><trkpt lat="44.757621" lon="8.1097208"><ele>142.0</ele><time>2026-04-10T14:21:38.817Z</time></trkpt><trkpt lat="44.7575118" lon="8.1097209"><ele>142.0</ele><time>2026-04-10T14:21:40.817Z</time></trkpt><trkpt lat="44.7574406" lon="8.109664"><ele>142.0</ele><time>2026-04-10T14:21:42.819Z</time></trkpt><trkpt lat="44.7574332" lon="8.1095518"><ele>142.0</ele><time>2026-04-10T14:21:44.818Z</time></trkpt><trkpt lat="44.7574628" lon="8.1094172"><ele>142.0</ele><time>2026-04-10T14:21:46.818Z</time></trkpt><trkpt lat="44.7575089" lon="8.1092872"><ele>142.0</ele><time>2026-04-10T14:21:48.819Z</time></trkpt><trkpt lat="44.757561" lon="8.1091619"><ele>142.0</ele><time>2026-04-10T14:21:50.818Z</time></trkpt><trkpt lat="44.7576106" lon="8.1090216"><ele>142.0</ele><time>2026-04-10T14:21:52.817Z</time></trkpt><trkpt lat="44.757657" lon="8.1088859"><ele>142.0</ele><time>2026-04-10T14:21:54.818Z</time></trkpt><trkpt lat="44.7577114" lon="8.1087495"><ele>142.0</ele><time>2026-04-10T14:21:56.817Z</time></trkpt><trkpt lat="44.7577659" lon="8.1086089"><ele>142.2</ele><time>2026-04-10T14:21:58.817Z</time></trkpt><trkpt lat="44.7578205" lon="8.1084652"><ele>142.39999999999998</ele><time>2026-04-10T14:22:00.817Z</time></trkpt><trkpt lat="44.7578631" lon="8.1083252"><ele>142.60000000000002</ele><time>2026-04-10T14:22:02.818Z</time></trkpt><trkpt lat="44.7578723" lon="8.1081906"><ele>142.8</ele><time>2026-04-10T14:22:04.818Z</time></trkpt><trkpt lat="44.7578387" lon="8.1080689"><ele>143.0</ele><time>2026-04-10T14:22:06.818Z</time></trkpt><trkpt lat="44.7577847" lon="8.107974"><ele>143.0</ele><time>2026-04-10T14:22:08.817Z</time></trkpt><trkpt lat="44.7577035" lon="8.1078983"><ele>143.0</ele><time>2026-04-10T14:22:10.818Z</time></trkpt><trkpt lat="44.7576252" lon="8.1078114"><ele>143.0</ele><time>2026-04-10T14:22:12.818Z</time></trkpt><trkpt lat="44.7575484" lon="8.1076791"><ele>143.0</ele><time>2026-04-10T14:22:14.817Z</time></trkpt><trkpt lat="44.7575166" lon="8.1075996"><ele>143.0</ele><time>2026-04-10T14:22:15.819Z</time></trkpt><trkpt lat="44.7574787" lon="8.1075283"><ele>143.0</ele><time>2026-04-10T14:22:16.818Z</time></trkpt><trkpt lat="44.7574103" lon="8.1073887"><ele>142.5</ele><time>2026-04-10T14:22:18.817Z</time></trkpt><trkpt lat="44.7573585" lon="8.1072448"><ele>142.0</ele><time>2026-04-10T14:22:20.818Z</time></trkpt><trkpt lat="44.7573277" lon="8.1070896"><ele>141.5</ele><time>2026-04-10T14:22:22.818Z</time></trkpt><trkpt lat="44.7573152" lon="8.1069321"><ele>141.0</ele><time>2026-04-10T14:22:24.818Z</time></trkpt><trkpt lat="44.7573003" lon="8.1067795"><ele>141.0</ele><time>2026-04-10T14:22:26.818Z</time></trkpt><trkpt lat="44.7572534" lon="8.106638"><ele>141.0</ele><time>2026-04-10T14:22:28.818Z</time></trkpt><trkpt lat="44.7571717" lon="8.1065446"><ele>141.0</ele><time>2026-04-10T14:22:30.817Z</time></trkpt><trkpt lat="44.7570884" lon="8.1064373"><ele>141.0</ele><time>2026-04-10T14:22:32.817Z</time></trkpt><trkpt lat="44.7570161" lon="8.1063027"><ele>141.0</ele><time>2026-04-10T14:22:34.817Z</time></trkpt><trkpt lat="44.7569844" lon="8.1062193"><ele>141.14285714285714</ele><time>2026-04-10T14:22:35.817Z</time></trkpt><trkpt lat="44.7569461" lon="8.106141"><ele>141.28571428571428</ele><time>2026-04-10T14:22:36.817Z</time></trkpt><trkpt lat="44.7569088" lon="8.1060567"><ele>141.42857142857142</ele><time>2026-04-10T14:22:37.818Z</time></trkpt><trkpt lat="44.7568808" lon="8.1059723"><ele>141.57142857142856</ele><time>2026-04-10T14:22:38.817Z</time></trkpt><trkpt lat="44.756845" lon="8.1058986"><ele>141.7142857142857</ele><time>2026-04-10T14:22:39.818Z</time></trkpt><trkpt lat="44.7568074" lon="8.1058221"><ele>141.85714285714286</ele><time>2026-04-10T14:22:40.818Z</time></trkpt><trkpt lat="44.7567465" lon="8.1056836"><ele>142.0</ele><time>2026-04-10T14:22:42.818Z</time></trkpt><trkpt lat="44.7566877" lon="8.1055463"><ele>141.5</ele><time>2026-04-10T14:22:44.818Z</time></trkpt><trkpt lat="44.7566278" lon="8.1053812"><ele>141.0</ele><time>2026-04-10T14:22:46.818Z</time></trkpt><trkpt lat="44.756592" lon="8.1053015"><ele>140.5</ele><time>2026-04-10T14:22:47.819Z</time></trkpt><trkpt lat="44.7565517" lon="8.1052237"><ele>140.0</ele><time>2026-04-10T14:22:48.816Z</time></trkpt><trkpt lat="44.7565183" lon="8.1051458"><ele>139.5</ele><time>2026-04-10T14:22:49.817Z</time></trkpt><trkpt lat="44.7564809" lon="8.1050666"><ele>139.0</ele><time>2026-04-10T14:22:50.818Z</time></trkpt><trkpt lat="44.7564369" lon="8.1049952"><ele>139.0</ele><time>2026-04-10T14:22:51.819Z</time></trkpt><trkpt lat="44.7564033" lon="8.1049136"><ele>139.0</ele><time>2026-04-10T14:22:52.817Z</time></trkpt><trkpt lat="44.7563619" lon="8.104839"><ele>139.0</ele><time>2026-04-10T14:22:53.817Z</time></trkpt><trkpt lat="44.7562884" lon="8.1047084"><ele>139.0</ele><time>2026-04-10T14:22:55.817Z</time></trkpt><trkpt lat="44.756218" lon="8.1046119"><ele>139.0</ele><time>2026-04-10T14:22:57.817Z</time></trkpt><trkpt lat="44.7561577" lon="8.104535"><ele>139.0</ele><time>2026-04-10T14:22:59.818Z</time></trkpt><trkpt lat="44.7560913" lon="8.1044636"><ele>139.33333333333334</ele><time>2026-04-10T14:23:01.817Z</time></trkpt><trkpt lat="44.756015" lon="8.1043884"><ele>139.66666666666669</ele><time>2026-04-10T14:23:03.817Z</time></trkpt><trkpt lat="44.7559381" lon="8.1043391"><ele>140.0</ele><time>2026-04-10T14:23:05.817Z</time></trkpt><trkpt lat="44.755861" lon="8.1043427"><ele>140.33333333333334</ele><time>2026-04-10T14:24:33.818Z</time></trkpt><trkpt lat="44.7557737" lon="8.1043856"><ele>140.66666666666666</ele><time>2026-04-10T14:24:36.817Z</time></trkpt><trkpt lat="44.7556915" lon="8.1044133"><ele>141.0</ele><time>2026-04-10T14:24:38.816Z</time></trkpt><trkpt lat="44.7555909" lon="8.1044451"><ele>141.0</ele><time>2026-04-10T14:24:40.817Z</time></trkpt><trkpt lat="44.7554895" lon="8.1044394"><ele>141.0</ele><time>2026-04-10T14:24:42.817Z</time></trkpt><trkpt lat="44.755388" lon="8.1044333"><ele>141.0</ele><time>2026-04-10T14:24:44.817Z</time></trkpt><trkpt lat="44.755294" lon="8.1044144"><ele>141.0</ele><time>2026-04-10T14:24:46.818Z</time></trkpt><trkpt lat="44.7551962" lon="8.1043887"><ele>141.0</ele><time>2026-04-10T14:24:48.818Z</time></trkpt><trkpt lat="44.7550934" lon="8.1043764"><ele>140.83333333333334</ele><time>2026-04-10T14:24:50.818Z</time></trkpt><trkpt lat="44.754996" lon="8.1043658"><ele>140.66666666666666</ele><time>2026-04-10T14:24:52.818Z</time></trkpt><trkpt lat="44.7548969" lon="8.1043437"><ele>140.5</ele><time>2026-04-10T14:24:54.818Z</time></trkpt><trkpt lat="44.7548189" lon="8.1043384"><ele>140.33333333333331</ele><time>2026-04-10T14:24:56.818Z</time></trkpt><trkpt lat="44.7547316" lon="8.1043605"><ele>140.16666666666666</ele><time>2026-04-10T14:24:58.817Z</time></trkpt><trkpt lat="44.7546646" lon="8.1043683"><ele>140.0</ele><time>2026-04-10T14:25:00.817Z</time></trkpt><trkpt lat="44.7545924" lon="8.1043569"><ele>140.0</ele><time>2026-04-10T14:25:02.817Z</time></trkpt><trkpt lat="44.7545214" lon="8.1043588"><ele>140.0</ele><time>2026-04-10T14:25:04.816Z</time></trkpt><trkpt lat="44.7544276" lon="8.1043816"><ele>140.0</ele><time>2026-04-10T14:25:06.816Z</time></trkpt><trkpt lat="44.7543284" lon="8.1044091"><ele>140.0</ele><time>2026-04-10T14:25:08.817Z</time></trkpt><trkpt lat="44.7542214" lon="8.104427"><ele>140.0</ele><time>2026-04-10T14:25:10.817Z</time></trkpt><trkpt lat="44.7541203" lon="8.1044345"><ele>140.75</ele><time>2026-04-10T14:25:12.816Z</time></trkpt><trkpt lat="44.7540193" lon="8.104442"><ele>141.5</ele><time>2026-04-10T14:25:14.818Z</time></trkpt><trkpt lat="44.7538842" lon="8.1044595"><ele>142.25</ele><time>2026-04-10T14:25:16.816Z</time></trkpt><trkpt lat="44.75376" lon="8.1044738"><ele>143.0</ele><time>2026-04-10T14:25:18.817Z</time></trkpt><trkpt lat="44.7536636" lon="8.1044939"><ele>143.0</ele><time>2026-04-10T14:25:20.816Z</time></trkpt><trkpt lat="44.7535829" lon="8.1045"><ele>143.0</ele><time>2026-04-10T14:25:22.817Z</time></trkpt><trkpt lat="44.7534676" lon="8.1045288"><ele>143.0</ele><time>2026-04-10T14:25:24.817Z</time></trkpt><trkpt lat="44.7533491" lon="8.1045272"><ele>143.0</ele><time>2026-04-10T14:25:26.816Z</time></trkpt><trkpt lat="44.7532851" lon="8.1045263"><ele>143.0</ele><time>2026-04-10T14:25:27.816Z</time></trkpt><trkpt lat="44.7531458" lon="8.1045259"><ele>143.0</ele><time>2026-04-10T14:25:29.818Z</time></trkpt><trkpt lat="44.7530872" lon="8.1044871"><ele>143.0</ele><time>2026-04-10T14:25:30.816Z</time></trkpt><trkpt lat="44.7530364" lon="8.1044339"><ele>143.0</ele><time>2026-04-10T14:25:31.816Z</time></trkpt><trkpt lat="44.7529644" lon="8.1042968"><ele>143.0</ele><time>2026-04-10T14:25:33.818Z</time></trkpt><trkpt lat="44.7528871" lon="8.1041501"><ele>143.0</ele><time>2026-04-10T14:25:35.817Z</time></trkpt><trkpt lat="44.7528469" lon="8.1040725"><ele>143.0</ele><time>2026-04-10T14:25:36.816Z</time></trkpt><trkpt lat="44.7528092" lon="8.1039985"><ele>142.99999999999997</ele><time>2026-04-10T14:25:37.817Z</time></trkpt><trkpt lat="44.7527624" lon="8.1039304"><ele>143.0</ele><time>2026-04-10T14:25:38.817Z</time></trkpt><trkpt lat="44.7527285" lon="8.1038457"><ele>143.0</ele><time>2026-04-10T14:25:39.816Z</time></trkpt><trkpt lat="44.7526889" lon="8.1037726"><ele>143.0</ele><time>2026-04-10T14:25:40.817Z</time></trkpt><trkpt lat="44.7526473" lon="8.1036947"><ele>143.0</ele><time>2026-04-10T14:25:41.818Z</time></trkpt><trkpt lat="44.7526155" lon="8.1036077"><ele>142.99999999999997</ele><time>2026-04-10T14:25:42.818Z</time></trkpt><trkpt lat="44.7525779" lon="8.1035352"><ele>143.0</ele><time>2026-04-10T14:25:43.817Z</time></trkpt><trkpt lat="44.7525327" lon="8.1034657"><ele>142.85714285714283</ele><time>2026-04-10T14:25:44.817Z</time></trkpt><trkpt lat="44.7524855" lon="8.1034024"><ele>142.71428571428572</ele><time>2026-04-10T14:25:45.818Z</time></trkpt><trkpt lat="44.7524399" lon="8.1033282"><ele>142.57142857142856</ele><time>2026-04-10T14:25:46.818Z</time></trkpt><trkpt lat="44.7523855" lon="8.1032661"><ele>142.42857142857142</ele><time>2026-04-10T14:25:47.817Z</time></trkpt><trkpt lat="44.7523291" lon="8.1032166"><ele>142.28571428571428</ele><time>2026-04-10T14:25:48.818Z</time></trkpt><trkpt lat="44.75226" lon="8.1031779"><ele>142.14285714285714</ele><time>2026-04-10T14:25:49.817Z</time></trkpt><trkpt lat="44.7521954" lon="8.1031489"><ele>142.0</ele><time>2026-04-10T14:25:50.817Z</time></trkpt><trkpt lat="44.7521274" lon="8.1031366"><ele>142.0</ele><time>2026-04-10T14:25:51.817Z</time></trkpt><trkpt lat="44.7520639" lon="8.1031267"><ele>142.0</ele><time>2026-04-10T14:25:52.818Z</time></trkpt><trkpt lat="44.7519326" lon="8.1031294"><ele>142.0</ele><time>2026-04-10T14:25:54.816Z</time></trkpt><trkpt lat="44.7518198" lon="8.1030885"><ele>142.0</ele><time>2026-04-10T14:25:56.818Z</time></trkpt><trkpt lat="44.7517563" lon="8.1030725"><ele>142.0</ele><time>2026-04-10T14:25:57.817Z</time></trkpt><trkpt lat="44.7516294" lon="8.1030713"><ele>142.4</ele><time>2026-04-10T14:25:59.816Z</time></trkpt><trkpt lat="44.7515107" lon="8.1030406"><ele>142.79999999999998</ele><time>2026-04-10T14:26:01.817Z</time></trkpt><trkpt lat="44.7514029" lon="8.1030067"><ele>143.2</ele><time>2026-04-10T14:26:03.819Z</time></trkpt><trkpt lat="44.7513411" lon="8.1029833"><ele>143.6</ele><time>2026-04-10T14:26:04.817Z</time></trkpt><trkpt lat="44.751236" lon="8.1029203"><ele>144.0</ele><time>2026-04-10T14:26:06.816Z</time></trkpt><trkpt lat="44.751151" lon="8.1028117"><ele>144.00000000000003</ele><time>2026-04-10T14:26:08.818Z</time></trkpt><trkpt lat="44.7510954" lon="8.1027584"><ele>144.0</ele><time>2026-04-10T14:26:09.817Z</time></trkpt><trkpt lat="44.7510473" lon="8.1026957"><ele>144.0</ele><time>2026-04-10T14:26:10.817Z</time></trkpt><trkpt lat="44.7509938" lon="8.1026349"><ele>144.0</ele><time>2026-04-10T14:26:11.815Z</time></trkpt><trkpt lat="44.7509499" lon="8.1025615"><ele>144.0</ele><time>2026-04-10T14:26:12.817Z</time></trkpt><trkpt lat="44.7509109" lon="8.1024868"><ele>144.00000000000003</ele><time>2026-04-10T14:26:13.817Z</time></trkpt><trkpt lat="44.7508837" lon="8.1023893"><ele>144.0</ele><time>2026-04-10T14:26:14.816Z</time></trkpt><trkpt lat="44.7508317" lon="8.1022288"><ele>144.66666666666666</ele><time>2026-04-10T14:26:16.816Z</time></trkpt><trkpt lat="44.7508074" lon="8.1021398"><ele>145.33333333333334</ele><time>2026-04-10T14:26:17.818Z</time></trkpt><trkpt lat="44.7507573" lon="8.1019809"><ele>146.0</ele><time>2026-04-10T14:26:19.816Z</time></trkpt><trkpt lat="44.7507279" lon="8.1018972"><ele>146.66666666666669</ele><time>2026-04-10T14:26:20.817Z</time></trkpt><trkpt lat="44.7507003" lon="8.1018142"><ele>147.33333333333334</ele><time>2026-04-10T14:26:21.817Z</time></trkpt><trkpt lat="44.750679" lon="8.1017274"><ele>148.0</ele><time>2026-04-10T14:26:22.816Z</time></trkpt><trkpt lat="44.7506559" lon="8.1016403"><ele>147.42857142857144</ele><time>2026-04-10T14:26:23.816Z</time></trkpt><trkpt lat="44.7506332" lon="8.1015507"><ele>146.85714285714286</ele><time>2026-04-10T14:26:24.817Z</time></trkpt><trkpt lat="44.7506154" lon="8.1014654"><ele>146.28571428571428</ele><time>2026-04-10T14:26:25.818Z</time></trkpt><trkpt lat="44.7505837" lon="8.1013875"><ele>145.71428571428572</ele><time>2026-04-10T14:26:26.817Z</time></trkpt><trkpt lat="44.7505496" lon="8.1013055"><ele>145.14285714285714</ele><time>2026-04-10T14:26:27.817Z</time></trkpt><trkpt lat="44.750493" lon="8.1012493"><ele>144.57142857142858</ele><time>2026-04-10T14:26:28.817Z</time></trkpt><trkpt lat="44.7504344" lon="8.1012033"><ele>144.0</ele><time>2026-04-10T14:26:29.816Z</time></trkpt><trkpt lat="44.7503686" lon="8.1011617"><ele>144.0</ele><time>2026-04-10T14:26:30.818Z</time></trkpt><trkpt lat="44.7503057" lon="8.1011186"><ele>144.0</ele><time>2026-04-10T14:26:31.817Z</time></trkpt><trkpt lat="44.7502439" lon="8.1010821"><ele>144.0</ele><time>2026-04-10T14:26:32.818Z</time></trkpt><trkpt lat="44.7501517" lon="8.1009794"><ele>144.0</ele><time>2026-04-10T14:26:34.816Z</time></trkpt><trkpt lat="44.7500721" lon="8.100857"><ele>144.0</ele><time>2026-04-10T14:26:36.818Z</time></trkpt><trkpt lat="44.7500274" lon="8.1007893"><ele>144.0</ele><time>2026-04-10T14:26:37.816Z</time></trkpt><trkpt lat="44.7499582" lon="8.1006561"><ele>144.83333333333334</ele><time>2026-04-10T14:26:39.818Z</time></trkpt><trkpt lat="44.7499211" lon="8.1005824"><ele>145.66666666666666</ele><time>2026-04-10T14:26:40.816Z</time></trkpt><trkpt lat="44.7498965" lon="8.1004128"><ele>146.5</ele><time>2026-04-10T14:26:42.818Z</time></trkpt><trkpt lat="44.7498924" lon="8.1003113"><ele>147.33333333333331</ele><time>2026-04-10T14:26:43.818Z</time></trkpt><trkpt lat="44.7498732" lon="8.1002266"><ele>148.16666666666666</ele><time>2026-04-10T14:26:44.817Z</time></trkpt><trkpt lat="44.7498448" lon="8.1001251"><ele>149.0</ele><time>2026-04-10T14:26:45.816Z</time></trkpt><trkpt lat="44.7497981" lon="8.1000469"><ele>149.0</ele><time>2026-04-10T14:26:46.816Z</time></trkpt><trkpt lat="44.7497549" lon="8.0999467"><ele>149.0</ele><time>2026-04-10T14:26:47.817Z</time></trkpt><trkpt lat="44.7497123" lon="8.0998547"><ele>149.0</ele><time>2026-04-10T14:26:48.818Z</time></trkpt><trkpt lat="44.7496659" lon="8.0997885"><ele>149.0</ele><time>2026-04-10T14:26:49.817Z</time></trkpt><trkpt lat="44.7496118" lon="8.0997296"><ele>149.0</ele><time>2026-04-10T14:26:50.818Z</time></trkpt><trkpt lat="44.7495543" lon="8.0996768"><ele>149.0</ele><time>2026-04-10T14:26:51.817Z</time></trkpt><trkpt lat="44.7494374" lon="8.0996376"><ele>149.16666666666666</ele><time>2026-04-10T14:26:53.818Z</time></trkpt><trkpt lat="44.7493782" lon="8.0996074"><ele>149.33333333333331</ele><time>2026-04-10T14:26:54.816Z</time></trkpt><trkpt lat="44.7493167" lon="8.0995674"><ele>149.5</ele><time>2026-04-10T14:26:55.818Z</time></trkpt><trkpt lat="44.7492251" lon="8.0994516"><ele>149.66666666666666</ele><time>2026-04-10T14:26:57.817Z</time></trkpt><trkpt lat="44.7491717" lon="8.0993864"><ele>149.83333333333334</ele><time>2026-04-10T14:26:58.818Z</time></trkpt><trkpt lat="44.7490823" lon="8.0992793"><ele>150.0</ele><time>2026-04-10T14:27:00.816Z</time></trkpt><trkpt lat="44.7490077" lon="8.099159"><ele>149.5</ele><time>2026-04-10T14:27:02.817Z</time></trkpt><trkpt lat="44.7489219" lon="8.0990437"><ele>149.0</ele><time>2026-04-10T14:27:04.817Z</time></trkpt><trkpt lat="44.7488255" lon="8.0989345"><ele>148.5</ele><time>2026-04-10T14:27:06.817Z</time></trkpt><trkpt lat="44.7487302" lon="8.0988229"><ele>148.0</ele><time>2026-04-10T14:27:08.817Z</time></trkpt><trkpt lat="44.7486293" lon="8.0987163"><ele>148.0</ele><time>2026-04-10T14:27:10.817Z</time></trkpt><trkpt lat="44.7485778" lon="8.0986648"><ele>148.0</ele><time>2026-04-10T14:27:11.818Z</time></trkpt><trkpt lat="44.7484753" lon="8.098564"><ele>148.0</ele><time>2026-04-10T14:27:13.817Z</time></trkpt><trkpt lat="44.7483758" lon="8.0984688"><ele>148.0</ele><time>2026-04-10T14:27:15.818Z</time></trkpt><trkpt lat="44.7482812" lon="8.0983573"><ele>148.0</ele><time>2026-04-10T14:27:17.817Z</time></trkpt><trkpt lat="44.7482339" lon="8.098297"><ele>148.0</ele><time>2026-04-10T14:27:18.819Z</time></trkpt><trkpt lat="44.748187" lon="8.0982367"><ele>148.0</ele><time>2026-04-10T14:27:19.817Z</time></trkpt><trkpt lat="44.7481372" lon="8.0981735"><ele>148.0</ele><time>2026-04-10T14:27:20.817Z</time></trkpt><trkpt lat="44.7480877" lon="8.0981137"><ele>148.0</ele><time>2026-04-10T14:27:21.817Z</time></trkpt><trkpt lat="44.7480357" lon="8.0980505"><ele>148.0</ele><time>2026-04-10T14:27:22.818Z</time></trkpt><trkpt lat="44.7479915" lon="8.0979871"><ele>148.0</ele><time>2026-04-10T14:27:23.816Z</time></trkpt><trkpt lat="44.7479373" lon="8.0979183"><ele>148.0</ele><time>2026-04-10T14:27:24.817Z</time></trkpt><trkpt lat="44.7478825" lon="8.0978513"><ele>148.0</ele><time>2026-04-10T14:27:25.818Z</time></trkpt><trkpt lat="44.747832" lon="8.0977942"><ele>148.0</ele><time>2026-04-10T14:27:26.818Z</time></trkpt><trkpt lat="44.7477403" lon="8.0976804"><ele>148.0</ele><time>2026-04-10T14:27:28.818Z</time></trkpt><trkpt lat="44.7476935" lon="8.0976203"><ele>148.0</ele><time>2026-04-10T14:27:29.818Z</time></trkpt><trkpt lat="44.7476408" lon="8.0975638"><ele>148.0</ele><time>2026-04-10T14:27:30.817Z</time></trkpt><trkpt lat="44.7475896" lon="8.0975057"><ele>148.0</ele><time>2026-04-10T14:27:31.817Z</time></trkpt><trkpt lat="44.7474775" lon="8.0974009"><ele>148.0</ele><time>2026-04-10T14:27:33.817Z</time></trkpt><trkpt lat="44.74743" lon="8.0973354"><ele>148.0</ele><time>2026-04-10T14:27:34.816Z</time></trkpt><trkpt lat="44.7473762" lon="8.0972819"><ele>148.0</ele><time>2026-04-10T14:27:35.817Z</time></trkpt><trkpt lat="44.7473262" lon="8.0972186"><ele>148.0</ele><time>2026-04-10T14:27:36.816Z</time></trkpt><trkpt lat="44.7472784" lon="8.0971596"><ele>148.0</ele><time>2026-04-10T14:27:37.817Z</time></trkpt><trkpt lat="44.747231" lon="8.097094"><ele>148.0</ele><time>2026-04-10T14:27:38.818Z</time></trkpt><trkpt lat="44.7471781" lon="8.0970374"><ele>148.0</ele><time>2026-04-10T14:27:39.818Z</time></trkpt><trkpt lat="44.7471277" lon="8.0969637"><ele>148.0</ele><time>2026-04-10T14:27:40.818Z</time></trkpt><trkpt lat="44.7470807" lon="8.0969042"><ele>148.0</ele><time>2026-04-10T14:27:41.817Z</time></trkpt><trkpt lat="44.7470234" lon="8.0968441"><ele>148.0</ele><time>2026-04-10T14:27:42.818Z</time></trkpt><trkpt lat="44.7469671" lon="8.0967906"><ele>148.0</ele><time>2026-04-10T14:27:43.819Z</time></trkpt><trkpt lat="44.7469153" lon="8.0967316"><ele>148.0</ele><time>2026-04-10T14:27:44.818Z</time></trkpt><trkpt lat="44.7468598" lon="8.0966756"><ele>148.0</ele><time>2026-04-10T14:27:45.817Z</time></trkpt><trkpt lat="44.7468047" lon="8.0966213"><ele>148.0</ele><time>2026-04-10T14:27:46.817Z</time></trkpt><trkpt lat="44.7467422" lon="8.0965632"><ele>148.16666666666669</ele><time>2026-04-10T14:27:47.817Z</time></trkpt><trkpt lat="44.7466928" lon="8.0965005"><ele>148.33333333333334</ele><time>2026-04-10T14:27:48.817Z</time></trkpt><trkpt lat="44.7466424" lon="8.0964304"><ele>148.5</ele><time>2026-04-10T14:27:49.816Z</time></trkpt><trkpt lat="44.7466024" lon="8.0963389"><ele>148.66666666666666</ele><time>2026-04-10T14:27:50.819Z</time></trkpt><trkpt lat="44.7465638" lon="8.0962655"><ele>148.83333333333331</ele><time>2026-04-10T14:27:51.818Z</time></trkpt><trkpt lat="44.7464957" lon="8.0961288"><ele>149.0</ele><time>2026-04-10T14:27:53.817Z</time></trkpt><trkpt lat="44.7464293" lon="8.0960944"><ele>149.0</ele><time>2026-04-10T14:27:54.817Z</time></trkpt><trkpt lat="44.7463644" lon="8.0960721"><ele>149.0</ele><time>2026-04-10T14:27:55.816Z</time></trkpt><trkpt lat="44.746295" lon="8.0960634"><ele>149.0</ele><time>2026-04-10T14:27:56.817Z</time></trkpt><trkpt lat="44.7462228" lon="8.0960655"><ele>149.0</ele><time>2026-04-10T14:27:57.817Z</time></trkpt><trkpt lat="44.7461549" lon="8.0960602"><ele>149.0</ele><time>2026-04-10T14:27:58.817Z</time></trkpt><trkpt lat="44.7460883" lon="8.0960636"><ele>149.0</ele><time>2026-04-10T14:27:59.816Z</time></trkpt><trkpt lat="44.7460141" lon="8.0960795"><ele>149.0</ele><time>2026-04-10T14:28:00.818Z</time></trkpt><trkpt lat="44.7459415" lon="8.0961002"><ele>149.0</ele><time>2026-04-10T14:28:01.816Z</time></trkpt><trkpt lat="44.7458709" lon="8.0961176"><ele>149.0</ele><time>2026-04-10T14:28:02.817Z</time></trkpt><trkpt lat="44.7458024" lon="8.0961272"><ele>149.0</ele><time>2026-04-10T14:28:03.817Z</time></trkpt><trkpt lat="44.7457356" lon="8.0961383"><ele>149.0</ele><time>2026-04-10T14:28:04.817Z</time></trkpt><trkpt lat="44.7456633" lon="8.096143"><ele>149.0</ele><time>2026-04-10T14:28:05.817Z</time></trkpt><trkpt lat="44.7455926" lon="8.096128"><ele>149.0</ele><time>2026-04-10T14:28:06.816Z</time></trkpt><trkpt lat="44.7455303" lon="8.0960992"><ele>149.0</ele><time>2026-04-10T14:28:07.817Z</time></trkpt><trkpt lat="44.7454754" lon="8.0960415"><ele>149.0</ele><time>2026-04-10T14:28:08.817Z</time></trkpt><trkpt lat="44.7454209" lon="8.0959832"><ele>149.0</ele><time>2026-04-10T14:28:09.818Z</time></trkpt><trkpt lat="44.7453682" lon="8.0959212"><ele>149.0</ele><time>2026-04-10T14:28:10.818Z</time></trkpt><trkpt lat="44.7453088" lon="8.0958613"><ele>149.0</ele><time>2026-04-10T14:28:11.817Z</time></trkpt><trkpt lat="44.7452442" lon="8.0958088"><ele>149.0</ele><time>2026-04-10T14:28:12.818Z</time></trkpt><trkpt lat="44.7451867" lon="8.095757"><ele>149.0</ele><time>2026-04-10T14:28:13.817Z</time></trkpt><trkpt lat="44.7451295" lon="8.0956995"><ele>149.0</ele><time>2026-04-10T14:28:14.818Z</time></trkpt><trkpt lat="44.7450759" lon="8.0956393"><ele>149.42857142857142</ele><time>2026-04-10T14:28:15.818Z</time></trkpt><trkpt lat="44.7450195" lon="8.0955852"><ele>149.85714285714283</ele><time>2026-04-10T14:28:16.817Z</time></trkpt><trkpt lat="44.7449602" lon="8.0955259"><ele>150.28571428571428</ele><time>2026-04-10T14:28:17.818Z</time></trkpt><trkpt lat="44.7449022" lon="8.0954749"><ele>150.71428571428572</ele><time>2026-04-10T14:28:18.817Z</time></trkpt><trkpt lat="44.7448526" lon="8.0954102"><ele>151.14285714285717</ele><time>2026-04-10T14:28:19.816Z</time></trkpt><trkpt lat="44.7447944" lon="8.0953599"><ele>151.57142857142856</ele><time>2026-04-10T14:28:20.816Z</time></trkpt><trkpt lat="44.7447358" lon="8.0952918"><ele>152.0</ele><time>2026-04-10T14:28:21.817Z</time></trkpt><trkpt lat="44.7446755" lon="8.0952441"><ele>152.0</ele><time>2026-04-10T14:28:22.817Z</time></trkpt><trkpt lat="44.7446145" lon="8.0951853"><ele>152.0</ele><time>2026-04-10T14:28:23.816Z</time></trkpt><trkpt lat="44.7445546" lon="8.0951335"><ele>152.0</ele><time>2026-04-10T14:28:24.816Z</time></trkpt><trkpt lat="44.7444934" lon="8.0950817"><ele>152.0</ele><time>2026-04-10T14:28:25.817Z</time></trkpt><trkpt lat="44.7444362" lon="8.0950213"><ele>152.0</ele><time>2026-04-10T14:28:26.816Z</time></trkpt><trkpt lat="44.7443734" lon="8.0949703"><ele>152.0</ele><time>2026-04-10T14:28:27.816Z</time></trkpt><trkpt lat="44.7443151" lon="8.0949241"><ele>152.0</ele><time>2026-04-10T14:28:28.817Z</time></trkpt><trkpt lat="44.7442611" lon="8.0948703"><ele>151.57142857142856</ele><time>2026-04-10T14:28:29.817Z</time></trkpt><trkpt lat="44.7441981" lon="8.0948128"><ele>151.14285714285717</ele><time>2026-04-10T14:28:30.818Z</time></trkpt><trkpt lat="44.7441369" lon="8.0947561"><ele>150.71428571428572</ele><time>2026-04-10T14:28:31.817Z</time></trkpt><trkpt lat="44.744072" lon="8.094701"><ele>150.28571428571428</ele><time>2026-04-10T14:28:32.817Z</time></trkpt><trkpt lat="44.7440117" lon="8.0946417"><ele>149.85714285714283</ele><time>2026-04-10T14:28:33.816Z</time></trkpt><trkpt lat="44.7439517" lon="8.0945851"><ele>149.42857142857142</ele><time>2026-04-10T14:28:34.819Z</time></trkpt><trkpt lat="44.7438978" lon="8.0945286"><ele>149.0</ele><time>2026-04-10T14:28:35.817Z</time></trkpt><trkpt lat="44.7438333" lon="8.0944657"><ele>149.0</ele><time>2026-04-10T14:28:36.817Z</time></trkpt><trkpt lat="44.7437713" lon="8.0944123"><ele>149.0</ele><time>2026-04-10T14:28:37.818Z</time></trkpt><trkpt lat="44.7437134" lon="8.0943453"><ele>149.0</ele><time>2026-04-10T14:28:38.816Z</time></trkpt><trkpt lat="44.743655" lon="8.0942877"><ele>149.0</ele><time>2026-04-10T14:28:39.817Z</time></trkpt><trkpt lat="44.743592" lon="8.0942389"><ele>149.0</ele><time>2026-04-10T14:28:40.818Z</time></trkpt><trkpt lat="44.7435315" lon="8.0941827"><ele>149.0</ele><time>2026-04-10T14:28:41.818Z</time></trkpt><trkpt lat="44.7434758" lon="8.0941204"><ele>149.0</ele><time>2026-04-10T14:28:42.818Z</time></trkpt><trkpt lat="44.7434172" lon="8.0940648"><ele>148.85714285714286</ele><time>2026-04-10T14:28:43.817Z</time></trkpt><trkpt lat="44.7433614" lon="8.0939888"><ele>148.7142857142857</ele><time>2026-04-10T14:28:44.816Z</time></trkpt><trkpt lat="44.7432994" lon="8.0939339"><ele>148.57142857142856</ele><time>2026-04-10T14:28:45.816Z</time></trkpt><trkpt lat="44.7432442" lon="8.0938754"><ele>148.42857142857142</ele><time>2026-04-10T14:28:46.817Z</time></trkpt><trkpt lat="44.7431796" lon="8.0938249"><ele>148.28571428571428</ele><time>2026-04-10T14:28:47.816Z</time></trkpt><trkpt lat="44.7431281" lon="8.0937696"><ele>148.14285714285714</ele><time>2026-04-10T14:28:48.817Z</time></trkpt><trkpt lat="44.7430711" lon="8.0937209"><ele>148.0</ele><time>2026-04-10T14:28:49.817Z</time></trkpt><trkpt lat="44.7430084" lon="8.093671"><ele>148.0</ele><time>2026-04-10T14:28:50.817Z</time></trkpt><trkpt lat="44.7429519" lon="8.0936112"><ele>148.0</ele><time>2026-04-10T14:28:51.818Z</time></trkpt><trkpt lat="44.7428938" lon="8.0935564"><ele>148.0</ele><time>2026-04-10T14:28:52.817Z</time></trkpt><trkpt lat="44.7428375" lon="8.0935005"><ele>148.0</ele><time>2026-04-10T14:28:53.816Z</time></trkpt><trkpt lat="44.7427774" lon="8.0934404"><ele>148.0</ele><time>2026-04-10T14:28:54.817Z</time></trkpt><trkpt lat="44.7427175" lon="8.0933875"><ele>148.0</ele><time>2026-04-10T14:28:55.816Z</time></trkpt><trkpt lat="44.7426592" lon="8.0933334"><ele>148.0</ele><time>2026-04-10T14:28:56.817Z</time></trkpt><trkpt lat="44.7425949" lon="8.0932749"><ele>149.0</ele><time>2026-04-10T14:28:57.817Z</time></trkpt><trkpt lat="44.7425364" lon="8.0932232"><ele>150.0</ele><time>2026-04-10T14:28:58.816Z</time></trkpt><trkpt lat="44.7424785" lon="8.0931683"><ele>151.0</ele><time>2026-04-10T14:28:59.816Z</time></trkpt><trkpt lat="44.7424209" lon="8.0931081"><ele>152.0</ele><time>2026-04-10T14:29:00.816Z</time></trkpt><trkpt lat="44.7423602" lon="8.0930579"><ele>153.0</ele><time>2026-04-10T14:29:01.818Z</time></trkpt><trkpt lat="44.742297" lon="8.0929959"><ele>154.0</ele><time>2026-04-10T14:29:02.816Z</time></trkpt><trkpt lat="44.742238" lon="8.0929356"><ele>155.0</ele><time>2026-04-10T14:29:03.817Z</time></trkpt><trkpt lat="44.7421768" lon="8.0928823"><ele>155.0</ele><time>2026-04-10T14:29:04.817Z</time></trkpt><trkpt lat="44.7421201" lon="8.0928265"><ele>155.0</ele><time>2026-04-10T14:29:05.816Z</time></trkpt><trkpt lat="44.7420589" lon="8.0927734"><ele>155.0</ele><time>2026-04-10T14:29:06.816Z</time></trkpt><trkpt lat="44.7419963" lon="8.0927153"><ele>155.0</ele><time>2026-04-10T14:29:07.816Z</time></trkpt><trkpt lat="44.7419406" lon="8.0926613"><ele>155.0</ele><time>2026-04-10T14:29:08.816Z</time></trkpt><trkpt lat="44.7418815" lon="8.0926109"><ele>155.0</ele><time>2026-04-10T14:29:09.816Z</time></trkpt><trkpt lat="44.7418203" lon="8.0925519"><ele>155.0</ele><time>2026-04-10T14:29:10.817Z</time></trkpt><trkpt lat="44.7417727" lon="8.0924906"><ele>154.85714285714286</ele><time>2026-04-10T14:29:11.816Z</time></trkpt><trkpt lat="44.7417101" lon="8.0924371"><ele>154.71428571428572</ele><time>2026-04-10T14:29:12.817Z</time></trkpt><trkpt lat="44.7416493" lon="8.0923794"><ele>154.57142857142856</ele><time>2026-04-10T14:29:13.816Z</time></trkpt><trkpt lat="44.7416024" lon="8.0923052"><ele>154.42857142857144</ele><time>2026-04-10T14:29:14.817Z</time></trkpt><trkpt lat="44.7415403" lon="8.0922567"><ele>154.28571428571428</ele><time>2026-04-10T14:29:15.816Z</time></trkpt><trkpt lat="44.7414783" lon="8.0922139"><ele>154.14285714285714</ele><time>2026-04-10T14:29:16.816Z</time></trkpt><trkpt lat="44.7414181" lon="8.0921586"><ele>154.0</ele><time>2026-04-10T14:29:17.816Z</time></trkpt><trkpt lat="44.7413563" lon="8.0921074"><ele>154.0</ele><time>2026-04-10T14:29:18.816Z</time></trkpt><trkpt lat="44.7412948" lon="8.0920523"><ele>154.0</ele><time>2026-04-10T14:29:19.818Z</time></trkpt><trkpt lat="44.7412374" lon="8.0920073"><ele>154.0</ele><time>2026-04-10T14:29:20.817Z</time></trkpt><trkpt lat="44.7411839" lon="8.0919591"><ele>154.0</ele><time>2026-04-10T14:29:21.816Z</time></trkpt><trkpt lat="44.7411222" lon="8.0919251"><ele>154.0</ele><time>2026-04-10T14:29:22.817Z</time></trkpt><trkpt lat="44.7410558" lon="8.0919129"><ele>154.0</ele><time>2026-04-10T14:29:23.816Z</time></trkpt><trkpt lat="44.7409386" lon="8.0919471"><ele>154.0</ele><time>2026-04-10T14:29:25.816Z</time></trkpt><trkpt lat="44.7408409" lon="8.0920082"><ele>154.0</ele><time>2026-04-10T14:29:27.817Z</time></trkpt><trkpt lat="44.7407406" lon="8.0920631"><ele>154.0</ele><time>2026-04-10T14:29:29.818Z</time></trkpt><trkpt lat="44.7406575" lon="8.0920982"><ele>154.0</ele><time>2026-04-10T14:29:31.816Z</time></trkpt><trkpt lat="44.7405931" lon="8.0921234"><ele>154.0</ele><time>2026-04-10T14:29:33.816Z</time></trkpt><trkpt lat="44.7405201" lon="8.0921716"><ele>154.0</ele><time>2026-04-10T14:29:36.817Z</time></trkpt><trkpt lat="44.7404537" lon="8.0922177"><ele>154.0</ele><time>2026-04-10T14:29:39.816Z</time></trkpt><trkpt lat="44.740396" lon="8.0922777"><ele>154.0</ele><time>2026-04-10T14:29:42.817Z</time></trkpt><trkpt lat="44.7403288" lon="8.092341"><ele>154.0</ele><time>2026-04-10T14:29:45.818Z</time></trkpt><trkpt lat="44.7402503" lon="8.0924046"><ele>154.0</ele><time>2026-04-10T14:29:48.817Z</time></trkpt><trkpt lat="44.7401729" lon="8.0924141"><ele>154.0</ele><time>2026-04-10T14:29:50.817Z</time></trkpt><trkpt lat="44.7400698" lon="8.0924274"><ele>154.0</ele><time>2026-04-10T14:29:52.816Z</time></trkpt><trkpt lat="44.7399725" lon="8.0924943"><ele>154.25</ele><time>2026-04-10T14:29:54.816Z</time></trkpt><trkpt lat="44.7398634" lon="8.0925658"><ele>154.5</ele><time>2026-04-10T14:29:56.816Z</time></trkpt><trkpt lat="44.7397572" lon="8.0926255"><ele>154.75</ele><time>2026-04-10T14:29:58.816Z</time></trkpt><trkpt lat="44.7396438" lon="8.0927046"><ele>155.0</ele><time>2026-04-10T14:30:00.817Z</time></trkpt><trkpt lat="44.7395335" lon="8.0927799"><ele>155.0</ele><time>2026-04-10T14:30:02.816Z</time></trkpt><trkpt lat="44.7394725" lon="8.0928182"><ele>155.0</ele><time>2026-04-10T14:30:03.817Z</time></trkpt><trkpt lat="44.7394126" lon="8.0928568"><ele>155.0</ele><time>2026-04-10T14:30:04.816Z</time></trkpt><trkpt lat="44.7392941" lon="8.0929394"><ele>155.0</ele><time>2026-04-10T14:30:06.817Z</time></trkpt><trkpt lat="44.7391875" lon="8.0930068"><ele>155.0</ele><time>2026-04-10T14:30:08.817Z</time></trkpt><trkpt lat="44.7390732" lon="8.0930787"><ele>155.5</ele><time>2026-04-10T14:30:10.815Z</time></trkpt><trkpt lat="44.7390042" lon="8.0931353"><ele>156.0</ele><time>2026-04-10T14:30:11.816Z</time></trkpt><trkpt lat="44.7389449" lon="8.0931732"><ele>156.5</ele><time>2026-04-10T14:30:12.817Z</time></trkpt><trkpt lat="44.7388842" lon="8.0932075"><ele>157.0</ele><time>2026-04-10T14:30:13.817Z</time></trkpt><trkpt lat="44.7388278" lon="8.0932533"><ele>157.5</ele><time>2026-04-10T14:30:14.817Z</time></trkpt><trkpt lat="44.7387082" lon="8.0933184"><ele>158.0</ele><time>2026-04-10T14:30:16.817Z</time></trkpt><trkpt lat="44.7386435" lon="8.093348"><ele>158.16666666666666</ele><time>2026-04-10T14:30:17.817Z</time></trkpt><trkpt lat="44.7385801" lon="8.0933902"><ele>158.33333333333331</ele><time>2026-04-10T14:30:18.817Z</time></trkpt><trkpt lat="44.7385147" lon="8.093436"><ele>158.5</ele><time>2026-04-10T14:30:19.817Z</time></trkpt><trkpt lat="44.7384492" lon="8.0934701"><ele>158.66666666666666</ele><time>2026-04-10T14:30:20.817Z</time></trkpt><trkpt lat="44.7383869" lon="8.0935079"><ele>158.83333333333334</ele><time>2026-04-10T14:30:21.816Z</time></trkpt><trkpt lat="44.7382678" lon="8.0935623"><ele>159.0</ele><time>2026-04-10T14:30:23.817Z</time></trkpt><trkpt lat="44.7382051" lon="8.0935914"><ele>159.4</ele><time>2026-04-10T14:30:24.817Z</time></trkpt><trkpt lat="44.7380879" lon="8.0936304"><ele>159.8</ele><time>2026-04-10T14:30:26.815Z</time></trkpt><trkpt lat="44.737966" lon="8.093662"><ele>160.20000000000002</ele><time>2026-04-10T14:30:28.815Z</time></trkpt><trkpt lat="44.7378463" lon="8.0937106"><ele>160.60000000000002</ele><time>2026-04-10T14:30:30.816Z</time></trkpt><trkpt lat="44.7377786" lon="8.093735"><ele>161.0</ele><time>2026-04-10T14:30:31.817Z</time></trkpt><trkpt lat="44.7376508" lon="8.093782"><ele>161.20000000000002</ele><time>2026-04-10T14:30:33.816Z</time></trkpt><trkpt lat="44.737584" lon="8.0938041"><ele>161.4</ele><time>2026-04-10T14:30:34.817Z</time></trkpt><trkpt lat="44.7374677" lon="8.0938508"><ele>161.6</ele><time>2026-04-10T14:30:36.816Z</time></trkpt><trkpt lat="44.7374015" lon="8.0938734"><ele>161.8</ele><time>2026-04-10T14:30:37.817Z</time></trkpt><trkpt lat="44.7372779" lon="8.0939109"><ele>162.0</ele><time>2026-04-10T14:30:39.816Z</time></trkpt><trkpt lat="44.7371541" lon="8.0939206"><ele>162.0</ele><time>2026-04-10T14:30:41.817Z</time></trkpt><trkpt lat="44.737091" lon="8.0939231"><ele>162.0</ele><time>2026-04-10T14:30:42.818Z</time></trkpt><trkpt lat="44.7370264" lon="8.0939303"><ele>162.0</ele><time>2026-04-10T14:30:43.817Z</time></trkpt><trkpt lat="44.7369627" lon="8.0939436"><ele>162.0</ele><time>2026-04-10T14:30:44.817Z</time></trkpt><trkpt lat="44.736894" lon="8.0939532"><ele>162.0</ele><time>2026-04-10T14:30:45.816Z</time></trkpt><trkpt lat="44.7368269" lon="8.0939539"><ele>162.0</ele><time>2026-04-10T14:30:46.818Z</time></trkpt><trkpt lat="44.7367565" lon="8.0939689"><ele>162.0</ele><time>2026-04-10T14:30:47.816Z</time></trkpt><trkpt lat="44.7366855" lon="8.0939766"><ele>162.66666666666666</ele><time>2026-04-10T14:30:48.817Z</time></trkpt><trkpt lat="44.7366176" lon="8.0939849"><ele>163.33333333333334</ele><time>2026-04-10T14:30:49.818Z</time></trkpt><trkpt lat="44.7364828" lon="8.0940099"><ele>164.0</ele><time>2026-04-10T14:30:51.816Z</time></trkpt><trkpt lat="44.7364163" lon="8.0940334"><ele>164.66666666666669</ele><time>2026-04-10T14:30:52.817Z</time></trkpt><trkpt lat="44.7363474" lon="8.0940466"><ele>165.33333333333334</ele><time>2026-04-10T14:30:53.816Z</time></trkpt><trkpt lat="44.7362823" lon="8.0940532"><ele>166.0</ele><time>2026-04-10T14:30:54.817Z</time></trkpt><trkpt lat="44.7362165" lon="8.0940653"><ele>166.0</ele><time>2026-04-10T14:30:55.817Z</time></trkpt><trkpt lat="44.7361515" lon="8.0940852"><ele>166.0</ele><time>2026-04-10T14:30:56.818Z</time></trkpt><trkpt lat="44.7360856" lon="8.0941037"><ele>166.0</ele><time>2026-04-10T14:30:57.816Z</time></trkpt><trkpt lat="44.7360145" lon="8.094131"><ele>166.0</ele><time>2026-04-10T14:30:58.817Z</time></trkpt><trkpt lat="44.7359485" lon="8.0941532"><ele>166.0</ele><time>2026-04-10T14:30:59.817Z</time></trkpt><trkpt lat="44.735884" lon="8.0941703"><ele>166.0</ele><time>2026-04-10T14:31:00.817Z</time></trkpt><trkpt lat="44.7358113" lon="8.0941976"><ele>166.0</ele><time>2026-04-10T14:31:01.816Z</time></trkpt><trkpt lat="44.7357395" lon="8.0942133"><ele>165.66666666666669</ele><time>2026-04-10T14:31:02.816Z</time></trkpt><trkpt lat="44.7356727" lon="8.0942304"><ele>165.33333333333334</ele><time>2026-04-10T14:31:03.815Z</time></trkpt><trkpt lat="44.7356003" lon="8.0942557"><ele>165.0</ele><time>2026-04-10T14:31:04.817Z</time></trkpt><trkpt lat="44.7355311" lon="8.0942827"><ele>164.66666666666666</ele><time>2026-04-10T14:31:05.816Z</time></trkpt><trkpt lat="44.7354629" lon="8.0942981"><ele>164.33333333333331</ele><time>2026-04-10T14:31:06.817Z</time></trkpt><trkpt lat="44.7353972" lon="8.0943165"><ele>164.0</ele><time>2026-04-10T14:31:07.816Z</time></trkpt><trkpt lat="44.7352628" lon="8.094319"><ele>163.7142857142857</ele><time>2026-04-10T14:31:09.816Z</time></trkpt><trkpt lat="44.7351915" lon="8.0943433"><ele>163.42857142857142</ele><time>2026-04-10T14:31:10.817Z</time></trkpt><trkpt lat="44.7351189" lon="8.0943776"><ele>163.14285714285714</ele><time>2026-04-10T14:31:11.817Z</time></trkpt><trkpt lat="44.7350399" lon="8.0944214"><ele>162.85714285714283</ele><time>2026-04-10T14:31:12.816Z</time></trkpt><trkpt lat="44.7349733" lon="8.0944422"><ele>162.57142857142856</ele><time>2026-04-10T14:31:13.817Z</time></trkpt><trkpt lat="44.7349004" lon="8.0944518"><ele>162.28571428571428</ele><time>2026-04-10T14:31:14.817Z</time></trkpt><trkpt lat="44.7348321" lon="8.0944702"><ele>162.0</ele><time>2026-04-10T14:31:15.817Z</time></trkpt><trkpt lat="44.7347577" lon="8.0944826"><ele>162.0</ele><time>2026-04-10T14:31:16.817Z</time></trkpt><trkpt lat="44.7346819" lon="8.0944803"><ele>162.0</ele><time>2026-04-10T14:31:17.818Z</time></trkpt><trkpt lat="44.734567" lon="8.0944758"><ele>162.0</ele><time>2026-04-10T14:31:19.817Z</time></trkpt><trkpt lat="44.7344944" lon="8.0944584"><ele>162.0</ele><time>2026-04-10T14:31:20.817Z</time></trkpt><trkpt lat="44.7343623" lon="8.094414"><ele>162.0</ele><time>2026-04-10T14:31:22.816Z</time></trkpt><trkpt lat="44.7342982" lon="8.0943955"><ele>162.0</ele><time>2026-04-10T14:31:23.816Z</time></trkpt><trkpt lat="44.7342338" lon="8.0943706"><ele>162.0</ele><time>2026-04-10T14:31:24.817Z</time></trkpt><trkpt lat="44.7341714" lon="8.0943368"><ele>162.0</ele><time>2026-04-10T14:31:25.817Z</time></trkpt><trkpt lat="44.7341063" lon="8.0943085"><ele>162.0</ele><time>2026-04-10T14:31:26.816Z</time></trkpt><trkpt lat="44.7340422" lon="8.0942846"><ele>162.0</ele><time>2026-04-10T14:31:27.818Z</time></trkpt><trkpt lat="44.7339726" lon="8.0942603"><ele>162.0</ele><time>2026-04-10T14:31:28.817Z</time></trkpt><trkpt lat="44.7339038" lon="8.0942316"><ele>162.0</ele><time>2026-04-10T14:31:29.816Z</time></trkpt><trkpt lat="44.7338343" lon="8.0942099"><ele>162.0</ele><time>2026-04-10T14:31:30.816Z</time></trkpt><trkpt lat="44.7337631" lon="8.0941833"><ele>162.0</ele><time>2026-04-10T14:31:31.816Z</time></trkpt><trkpt lat="44.7336868" lon="8.0941654"><ele>162.0</ele><time>2026-04-10T14:31:32.817Z</time></trkpt><trkpt lat="44.7336079" lon="8.0941431"><ele>162.0</ele><time>2026-04-10T14:31:33.817Z</time></trkpt><trkpt lat="44.7335386" lon="8.0941205"><ele>162.0</ele><time>2026-04-10T14:31:34.816Z</time></trkpt><trkpt lat="44.7334674" lon="8.0941008"><ele>162.0</ele><time>2026-04-10T14:31:35.817Z</time></trkpt><trkpt lat="44.7333973" lon="8.094084"><ele>162.0</ele><time>2026-04-10T14:31:36.817Z</time></trkpt><trkpt lat="44.7333237" lon="8.0940743"><ele>162.5</ele><time>2026-04-10T14:31:37.817Z</time></trkpt><trkpt lat="44.7332514" lon="8.0940583"><ele>163.0</ele><time>2026-04-10T14:31:38.817Z</time></trkpt><trkpt lat="44.733181" lon="8.094063"><ele>163.5</ele><time>2026-04-10T14:31:39.816Z</time></trkpt><trkpt lat="44.7331117" lon="8.0940666"><ele>164.0</ele><time>2026-04-10T14:31:40.818Z</time></trkpt><trkpt lat="44.7330372" lon="8.0940718"><ele>164.5</ele><time>2026-04-10T14:31:41.816Z</time></trkpt><trkpt lat="44.7328917" lon="8.0940834"><ele>165.0</ele><time>2026-04-10T14:31:43.817Z</time></trkpt><trkpt lat="44.7328216" lon="8.0940862"><ele>164.83333333333334</ele><time>2026-04-10T14:31:44.816Z</time></trkpt><trkpt lat="44.7327485" lon="8.0940941"><ele>164.66666666666666</ele><time>2026-04-10T14:31:45.816Z</time></trkpt><trkpt lat="44.7326748" lon="8.0940956"><ele>164.5</ele><time>2026-04-10T14:31:46.817Z</time></trkpt><trkpt lat="44.7326046" lon="8.0941011"><ele>164.33333333333331</ele><time>2026-04-10T14:31:47.815Z</time></trkpt><trkpt lat="44.7325303" lon="8.0941073"><ele>164.16666666666666</ele><time>2026-04-10T14:31:48.817Z</time></trkpt><trkpt lat="44.7324578" lon="8.0941201"><ele>164.0</ele><time>2026-04-10T14:31:49.816Z</time></trkpt><trkpt lat="44.7323273" lon="8.0941349"><ele>164.33333333333331</ele><time>2026-04-10T14:31:51.817Z</time></trkpt><trkpt lat="44.7321943" lon="8.0941439"><ele>164.66666666666666</ele><time>2026-04-10T14:31:53.816Z</time></trkpt><trkpt lat="44.7321271" lon="8.094151"><ele>165.0</ele><time>2026-04-10T14:31:54.816Z</time></trkpt><trkpt lat="44.7320537" lon="8.094151"><ele>165.33333333333334</ele><time>2026-04-10T14:31:55.816Z</time></trkpt><trkpt lat="44.7319875" lon="8.0941637"><ele>165.66666666666669</ele><time>2026-04-10T14:31:56.815Z</time></trkpt><trkpt lat="44.7319188" lon="8.0941769"><ele>166.0</ele><time>2026-04-10T14:31:57.818Z</time></trkpt><trkpt lat="44.7318514" lon="8.0941797"><ele>166.57142857142856</ele><time>2026-04-10T14:31:58.816Z</time></trkpt><trkpt lat="44.7317798" lon="8.0941844"><ele>167.14285714285717</ele><time>2026-04-10T14:31:59.815Z</time></trkpt><trkpt lat="44.7317091" lon="8.0941893"><ele>167.71428571428572</ele><time>2026-04-10T14:32:00.818Z</time></trkpt><trkpt lat="44.7316441" lon="8.0941968"><ele>168.28571428571428</ele><time>2026-04-10T14:32:01.817Z</time></trkpt><trkpt lat="44.7315784" lon="8.094204"><ele>168.85714285714283</ele><time>2026-04-10T14:32:02.816Z</time></trkpt><trkpt lat="44.7315123" lon="8.0942073"><ele>169.42857142857144</ele><time>2026-04-10T14:32:03.818Z</time></trkpt><trkpt lat="44.7314444" lon="8.0942212"><ele>170.0</ele><time>2026-04-10T14:32:04.816Z</time></trkpt><trkpt lat="44.7313312" lon="8.0942276"><ele>170.0</ele><time>2026-04-10T14:32:06.817Z</time></trkpt><trkpt lat="44.731219" lon="8.0942337"><ele>170.0</ele><time>2026-04-10T14:32:08.816Z</time></trkpt><trkpt lat="44.7311136" lon="8.0942448"><ele>170.0</ele><time>2026-04-10T14:32:10.816Z</time></trkpt><trkpt lat="44.7310151" lon="8.0942508"><ele>170.0</ele><time>2026-04-10T14:32:12.816Z</time></trkpt><trkpt lat="44.7309138" lon="8.0942533"><ele>170.0</ele><time>2026-04-10T14:32:14.816Z</time></trkpt><trkpt lat="44.7308046" lon="8.0942707"><ele>169.8</ele><time>2026-04-10T14:32:16.816Z</time></trkpt><trkpt lat="44.7306992" lon="8.0942738"><ele>169.6</ele><time>2026-04-10T14:32:18.815Z</time></trkpt><trkpt lat="44.7306087" lon="8.0942714"><ele>169.39999999999998</ele><time>2026-04-10T14:32:20.818Z</time></trkpt><trkpt lat="44.7305172" lon="8.0942785"><ele>169.2</ele><time>2026-04-10T14:32:22.817Z</time></trkpt><trkpt lat="44.7304403" lon="8.0942185"><ele>169.0</ele><time>2026-04-10T14:32:24.817Z</time></trkpt><trkpt lat="44.7304086" lon="8.0941146"><ele>169.57142857142858</ele><time>2026-04-10T14:32:26.816Z</time></trkpt><trkpt lat="44.7303977" lon="8.0939974"><ele>170.14285714285714</ele><time>2026-04-10T14:32:28.815Z</time></trkpt><trkpt lat="44.7304029" lon="8.0938856"><ele>170.71428571428572</ele><time>2026-04-10T14:32:31.816Z</time></trkpt><trkpt lat="44.7304051" lon="8.0937765"><ele>171.28571428571428</ele><time>2026-04-10T14:33:47.815Z</time></trkpt><trkpt lat="44.730418" lon="8.093685"><ele>171.85714285714286</ele><time>2026-04-10T14:33:52.816Z</time></trkpt><trkpt lat="44.7304218" lon="8.0935946"><ele>172.42857142857142</ele><time>2026-04-10T14:33:56.816Z</time></trkpt><trkpt lat="44.7304264" lon="8.0934996"><ele>173.0</ele><time>2026-04-10T14:33:59.816Z</time></trkpt><trkpt lat="44.7304277" lon="8.0933857"><ele>173.0</ele><time>2026-04-10T14:34:03.815Z</time></trkpt><trkpt lat="44.7304331" lon="8.0932959"><ele>173.0</ele><time>2026-04-10T14:34:06.816Z</time></trkpt><trkpt lat="44.7304458" lon="8.0931792"><ele>173.0</ele><time>2026-04-10T14:34:09.818Z</time></trkpt><trkpt lat="44.7304755" lon="8.0930709"><ele>173.0</ele><time>2026-04-10T14:34:12.816Z</time></trkpt><trkpt lat="44.7305276" lon="8.0929793"><ele>173.0</ele><time>2026-04-10T14:34:15.817Z</time></trkpt><trkpt lat="44.7305956" lon="8.0929301"><ele>173.0</ele><time>2026-04-10T14:34:18.816Z</time></trkpt><trkpt lat="44.7306655" lon="8.0929013"><ele>173.5</ele><time>2026-04-10T14:34:21.816Z</time></trkpt><trkpt lat="44.7307465" lon="8.0928894"><ele>174.0</ele><time>2026-04-10T14:34:25.817Z</time></trkpt><trkpt lat="44.7308328" lon="8.092876"><ele>174.5</ele><time>2026-04-10T14:34:29.815Z</time></trkpt><trkpt lat="44.7308994" lon="8.0928566"><ele>175.0</ele><time>2026-04-10T14:34:32.816Z</time></trkpt><trkpt lat="44.7309657" lon="8.0928342"><ele>175.5</ele><time>2026-04-10T14:34:35.816Z</time></trkpt><trkpt lat="44.7310395" lon="8.0927775"><ele>176.0</ele><time>2026-04-10T14:34:38.816Z</time></trkpt><trkpt lat="44.7311081" lon="8.0927221"><ele>176.0</ele><time>2026-04-10T14:34:41.817Z</time></trkpt><trkpt lat="44.7311774" lon="8.0926721"><ele>176.0</ele><time>2026-04-10T14:34:44.817Z</time></trkpt><trkpt lat="44.7312399" lon="8.092605"><ele>176.0</ele><time>2026-04-10T14:34:47.816Z</time></trkpt><trkpt lat="44.7312825" lon="8.0925392"><ele>176.0</ele><time>2026-04-10T14:34:49.815Z</time></trkpt><trkpt lat="44.7313434" lon="8.0924669"><ele>176.0</ele><time>2026-04-10T14:34:52.815Z</time></trkpt><trkpt lat="44.7314139" lon="8.0923868"><ele>176.0</ele><time>2026-04-10T14:34:55.816Z</time></trkpt><trkpt lat="44.7314788" lon="8.0923037"><ele>178.0</ele><time>2026-04-10T14:34:58.817Z</time></trkpt><trkpt lat="44.7315261" lon="8.0922425"><ele>180.0</ele><time>2026-04-10T14:35:00.817Z</time></trkpt><trkpt lat="44.7315747" lon="8.0921837"><ele>182.0</ele><time>2026-04-10T14:35:02.816Z</time></trkpt><trkpt lat="44.7316302" lon="8.0921311"><ele>184.0</ele><time>2026-04-10T14:35:04.816Z</time></trkpt><trkpt lat="44.7316825" lon="8.0920767"><ele>186.0</ele><time>2026-04-10T14:35:06.817Z</time></trkpt><trkpt lat="44.7317335" lon="8.0920189"><ele>188.0</ele><time>2026-04-10T14:35:08.815Z</time></trkpt><trkpt lat="44.731788" lon="8.0919592"><ele>190.0</ele><time>2026-04-10T14:35:10.816Z</time></trkpt><trkpt lat="44.7318479" lon="8.0919127"><ele>190.5</ele><time>2026-04-10T14:35:12.817Z</time></trkpt><trkpt lat="44.7319523" lon="8.0918579"><ele>191.0</ele><time>2026-04-10T14:35:16.815Z</time></trkpt><trkpt lat="44.7320226" lon="8.0918308"><ele>191.5</ele><time>2026-04-10T14:35:19.817Z</time></trkpt><trkpt lat="44.7320974" lon="8.0918121"><ele>192.0</ele><time>2026-04-10T14:35:22.818Z</time></trkpt><trkpt lat="44.7321689" lon="8.0917886"><ele>192.49999999999997</ele><time>2026-04-10T14:35:25.815Z</time></trkpt><trkpt lat="44.7322398" lon="8.091773"><ele>193.0</ele><time>2026-04-10T14:35:28.815Z</time></trkpt><trkpt lat="44.7323049" lon="8.0917591"><ele>193.00000000000003</ele><time>2026-04-10T14:35:31.815Z</time></trkpt><trkpt lat="44.7323699" lon="8.0917431"><ele>193.0</ele><time>2026-04-10T14:35:34.817Z</time></trkpt><trkpt lat="44.7324501" lon="8.0917156"><ele>193.0</ele><time>2026-04-10T14:35:38.817Z</time></trkpt><trkpt lat="44.7325075" lon="8.0916787"><ele>193.0</ele><time>2026-04-10T14:35:41.816Z</time></trkpt><trkpt lat="44.7325594" lon="8.0916219"><ele>193.0</ele><time>2026-04-10T14:35:44.815Z</time></trkpt><trkpt lat="44.7326057" lon="8.0915549"><ele>193.00000000000003</ele><time>2026-04-10T14:35:47.817Z</time></trkpt><trkpt lat="44.73265" lon="8.0914867"><ele>193.0</ele><time>2026-04-10T14:35:50.816Z</time></trkpt><trkpt lat="44.7326952" lon="8.0914206"><ele>193.2857142857143</ele><time>2026-04-10T14:35:53.815Z</time></trkpt><trkpt lat="44.7327324" lon="8.0913487"><ele>193.57142857142858</ele><time>2026-04-10T14:35:56.816Z</time></trkpt><trkpt lat="44.7327757" lon="8.091274"><ele>193.85714285714286</ele><time>2026-04-10T14:35:59.816Z</time></trkpt><trkpt lat="44.7328183" lon="8.0911974"><ele>194.14285714285717</ele><time>2026-04-10T14:36:02.816Z</time></trkpt><trkpt lat="44.7328594" lon="8.0911222"><ele>194.42857142857142</ele><time>2026-04-10T14:36:05.815Z</time></trkpt><trkpt lat="44.7329111" lon="8.0910511"><ele>194.71428571428572</ele><time>2026-04-10T14:36:08.816Z</time></trkpt><trkpt lat="44.7329639" lon="8.090988"><ele>195.0</ele><time>2026-04-10T14:36:11.816Z</time></trkpt><trkpt lat="44.7330247" lon="8.0909257"><ele>195.0</ele><time>2026-04-10T14:36:14.817Z</time></trkpt><trkpt lat="44.7330765" lon="8.090856"><ele>195.0</ele><time>2026-04-10T14:36:17.816Z</time></trkpt><trkpt lat="44.7331316" lon="8.0907781"><ele>195.0</ele><time>2026-04-10T14:36:20.816Z</time></trkpt><trkpt lat="44.7331906" lon="8.0907129"><ele>195.0</ele><time>2026-04-10T14:36:23.816Z</time></trkpt><trkpt lat="44.733246" lon="8.0906416"><ele>195.0</ele><time>2026-04-10T14:36:26.816Z</time></trkpt><trkpt lat="44.7333039" lon="8.0905777"><ele>195.0</ele><time>2026-04-10T14:36:29.817Z</time></trkpt><trkpt lat="44.7333622" lon="8.090504"><ele>197.66666666666666</ele><time>2026-04-10T14:36:32.816Z</time></trkpt><trkpt lat="44.7334235" lon="8.0904382"><ele>200.33333333333331</ele><time>2026-04-10T14:36:35.817Z</time></trkpt><trkpt lat="44.7334847" lon="8.0903659"><ele>203.0</ele><time>2026-04-10T14:36:38.816Z</time></trkpt><trkpt lat="44.7335523" lon="8.0902936"><ele>205.66666666666666</ele><time>2026-04-10T14:36:41.816Z</time></trkpt><trkpt lat="44.7336187" lon="8.0902178"><ele>208.33333333333331</ele><time>2026-04-10T14:36:44.816Z</time></trkpt><trkpt lat="44.7336889" lon="8.0901422"><ele>211.0</ele><time>2026-04-10T14:36:47.816Z</time></trkpt><trkpt lat="44.7337581" lon="8.090066"><ele>210.99999999999997</ele><time>2026-04-10T14:36:50.817Z</time></trkpt><trkpt lat="44.7338269" lon="8.0899904"><ele>211.0</ele><time>2026-04-10T14:36:53.816Z</time></trkpt><trkpt lat="44.7338992" lon="8.0899322"><ele>211.0</ele><time>2026-04-10T14:36:56.817Z</time></trkpt><trkpt lat="44.7339749" lon="8.0898986"><ele>211.0</ele><time>2026-04-10T14:36:59.817Z</time></trkpt><trkpt lat="44.7340412" lon="8.0898762"><ele>210.99999999999997</ele><time>2026-04-10T14:37:02.816Z</time></trkpt><trkpt lat="44.7341113" lon="8.0898934"><ele>211.0</ele><time>2026-04-10T14:37:05.816Z</time></trkpt><trkpt lat="44.7341688" lon="8.0899316"><ele>211.0</ele><time>2026-04-10T14:37:08.816Z</time></trkpt><trkpt lat="44.7342359" lon="8.089965"><ele>211.0</ele><time>2026-04-10T14:37:11.818Z</time></trkpt><trkpt lat="44.734307" lon="8.0900009"><ele>211.0</ele><time>2026-04-10T14:37:14.817Z</time></trkpt><trkpt lat="44.7343741" lon="8.0900427"><ele>211.0</ele><time>2026-04-10T14:37:17.817Z</time></trkpt><trkpt lat="44.734444" lon="8.0900824"><ele>211.0</ele><time>2026-04-10T14:37:20.817Z</time></trkpt><trkpt lat="44.7345159" lon="8.0901184"><ele>211.0</ele><time>2026-04-10T14:37:23.816Z</time></trkpt><trkpt lat="44.7345881" lon="8.0901523"><ele>211.0</ele><time>2026-04-10T14:37:26.816Z</time></trkpt><trkpt lat="44.7346588" lon="8.0901773"><ele>211.49999999999997</ele><time>2026-04-10T14:37:29.815Z</time></trkpt><trkpt lat="44.7347289" lon="8.0901696"><ele>212.0</ele><time>2026-04-10T14:37:32.815Z</time></trkpt><trkpt lat="44.7348067" lon="8.0901516"><ele>212.5</ele><time>2026-04-10T14:37:35.817Z</time></trkpt><trkpt lat="44.7348817" lon="8.0901065"><ele>213.0</ele><time>2026-04-10T14:37:38.817Z</time></trkpt><trkpt lat="44.7349446" lon="8.0900321"><ele>213.49999999999997</ele><time>2026-04-10T14:37:41.815Z</time></trkpt><trkpt lat="44.7349956" lon="8.0899301"><ele>214.0</ele><time>2026-04-10T14:37:44.815Z</time></trkpt><trkpt lat="44.7350488" lon="8.0898238"><ele>215.16666666666666</ele><time>2026-04-10T14:37:47.816Z</time></trkpt><trkpt lat="44.7350988" lon="8.0897139"><ele>216.33333333333331</ele><time>2026-04-10T14:37:50.815Z</time></trkpt><trkpt lat="44.7351384" lon="8.0896442"><ele>217.5</ele><time>2026-04-10T14:37:52.816Z</time></trkpt><trkpt lat="44.735202" lon="8.0895479"><ele>218.66666666666669</ele><time>2026-04-10T14:37:55.816Z</time></trkpt><trkpt lat="44.7352512" lon="8.089489"><ele>219.83333333333334</ele><time>2026-04-10T14:37:57.815Z</time></trkpt><trkpt lat="44.7353247" lon="8.089409"><ele>221.0</ele><time>2026-04-10T14:38:00.815Z</time></trkpt><trkpt lat="44.7354051" lon="8.0893545"><ele>221.00000000000003</ele><time>2026-04-10T14:38:03.815Z</time></trkpt><trkpt lat="44.7354907" lon="8.0892983"><ele>221.0</ele><time>2026-04-10T14:38:06.816Z</time></trkpt><trkpt lat="44.7355491" lon="8.0892613"><ele>221.0</ele><time>2026-04-10T14:38:08.815Z</time></trkpt><trkpt lat="44.7356347" lon="8.0892096"><ele>221.0</ele><time>2026-04-10T14:38:11.815Z</time></trkpt><trkpt lat="44.7356939" lon="8.0891773"><ele>221.00000000000003</ele><time>2026-04-10T14:38:13.816Z</time></trkpt><trkpt lat="44.735781" lon="8.089124"><ele>221.0</ele><time>2026-04-10T14:38:16.816Z</time></trkpt><trkpt lat="44.7358404" lon="8.0890804"><ele>220.71428571428572</ele><time>2026-04-10T14:38:18.816Z</time></trkpt><trkpt lat="44.7358985" lon="8.0890431"><ele>220.42857142857144</ele><time>2026-04-10T14:38:20.816Z</time></trkpt><trkpt lat="44.7359558" lon="8.0889965"><ele>220.14285714285717</ele><time>2026-04-10T14:38:22.816Z</time></trkpt><trkpt lat="44.7360049" lon="8.0889319"><ele>219.85714285714286</ele><time>2026-04-10T14:38:24.815Z</time></trkpt><trkpt lat="44.73604" lon="8.0888543"><ele>219.57142857142856</ele><time>2026-04-10T14:38:26.815Z</time></trkpt><trkpt lat="44.7360553" lon="8.0887632"><ele>219.2857142857143</ele><time>2026-04-10T14:38:28.815Z</time></trkpt><trkpt lat="44.7360334" lon="8.0886355"><ele>219.0</ele><time>2026-04-10T14:38:31.815Z</time></trkpt><trkpt lat="44.7360049" lon="8.0885514"><ele>220.83333333333334</ele><time>2026-04-10T14:38:33.817Z</time></trkpt><trkpt lat="44.7359655" lon="8.0884467"><ele>222.66666666666669</ele><time>2026-04-10T14:38:36.816Z</time></trkpt><trkpt lat="44.7359551" lon="8.0883163"><ele>224.5</ele><time>2026-04-10T14:38:39.816Z</time></trkpt><trkpt lat="44.7359438" lon="8.0882252"><ele>226.33333333333334</ele><time>2026-04-10T14:38:41.814Z</time></trkpt><trkpt lat="44.7358924" lon="8.0881336"><ele>228.16666666666669</ele><time>2026-04-10T14:38:44.816Z</time></trkpt><trkpt lat="44.7358417" lon="8.0880625"><ele>230.0</ele><time>2026-04-10T14:38:47.816Z</time></trkpt><trkpt lat="44.7357961" lon="8.0879947"><ele>229.99999999999997</ele><time>2026-04-10T14:38:50.816Z</time></trkpt><trkpt lat="44.7357409" lon="8.0879409"><ele>230.0</ele><time>2026-04-10T14:38:53.816Z</time></trkpt><trkpt lat="44.7356866" lon="8.0878907"><ele>229.99999999999997</ele><time>2026-04-10T14:38:56.815Z</time></trkpt><trkpt lat="44.7356279" lon="8.0878474"><ele>229.99999999999997</ele><time>2026-04-10T14:38:59.816Z</time></trkpt><trkpt lat="44.7355528" lon="8.087803"><ele>230.0</ele><time>2026-04-10T14:39:03.815Z</time></trkpt><trkpt lat="44.7354735" lon="8.0877946"><ele>229.99999999999997</ele><time>2026-04-10T14:39:08.816Z</time></trkpt><trkpt lat="44.7353978" lon="8.0877881"><ele>229.99999999999997</ele><time>2026-04-10T14:39:12.816Z</time></trkpt><trkpt lat="44.7353241" lon="8.0877675"><ele>229.99999999999997</ele><time>2026-04-10T14:39:16.817Z</time></trkpt><trkpt lat="44.7352577" lon="8.0877312"><ele>230.0</ele><time>2026-04-10T14:39:20.816Z</time></trkpt><trkpt lat="44.7351956" lon="8.0877006"><ele>229.99999999999997</ele><time>2026-04-10T14:39:24.815Z</time></trkpt><trkpt lat="44.7351355" lon="8.0876733"><ele>229.99999999999997</ele><time>2026-04-10T14:39:28.815Z</time></trkpt><trkpt lat="44.7350756" lon="8.0876426"><ele>230.0</ele><time>2026-04-10T14:39:32.814Z</time></trkpt><trkpt lat="44.7350126" lon="8.0876097"><ele>229.99999999999997</ele><time>2026-04-10T14:39:36.815Z</time></trkpt><trkpt lat="44.7349487" lon="8.0875731"><ele>229.99999999999997</ele><time>2026-04-10T14:39:40.815Z</time></trkpt><trkpt lat="44.7348831" lon="8.087536"><ele>231.57142857142856</ele><time>2026-04-10T14:39:44.815Z</time></trkpt><trkpt lat="44.73482" lon="8.0874878"><ele>233.14285714285714</ele><time>2026-04-10T14:39:48.815Z</time></trkpt><trkpt lat="44.7347611" lon="8.0874339"><ele>234.71428571428572</ele><time>2026-04-10T14:39:52.814Z</time></trkpt><trkpt lat="44.7347075" lon="8.0873788"><ele>236.28571428571428</ele><time>2026-04-10T14:39:56.815Z</time></trkpt><trkpt lat="44.7346541" lon="8.0873048"><ele>237.8571428571429</ele><time>2026-04-10T14:40:00.815Z</time></trkpt><trkpt lat="44.7345964" lon="8.08724"><ele>239.42857142857144</ele><time>2026-04-10T14:40:04.816Z</time></trkpt><trkpt lat="44.7345336" lon="8.0871772"><ele>241.0</ele><time>2026-04-10T14:40:08.815Z</time></trkpt><trkpt lat="44.7344807" lon="8.0871101"><ele>241.0</ele><time>2026-04-10T14:40:12.816Z</time></trkpt><trkpt lat="44.7344207" lon="8.0870466"><ele>241.00000000000003</ele><time>2026-04-10T14:40:16.815Z</time></trkpt><trkpt lat="44.7343658" lon="8.0869736"><ele>241.0</ele><time>2026-04-10T14:40:20.815Z</time></trkpt><trkpt lat="44.7342984" lon="8.0869137"><ele>241.0</ele><time>2026-04-10T14:40:24.814Z</time></trkpt><trkpt lat="44.7342477" lon="8.0868527"><ele>241.00000000000003</ele><time>2026-04-10T14:40:27.815Z</time></trkpt><trkpt lat="44.7341779" lon="8.0867976"><ele>241.0</ele><time>2026-04-10T14:40:31.815Z</time></trkpt><trkpt lat="44.7341193" lon="8.0867627"><ele>241.0</ele><time>2026-04-10T14:40:34.816Z</time></trkpt><trkpt lat="44.7340595" lon="8.0867342"><ele>241.99999999999997</ele><time>2026-04-10T14:40:37.814Z</time></trkpt><trkpt lat="44.7339815" lon="8.0867008"><ele>243.0</ele><time>2026-04-10T14:40:41.815Z</time></trkpt><trkpt lat="44.7339046" lon="8.0866729"><ele>244.0</ele><time>2026-04-10T14:40:45.816Z</time></trkpt><trkpt lat="44.7338431" lon="8.0866512"><ele>245.0</ele><time>2026-04-10T14:40:48.815Z</time></trkpt><trkpt lat="44.7337638" lon="8.086624"><ele>245.99999999999997</ele><time>2026-04-10T14:40:52.815Z</time></trkpt><trkpt lat="44.7336825" lon="8.0866006"><ele>247.0</ele><time>2026-04-10T14:40:56.816Z</time></trkpt><trkpt lat="44.7336178" lon="8.0865705"><ele>246.99999999999997</ele><time>2026-04-10T14:41:00.814Z</time></trkpt><trkpt lat="44.733564" lon="8.0865231"><ele>247.0</ele><time>2026-04-10T14:41:10.815Z</time></trkpt><trkpt lat="44.7334907" lon="8.0865095"><ele>247.0</ele><time>2026-04-10T14:41:15.816Z</time></trkpt><trkpt lat="44.7334109" lon="8.0865109"><ele>247.0</ele><time>2026-04-10T14:41:19.814Z</time></trkpt><trkpt lat="44.7333411" lon="8.0864729"><ele>246.99999999999997</ele><time>2026-04-10T14:41:22.815Z</time></trkpt><trkpt lat="44.7332681" lon="8.0864286"><ele>247.0</ele><time>2026-04-10T14:41:25.815Z</time></trkpt><trkpt lat="44.7331828" lon="8.0864031"><ele>249.2</ele><time>2026-04-10T14:41:28.815Z</time></trkpt><trkpt lat="44.7330958" lon="8.0863747"><ele>251.39999999999998</ele><time>2026-04-10T14:41:31.815Z</time></trkpt><trkpt lat="44.733007" lon="8.086348"><ele>253.60000000000002</ele><time>2026-04-10T14:41:34.815Z</time></trkpt><trkpt lat="44.732916" lon="8.0863232"><ele>255.8</ele><time>2026-04-10T14:41:37.815Z</time></trkpt><trkpt lat="44.7328278" lon="8.0862979"><ele>258.0</ele><time>2026-04-10T14:41:40.815Z</time></trkpt><trkpt lat="44.7327365" lon="8.0862851"><ele>259.5</ele><time>2026-04-10T14:41:43.814Z</time></trkpt><trkpt lat="44.7326734" lon="8.0862858"><ele>261.0</ele><time>2026-04-10T14:41:45.816Z</time></trkpt><trkpt lat="44.7325812" lon="8.0862794"><ele>262.5</ele><time>2026-04-10T14:41:48.815Z</time></trkpt><trkpt lat="44.7324895" lon="8.0862804"><ele>264.0</ele><time>2026-04-10T14:41:51.815Z</time></trkpt><trkpt lat="44.7324019" lon="8.0862859"><ele>265.5</ele><time>2026-04-10T14:41:54.815Z</time></trkpt><trkpt lat="44.732317" lon="8.0863022"><ele>267.0</ele><time>2026-04-10T14:41:57.816Z</time></trkpt><trkpt lat="44.7322349" lon="8.0863069"><ele>267.0</ele><time>2026-04-10T14:42:00.814Z</time></trkpt><trkpt lat="44.7321475" lon="8.086274"><ele>267.0</ele><time>2026-04-10T14:42:03.815Z</time></trkpt><trkpt lat="44.7320568" lon="8.0862557"><ele>267.0</ele><time>2026-04-10T14:42:06.815Z</time></trkpt><trkpt lat="44.7319939" lon="8.0862496"><ele>267.0</ele><time>2026-04-10T14:42:08.816Z</time></trkpt><trkpt lat="44.7319272" lon="8.0862555"><ele>267.0</ele><time>2026-04-10T14:42:10.815Z</time></trkpt><trkpt lat="44.731834" lon="8.086256"><ele>267.0</ele><time>2026-04-10T14:42:13.815Z</time></trkpt><trkpt lat="44.7317406" lon="8.0862714"><ele>267.14285714285717</ele><time>2026-04-10T14:42:16.814Z</time></trkpt><trkpt lat="44.7316792" lon="8.0862918"><ele>267.2857142857143</ele><time>2026-04-10T14:42:18.814Z</time></trkpt><trkpt lat="44.7316172" lon="8.0863145"><ele>267.42857142857144</ele><time>2026-04-10T14:42:20.815Z</time></trkpt><trkpt lat="44.7315534" lon="8.0863348"><ele>267.57142857142856</ele><time>2026-04-10T14:42:22.815Z</time></trkpt><trkpt lat="44.7314919" lon="8.0863613"><ele>267.7142857142857</ele><time>2026-04-10T14:42:24.815Z</time></trkpt><trkpt lat="44.7314189" lon="8.0864017"><ele>267.8571428571429</ele><time>2026-04-10T14:42:27.817Z</time></trkpt><trkpt lat="44.7313388" lon="8.0864361"><ele>268.0</ele><time>2026-04-10T14:42:30.816Z</time></trkpt><trkpt lat="44.7312584" lon="8.0864672"><ele>268.0</ele><time>2026-04-10T14:42:32.815Z</time></trkpt><trkpt lat="44.7311555" lon="8.0865057"><ele>268.0</ele><time>2026-04-10T14:42:34.815Z</time></trkpt><trkpt lat="44.7310473" lon="8.0865323"><ele>268.0</ele><time>2026-04-10T14:42:36.815Z</time></trkpt><trkpt lat="44.7309312" lon="8.0865608"><ele>268.0</ele><time>2026-04-10T14:42:38.815Z</time></trkpt><trkpt lat="44.7308599" lon="8.0865866"><ele>268.0</ele><time>2026-04-10T14:42:39.814Z</time></trkpt><trkpt lat="44.7307824" lon="8.0866106"><ele>269.16666666666663</ele><time>2026-04-10T14:42:40.815Z</time></trkpt><trkpt lat="44.7307184" lon="8.0866166"><ele>270.3333333333333</ele><time>2026-04-10T14:42:41.815Z</time></trkpt><trkpt lat="44.7306451" lon="8.0866243"><ele>271.5</ele><time>2026-04-10T14:42:42.815Z</time></trkpt><trkpt lat="44.7305684" lon="8.0866245"><ele>272.6666666666667</ele><time>2026-04-10T14:42:43.815Z</time></trkpt><trkpt lat="44.7304825" lon="8.0866381"><ele>273.83333333333337</ele><time>2026-04-10T14:42:44.815Z</time></trkpt><trkpt lat="44.7304036" lon="8.0866429"><ele>275.0</ele><time>2026-04-10T14:42:45.815Z</time></trkpt><trkpt lat="44.7303286" lon="8.0866323"><ele>275.0</ele><time>2026-04-10T14:42:46.816Z</time></trkpt><trkpt lat="44.7302464" lon="8.0866172"><ele>275.0</ele><time>2026-04-10T14:42:47.815Z</time></trkpt><trkpt lat="44.730165" lon="8.086599"><ele>275.0</ele><time>2026-04-10T14:42:48.815Z</time></trkpt><trkpt lat="44.7300901" lon="8.0865831"><ele>275.0</ele><time>2026-04-10T14:42:49.816Z</time></trkpt><trkpt lat="44.7300023" lon="8.0865698"><ele>275.0</ele><time>2026-04-10T14:42:50.816Z</time></trkpt><trkpt lat="44.7299144" lon="8.0865536"><ele>275.0</ele><time>2026-04-10T14:42:51.814Z</time></trkpt><trkpt lat="44.729823" lon="8.0865478"><ele>272.0</ele><time>2026-04-10T14:42:52.815Z</time></trkpt><trkpt lat="44.7297321" lon="8.0865404"><ele>269.0</ele><time>2026-04-10T14:42:53.816Z</time></trkpt><trkpt lat="44.7296336" lon="8.0865363"><ele>266.0</ele><time>2026-04-10T14:42:54.816Z</time></trkpt><trkpt lat="44.7295334" lon="8.0865318"><ele>263.0</ele><time>2026-04-10T14:42:55.816Z</time></trkpt><trkpt lat="44.7294266" lon="8.0865257"><ele>260.0</ele><time>2026-04-10T14:42:56.814Z</time></trkpt><trkpt lat="44.7293262" lon="8.0865153"><ele>258.4</ele><time>2026-04-10T14:42:57.816Z</time></trkpt><trkpt lat="44.7292201" lon="8.0865043"><ele>256.8</ele><time>2026-04-10T14:42:58.815Z</time></trkpt><trkpt lat="44.7291135" lon="8.0864867"><ele>255.2</ele><time>2026-04-10T14:42:59.815Z</time></trkpt><trkpt lat="44.7290049" lon="8.0864595"><ele>253.6</ele><time>2026-04-10T14:43:00.816Z</time></trkpt><trkpt lat="44.7288975" lon="8.0864217"><ele>252.0</ele><time>2026-04-10T14:43:01.817Z</time></trkpt><trkpt lat="44.7287913" lon="8.0863744"><ele>252.0</ele><time>2026-04-10T14:43:02.814Z</time></trkpt><trkpt lat="44.7286885" lon="8.0863198"><ele>252.0</ele><time>2026-04-10T14:43:03.815Z</time></trkpt><trkpt lat="44.7285921" lon="8.0862581"><ele>252.0</ele><time>2026-04-10T14:43:04.815Z</time></trkpt><trkpt lat="44.7285006" lon="8.0861945"><ele>252.0</ele><time>2026-04-10T14:43:05.815Z</time></trkpt><trkpt lat="44.7284126" lon="8.0861211"><ele>252.0</ele><time>2026-04-10T14:43:06.815Z</time></trkpt><trkpt lat="44.7283304" lon="8.0860562"><ele>251.2</ele><time>2026-04-10T14:43:07.816Z</time></trkpt><trkpt lat="44.7282409" lon="8.0859789"><ele>250.39999999999998</ele><time>2026-04-10T14:43:08.814Z</time></trkpt><trkpt lat="44.7281627" lon="8.0859147"><ele>249.60000000000002</ele><time>2026-04-10T14:43:09.815Z</time></trkpt><trkpt lat="44.7280798" lon="8.0858542"><ele>248.8</ele><time>2026-04-10T14:43:10.814Z</time></trkpt><trkpt lat="44.7280029" lon="8.0857947"><ele>248.0</ele><time>2026-04-10T14:43:11.816Z</time></trkpt><trkpt lat="44.727936" lon="8.085746"><ele>248.00000000000003</ele><time>2026-04-10T14:43:12.814Z</time></trkpt><trkpt lat="44.7278648" lon="8.085703"><ele>248.0</ele><time>2026-04-10T14:43:13.814Z</time></trkpt><trkpt lat="44.7277942" lon="8.0856654"><ele>248.0</ele><time>2026-04-10T14:43:14.815Z</time></trkpt><trkpt lat="44.7277284" lon="8.0856217"><ele>248.0</ele><time>2026-04-10T14:43:15.816Z</time></trkpt><trkpt lat="44.727654" lon="8.0855828"><ele>248.00000000000003</ele><time>2026-04-10T14:43:16.815Z</time></trkpt><trkpt lat="44.7275785" lon="8.0855476"><ele>248.0</ele><time>2026-04-10T14:43:17.816Z</time></trkpt><trkpt lat="44.727508" lon="8.0855146"><ele>249.57142857142858</ele><time>2026-04-10T14:43:18.814Z</time></trkpt><trkpt lat="44.7274386" lon="8.085481"><ele>251.14285714285717</ele><time>2026-04-10T14:43:19.815Z</time></trkpt><trkpt lat="44.7273661" lon="8.0854499"><ele>252.71428571428572</ele><time>2026-04-10T14:43:20.814Z</time></trkpt><trkpt lat="44.7272954" lon="8.0854135"><ele>254.28571428571428</ele><time>2026-04-10T14:43:21.815Z</time></trkpt><trkpt lat="44.7272284" lon="8.0853849"><ele>255.85714285714286</ele><time>2026-04-10T14:43:22.814Z</time></trkpt><trkpt lat="44.7271603" lon="8.0853465"><ele>257.42857142857144</ele><time>2026-04-10T14:43:23.814Z</time></trkpt><trkpt lat="44.7270991" lon="8.0853183"><ele>259.0</ele><time>2026-04-10T14:43:24.815Z</time></trkpt><trkpt lat="44.7270363" lon="8.0852842"><ele>259.0</ele><time>2026-04-10T14:43:25.814Z</time></trkpt><trkpt lat="44.7269736" lon="8.085253"><ele>259.0</ele><time>2026-04-10T14:43:26.816Z</time></trkpt><trkpt lat="44.726907" lon="8.085221"><ele>259.0</ele><time>2026-04-10T14:43:27.816Z</time></trkpt><trkpt lat="44.7268449" lon="8.0851951"><ele>259.0</ele><time>2026-04-10T14:43:28.816Z</time></trkpt><trkpt lat="44.7267262" lon="8.0851266"><ele>259.0</ele><time>2026-04-10T14:43:30.815Z</time></trkpt><trkpt lat="44.7266637" lon="8.0851004"><ele>259.0</ele><time>2026-04-10T14:43:31.815Z</time></trkpt><trkpt lat="44.7266017" lon="8.0850775"><ele>259.59999999999997</ele><time>2026-04-10T14:43:32.815Z</time></trkpt><trkpt lat="44.7264821" lon="8.0850252"><ele>260.2</ele><time>2026-04-10T14:43:34.814Z</time></trkpt><trkpt lat="44.726417" lon="8.0850048"><ele>260.79999999999995</ele><time>2026-04-10T14:43:35.816Z</time></trkpt><trkpt lat="44.7263084" lon="8.0849442"><ele>261.4</ele><time>2026-04-10T14:43:37.814Z</time></trkpt><trkpt lat="44.7262166" lon="8.0849096"><ele>262.0</ele><time>2026-04-10T14:43:39.816Z</time></trkpt><trkpt lat="44.7261238" lon="8.0848714"><ele>262.0</ele><time>2026-04-10T14:43:41.815Z</time></trkpt><trkpt lat="44.7260428" lon="8.0848167"><ele>262.0</ele><time>2026-04-10T14:43:43.815Z</time></trkpt><trkpt lat="44.7259489" lon="8.0847685"><ele>262.0</ele><time>2026-04-10T14:43:45.815Z</time></trkpt><trkpt lat="44.7258522" lon="8.0847216"><ele>262.0</ele><time>2026-04-10T14:43:47.815Z</time></trkpt><trkpt lat="44.7257679" lon="8.0846732"><ele>262.0</ele><time>2026-04-10T14:43:49.815Z</time></trkpt><trkpt lat="44.7256895" lon="8.0846451"><ele>262.0</ele><time>2026-04-10T14:43:51.816Z</time></trkpt><trkpt lat="44.7256238" lon="8.0845991"><ele>262.0</ele><time>2026-04-10T14:43:53.815Z</time></trkpt><trkpt lat="44.7255458" lon="8.084532"><ele>262.0</ele><time>2026-04-10T14:43:56.815Z</time></trkpt><trkpt lat="44.7254964" lon="8.0844203"><ele>262.0</ele><time>2026-04-10T14:43:59.814Z</time></trkpt><trkpt lat="44.7254701" lon="8.0842865"><ele>262.0</ele><time>2026-04-10T14:44:01.814Z</time></trkpt><trkpt lat="44.7254449" lon="8.0841319"><ele>260.16666666666663</ele><time>2026-04-10T14:44:03.815Z</time></trkpt><trkpt lat="44.7254233" lon="8.0840482"><ele>258.3333333333333</ele><time>2026-04-10T14:44:04.816Z</time></trkpt><trkpt lat="44.7253724" lon="8.0838895"><ele>256.5</ele><time>2026-04-10T14:44:06.815Z</time></trkpt><trkpt lat="44.725344" lon="8.0838051"><ele>254.66666666666669</ele><time>2026-04-10T14:44:07.815Z</time></trkpt><trkpt lat="44.7253155" lon="8.0837167"><ele>252.83333333333334</ele><time>2026-04-10T14:44:08.815Z</time></trkpt><trkpt lat="44.7252799" lon="8.0836294"><ele>251.0</ele><time>2026-04-10T14:44:09.817Z</time></trkpt><trkpt lat="44.7252499" lon="8.0835319"><ele>253.83333333333334</ele><time>2026-04-10T14:44:10.814Z</time></trkpt><trkpt lat="44.7252154" lon="8.0834328"><ele>256.6666666666667</ele><time>2026-04-10T14:44:11.815Z</time></trkpt><trkpt lat="44.7251856" lon="8.0833349"><ele>259.5</ele><time>2026-04-10T14:44:12.815Z</time></trkpt><trkpt lat="44.7251678" lon="8.0832339"><ele>262.3333333333333</ele><time>2026-04-10T14:44:13.815Z</time></trkpt><trkpt lat="44.7251412" lon="8.0831179"><ele>265.16666666666663</ele><time>2026-04-10T14:44:14.815Z</time></trkpt><trkpt lat="44.7251152" lon="8.0829993"><ele>268.0</ele><time>2026-04-10T14:44:15.815Z</time></trkpt><trkpt lat="44.7250959" lon="8.0828873"><ele>268.0</ele><time>2026-04-10T14:44:16.814Z</time></trkpt><trkpt lat="44.72508" lon="8.0827715"><ele>268.0</ele><time>2026-04-10T14:44:17.814Z</time></trkpt><trkpt lat="44.7250734" lon="8.0826453"><ele>268.0</ele><time>2026-04-10T14:44:18.815Z</time></trkpt><trkpt lat="44.7250595" lon="8.0825188"><ele>268.0</ele><time>2026-04-10T14:44:19.815Z</time></trkpt><trkpt lat="44.7250533" lon="8.0823998"><ele>268.0</ele><time>2026-04-10T14:44:20.814Z</time></trkpt><trkpt lat="44.7250479" lon="8.0822665"><ele>268.0</ele><time>2026-04-10T14:44:21.814Z</time></trkpt><trkpt lat="44.7250447" lon="8.0821326"><ele>267.5</ele><time>2026-04-10T14:44:22.815Z</time></trkpt><trkpt lat="44.7250461" lon="8.0819963"><ele>267.0</ele><time>2026-04-10T14:44:23.815Z</time></trkpt><trkpt lat="44.7250532" lon="8.0818719"><ele>266.5</ele><time>2026-04-10T14:44:24.816Z</time></trkpt><trkpt lat="44.7250643" lon="8.0817707"><ele>266.0</ele><time>2026-04-10T14:44:25.815Z</time></trkpt><trkpt lat="44.7250695" lon="8.0816645"><ele>265.5</ele><time>2026-04-10T14:44:26.814Z</time></trkpt><trkpt lat="44.7250742" lon="8.0815656"><ele>265.0</ele><time>2026-04-10T14:44:27.815Z</time></trkpt><trkpt lat="44.7250715" lon="8.0813975"><ele>264.4</ele><time>2026-04-10T14:44:29.815Z</time></trkpt><trkpt lat="44.7250833" lon="8.0812404"><ele>263.8</ele><time>2026-04-10T14:44:31.814Z</time></trkpt><trkpt lat="44.7251301" lon="8.0811299"><ele>263.2</ele><time>2026-04-10T14:44:33.814Z</time></trkpt><trkpt lat="44.725216" lon="8.0810544"><ele>262.6</ele><time>2026-04-10T14:44:35.816Z</time></trkpt><trkpt lat="44.7253039" lon="8.0809857"><ele>262.0</ele><time>2026-04-10T14:44:37.816Z</time></trkpt><trkpt lat="44.7253684" lon="8.0809354"><ele>261.66666666666663</ele><time>2026-04-10T14:44:39.814Z</time></trkpt><trkpt lat="44.725412" lon="8.0808449"><ele>261.3333333333333</ele><time>2026-04-10T14:44:42.815Z</time></trkpt><trkpt lat="44.7254181" lon="8.0807454"><ele>261.0</ele><time>2026-04-10T14:44:47.815Z</time></trkpt><trkpt lat="44.7255009" lon="8.0807412"><ele>260.6666666666667</ele><time>2026-04-10T14:45:13.814Z</time></trkpt><trkpt lat="44.7255749" lon="8.0807107"><ele>260.33333333333337</ele><time>2026-04-10T14:45:15.814Z</time></trkpt><trkpt lat="44.7256669" lon="8.0806698"><ele>260.0</ele><time>2026-04-10T14:45:18.815Z</time></trkpt><trkpt lat="44.7257541" lon="8.0806356"><ele>260.14285714285717</ele><time>2026-04-10T14:45:21.816Z</time></trkpt><trkpt lat="44.7258304" lon="8.0806159"><ele>260.2857142857143</ele><time>2026-04-10T14:45:23.815Z</time></trkpt><trkpt lat="44.7259031" lon="8.0806044"><ele>260.42857142857144</ele><time>2026-04-10T14:45:25.815Z</time></trkpt><trkpt lat="44.7259649" lon="8.0805833"><ele>260.57142857142856</ele><time>2026-04-10T14:45:27.817Z</time></trkpt><trkpt lat="44.7260313" lon="8.0805592"><ele>260.7142857142857</ele><time>2026-04-10T14:45:31.814Z</time></trkpt><trkpt lat="44.7261023" lon="8.0805233"><ele>260.8571428571429</ele><time>2026-04-10T14:45:34.815Z</time></trkpt><trkpt lat="44.726034" lon="8.0804833"><ele>261.0</ele><time>2026-04-10T14:45:42.815Z</time></trkpt><trkpt lat="44.7259668" lon="8.0805026"><ele>260.0</ele><time>2026-04-10T14:45:44.814Z</time></trkpt><trkpt lat="44.7258774" lon="8.0805622"><ele>259.0</ele><time>2026-04-10T14:45:46.815Z</time></trkpt><trkpt lat="44.7257755" lon="8.0805851"><ele>258.0</ele><time>2026-04-10T14:45:48.814Z</time></trkpt><trkpt lat="44.725678" lon="8.0806159"><ele>257.0</ele><time>2026-04-10T14:45:50.815Z</time></trkpt><trkpt lat="44.725577" lon="8.0806178"><ele>256.0</ele><time>2026-04-10T14:45:52.815Z</time></trkpt><trkpt lat="44.7254872" lon="8.0806039"><ele>256.0</ele><time>2026-04-10T14:45:54.814Z</time></trkpt><trkpt lat="44.7254205" lon="8.0806213"><ele>255.99999999999997</ele><time>2026-04-10T14:45:56.815Z</time></trkpt><trkpt lat="44.7253703" lon="8.0806902"><ele>256.0</ele><time>2026-04-10T14:45:59.814Z</time></trkpt><trkpt lat="44.7253485" lon="8.0807879"><ele>256.0</ele><time>2026-04-10T14:46:02.816Z</time></trkpt><trkpt lat="44.7252847" lon="8.0807922"><ele>255.99999999999997</ele><time>2026-04-10T14:46:19.813Z</time></trkpt><trkpt lat="44.7253493" lon="8.0808093"><ele>256.0</ele><time>2026-04-10T14:46:32.814Z</time></trkpt><trkpt lat="44.7253935" lon="8.08088"><ele>256.0</ele><time>2026-04-10T14:46:38.816Z</time></trkpt><trkpt lat="44.7253676" lon="8.0807795"><ele>256.0</ele><time>2026-04-10T14:47:37.813Z</time></trkpt><trkpt lat="44.7253811" lon="8.0806641"><ele>256.0</ele><time>2026-04-10T14:47:40.815Z</time></trkpt><trkpt lat="44.7253332" lon="8.0805977"><ele>256.0</ele><time>2026-04-10T14:47:42.815Z</time></trkpt><trkpt lat="44.7251923" lon="8.0805888"><ele>256.0</ele><time>2026-04-10T14:47:45.817Z</time></trkpt><trkpt lat="44.7251192" lon="8.0805453"><ele>256.0</ele><time>2026-04-10T14:47:47.814Z</time></trkpt><trkpt lat="44.7250594" lon="8.080464"><ele>254.60000000000002</ele><time>2026-04-10T14:47:51.814Z</time></trkpt><trkpt lat="44.7249855" lon="8.0804026"><ele>253.20000000000002</ele><time>2026-04-10T14:47:54.816Z</time></trkpt><trkpt lat="44.7249249" lon="8.0803572"><ele>251.79999999999998</ele><time>2026-04-10T14:47:56.813Z</time></trkpt><trkpt lat="44.7248448" lon="8.0802728"><ele>250.39999999999998</ele><time>2026-04-10T14:47:58.815Z</time></trkpt><trkpt lat="44.7247488" lon="8.0801606"><ele>249.0</ele><time>2026-04-10T14:48:00.813Z</time></trkpt><trkpt lat="44.7246635" lon="8.0800508"><ele>249.0</ele><time>2026-04-10T14:48:02.814Z</time></trkpt><trkpt lat="44.7246032" lon="8.0799791"><ele>249.0</ele><time>2026-04-10T14:48:04.814Z</time></trkpt><trkpt lat="44.7245465" lon="8.0798829"><ele>249.0</ele><time>2026-04-10T14:48:07.814Z</time></trkpt><trkpt lat="44.7244973" lon="8.0797943"><ele>249.0</ele><time>2026-04-10T14:48:09.813Z</time></trkpt><trkpt lat="44.7244442" lon="8.0797379"><ele>249.0</ele><time>2026-04-10T14:48:13.815Z</time></trkpt><trkpt lat="44.7244476" lon="8.0798281"><ele>249.0</ele><time>2026-04-10T14:48:17.816Z</time></trkpt><trkpt lat="44.7245289" lon="8.07988"><ele>249.0</ele><time>2026-04-10T14:48:20.814Z</time></trkpt><trkpt lat="44.7245822" lon="8.0799582"><ele>248.99999999999997</ele><time>2026-04-10T14:48:23.815Z</time></trkpt><trkpt lat="44.7245005" lon="8.0799777"><ele>248.99999999999997</ele><time>2026-04-10T14:48:26.814Z</time></trkpt><trkpt lat="44.7243935" lon="8.0799045"><ele>249.0</ele><time>2026-04-10T14:48:28.814Z</time></trkpt><trkpt lat="44.7242883" lon="8.0799099"><ele>249.0</ele><time>2026-04-10T14:48:30.814Z</time></trkpt><trkpt lat="44.7241733" lon="8.0799465"><ele>249.28571428571428</ele><time>2026-04-10T14:48:32.814Z</time></trkpt><trkpt lat="44.7241116" lon="8.0799754"><ele>249.57142857142856</ele><time>2026-04-10T14:48:33.815Z</time></trkpt><trkpt lat="44.7240514" lon="8.0800105"><ele>249.85714285714283</ele><time>2026-04-10T14:48:34.814Z</time></trkpt><trkpt lat="44.7239853" lon="8.0800428"><ele>250.1428571428571</ele><time>2026-04-10T14:48:35.814Z</time></trkpt><trkpt lat="44.723917" lon="8.080075"><ele>250.42857142857142</ele><time>2026-04-10T14:48:36.815Z</time></trkpt><trkpt lat="44.7238408" lon="8.0801122"><ele>250.71428571428567</ele><time>2026-04-10T14:48:37.814Z</time></trkpt><trkpt lat="44.723762" lon="8.080133"><ele>250.99999999999997</ele><time>2026-04-10T14:48:38.813Z</time></trkpt><trkpt lat="44.723692" lon="8.0801646"><ele>251.0</ele><time>2026-04-10T14:48:39.814Z</time></trkpt><trkpt lat="44.7236305" lon="8.0802013"><ele>251.00000000000003</ele><time>2026-04-10T14:48:40.815Z</time></trkpt><trkpt lat="44.7235288" lon="8.0803181"><ele>251.00000000000003</ele><time>2026-04-10T14:48:42.815Z</time></trkpt><trkpt lat="44.7235025" lon="8.0804198"><ele>251.0</ele><time>2026-04-10T14:48:43.814Z</time></trkpt><trkpt lat="44.7234626" lon="8.0805766"><ele>251.0</ele><time>2026-04-10T14:48:45.814Z</time></trkpt><trkpt lat="44.7233989" lon="8.0807184"><ele>249.83333333333334</ele><time>2026-04-10T14:48:47.814Z</time></trkpt><trkpt lat="44.7233412" lon="8.0807966"><ele>248.66666666666669</ele><time>2026-04-10T14:48:48.814Z</time></trkpt><trkpt lat="44.723288" lon="8.0808691"><ele>247.5</ele><time>2026-04-10T14:48:49.815Z</time></trkpt><trkpt lat="44.7232313" lon="8.0809511"><ele>246.33333333333331</ele><time>2026-04-10T14:48:50.814Z</time></trkpt><trkpt lat="44.7231641" lon="8.0810266"><ele>245.16666666666666</ele><time>2026-04-10T14:48:51.814Z</time></trkpt><trkpt lat="44.7230966" lon="8.081112"><ele>244.0</ele><time>2026-04-10T14:48:52.814Z</time></trkpt><trkpt lat="44.7230353" lon="8.0812042"><ele>243.99999999999997</ele><time>2026-04-10T14:48:53.815Z</time></trkpt><trkpt lat="44.7229903" lon="8.0813114"><ele>244.0</ele><time>2026-04-10T14:48:54.814Z</time></trkpt><trkpt lat="44.7229512" lon="8.081396"><ele>243.99999999999997</ele><time>2026-04-10T14:48:55.816Z</time></trkpt><trkpt lat="44.7229038" lon="8.0814784"><ele>243.99999999999997</ele><time>2026-04-10T14:48:57.813Z</time></trkpt><trkpt lat="44.7228937" lon="8.0815742"><ele>244.0</ele><time>2026-04-10T14:49:04.814Z</time></trkpt><trkpt lat="44.7229194" lon="8.0814918"><ele>243.99999999999997</ele><time>2026-04-10T14:49:09.815Z</time></trkpt><trkpt lat="44.7229487" lon="8.081396"><ele>243.99999999999997</ele><time>2026-04-10T14:49:13.815Z</time></trkpt><trkpt lat="44.7230004" lon="8.0812968"><ele>243.99999999999997</ele><time>2026-04-10T14:49:16.814Z</time></trkpt><trkpt lat="44.723051" lon="8.0811914"><ele>244.0</ele><time>2026-04-10T14:49:19.814Z</time></trkpt><trkpt lat="44.7231198" lon="8.0811086"><ele>243.99999999999997</ele><time>2026-04-10T14:49:22.815Z</time></trkpt><trkpt lat="44.7231692" lon="8.0810501"><ele>243.99999999999997</ele><time>2026-04-10T14:49:24.815Z</time></trkpt><trkpt lat="44.7232219" lon="8.0809963"><ele>244.0</ele><time>2026-04-10T14:49:26.815Z</time></trkpt><trkpt lat="44.7232758" lon="8.0809392"><ele>243.99999999999997</ele><time>2026-04-10T14:49:28.814Z</time></trkpt><trkpt lat="44.7233286" lon="8.0808806"><ele>243.99999999999997</ele><time>2026-04-10T14:49:30.815Z</time></trkpt><trkpt lat="44.7233768" lon="8.0808156"><ele>242.99999999999997</ele><time>2026-04-10T14:49:32.814Z</time></trkpt><trkpt lat="44.723426" lon="8.0807477"><ele>242.0</ele><time>2026-04-10T14:49:34.815Z</time></trkpt><trkpt lat="44.7234677" lon="8.0806758"><ele>240.99999999999997</ele><time>2026-04-10T14:49:36.815Z</time></trkpt><trkpt lat="44.7235097" lon="8.0805989"><ele>239.99999999999997</ele><time>2026-04-10T14:49:38.815Z</time></trkpt><trkpt lat="44.7235353" lon="8.0805094"><ele>239.0</ele><time>2026-04-10T14:49:40.815Z</time></trkpt><trkpt lat="44.723548" lon="8.0804126"><ele>237.99999999999997</ele><time>2026-04-10T14:49:42.813Z</time></trkpt><trkpt lat="44.7235678" lon="8.0803213"><ele>236.99999999999997</ele><time>2026-04-10T14:49:44.814Z</time></trkpt><trkpt lat="44.7236109" lon="8.0802481"><ele>238.99999999999997</ele><time>2026-04-10T14:49:46.813Z</time></trkpt><trkpt lat="44.7236749" lon="8.080206"><ele>241.0</ele><time>2026-04-10T14:49:48.814Z</time></trkpt><trkpt lat="44.7237447" lon="8.0801742"><ele>242.99999999999997</ele><time>2026-04-10T14:49:50.813Z</time></trkpt><trkpt lat="44.7238097" lon="8.080142"><ele>244.99999999999997</ele><time>2026-04-10T14:49:52.814Z</time></trkpt><trkpt lat="44.7238739" lon="8.0801124"><ele>247.0</ele><time>2026-04-10T14:49:54.814Z</time></trkpt><trkpt lat="44.7239409" lon="8.0800866"><ele>248.99999999999997</ele><time>2026-04-10T14:49:56.814Z</time></trkpt><trkpt lat="44.7240042" lon="8.0800644"><ele>250.99999999999997</ele><time>2026-04-10T14:49:58.813Z</time></trkpt><trkpt lat="44.7240624" lon="8.0800225"><ele>250.99999999999997</ele><time>2026-04-10T14:50:00.813Z</time></trkpt><trkpt lat="44.724121" lon="8.079983"><ele>251.0</ele><time>2026-04-10T14:50:02.815Z</time></trkpt><trkpt lat="44.7241834" lon="8.0799507"><ele>250.99999999999997</ele><time>2026-04-10T14:50:04.815Z</time></trkpt><trkpt lat="44.7242461" lon="8.0799238"><ele>250.99999999999997</ele><time>2026-04-10T14:50:06.815Z</time></trkpt><trkpt lat="44.7243136" lon="8.079911"><ele>251.0</ele><time>2026-04-10T14:50:08.816Z</time></trkpt><trkpt lat="44.7243817" lon="8.0799176"><ele>250.99999999999997</ele><time>2026-04-10T14:50:10.814Z</time></trkpt><trkpt lat="44.7244432" lon="8.0799377"><ele>250.99999999999997</ele><time>2026-04-10T14:50:12.813Z</time></trkpt><trkpt lat="44.724526" lon="8.0799772"><ele>250.66666666666669</ele><time>2026-04-10T14:50:15.814Z</time></trkpt><trkpt lat="44.7245836" lon="8.0800144"><ele>250.33333333333334</ele><time>2026-04-10T14:50:17.815Z</time></trkpt><trkpt lat="44.7246374" lon="8.0800658"><ele>250.0</ele><time>2026-04-10T14:50:19.814Z</time></trkpt><trkpt lat="44.7246993" lon="8.0801496"><ele>249.66666666666669</ele><time>2026-04-10T14:50:22.814Z</time></trkpt><trkpt lat="44.7247699" lon="8.0802103"><ele>249.33333333333334</ele><time>2026-04-10T14:50:25.814Z</time></trkpt><trkpt lat="44.7248354" lon="8.0802879"><ele>249.0</ele><time>2026-04-10T14:50:28.814Z</time></trkpt><trkpt lat="44.7249002" lon="8.080364"><ele>249.0</ele><time>2026-04-10T14:50:31.814Z</time></trkpt><trkpt lat="44.7249685" lon="8.0804396"><ele>248.99999999999997</ele><time>2026-04-10T14:50:34.813Z</time></trkpt><trkpt lat="44.7250138" lon="8.0805021"><ele>249.0</ele><time>2026-04-10T14:50:37.814Z</time></trkpt><trkpt lat="44.724939" lon="8.0804725"><ele>249.0</ele><time>2026-04-10T14:50:41.814Z</time></trkpt><trkpt lat="44.7248865" lon="8.0804084"><ele>248.99999999999997</ele><time>2026-04-10T14:50:43.815Z</time></trkpt><trkpt lat="44.7248284" lon="8.0803449"><ele>249.0</ele><time>2026-04-10T14:50:45.813Z</time></trkpt><trkpt lat="44.7247651" lon="8.0802898"><ele>249.0</ele><time>2026-04-10T14:50:47.813Z</time></trkpt><trkpt lat="44.7247012" lon="8.0802343"><ele>249.0</ele><time>2026-04-10T14:50:49.814Z</time></trkpt><trkpt lat="44.7246281" lon="8.0801771"><ele>248.99999999999997</ele><time>2026-04-10T14:50:51.816Z</time></trkpt><trkpt lat="44.7245493" lon="8.0801016"><ele>248.99999999999997</ele><time>2026-04-10T14:50:53.815Z</time></trkpt><trkpt lat="44.7244583" lon="8.0800632"><ele>249.0</ele><time>2026-04-10T14:50:55.814Z</time></trkpt><trkpt lat="44.7243394" lon="8.0800443"><ele>249.0</ele><time>2026-04-10T14:50:57.814Z</time></trkpt><trkpt lat="44.7242307" lon="8.0800664"><ele>249.33333333333334</ele><time>2026-04-10T14:50:59.814Z</time></trkpt><trkpt lat="44.7241213" lon="8.0801452"><ele>249.66666666666669</ele><time>2026-04-10T14:51:01.814Z</time></trkpt><trkpt lat="44.7240671" lon="8.0801919"><ele>250.0</ele><time>2026-04-10T14:51:02.814Z</time></trkpt><trkpt lat="44.7240088" lon="8.0802379"><ele>250.33333333333334</ele><time>2026-04-10T14:51:03.815Z</time></trkpt><trkpt lat="44.7239637" lon="8.0803053"><ele>250.66666666666669</ele><time>2026-04-10T14:51:04.813Z</time></trkpt><trkpt lat="44.7239093" lon="8.0803601"><ele>251.0</ele><time>2026-04-10T14:51:05.814Z</time></trkpt><trkpt lat="44.7238461" lon="8.0804228"><ele>251.00000000000003</ele><time>2026-04-10T14:51:06.814Z</time></trkpt><trkpt lat="44.7237921" lon="8.0804818"><ele>251.0</ele><time>2026-04-10T14:51:07.814Z</time></trkpt><trkpt lat="44.7237395" lon="8.0805526"><ele>251.0</ele><time>2026-04-10T14:51:08.814Z</time></trkpt><trkpt lat="44.723678" lon="8.0806373"><ele>251.0</ele><time>2026-04-10T14:51:09.813Z</time></trkpt><trkpt lat="44.7236329" lon="8.0807278"><ele>251.00000000000003</ele><time>2026-04-10T14:51:10.814Z</time></trkpt><trkpt lat="44.7235939" lon="8.0808148"><ele>251.0</ele><time>2026-04-10T14:51:11.814Z</time></trkpt><trkpt lat="44.7235588" lon="8.0809061"><ele>249.83333333333334</ele><time>2026-04-10T14:51:12.814Z</time></trkpt><trkpt lat="44.7235259" lon="8.0810049"><ele>248.66666666666669</ele><time>2026-04-10T14:51:13.814Z</time></trkpt><trkpt lat="44.7235041" lon="8.0811142"><ele>247.5</ele><time>2026-04-10T14:51:14.814Z</time></trkpt><trkpt lat="44.7234772" lon="8.0812187"><ele>246.33333333333331</ele><time>2026-04-10T14:51:15.814Z</time></trkpt><trkpt lat="44.7234566" lon="8.0813189"><ele>245.16666666666666</ele><time>2026-04-10T14:51:16.814Z</time></trkpt><trkpt lat="44.7234442" lon="8.0814267"><ele>244.0</ele><time>2026-04-10T14:51:17.814Z</time></trkpt><trkpt lat="44.7234225" lon="8.0815192"><ele>244.99999999999997</ele><time>2026-04-10T14:51:18.815Z</time></trkpt><trkpt lat="44.7233946" lon="8.0816205"><ele>246.0</ele><time>2026-04-10T14:51:19.814Z</time></trkpt><trkpt lat="44.7233732" lon="8.0817217"><ele>247.0</ele><time>2026-04-10T14:51:20.814Z</time></trkpt><trkpt lat="44.7233545" lon="8.0818105"><ele>248.0</ele><time>2026-04-10T14:51:21.813Z</time></trkpt><trkpt lat="44.7233413" lon="8.0819158"><ele>248.99999999999997</ele><time>2026-04-10T14:51:22.813Z</time></trkpt><trkpt lat="44.723322" lon="8.0820077"><ele>250.0</ele><time>2026-04-10T14:51:23.814Z</time></trkpt><trkpt lat="44.7232919" lon="8.0821689"><ele>250.0</ele><time>2026-04-10T14:51:25.813Z</time></trkpt><trkpt lat="44.7232339" lon="8.0823264"><ele>250.0</ele><time>2026-04-10T14:51:27.814Z</time></trkpt><trkpt lat="44.7231808" lon="8.0824784"><ele>250.0</ele><time>2026-04-10T14:51:29.813Z</time></trkpt><trkpt lat="44.7231311" lon="8.0825442"><ele>250.0</ele><time>2026-04-10T14:51:30.814Z</time></trkpt><trkpt lat="44.7230622" lon="8.0826517"><ele>250.0</ele><time>2026-04-10T14:51:32.814Z</time></trkpt><trkpt lat="44.7229949" lon="8.0827308"><ele>248.83333333333331</ele><time>2026-04-10T14:51:34.813Z</time></trkpt><trkpt lat="44.722921" lon="8.082793"><ele>247.66666666666666</ele><time>2026-04-10T14:51:36.815Z</time></trkpt><trkpt lat="44.7228532" lon="8.0828512"><ele>246.5</ele><time>2026-04-10T14:51:38.814Z</time></trkpt><trkpt lat="44.7227583" lon="8.0829146"><ele>245.33333333333331</ele><time>2026-04-10T14:51:41.813Z</time></trkpt><trkpt lat="44.7226937" lon="8.0829686"><ele>244.16666666666666</ele><time>2026-04-10T14:51:43.813Z</time></trkpt><trkpt lat="44.7226239" lon="8.0830162"><ele>243.0</ele><time>2026-04-10T14:51:45.814Z</time></trkpt><trkpt lat="44.7225598" lon="8.0830673"><ele>243.0</ele><time>2026-04-10T14:51:47.814Z</time></trkpt><trkpt lat="44.7224965" lon="8.0831167"><ele>243.0</ele><time>2026-04-10T14:51:49.814Z</time></trkpt><trkpt lat="44.7224338" lon="8.0831665"><ele>243.0</ele><time>2026-04-10T14:51:51.814Z</time></trkpt><trkpt lat="44.722369" lon="8.0832226"><ele>243.0</ele><time>2026-04-10T14:51:53.813Z</time></trkpt><trkpt lat="44.7223105" lon="8.0832791"><ele>243.0</ele><time>2026-04-10T14:51:55.813Z</time></trkpt><trkpt lat="44.7222573" lon="8.0833486"><ele>243.0</ele><time>2026-04-10T14:51:57.814Z</time></trkpt><trkpt lat="44.7222082" lon="8.0834179"><ele>243.0</ele><time>2026-04-10T14:51:59.814Z</time></trkpt><trkpt lat="44.7221625" lon="8.0834833"><ele>245.14285714285714</ele><time>2026-04-10T14:52:01.814Z</time></trkpt><trkpt lat="44.7221156" lon="8.0835484"><ele>247.28571428571428</ele><time>2026-04-10T14:52:03.815Z</time></trkpt><trkpt lat="44.7220672" lon="8.0836127"><ele>249.42857142857142</ele><time>2026-04-10T14:52:05.813Z</time></trkpt><trkpt lat="44.722023" lon="8.0836797"><ele>251.57142857142856</ele><time>2026-04-10T14:52:07.814Z</time></trkpt><trkpt lat="44.7219779" lon="8.0837422"><ele>253.71428571428572</ele><time>2026-04-10T14:52:09.813Z</time></trkpt><trkpt lat="44.7219279" lon="8.0838004"><ele>255.85714285714283</ele><time>2026-04-10T14:52:11.814Z</time></trkpt><trkpt lat="44.7218609" lon="8.0838745"><ele>258.0</ele><time>2026-04-10T14:52:14.814Z</time></trkpt><trkpt lat="44.7217817" lon="8.0839183"><ele>258.3333333333333</ele><time>2026-04-10T14:52:17.814Z</time></trkpt><trkpt lat="44.7216971" lon="8.0839108"><ele>258.6666666666667</ele><time>2026-04-10T14:52:20.814Z</time></trkpt><trkpt lat="44.7216127" lon="8.0838891"><ele>259.0</ele><time>2026-04-10T14:52:23.814Z</time></trkpt><trkpt lat="44.7215267" lon="8.083858"><ele>259.33333333333337</ele><time>2026-04-10T14:52:26.813Z</time></trkpt><trkpt lat="44.7214417" lon="8.0838429"><ele>259.6666666666667</ele><time>2026-04-10T14:52:29.813Z</time></trkpt><trkpt lat="44.7213596" lon="8.083832"><ele>260.0</ele><time>2026-04-10T14:52:32.813Z</time></trkpt><trkpt lat="44.7212715" lon="8.0838179"><ele>260.00000000000006</ele><time>2026-04-10T14:52:35.813Z</time></trkpt><trkpt lat="44.7211839" lon="8.0838007"><ele>260.0</ele><time>2026-04-10T14:52:38.813Z</time></trkpt><trkpt lat="44.7211216" lon="8.0837875"><ele>260.0</ele><time>2026-04-10T14:52:40.813Z</time></trkpt><trkpt lat="44.7210548" lon="8.0837709"><ele>260.0</ele><time>2026-04-10T14:52:42.813Z</time></trkpt><trkpt lat="44.7209898" lon="8.0837547"><ele>260.0</ele><time>2026-04-10T14:52:44.813Z</time></trkpt><trkpt lat="44.7209255" lon="8.0837438"><ele>260.00000000000006</ele><time>2026-04-10T14:52:46.815Z</time></trkpt><trkpt lat="44.7208608" lon="8.0837324"><ele>260.0</ele><time>2026-04-10T14:52:48.814Z</time></trkpt><trkpt lat="44.720768" lon="8.0837134"><ele>260.5714285714286</ele><time>2026-04-10T14:52:51.813Z</time></trkpt><trkpt lat="44.7207047" lon="8.0837062"><ele>261.14285714285717</ele><time>2026-04-10T14:52:53.813Z</time></trkpt><trkpt lat="44.7206115" lon="8.0837176"><ele>261.7142857142857</ele><time>2026-04-10T14:52:56.815Z</time></trkpt><trkpt lat="44.720549" lon="8.0837412"><ele>262.28571428571433</ele><time>2026-04-10T14:52:58.814Z</time></trkpt><trkpt lat="44.7204883" lon="8.0837801"><ele>262.8571428571429</ele><time>2026-04-10T14:53:00.814Z</time></trkpt><trkpt lat="44.7204319" lon="8.0838278"><ele>263.42857142857144</ele><time>2026-04-10T14:53:02.814Z</time></trkpt><trkpt lat="44.7203805" lon="8.0838907"><ele>264.0</ele><time>2026-04-10T14:53:04.813Z</time></trkpt><trkpt lat="44.7203361" lon="8.0839691"><ele>264.0</ele><time>2026-04-10T14:53:06.814Z</time></trkpt><trkpt lat="44.7202911" lon="8.0840456"><ele>264.0</ele><time>2026-04-10T14:53:08.813Z</time></trkpt><trkpt lat="44.7202398" lon="8.0841165"><ele>264.0</ele><time>2026-04-10T14:53:10.814Z</time></trkpt><trkpt lat="44.72018" lon="8.0841905"><ele>264.0</ele><time>2026-04-10T14:53:12.815Z</time></trkpt><trkpt lat="44.7201177" lon="8.084253"><ele>264.0</ele><time>2026-04-10T14:53:14.813Z</time></trkpt><trkpt lat="44.7200585" lon="8.084301"><ele>264.0</ele><time>2026-04-10T14:53:16.814Z</time></trkpt><trkpt lat="44.720001" lon="8.0843432"><ele>264.0</ele><time>2026-04-10T14:53:18.815Z</time></trkpt><trkpt lat="44.7199407" lon="8.0843793"><ele>265.2857142857143</ele><time>2026-04-10T14:53:20.814Z</time></trkpt><trkpt lat="44.71988" lon="8.0844185"><ele>266.57142857142856</ele><time>2026-04-10T14:53:22.813Z</time></trkpt><trkpt lat="44.7198168" lon="8.084457"><ele>267.8571428571429</ele><time>2026-04-10T14:53:24.814Z</time></trkpt><trkpt lat="44.7197501" lon="8.0844831"><ele>269.1428571428571</ele><time>2026-04-10T14:53:26.813Z</time></trkpt><trkpt lat="44.7196817" lon="8.0845128"><ele>270.42857142857144</ele><time>2026-04-10T14:53:28.814Z</time></trkpt><trkpt lat="44.7196121" lon="8.084542"><ele>271.7142857142857</ele><time>2026-04-10T14:53:30.813Z</time></trkpt><trkpt lat="44.7195427" lon="8.0845646"><ele>273.0</ele><time>2026-04-10T14:53:32.815Z</time></trkpt><trkpt lat="44.7194759" lon="8.0845844"><ele>273.0</ele><time>2026-04-10T14:53:34.812Z</time></trkpt><trkpt lat="44.7194095" lon="8.0845987"><ele>273.0</ele><time>2026-04-10T14:53:36.814Z</time></trkpt><trkpt lat="44.7193415" lon="8.0846124"><ele>273.0</ele><time>2026-04-10T14:53:38.814Z</time></trkpt><trkpt lat="44.7192681" lon="8.08463"><ele>273.0</ele><time>2026-04-10T14:53:40.815Z</time></trkpt><trkpt lat="44.7191967" lon="8.0846424"><ele>273.0</ele><time>2026-04-10T14:53:42.814Z</time></trkpt><trkpt lat="44.7191289" lon="8.0846565"><ele>273.0</ele><time>2026-04-10T14:53:44.814Z</time></trkpt><trkpt lat="44.7190618" lon="8.0846701"><ele>273.0</ele><time>2026-04-10T14:53:46.813Z</time></trkpt><trkpt lat="44.7189912" lon="8.08468"><ele>272.8333333333333</ele><time>2026-04-10T14:53:48.813Z</time></trkpt><trkpt lat="44.718916" lon="8.0846915"><ele>272.6666666666667</ele><time>2026-04-10T14:53:50.813Z</time></trkpt><trkpt lat="44.7188355" lon="8.0847145"><ele>272.5</ele><time>2026-04-10T14:53:52.813Z</time></trkpt><trkpt lat="44.7187538" lon="8.0847288"><ele>272.33333333333337</ele><time>2026-04-10T14:53:54.814Z</time></trkpt><trkpt lat="44.7186723" lon="8.0847259"><ele>272.1666666666667</ele><time>2026-04-10T14:53:56.814Z</time></trkpt><trkpt lat="44.7185889" lon="8.0847313"><ele>272.0</ele><time>2026-04-10T14:53:58.813Z</time></trkpt><trkpt lat="44.7185041" lon="8.0847428"><ele>273.1666666666667</ele><time>2026-04-10T14:54:00.812Z</time></trkpt><trkpt lat="44.7184217" lon="8.0847497"><ele>274.33333333333337</ele><time>2026-04-10T14:54:02.813Z</time></trkpt><trkpt lat="44.7183334" lon="8.0847627"><ele>275.5</ele><time>2026-04-10T14:54:04.813Z</time></trkpt><trkpt lat="44.7182492" lon="8.0847592"><ele>276.6666666666667</ele><time>2026-04-10T14:54:06.813Z</time></trkpt><trkpt lat="44.7181612" lon="8.0847714"><ele>277.8333333333333</ele><time>2026-04-10T14:54:08.813Z</time></trkpt><trkpt lat="44.7180781" lon="8.084784"><ele>279.0</ele><time>2026-04-10T14:54:10.813Z</time></trkpt><trkpt lat="44.7179925" lon="8.0847932"><ele>279.0</ele><time>2026-04-10T14:54:12.813Z</time></trkpt><trkpt lat="44.7178975" lon="8.0847879"><ele>279.0</ele><time>2026-04-10T14:54:14.814Z</time></trkpt><trkpt lat="44.7178088" lon="8.0847997"><ele>279.0</ele><time>2026-04-10T14:54:16.814Z</time></trkpt><trkpt lat="44.7177231" lon="8.0848049"><ele>279.0</ele><time>2026-04-10T14:54:18.813Z</time></trkpt><trkpt lat="44.7176366" lon="8.0848181"><ele>279.0</ele><time>2026-04-10T14:54:20.813Z</time></trkpt><trkpt lat="44.71755" lon="8.0848302"><ele>279.0</ele><time>2026-04-10T14:54:22.814Z</time></trkpt><trkpt lat="44.7174643" lon="8.0848594"><ele>279.6666666666667</ele><time>2026-04-10T14:54:24.813Z</time></trkpt><trkpt lat="44.7173873" lon="8.0848947"><ele>280.3333333333333</ele><time>2026-04-10T14:54:26.814Z</time></trkpt><trkpt lat="44.7173084" lon="8.084922"><ele>281.0</ele><time>2026-04-10T14:54:28.814Z</time></trkpt><trkpt lat="44.7172241" lon="8.0849594"><ele>281.66666666666663</ele><time>2026-04-10T14:54:30.813Z</time></trkpt><trkpt lat="44.717144" lon="8.0849996"><ele>282.3333333333333</ele><time>2026-04-10T14:54:32.813Z</time></trkpt><trkpt lat="44.7170657" lon="8.0850304"><ele>283.0</ele><time>2026-04-10T14:54:34.813Z</time></trkpt><trkpt lat="44.7169843" lon="8.0850513"><ele>284.5</ele><time>2026-04-10T14:54:36.813Z</time></trkpt><trkpt lat="44.716899" lon="8.0850627"><ele>286.0</ele><time>2026-04-10T14:54:38.813Z</time></trkpt><trkpt lat="44.7168203" lon="8.0850614"><ele>287.5</ele><time>2026-04-10T14:54:40.814Z</time></trkpt><trkpt lat="44.7167449" lon="8.0850655"><ele>289.0</ele><time>2026-04-10T14:54:42.813Z</time></trkpt><trkpt lat="44.7166755" lon="8.0850506"><ele>290.5</ele><time>2026-04-10T14:54:44.814Z</time></trkpt><trkpt lat="44.7166055" lon="8.0850206"><ele>292.0</ele><time>2026-04-10T14:54:46.813Z</time></trkpt><trkpt lat="44.7165384" lon="8.0849797"><ele>292.0</ele><time>2026-04-10T14:54:48.814Z</time></trkpt><trkpt lat="44.7164785" lon="8.0849343"><ele>292.0</ele><time>2026-04-10T14:54:50.815Z</time></trkpt><trkpt lat="44.7164156" lon="8.0848868"><ele>292.0</ele><time>2026-04-10T14:54:52.812Z</time></trkpt><trkpt lat="44.7163515" lon="8.0848418"><ele>292.0</ele><time>2026-04-10T14:54:54.813Z</time></trkpt><trkpt lat="44.7162922" lon="8.0847962"><ele>292.0</ele><time>2026-04-10T14:54:56.814Z</time></trkpt><trkpt lat="44.7162252" lon="8.0847549"><ele>292.0</ele><time>2026-04-10T14:54:58.813Z</time></trkpt><trkpt lat="44.7161493" lon="8.0847143"><ele>292.0</ele><time>2026-04-10T14:55:00.812Z</time></trkpt><trkpt lat="44.7160711" lon="8.0846726"><ele>292.0</ele><time>2026-04-10T14:55:02.812Z</time></trkpt><trkpt lat="44.7159997" lon="8.084625"><ele>292.0</ele><time>2026-04-10T14:55:04.813Z</time></trkpt><trkpt lat="44.7159286" lon="8.084578"><ele>292.0</ele><time>2026-04-10T14:55:06.813Z</time></trkpt><trkpt lat="44.7158422" lon="8.0845547"><ele>292.0</ele><time>2026-04-10T14:55:08.812Z</time></trkpt><trkpt lat="44.7157581" lon="8.0845571"><ele>292.0</ele><time>2026-04-10T14:55:10.813Z</time></trkpt><trkpt lat="44.7156773" lon="8.084566"><ele>292.0</ele><time>2026-04-10T14:55:12.813Z</time></trkpt><trkpt lat="44.715591" lon="8.0846031"><ele>292.0</ele><time>2026-04-10T14:55:14.812Z</time></trkpt><trkpt lat="44.7155138" lon="8.0846542"><ele>292.0</ele><time>2026-04-10T14:55:16.812Z</time></trkpt><trkpt lat="44.7154345" lon="8.0847339"><ele>292.0</ele><time>2026-04-10T14:55:18.812Z</time></trkpt><trkpt lat="44.7153586" lon="8.0848196"><ele>292.0</ele><time>2026-04-10T14:55:20.813Z</time></trkpt><trkpt lat="44.715278" lon="8.0849207"><ele>292.0</ele><time>2026-04-10T14:55:22.814Z</time></trkpt><trkpt lat="44.7151877" lon="8.0850106"><ele>293.75</ele><time>2026-04-10T14:55:24.813Z</time></trkpt><trkpt lat="44.7150871" lon="8.0850993"><ele>295.5</ele><time>2026-04-10T14:55:26.812Z</time></trkpt><trkpt lat="44.7149733" lon="8.085159"><ele>297.25</ele><time>2026-04-10T14:55:28.813Z</time></trkpt><trkpt lat="44.7148518" lon="8.0852196"><ele>299.0</ele><time>2026-04-10T14:55:30.812Z</time></trkpt><trkpt lat="44.7147442" lon="8.0852504"><ele>299.0</ele><time>2026-04-10T14:55:32.815Z</time></trkpt><trkpt lat="44.7146462" lon="8.0852878"><ele>299.0</ele><time>2026-04-10T14:55:34.814Z</time></trkpt><trkpt lat="44.7145406" lon="8.0853603"><ele>299.0</ele><time>2026-04-10T14:55:36.813Z</time></trkpt><trkpt lat="44.7144463" lon="8.0854588"><ele>299.0</ele><time>2026-04-10T14:55:38.814Z</time></trkpt><trkpt lat="44.7143928" lon="8.0855201"><ele>299.0</ele><time>2026-04-10T14:55:39.814Z</time></trkpt><trkpt lat="44.7143471" lon="8.0855821"><ele>298.0</ele><time>2026-04-10T14:55:40.813Z</time></trkpt><trkpt lat="44.7142963" lon="8.0856551"><ele>297.0</ele><time>2026-04-10T14:55:41.812Z</time></trkpt><trkpt lat="44.7142467" lon="8.0857235"><ele>296.0</ele><time>2026-04-10T14:55:42.812Z</time></trkpt><trkpt lat="44.7141985" lon="8.0857907"><ele>295.0</ele><time>2026-04-10T14:55:43.813Z</time></trkpt><trkpt lat="44.7141596" lon="8.0858639"><ele>294.0</ele><time>2026-04-10T14:55:44.814Z</time></trkpt><trkpt lat="44.7141274" lon="8.0859411"><ele>293.0</ele><time>2026-04-10T14:55:45.814Z</time></trkpt><trkpt lat="44.7140877" lon="8.0860242"><ele>292.0</ele><time>2026-04-10T14:55:46.813Z</time></trkpt><trkpt lat="44.7140176" lon="8.0861838"><ele>292.0</ele><time>2026-04-10T14:55:48.813Z</time></trkpt><trkpt lat="44.7139871" lon="8.0862659"><ele>292.0</ele><time>2026-04-10T14:55:49.812Z</time></trkpt><trkpt lat="44.7139304" lon="8.0864124"><ele>292.0</ele><time>2026-04-10T14:55:51.813Z</time></trkpt><trkpt lat="44.7138985" lon="8.0864971"><ele>292.0</ele><time>2026-04-10T14:55:52.813Z</time></trkpt><trkpt lat="44.7138619" lon="8.0865817"><ele>292.0</ele><time>2026-04-10T14:55:53.814Z</time></trkpt><trkpt lat="44.7138237" lon="8.0866609"><ele>292.0</ele><time>2026-04-10T14:55:54.814Z</time></trkpt><trkpt lat="44.7137881" lon="8.086744"><ele>291.2857142857143</ele><time>2026-04-10T14:55:55.814Z</time></trkpt><trkpt lat="44.7137468" lon="8.0868234"><ele>290.57142857142856</ele><time>2026-04-10T14:55:56.814Z</time></trkpt><trkpt lat="44.7137093" lon="8.0869062"><ele>289.8571428571429</ele><time>2026-04-10T14:55:57.814Z</time></trkpt><trkpt lat="44.7136758" lon="8.0869854"><ele>289.1428571428571</ele><time>2026-04-10T14:55:58.814Z</time></trkpt><trkpt lat="44.7136311" lon="8.0870634"><ele>288.42857142857144</ele><time>2026-04-10T14:55:59.814Z</time></trkpt><trkpt lat="44.713594" lon="8.0871493"><ele>287.7142857142857</ele><time>2026-04-10T14:56:00.813Z</time></trkpt><trkpt lat="44.7135595" lon="8.0872253"><ele>287.0</ele><time>2026-04-10T14:56:01.815Z</time></trkpt><trkpt lat="44.7135014" lon="8.0873805"><ele>287.33333333333337</ele><time>2026-04-10T14:56:03.813Z</time></trkpt><trkpt lat="44.7134653" lon="8.0874658"><ele>287.6666666666667</ele><time>2026-04-10T14:56:04.814Z</time></trkpt><trkpt lat="44.7134401" lon="8.0875521"><ele>288.0</ele><time>2026-04-10T14:56:05.814Z</time></trkpt><trkpt lat="44.7133882" lon="8.0876991"><ele>288.3333333333333</ele><time>2026-04-10T14:56:07.814Z</time></trkpt><trkpt lat="44.7133569" lon="8.0877779"><ele>288.66666666666663</ele><time>2026-04-10T14:56:08.814Z</time></trkpt><trkpt lat="44.7133093" lon="8.0879195"><ele>289.0</ele><time>2026-04-10T14:56:10.813Z</time></trkpt><trkpt lat="44.7132621" lon="8.0880739"><ele>289.0</ele><time>2026-04-10T14:56:12.814Z</time></trkpt><trkpt lat="44.7132106" lon="8.088221"><ele>289.0</ele><time>2026-04-10T14:56:14.812Z</time></trkpt><trkpt lat="44.7131836" lon="8.0883012"><ele>289.0</ele><time>2026-04-10T14:56:15.813Z</time></trkpt><trkpt lat="44.7131356" lon="8.0884353"><ele>289.0</ele><time>2026-04-10T14:56:17.814Z</time></trkpt><trkpt lat="44.7131032" lon="8.0885181"><ele>289.0</ele><time>2026-04-10T14:56:18.813Z</time></trkpt><trkpt lat="44.7130098" lon="8.0887165"><ele>289.16666666666663</ele><time>2026-04-10T14:56:21.815Z</time></trkpt><trkpt lat="44.7129768" lon="8.0887943"><ele>289.3333333333333</ele><time>2026-04-10T14:56:22.813Z</time></trkpt><trkpt lat="44.7129169" lon="8.0889104"><ele>289.5</ele><time>2026-04-10T14:56:24.813Z</time></trkpt><trkpt lat="44.7128528" lon="8.0890023"><ele>289.6666666666667</ele><time>2026-04-10T14:56:26.813Z</time></trkpt><trkpt lat="44.7127919" lon="8.0890988"><ele>289.83333333333337</ele><time>2026-04-10T14:56:28.813Z</time></trkpt><trkpt lat="44.7127344" lon="8.0891821"><ele>290.0</ele><time>2026-04-10T14:56:30.813Z</time></trkpt><trkpt lat="44.7126808" lon="8.0892459"><ele>291.42857142857144</ele><time>2026-04-10T14:56:32.812Z</time></trkpt><trkpt lat="44.7126347" lon="8.0893183"><ele>292.8571428571429</ele><time>2026-04-10T14:56:34.813Z</time></trkpt><trkpt lat="44.712589" lon="8.0893971"><ele>294.2857142857143</ele><time>2026-04-10T14:56:36.814Z</time></trkpt><trkpt lat="44.71254" lon="8.0894663"><ele>295.7142857142857</ele><time>2026-04-10T14:56:38.814Z</time></trkpt><trkpt lat="44.7124927" lon="8.0895309"><ele>297.1428571428571</ele><time>2026-04-10T14:56:40.814Z</time></trkpt><trkpt lat="44.7124274" lon="8.0896244"><ele>298.57142857142856</ele><time>2026-04-10T14:56:43.812Z</time></trkpt><trkpt lat="44.712383" lon="8.0896915"><ele>300.0</ele><time>2026-04-10T14:56:45.812Z</time></trkpt><trkpt lat="44.7123394" lon="8.0897581"><ele>299.99999999999994</ele><time>2026-04-10T14:56:47.812Z</time></trkpt><trkpt lat="44.7122957" lon="8.0898253"><ele>300.0</ele><time>2026-04-10T14:56:49.812Z</time></trkpt><trkpt lat="44.7122538" lon="8.0898973"><ele>300.0</ele><time>2026-04-10T14:56:51.813Z</time></trkpt><trkpt lat="44.7122109" lon="8.0899675"><ele>300.0</ele><time>2026-04-10T14:56:53.813Z</time></trkpt><trkpt lat="44.7121489" lon="8.0900687"><ele>300.0</ele><time>2026-04-10T14:56:56.813Z</time></trkpt><trkpt lat="44.7121093" lon="8.0901402"><ele>299.99999999999994</ele><time>2026-04-10T14:56:58.813Z</time></trkpt><trkpt lat="44.7120597" lon="8.0902463"><ele>300.0</ele><time>2026-04-10T14:57:01.814Z</time></trkpt><trkpt lat="44.7120122" lon="8.0903552"><ele>299.71428571428567</ele><time>2026-04-10T14:57:04.814Z</time></trkpt><trkpt lat="44.7119646" lon="8.0904597"><ele>299.42857142857144</ele><time>2026-04-10T14:57:07.813Z</time></trkpt><trkpt lat="44.7119112" lon="8.0905674"><ele>299.1428571428571</ele><time>2026-04-10T14:57:10.812Z</time></trkpt><trkpt lat="44.7118701" lon="8.0906367"><ele>298.85714285714283</ele><time>2026-04-10T14:57:12.813Z</time></trkpt><trkpt lat="44.711829" lon="8.0907071"><ele>298.57142857142856</ele><time>2026-04-10T14:57:14.813Z</time></trkpt><trkpt lat="44.7117811" lon="8.09078"><ele>298.2857142857143</ele><time>2026-04-10T14:57:16.813Z</time></trkpt><trkpt lat="44.7117334" lon="8.0908471"><ele>298.0</ele><time>2026-04-10T14:57:18.812Z</time></trkpt><trkpt lat="44.7116783" lon="8.0909104"><ele>299.2857142857143</ele><time>2026-04-10T14:57:20.812Z</time></trkpt><trkpt lat="44.7116209" lon="8.090971"><ele>300.57142857142856</ele><time>2026-04-10T14:57:22.813Z</time></trkpt><trkpt lat="44.7115646" lon="8.0910305"><ele>301.85714285714283</ele><time>2026-04-10T14:57:24.813Z</time></trkpt><trkpt lat="44.7115059" lon="8.0910881"><ele>303.1428571428571</ele><time>2026-04-10T14:57:26.812Z</time></trkpt><trkpt lat="44.7114451" lon="8.0911466"><ele>304.42857142857144</ele><time>2026-04-10T14:57:28.813Z</time></trkpt><trkpt lat="44.7113758" lon="8.0911945"><ele>305.71428571428567</ele><time>2026-04-10T14:57:30.814Z</time></trkpt><trkpt lat="44.7113017" lon="8.0912383"><ele>307.0</ele><time>2026-04-10T14:57:32.812Z</time></trkpt><trkpt lat="44.711225" lon="8.0912738"><ele>307.0</ele><time>2026-04-10T14:57:34.814Z</time></trkpt><trkpt lat="44.7111491" lon="8.0913078"><ele>307.0</ele><time>2026-04-10T14:57:36.812Z</time></trkpt><trkpt lat="44.7110709" lon="8.0913338"><ele>307.0</ele><time>2026-04-10T14:57:38.813Z</time></trkpt><trkpt lat="44.7109882" lon="8.0913473"><ele>307.0</ele><time>2026-04-10T14:57:40.812Z</time></trkpt><trkpt lat="44.710905" lon="8.091351"><ele>307.0</ele><time>2026-04-10T14:57:42.813Z</time></trkpt><trkpt lat="44.710823" lon="8.0913415"><ele>307.0</ele><time>2026-04-10T14:57:44.813Z</time></trkpt><trkpt lat="44.7107422" lon="8.0913193"><ele>306.5</ele><time>2026-04-10T14:57:46.812Z</time></trkpt><trkpt lat="44.7106656" lon="8.0912887"><ele>306.0</ele><time>2026-04-10T14:57:48.813Z</time></trkpt><trkpt lat="44.7105868" lon="8.0912455"><ele>305.5</ele><time>2026-04-10T14:57:50.813Z</time></trkpt><trkpt lat="44.7105087" lon="8.0911996"><ele>305.0</ele><time>2026-04-10T14:57:52.813Z</time></trkpt><trkpt lat="44.7104325" lon="8.0911532"><ele>304.5</ele><time>2026-04-10T14:57:54.813Z</time></trkpt><trkpt lat="44.7103599" lon="8.0911041"><ele>304.0</ele><time>2026-04-10T14:57:56.813Z</time></trkpt><trkpt lat="44.7102854" lon="8.0910551"><ele>303.8333333333333</ele><time>2026-04-10T14:57:58.813Z</time></trkpt><trkpt lat="44.7102113" lon="8.0910048"><ele>303.66666666666663</ele><time>2026-04-10T14:58:00.812Z</time></trkpt><trkpt lat="44.71014" lon="8.0909529"><ele>303.5</ele><time>2026-04-10T14:58:02.813Z</time></trkpt><trkpt lat="44.7100682" lon="8.0908986"><ele>303.3333333333333</ele><time>2026-04-10T14:58:04.813Z</time></trkpt><trkpt lat="44.7099974" lon="8.0908414"><ele>303.1666666666667</ele><time>2026-04-10T14:58:06.812Z</time></trkpt><trkpt lat="44.7099248" lon="8.090783"><ele>303.0</ele><time>2026-04-10T14:58:08.812Z</time></trkpt><trkpt lat="44.7098507" lon="8.0907297"><ele>303.0</ele><time>2026-04-10T14:58:10.813Z</time></trkpt><trkpt lat="44.7097805" lon="8.0906926"><ele>303.0</ele><time>2026-04-10T14:58:12.814Z</time></trkpt><trkpt lat="44.7097001" lon="8.0906621"><ele>303.0</ele><time>2026-04-10T14:58:15.813Z</time></trkpt><trkpt lat="44.7096105" lon="8.0906441"><ele>303.0</ele><time>2026-04-10T14:58:18.813Z</time></trkpt><trkpt lat="44.7095336" lon="8.0906202"><ele>303.0</ele><time>2026-04-10T14:58:20.813Z</time></trkpt><trkpt lat="44.7094407" lon="8.0906072"><ele>303.0</ele><time>2026-04-10T14:58:22.813Z</time></trkpt><trkpt lat="44.7093508" lon="8.0905876"><ele>306.4</ele><time>2026-04-10T14:58:24.814Z</time></trkpt><trkpt lat="44.7092506" lon="8.0905589"><ele>309.8</ele><time>2026-04-10T14:58:26.813Z</time></trkpt><trkpt lat="44.7091524" lon="8.0905143"><ele>313.2</ele><time>2026-04-10T14:58:28.814Z</time></trkpt><trkpt lat="44.7090583" lon="8.0904706"><ele>316.6</ele><time>2026-04-10T14:58:30.812Z</time></trkpt><trkpt lat="44.7089642" lon="8.0904276"><ele>320.0</ele><time>2026-04-10T14:58:32.815Z</time></trkpt><trkpt lat="44.7088823" lon="8.0903796"><ele>320.0</ele><time>2026-04-10T14:58:34.813Z</time></trkpt><trkpt lat="44.7088091" lon="8.0903353"><ele>320.0</ele><time>2026-04-10T14:58:36.812Z</time></trkpt><trkpt lat="44.7087268" lon="8.09027"><ele>320.0</ele><time>2026-04-10T14:58:38.814Z</time></trkpt><trkpt lat="44.7086414" lon="8.0901906"><ele>320.0</ele><time>2026-04-10T14:58:40.813Z</time></trkpt><trkpt lat="44.7085614" lon="8.0900802"><ele>320.0</ele><time>2026-04-10T14:58:42.813Z</time></trkpt><trkpt lat="44.7084737" lon="8.0899599"><ele>320.85714285714283</ele><time>2026-04-10T14:58:44.812Z</time></trkpt><trkpt lat="44.7084238" lon="8.0898928"><ele>321.7142857142857</ele><time>2026-04-10T14:58:45.812Z</time></trkpt><trkpt lat="44.708374" lon="8.0898309"><ele>322.57142857142856</ele><time>2026-04-10T14:58:46.812Z</time></trkpt><trkpt lat="44.7083196" lon="8.089776"><ele>323.42857142857144</ele><time>2026-04-10T14:58:47.812Z</time></trkpt><trkpt lat="44.7082653" lon="8.0897203"><ele>324.2857142857143</ele><time>2026-04-10T14:58:48.812Z</time></trkpt><trkpt lat="44.7082085" lon="8.0896721"><ele>325.14285714285717</ele><time>2026-04-10T14:58:49.813Z</time></trkpt><trkpt lat="44.708153" lon="8.0896247"><ele>326.0</ele><time>2026-04-10T14:58:50.814Z</time></trkpt><trkpt lat="44.7080907" lon="8.0895745"><ele>326.0</ele><time>2026-04-10T14:58:51.813Z</time></trkpt><trkpt lat="44.7080254" lon="8.0895369"><ele>326.0</ele><time>2026-04-10T14:58:52.813Z</time></trkpt><trkpt lat="44.7079615" lon="8.0894956"><ele>326.0</ele><time>2026-04-10T14:58:53.814Z</time></trkpt><trkpt lat="44.707892" lon="8.0894642"><ele>326.0</ele><time>2026-04-10T14:58:54.814Z</time></trkpt><trkpt lat="44.7078339" lon="8.0894289"><ele>326.0</ele><time>2026-04-10T14:58:55.813Z</time></trkpt><trkpt lat="44.7077745" lon="8.0893807"><ele>326.0</ele><time>2026-04-10T14:58:56.812Z</time></trkpt><trkpt lat="44.7077201" lon="8.0893341"><ele>326.0</ele><time>2026-04-10T14:58:57.813Z</time></trkpt><trkpt lat="44.7076252" lon="8.0892115"><ele>325.5714285714286</ele><time>2026-04-10T14:58:59.813Z</time></trkpt><trkpt lat="44.7075781" lon="8.0891486"><ele>325.1428571428571</ele><time>2026-04-10T14:59:00.813Z</time></trkpt><trkpt lat="44.7075379" lon="8.0890763"><ele>324.7142857142857</ele><time>2026-04-10T14:59:01.812Z</time></trkpt><trkpt lat="44.7074938" lon="8.0889998"><ele>324.28571428571433</ele><time>2026-04-10T14:59:02.815Z</time></trkpt><trkpt lat="44.7074498" lon="8.0889218"><ele>323.8571428571429</ele><time>2026-04-10T14:59:03.812Z</time></trkpt><trkpt lat="44.7074093" lon="8.0888353"><ele>323.42857142857144</ele><time>2026-04-10T14:59:04.812Z</time></trkpt><trkpt lat="44.7073638" lon="8.0887588"><ele>323.0</ele><time>2026-04-10T14:59:05.813Z</time></trkpt><trkpt lat="44.7073142" lon="8.088672"><ele>323.00000000000006</ele><time>2026-04-10T14:59:06.813Z</time></trkpt><trkpt lat="44.7072677" lon="8.0885944"><ele>323.0</ele><time>2026-04-10T14:59:07.813Z</time></trkpt><trkpt lat="44.7072251" lon="8.0885083"><ele>323.0</ele><time>2026-04-10T14:59:08.812Z</time></trkpt><trkpt lat="44.7071884" lon="8.0884167"><ele>323.0</ele><time>2026-04-10T14:59:09.812Z</time></trkpt><trkpt lat="44.7071546" lon="8.0883261"><ele>323.0</ele><time>2026-04-10T14:59:10.813Z</time></trkpt><trkpt lat="44.7071249" lon="8.0882274"><ele>323.00000000000006</ele><time>2026-04-10T14:59:11.813Z</time></trkpt><trkpt lat="44.7071166" lon="8.0881227"><ele>323.0</ele><time>2026-04-10T14:59:12.814Z</time></trkpt><trkpt lat="44.7071186" lon="8.0880183"><ele>322.5</ele><time>2026-04-10T14:59:13.813Z</time></trkpt><trkpt lat="44.7071297" lon="8.0879117"><ele>322.0</ele><time>2026-04-10T14:59:14.813Z</time></trkpt><trkpt lat="44.7071592" lon="8.0878103"><ele>321.5</ele><time>2026-04-10T14:59:15.813Z</time></trkpt><trkpt lat="44.7072001" lon="8.0877082"><ele>321.0</ele><time>2026-04-10T14:59:16.813Z</time></trkpt><trkpt lat="44.7072426" lon="8.0876136"><ele>320.5</ele><time>2026-04-10T14:59:17.812Z</time></trkpt><trkpt lat="44.7072793" lon="8.0875185"><ele>320.0</ele><time>2026-04-10T14:59:18.812Z</time></trkpt><trkpt lat="44.7073157" lon="8.0874251"><ele>319.57142857142856</ele><time>2026-04-10T14:59:19.814Z</time></trkpt><trkpt lat="44.7073447" lon="8.0873304"><ele>319.14285714285717</ele><time>2026-04-10T14:59:20.812Z</time></trkpt><trkpt lat="44.7073744" lon="8.0872408"><ele>318.7142857142857</ele><time>2026-04-10T14:59:21.812Z</time></trkpt><trkpt lat="44.7073836" lon="8.0871431"><ele>318.2857142857143</ele><time>2026-04-10T14:59:22.813Z</time></trkpt><trkpt lat="44.7073864" lon="8.0870396"><ele>317.85714285714283</ele><time>2026-04-10T14:59:23.812Z</time></trkpt><trkpt lat="44.7073671" lon="8.0869349"><ele>317.42857142857144</ele><time>2026-04-10T14:59:24.812Z</time></trkpt><trkpt lat="44.707334" lon="8.086846"><ele>317.0</ele><time>2026-04-10T14:59:25.813Z</time></trkpt><trkpt lat="44.7072927" lon="8.0867678"><ele>317.0</ele><time>2026-04-10T14:59:26.813Z</time></trkpt><trkpt lat="44.7072471" lon="8.086693"><ele>317.0</ele><time>2026-04-10T14:59:27.813Z</time></trkpt><trkpt lat="44.7071934" lon="8.0866154"><ele>317.0</ele><time>2026-04-10T14:59:28.812Z</time></trkpt><trkpt lat="44.7071413" lon="8.0865414"><ele>317.0</ele><time>2026-04-10T14:59:29.813Z</time></trkpt><trkpt lat="44.7070916" lon="8.0864699"><ele>317.0</ele><time>2026-04-10T14:59:30.812Z</time></trkpt><trkpt lat="44.7070389" lon="8.0863936"><ele>317.0</ele><time>2026-04-10T14:59:31.813Z</time></trkpt><trkpt lat="44.7069834" lon="8.0863197"><ele>317.0</ele><time>2026-04-10T14:59:32.814Z</time></trkpt><trkpt lat="44.706926" lon="8.0862433"><ele>317.14285714285717</ele><time>2026-04-10T14:59:33.813Z</time></trkpt><trkpt lat="44.7068677" lon="8.0861663"><ele>317.2857142857143</ele><time>2026-04-10T14:59:34.813Z</time></trkpt><trkpt lat="44.7068105" lon="8.0860922"><ele>317.42857142857144</ele><time>2026-04-10T14:59:35.814Z</time></trkpt><trkpt lat="44.7067585" lon="8.0860229"><ele>317.57142857142856</ele><time>2026-04-10T14:59:36.812Z</time></trkpt><trkpt lat="44.7067058" lon="8.0859547"><ele>317.7142857142857</ele><time>2026-04-10T14:59:37.813Z</time></trkpt><trkpt lat="44.7066538" lon="8.0858813"><ele>317.85714285714283</ele><time>2026-04-10T14:59:38.814Z</time></trkpt><trkpt lat="44.7066048" lon="8.0858016"><ele>318.0</ele><time>2026-04-10T14:59:39.812Z</time></trkpt><trkpt lat="44.7065529" lon="8.0857201"><ele>316.7142857142857</ele><time>2026-04-10T14:59:40.814Z</time></trkpt><trkpt lat="44.7065171" lon="8.085637"><ele>315.42857142857144</ele><time>2026-04-10T14:59:41.812Z</time></trkpt><trkpt lat="44.7064821" lon="8.0855468"><ele>314.14285714285717</ele><time>2026-04-10T14:59:42.813Z</time></trkpt><trkpt lat="44.7064491" lon="8.0854518"><ele>312.8571428571429</ele><time>2026-04-10T14:59:43.812Z</time></trkpt><trkpt lat="44.7064214" lon="8.0853567"><ele>311.57142857142856</ele><time>2026-04-10T14:59:44.812Z</time></trkpt><trkpt lat="44.7063907" lon="8.0852582"><ele>310.28571428571433</ele><time>2026-04-10T14:59:45.814Z</time></trkpt><trkpt lat="44.7063557" lon="8.0851633"><ele>309.0</ele><time>2026-04-10T14:59:46.812Z</time></trkpt><trkpt lat="44.7063238" lon="8.0850633"><ele>309.00000000000006</ele><time>2026-04-10T14:59:47.813Z</time></trkpt><trkpt lat="44.7062916" lon="8.0849681"><ele>309.0</ele><time>2026-04-10T14:59:48.813Z</time></trkpt><trkpt lat="44.7062538" lon="8.0848776"><ele>309.0</ele><time>2026-04-10T14:59:49.812Z</time></trkpt><trkpt lat="44.7062221" lon="8.0847784"><ele>309.0</ele><time>2026-04-10T14:59:50.812Z</time></trkpt><trkpt lat="44.7061886" lon="8.0846869"><ele>309.0</ele><time>2026-04-10T14:59:51.812Z</time></trkpt><trkpt lat="44.7061602" lon="8.0845913"><ele>309.00000000000006</ele><time>2026-04-10T14:59:52.813Z</time></trkpt><trkpt lat="44.7061327" lon="8.0844928"><ele>309.0</ele><time>2026-04-10T14:59:53.812Z</time></trkpt><trkpt lat="44.7060962" lon="8.0843981"><ele>310.14285714285717</ele><time>2026-04-10T14:59:54.812Z</time></trkpt><trkpt lat="44.7060618" lon="8.0843031"><ele>311.2857142857143</ele><time>2026-04-10T14:59:55.812Z</time></trkpt><trkpt lat="44.7060196" lon="8.084205"><ele>312.42857142857144</ele><time>2026-04-10T14:59:56.812Z</time></trkpt><trkpt lat="44.7059844" lon="8.0841081"><ele>313.57142857142856</ele><time>2026-04-10T14:59:57.814Z</time></trkpt><trkpt lat="44.7059451" lon="8.0840155"><ele>314.7142857142857</ele><time>2026-04-10T14:59:58.814Z</time></trkpt><trkpt lat="44.7059129" lon="8.0839367"><ele>315.8571428571429</ele><time>2026-04-10T14:59:59.814Z</time></trkpt><trkpt lat="44.7058806" lon="8.0838509"><ele>317.0</ele><time>2026-04-10T15:00:00.812Z</time></trkpt><trkpt lat="44.7058434" lon="8.083753"><ele>317.0</ele><time>2026-04-10T15:00:01.813Z</time></trkpt><trkpt lat="44.7058087" lon="8.0836594"><ele>317.0</ele><time>2026-04-10T15:00:02.813Z</time></trkpt><trkpt lat="44.7057733" lon="8.0835715"><ele>317.0</ele><time>2026-04-10T15:00:03.812Z</time></trkpt><trkpt lat="44.7057319" lon="8.0834826"><ele>317.0</ele><time>2026-04-10T15:00:04.813Z</time></trkpt><trkpt lat="44.7056905" lon="8.0833876"><ele>317.0</ele><time>2026-04-10T15:00:05.814Z</time></trkpt><trkpt lat="44.7056406" lon="8.0833084"><ele>317.0</ele><time>2026-04-10T15:00:06.812Z</time></trkpt><trkpt lat="44.7055909" lon="8.083225"><ele>315.6666666666667</ele><time>2026-04-10T15:00:07.812Z</time></trkpt><trkpt lat="44.7055318" lon="8.083126"><ele>314.33333333333337</ele><time>2026-04-10T15:00:08.812Z</time></trkpt><trkpt lat="44.7054786" lon="8.0830443"><ele>313.0</ele><time>2026-04-10T15:00:09.812Z</time></trkpt><trkpt lat="44.7054294" lon="8.082957"><ele>311.6666666666667</ele><time>2026-04-10T15:00:10.813Z</time></trkpt><trkpt lat="44.7053815" lon="8.0828623"><ele>310.3333333333333</ele><time>2026-04-10T15:00:11.812Z</time></trkpt><trkpt lat="44.7053381" lon="8.0827789"><ele>309.0</ele><time>2026-04-10T15:00:12.813Z</time></trkpt><trkpt lat="44.7052868" lon="8.0826889"><ele>308.8333333333333</ele><time>2026-04-10T15:00:13.813Z</time></trkpt><trkpt lat="44.7052321" lon="8.0826024"><ele>308.6666666666667</ele><time>2026-04-10T15:00:14.813Z</time></trkpt><trkpt lat="44.7051834" lon="8.0825131"><ele>308.5</ele><time>2026-04-10T15:00:15.813Z</time></trkpt><trkpt lat="44.7051267" lon="8.082421"><ele>308.33333333333337</ele><time>2026-04-10T15:00:16.812Z</time></trkpt><trkpt lat="44.7050732" lon="8.0823315"><ele>308.1666666666667</ele><time>2026-04-10T15:00:17.813Z</time></trkpt><trkpt lat="44.7050226" lon="8.0822426"><ele>308.0</ele><time>2026-04-10T15:00:18.812Z</time></trkpt><trkpt lat="44.7049688" lon="8.0821518"><ele>308.0</ele><time>2026-04-10T15:00:19.812Z</time></trkpt><trkpt lat="44.7049175" lon="8.0820596"><ele>308.0</ele><time>2026-04-10T15:00:20.812Z</time></trkpt><trkpt lat="44.7048616" lon="8.0819746"><ele>308.0</ele><time>2026-04-10T15:00:21.814Z</time></trkpt><trkpt lat="44.7048046" lon="8.0818884"><ele>308.0</ele><time>2026-04-10T15:00:22.814Z</time></trkpt><trkpt lat="44.7047503" lon="8.0818072"><ele>308.0</ele><time>2026-04-10T15:00:23.814Z</time></trkpt><trkpt lat="44.7047" lon="8.0817202"><ele>308.0</ele><time>2026-04-10T15:00:24.812Z</time></trkpt><trkpt lat="44.7046476" lon="8.0816376"><ele>309.83333333333337</ele><time>2026-04-10T15:00:25.812Z</time></trkpt><trkpt lat="44.704594" lon="8.0815526"><ele>311.6666666666667</ele><time>2026-04-10T15:00:26.812Z</time></trkpt><trkpt lat="44.7045425" lon="8.081464"><ele>313.5</ele><time>2026-04-10T15:00:27.813Z</time></trkpt><trkpt lat="44.7044923" lon="8.0813841"><ele>315.3333333333333</ele><time>2026-04-10T15:00:28.813Z</time></trkpt><trkpt lat="44.704443" lon="8.0813045"><ele>317.16666666666663</ele><time>2026-04-10T15:00:29.812Z</time></trkpt><trkpt lat="44.7043919" lon="8.0812176"><ele>319.0</ele><time>2026-04-10T15:00:30.813Z</time></trkpt><trkpt lat="44.7043448" lon="8.0811249"><ele>319.0</ele><time>2026-04-10T15:00:31.812Z</time></trkpt><trkpt lat="44.704304" lon="8.08105"><ele>319.0</ele><time>2026-04-10T15:00:32.814Z</time></trkpt><trkpt lat="44.7042609" lon="8.0809674"><ele>319.0</ele><time>2026-04-10T15:00:33.813Z</time></trkpt><trkpt lat="44.7042203" lon="8.080876"><ele>319.0</ele><time>2026-04-10T15:00:34.813Z</time></trkpt><trkpt lat="44.7041875" lon="8.080784"><ele>319.0</ele><time>2026-04-10T15:00:35.813Z</time></trkpt><trkpt lat="44.7041667" lon="8.0806853"><ele>319.0</ele><time>2026-04-10T15:00:36.812Z</time></trkpt><trkpt lat="44.704154" lon="8.0805873"><ele>319.0</ele><time>2026-04-10T15:00:37.813Z</time></trkpt><trkpt lat="44.704155" lon="8.0804824"><ele>318.66666666666663</ele><time>2026-04-10T15:00:38.812Z</time></trkpt><trkpt lat="44.7041616" lon="8.0803721"><ele>318.3333333333333</ele><time>2026-04-10T15:00:39.812Z</time></trkpt><trkpt lat="44.7041825" lon="8.0802676"><ele>318.0</ele><time>2026-04-10T15:00:40.811Z</time></trkpt><trkpt lat="44.7042134" lon="8.080169"><ele>317.6666666666667</ele><time>2026-04-10T15:00:41.812Z</time></trkpt><trkpt lat="44.7042533" lon="8.0800672"><ele>317.33333333333337</ele><time>2026-04-10T15:00:42.812Z</time></trkpt><trkpt lat="44.7042993" lon="8.0799738"><ele>317.0</ele><time>2026-04-10T15:00:43.812Z</time></trkpt><trkpt lat="44.7043464" lon="8.0798804"><ele>317.0</ele><time>2026-04-10T15:00:44.812Z</time></trkpt><trkpt lat="44.7043955" lon="8.0797788"><ele>317.0</ele><time>2026-04-10T15:00:45.812Z</time></trkpt><trkpt lat="44.7044454" lon="8.079679"><ele>317.0</ele><time>2026-04-10T15:00:46.813Z</time></trkpt><trkpt lat="44.7044924" lon="8.0795872"><ele>317.0</ele><time>2026-04-10T15:00:47.812Z</time></trkpt><trkpt lat="44.7045418" lon="8.079492"><ele>317.0</ele><time>2026-04-10T15:00:48.812Z</time></trkpt><trkpt lat="44.7045934" lon="8.0793958"><ele>317.0</ele><time>2026-04-10T15:00:49.813Z</time></trkpt><trkpt lat="44.7046434" lon="8.0792984"><ele>315.0</ele><time>2026-04-10T15:00:50.811Z</time></trkpt><trkpt lat="44.7046933" lon="8.0791955"><ele>313.0</ele><time>2026-04-10T15:00:51.812Z</time></trkpt><trkpt lat="44.7047459" lon="8.0790924"><ele>311.0</ele><time>2026-04-10T15:00:52.813Z</time></trkpt><trkpt lat="44.7047973" lon="8.0789915"><ele>309.0</ele><time>2026-04-10T15:00:53.811Z</time></trkpt><trkpt lat="44.7048478" lon="8.0788903"><ele>307.0</ele><time>2026-04-10T15:00:54.813Z</time></trkpt><trkpt lat="44.7049007" lon="8.0787842"><ele>305.0</ele><time>2026-04-10T15:00:55.813Z</time></trkpt><trkpt lat="44.7049446" lon="8.0786789"><ele>305.0</ele><time>2026-04-10T15:00:56.813Z</time></trkpt><trkpt lat="44.7049857" lon="8.0785729"><ele>305.0</ele><time>2026-04-10T15:00:57.812Z</time></trkpt><trkpt lat="44.7050139" lon="8.0784563"><ele>305.0</ele><time>2026-04-10T15:00:58.814Z</time></trkpt><trkpt lat="44.7050271" lon="8.0783305"><ele>305.0</ele><time>2026-04-10T15:00:59.812Z</time></trkpt><trkpt lat="44.7050318" lon="8.078208"><ele>305.0</ele><time>2026-04-10T15:01:00.813Z</time></trkpt><trkpt lat="44.7050273" lon="8.0780803"><ele>305.0</ele><time>2026-04-10T15:01:01.813Z</time></trkpt><trkpt lat="44.7050244" lon="8.0779477"><ele>304.6</ele><time>2026-04-10T15:01:02.813Z</time></trkpt><trkpt lat="44.7050227" lon="8.0778133"><ele>304.2</ele><time>2026-04-10T15:01:03.812Z</time></trkpt><trkpt lat="44.7050171" lon="8.0776725"><ele>303.8</ele><time>2026-04-10T15:01:04.814Z</time></trkpt><trkpt lat="44.705015" lon="8.0775371"><ele>303.4</ele><time>2026-04-10T15:01:05.812Z</time></trkpt><trkpt lat="44.7050115" lon="8.0773992"><ele>303.0</ele><time>2026-04-10T15:01:06.812Z</time></trkpt><trkpt lat="44.7050058" lon="8.0772676"><ele>303.0</ele><time>2026-04-10T15:01:07.814Z</time></trkpt><trkpt lat="44.7050064" lon="8.077132"><ele>303.0</ele><time>2026-04-10T15:01:08.812Z</time></trkpt><trkpt lat="44.7050103" lon="8.0769857"><ele>303.0</ele><time>2026-04-10T15:01:09.812Z</time></trkpt><trkpt lat="44.7050337" lon="8.0768454"><ele>303.0</ele><time>2026-04-10T15:01:10.813Z</time></trkpt><trkpt lat="44.7050711" lon="8.0767123"><ele>303.0</ele><time>2026-04-10T15:01:11.814Z</time></trkpt><trkpt lat="44.7051257" lon="8.0765764"><ele>302.8</ele><time>2026-04-10T15:01:12.812Z</time></trkpt><trkpt lat="44.7051857" lon="8.0764504"><ele>302.6</ele><time>2026-04-10T15:01:13.812Z</time></trkpt><trkpt lat="44.7052455" lon="8.0763214"><ele>302.4</ele><time>2026-04-10T15:01:14.813Z</time></trkpt><trkpt lat="44.7052981" lon="8.0761922"><ele>302.2</ele><time>2026-04-10T15:01:15.813Z</time></trkpt><trkpt lat="44.7053434" lon="8.0760526"><ele>302.0</ele><time>2026-04-10T15:01:16.813Z</time></trkpt><trkpt lat="44.7053808" lon="8.0759021"><ele>298.25</ele><time>2026-04-10T15:01:17.812Z</time></trkpt><trkpt lat="44.7054176" lon="8.075749"><ele>294.5</ele><time>2026-04-10T15:01:18.813Z</time></trkpt><trkpt lat="44.7054508" lon="8.0755947"><ele>290.75</ele><time>2026-04-10T15:01:19.812Z</time></trkpt><trkpt lat="44.7054859" lon="8.0754392"><ele>287.0</ele><time>2026-04-10T15:01:20.812Z</time></trkpt><trkpt lat="44.7055229" lon="8.0752858"><ele>287.0</ele><time>2026-04-10T15:01:21.813Z</time></trkpt><trkpt lat="44.7055592" lon="8.0751322"><ele>287.0</ele><time>2026-04-10T15:01:22.813Z</time></trkpt><trkpt lat="44.70559" lon="8.0749665"><ele>287.0</ele><time>2026-04-10T15:01:23.812Z</time></trkpt><trkpt lat="44.7056145" lon="8.0748083"><ele>287.0</ele><time>2026-04-10T15:01:24.811Z</time></trkpt><trkpt lat="44.7056417" lon="8.0746484"><ele>286.5</ele><time>2026-04-10T15:01:25.812Z</time></trkpt><trkpt lat="44.705657" lon="8.0744859"><ele>286.0</ele><time>2026-04-10T15:01:26.813Z</time></trkpt><trkpt lat="44.7056625" lon="8.0743184"><ele>285.5</ele><time>2026-04-10T15:01:27.813Z</time></trkpt><trkpt lat="44.7056673" lon="8.0741398"><ele>285.0</ele><time>2026-04-10T15:01:28.812Z</time></trkpt><trkpt lat="44.7056667" lon="8.0739651"><ele>284.25</ele><time>2026-04-10T15:01:29.812Z</time></trkpt><trkpt lat="44.7056685" lon="8.0737877"><ele>283.5</ele><time>2026-04-10T15:01:30.814Z</time></trkpt><trkpt lat="44.7056718" lon="8.0736128"><ele>282.75</ele><time>2026-04-10T15:01:31.811Z</time></trkpt><trkpt lat="44.7056768" lon="8.0734431"><ele>282.0</ele><time>2026-04-10T15:01:32.814Z</time></trkpt><trkpt lat="44.7056722" lon="8.0732686"><ele>281.75</ele><time>2026-04-10T15:01:33.812Z</time></trkpt><trkpt lat="44.7056734" lon="8.0730944"><ele>281.5</ele><time>2026-04-10T15:01:34.813Z</time></trkpt><trkpt lat="44.7056848" lon="8.0729157"><ele>281.25</ele><time>2026-04-10T15:01:35.813Z</time></trkpt><trkpt lat="44.7057043" lon="8.0727465"><ele>281.0</ele><time>2026-04-10T15:01:36.812Z</time></trkpt><trkpt lat="44.7057284" lon="8.072577"><ele>280.25</ele><time>2026-04-10T15:01:37.812Z</time></trkpt><trkpt lat="44.7057565" lon="8.0724112"><ele>279.5</ele><time>2026-04-10T15:01:38.81Z</time></trkpt><trkpt lat="44.7057916" lon="8.0722482"><ele>278.75</ele><time>2026-04-10T15:01:39.813Z</time></trkpt><trkpt lat="44.7058262" lon="8.0720775"><ele>278.0</ele><time>2026-04-10T15:01:40.813Z</time></trkpt><trkpt lat="44.7058569" lon="8.0719108"><ele>278.0</ele><time>2026-04-10T15:01:41.813Z</time></trkpt><trkpt lat="44.7058781" lon="8.0717481"><ele>278.0</ele><time>2026-04-10T15:01:42.813Z</time></trkpt><trkpt lat="44.7058917" lon="8.0715882"><ele>278.0</ele><time>2026-04-10T15:01:43.813Z</time></trkpt><trkpt lat="44.7058932" lon="8.0714324"><ele>278.0</ele><time>2026-04-10T15:01:44.811Z</time></trkpt><trkpt lat="44.705882" lon="8.0712671"><ele>277.4</ele><time>2026-04-10T15:01:45.814Z</time></trkpt><trkpt lat="44.7058663" lon="8.0711152"><ele>276.8</ele><time>2026-04-10T15:01:46.811Z</time></trkpt><trkpt lat="44.7058489" lon="8.0709773"><ele>276.2</ele><time>2026-04-10T15:01:47.812Z</time></trkpt><trkpt lat="44.7058443" lon="8.0708499"><ele>275.6</ele><time>2026-04-10T15:01:48.812Z</time></trkpt><trkpt lat="44.7058564" lon="8.0707305"><ele>275.0</ele><time>2026-04-10T15:01:49.812Z</time></trkpt><trkpt lat="44.7058834" lon="8.0706134"><ele>274.4</ele><time>2026-04-10T15:01:50.811Z</time></trkpt><trkpt lat="44.7059378" lon="8.07051"><ele>273.8</ele><time>2026-04-10T15:01:51.812Z</time></trkpt><trkpt lat="44.7060097" lon="8.0704431"><ele>273.2</ele><time>2026-04-10T15:01:52.812Z</time></trkpt><trkpt lat="44.7060937" lon="8.0703788"><ele>272.6</ele><time>2026-04-10T15:01:53.812Z</time></trkpt><trkpt lat="44.7061826" lon="8.0703363"><ele>272.0</ele><time>2026-04-10T15:01:54.811Z</time></trkpt><trkpt lat="44.7062713" lon="8.0702952"><ele>272.0</ele><time>2026-04-10T15:01:55.812Z</time></trkpt><trkpt lat="44.7063634" lon="8.0702518"><ele>272.0</ele><time>2026-04-10T15:01:56.812Z</time></trkpt><trkpt lat="44.7064583" lon="8.0702082"><ele>272.0</ele><time>2026-04-10T15:01:57.813Z</time></trkpt><trkpt lat="44.7065528" lon="8.0701592"><ele>272.0</ele><time>2026-04-10T15:01:58.812Z</time></trkpt><trkpt lat="44.7066479" lon="8.0701093"><ele>272.0</ele><time>2026-04-10T15:01:59.814Z</time></trkpt><trkpt lat="44.7067393" lon="8.0700385"><ele>272.0</ele><time>2026-04-10T15:02:00.812Z</time></trkpt><trkpt lat="44.7068273" lon="8.0699636"><ele>272.0</ele><time>2026-04-10T15:02:01.812Z</time></trkpt><trkpt lat="44.7069018" lon="8.0698745"><ele>272.0</ele><time>2026-04-10T15:02:02.813Z</time></trkpt><trkpt lat="44.7069746" lon="8.0697657"><ele>272.0</ele><time>2026-04-10T15:02:03.813Z</time></trkpt><trkpt lat="44.7070411" lon="8.0696547"><ele>272.0</ele><time>2026-04-10T15:02:04.812Z</time></trkpt><trkpt lat="44.7071057" lon="8.0695354"><ele>272.0</ele><time>2026-04-10T15:02:05.813Z</time></trkpt><trkpt lat="44.7071686" lon="8.0694076"><ele>272.0</ele><time>2026-04-10T15:02:06.812Z</time></trkpt><trkpt lat="44.7072231" lon="8.069274"><ele>272.0</ele><time>2026-04-10T15:02:07.812Z</time></trkpt><trkpt lat="44.7072693" lon="8.0691282"><ele>272.0</ele><time>2026-04-10T15:02:08.812Z</time></trkpt><trkpt lat="44.7073069" lon="8.0689882"><ele>272.0</ele><time>2026-04-10T15:02:09.814Z</time></trkpt><trkpt lat="44.7073395" lon="8.0688418"><ele>269.25</ele><time>2026-04-10T15:02:10.812Z</time></trkpt><trkpt lat="44.7073692" lon="8.0686946"><ele>266.5</ele><time>2026-04-10T15:02:11.812Z</time></trkpt><trkpt lat="44.7074039" lon="8.0685416"><ele>263.75</ele><time>2026-04-10T15:02:12.813Z</time></trkpt><trkpt lat="44.707442" lon="8.0683912"><ele>261.0</ele><time>2026-04-10T15:02:13.813Z</time></trkpt><trkpt lat="44.7074754" lon="8.0682389"><ele>258.6</ele><time>2026-04-10T15:02:14.813Z</time></trkpt><trkpt lat="44.7075049" lon="8.0680932"><ele>256.20000000000005</ele><time>2026-04-10T15:02:15.812Z</time></trkpt><trkpt lat="44.7075433" lon="8.0679682"><ele>253.79999999999998</ele><time>2026-04-10T15:02:16.813Z</time></trkpt><trkpt lat="44.707582" lon="8.0678517"><ele>251.39999999999998</ele><time>2026-04-10T15:02:17.812Z</time></trkpt><trkpt lat="44.707641" lon="8.0677414"><ele>249.0</ele><time>2026-04-10T15:02:18.812Z</time></trkpt><trkpt lat="44.7077191" lon="8.0676625"><ele>250.0</ele><time>2026-04-10T15:02:19.813Z</time></trkpt><trkpt lat="44.7078031" lon="8.0675941"><ele>250.99999999999997</ele><time>2026-04-10T15:02:20.812Z</time></trkpt><trkpt lat="44.7078928" lon="8.0675726"><ele>251.99999999999997</ele><time>2026-04-10T15:02:21.812Z</time></trkpt><trkpt lat="44.7079802" lon="8.0675705"><ele>253.0</ele><time>2026-04-10T15:02:22.812Z</time></trkpt><trkpt lat="44.7080716" lon="8.067571"><ele>254.0</ele><time>2026-04-10T15:02:23.812Z</time></trkpt><trkpt lat="44.7081676" lon="8.0675668"><ele>254.0</ele><time>2026-04-10T15:02:24.812Z</time></trkpt><trkpt lat="44.7082591" lon="8.0675563"><ele>253.99999999999997</ele><time>2026-04-10T15:02:25.812Z</time></trkpt><trkpt lat="44.7083468" lon="8.0675348"><ele>253.99999999999997</ele><time>2026-04-10T15:02:26.812Z</time></trkpt><trkpt lat="44.7084361" lon="8.0674973"><ele>254.0</ele><time>2026-04-10T15:02:27.812Z</time></trkpt><trkpt lat="44.7085251" lon="8.0674477"><ele>254.0</ele><time>2026-04-10T15:02:28.813Z</time></trkpt><trkpt lat="44.7086177" lon="8.0673924"><ele>252.79999999999998</ele><time>2026-04-10T15:02:29.813Z</time></trkpt><trkpt lat="44.7087083" lon="8.0673338"><ele>251.59999999999997</ele><time>2026-04-10T15:02:30.813Z</time></trkpt><trkpt lat="44.7087962" lon="8.0672717"><ele>250.4</ele><time>2026-04-10T15:02:31.814Z</time></trkpt><trkpt lat="44.7088799" lon="8.0672089"><ele>249.2</ele><time>2026-04-10T15:02:32.811Z</time></trkpt><trkpt lat="44.7089686" lon="8.067138"><ele>248.0</ele><time>2026-04-10T15:02:33.811Z</time></trkpt><trkpt lat="44.7090521" lon="8.0670539"><ele>248.0</ele><time>2026-04-10T15:02:34.812Z</time></trkpt><trkpt lat="44.7091288" lon="8.0669601"><ele>248.0</ele><time>2026-04-10T15:02:35.812Z</time></trkpt><trkpt lat="44.7091954" lon="8.0668518"><ele>248.0</ele><time>2026-04-10T15:02:36.812Z</time></trkpt><trkpt lat="44.7092526" lon="8.0667318"><ele>248.0</ele><time>2026-04-10T15:02:37.812Z</time></trkpt><trkpt lat="44.7093027" lon="8.0666047"><ele>248.0</ele><time>2026-04-10T15:02:38.813Z</time></trkpt><trkpt lat="44.7093466" lon="8.066466"><ele>247.60000000000002</ele><time>2026-04-10T15:02:39.813Z</time></trkpt><trkpt lat="44.7093896" lon="8.0663273"><ele>247.20000000000002</ele><time>2026-04-10T15:02:40.814Z</time></trkpt><trkpt lat="44.7094347" lon="8.0661881"><ele>246.8</ele><time>2026-04-10T15:02:41.812Z</time></trkpt><trkpt lat="44.7094799" lon="8.0660395"><ele>246.4</ele><time>2026-04-10T15:02:42.814Z</time></trkpt><trkpt lat="44.709529" lon="8.0659042"><ele>246.0</ele><time>2026-04-10T15:02:43.811Z</time></trkpt><trkpt lat="44.7095689" lon="8.0657459"><ele>246.0</ele><time>2026-04-10T15:02:44.812Z</time></trkpt><trkpt lat="44.7096015" lon="8.0655862"><ele>246.00000000000003</ele><time>2026-04-10T15:02:45.812Z</time></trkpt><trkpt lat="44.7096164" lon="8.065435"><ele>246.00000000000003</ele><time>2026-04-10T15:02:46.813Z</time></trkpt><trkpt lat="44.7096188" lon="8.0652815"><ele>246.0</ele><time>2026-04-10T15:02:47.812Z</time></trkpt><trkpt lat="44.7096076" lon="8.0651236"><ele>246.0</ele><time>2026-04-10T15:02:48.812Z</time></trkpt><trkpt lat="44.7095967" lon="8.0649602"><ele>244.25</ele><time>2026-04-10T15:02:49.812Z</time></trkpt><trkpt lat="44.7095853" lon="8.0647986"><ele>242.5</ele><time>2026-04-10T15:02:50.811Z</time></trkpt><trkpt lat="44.709571" lon="8.0646329"><ele>240.75</ele><time>2026-04-10T15:02:51.811Z</time></trkpt><trkpt lat="44.7095562" lon="8.064471"><ele>239.0</ele><time>2026-04-10T15:02:52.813Z</time></trkpt><trkpt lat="44.7095518" lon="8.0642988"><ele>239.0</ele><time>2026-04-10T15:02:53.813Z</time></trkpt><trkpt lat="44.7095425" lon="8.0641356"><ele>238.99999999999997</ele><time>2026-04-10T15:02:54.812Z</time></trkpt><trkpt lat="44.7095328" lon="8.0639797"><ele>238.99999999999997</ele><time>2026-04-10T15:02:55.811Z</time></trkpt><trkpt lat="44.7095361" lon="8.0638366"><ele>239.0</ele><time>2026-04-10T15:02:56.811Z</time></trkpt><trkpt lat="44.709553" lon="8.0636984"><ele>239.0</ele><time>2026-04-10T15:02:57.812Z</time></trkpt><trkpt lat="44.7095916" lon="8.0635827"><ele>238.2</ele><time>2026-04-10T15:02:58.814Z</time></trkpt><trkpt lat="44.7096499" lon="8.0634756"><ele>237.39999999999998</ele><time>2026-04-10T15:02:59.813Z</time></trkpt><trkpt lat="44.7097173" lon="8.0633833"><ele>236.6</ele><time>2026-04-10T15:03:00.812Z</time></trkpt><trkpt lat="44.7097876" lon="8.0632995"><ele>235.8</ele><time>2026-04-10T15:03:01.814Z</time></trkpt><trkpt lat="44.7098573" lon="8.0632119"><ele>235.0</ele><time>2026-04-10T15:03:02.813Z</time></trkpt><trkpt lat="44.7099211" lon="8.063119"><ele>233.33333333333331</ele><time>2026-04-10T15:03:03.814Z</time></trkpt><trkpt lat="44.7099797" lon="8.0630139"><ele>231.66666666666666</ele><time>2026-04-10T15:03:04.814Z</time></trkpt><trkpt lat="44.7100142" lon="8.0628999"><ele>230.0</ele><time>2026-04-10T15:03:05.811Z</time></trkpt><trkpt lat="44.7100243" lon="8.0627872"><ele>228.33333333333331</ele><time>2026-04-10T15:03:06.812Z</time></trkpt><trkpt lat="44.7100009" lon="8.0626795"><ele>226.66666666666666</ele><time>2026-04-10T15:03:07.812Z</time></trkpt><trkpt lat="44.7099516" lon="8.0625868"><ele>225.0</ele><time>2026-04-10T15:03:08.813Z</time></trkpt><trkpt lat="44.70988" lon="8.062517"><ele>225.0</ele><time>2026-04-10T15:03:09.812Z</time></trkpt><trkpt lat="44.7098049" lon="8.0624781"><ele>225.0</ele><time>2026-04-10T15:03:10.812Z</time></trkpt><trkpt lat="44.7097281" lon="8.0624662"><ele>225.0</ele><time>2026-04-10T15:03:11.811Z</time></trkpt><trkpt lat="44.7096452" lon="8.062483"><ele>225.0</ele><time>2026-04-10T15:03:12.812Z</time></trkpt><trkpt lat="44.7095618" lon="8.0625082"><ele>225.0</ele><time>2026-04-10T15:03:13.812Z</time></trkpt><trkpt lat="44.7094824" lon="8.0625537"><ele>225.0</ele><time>2026-04-10T15:03:14.812Z</time></trkpt><trkpt lat="44.7094099" lon="8.0626273"><ele>222.8</ele><time>2026-04-10T15:03:15.812Z</time></trkpt><trkpt lat="44.7093493" lon="8.062728"><ele>220.6</ele><time>2026-04-10T15:03:16.814Z</time></trkpt><trkpt lat="44.709313" lon="8.0628483"><ele>218.39999999999998</ele><time>2026-04-10T15:03:17.812Z</time></trkpt><trkpt lat="44.7092946" lon="8.0629809"><ele>216.2</ele><time>2026-04-10T15:03:18.813Z</time></trkpt><trkpt lat="44.7092881" lon="8.0631078"><ele>214.0</ele><time>2026-04-10T15:03:19.813Z</time></trkpt><trkpt lat="44.709272" lon="8.063243"><ele>214.39999999999998</ele><time>2026-04-10T15:03:20.813Z</time></trkpt><trkpt lat="44.7092636" lon="8.0633816"><ele>214.79999999999998</ele><time>2026-04-10T15:03:21.813Z</time></trkpt><trkpt lat="44.7092417" lon="8.063519"><ele>215.20000000000002</ele><time>2026-04-10T15:03:22.812Z</time></trkpt><trkpt lat="44.7092236" lon="8.0636542"><ele>215.60000000000002</ele><time>2026-04-10T15:03:23.813Z</time></trkpt><trkpt lat="44.7092044" lon="8.0637902"><ele>216.0</ele><time>2026-04-10T15:03:24.813Z</time></trkpt><trkpt lat="44.7091828" lon="8.0639311"><ele>216.0</ele><time>2026-04-10T15:03:25.813Z</time></trkpt><trkpt lat="44.7091615" lon="8.0640736"><ele>216.00000000000003</ele><time>2026-04-10T15:03:26.812Z</time></trkpt><trkpt lat="44.7091392" lon="8.064209"><ele>216.00000000000003</ele><time>2026-04-10T15:03:27.812Z</time></trkpt><trkpt lat="44.7091251" lon="8.0643543"><ele>216.0</ele><time>2026-04-10T15:03:28.812Z</time></trkpt><trkpt lat="44.7091083" lon="8.064499"><ele>216.0</ele><time>2026-04-10T15:03:29.813Z</time></trkpt><trkpt lat="44.7090982" lon="8.0646548"><ele>216.60000000000002</ele><time>2026-04-10T15:03:30.812Z</time></trkpt><trkpt lat="44.7090864" lon="8.0647921"><ele>217.20000000000002</ele><time>2026-04-10T15:03:31.812Z</time></trkpt><trkpt lat="44.7090652" lon="8.0649256"><ele>217.79999999999998</ele><time>2026-04-10T15:03:32.812Z</time></trkpt><trkpt lat="44.7090401" lon="8.0650525"><ele>218.39999999999998</ele><time>2026-04-10T15:03:33.813Z</time></trkpt><trkpt lat="44.70899" lon="8.0651628"><ele>219.0</ele><time>2026-04-10T15:03:34.814Z</time></trkpt><trkpt lat="44.7089072" lon="8.0652391"><ele>220.0</ele><time>2026-04-10T15:03:35.811Z</time></trkpt><trkpt lat="44.7088133" lon="8.0652818"><ele>220.99999999999997</ele><time>2026-04-10T15:03:36.812Z</time></trkpt><trkpt lat="44.7087099" lon="8.0652954"><ele>221.99999999999997</ele><time>2026-04-10T15:03:37.811Z</time></trkpt><trkpt lat="44.7086037" lon="8.0652863"><ele>223.0</ele><time>2026-04-10T15:03:38.812Z</time></trkpt><trkpt lat="44.7085016" lon="8.065249"><ele>224.0</ele><time>2026-04-10T15:03:39.812Z</time></trkpt><trkpt lat="44.7084025" lon="8.0651845"><ele>220.25</ele><time>2026-04-10T15:03:40.813Z</time></trkpt><trkpt lat="44.7083063" lon="8.0651134"><ele>216.5</ele><time>2026-04-10T15:03:41.812Z</time></trkpt><trkpt lat="44.7082079" lon="8.0650421"><ele>212.75</ele><time>2026-04-10T15:03:42.812Z</time></trkpt><trkpt lat="44.7081022" lon="8.0649905"><ele>209.0</ele><time>2026-04-10T15:03:43.812Z</time></trkpt><trkpt lat="44.7079872" lon="8.0649491"><ele>206.0</ele><time>2026-04-10T15:03:44.813Z</time></trkpt><trkpt lat="44.7078801" lon="8.0649224"><ele>203.0</ele><time>2026-04-10T15:03:45.814Z</time></trkpt><trkpt lat="44.7077587" lon="8.0648988"><ele>200.0</ele><time>2026-04-10T15:03:46.813Z</time></trkpt><trkpt lat="44.7076395" lon="8.0648817"><ele>197.0</ele><time>2026-04-10T15:03:47.812Z</time></trkpt><trkpt lat="44.7075222" lon="8.0648559"><ele>197.0</ele><time>2026-04-10T15:03:48.812Z</time></trkpt><trkpt lat="44.7074074" lon="8.0648291"><ele>197.0</ele><time>2026-04-10T15:03:49.812Z</time></trkpt><trkpt lat="44.707284" lon="8.0648015"><ele>197.0</ele><time>2026-04-10T15:03:50.811Z</time></trkpt><trkpt lat="44.7071644" lon="8.064765"><ele>197.0</ele><time>2026-04-10T15:03:51.813Z</time></trkpt><trkpt lat="44.7070509" lon="8.0647157"><ele>197.0</ele><time>2026-04-10T15:03:52.813Z</time></trkpt><trkpt lat="44.7069493" lon="8.0646504"><ele>197.0</ele><time>2026-04-10T15:03:53.812Z</time></trkpt><trkpt lat="44.7068595" lon="8.0645548"><ele>197.0</ele><time>2026-04-10T15:03:54.812Z</time></trkpt><trkpt lat="44.7067803" lon="8.0644521"><ele>197.0</ele><time>2026-04-10T15:03:55.811Z</time></trkpt><trkpt lat="44.706715" lon="8.0643446"><ele>197.0</ele><time>2026-04-10T15:03:56.812Z</time></trkpt><trkpt lat="44.7066531" lon="8.0642521"><ele>196.66666666666669</ele><time>2026-04-10T15:03:57.812Z</time></trkpt><trkpt lat="44.7065885" lon="8.0641864"><ele>196.33333333333334</ele><time>2026-04-10T15:03:58.813Z</time></trkpt><trkpt lat="44.70651" lon="8.0641523"><ele>196.0</ele><time>2026-04-10T15:03:59.813Z</time></trkpt><trkpt lat="44.7064373" lon="8.0641578"><ele>195.66666666666669</ele><time>2026-04-10T15:04:00.812Z</time></trkpt><trkpt lat="44.7063614" lon="8.0641936"><ele>195.33333333333334</ele><time>2026-04-10T15:04:01.813Z</time></trkpt><trkpt lat="44.7062976" lon="8.0642545"><ele>195.0</ele><time>2026-04-10T15:04:02.813Z</time></trkpt><trkpt lat="44.7062401" lon="8.0643323"><ele>195.0</ele><time>2026-04-10T15:04:03.812Z</time></trkpt><trkpt lat="44.7062044" lon="8.0644292"><ele>195.0</ele><time>2026-04-10T15:04:04.812Z</time></trkpt><trkpt lat="44.7061826" lon="8.064535"><ele>195.0</ele><time>2026-04-10T15:04:05.812Z</time></trkpt><trkpt lat="44.7061712" lon="8.0646413"><ele>195.0</ele><time>2026-04-10T15:04:06.813Z</time></trkpt><trkpt lat="44.7061656" lon="8.0647547"><ele>195.0</ele><time>2026-04-10T15:04:07.812Z</time></trkpt><trkpt lat="44.7061601" lon="8.0648702"><ele>195.0</ele><time>2026-04-10T15:04:08.812Z</time></trkpt><trkpt lat="44.7061589" lon="8.0649849"><ele>196.83333333333334</ele><time>2026-04-10T15:04:09.813Z</time></trkpt><trkpt lat="44.7061663" lon="8.0651018"><ele>198.66666666666669</ele><time>2026-04-10T15:04:10.813Z</time></trkpt><trkpt lat="44.7061602" lon="8.0652155"><ele>200.5</ele><time>2026-04-10T15:04:11.813Z</time></trkpt><trkpt lat="44.7061615" lon="8.0653327"><ele>202.33333333333334</ele><time>2026-04-10T15:04:12.812Z</time></trkpt><trkpt lat="44.7061647" lon="8.0654461"><ele>204.16666666666669</ele><time>2026-04-10T15:04:13.813Z</time></trkpt><trkpt lat="44.7061644" lon="8.0655612"><ele>206.0</ele><time>2026-04-10T15:04:14.812Z</time></trkpt><trkpt lat="44.7061572" lon="8.0656794"><ele>207.00000000000003</ele><time>2026-04-10T15:04:15.811Z</time></trkpt><trkpt lat="44.7061491" lon="8.0657903"><ele>208.0</ele><time>2026-04-10T15:04:16.811Z</time></trkpt><trkpt lat="44.7061258" lon="8.0658979"><ele>209.0</ele><time>2026-04-10T15:04:17.812Z</time></trkpt><trkpt lat="44.7060828" lon="8.0660023"><ele>210.0</ele><time>2026-04-10T15:04:18.812Z</time></trkpt><trkpt lat="44.7060158" lon="8.0660799"><ele>211.00000000000003</ele><time>2026-04-10T15:04:19.813Z</time></trkpt><trkpt lat="44.705936" lon="8.0661303"><ele>212.0</ele><time>2026-04-10T15:04:20.813Z</time></trkpt><trkpt lat="44.7058503" lon="8.06614"><ele>208.2</ele><time>2026-04-10T15:04:21.813Z</time></trkpt><trkpt lat="44.7057649" lon="8.0661104"><ele>204.39999999999998</ele><time>2026-04-10T15:04:22.812Z</time></trkpt><trkpt lat="44.7056835" lon="8.0660593"><ele>200.60000000000002</ele><time>2026-04-10T15:04:23.812Z</time></trkpt><trkpt lat="44.7056076" lon="8.0659802"><ele>196.8</ele><time>2026-04-10T15:04:24.812Z</time></trkpt><trkpt lat="44.7055378" lon="8.0658897"><ele>193.0</ele><time>2026-04-10T15:04:25.812Z</time></trkpt><trkpt lat="44.7054731" lon="8.0657961"><ele>192.2</ele><time>2026-04-10T15:04:26.812Z</time></trkpt><trkpt lat="44.7054026" lon="8.0656936"><ele>191.4</ele><time>2026-04-10T15:04:27.812Z</time></trkpt><trkpt lat="44.705337" lon="8.0655897"><ele>190.6</ele><time>2026-04-10T15:04:28.812Z</time></trkpt><trkpt lat="44.7052697" lon="8.065476"><ele>189.79999999999998</ele><time>2026-04-10T15:04:29.813Z</time></trkpt><trkpt lat="44.7051987" lon="8.0653684"><ele>189.0</ele><time>2026-04-10T15:04:30.812Z</time></trkpt><trkpt lat="44.7051285" lon="8.0652666"><ele>188.6</ele><time>2026-04-10T15:04:31.812Z</time></trkpt><trkpt lat="44.7050543" lon="8.0651618"><ele>188.2</ele><time>2026-04-10T15:04:32.812Z</time></trkpt><trkpt lat="44.7049822" lon="8.0650526"><ele>187.79999999999998</ele><time>2026-04-10T15:04:33.812Z</time></trkpt><trkpt lat="44.7049073" lon="8.0649409"><ele>187.39999999999998</ele><time>2026-04-10T15:04:34.814Z</time></trkpt><trkpt lat="44.704836" lon="8.0648277"><ele>187.0</ele><time>2026-04-10T15:04:35.813Z</time></trkpt><trkpt lat="44.7047579" lon="8.0647272"><ele>185.8</ele><time>2026-04-10T15:04:36.813Z</time></trkpt><trkpt lat="44.7046708" lon="8.0646578"><ele>184.6</ele><time>2026-04-10T15:04:37.811Z</time></trkpt><trkpt lat="44.7045733" lon="8.0646031"><ele>183.4</ele><time>2026-04-10T15:04:38.813Z</time></trkpt><trkpt lat="44.7044759" lon="8.0645691"><ele>182.20000000000002</ele><time>2026-04-10T15:04:39.813Z</time></trkpt><trkpt lat="44.7043661" lon="8.0645564"><ele>181.0</ele><time>2026-04-10T15:04:40.812Z</time></trkpt><trkpt lat="44.7042537" lon="8.0645609"><ele>181.0</ele><time>2026-04-10T15:04:41.813Z</time></trkpt><trkpt lat="44.7041389" lon="8.0645672"><ele>181.0</ele><time>2026-04-10T15:04:42.813Z</time></trkpt><trkpt lat="44.7040223" lon="8.0645721"><ele>181.0</ele><time>2026-04-10T15:04:43.812Z</time></trkpt><trkpt lat="44.7039029" lon="8.064578"><ele>181.0</ele><time>2026-04-10T15:04:44.812Z</time></trkpt><trkpt lat="44.7037792" lon="8.0645872"><ele>181.0</ele><time>2026-04-10T15:04:45.813Z</time></trkpt><trkpt lat="44.7036571" lon="8.0645964"><ele>181.0</ele><time>2026-04-10T15:04:46.813Z</time></trkpt><trkpt lat="44.7035421" lon="8.064596"><ele>181.0</ele><time>2026-04-10T15:04:47.811Z</time></trkpt><trkpt lat="44.7034221" lon="8.0645843"><ele>181.0</ele><time>2026-04-10T15:04:48.813Z</time></trkpt><trkpt lat="44.7033054" lon="8.0645622"><ele>179.75</ele><time>2026-04-10T15:04:49.813Z</time></trkpt><trkpt lat="44.7031948" lon="8.0645093"><ele>178.5</ele><time>2026-04-10T15:04:50.812Z</time></trkpt><trkpt lat="44.7030873" lon="8.0644276"><ele>177.25</ele><time>2026-04-10T15:04:51.813Z</time></trkpt><trkpt lat="44.7029748" lon="8.0643517"><ele>176.0</ele><time>2026-04-10T15:04:52.811Z</time></trkpt><trkpt lat="44.7028665" lon="8.0642769"><ele>176.0</ele><time>2026-04-10T15:04:53.811Z</time></trkpt><trkpt lat="44.7027571" lon="8.0641891"><ele>176.0</ele><time>2026-04-10T15:04:54.812Z</time></trkpt><trkpt lat="44.7026501" lon="8.0641055"><ele>176.0</ele><time>2026-04-10T15:04:55.811Z</time></trkpt><trkpt lat="44.7025408" lon="8.0640155"><ele>176.0</ele><time>2026-04-10T15:04:56.811Z</time></trkpt><trkpt lat="44.7024243" lon="8.0639368"><ele>174.5</ele><time>2026-04-10T15:04:57.813Z</time></trkpt><trkpt lat="44.7023076" lon="8.0638586"><ele>173.0</ele><time>2026-04-10T15:04:58.811Z</time></trkpt><trkpt lat="44.7021939" lon="8.0637846"><ele>171.5</ele><time>2026-04-10T15:04:59.814Z</time></trkpt><trkpt lat="44.7020828" lon="8.0637142"><ele>170.0</ele><time>2026-04-10T15:05:00.811Z</time></trkpt><trkpt lat="44.7019737" lon="8.0636552"><ele>170.0</ele><time>2026-04-10T15:05:01.811Z</time></trkpt><trkpt lat="44.7018674" lon="8.0636021"><ele>170.0</ele><time>2026-04-10T15:05:02.813Z</time></trkpt><trkpt lat="44.701762" lon="8.0635484"><ele>170.0</ele><time>2026-04-10T15:05:03.813Z</time></trkpt><trkpt lat="44.7016619" lon="8.0634959"><ele>170.0</ele><time>2026-04-10T15:05:04.814Z</time></trkpt><trkpt lat="44.7015649" lon="8.0634478"><ele>170.0</ele><time>2026-04-10T15:05:05.812Z</time></trkpt><trkpt lat="44.7014727" lon="8.0633992"><ele>170.0</ele><time>2026-04-10T15:05:06.811Z</time></trkpt><trkpt lat="44.7013785" lon="8.0633545"><ele>170.0</ele><time>2026-04-10T15:05:07.812Z</time></trkpt><trkpt lat="44.7012911" lon="8.0633063"><ele>170.0</ele><time>2026-04-10T15:05:08.812Z</time></trkpt><trkpt lat="44.7012076" lon="8.06326"><ele>170.0</ele><time>2026-04-10T15:05:09.813Z</time></trkpt><trkpt lat="44.7011243" lon="8.0632203"><ele>170.0</ele><time>2026-04-10T15:05:10.812Z</time></trkpt><trkpt lat="44.7010473" lon="8.0631792"><ele>169.83333333333331</ele><time>2026-04-10T15:05:11.811Z</time></trkpt><trkpt lat="44.7009724" lon="8.0631356"><ele>169.66666666666666</ele><time>2026-04-10T15:05:12.811Z</time></trkpt><trkpt lat="44.7009023" lon="8.0630924"><ele>169.5</ele><time>2026-04-10T15:05:13.811Z</time></trkpt><trkpt lat="44.7008363" lon="8.0630487"><ele>169.33333333333334</ele><time>2026-04-10T15:05:14.811Z</time></trkpt><trkpt lat="44.7007749" lon="8.062998"><ele>169.16666666666669</ele><time>2026-04-10T15:05:15.813Z</time></trkpt><trkpt lat="44.7006806" lon="8.0628659"><ele>169.0</ele><time>2026-04-10T15:05:17.812Z</time></trkpt><trkpt lat="44.7006482" lon="8.0627768"><ele>169.0</ele><time>2026-04-10T15:05:18.813Z</time></trkpt><trkpt lat="44.7006277" lon="8.0626881"><ele>169.0</ele><time>2026-04-10T15:05:19.813Z</time></trkpt><trkpt lat="44.7006035" lon="8.0625128"><ele>169.0</ele><time>2026-04-10T15:05:21.811Z</time></trkpt><trkpt lat="44.7005968" lon="8.0624188"><ele>169.0</ele><time>2026-04-10T15:05:22.811Z</time></trkpt><trkpt lat="44.7005848" lon="8.062321"><ele>169.0</ele><time>2026-04-10T15:05:23.812Z</time></trkpt><trkpt lat="44.7005757" lon="8.0622153"><ele>169.0</ele><time>2026-04-10T15:05:24.811Z</time></trkpt><trkpt lat="44.7005713" lon="8.0621082"><ele>169.57142857142858</ele><time>2026-04-10T15:05:25.812Z</time></trkpt><trkpt lat="44.7005673" lon="8.062008"><ele>170.14285714285714</ele><time>2026-04-10T15:05:26.812Z</time></trkpt><trkpt lat="44.7005645" lon="8.0619032"><ele>170.71428571428572</ele><time>2026-04-10T15:05:27.813Z</time></trkpt><trkpt lat="44.7005544" lon="8.061804"><ele>171.28571428571428</ele><time>2026-04-10T15:05:28.812Z</time></trkpt><trkpt lat="44.7005499" lon="8.0616945"><ele>171.85714285714286</ele><time>2026-04-10T15:05:29.813Z</time></trkpt><trkpt lat="44.7005464" lon="8.0615888"><ele>172.42857142857142</ele><time>2026-04-10T15:05:30.811Z</time></trkpt><trkpt lat="44.7005384" lon="8.0614879"><ele>173.0</ele><time>2026-04-10T15:05:31.811Z</time></trkpt><trkpt lat="44.7005346" lon="8.0613898"><ele>174.16666666666666</ele><time>2026-04-10T15:05:32.813Z</time></trkpt><trkpt lat="44.7005253" lon="8.0612871"><ele>175.33333333333331</ele><time>2026-04-10T15:05:33.812Z</time></trkpt><trkpt lat="44.7005075" lon="8.0611993"><ele>176.5</ele><time>2026-04-10T15:05:34.813Z</time></trkpt><trkpt lat="44.7004894" lon="8.0611066"><ele>177.66666666666666</ele><time>2026-04-10T15:05:35.811Z</time></trkpt><trkpt lat="44.7004569" lon="8.0610207"><ele>178.83333333333334</ele><time>2026-04-10T15:05:36.812Z</time></trkpt><trkpt lat="44.7004061" lon="8.0608813"><ele>180.0</ele><time>2026-04-10T15:05:38.814Z</time></trkpt><trkpt lat="44.7003806" lon="8.0607976"><ele>180.25</ele><time>2026-04-10T15:05:39.811Z</time></trkpt><trkpt lat="44.700318" lon="8.0606462"><ele>180.5</ele><time>2026-04-10T15:05:41.813Z</time></trkpt><trkpt lat="44.700268" lon="8.0605187"><ele>180.75</ele><time>2026-04-10T15:05:43.812Z</time></trkpt><trkpt lat="44.700201" lon="8.060379"><ele>181.0</ele><time>2026-04-10T15:05:45.811Z</time></trkpt><trkpt lat="44.7001467" lon="8.0602516"><ele>181.0</ele><time>2026-04-10T15:05:47.813Z</time></trkpt><trkpt lat="44.7000759" lon="8.0601258"><ele>181.0</ele><time>2026-04-10T15:05:49.812Z</time></trkpt><trkpt lat="44.7000083" lon="8.0600084"><ele>181.0</ele><time>2026-04-10T15:05:51.812Z</time></trkpt><trkpt lat="44.6999435" lon="8.0598842"><ele>181.0</ele><time>2026-04-10T15:05:53.813Z</time></trkpt><trkpt lat="44.699886" lon="8.0597597"><ele>181.0</ele><time>2026-04-10T15:05:55.812Z</time></trkpt><trkpt lat="44.6998244" lon="8.0596333"><ele>182.20000000000002</ele><time>2026-04-10T15:05:57.812Z</time></trkpt><trkpt lat="44.699771" lon="8.0595171"><ele>183.4</ele><time>2026-04-10T15:05:59.811Z</time></trkpt><trkpt lat="44.6997132" lon="8.0593923"><ele>184.6</ele><time>2026-04-10T15:06:01.812Z</time></trkpt><trkpt lat="44.6996498" lon="8.0592745"><ele>185.8</ele><time>2026-04-10T15:06:03.812Z</time></trkpt><trkpt lat="44.6995942" lon="8.0591506"><ele>187.0</ele><time>2026-04-10T15:06:05.812Z</time></trkpt><trkpt lat="44.6995352" lon="8.0590306"><ele>187.0</ele><time>2026-04-10T15:06:07.812Z</time></trkpt><trkpt lat="44.6994892" lon="8.0589095"><ele>187.0</ele><time>2026-04-10T15:06:09.812Z</time></trkpt><trkpt lat="44.6994192" lon="8.0587922"><ele>187.0</ele><time>2026-04-10T15:06:11.812Z</time></trkpt><trkpt lat="44.6993593" lon="8.0586706"><ele>187.0</ele><time>2026-04-10T15:06:13.812Z</time></trkpt><trkpt lat="44.6993005" lon="8.0585491"><ele>187.0</ele><time>2026-04-10T15:06:15.812Z</time></trkpt><trkpt lat="44.699246" lon="8.0584382"><ele>187.0</ele><time>2026-04-10T15:06:17.813Z</time></trkpt><trkpt lat="44.6991968" lon="8.0583318"><ele>187.0</ele><time>2026-04-10T15:06:19.813Z</time></trkpt><trkpt lat="44.6991467" lon="8.0581981"><ele>187.0</ele><time>2026-04-10T15:06:21.811Z</time></trkpt><trkpt lat="44.6990913" lon="8.0580761"><ele>187.0</ele><time>2026-04-10T15:06:23.812Z</time></trkpt><trkpt lat="44.6990331" lon="8.0579552"><ele>187.0</ele><time>2026-04-10T15:06:25.813Z</time></trkpt><trkpt lat="44.6989797" lon="8.0578369"><ele>188.0</ele><time>2026-04-10T15:06:27.811Z</time></trkpt><trkpt lat="44.6989133" lon="8.057728"><ele>189.0</ele><time>2026-04-10T15:06:29.812Z</time></trkpt><trkpt lat="44.6988547" lon="8.0575979"><ele>190.0</ele><time>2026-04-10T15:06:31.811Z</time></trkpt><trkpt lat="44.698797" lon="8.0574955"><ele>191.0</ele><time>2026-04-10T15:06:33.812Z</time></trkpt><trkpt lat="44.6987416" lon="8.0573932"><ele>192.0</ele><time>2026-04-10T15:06:35.812Z</time></trkpt><trkpt lat="44.698698" lon="8.0572874"><ele>191.83333333333334</ele><time>2026-04-10T15:06:37.812Z</time></trkpt><trkpt lat="44.698646" lon="8.0571816"><ele>191.66666666666666</ele><time>2026-04-10T15:06:39.812Z</time></trkpt><trkpt lat="44.6986019" lon="8.0570814"><ele>191.5</ele><time>2026-04-10T15:06:41.811Z</time></trkpt><trkpt lat="44.6985618" lon="8.0569795"><ele>191.33333333333331</ele><time>2026-04-10T15:06:43.812Z</time></trkpt><trkpt lat="44.6985072" lon="8.0568813"><ele>191.16666666666666</ele><time>2026-04-10T15:06:45.812Z</time></trkpt><trkpt lat="44.6984562" lon="8.0567802"><ele>191.0</ele><time>2026-04-10T15:06:47.812Z</time></trkpt><trkpt lat="44.6984037" lon="8.0566775"><ele>192.0</ele><time>2026-04-10T15:06:49.812Z</time></trkpt><trkpt lat="44.698359" lon="8.056571"><ele>193.0</ele><time>2026-04-10T15:06:51.811Z</time></trkpt><trkpt lat="44.6983113" lon="8.0564552"><ele>194.0</ele><time>2026-04-10T15:06:53.812Z</time></trkpt><trkpt lat="44.6982708" lon="8.0563426"><ele>195.0</ele><time>2026-04-10T15:06:55.811Z</time></trkpt><trkpt lat="44.6982328" lon="8.0562333"><ele>196.0</ele><time>2026-04-10T15:06:57.811Z</time></trkpt><trkpt lat="44.6981874" lon="8.0561114"><ele>195.99999999999997</ele><time>2026-04-10T15:06:59.813Z</time></trkpt><trkpt lat="44.698145" lon="8.0560054"><ele>196.0</ele><time>2026-04-10T15:07:01.813Z</time></trkpt><trkpt lat="44.6981043" lon="8.0559"><ele>196.0</ele><time>2026-04-10T15:07:03.811Z</time></trkpt><trkpt lat="44.698072" lon="8.055822"><ele>196.0</ele><time>2026-04-10T15:07:05.812Z</time></trkpt><trkpt lat="44.6980334" lon="8.0557351"><ele>195.99999999999997</ele><time>2026-04-10T15:07:07.811Z</time></trkpt><trkpt lat="44.6979993" lon="8.0556349"><ele>196.0</ele><time>2026-04-10T15:07:09.811Z</time></trkpt><trkpt lat="44.6979616" lon="8.0555352"><ele>195.99999999999997</ele><time>2026-04-10T15:07:11.811Z</time></trkpt><trkpt lat="44.6979237" lon="8.0554369"><ele>196.0</ele><time>2026-04-10T15:07:13.812Z</time></trkpt><trkpt lat="44.6978835" lon="8.0553393"><ele>196.0</ele><time>2026-04-10T15:07:15.811Z</time></trkpt><trkpt lat="44.697846" lon="8.0552401"><ele>196.0</ele><time>2026-04-10T15:07:17.811Z</time></trkpt><trkpt lat="44.6978107" lon="8.0551427"><ele>195.99999999999997</ele><time>2026-04-10T15:07:19.812Z</time></trkpt><trkpt lat="44.6977763" lon="8.0550497"><ele>196.0</ele><time>2026-04-10T15:07:21.812Z</time></trkpt><trkpt lat="44.6977421" lon="8.0549623"><ele>196.85714285714286</ele><time>2026-04-10T15:07:23.811Z</time></trkpt><trkpt lat="44.6977084" lon="8.0548801"><ele>197.71428571428572</ele><time>2026-04-10T15:07:25.811Z</time></trkpt><trkpt lat="44.6976759" lon="8.054797"><ele>198.57142857142856</ele><time>2026-04-10T15:07:27.811Z</time></trkpt><trkpt lat="44.6976372" lon="8.054713"><ele>199.42857142857144</ele><time>2026-04-10T15:07:29.811Z</time></trkpt><trkpt lat="44.697592" lon="8.0546312"><ele>200.28571428571428</ele><time>2026-04-10T15:07:31.811Z</time></trkpt><trkpt lat="44.6975355" lon="8.0545556"><ele>201.14285714285714</ele><time>2026-04-10T15:07:33.811Z</time></trkpt><trkpt lat="44.6974744" lon="8.0544863"><ele>202.0</ele><time>2026-04-10T15:07:35.812Z</time></trkpt><trkpt lat="44.6974134" lon="8.054421"><ele>201.99999999999997</ele><time>2026-04-10T15:07:37.813Z</time></trkpt><trkpt lat="44.6973446" lon="8.0543692"><ele>202.0</ele><time>2026-04-10T15:07:39.81Z</time></trkpt><trkpt lat="44.697273" lon="8.054325"><ele>202.0</ele><time>2026-04-10T15:07:41.812Z</time></trkpt><trkpt lat="44.6971968" lon="8.0542932"><ele>202.0</ele><time>2026-04-10T15:07:43.813Z</time></trkpt><trkpt lat="44.6971165" lon="8.0542697"><ele>201.99999999999997</ele><time>2026-04-10T15:07:45.812Z</time></trkpt><trkpt lat="44.6970342" lon="8.0542532"><ele>202.0</ele><time>2026-04-10T15:07:47.812Z</time></trkpt><trkpt lat="44.696954" lon="8.0542412"><ele>202.33333333333331</ele><time>2026-04-10T15:07:49.811Z</time></trkpt><trkpt lat="44.6968756" lon="8.05423"><ele>202.66666666666666</ele><time>2026-04-10T15:07:51.812Z</time></trkpt><trkpt lat="44.6967931" lon="8.0542218"><ele>203.0</ele><time>2026-04-10T15:07:53.812Z</time></trkpt><trkpt lat="44.6967154" lon="8.0542111"><ele>203.33333333333331</ele><time>2026-04-10T15:07:55.812Z</time></trkpt><trkpt lat="44.696641" lon="8.0541958"><ele>203.66666666666666</ele><time>2026-04-10T15:07:57.812Z</time></trkpt><trkpt lat="44.6965657" lon="8.0541835"><ele>204.0</ele><time>2026-04-10T15:07:59.813Z</time></trkpt><trkpt lat="44.6964932" lon="8.05417"><ele>204.0</ele><time>2026-04-10T15:08:01.813Z</time></trkpt><trkpt lat="44.6964214" lon="8.0541526"><ele>204.0</ele><time>2026-04-10T15:08:03.812Z</time></trkpt><trkpt lat="44.6963484" lon="8.0541351"><ele>204.0</ele><time>2026-04-10T15:08:05.81Z</time></trkpt><trkpt lat="44.6962736" lon="8.0541168"><ele>204.0</ele><time>2026-04-10T15:08:07.811Z</time></trkpt><trkpt lat="44.6961993" lon="8.054103"><ele>204.0</ele><time>2026-04-10T15:08:09.812Z</time></trkpt><trkpt lat="44.6961267" lon="8.0540925"><ele>204.0</ele><time>2026-04-10T15:08:11.811Z</time></trkpt><trkpt lat="44.6960528" lon="8.0540777"><ele>204.0</ele><time>2026-04-10T15:08:13.812Z</time></trkpt><trkpt lat="44.6959764" lon="8.0540588"><ele>204.16666666666666</ele><time>2026-04-10T15:08:15.811Z</time></trkpt><trkpt lat="44.695903" lon="8.0540311"><ele>204.33333333333331</ele><time>2026-04-10T15:08:17.812Z</time></trkpt><trkpt lat="44.6958314" lon="8.0540056"><ele>204.5</ele><time>2026-04-10T15:08:19.812Z</time></trkpt><trkpt lat="44.6957579" lon="8.0539815"><ele>204.66666666666666</ele><time>2026-04-10T15:08:21.811Z</time></trkpt><trkpt lat="44.6956865" lon="8.0539503"><ele>204.83333333333331</ele><time>2026-04-10T15:08:23.811Z</time></trkpt><trkpt lat="44.6956148" lon="8.0539175"><ele>205.0</ele><time>2026-04-10T15:08:25.81Z</time></trkpt><trkpt lat="44.6955469" lon="8.0538699"><ele>204.99999999999997</ele><time>2026-04-10T15:08:27.812Z</time></trkpt><trkpt lat="44.6954763" lon="8.0538181"><ele>205.0</ele><time>2026-04-10T15:08:29.811Z</time></trkpt><trkpt lat="44.6954044" lon="8.0537713"><ele>205.0</ele><time>2026-04-10T15:08:31.811Z</time></trkpt><trkpt lat="44.6953368" lon="8.0537234"><ele>205.0</ele><time>2026-04-10T15:08:33.812Z</time></trkpt><trkpt lat="44.6952699" lon="8.0536767"><ele>204.99999999999997</ele><time>2026-04-10T15:08:35.812Z</time></trkpt><trkpt lat="44.6952043" lon="8.0536253"><ele>205.0</ele><time>2026-04-10T15:08:37.811Z</time></trkpt><trkpt lat="44.6951386" lon="8.0535769"><ele>205.71428571428572</ele><time>2026-04-10T15:08:39.812Z</time></trkpt><trkpt lat="44.695072" lon="8.053531"><ele>206.42857142857142</ele><time>2026-04-10T15:08:41.812Z</time></trkpt><trkpt lat="44.695006" lon="8.0534872"><ele>207.14285714285714</ele><time>2026-04-10T15:08:43.812Z</time></trkpt><trkpt lat="44.6949411" lon="8.0534422"><ele>207.85714285714286</ele><time>2026-04-10T15:08:45.811Z</time></trkpt><trkpt lat="44.6948741" lon="8.0534015"><ele>208.57142857142856</ele><time>2026-04-10T15:08:47.811Z</time></trkpt><trkpt lat="44.694809" lon="8.0533577"><ele>209.28571428571428</ele><time>2026-04-10T15:08:49.811Z</time></trkpt><trkpt lat="44.6947419" lon="8.0533088"><ele>210.0</ele><time>2026-04-10T15:08:51.812Z</time></trkpt><trkpt lat="44.6946772" lon="8.0532594"><ele>210.0</ele><time>2026-04-10T15:08:53.812Z</time></trkpt><trkpt lat="44.6946118" lon="8.0532157"><ele>210.0</ele><time>2026-04-10T15:08:55.812Z</time></trkpt><trkpt lat="44.6945459" lon="8.0531654"><ele>210.0</ele><time>2026-04-10T15:08:57.812Z</time></trkpt><trkpt lat="44.6944821" lon="8.053117"><ele>210.0</ele><time>2026-04-10T15:08:59.812Z</time></trkpt><trkpt lat="44.6944146" lon="8.0530709"><ele>210.0</ele><time>2026-04-10T15:09:01.812Z</time></trkpt><trkpt lat="44.6943524" lon="8.0530251"><ele>210.0</ele><time>2026-04-10T15:09:03.812Z</time></trkpt><trkpt lat="44.6942849" lon="8.052986"><ele>210.0</ele><time>2026-04-10T15:09:05.81Z</time></trkpt><trkpt lat="44.694216" lon="8.0529525"><ele>211.0</ele><time>2026-04-10T15:09:07.811Z</time></trkpt><trkpt lat="44.694143" lon="8.052917"><ele>212.0</ele><time>2026-04-10T15:09:09.812Z</time></trkpt><trkpt lat="44.6940715" lon="8.0528883"><ele>213.0</ele><time>2026-04-10T15:09:11.812Z</time></trkpt><trkpt lat="44.693999" lon="8.0528676"><ele>214.0</ele><time>2026-04-10T15:09:13.812Z</time></trkpt><trkpt lat="44.693926" lon="8.0528517"><ele>215.0</ele><time>2026-04-10T15:09:15.813Z</time></trkpt><trkpt lat="44.6938528" lon="8.0528367"><ele>216.0</ele><time>2026-04-10T15:09:17.812Z</time></trkpt><trkpt lat="44.6937805" lon="8.0528282"><ele>217.0</ele><time>2026-04-10T15:09:19.812Z</time></trkpt><trkpt lat="44.6937076" lon="8.0528209"><ele>217.0</ele><time>2026-04-10T15:09:21.812Z</time></trkpt><trkpt lat="44.6936341" lon="8.0528133"><ele>217.0</ele><time>2026-04-10T15:09:23.812Z</time></trkpt><trkpt lat="44.6935656" lon="8.0528075"><ele>217.0</ele><time>2026-04-10T15:09:25.812Z</time></trkpt><trkpt lat="44.6934939" lon="8.0528007"><ele>217.0</ele><time>2026-04-10T15:09:27.811Z</time></trkpt><trkpt lat="44.6934225" lon="8.0527979"><ele>217.0</ele><time>2026-04-10T15:09:29.812Z</time></trkpt><trkpt lat="44.6933469" lon="8.0527917"><ele>217.0</ele><time>2026-04-10T15:09:31.811Z</time></trkpt><trkpt lat="44.693272" lon="8.0527837"><ele>217.0</ele><time>2026-04-10T15:09:33.81Z</time></trkpt><trkpt lat="44.6931969" lon="8.0527766"><ele>217.83333333333331</ele><time>2026-04-10T15:09:35.812Z</time></trkpt><trkpt lat="44.6931226" lon="8.0527699"><ele>218.66666666666666</ele><time>2026-04-10T15:09:37.812Z</time></trkpt><trkpt lat="44.6930496" lon="8.0527588"><ele>219.5</ele><time>2026-04-10T15:09:39.812Z</time></trkpt><trkpt lat="44.6929749" lon="8.0527515"><ele>220.33333333333331</ele><time>2026-04-10T15:09:41.812Z</time></trkpt><trkpt lat="44.6928981" lon="8.0527426"><ele>221.16666666666666</ele><time>2026-04-10T15:09:43.812Z</time></trkpt><trkpt lat="44.6928223" lon="8.0527337"><ele>222.0</ele><time>2026-04-10T15:09:45.812Z</time></trkpt><trkpt lat="44.6927481" lon="8.0527268"><ele>222.66666666666666</ele><time>2026-04-10T15:09:47.811Z</time></trkpt><trkpt lat="44.6926731" lon="8.0527095"><ele>223.33333333333331</ele><time>2026-04-10T15:09:49.81Z</time></trkpt><trkpt lat="44.6925973" lon="8.052693"><ele>224.0</ele><time>2026-04-10T15:09:51.813Z</time></trkpt><trkpt lat="44.6925234" lon="8.0526636"><ele>224.66666666666666</ele><time>2026-04-10T15:09:53.811Z</time></trkpt><trkpt lat="44.6924528" lon="8.0526094"><ele>225.33333333333331</ele><time>2026-04-10T15:09:55.811Z</time></trkpt><trkpt lat="44.6923943" lon="8.0525353"><ele>226.0</ele><time>2026-04-10T15:09:57.812Z</time></trkpt><trkpt lat="44.6923429" lon="8.0524452"><ele>227.33333333333331</ele><time>2026-04-10T15:09:59.811Z</time></trkpt><trkpt lat="44.6923164" lon="8.0523383"><ele>228.66666666666666</ele><time>2026-04-10T15:10:01.812Z</time></trkpt><trkpt lat="44.69231" lon="8.0522185"><ele>230.0</ele><time>2026-04-10T15:10:03.812Z</time></trkpt><trkpt lat="44.6923204" lon="8.0520965"><ele>231.33333333333331</ele><time>2026-04-10T15:10:05.811Z</time></trkpt><trkpt lat="44.6923508" lon="8.0519756"><ele>232.66666666666666</ele><time>2026-04-10T15:10:07.811Z</time></trkpt><trkpt lat="44.6924011" lon="8.0518713"><ele>234.0</ele><time>2026-04-10T15:10:09.81Z</time></trkpt><trkpt lat="44.692468" lon="8.051786"><ele>234.0</ele><time>2026-04-10T15:10:11.811Z</time></trkpt><trkpt lat="44.6925419" lon="8.0517165"><ele>234.0</ele><time>2026-04-10T15:10:13.81Z</time></trkpt><trkpt lat="44.6926214" lon="8.051661"><ele>234.0</ele><time>2026-04-10T15:10:15.812Z</time></trkpt><trkpt lat="44.6926968" lon="8.0516099"><ele>234.0</ele><time>2026-04-10T15:10:17.812Z</time></trkpt><trkpt lat="44.6927687" lon="8.0515603"><ele>234.0</ele><time>2026-04-10T15:10:19.811Z</time></trkpt><trkpt lat="44.6928366" lon="8.0515192"><ele>234.0</ele><time>2026-04-10T15:10:21.812Z</time></trkpt><trkpt lat="44.6929006" lon="8.0514723"><ele>234.5</ele><time>2026-04-10T15:10:23.812Z</time></trkpt><trkpt lat="44.6929563" lon="8.0514243"><ele>235.0</ele><time>2026-04-10T15:10:25.812Z</time></trkpt><trkpt lat="44.6930372" lon="8.0513603"><ele>235.5</ele><time>2026-04-10T15:10:28.81Z</time></trkpt><trkpt lat="44.6930924" lon="8.0513152"><ele>236.0</ele><time>2026-04-10T15:10:30.812Z</time></trkpt><trkpt lat="44.693165" lon="8.051253"><ele>236.5</ele><time>2026-04-10T15:10:33.811Z</time></trkpt><trkpt lat="44.6932334" lon="8.0511906"><ele>237.0</ele><time>2026-04-10T15:10:36.812Z</time></trkpt><trkpt lat="44.6933" lon="8.0510998"><ele>236.99999999999997</ele><time>2026-04-10T15:10:39.812Z</time></trkpt><trkpt lat="44.6933473" lon="8.0510266"><ele>237.0</ele><time>2026-04-10T15:10:41.811Z</time></trkpt><trkpt lat="44.6933926" lon="8.0509481"><ele>236.99999999999997</ele><time>2026-04-10T15:10:43.813Z</time></trkpt><trkpt lat="44.6934302" lon="8.0508705"><ele>236.99999999999997</ele><time>2026-04-10T15:10:45.812Z</time></trkpt><trkpt lat="44.6934687" lon="8.0507947"><ele>237.0</ele><time>2026-04-10T15:10:47.811Z</time></trkpt><trkpt lat="44.6935106" lon="8.0507215"><ele>236.99999999999997</ele><time>2026-04-10T15:10:49.811Z</time></trkpt><trkpt lat="44.6935559" lon="8.0506488"><ele>236.99999999999997</ele><time>2026-04-10T15:10:51.812Z</time></trkpt><trkpt lat="44.6936062" lon="8.0505793"><ele>237.85714285714283</ele><time>2026-04-10T15:10:53.812Z</time></trkpt><trkpt lat="44.6936566" lon="8.0505108"><ele>238.71428571428572</ele><time>2026-04-10T15:10:55.811Z</time></trkpt><trkpt lat="44.6937053" lon="8.0504365"><ele>239.57142857142856</ele><time>2026-04-10T15:10:57.812Z</time></trkpt><trkpt lat="44.6937537" lon="8.0503636"><ele>240.42857142857142</ele><time>2026-04-10T15:10:59.811Z</time></trkpt><trkpt lat="44.6938029" lon="8.0502966"><ele>241.28571428571428</ele><time>2026-04-10T15:11:01.812Z</time></trkpt><trkpt lat="44.6938552" lon="8.05023"><ele>242.14285714285714</ele><time>2026-04-10T15:11:03.811Z</time></trkpt><trkpt lat="44.6939068" lon="8.0501624"><ele>243.0</ele><time>2026-04-10T15:11:05.812Z</time></trkpt><trkpt lat="44.693958" lon="8.0500976"><ele>243.0</ele><time>2026-04-10T15:11:07.811Z</time></trkpt><trkpt lat="44.6940076" lon="8.0500306"><ele>243.0</ele><time>2026-04-10T15:11:09.812Z</time></trkpt><trkpt lat="44.6940547" lon="8.049961"><ele>243.0</ele><time>2026-04-10T15:11:11.812Z</time></trkpt><trkpt lat="44.6940955" lon="8.049885"><ele>243.0</ele><time>2026-04-10T15:11:13.812Z</time></trkpt><trkpt lat="44.6941333" lon="8.0498051"><ele>243.0</ele><time>2026-04-10T15:11:15.813Z</time></trkpt><trkpt lat="44.6941678" lon="8.0497191"><ele>243.0</ele><time>2026-04-10T15:11:17.812Z</time></trkpt><trkpt lat="44.694198" lon="8.049632"><ele>243.0</ele><time>2026-04-10T15:11:19.812Z</time></trkpt><trkpt lat="44.6942291" lon="8.0495098"><ele>243.0</ele><time>2026-04-10T15:11:22.812Z</time></trkpt><trkpt lat="44.6942584" lon="8.0493976"><ele>243.0</ele><time>2026-04-10T15:11:25.812Z</time></trkpt><trkpt lat="44.6942898" lon="8.0492815"><ele>243.0</ele><time>2026-04-10T15:11:28.811Z</time></trkpt><trkpt lat="44.6943215" lon="8.0491974"><ele>243.0</ele><time>2026-04-10T15:11:30.813Z</time></trkpt><trkpt lat="44.6943598" lon="8.049108"><ele>243.0</ele><time>2026-04-10T15:11:32.812Z</time></trkpt><trkpt lat="44.6944174" lon="8.0490032"><ele>243.0</ele><time>2026-04-10T15:11:34.811Z</time></trkpt><trkpt lat="44.6945001" lon="8.0489031"><ele>241.66666666666666</ele><time>2026-04-10T15:11:36.813Z</time></trkpt><trkpt lat="44.6946008" lon="8.0488044"><ele>240.33333333333331</ele><time>2026-04-10T15:11:38.811Z</time></trkpt><trkpt lat="44.6946584" lon="8.0487665"><ele>239.0</ele><time>2026-04-10T15:11:39.813Z</time></trkpt><trkpt lat="44.6947207" lon="8.0487246"><ele>237.66666666666666</ele><time>2026-04-10T15:11:40.811Z</time></trkpt><trkpt lat="44.6947766" lon="8.048679"><ele>236.33333333333331</ele><time>2026-04-10T15:11:41.81Z</time></trkpt><trkpt lat="44.6948418" lon="8.0486363"><ele>235.0</ele><time>2026-04-10T15:11:42.811Z</time></trkpt><trkpt lat="44.6949057" lon="8.0485847"><ele>234.99999999999997</ele><time>2026-04-10T15:11:43.812Z</time></trkpt><trkpt lat="44.6949705" lon="8.0485351"><ele>235.0</ele><time>2026-04-10T15:11:44.81Z</time></trkpt><trkpt lat="44.6950367" lon="8.0484808"><ele>235.0</ele><time>2026-04-10T15:11:45.811Z</time></trkpt><trkpt lat="44.695102" lon="8.0484221"><ele>235.0</ele><time>2026-04-10T15:11:46.811Z</time></trkpt><trkpt lat="44.6951676" lon="8.0483678"><ele>234.99999999999997</ele><time>2026-04-10T15:11:47.811Z</time></trkpt><trkpt lat="44.6952308" lon="8.0483091"><ele>235.0</ele><time>2026-04-10T15:11:48.81Z</time></trkpt><trkpt lat="44.6952978" lon="8.0482409"><ele>233.49999999999997</ele><time>2026-04-10T15:11:49.811Z</time></trkpt><trkpt lat="44.6953669" lon="8.0481695"><ele>232.0</ele><time>2026-04-10T15:11:50.812Z</time></trkpt><trkpt lat="44.6954353" lon="8.0480821"><ele>230.5</ele><time>2026-04-10T15:11:51.81Z</time></trkpt><trkpt lat="44.6955052" lon="8.0480165"><ele>229.0</ele><time>2026-04-10T15:11:52.811Z</time></trkpt><trkpt lat="44.6955727" lon="8.0479429"><ele>227.49999999999997</ele><time>2026-04-10T15:11:53.811Z</time></trkpt><trkpt lat="44.6956401" lon="8.0478582"><ele>226.0</ele><time>2026-04-10T15:11:54.812Z</time></trkpt><trkpt lat="44.6957031" lon="8.0477851"><ele>226.0</ele><time>2026-04-10T15:11:55.811Z</time></trkpt><trkpt lat="44.6957706" lon="8.0477091"><ele>226.00000000000003</ele><time>2026-04-10T15:11:56.811Z</time></trkpt><trkpt lat="44.6958397" lon="8.0476414"><ele>226.00000000000003</ele><time>2026-04-10T15:11:57.812Z</time></trkpt><trkpt lat="44.6959118" lon="8.0475527"><ele>226.0</ele><time>2026-04-10T15:11:58.811Z</time></trkpt><trkpt lat="44.6959875" lon="8.047471"><ele>226.0</ele><time>2026-04-10T15:11:59.81Z</time></trkpt><trkpt lat="44.6960601" lon="8.0473876"><ele>224.60000000000002</ele><time>2026-04-10T15:12:00.81Z</time></trkpt><trkpt lat="44.6961434" lon="8.0473099"><ele>223.20000000000002</ele><time>2026-04-10T15:12:01.811Z</time></trkpt><trkpt lat="44.6962296" lon="8.0472494"><ele>221.79999999999998</ele><time>2026-04-10T15:12:02.811Z</time></trkpt><trkpt lat="44.6963179" lon="8.0471793"><ele>220.39999999999998</ele><time>2026-04-10T15:12:03.81Z</time></trkpt><trkpt lat="44.6964028" lon="8.0471062"><ele>219.0</ele><time>2026-04-10T15:12:04.81Z</time></trkpt><trkpt lat="44.6964882" lon="8.0470489"><ele>219.0</ele><time>2026-04-10T15:12:05.812Z</time></trkpt><trkpt lat="44.6965682" lon="8.0469792"><ele>218.99999999999997</ele><time>2026-04-10T15:12:06.811Z</time></trkpt><trkpt lat="44.6966554" lon="8.0469084"><ele>218.99999999999997</ele><time>2026-04-10T15:12:07.811Z</time></trkpt><trkpt lat="44.6967388" lon="8.0468435"><ele>219.0</ele><time>2026-04-10T15:12:08.811Z</time></trkpt><trkpt lat="44.6968179" lon="8.0467807"><ele>219.0</ele><time>2026-04-10T15:12:09.811Z</time></trkpt><trkpt lat="44.6968952" lon="8.0467275"><ele>218.0</ele><time>2026-04-10T15:12:10.813Z</time></trkpt><trkpt lat="44.6969673" lon="8.0466733"><ele>217.0</ele><time>2026-04-10T15:12:11.811Z</time></trkpt><trkpt lat="44.6970446" lon="8.046637"><ele>216.0</ele><time>2026-04-10T15:12:12.812Z</time></trkpt><trkpt lat="44.6971237" lon="8.0466384"><ele>215.0</ele><time>2026-04-10T15:12:13.811Z</time></trkpt><trkpt lat="44.6971993" lon="8.046665"><ele>214.0</ele><time>2026-04-10T15:12:14.811Z</time></trkpt><trkpt lat="44.6972622" lon="8.0467315"><ele>213.0</ele><time>2026-04-10T15:12:15.81Z</time></trkpt><trkpt lat="44.6973126" lon="8.0468204"><ele>213.0</ele><time>2026-04-10T15:12:16.81Z</time></trkpt><trkpt lat="44.6973523" lon="8.0469214"><ele>213.0</ele><time>2026-04-10T15:12:17.811Z</time></trkpt><trkpt lat="44.6973975" lon="8.0470235"><ele>213.0</ele><time>2026-04-10T15:12:18.812Z</time></trkpt><trkpt lat="44.6974521" lon="8.047119"><ele>213.0</ele><time>2026-04-10T15:12:19.811Z</time></trkpt><trkpt lat="44.6975207" lon="8.0472061"><ele>213.0</ele><time>2026-04-10T15:12:20.812Z</time></trkpt><trkpt lat="44.6975928" lon="8.0472717"><ele>213.0</ele><time>2026-04-10T15:12:21.811Z</time></trkpt><trkpt lat="44.697677" lon="8.0473081"><ele>212.0</ele><time>2026-04-10T15:12:22.812Z</time></trkpt><trkpt lat="44.6977701" lon="8.0473225"><ele>211.0</ele><time>2026-04-10T15:12:23.81Z</time></trkpt><trkpt lat="44.6978651" lon="8.0473128"><ele>210.0</ele><time>2026-04-10T15:12:24.812Z</time></trkpt><trkpt lat="44.6979573" lon="8.0472743"><ele>209.0</ele><time>2026-04-10T15:12:25.813Z</time></trkpt><trkpt lat="44.6980449" lon="8.0472244"><ele>208.0</ele><time>2026-04-10T15:12:26.811Z</time></trkpt><trkpt lat="44.6981331" lon="8.0471659"><ele>208.0</ele><time>2026-04-10T15:12:27.812Z</time></trkpt><trkpt lat="44.6982153" lon="8.0470972"><ele>208.0</ele><time>2026-04-10T15:12:28.81Z</time></trkpt><trkpt lat="44.698298" lon="8.047022"><ele>208.0</ele><time>2026-04-10T15:12:29.81Z</time></trkpt><trkpt lat="44.6983855" lon="8.0469397"><ele>208.0</ele><time>2026-04-10T15:12:30.811Z</time></trkpt><trkpt lat="44.6984646" lon="8.0468651"><ele>208.0</ele><time>2026-04-10T15:12:31.811Z</time></trkpt><trkpt lat="44.6985496" lon="8.0468047"><ele>209.4</ele><time>2026-04-10T15:12:32.811Z</time></trkpt><trkpt lat="44.6986403" lon="8.0467418"><ele>210.8</ele><time>2026-04-10T15:12:33.811Z</time></trkpt><trkpt lat="44.6987359" lon="8.0467101"><ele>212.2</ele><time>2026-04-10T15:12:34.811Z</time></trkpt><trkpt lat="44.6988365" lon="8.0466801"><ele>213.6</ele><time>2026-04-10T15:12:35.811Z</time></trkpt><trkpt lat="44.6989351" lon="8.046662"><ele>215.0</ele><time>2026-04-10T15:12:36.812Z</time></trkpt><trkpt lat="44.6990313" lon="8.0466305"><ele>210.5</ele><time>2026-04-10T15:12:37.811Z</time></trkpt><trkpt lat="44.6991313" lon="8.046607"><ele>206.0</ele><time>2026-04-10T15:12:38.812Z</time></trkpt><trkpt lat="44.6993265" lon="8.0465372"><ele>201.5</ele><time>2026-04-10T15:12:40.81Z</time></trkpt><trkpt lat="44.699427" lon="8.0464872"><ele>197.0</ele><time>2026-04-10T15:12:41.811Z</time></trkpt><trkpt lat="44.6995289" lon="8.0464528"><ele>197.0</ele><time>2026-04-10T15:12:42.812Z</time></trkpt><trkpt lat="44.6996273" lon="8.0464379"><ele>197.0</ele><time>2026-04-10T15:12:43.81Z</time></trkpt><trkpt lat="44.6997264" lon="8.0464419"><ele>197.0</ele><time>2026-04-10T15:12:44.812Z</time></trkpt><trkpt lat="44.6998123" lon="8.0464496"><ele>197.0</ele><time>2026-04-10T15:12:45.811Z</time></trkpt><trkpt lat="44.6999654" lon="8.0464127"><ele>197.0</ele><time>2026-04-10T15:12:47.81Z</time></trkpt><trkpt lat="44.7000588" lon="8.0462573"><ele>197.0</ele><time>2026-04-10T15:12:49.81Z</time></trkpt><trkpt lat="44.7000715" lon="8.0461508"><ele>197.0</ele><time>2026-04-10T15:12:50.81Z</time></trkpt><trkpt lat="44.7000022" lon="8.0459378"><ele>197.0</ele><time>2026-04-10T15:12:52.811Z</time></trkpt><trkpt lat="44.6999319" lon="8.0458539"><ele>197.0</ele><time>2026-04-10T15:12:53.812Z</time></trkpt><trkpt lat="44.6998557" lon="8.0457644"><ele>197.0</ele><time>2026-04-10T15:12:54.811Z</time></trkpt><trkpt lat="44.6997696" lon="8.045701"><ele>194.39999999999998</ele><time>2026-04-10T15:12:55.811Z</time></trkpt><trkpt lat="44.6996802" lon="8.0456496"><ele>191.79999999999998</ele><time>2026-04-10T15:12:56.811Z</time></trkpt><trkpt lat="44.6995868" lon="8.0456016"><ele>189.2</ele><time>2026-04-10T15:12:57.811Z</time></trkpt><trkpt lat="44.6994967" lon="8.0455707"><ele>186.6</ele><time>2026-04-10T15:12:58.812Z</time></trkpt><trkpt lat="44.6993997" lon="8.0455397"><ele>184.0</ele><time>2026-04-10T15:12:59.811Z</time></trkpt><trkpt lat="44.6993115" lon="8.0455261"><ele>184.0</ele><time>2026-04-10T15:13:00.81Z</time></trkpt><trkpt lat="44.6991285" lon="8.0455425"><ele>184.0</ele><time>2026-04-10T15:13:02.812Z</time></trkpt><trkpt lat="44.6990307" lon="8.0455537"><ele>184.0</ele><time>2026-04-10T15:13:03.81Z</time></trkpt><trkpt lat="44.6989374" lon="8.0455753"><ele>184.0</ele><time>2026-04-10T15:13:04.813Z</time></trkpt><trkpt lat="44.698839" lon="8.0455965"><ele>184.0</ele><time>2026-04-10T15:13:05.811Z</time></trkpt><trkpt lat="44.698743" lon="8.0456014"><ele>184.0</ele><time>2026-04-10T15:13:06.811Z</time></trkpt><trkpt lat="44.6986512" lon="8.045588"><ele>184.0</ele><time>2026-04-10T15:13:07.81Z</time></trkpt><trkpt lat="44.6985647" lon="8.0455377"><ele>184.0</ele><time>2026-04-10T15:13:08.811Z</time></trkpt><trkpt lat="44.6985004" lon="8.0454559"><ele>184.0</ele><time>2026-04-10T15:13:09.811Z</time></trkpt><trkpt lat="44.698454" lon="8.0453519"><ele>185.0</ele><time>2026-04-10T15:13:10.812Z</time></trkpt><trkpt lat="44.6984102" lon="8.0452377"><ele>186.0</ele><time>2026-04-10T15:13:11.812Z</time></trkpt><trkpt lat="44.6983791" lon="8.0451251"><ele>187.0</ele><time>2026-04-10T15:13:12.811Z</time></trkpt><trkpt lat="44.6983398" lon="8.0450041"><ele>188.0</ele><time>2026-04-10T15:13:13.81Z</time></trkpt><trkpt lat="44.6983001" lon="8.0448901"><ele>189.0</ele><time>2026-04-10T15:13:14.811Z</time></trkpt><trkpt lat="44.69825" lon="8.0447844"><ele>187.0</ele><time>2026-04-10T15:13:15.81Z</time></trkpt><trkpt lat="44.6981817" lon="8.0446931"><ele>185.0</ele><time>2026-04-10T15:13:16.811Z</time></trkpt><trkpt lat="44.6981062" lon="8.0446204"><ele>183.0</ele><time>2026-04-10T15:13:17.812Z</time></trkpt><trkpt lat="44.6980237" lon="8.0445744"><ele>181.0</ele><time>2026-04-10T15:13:18.812Z</time></trkpt><trkpt lat="44.6979264" lon="8.0445499"><ele>179.0</ele><time>2026-04-10T15:13:19.811Z</time></trkpt><trkpt lat="44.6978332" lon="8.0445476"><ele>179.83333333333331</ele><time>2026-04-10T15:13:20.811Z</time></trkpt><trkpt lat="44.6977403" lon="8.0445585"><ele>180.66666666666666</ele><time>2026-04-10T15:13:21.81Z</time></trkpt><trkpt lat="44.6976401" lon="8.0445687"><ele>181.5</ele><time>2026-04-10T15:13:22.811Z</time></trkpt><trkpt lat="44.697545" lon="8.0445879"><ele>182.33333333333334</ele><time>2026-04-10T15:13:23.811Z</time></trkpt><trkpt lat="44.6974597" lon="8.0446014"><ele>183.16666666666669</ele><time>2026-04-10T15:13:24.812Z</time></trkpt><trkpt lat="44.6973876" lon="8.0446023"><ele>184.0</ele><time>2026-04-10T15:13:25.811Z</time></trkpt><trkpt lat="44.6973228" lon="8.044576"><ele>184.0</ele><time>2026-04-10T15:13:26.81Z</time></trkpt><trkpt lat="44.6972728" lon="8.0445143"><ele>184.0</ele><time>2026-04-10T15:13:27.811Z</time></trkpt><trkpt lat="44.6972428" lon="8.0444282"><ele>184.0</ele><time>2026-04-10T15:13:28.812Z</time></trkpt><trkpt lat="44.6972412" lon="8.0443314"><ele>184.0</ele><time>2026-04-10T15:13:29.81Z</time></trkpt><trkpt lat="44.6972597" lon="8.0442328"><ele>184.0</ele><time>2026-04-10T15:13:30.811Z</time></trkpt><trkpt lat="44.6972874" lon="8.0441381"><ele>184.0</ele><time>2026-04-10T15:13:31.81Z</time></trkpt><trkpt lat="44.6973328" lon="8.0440579"><ele>184.0</ele><time>2026-04-10T15:13:32.811Z</time></trkpt><trkpt lat="44.6973956" lon="8.0439994"><ele>183.0</ele><time>2026-04-10T15:13:33.811Z</time></trkpt><trkpt lat="44.6974634" lon="8.0439491"><ele>182.0</ele><time>2026-04-10T15:13:34.81Z</time></trkpt><trkpt lat="44.697541" lon="8.0439136"><ele>181.0</ele><time>2026-04-10T15:13:35.81Z</time></trkpt><trkpt lat="44.6976178" lon="8.0438948"><ele>180.0</ele><time>2026-04-10T15:13:36.811Z</time></trkpt><trkpt lat="44.697689" lon="8.0438797"><ele>179.0</ele><time>2026-04-10T15:13:37.81Z</time></trkpt><trkpt lat="44.6977769" lon="8.0438771"><ele>178.0</ele><time>2026-04-10T15:13:38.812Z</time></trkpt><trkpt lat="44.6978559" lon="8.0438688"><ele>177.33333333333334</ele><time>2026-04-10T15:13:39.811Z</time></trkpt><trkpt lat="44.6979428" lon="8.043866"><ele>176.66666666666669</ele><time>2026-04-10T15:13:40.811Z</time></trkpt><trkpt lat="44.6980285" lon="8.0438592"><ele>176.0</ele><time>2026-04-10T15:13:41.812Z</time></trkpt><trkpt lat="44.6981184" lon="8.0438422"><ele>175.33333333333334</ele><time>2026-04-10T15:13:42.81Z</time></trkpt><trkpt lat="44.6982073" lon="8.0438341"><ele>174.66666666666666</ele><time>2026-04-10T15:13:43.811Z</time></trkpt><trkpt lat="44.6982968" lon="8.0438277"><ele>174.0</ele><time>2026-04-10T15:13:44.811Z</time></trkpt><trkpt lat="44.6983819" lon="8.0438219"><ele>174.0</ele><time>2026-04-10T15:13:45.81Z</time></trkpt><trkpt lat="44.6984761" lon="8.0438033"><ele>174.0</ele><time>2026-04-10T15:13:46.811Z</time></trkpt><trkpt lat="44.69857" lon="8.0437852"><ele>174.0</ele><time>2026-04-10T15:13:47.81Z</time></trkpt><trkpt lat="44.6986704" lon="8.0437687"><ele>174.0</ele><time>2026-04-10T15:13:48.812Z</time></trkpt><trkpt lat="44.6987606" lon="8.0437221"><ele>174.0</ele><time>2026-04-10T15:13:49.812Z</time></trkpt><trkpt lat="44.6988514" lon="8.0436909"><ele>173.33333333333334</ele><time>2026-04-10T15:13:50.812Z</time></trkpt><trkpt lat="44.6989249" lon="8.0436369"><ele>172.66666666666666</ele><time>2026-04-10T15:13:51.811Z</time></trkpt><trkpt lat="44.6990019" lon="8.0435708"><ele>172.0</ele><time>2026-04-10T15:13:52.811Z</time></trkpt><trkpt lat="44.6990855" lon="8.0435287"><ele>171.33333333333331</ele><time>2026-04-10T15:13:53.811Z</time></trkpt><trkpt lat="44.6991711" lon="8.0434925"><ele>170.66666666666666</ele><time>2026-04-10T15:13:54.811Z</time></trkpt><trkpt lat="44.6992534" lon="8.0434697"><ele>170.0</ele><time>2026-04-10T15:13:55.812Z</time></trkpt><trkpt lat="44.699339" lon="8.0434551"><ele>170.0</ele><time>2026-04-10T15:13:56.811Z</time></trkpt><trkpt lat="44.6994134" lon="8.043467"><ele>170.0</ele><time>2026-04-10T15:13:57.812Z</time></trkpt><trkpt lat="44.699498" lon="8.0434712"><ele>170.0</ele><time>2026-04-10T15:13:58.811Z</time></trkpt><trkpt lat="44.6995863" lon="8.0434737"><ele>170.0</ele><time>2026-04-10T15:13:59.811Z</time></trkpt><trkpt lat="44.6996721" lon="8.0434741"><ele>170.0</ele><time>2026-04-10T15:14:00.812Z</time></trkpt><trkpt lat="44.6997495" lon="8.0434547"><ele>170.0</ele><time>2026-04-10T15:14:01.81Z</time></trkpt><trkpt lat="44.6998424" lon="8.0434505"><ele>170.16666666666666</ele><time>2026-04-10T15:14:02.811Z</time></trkpt><trkpt lat="44.6999322" lon="8.0434182"><ele>170.33333333333331</ele><time>2026-04-10T15:14:03.811Z</time></trkpt><trkpt lat="44.7000207" lon="8.0433875"><ele>170.5</ele><time>2026-04-10T15:14:04.812Z</time></trkpt><trkpt lat="44.7000978" lon="8.0433428"><ele>170.66666666666666</ele><time>2026-04-10T15:14:05.81Z</time></trkpt><trkpt lat="44.7001641" lon="8.0433005"><ele>170.83333333333334</ele><time>2026-04-10T15:14:06.811Z</time></trkpt><trkpt lat="44.7002294" lon="8.0432571"><ele>171.0</ele><time>2026-04-10T15:14:07.81Z</time></trkpt><trkpt lat="44.7002817" lon="8.0431946"><ele>170.14285714285714</ele><time>2026-04-10T15:14:08.81Z</time></trkpt><trkpt lat="44.7003111" lon="8.0431128"><ele>169.28571428571428</ele><time>2026-04-10T15:14:09.811Z</time></trkpt><trkpt lat="44.7003215" lon="8.0430143"><ele>168.42857142857144</ele><time>2026-04-10T15:14:10.81Z</time></trkpt><trkpt lat="44.7003166" lon="8.0429139"><ele>167.57142857142856</ele><time>2026-04-10T15:14:11.812Z</time></trkpt><trkpt lat="44.7003069" lon="8.042807"><ele>166.71428571428572</ele><time>2026-04-10T15:14:12.811Z</time></trkpt><trkpt lat="44.700308" lon="8.0427033"><ele>165.85714285714286</ele><time>2026-04-10T15:14:13.811Z</time></trkpt><trkpt lat="44.7003234" lon="8.0426082"><ele>165.0</ele><time>2026-04-10T15:14:14.811Z</time></trkpt><trkpt lat="44.7003351" lon="8.042513"><ele>164.66666666666666</ele><time>2026-04-10T15:14:15.811Z</time></trkpt><trkpt lat="44.7003481" lon="8.0424168"><ele>164.33333333333334</ele><time>2026-04-10T15:14:16.81Z</time></trkpt><trkpt lat="44.7003618" lon="8.0423245"><ele>164.0</ele><time>2026-04-10T15:14:17.811Z</time></trkpt><trkpt lat="44.7003742" lon="8.0422334"><ele>163.66666666666669</ele><time>2026-04-10T15:14:18.81Z</time></trkpt><trkpt lat="44.7003939" lon="8.0420588"><ele>163.33333333333334</ele><time>2026-04-10T15:14:20.81Z</time></trkpt><trkpt lat="44.7004039" lon="8.0419574"><ele>163.0</ele><time>2026-04-10T15:14:21.811Z</time></trkpt><trkpt lat="44.7004264" lon="8.0417928"><ele>163.0</ele><time>2026-04-10T15:14:23.811Z</time></trkpt><trkpt lat="44.7004224" lon="8.0417"><ele>163.0</ele><time>2026-04-10T15:14:24.81Z</time></trkpt><trkpt lat="44.7004313" lon="8.0416092"><ele>163.0</ele><time>2026-04-10T15:14:25.811Z</time></trkpt><trkpt lat="44.7004495" lon="8.0415224"><ele>163.0</ele><time>2026-04-10T15:14:26.81Z</time></trkpt><trkpt lat="44.700466" lon="8.0414338"><ele>163.0</ele><time>2026-04-10T15:14:27.811Z</time></trkpt><trkpt lat="44.7004811" lon="8.0413433"><ele>163.0</ele><time>2026-04-10T15:14:28.811Z</time></trkpt><trkpt lat="44.7004893" lon="8.0412451"><ele>163.0</ele><time>2026-04-10T15:14:29.81Z</time></trkpt><trkpt lat="44.7005205" lon="8.0410509"><ele>163.2</ele><time>2026-04-10T15:14:31.81Z</time></trkpt><trkpt lat="44.7005418" lon="8.0408985"><ele>163.4</ele><time>2026-04-10T15:14:33.81Z</time></trkpt><trkpt lat="44.7005652" lon="8.0407417"><ele>163.6</ele><time>2026-04-10T15:14:35.811Z</time></trkpt><trkpt lat="44.7005884" lon="8.0405811"><ele>163.79999999999998</ele><time>2026-04-10T15:14:37.81Z</time></trkpt><trkpt lat="44.7006029" lon="8.0404455"><ele>164.0</ele><time>2026-04-10T15:14:39.811Z</time></trkpt><trkpt lat="44.7006239" lon="8.0403436"><ele>164.7142857142857</ele><time>2026-04-10T15:14:42.811Z</time></trkpt><trkpt lat="44.7006412" lon="8.0402508"><ele>165.42857142857142</ele><time>2026-04-10T15:14:44.811Z</time></trkpt><trkpt lat="44.7006219" lon="8.0401614"><ele>166.14285714285714</ele><time>2026-04-10T15:17:32.811Z</time></trkpt><trkpt lat="44.7006458" lon="8.0400625"><ele>166.85714285714283</ele><time>2026-04-10T15:17:36.811Z</time></trkpt><trkpt lat="44.7006923" lon="8.0399726"><ele>167.57142857142856</ele><time>2026-04-10T15:17:39.809Z</time></trkpt><trkpt lat="44.7007278" lon="8.0398701"><ele>168.28571428571428</ele><time>2026-04-10T15:17:42.809Z</time></trkpt><trkpt lat="44.700756" lon="8.0397905"><ele>169.0</ele><time>2026-04-10T15:17:44.809Z</time></trkpt><trkpt lat="44.7007919" lon="8.0397132"><ele>169.42857142857144</ele><time>2026-04-10T15:17:46.809Z</time></trkpt><trkpt lat="44.7008356" lon="8.0396434"><ele>169.85714285714286</ele><time>2026-04-10T15:17:48.809Z</time></trkpt><trkpt lat="44.7008769" lon="8.0395668"><ele>170.28571428571428</ele><time>2026-04-10T15:17:50.81Z</time></trkpt><trkpt lat="44.700904" lon="8.0394477"><ele>170.71428571428572</ele><time>2026-04-10T15:17:53.81Z</time></trkpt><trkpt lat="44.7009316" lon="8.039342"><ele>171.14285714285714</ele><time>2026-04-10T15:17:56.809Z</time></trkpt><trkpt lat="44.7009524" lon="8.0392463"><ele>171.57142857142858</ele><time>2026-04-10T15:17:59.81Z</time></trkpt><trkpt lat="44.7009559" lon="8.0391488"><ele>172.0</ele><time>2026-04-10T15:18:02.81Z</time></trkpt><trkpt lat="44.7009759" lon="8.0390546"><ele>172.33333333333334</ele><time>2026-04-10T15:18:05.809Z</time></trkpt><trkpt lat="44.7010057" lon="8.0389432"><ele>172.66666666666669</ele><time>2026-04-10T15:18:08.81Z</time></trkpt><trkpt lat="44.7010323" lon="8.0388546"><ele>173.0</ele><time>2026-04-10T15:18:11.81Z</time></trkpt><trkpt lat="44.7010519" lon="8.0387567"><ele>173.33333333333334</ele><time>2026-04-10T15:18:14.809Z</time></trkpt><trkpt lat="44.7010639" lon="8.0386356"><ele>173.66666666666666</ele><time>2026-04-10T15:18:18.811Z</time></trkpt><trkpt lat="44.7010612" lon="8.0385214"><ele>174.0</ele><time>2026-04-10T15:18:21.809Z</time></trkpt><trkpt lat="44.7010727" lon="8.0384337"><ele>174.0</ele><time>2026-04-10T15:18:23.809Z</time></trkpt><trkpt lat="44.7010903" lon="8.0383314"><ele>174.0</ele><time>2026-04-10T15:18:25.81Z</time></trkpt><trkpt lat="44.701121" lon="8.0382149"><ele>174.0</ele><time>2026-04-10T15:18:27.81Z</time></trkpt><trkpt lat="44.7011538" lon="8.038094"><ele>174.0</ele><time>2026-04-10T15:18:29.81Z</time></trkpt><trkpt lat="44.7011513" lon="8.0380013"><ele>174.0</ele><time>2026-04-10T15:18:31.81Z</time></trkpt><trkpt lat="44.7011515" lon="8.0379115"><ele>174.0</ele><time>2026-04-10T15:18:33.81Z</time></trkpt><trkpt lat="44.7011675" lon="8.0378187"><ele>174.0</ele><time>2026-04-10T15:18:35.81Z</time></trkpt><trkpt lat="44.701206" lon="8.0377072"><ele>174.0</ele><time>2026-04-10T15:18:38.81Z</time></trkpt><trkpt lat="44.7012034" lon="8.0376058"><ele>174.0</ele><time>2026-04-10T15:18:41.81Z</time></trkpt><trkpt lat="44.7011795" lon="8.0374962"><ele>174.0</ele><time>2026-04-10T15:18:43.81Z</time></trkpt><trkpt lat="44.7011382" lon="8.0374292"><ele>174.0</ele><time>2026-04-10T15:18:45.81Z</time></trkpt><trkpt lat="44.7010954" lon="8.0373457"><ele>174.0</ele><time>2026-04-10T15:18:47.809Z</time></trkpt><trkpt lat="44.7010577" lon="8.0372297"><ele>174.16666666666666</ele><time>2026-04-10T15:18:49.81Z</time></trkpt><trkpt lat="44.7010461" lon="8.0371138"><ele>174.33333333333334</ele><time>2026-04-10T15:18:51.81Z</time></trkpt><trkpt lat="44.7010585" lon="8.0370069"><ele>174.5</ele><time>2026-04-10T15:18:53.809Z</time></trkpt><trkpt lat="44.7010709" lon="8.0369096"><ele>174.66666666666669</ele><time>2026-04-10T15:18:55.811Z</time></trkpt><trkpt lat="44.7010825" lon="8.0368054"><ele>174.83333333333334</ele><time>2026-04-10T15:18:57.81Z</time></trkpt><trkpt lat="44.7010918" lon="8.0366977"><ele>175.0</ele><time>2026-04-10T15:18:59.809Z</time></trkpt><trkpt lat="44.7010846" lon="8.036594"><ele>175.33333333333334</ele><time>2026-04-10T15:19:01.81Z</time></trkpt><trkpt lat="44.7010806" lon="8.0364933"><ele>175.66666666666669</ele><time>2026-04-10T15:19:03.809Z</time></trkpt><trkpt lat="44.7010833" lon="8.0363933"><ele>176.0</ele><time>2026-04-10T15:19:05.81Z</time></trkpt><trkpt lat="44.7010772" lon="8.0362948"><ele>176.33333333333334</ele><time>2026-04-10T15:19:07.811Z</time></trkpt><trkpt lat="44.7010304" lon="8.0361658"><ele>176.66666666666666</ele><time>2026-04-10T15:19:09.81Z</time></trkpt><trkpt lat="44.7009245" lon="8.0361485"><ele>177.0</ele><time>2026-04-10T15:19:11.809Z</time></trkpt><trkpt lat="44.7008626" lon="8.0361191"><ele>177.33333333333334</ele><time>2026-04-10T15:19:13.81Z</time></trkpt><trkpt lat="44.7007757" lon="8.0360707"><ele>177.66666666666666</ele><time>2026-04-10T15:19:16.81Z</time></trkpt><trkpt lat="44.7007113" lon="8.0360647"><ele>178.0</ele><time>2026-04-10T15:19:18.811Z</time></trkpt><trkpt lat="44.7006045" lon="8.0360473"><ele>178.33333333333331</ele><time>2026-04-10T15:19:20.81Z</time></trkpt><trkpt lat="44.7005559" lon="8.0361069"><ele>178.66666666666666</ele><time>2026-04-10T15:19:23.81Z</time></trkpt><trkpt lat="44.7005181" lon="8.0362439"><ele>179.0</ele><time>2026-04-10T15:19:26.81Z</time></trkpt><trkpt lat="44.7005036" lon="8.0363408"><ele>179.0</ele><time>2026-04-10T15:19:28.81Z</time></trkpt><trkpt lat="44.7004823" lon="8.036456"><ele>179.0</ele><time>2026-04-10T15:19:31.809Z</time></trkpt><trkpt lat="44.7004608" lon="8.0365771"><ele>179.0</ele><time>2026-04-10T15:19:34.809Z</time></trkpt><trkpt lat="44.7004511" lon="8.0366724"><ele>179.0</ele><time>2026-04-10T15:19:36.81Z</time></trkpt><trkpt lat="44.7004478" lon="8.0368007"><ele>179.0</ele><time>2026-04-10T15:19:39.81Z</time></trkpt><trkpt lat="44.7004623" lon="8.0369164"><ele>179.0</ele><time>2026-04-10T15:19:41.809Z</time></trkpt><trkpt lat="44.7004588" lon="8.0370184"><ele>178.66666666666666</ele><time>2026-04-10T15:19:43.811Z</time></trkpt><trkpt lat="44.7004383" lon="8.037123"><ele>178.33333333333331</ele><time>2026-04-10T15:19:45.81Z</time></trkpt><trkpt lat="44.7004076" lon="8.0372329"><ele>178.0</ele><time>2026-04-10T15:19:47.81Z</time></trkpt><trkpt lat="44.7003792" lon="8.0373405"><ele>177.66666666666666</ele><time>2026-04-10T15:19:49.81Z</time></trkpt><trkpt lat="44.7003415" lon="8.0374344"><ele>177.33333333333334</ele><time>2026-04-10T15:19:51.81Z</time></trkpt><trkpt lat="44.7002644" lon="8.0375036"><ele>177.0</ele><time>2026-04-10T15:19:53.809Z</time></trkpt><trkpt lat="44.700166" lon="8.0375072"><ele>176.83333333333334</ele><time>2026-04-10T15:19:55.809Z</time></trkpt><trkpt lat="44.700069" lon="8.0374909"><ele>176.66666666666666</ele><time>2026-04-10T15:19:57.81Z</time></trkpt><trkpt lat="44.699976" lon="8.0374816"><ele>176.5</ele><time>2026-04-10T15:19:59.809Z</time></trkpt><trkpt lat="44.6998987" lon="8.0374926"><ele>176.33333333333331</ele><time>2026-04-10T15:20:01.809Z</time></trkpt><trkpt lat="44.699803" lon="8.0375362"><ele>176.16666666666666</ele><time>2026-04-10T15:20:04.809Z</time></trkpt><trkpt lat="44.6997264" lon="8.037552"><ele>176.0</ele><time>2026-04-10T15:20:06.809Z</time></trkpt><trkpt lat="44.6996422" lon="8.037541"><ele>176.0</ele><time>2026-04-10T15:20:08.808Z</time></trkpt><trkpt lat="44.6995605" lon="8.0374837"><ele>176.0</ele><time>2026-04-10T15:20:10.809Z</time></trkpt><trkpt lat="44.6995503" lon="8.0372901"><ele>176.0</ele><time>2026-04-10T15:20:12.809Z</time></trkpt><trkpt lat="44.6995424" lon="8.0371678"><ele>176.0</ele><time>2026-04-10T15:20:14.808Z</time></trkpt><trkpt lat="44.6995456" lon="8.0370586"><ele>176.0</ele><time>2026-04-10T15:20:16.809Z</time></trkpt><trkpt lat="44.6995529" lon="8.0369438"><ele>176.33333333333331</ele><time>2026-04-10T15:20:18.809Z</time></trkpt><trkpt lat="44.6995633" lon="8.036832"><ele>176.66666666666666</ele><time>2026-04-10T15:20:20.81Z</time></trkpt><trkpt lat="44.6995711" lon="8.0367122"><ele>177.0</ele><time>2026-04-10T15:20:22.809Z</time></trkpt><trkpt lat="44.6995901" lon="8.036577"><ele>177.33333333333334</ele><time>2026-04-10T15:20:24.809Z</time></trkpt><trkpt lat="44.6996198" lon="8.0364636"><ele>177.66666666666669</ele><time>2026-04-10T15:20:26.809Z</time></trkpt><trkpt lat="44.6996558" lon="8.0363605"><ele>178.0</ele><time>2026-04-10T15:20:28.809Z</time></trkpt><trkpt lat="44.6996934" lon="8.0362617"><ele>178.33333333333334</ele><time>2026-04-10T15:20:30.809Z</time></trkpt><trkpt lat="44.699731" lon="8.0361497"><ele>178.66666666666669</ele><time>2026-04-10T15:20:32.809Z</time></trkpt><trkpt lat="44.6996602" lon="8.0361187"><ele>179.0</ele><time>2026-04-10T15:20:34.809Z</time></trkpt><trkpt lat="44.6995709" lon="8.0361375"><ele>179.33333333333334</ele><time>2026-04-10T15:20:36.809Z</time></trkpt><trkpt lat="44.6994983" lon="8.0361965"><ele>179.66666666666666</ele><time>2026-04-10T15:20:39.809Z</time></trkpt><trkpt lat="44.6994038" lon="8.0362202"><ele>180.0</ele><time>2026-04-10T15:20:42.809Z</time></trkpt><trkpt lat="44.6993081" lon="8.0361784"><ele>179.0</ele><time>2026-04-10T15:20:44.808Z</time></trkpt><trkpt lat="44.6992082" lon="8.0360893"><ele>178.0</ele><time>2026-04-10T15:20:45.809Z</time></trkpt><trkpt lat="44.699121" lon="8.0360574"><ele>177.0</ele><time>2026-04-10T15:20:47.808Z</time></trkpt><trkpt lat="44.6990268" lon="8.036032"><ele>176.0</ele><time>2026-04-10T15:20:49.808Z</time></trkpt><trkpt lat="44.6989187" lon="8.0360184"><ele>175.0</ele><time>2026-04-10T15:20:51.809Z</time></trkpt><trkpt lat="44.6988317" lon="8.0360063"><ele>175.0</ele><time>2026-04-10T15:20:53.81Z</time></trkpt><trkpt lat="44.6987745" lon="8.0359665"><ele>175.0</ele><time>2026-04-10T15:20:55.808Z</time></trkpt><trkpt lat="44.6986931" lon="8.0359165"><ele>175.0</ele><time>2026-04-10T15:20:58.809Z</time></trkpt><trkpt lat="44.6986096" lon="8.035926"><ele>175.0</ele><time>2026-04-10T15:21:00.809Z</time></trkpt><trkpt lat="44.6985271" lon="8.0359705"><ele>175.0</ele><time>2026-04-10T15:21:02.809Z</time></trkpt><trkpt lat="44.6984276" lon="8.0359915"><ele>175.0</ele><time>2026-04-10T15:21:04.809Z</time></trkpt><trkpt lat="44.6983972" lon="8.0359076"><ele>175.16666666666669</ele><time>2026-04-10T15:21:11.809Z</time></trkpt><trkpt lat="44.698419" lon="8.0358147"><ele>175.33333333333334</ele><time>2026-04-10T15:21:15.809Z</time></trkpt><trkpt lat="44.6984351" lon="8.0356944"><ele>175.5</ele><time>2026-04-10T15:21:19.808Z</time></trkpt><trkpt lat="44.6983966" lon="8.0357925"><ele>175.66666666666666</ele><time>2026-04-10T15:21:27.809Z</time></trkpt><trkpt lat="44.6983792" lon="8.0358885"><ele>175.83333333333331</ele><time>2026-04-10T15:21:29.808Z</time></trkpt><trkpt lat="44.6983763" lon="8.0359966"><ele>176.0</ele><time>2026-04-10T15:21:31.809Z</time></trkpt><trkpt lat="44.6983709" lon="8.0360987"><ele>175.57142857142858</ele><time>2026-04-10T15:21:33.809Z</time></trkpt><trkpt lat="44.6983571" lon="8.0361981"><ele>175.14285714285714</ele><time>2026-04-10T15:21:35.809Z</time></trkpt><trkpt lat="44.6983227" lon="8.0362998"><ele>174.71428571428572</ele><time>2026-04-10T15:21:38.809Z</time></trkpt><trkpt lat="44.698264" lon="8.0363527"><ele>174.28571428571428</ele><time>2026-04-10T15:21:42.809Z</time></trkpt><trkpt lat="44.6981942" lon="8.0363558"><ele>173.85714285714286</ele><time>2026-04-10T15:21:44.809Z</time></trkpt><trkpt lat="44.6981179" lon="8.0363442"><ele>173.42857142857142</ele><time>2026-04-10T15:21:46.809Z</time></trkpt><trkpt lat="44.6980496" lon="8.0363151"><ele>173.0</ele><time>2026-04-10T15:21:48.809Z</time></trkpt><trkpt lat="44.6979846" lon="8.0363345"><ele>173.0</ele><time>2026-04-10T15:21:50.667Z</time></trkpt><trkpt lat="44.6978318" lon="8.0363907"><ele>173.0</ele><time>2026-04-10T15:21:54.809Z</time></trkpt><trkpt lat="44.6977613" lon="8.0364309"><ele>173.0</ele><time>2026-04-10T15:21:56.81Z</time></trkpt><trkpt lat="44.6976811" lon="8.0364509"><ele>173.0</ele><time>2026-04-10T15:21:58.811Z</time></trkpt><trkpt lat="44.6975896" lon="8.0364421"><ele>173.0</ele><time>2026-04-10T15:22:00.81Z</time></trkpt><trkpt lat="44.697568" lon="8.0363453"><ele>173.16666666666666</ele><time>2026-04-10T15:22:04.809Z</time></trkpt><trkpt lat="44.6975527" lon="8.0362565"><ele>173.33333333333331</ele><time>2026-04-10T15:22:07.809Z</time></trkpt><trkpt lat="44.6975276" lon="8.0361438"><ele>173.5</ele><time>2026-04-10T15:22:09.81Z</time></trkpt><trkpt lat="44.6975168" lon="8.0360231"><ele>173.66666666666666</ele><time>2026-04-10T15:22:11.81Z</time></trkpt><trkpt lat="44.6975059" lon="8.0358962"><ele>173.83333333333334</ele><time>2026-04-10T15:22:13.811Z</time></trkpt><trkpt lat="44.6974966" lon="8.03578"><ele>174.0</ele><time>2026-04-10T15:22:15.81Z</time></trkpt><trkpt lat="44.6974848" lon="8.0356477"><ele>174.5</ele><time>2026-04-10T15:22:17.81Z</time></trkpt><trkpt lat="44.6974482" lon="8.0355221"><ele>175.0</ele><time>2026-04-10T15:22:19.81Z</time></trkpt><trkpt lat="44.6974299" lon="8.0353943"><ele>175.5</ele><time>2026-04-10T15:22:21.81Z</time></trkpt><trkpt lat="44.6974202" lon="8.0352866"><ele>176.0</ele><time>2026-04-10T15:22:23.81Z</time></trkpt><trkpt lat="44.6973768" lon="8.0351914"><ele>176.5</ele><time>2026-04-10T15:22:25.809Z</time></trkpt><trkpt lat="44.6973485" lon="8.0350937"><ele>177.0</ele><time>2026-04-10T15:22:27.809Z</time></trkpt><trkpt lat="44.6973439" lon="8.0349813"><ele>177.42857142857144</ele><time>2026-04-10T15:22:29.809Z</time></trkpt><trkpt lat="44.6973589" lon="8.0348742"><ele>177.85714285714283</ele><time>2026-04-10T15:22:31.81Z</time></trkpt><trkpt lat="44.697352" lon="8.0347702"><ele>178.28571428571428</ele><time>2026-04-10T15:22:33.811Z</time></trkpt><trkpt lat="44.6973091" lon="8.0346866"><ele>178.71428571428572</ele><time>2026-04-10T15:22:35.81Z</time></trkpt><trkpt lat="44.6972561" lon="8.034627"><ele>179.14285714285717</ele><time>2026-04-10T15:22:37.811Z</time></trkpt><trkpt lat="44.6971955" lon="8.0345755"><ele>179.57142857142856</ele><time>2026-04-10T15:22:39.809Z</time></trkpt><trkpt lat="44.6971532" lon="8.0345075"><ele>180.0</ele><time>2026-04-10T15:22:41.81Z</time></trkpt><trkpt lat="44.6971812" lon="8.034393"><ele>180.0</ele><time>2026-04-10T15:22:44.811Z</time></trkpt><trkpt lat="44.6972031" lon="8.0343037"><ele>180.0</ele><time>2026-04-10T15:22:46.809Z</time></trkpt><trkpt lat="44.6972089" lon="8.0342121"><ele>180.0</ele><time>2026-04-10T15:22:48.809Z</time></trkpt><trkpt lat="44.6971954" lon="8.0341233"><ele>180.0</ele><time>2026-04-10T15:22:50.809Z</time></trkpt><trkpt lat="44.6971946" lon="8.034005"><ele>180.0</ele><time>2026-04-10T15:22:53.808Z</time></trkpt><trkpt lat="44.6971912" lon="8.0338952"><ele>180.0</ele><time>2026-04-10T15:22:56.808Z</time></trkpt><trkpt lat="44.6971285" lon="8.0338444"><ele>180.0</ele><time>2026-04-10T15:22:58.809Z</time></trkpt><trkpt lat="44.6970251" lon="8.0338375"><ele>180.0</ele><time>2026-04-10T15:23:00.808Z</time></trkpt><trkpt lat="44.6969226" lon="8.0338366"><ele>180.0</ele><time>2026-04-10T15:23:02.809Z</time></trkpt><trkpt lat="44.6968066" lon="8.0338537"><ele>180.0</ele><time>2026-04-10T15:23:04.81Z</time></trkpt><trkpt lat="44.6967401" lon="8.0338558"><ele>180.0</ele><time>2026-04-10T15:23:06.809Z</time></trkpt><trkpt lat="44.6966775" lon="8.0338393"><ele>180.0</ele><time>2026-04-10T15:23:08.808Z</time></trkpt><trkpt lat="44.6966256" lon="8.0337845"><ele>180.0</ele><time>2026-04-10T15:23:12.808Z</time></trkpt><trkpt lat="44.6966426" lon="8.0336869"><ele>179.33333333333334</ele><time>2026-04-10T15:23:17.808Z</time></trkpt><trkpt lat="44.696665" lon="8.0335564"><ele>178.66666666666666</ele><time>2026-04-10T15:23:20.808Z</time></trkpt><trkpt lat="44.6966704" lon="8.0334584"><ele>178.0</ele><time>2026-04-10T15:23:22.809Z</time></trkpt><trkpt lat="44.6966674" lon="8.0333307"><ele>177.33333333333331</ele><time>2026-04-10T15:23:24.809Z</time></trkpt><trkpt lat="44.6966746" lon="8.0332112"><ele>176.66666666666666</ele><time>2026-04-10T15:23:26.809Z</time></trkpt><trkpt lat="44.6966846" lon="8.0330854"><ele>176.0</ele><time>2026-04-10T15:23:28.809Z</time></trkpt><trkpt lat="44.6966973" lon="8.0329726"><ele>175.0</ele><time>2026-04-10T15:23:30.809Z</time></trkpt><trkpt lat="44.6966998" lon="8.0328643"><ele>174.0</ele><time>2026-04-10T15:23:32.809Z</time></trkpt><trkpt lat="44.6966845" lon="8.0327423"><ele>173.0</ele><time>2026-04-10T15:23:34.81Z</time></trkpt><trkpt lat="44.6966236" lon="8.0326381"><ele>172.0</ele><time>2026-04-10T15:23:36.81Z</time></trkpt><trkpt lat="44.6965432" lon="8.0325752"><ele>171.0</ele><time>2026-04-10T15:23:38.81Z</time></trkpt><trkpt lat="44.6964612" lon="8.0325018"><ele>170.66666666666666</ele><time>2026-04-10T15:23:40.808Z</time></trkpt><trkpt lat="44.6963864" lon="8.0324236"><ele>170.33333333333334</ele><time>2026-04-10T15:23:42.809Z</time></trkpt><trkpt lat="44.6963312" lon="8.032349"><ele>170.0</ele><time>2026-04-10T15:23:44.81Z</time></trkpt><trkpt lat="44.696276" lon="8.0322659"><ele>169.66666666666669</ele><time>2026-04-10T15:23:46.809Z</time></trkpt><trkpt lat="44.6962243" lon="8.0321826"><ele>169.33333333333334</ele><time>2026-04-10T15:23:48.81Z</time></trkpt><trkpt lat="44.6961793" lon="8.0321039"><ele>169.0</ele><time>2026-04-10T15:23:50.809Z</time></trkpt><trkpt lat="44.6961414" lon="8.0320163"><ele>169.0</ele><time>2026-04-10T15:23:52.808Z</time></trkpt><trkpt lat="44.6961057" lon="8.0319362"><ele>169.0</ele><time>2026-04-10T15:23:54.809Z</time></trkpt><trkpt lat="44.6960779" lon="8.0318417"><ele>169.0</ele><time>2026-04-10T15:23:56.809Z</time></trkpt><trkpt lat="44.6961327" lon="8.0317229"><ele>169.0</ele><time>2026-04-10T15:23:58.809Z</time></trkpt><trkpt lat="44.6961941" lon="8.0316051"><ele>169.0</ele><time>2026-04-10T15:24:00.809Z</time></trkpt><trkpt lat="44.6962371" lon="8.0314618"><ele>169.5</ele><time>2026-04-10T15:24:02.808Z</time></trkpt><trkpt lat="44.696258" lon="8.0312957"><ele>170.0</ele><time>2026-04-10T15:24:04.809Z</time></trkpt><trkpt lat="44.6962407" lon="8.0311206"><ele>170.5</ele><time>2026-04-10T15:24:06.808Z</time></trkpt><trkpt lat="44.6961762" lon="8.0309738"><ele>171.0</ele><time>2026-04-10T15:24:08.81Z</time></trkpt><trkpt lat="44.6961" lon="8.0308361"><ele>171.4</ele><time>2026-04-10T15:24:10.808Z</time></trkpt><trkpt lat="44.6960262" lon="8.0307088"><ele>171.8</ele><time>2026-04-10T15:24:12.809Z</time></trkpt><trkpt lat="44.6959531" lon="8.0305797"><ele>172.20000000000002</ele><time>2026-04-10T15:24:14.809Z</time></trkpt><trkpt lat="44.6958972" lon="8.0304713"><ele>172.60000000000002</ele><time>2026-04-10T15:24:16.81Z</time></trkpt><trkpt lat="44.6958747" lon="8.030373"><ele>173.0</ele><time>2026-04-10T15:24:19.809Z</time></trkpt><trkpt lat="44.6959244" lon="8.0304543"><ele>173.0</ele><time>2026-04-10T15:24:23.809Z</time></trkpt><trkpt lat="44.6959699" lon="8.0305341"><ele>173.0</ele><time>2026-04-10T15:24:26.809Z</time></trkpt><trkpt lat="44.6959434" lon="8.0306188"><ele>173.0</ele><time>2026-04-10T15:24:31.809Z</time></trkpt><trkpt lat="44.6958576" lon="8.0305794"><ele>173.0</ele><time>2026-04-10T15:24:34.809Z</time></trkpt><trkpt lat="44.6957842" lon="8.0305567"><ele>173.0</ele><time>2026-04-10T15:24:36.809Z</time></trkpt><trkpt lat="44.6957245" lon="8.0305913"><ele>173.0</ele><time>2026-04-10T15:24:38.809Z</time></trkpt><trkpt lat="44.6956499" lon="8.0306488"><ele>173.0</ele><time>2026-04-10T15:24:41.809Z</time></trkpt><trkpt lat="44.6955771" lon="8.0306606"><ele>173.0</ele><time>2026-04-10T15:24:45.809Z</time></trkpt><trkpt lat="44.695517" lon="8.0306977"><ele>173.0</ele><time>2026-04-10T15:24:51.808Z</time></trkpt><trkpt lat="44.6954933" lon="8.0307974"><ele>173.0</ele><time>2026-04-10T15:24:55.809Z</time></trkpt><trkpt lat="44.6955041" lon="8.0308903"><ele>173.0</ele><time>2026-04-10T15:24:58.808Z</time></trkpt><trkpt lat="44.6955674" lon="8.0308725"><ele>173.0</ele><time>2026-04-10T15:25:28.81Z</time></trkpt><trkpt lat="44.695556" lon="8.0307686"><ele>173.0</ele><time>2026-04-10T15:25:32.809Z</time></trkpt><trkpt lat="44.6955265" lon="8.0306552"><ele>173.0</ele><time>2026-04-10T15:26:28.809Z</time></trkpt></trkseg></trk></gpx>